<?xml version='1.0' encoding='UTF-8'?><gpx version="1.1" creator="JPX - https://github.com/jenetics/jpx" xmlns="http://www.topografix.com/GPX/1/1"><trk><trkseg><trkpt lat="44.08082735130056" lon="11.360892481362407"><ele>731.0</ele><time>2026-04-11T13:26:50Z</time></trkpt><trkpt lat="44.08089645609799" lon="11.360966949660842"><ele>731.0</ele><time>2026-04-11T13:34:39Z</time></trkpt><trkpt lat="44.080991834158745" lon="11.360908910888444"><ele>731.0</ele><time>2026-04-11T13:34:43Z</time></trkpt><trkpt lat="44.08102937876608" lon="11.360828256037207"><ele>731.0</ele><time>2026-04-11T13:34:44Z</time></trkpt><trkpt lat="44.081069318917294" lon="11.360751053844494"><ele>731.0</ele><time>2026-04-11T13:34:46Z</time></trkpt><trkpt lat="44.081093231940365" lon="11.360884139238642"><ele>731.0</ele><time>2026-04-11T13:34:51Z</time></trkpt><trkpt lat="44.0810979036981" lon="11.361031309111441"><ele>731.0</ele><time>2026-04-11T13:34:53Z</time></trkpt><trkpt lat="44.08115875063969" lon="11.361161737411702"><ele>731.0</ele><time>2026-04-11T13:34:55Z</time></trkpt><trkpt lat="44.08118805236344" lon="11.361269695621056"><ele>731.0</ele><time>2026-04-11T13:34:57Z</time></trkpt><trkpt lat="44.08117926217526" lon="11.36136296369878"><ele>731.0</ele><time>2026-04-11T13:34:59Z</time></trkpt><trkpt lat="44.08115920513065" lon="11.361483724562873"><ele>731.0</ele><time>2026-04-11T13:35:01Z</time></trkpt><trkpt lat="44.08118819066123" lon="11.361621322411263"><ele>731.4</ele><time>2026-04-11T13:35:03Z</time></trkpt><trkpt lat="44.08124035369968" lon="11.361746032414406"><ele>731.8</ele><time>2026-04-11T13:35:05Z</time></trkpt><trkpt lat="44.08126533263643" lon="11.361855578659133"><ele>732.1999999999999</ele><time>2026-04-11T13:35:07Z</time></trkpt><trkpt lat="44.08130470978964" lon="11.361932095077162"><ele>732.5999999999999</ele><time>2026-04-11T13:35:10Z</time></trkpt><trkpt lat="44.08136344558441" lon="11.36203955409758"><ele>733.0</ele><time>2026-04-11T13:35:12Z</time></trkpt><trkpt lat="44.0814481683766" lon="11.362139375773808"><ele>735.5</ele><time>2026-04-11T13:35:14Z</time></trkpt><trkpt lat="44.081508060325014" lon="11.362248489621763"><ele>738.0</ele><time>2026-04-11T13:35:16Z</time></trkpt><trkpt lat="44.08151982450485" lon="11.362378179279652"><ele>740.5</ele><time>2026-04-11T13:35:19Z</time></trkpt><trkpt lat="44.08148374899301" lon="11.362459503401233"><ele>743.0</ele><time>2026-04-11T13:35:26.999Z</time></trkpt><trkpt lat="44.0813936522085" lon="11.362519677322457"><ele>745.5</ele><time>2026-04-11T13:35:28.999Z</time></trkpt><trkpt lat="44.08131193920719" lon="11.36252125758295"><ele>748.0</ele><time>2026-04-11T13:35:30.999Z</time></trkpt><trkpt lat="44.08121449730992" lon="11.362572803401857"><ele>748.0</ele><time>2026-04-11T13:35:32.999Z</time></trkpt><trkpt lat="44.08110126097098" lon="11.36266078469541"><ele>748.0</ele><time>2026-04-11T13:35:34.999Z</time></trkpt><trkpt lat="44.08103701588238" lon="11.362719834371685"><ele>748.0</ele><time>2026-04-11T13:35:35.999Z</time></trkpt><trkpt lat="44.080964853112505" lon="11.362780861081108"><ele>748.0</ele><time>2026-04-11T13:35:36.999Z</time></trkpt><trkpt lat="44.08090903504472" lon="11.362835434597766"><ele>748.0</ele><time>2026-04-11T13:35:37.999Z</time></trkpt><trkpt lat="44.08085622356924" lon="11.362887804620629"><ele>748.0</ele><time>2026-04-11T13:35:38.999Z</time></trkpt><trkpt lat="44.08080582001243" lon="11.362963796641884"><ele>751.4</ele><time>2026-04-11T13:35:39.999Z</time></trkpt><trkpt lat="44.08076828330718" lon="11.363040071807482"><ele>754.8</ele><time>2026-04-11T13:35:40.999Z</time></trkpt><trkpt lat="44.080686527047696" lon="11.36311527684254"><ele>758.2</ele><time>2026-04-11T13:35:42.999Z</time></trkpt><trkpt lat="44.080579974536214" lon="11.36307993147944"><ele>761.6</ele><time>2026-04-11T13:35:44.999Z</time></trkpt><trkpt lat="44.08048951928447" lon="11.363158353069535"><ele>765.0</ele><time>2026-04-11T13:35:46.999Z</time></trkpt><trkpt lat="44.080396810686075" lon="11.363291558067466"><ele>765.4</ele><time>2026-04-11T13:35:48.999Z</time></trkpt><trkpt lat="44.0803511231593" lon="11.363404460742663"><ele>765.8</ele><time>2026-04-11T13:35:50.999Z</time></trkpt><trkpt lat="44.0802622037543" lon="11.363375210561673"><ele>766.2</ele><time>2026-04-11T13:35:53.999Z</time></trkpt><trkpt lat="44.08017929741441" lon="11.363333147921534"><ele>766.6</ele><time>2026-04-11T13:35:55.999Z</time></trkpt><trkpt lat="44.080083034769494" lon="11.363417823384747"><ele>767.0</ele><time>2026-04-11T13:35:57.999Z</time></trkpt><trkpt lat="44.079960390546596" lon="11.36354974490602"><ele>767.6666666666666</ele><time>2026-04-11T13:35:59.999Z</time></trkpt><trkpt lat="44.07988821216702" lon="11.363587710311643"><ele>768.3333333333333</ele><time>2026-04-11T13:36:00.999Z</time></trkpt><trkpt lat="44.07983170686307" lon="11.363635230799956"><ele>769.0</ele><time>2026-04-11T13:36:01.999Z</time></trkpt><trkpt lat="44.07977575276795" lon="11.363683235460444"><ele>769.6666666666666</ele><time>2026-04-11T13:36:02.999Z</time></trkpt><trkpt lat="44.07965330850947" lon="11.363738857567057"><ele>770.3333333333334</ele><time>2026-04-11T13:36:04.999Z</time></trkpt><trkpt lat="44.079588548366864" lon="11.363751809458664"><ele>771.0</ele><time>2026-04-11T13:36:05.999Z</time></trkpt><trkpt lat="44.07945540879993" lon="11.363778226138058"><ele>771.0</ele><time>2026-04-11T13:36:07.999Z</time></trkpt><trkpt lat="44.07931989224287" lon="11.36381406332644"><ele>771.0</ele><time>2026-04-11T13:36:09.999Z</time></trkpt><trkpt lat="44.079197391869194" lon="11.363837587411826"><ele>771.0</ele><time>2026-04-11T13:36:11.999Z</time></trkpt><trkpt lat="44.07909601914741" lon="11.363861194513765"><ele>771.0</ele><time>2026-04-11T13:36:13.999Z</time></trkpt><trkpt lat="44.07903420127226" lon="11.3638818435123"><ele>771.0</ele><time>2026-04-11T13:36:14.999Z</time></trkpt><trkpt lat="44.07891375426126" lon="11.363923212695509"><ele>772.4</ele><time>2026-04-11T13:36:17.999Z</time></trkpt><trkpt lat="44.07883841288852" lon="11.363915865259811"><ele>773.8</ele><time>2026-04-11T13:36:18.999Z</time></trkpt><trkpt lat="44.07873707919245" lon="11.363944047885424"><ele>775.1999999999999</ele><time>2026-04-11T13:36:20.999Z</time></trkpt><trkpt lat="44.07864059988087" lon="11.363864062227751"><ele>776.5999999999999</ele><time>2026-04-11T13:36:22.999Z</time></trkpt><trkpt lat="44.078578455303614" lon="11.363842647795963"><ele>778.0</ele><time>2026-04-11T13:36:23.999Z</time></trkpt><trkpt lat="44.07847772923285" lon="11.363881917380132"><ele>780.8333333333333</ele><time>2026-04-11T13:36:25.999Z</time></trkpt><trkpt lat="44.07841197519536" lon="11.363892000674486"><ele>783.6666666666666</ele><time>2026-04-11T13:36:26.999Z</time></trkpt><trkpt lat="44.07830433054093" lon="11.363912802486192"><ele>786.5</ele><time>2026-04-11T13:36:27.999Z</time></trkpt><trkpt lat="44.07822757497903" lon="11.364042746040601"><ele>789.3333333333333</ele><time>2026-04-11T13:36:28.999Z</time></trkpt><trkpt lat="44.078174816373675" lon="11.364117729055062"><ele>792.1666666666666</ele><time>2026-04-11T13:36:29.999Z</time></trkpt><trkpt lat="44.07813317850564" lon="11.36418623788578"><ele>795.0</ele><time>2026-04-11T13:36:30.999Z</time></trkpt><trkpt lat="44.07808070750396" lon="11.3642782618411"><ele>795.0</ele><time>2026-04-11T13:36:32.999Z</time></trkpt><trkpt lat="44.07799205922511" lon="11.364341899929677"><ele>795.0</ele><time>2026-04-11T13:36:50.999Z</time></trkpt><trkpt lat="44.07791000415313" lon="11.364354731923832"><ele>795.0</ele><time>2026-04-11T13:36:52Z</time></trkpt><trkpt lat="44.07780487531717" lon="11.36441685324083"><ele>795.0</ele><time>2026-04-11T13:36:54Z</time></trkpt><trkpt lat="44.07771602212022" lon="11.364475222426202"><ele>795.0</ele><time>2026-04-11T13:36:56Z</time></trkpt><trkpt lat="44.077698241426994" lon="11.364559365180249"><ele>795.0</ele><time>2026-04-11T13:37:00Z</time></trkpt><trkpt lat="44.07774851188985" lon="11.364632318662052"><ele>795.0</ele><time>2026-04-11T13:37:02Z</time></trkpt><trkpt lat="44.07770567096828" lon="11.364698440280316"><ele>795.0</ele><time>2026-04-11T13:37:04Z</time></trkpt><trkpt lat="44.0776367389384" lon="11.364625689178332"><ele>795.0</ele><time>2026-04-11T13:37:06Z</time></trkpt><trkpt lat="44.07765715360785" lon="11.364500883305713"><ele>795.0</ele><time>2026-04-11T13:37:08Z</time></trkpt><trkpt lat="44.077721489984334" lon="11.364425307375077"><ele>795.0</ele><time>2026-04-11T13:37:10Z</time></trkpt><trkpt lat="44.077806700439865" lon="11.364382152415685"><ele>795.0</ele><time>2026-04-11T13:37:11.999Z</time></trkpt><trkpt lat="44.077917602823646" lon="11.364361184665972"><ele>795.0</ele><time>2026-04-11T13:37:13.999Z</time></trkpt><trkpt lat="44.07799409247625" lon="11.36428445414433"><ele>795.0</ele><time>2026-04-11T13:37:16.999Z</time></trkpt><trkpt lat="44.07805125263271" lon="11.364342452733966"><ele>795.0</ele><time>2026-04-11T13:37:23.999Z</time></trkpt><trkpt lat="44.078010282756935" lon="11.36445378585378"><ele>795.0</ele><time>2026-04-11T13:37:26.999Z</time></trkpt><trkpt lat="44.07798688630833" lon="11.364539112937697"><ele>795.0</ele><time>2026-04-11T13:37:28.999Z</time></trkpt><trkpt lat="44.07792683874945" lon="11.36461760369708"><ele>796.1666666666666</ele><time>2026-04-11T13:37:30.999Z</time></trkpt><trkpt lat="44.07787664882006" lon="11.364721327256587"><ele>797.3333333333333</ele><time>2026-04-11T13:37:32.999Z</time></trkpt><trkpt lat="44.077864863367545" lon="11.364829539150122"><ele>798.5</ele><time>2026-04-11T13:37:35.999Z</time></trkpt><trkpt lat="44.07793482888976" lon="11.364811632411165"><ele>799.6666666666666</ele><time>2026-04-11T13:37:38.999Z</time></trkpt><trkpt lat="44.07798841239653" lon="11.364744349343594"><ele>800.8333333333333</ele><time>2026-04-11T13:37:41.999Z</time></trkpt><trkpt lat="44.078069197462646" lon="11.364749023167928"><ele>802.0</ele><time>2026-04-11T13:37:49.999Z</time></trkpt><trkpt lat="44.078153113369005" lon="11.364702201150715"><ele>802.1666666666666</ele><time>2026-04-11T13:37:52.999Z</time></trkpt><trkpt lat="44.078212881534164" lon="11.364643782314925"><ele>802.3333333333333</ele><time>2026-04-11T13:37:55.999Z</time></trkpt><trkpt lat="44.0782919237225" lon="11.36464487339319"><ele>802.5</ele><time>2026-04-11T13:37:57.999Z</time></trkpt><trkpt lat="44.07836861160541" lon="11.364708468651186"><ele>802.6666666666667</ele><time>2026-04-11T13:38:00.999Z</time></trkpt><trkpt lat="44.07840520335242" lon="11.364792754734648"><ele>802.8333333333334</ele><time>2026-04-11T13:38:02.999Z</time></trkpt><trkpt lat="44.078414395086" lon="11.364931003313911"><ele>803.0</ele><time>2026-04-11T13:38:04.999Z</time></trkpt><trkpt lat="44.07841176005273" lon="11.365027011665484"><ele>805.6666666666667</ele><time>2026-04-11T13:38:05.999Z</time></trkpt><trkpt lat="44.07842507013031" lon="11.365180023489685"><ele>808.3333333333334</ele><time>2026-04-11T13:38:07.999Z</time></trkpt><trkpt lat="44.078469604008596" lon="11.36526918125502"><ele>811.0</ele><time>2026-04-11T13:38:09.999Z</time></trkpt><trkpt lat="44.078560803204404" lon="11.365388641052059"><ele>813.6666666666667</ele><time>2026-04-11T13:38:11.999Z</time></trkpt><trkpt lat="44.07861067103743" lon="11.365446869000495"><ele>816.3333333333334</ele><time>2026-04-11T13:38:12.999Z</time></trkpt><trkpt lat="44.07867188351869" lon="11.365481863197353"><ele>819.0</ele><time>2026-04-11T13:38:14.999Z</time></trkpt><trkpt lat="44.07874493771051" lon="11.36552482567986"><ele>821.4000000000001</ele><time>2026-04-11T13:38:22.999Z</time></trkpt><trkpt lat="44.07880676409782" lon="11.365563278862462"><ele>823.8</ele><time>2026-04-11T13:38:24.999Z</time></trkpt><trkpt lat="44.07886523647675" lon="11.365601143181001"><ele>826.2</ele><time>2026-04-11T13:38:25.999Z</time></trkpt><trkpt lat="44.07893941932722" lon="11.365711710567298"><ele>828.5999999999999</ele><time>2026-04-11T13:38:27.999Z</time></trkpt><trkpt lat="44.07898798913" lon="11.3658572231899"><ele>831.0</ele><time>2026-04-11T13:38:29.999Z</time></trkpt><trkpt lat="44.079057613204526" lon="11.365976191734246"><ele>831.5</ele><time>2026-04-11T13:38:31.999Z</time></trkpt><trkpt lat="44.079111495143756" lon="11.366063972703884"><ele>832.0</ele><time>2026-04-11T13:38:33.999Z</time></trkpt><trkpt lat="44.07916940767297" lon="11.366121217943325"><ele>832.5</ele><time>2026-04-11T13:38:35.999Z</time></trkpt><trkpt lat="44.07923924044814" lon="11.366150362787165"><ele>833.0</ele><time>2026-04-11T13:38:37.999Z</time></trkpt><trkpt lat="44.07934428179322" lon="11.3661764431771"><ele>833.5</ele><time>2026-04-11T13:38:39.999Z</time></trkpt><trkpt lat="44.079425209035975" lon="11.36620819387722"><ele>834.0</ele><time>2026-04-11T13:38:40.999Z</time></trkpt><trkpt lat="44.07949041384391" lon="11.366206309685294"><ele>834.0</ele><time>2026-04-11T13:38:41.999Z</time></trkpt><trkpt lat="44.0795913733544" lon="11.366257227393818"><ele>834.0</ele><time>2026-04-11T13:38:43.999Z</time></trkpt><trkpt lat="44.0796855104054" lon="11.366237556080586"><ele>834.0</ele><time>2026-04-11T13:38:45.999Z</time></trkpt><trkpt lat="44.079766179674316" lon="11.366246180050299"><ele>834.0</ele><time>2026-04-11T13:38:47.999Z</time></trkpt><trkpt lat="44.07986033968528" lon="11.366264912654175"><ele>834.0</ele><time>2026-04-11T13:38:48.999Z</time></trkpt><trkpt lat="44.0799366152968" lon="11.366246081413166"><ele>833.3333333333334</ele><time>2026-04-11T13:38:49.999Z</time></trkpt><trkpt lat="44.07999842762949" lon="11.36621042120477"><ele>832.6666666666667</ele><time>2026-04-11T13:38:50.999Z</time></trkpt><trkpt lat="44.08007607241963" lon="11.366189467917092"><ele>832.0</ele><time>2026-04-11T13:38:51.999Z</time></trkpt><trkpt lat="44.080137792205065" lon="11.366170815796965"><ele>831.3333333333334</ele><time>2026-04-11T13:38:52.999Z</time></trkpt><trkpt lat="44.080217647477134" lon="11.366161813256422"><ele>830.6666666666667</ele><time>2026-04-11T13:38:53.999Z</time></trkpt><trkpt lat="44.08029818464184" lon="11.366116269614206"><ele>830.0</ele><time>2026-04-11T13:38:54.999Z</time></trkpt><trkpt lat="44.08040601697145" lon="11.366085377046302"><ele>830.0</ele><time>2026-04-11T13:38:55.999Z</time></trkpt><trkpt lat="44.08053181928651" lon="11.366071516720249"><ele>830.0</ele><time>2026-04-11T13:38:57.999Z</time></trkpt><trkpt lat="44.080611657486045" lon="11.366070875289216"><ele>830.0</ele><time>2026-04-11T13:38:58.999Z</time></trkpt><trkpt lat="44.08067908287378" lon="11.366064934644621"><ele>830.0</ele><time>2026-04-11T13:38:59.999Z</time></trkpt><trkpt lat="44.08080786601064" lon="11.36603943622999"><ele>830.0</ele><time>2026-04-11T13:39:01.999Z</time></trkpt><trkpt lat="44.080888290645554" lon="11.366061915718594"><ele>828.6666666666667</ele><time>2026-04-11T13:39:02.999Z</time></trkpt><trkpt lat="44.08096919388436" lon="11.3660906555828"><ele>827.3333333333334</ele><time>2026-04-11T13:39:03.999Z</time></trkpt><trkpt lat="44.081059166972594" lon="11.366115986141857"><ele>826.0</ele><time>2026-04-11T13:39:04.999Z</time></trkpt><trkpt lat="44.08114153216581" lon="11.366132237089863"><ele>824.6666666666667</ele><time>2026-04-11T13:39:05.999Z</time></trkpt><trkpt lat="44.081216913213076" lon="11.366180067664349"><ele>823.3333333333334</ele><time>2026-04-11T13:39:06.999Z</time></trkpt><trkpt lat="44.08127972765936" lon="11.366214143526193"><ele>822.0</ele><time>2026-04-11T13:39:07.999Z</time></trkpt><trkpt lat="44.08136873923224" lon="11.366224246359593"><ele>822.0</ele><time>2026-04-11T13:39:08.999Z</time></trkpt><trkpt lat="44.08145486242231" lon="11.36624064896719"><ele>822.0</ele><time>2026-04-11T13:39:09.999Z</time></trkpt><trkpt lat="44.08153210870339" lon="11.366275183915784"><ele>822.0</ele><time>2026-04-11T13:39:10.999Z</time></trkpt><trkpt lat="44.08160463401189" lon="11.36632513058172"><ele>822.0</ele><time>2026-04-11T13:39:11.999Z</time></trkpt><trkpt lat="44.08167071645944" lon="11.366375654109495"><ele>822.0</ele><time>2026-04-11T13:39:12.999Z</time></trkpt><trkpt lat="44.08179759901239" lon="11.366435586230732"><ele>823.1666666666666</ele><time>2026-04-11T13:39:14.999Z</time></trkpt><trkpt lat="44.081869325128245" lon="11.366470488453048"><ele>824.3333333333333</ele><time>2026-04-11T13:39:15.999Z</time></trkpt><trkpt lat="44.08194112938252" lon="11.366492384475789"><ele>825.5</ele><time>2026-04-11T13:39:16.999Z</time></trkpt><trkpt lat="44.08200968331153" lon="11.366510642005794"><ele>826.6666666666666</ele><time>2026-04-11T13:39:17.999Z</time></trkpt><trkpt lat="44.08213309677285" lon="11.366556279908584"><ele>827.8333333333333</ele><time>2026-04-11T13:39:19.999Z</time></trkpt><trkpt lat="44.082217757570916" lon="11.366568417490875"><ele>829.0</ele><time>2026-04-11T13:39:20.999Z</time></trkpt><trkpt lat="44.082295366905214" lon="11.366629504049516"><ele>829.0</ele><time>2026-04-11T13:39:22.999Z</time></trkpt><trkpt lat="44.08237662243793" lon="11.366636244684502"><ele>829.0</ele><time>2026-04-11T13:39:30.999Z</time></trkpt><trkpt lat="44.082488182741486" lon="11.36655799086514"><ele>829.0</ele><time>2026-04-11T13:39:32.999Z</time></trkpt><trkpt lat="44.08260135666416" lon="11.366484459704985"><ele>829.0</ele><time>2026-04-11T13:39:34.999Z</time></trkpt><trkpt lat="44.08267874109361" lon="11.366446611314709"><ele>829.0</ele><time>2026-04-11T13:39:35.999Z</time></trkpt><trkpt lat="44.08276254178382" lon="11.36638794137103"><ele>826.1666666666666</ele><time>2026-04-11T13:39:36.999Z</time></trkpt><trkpt lat="44.08282478887971" lon="11.366331563053608"><ele>823.3333333333333</ele><time>2026-04-11T13:39:37.999Z</time></trkpt><trkpt lat="44.08288840658753" lon="11.366299067532248"><ele>820.5</ele><time>2026-04-11T13:39:38.999Z</time></trkpt><trkpt lat="44.083002116071" lon="11.366283829068317"><ele>817.6666666666667</ele><time>2026-04-11T13:39:40.999Z</time></trkpt><trkpt lat="44.08310977136679" lon="11.36627074053936"><ele>814.8333333333334</ele><time>2026-04-11T13:39:42.999Z</time></trkpt><trkpt lat="44.083150668327704" lon="11.36619657266848"><ele>812.0</ele><time>2026-04-11T13:39:54.999Z</time></trkpt><trkpt lat="44.08319726382088" lon="11.366067353575847"><ele>812.0000000000001</ele><time>2026-04-11T13:39:56.999Z</time></trkpt><trkpt lat="44.08324818103291" lon="11.36599181868108"><ele>812.0</ele><time>2026-04-11T13:39:57.999Z</time></trkpt><trkpt lat="44.08330957734003" lon="11.365882752240012"><ele>812.0</ele><time>2026-04-11T13:39:58.999Z</time></trkpt><trkpt lat="44.0833348426066" lon="11.365779513116076"><ele>812.0</ele><time>2026-04-11T13:39:59.999Z</time></trkpt><trkpt lat="44.08334503923521" lon="11.36569187522798"><ele>812.0000000000001</ele><time>2026-04-11T13:40:00.999Z</time></trkpt><trkpt lat="44.083389176157105" lon="11.365545203421291"><ele>812.0</ele><time>2026-04-11T13:40:02.999Z</time></trkpt><trkpt lat="44.08342767193673" lon="11.36544044013921"><ele>811.6666666666667</ele><time>2026-04-11T13:40:03.999Z</time></trkpt><trkpt lat="44.0834617137219" lon="11.365334825956186"><ele>811.3333333333334</ele><time>2026-04-11T13:40:04.999Z</time></trkpt><trkpt lat="44.083498312322256" lon="11.36519484165011"><ele>811.0</ele><time>2026-04-11T13:40:06.999Z</time></trkpt><trkpt lat="44.083528224296245" lon="11.365107091338189"><ele>810.6666666666667</ele><time>2026-04-11T13:40:08.999Z</time></trkpt><trkpt lat="44.083569501852615" lon="11.365038495958837"><ele>810.3333333333334</ele><time>2026-04-11T13:40:10.999Z</time></trkpt><trkpt lat="44.08361298542047" lon="11.364967622787027"><ele>810.0</ele><time>2026-04-11T13:40:12.999Z</time></trkpt><trkpt lat="44.08364422482546" lon="11.364871510850927"><ele>810.0</ele><time>2026-04-11T13:40:14.999Z</time></trkpt><trkpt lat="44.08365781535517" lon="11.364764411120953"><ele>810.0</ele><time>2026-04-11T13:40:16.999Z</time></trkpt><trkpt lat="44.083679828013146" lon="11.364673861713136"><ele>810.0</ele><time>2026-04-11T13:40:18.999Z</time></trkpt><trkpt lat="44.08370374969368" lon="11.364553336045649"><ele>810.0</ele><time>2026-04-11T13:40:20.999Z</time></trkpt><trkpt lat="44.08368716920985" lon="11.36444998168596"><ele>810.0</ele><time>2026-04-11T13:40:22.999Z</time></trkpt><trkpt lat="44.08365668180964" lon="11.3643258859737"><ele>810.0</ele><time>2026-04-11T13:40:25.999Z</time></trkpt><trkpt lat="44.08365276346934" lon="11.364229385674866"><ele>807.6666666666666</ele><time>2026-04-11T13:40:27.999Z</time></trkpt><trkpt lat="44.08363280913075" lon="11.36414203292394"><ele>805.3333333333333</ele><time>2026-04-11T13:40:29.999Z</time></trkpt><trkpt lat="44.08360260532515" lon="11.364023691768988"><ele>803.0</ele><time>2026-04-11T13:40:31.999Z</time></trkpt><trkpt lat="44.08362418627605" lon="11.363909899637209"><ele>800.6666666666666</ele><time>2026-04-11T13:40:33.999Z</time></trkpt><trkpt lat="44.083637859494736" lon="11.363812892073959"><ele>798.3333333333333</ele><time>2026-04-11T13:40:35.999Z</time></trkpt><trkpt lat="44.08363295306493" lon="11.363702347669635"><ele>796.0</ele><time>2026-04-11T13:40:37.999Z</time></trkpt><trkpt lat="44.08361683110966" lon="11.363574676972263"><ele>793.3333333333333</ele><time>2026-04-11T13:40:40.999Z</time></trkpt><trkpt lat="44.08363915908813" lon="11.363490738008869"><ele>790.6666666666666</ele><time>2026-04-11T13:40:42.999Z</time></trkpt><trkpt lat="44.08366316177845" lon="11.363388474518482"><ele>788.0</ele><time>2026-04-11T13:40:45.999Z</time></trkpt><trkpt lat="44.08363973245954" lon="11.363257131740255"><ele>785.3333333333333</ele><time>2026-04-11T13:40:48.999Z</time></trkpt><trkpt lat="44.08360997420407" lon="11.36314348418456"><ele>782.6666666666666</ele><time>2026-04-11T13:40:51Z</time></trkpt><trkpt lat="44.083566264392225" lon="11.36304357943598"><ele>780.0</ele><time>2026-04-11T13:40:53Z</time></trkpt><trkpt lat="44.08352823454206" lon="11.362936749904637"><ele>778.0</ele><time>2026-04-11T13:40:56Z</time></trkpt><trkpt lat="44.08347401009302" lon="11.362833873055825"><ele>776.0</ele><time>2026-04-11T13:40:59Z</time></trkpt><trkpt lat="44.08352797313793" lon="11.362783346732318"><ele>774.0</ele><time>2026-04-11T13:41:01Z</time></trkpt><trkpt lat="44.08359492945371" lon="11.362747615353106"><ele>772.0</ele><time>2026-04-11T13:41:03Z</time></trkpt><trkpt lat="44.08364877710364" lon="11.362686706240533"><ele>770.0</ele><time>2026-04-11T13:41:06Z</time></trkpt><trkpt lat="44.0836037744549" lon="11.362581938444256"><ele>768.0</ele><time>2026-04-11T13:41:08Z</time></trkpt><trkpt lat="44.08355216707928" lon="11.362502274893743"><ele>768.0</ele><time>2026-04-11T13:41:10Z</time></trkpt><trkpt lat="44.0834664022127" lon="11.362450898360917"><ele>768.0</ele><time>2026-04-11T13:41:12Z</time></trkpt><trkpt lat="44.08339010422916" lon="11.362443204414467"><ele>768.0</ele><time>2026-04-11T13:41:14Z</time></trkpt><trkpt lat="44.083341559790036" lon="11.36236919826204"><ele>768.0</ele><time>2026-04-11T13:41:19Z</time></trkpt><trkpt lat="44.08345305737352" lon="11.362276315032243"><ele>768.0</ele><time>2026-04-11T13:41:21Z</time></trkpt><trkpt lat="44.08354110608026" lon="11.362255551460814"><ele>768.0</ele><time>2026-04-11T13:41:22Z</time></trkpt><trkpt lat="44.08362160994803" lon="11.362226045970408"><ele>768.0</ele><time>2026-04-11T13:41:23Z</time></trkpt><trkpt lat="44.083699293168515" lon="11.36219057493241"><ele>768.0</ele><time>2026-04-11T13:41:24Z</time></trkpt><trkpt lat="44.083761189132716" lon="11.362137282309517"><ele>768.0</ele><time>2026-04-11T13:41:25Z</time></trkpt><trkpt lat="44.083795210662245" lon="11.36205397691889"><ele>768.0</ele><time>2026-04-11T13:41:26Z</time></trkpt><trkpt lat="44.08381867952188" lon="11.36196117628594"><ele>768.0</ele><time>2026-04-11T13:41:27Z</time></trkpt><trkpt lat="44.08381275120607" lon="11.361850535383285"><ele>765.8</ele><time>2026-04-11T13:41:28Z</time></trkpt><trkpt lat="44.08384447773837" lon="11.361772627298308"><ele>763.5999999999999</ele><time>2026-04-11T13:41:29Z</time></trkpt><trkpt lat="44.0839621335671" lon="11.361731708806548"><ele>761.4000000000001</ele><time>2026-04-11T13:41:31Z</time></trkpt><trkpt lat="44.08403911721191" lon="11.361767136945657"><ele>759.2</ele><time>2026-04-11T13:41:32Z</time></trkpt><trkpt lat="44.0841070040244" lon="11.361731085191497"><ele>757.0</ele><time>2026-04-11T13:41:33Z</time></trkpt><trkpt lat="44.08416944891713" lon="11.361532423504396"><ele>757.0</ele><time>2026-04-11T13:41:35Z</time></trkpt><trkpt lat="44.084190173332075" lon="11.361401552126544"><ele>757.0</ele><time>2026-04-11T13:41:36Z</time></trkpt><trkpt lat="44.08423542547496" lon="11.36131939351477"><ele>757.0</ele><time>2026-04-11T13:41:37Z</time></trkpt><trkpt lat="44.08431468405293" lon="11.361291105734972"><ele>757.0</ele><time>2026-04-11T13:41:38Z</time></trkpt><trkpt lat="44.08441859357771" lon="11.361286066667875"><ele>757.0</ele><time>2026-04-11T13:41:39Z</time></trkpt><trkpt lat="44.08452368021674" lon="11.361257694785008"><ele>754.5</ele><time>2026-04-11T13:41:40Z</time></trkpt><trkpt lat="44.08461207732654" lon="11.361226834047105"><ele>752.0</ele><time>2026-04-11T13:41:41Z</time></trkpt><trkpt lat="44.08469981280278" lon="11.361172211307005"><ele>749.5</ele><time>2026-04-11T13:41:42Z</time></trkpt><trkpt lat="44.084760425710606" lon="11.361103498117702"><ele>747.0</ele><time>2026-04-11T13:41:43Z</time></trkpt><trkpt lat="44.084805114476666" lon="11.361014117612706"><ele>744.5</ele><time>2026-04-11T13:41:44Z</time></trkpt><trkpt lat="44.08483432586422" lon="11.360923383090489"><ele>742.0</ele><time>2026-04-11T13:41:45Z</time></trkpt><trkpt lat="44.08480640078739" lon="11.360780157090932"><ele>742.0</ele><time>2026-04-11T13:41:45.999Z</time></trkpt><trkpt lat="44.08474344555928" lon="11.360641385034105"><ele>742.0</ele><time>2026-04-11T13:41:46.999Z</time></trkpt><trkpt lat="44.08464972686812" lon="11.360539479311736"><ele>742.0</ele><time>2026-04-11T13:41:47.999Z</time></trkpt><trkpt lat="44.08458043797765" lon="11.360408126743675"><ele>742.0</ele><time>2026-04-11T13:41:48.999Z</time></trkpt><trkpt lat="44.084502390777864" lon="11.360293378954827"><ele>737.75</ele><time>2026-04-11T13:41:49.999Z</time></trkpt><trkpt lat="44.08440019570054" lon="11.360186783843336"><ele>733.5</ele><time>2026-04-11T13:41:50.999Z</time></trkpt><trkpt lat="44.084343466795595" lon="11.36004439810045"><ele>729.25</ele><time>2026-04-11T13:41:51.999Z</time></trkpt><trkpt lat="44.084262089281495" lon="11.359931434203698"><ele>725.0</ele><time>2026-04-11T13:41:52.999Z</time></trkpt><trkpt lat="44.084181448796386" lon="11.359817927645954"><ele>722.4</ele><time>2026-04-11T13:41:53.999Z</time></trkpt><trkpt lat="44.08414108126032" lon="11.35967080366958"><ele>719.8</ele><time>2026-04-11T13:41:54.999Z</time></trkpt><trkpt lat="44.08409321050435" lon="11.359530845876353"><ele>717.2</ele><time>2026-04-11T13:41:55.999Z</time></trkpt><trkpt lat="44.0840362089103" lon="11.359417957060012"><ele>714.6</ele><time>2026-04-11T13:41:56.999Z</time></trkpt><trkpt lat="44.08400896249626" lon="11.359319950559469"><ele>712.0</ele><time>2026-04-11T13:41:57.999Z</time></trkpt><trkpt lat="44.0839944526093" lon="11.359228090578263"><ele>712.0</ele><time>2026-04-11T13:41:58.999Z</time></trkpt><trkpt lat="44.08400314792755" lon="11.359139672156974"><ele>712.0</ele><time>2026-04-11T13:41:59.999Z</time></trkpt><trkpt lat="44.084159043898104" lon="11.359004451921576"><ele>712.0</ele><time>2026-04-11T13:42:01.999Z</time></trkpt><trkpt lat="44.084225445172905" lon="11.35894373209827"><ele>712.0</ele><time>2026-04-11T13:42:02.999Z</time></trkpt><trkpt lat="44.08428792084259" lon="11.358887785167903"><ele>712.0</ele><time>2026-04-11T13:42:03.999Z</time></trkpt><trkpt lat="44.084355728370234" lon="11.358867080639824"><ele>709.0</ele><time>2026-04-11T13:42:04.999Z</time></trkpt><trkpt lat="44.08446655669564" lon="11.358790268368413"><ele>706.0</ele><time>2026-04-11T13:42:05.999Z</time></trkpt><trkpt lat="44.084583630552515" lon="11.35869157586469"><ele>703.0</ele><time>2026-04-11T13:42:06.999Z</time></trkpt><trkpt lat="44.084726649703114" lon="11.358641619823912"><ele>700.0</ele><time>2026-04-11T13:42:07.999Z</time></trkpt><trkpt lat="44.084846241361184" lon="11.358586720168873"><ele>701.4</ele><time>2026-04-11T13:42:08.999Z</time></trkpt><trkpt lat="44.084952507533416" lon="11.35855386829072"><ele>702.8</ele><time>2026-04-11T13:42:09.999Z</time></trkpt><trkpt lat="44.08504666189826" lon="11.358514949481366"><ele>704.2</ele><time>2026-04-11T13:42:10.999Z</time></trkpt><trkpt lat="44.08512437790962" lon="11.358437776218368"><ele>705.6</ele><time>2026-04-11T13:42:11.999Z</time></trkpt><trkpt lat="44.085204761566644" lon="11.358345388555655"><ele>707.0</ele><time>2026-04-11T13:42:12.999Z</time></trkpt><trkpt lat="44.08529026962424" lon="11.358301887419382"><ele>707.0</ele><time>2026-04-11T13:42:13.999Z</time></trkpt><trkpt lat="44.08536181495154" lon="11.358256443061158"><ele>707.0</ele><time>2026-04-11T13:42:14.999Z</time></trkpt><trkpt lat="44.085439043107115" lon="11.358235615434694"><ele>707.0</ele><time>2026-04-11T13:42:15.999Z</time></trkpt><trkpt lat="44.08553327016193" lon="11.358225772941335"><ele>707.0</ele><time>2026-04-11T13:42:16.999Z</time></trkpt><trkpt lat="44.08563813209786" lon="11.358224611902328"><ele>707.0</ele><time>2026-04-11T13:42:17.999Z</time></trkpt><trkpt lat="44.08572697393075" lon="11.358180498634844"><ele>707.5</ele><time>2026-04-11T13:42:18.999Z</time></trkpt><trkpt lat="44.08580902858799" lon="11.358198448206545"><ele>708.0</ele><time>2026-04-11T13:42:19.999Z</time></trkpt><trkpt lat="44.08588122943096" lon="11.358226684941211"><ele>708.5</ele><time>2026-04-11T13:42:20.999Z</time></trkpt><trkpt lat="44.085961669881286" lon="11.358239388563387"><ele>709.0</ele><time>2026-04-11T13:42:21.999Z</time></trkpt><trkpt lat="44.086054434968794" lon="11.358276452812825"><ele>709.5</ele><time>2026-04-11T13:42:22.999Z</time></trkpt><trkpt lat="44.08615049570594" lon="11.35830133824794"><ele>710.0</ele><time>2026-04-11T13:42:23.999Z</time></trkpt><trkpt lat="44.08623016218481" lon="11.358329656467774"><ele>710.0</ele><time>2026-04-11T13:42:24.999Z</time></trkpt><trkpt lat="44.086306082988564" lon="11.358364076487245"><ele>710.0</ele><time>2026-04-11T13:42:25.999Z</time></trkpt><trkpt lat="44.08635544712205" lon="11.358481557933072"><ele>710.0</ele><time>2026-04-11T13:42:26.999Z</time></trkpt><trkpt lat="44.08644632701981" lon="11.35852393749135"><ele>710.0</ele><time>2026-04-11T13:42:27.999Z</time></trkpt><trkpt lat="44.08655773978379" lon="11.358573057348423"><ele>710.0</ele><time>2026-04-11T13:42:28.999Z</time></trkpt><trkpt lat="44.0866740830366" lon="11.358622853292413"><ele>709.75</ele><time>2026-04-11T13:42:29.999Z</time></trkpt><trkpt lat="44.08679248411913" lon="11.358671545696366"><ele>709.5</ele><time>2026-04-11T13:42:30.999Z</time></trkpt><trkpt lat="44.08689354818576" lon="11.358687956776263"><ele>709.25</ele><time>2026-04-11T13:42:31.999Z</time></trkpt><trkpt lat="44.086985411595045" lon="11.358709289384624"><ele>709.0</ele><time>2026-04-11T13:42:32.999Z</time></trkpt><trkpt lat="44.08712089959564" lon="11.358654336157706"><ele>709.0</ele><time>2026-04-11T13:42:34.999Z</time></trkpt><trkpt lat="44.087207923679514" lon="11.358585190341165"><ele>709.0</ele><time>2026-04-11T13:42:35.999Z</time></trkpt><trkpt lat="44.08730114455426" lon="11.358513081223988"><ele>709.0</ele><time>2026-04-11T13:42:36.999Z</time></trkpt><trkpt lat="44.087389171982494" lon="11.358434631618668"><ele>709.0</ele><time>2026-04-11T13:42:37.999Z</time></trkpt><trkpt lat="44.08747670753751" lon="11.358377062739745"><ele>709.0</ele><time>2026-04-11T13:42:38.999Z</time></trkpt><trkpt lat="44.08756652012259" lon="11.358382795344939"><ele>709.75</ele><time>2026-04-11T13:42:39.999Z</time></trkpt><trkpt lat="44.08767357491734" lon="11.358418003384594"><ele>710.5</ele><time>2026-04-11T13:42:40.999Z</time></trkpt><trkpt lat="44.08773740730057" lon="11.358569516776598"><ele>711.25</ele><time>2026-04-11T13:42:41.999Z</time></trkpt><trkpt lat="44.08779666253552" lon="11.358719937469521"><ele>712.0</ele><time>2026-04-11T13:42:42.999Z</time></trkpt><trkpt lat="44.087879241716244" lon="11.358857408180123"><ele>715.25</ele><time>2026-04-11T13:42:43.999Z</time></trkpt><trkpt lat="44.08794334653292" lon="11.35901956824936"><ele>718.5</ele><time>2026-04-11T13:42:44.999Z</time></trkpt><trkpt lat="44.088019232704596" lon="11.359168116352492"><ele>721.75</ele><time>2026-04-11T13:42:45.999Z</time></trkpt><trkpt lat="44.08808312587871" lon="11.359314718362747"><ele>725.0</ele><time>2026-04-11T13:42:46.999Z</time></trkpt><trkpt lat="44.0881587995242" lon="11.3594347308042"><ele>725.5</ele><time>2026-04-11T13:42:47.999Z</time></trkpt><trkpt lat="44.0882630747531" lon="11.359524032351395"><ele>726.0</ele><time>2026-04-11T13:42:48.999Z</time></trkpt><trkpt lat="44.0883884382908" lon="11.359583419467072"><ele>726.5</ele><time>2026-04-11T13:42:49.999Z</time></trkpt><trkpt lat="44.088520904949114" lon="11.35963710372255"><ele>727.0</ele><time>2026-04-11T13:42:50.999Z</time></trkpt><trkpt lat="44.08865207445352" lon="11.35968920556825"><ele>731.25</ele><time>2026-04-11T13:42:51.999Z</time></trkpt><trkpt lat="44.08878724406273" lon="11.359731507959694"><ele>735.5</ele><time>2026-04-11T13:42:52.999Z</time></trkpt><trkpt lat="44.08892448930192" lon="11.359791307256689"><ele>739.75</ele><time>2026-04-11T13:42:53.999Z</time></trkpt><trkpt lat="44.08906507088581" lon="11.359829644868354"><ele>744.0</ele><time>2026-04-11T13:42:54.999Z</time></trkpt><trkpt lat="44.08919290683174" lon="11.359834621566165"><ele>745.25</ele><time>2026-04-11T13:42:55.999Z</time></trkpt><trkpt lat="44.08930946675598" lon="11.359813096792468"><ele>746.5</ele><time>2026-04-11T13:42:57Z</time></trkpt><trkpt lat="44.08942569430388" lon="11.359788119695082"><ele>747.75</ele><time>2026-04-11T13:42:58Z</time></trkpt><trkpt lat="44.0895445172585" lon="11.359770304259659"><ele>749.0</ele><time>2026-04-11T13:42:59Z</time></trkpt><trkpt lat="44.08965661804876" lon="11.359751643951482"><ele>749.0</ele><time>2026-04-11T13:43:00Z</time></trkpt><trkpt lat="44.08978412124157" lon="11.359759336132187"><ele>749.0</ele><time>2026-04-11T13:43:02Z</time></trkpt><trkpt lat="44.089843168020955" lon="11.359805657293972"><ele>749.0</ele><time>2026-04-11T13:43:03Z</time></trkpt><trkpt lat="44.08984284490267" lon="11.359906154575873"><ele>749.0</ele><time>2026-04-11T13:43:04Z</time></trkpt><trkpt lat="44.08975002762188" lon="11.35995811859825"><ele>749.0</ele><time>2026-04-11T13:43:05Z</time></trkpt><trkpt lat="44.089679319802215" lon="11.359946877944946"><ele>749.0</ele><time>2026-04-11T13:43:06Z</time></trkpt><trkpt lat="44.08959340336198" lon="11.359955145730254"><ele>749.0</ele><time>2026-04-11T13:43:07Z</time></trkpt><trkpt lat="44.08949712668439" lon="11.359991923558685"><ele>749.0</ele><time>2026-04-11T13:43:08Z</time></trkpt><trkpt lat="44.089398704815" lon="11.360044225749647"><ele>749.0</ele><time>2026-04-11T13:43:09Z</time></trkpt><trkpt lat="44.089306371045154" lon="11.360106357215848"><ele>749.0</ele><time>2026-04-11T13:43:10Z</time></trkpt><trkpt lat="44.08921600207927" lon="11.360182945030816"><ele>749.0</ele><time>2026-04-11T13:43:11Z</time></trkpt><trkpt lat="44.089131770367516" lon="11.360268249390069"><ele>748.0</ele><time>2026-04-11T13:43:12Z</time></trkpt><trkpt lat="44.08907664335807" lon="11.360348980306489"><ele>747.0</ele><time>2026-04-11T13:43:13Z</time></trkpt><trkpt lat="44.08901736844314" lon="11.36046022984902"><ele>746.0</ele><time>2026-04-11T13:43:15Z</time></trkpt><trkpt lat="44.08901604781925" lon="11.360566194004862"><ele>745.0</ele><time>2026-04-11T13:43:18Z</time></trkpt><trkpt lat="44.08899409924642" lon="11.360667337021095"><ele>744.0</ele><time>2026-04-11T13:45:18Z</time></trkpt><trkpt lat="44.088969035244965" lon="11.360858776206621"><ele>748.5</ele><time>2026-04-11T13:45:20Z</time></trkpt><trkpt lat="44.08895361843946" lon="11.360991900118268"><ele>753.0</ele><time>2026-04-11T13:45:21Z</time></trkpt><trkpt lat="44.088971211145115" lon="11.361116394009958"><ele>757.5</ele><time>2026-04-11T13:45:22Z</time></trkpt><trkpt lat="44.08904927461174" lon="11.36127649531172"><ele>762.0</ele><time>2026-04-11T13:45:23Z</time></trkpt><trkpt lat="44.08914605442587" lon="11.361409260338533"><ele>762.6666666666666</ele><time>2026-04-11T13:45:24Z</time></trkpt><trkpt lat="44.08930253423056" lon="11.361496940010923"><ele>763.3333333333333</ele><time>2026-04-11T13:45:25Z</time></trkpt><trkpt lat="44.08947058988408" lon="11.361531903517792"><ele>764.0</ele><time>2026-04-11T13:45:26Z</time></trkpt><trkpt lat="44.089608244702966" lon="11.361578034935514"><ele>764.0</ele><time>2026-04-11T13:45:27Z</time></trkpt><trkpt lat="44.089733763895985" lon="11.36166074618883"><ele>764.0</ele><time>2026-04-11T13:45:28Z</time></trkpt><trkpt lat="44.08983727258997" lon="11.361745345950283"><ele>764.0</ele><time>2026-04-11T13:45:29Z</time></trkpt><trkpt lat="44.089915253530734" lon="11.361805267163362"><ele>764.0</ele><time>2026-04-11T13:45:30Z</time></trkpt><trkpt lat="44.08998344066765" lon="11.361935119000735"><ele>763.8000000000001</ele><time>2026-04-11T13:45:32Z</time></trkpt><trkpt lat="44.08998352734899" lon="11.362031137859134"><ele>763.6</ele><time>2026-04-11T13:45:33Z</time></trkpt><trkpt lat="44.08993594353337" lon="11.36211909298019"><ele>763.4</ele><time>2026-04-11T13:45:34Z</time></trkpt><trkpt lat="44.089879030107355" lon="11.362206052574946"><ele>763.2</ele><time>2026-04-11T13:45:35Z</time></trkpt><trkpt lat="44.089806736017245" lon="11.362299201144427"><ele>763.0</ele><time>2026-04-11T13:45:36Z</time></trkpt><trkpt lat="44.08971227686664" lon="11.362403002764097"><ele>763.0</ele><time>2026-04-11T13:45:37Z</time></trkpt><trkpt lat="44.089647214937635" lon="11.362546292156868"><ele>763.0</ele><time>2026-04-11T13:45:38Z</time></trkpt><trkpt lat="44.089642098047946" lon="11.362703981365483"><ele>763.0</ele><time>2026-04-11T13:45:39Z</time></trkpt><trkpt lat="44.089592235128" lon="11.362817378492036"><ele>763.0</ele><time>2026-04-11T13:45:40Z</time></trkpt><trkpt lat="44.08953891277439" lon="11.36292818036579"><ele>763.0</ele><time>2026-04-11T13:45:41Z</time></trkpt><trkpt lat="44.08945619851931" lon="11.362960925906243"><ele>763.0</ele><time>2026-04-11T13:45:42Z</time></trkpt><trkpt lat="44.08937132657766" lon="11.36302147454118"><ele>763.0</ele><time>2026-04-11T13:45:43Z</time></trkpt><trkpt lat="44.08930074222364" lon="11.363081973179858"><ele>763.0</ele><time>2026-04-11T13:45:44Z</time></trkpt><trkpt lat="44.089254732216084" lon="11.36320282651426"><ele>763.0</ele><time>2026-04-11T13:45:45Z</time></trkpt><trkpt lat="44.08928390146648" lon="11.36334810721998"><ele>763.0</ele><time>2026-04-11T13:45:46Z</time></trkpt><trkpt lat="44.08934772789466" lon="11.363455069216458"><ele>760.4</ele><time>2026-04-11T13:45:47Z</time></trkpt><trkpt lat="44.08945063683171" lon="11.363499260638333"><ele>757.8</ele><time>2026-04-11T13:45:48Z</time></trkpt><trkpt lat="44.08956959113099" lon="11.363495078860206"><ele>755.2</ele><time>2026-04-11T13:45:49Z</time></trkpt><trkpt lat="44.08969218768129" lon="11.363471595258696"><ele>752.6</ele><time>2026-04-11T13:45:50Z</time></trkpt><trkpt lat="44.08979040216129" lon="11.363459962071483"><ele>750.0</ele><time>2026-04-11T13:45:51Z</time></trkpt><trkpt lat="44.08988564359763" lon="11.363515006983025"><ele>750.0</ele><time>2026-04-11T13:45:52Z</time></trkpt><trkpt lat="44.08993054720595" lon="11.363642056952461"><ele>750.0</ele><time>2026-04-11T13:45:53Z</time></trkpt><trkpt lat="44.089909005240635" lon="11.36379096613628"><ele>750.0</ele><time>2026-04-11T13:45:54Z</time></trkpt><trkpt lat="44.08984988354217" lon="11.363908733469996"><ele>750.0</ele><time>2026-04-11T13:45:55Z</time></trkpt><trkpt lat="44.089762372398" lon="11.364019482737369"><ele>750.0</ele><time>2026-04-11T13:45:56Z</time></trkpt><trkpt lat="44.08966432057996" lon="11.364109536660386"><ele>749.0</ele><time>2026-04-11T13:45:57Z</time></trkpt><trkpt lat="44.0895586785678" lon="11.364188827030981"><ele>748.0</ele><time>2026-04-11T13:45:58Z</time></trkpt><trkpt lat="44.089445854050375" lon="11.364248904159505"><ele>747.0</ele><time>2026-04-11T13:45:59Z</time></trkpt><trkpt lat="44.08933444077408" lon="11.364316804266664"><ele>746.0</ele><time>2026-04-11T13:46:00Z</time></trkpt><trkpt lat="44.08924549778851" lon="11.364430277530975"><ele>746.0</ele><time>2026-04-11T13:46:01Z</time></trkpt><trkpt lat="44.08917900412484" lon="11.364589926849707"><ele>746.0</ele><time>2026-04-11T13:46:02Z</time></trkpt><trkpt lat="44.08914350993654" lon="11.364791746201991"><ele>746.0</ele><time>2026-04-11T13:46:03Z</time></trkpt><trkpt lat="44.08914198337128" lon="11.365010047580167"><ele>746.0</ele><time>2026-04-11T13:46:04Z</time></trkpt><trkpt lat="44.08913992127061" lon="11.365225554309829"><ele>743.5</ele><time>2026-04-11T13:46:05Z</time></trkpt><trkpt lat="44.08914330382743" lon="11.365419467020452"><ele>741.0</ele><time>2026-04-11T13:46:06Z</time></trkpt><trkpt lat="44.08916994714281" lon="11.365596090856723"><ele>738.5</ele><time>2026-04-11T13:46:07Z</time></trkpt><trkpt lat="44.089216510092115" lon="11.365747694697404"><ele>736.0</ele><time>2026-04-11T13:46:08Z</time></trkpt><trkpt lat="44.089276513176465" lon="11.365872306310726"><ele>733.1999999999999</ele><time>2026-04-11T13:46:09Z</time></trkpt><trkpt lat="44.08931204122977" lon="11.36597159587813"><ele>730.4</ele><time>2026-04-11T13:46:10Z</time></trkpt><trkpt lat="44.08927835230341" lon="11.366082245230748"><ele>727.6</ele><time>2026-04-11T13:46:11Z</time></trkpt><trkpt lat="44.08923066655452" lon="11.366219034660451"><ele>724.8</ele><time>2026-04-11T13:46:12Z</time></trkpt><trkpt lat="44.089206380053" lon="11.366385176850363"><ele>722.0</ele><time>2026-04-11T13:46:13Z</time></trkpt><trkpt lat="44.08918780613217" lon="11.366534871986966"><ele>720.6</ele><time>2026-04-11T13:46:14Z</time></trkpt><trkpt lat="44.08918283290532" lon="11.36668915500133"><ele>719.2</ele><time>2026-04-11T13:46:15Z</time></trkpt><trkpt lat="44.08919494026304" lon="11.3668200895473"><ele>717.8</ele><time>2026-04-11T13:46:16Z</time></trkpt><trkpt lat="44.089210835809425" lon="11.3669518505126"><ele>716.4</ele><time>2026-04-11T13:46:17Z</time></trkpt><trkpt lat="44.089217702941404" lon="11.367105357698078"><ele>715.0</ele><time>2026-04-11T13:46:18Z</time></trkpt><trkpt lat="44.08922975189508" lon="11.367247961009774"><ele>713.6</ele><time>2026-04-11T13:46:19Z</time></trkpt><trkpt lat="44.08924894006163" lon="11.367376090766982"><ele>712.2</ele><time>2026-04-11T13:46:20Z</time></trkpt><trkpt lat="44.089320114585384" lon="11.367487283814699"><ele>710.8</ele><time>2026-04-11T13:46:21Z</time></trkpt><trkpt lat="44.08942023932329" lon="11.367570682597199"><ele>709.4</ele><time>2026-04-11T13:46:22Z</time></trkpt><trkpt lat="44.08949821685711" lon="11.367651389963711"><ele>708.0</ele><time>2026-04-11T13:46:23Z</time></trkpt><trkpt lat="44.08953265006126" lon="11.367765013664057"><ele>708.0</ele><time>2026-04-11T13:46:24Z</time></trkpt><trkpt lat="44.08952097019221" lon="11.367884869848062"><ele>708.0</ele><time>2026-04-11T13:46:25Z</time></trkpt><trkpt lat="44.08945751855458" lon="11.367988860508635"><ele>708.0</ele><time>2026-04-11T13:46:26Z</time></trkpt><trkpt lat="44.089398624733526" lon="11.368090703856426"><ele>708.0</ele><time>2026-04-11T13:46:27Z</time></trkpt><trkpt lat="44.08934091593601" lon="11.368205990035069"><ele>708.0</ele><time>2026-04-11T13:46:28Z</time></trkpt><trkpt lat="44.089289802118984" lon="11.368347246097912"><ele>705.75</ele><time>2026-04-11T13:46:29Z</time></trkpt><trkpt lat="44.089277160465706" lon="11.368514001617491"><ele>703.5</ele><time>2026-04-11T13:46:30Z</time></trkpt><trkpt lat="44.08924779562431" lon="11.36867082442298"><ele>701.25</ele><time>2026-04-11T13:46:30.999Z</time></trkpt><trkpt lat="44.08922112357994" lon="11.368820093709603"><ele>699.0</ele><time>2026-04-11T13:46:31.999Z</time></trkpt><trkpt lat="44.08917505511269" lon="11.368969111461563"><ele>696.25</ele><time>2026-04-11T13:46:32.999Z</time></trkpt><trkpt lat="44.08911249764075" lon="11.369122705783576"><ele>693.5</ele><time>2026-04-11T13:46:33.999Z</time></trkpt><trkpt lat="44.08903122353764" lon="11.369251042235174"><ele>690.75</ele><time>2026-04-11T13:46:34.999Z</time></trkpt><trkpt lat="44.08893566367529" lon="11.369344957567051"><ele>688.0</ele><time>2026-04-11T13:46:35.999Z</time></trkpt><trkpt lat="44.088837236152074" lon="11.369437614010023"><ele>688.0</ele><time>2026-04-11T13:46:36.999Z</time></trkpt><trkpt lat="44.08873276120648" lon="11.369530612036908"><ele>688.0</ele><time>2026-04-11T13:46:37.999Z</time></trkpt><trkpt lat="44.08863899276994" lon="11.36962980607499"><ele>688.0</ele><time>2026-04-11T13:46:38.999Z</time></trkpt><trkpt lat="44.0885457301362" lon="11.369689885490459"><ele>688.0</ele><time>2026-04-11T13:46:39.999Z</time></trkpt><trkpt lat="44.08847009541219" lon="11.369729753690782"><ele>688.0</ele><time>2026-04-11T13:46:40.999Z</time></trkpt><trkpt lat="44.08838664215886" lon="11.369720002603543"><ele>688.4</ele><time>2026-04-11T13:46:41.999Z</time></trkpt><trkpt lat="44.088290596175156" lon="11.369697806628743"><ele>688.8</ele><time>2026-04-11T13:46:42.999Z</time></trkpt><trkpt lat="44.08820989571844" lon="11.369564849287226"><ele>689.2</ele><time>2026-04-11T13:46:43.999Z</time></trkpt><trkpt lat="44.0881060777738" lon="11.369498956910343"><ele>689.6</ele><time>2026-04-11T13:46:44.999Z</time></trkpt><trkpt lat="44.08803251273497" lon="11.369442753629002"><ele>690.0</ele><time>2026-04-11T13:46:45.999Z</time></trkpt><trkpt lat="44.08796862713172" lon="11.369426687403148"><ele>690.0</ele><time>2026-04-11T13:46:46.999Z</time></trkpt><trkpt lat="44.08790002473953" lon="11.36947666492242"><ele>690.0</ele><time>2026-04-11T13:46:47.999Z</time></trkpt><trkpt lat="44.08784954694889" lon="11.369586080499188"><ele>690.0</ele><time>2026-04-11T13:46:48.999Z</time></trkpt><trkpt lat="44.087868796636755" lon="11.36974273756162"><ele>690.0</ele><time>2026-04-11T13:46:49.999Z</time></trkpt><trkpt lat="44.08797583128876" lon="11.369872562476285"><ele>690.0</ele><time>2026-04-11T13:46:50.999Z</time></trkpt><trkpt lat="44.088042831150844" lon="11.370023954646333"><ele>686.0</ele><time>2026-04-11T13:46:51.999Z</time></trkpt><trkpt lat="44.088087671451284" lon="11.370169564196935"><ele>682.0</ele><time>2026-04-11T13:46:52.999Z</time></trkpt><trkpt lat="44.0881229462138" lon="11.370277497472959"><ele>678.0</ele><time>2026-04-11T13:46:53.999Z</time></trkpt><trkpt lat="44.08811485790969" lon="11.370390537403251"><ele>674.0</ele><time>2026-04-11T13:46:54.999Z</time></trkpt><trkpt lat="44.088066675032024" lon="11.370497572662746"><ele>670.0</ele><time>2026-04-11T13:46:55.999Z</time></trkpt><trkpt lat="44.08800323021448" lon="11.370644029354798"><ele>668.5</ele><time>2026-04-11T13:46:56.999Z</time></trkpt><trkpt lat="44.08786292959302" lon="11.37074553078579"><ele>667.0</ele><time>2026-04-11T13:46:57.999Z</time></trkpt><trkpt lat="44.08774689485238" lon="11.370875951661459"><ele>665.5</ele><time>2026-04-11T13:46:58.999Z</time></trkpt><trkpt lat="44.08764621310752" lon="11.370988507187574"><ele>664.0</ele><time>2026-04-11T13:46:59.999Z</time></trkpt><trkpt lat="44.08755604735148" lon="11.37108938109836"><ele>664.0</ele><time>2026-04-11T13:47:00.999Z</time></trkpt><trkpt lat="44.08749072209886" lon="11.3711880774786"><ele>664.0</ele><time>2026-04-11T13:47:01.999Z</time></trkpt><trkpt lat="44.08742841447588" lon="11.371240169590358"><ele>664.0</ele><time>2026-04-11T13:47:02.999Z</time></trkpt><trkpt lat="44.087337269087975" lon="11.371319440188522"><ele>664.0</ele><time>2026-04-11T13:47:04.999Z</time></trkpt><trkpt lat="44.08727885169955" lon="11.371361954634736"><ele>664.0</ele><time>2026-04-11T13:47:05.999Z</time></trkpt><trkpt lat="44.087211699336244" lon="11.371429932367391"><ele>664.0</ele><time>2026-04-11T13:47:06.999Z</time></trkpt><trkpt lat="44.0871620727758" lon="11.371526249662818"><ele>662.4000000000001</ele><time>2026-04-11T13:47:07.999Z</time></trkpt><trkpt lat="44.087145319009394" lon="11.371630909498194"><ele>660.8</ele><time>2026-04-11T13:47:09Z</time></trkpt><trkpt lat="44.08718898799412" lon="11.371746716469662"><ele>659.2</ele><time>2026-04-11T13:47:10Z</time></trkpt><trkpt lat="44.08727531355174" lon="11.371839849976825"><ele>657.5999999999999</ele><time>2026-04-11T13:47:11Z</time></trkpt><trkpt lat="44.087369768615496" lon="11.371919794674994"><ele>656.0</ele><time>2026-04-11T13:47:12Z</time></trkpt><trkpt lat="44.08743462690071" lon="11.3720064509799"><ele>656.0</ele><time>2026-04-11T13:47:13Z</time></trkpt><trkpt lat="44.08747823216497" lon="11.372081210426463"><ele>656.0</ele><time>2026-04-11T13:47:14Z</time></trkpt><trkpt lat="44.08759428791932" lon="11.37214583327973"><ele>656.0</ele><time>2026-04-11T13:47:16Z</time></trkpt><trkpt lat="44.087679898407494" lon="11.372124956740343"><ele>656.0</ele><time>2026-04-11T13:47:17Z</time></trkpt><trkpt lat="44.087763992807936" lon="11.372081112317481"><ele>656.0</ele><time>2026-04-11T13:47:18Z</time></trkpt><trkpt lat="44.08784795484201" lon="11.372041137299004"><ele>656.0</ele><time>2026-04-11T13:47:19Z</time></trkpt><trkpt lat="44.08792309118827" lon="11.372008556553487"><ele>656.0</ele><time>2026-04-11T13:47:20Z</time></trkpt><trkpt lat="44.08800072532212" lon="11.37198274108659"><ele>656.0</ele><time>2026-04-11T13:47:21Z</time></trkpt><trkpt lat="44.08808295031145" lon="11.371967338648401"><ele>656.0</ele><time>2026-04-11T13:47:22Z</time></trkpt><trkpt lat="44.088161957509634" lon="11.371966857101361"><ele>656.0</ele><time>2026-04-11T13:47:23Z</time></trkpt><trkpt lat="44.08824223412224" lon="11.37198502957054"><ele>656.0</ele><time>2026-04-11T13:47:24Z</time></trkpt><trkpt lat="44.08832111122768" lon="11.372020757129823"><ele>655.0</ele><time>2026-04-11T13:47:25Z</time></trkpt><trkpt lat="44.08840245362603" lon="11.37207618030721"><ele>654.0</ele><time>2026-04-11T13:47:26Z</time></trkpt><trkpt lat="44.088470778303076" lon="11.372130258252524"><ele>653.0</ele><time>2026-04-11T13:47:27Z</time></trkpt><trkpt lat="44.08854658733283" lon="11.372181521720304"><ele>652.0</ele><time>2026-04-11T13:47:28Z</time></trkpt><trkpt lat="44.088626505193275" lon="11.372215428833302"><ele>651.0</ele><time>2026-04-11T13:47:29Z</time></trkpt><trkpt lat="44.088722473614006" lon="11.372219174277488"><ele>650.0</ele><time>2026-04-11T13:47:30Z</time></trkpt><trkpt lat="44.08882035887866" lon="11.372193377685077"><ele>650.0</ele><time>2026-04-11T13:47:31Z</time></trkpt><trkpt lat="44.088918597120355" lon="11.37215842461505"><ele>650.0</ele><time>2026-04-11T13:47:32Z</time></trkpt><trkpt lat="44.08901416660617" lon="11.372155006158986"><ele>650.0</ele><time>2026-04-11T13:47:33Z</time></trkpt><trkpt lat="44.08910400509835" lon="11.372181789966318"><ele>650.0</ele><time>2026-04-11T13:47:34Z</time></trkpt><trkpt lat="44.0891808994258" lon="11.372242077988776"><ele>650.0</ele><time>2026-04-11T13:47:35Z</time></trkpt><trkpt lat="44.089240921043675" lon="11.372312510694707"><ele>646.5</ele><time>2026-04-11T13:47:36Z</time></trkpt><trkpt lat="44.08930782854378" lon="11.372406991571474"><ele>643.0</ele><time>2026-04-11T13:47:37Z</time></trkpt><trkpt lat="44.08936728205424" lon="11.372476155545728"><ele>639.5</ele><time>2026-04-11T13:47:38Z</time></trkpt><trkpt lat="44.08943323646828" lon="11.372532583498494"><ele>636.0</ele><time>2026-04-11T13:47:39Z</time></trkpt><trkpt lat="44.08948294194103" lon="11.372604141296199"><ele>632.5</ele><time>2026-04-11T13:47:40Z</time></trkpt><trkpt lat="44.08950796642091" lon="11.372687962840498"><ele>629.0</ele><time>2026-04-11T13:47:41Z</time></trkpt><trkpt lat="44.08947210195049" lon="11.372845443872825"><ele>629.0</ele><time>2026-04-11T13:47:43Z</time></trkpt><trkpt lat="44.08941335283841" lon="11.372909584756798"><ele>629.0</ele><time>2026-04-11T13:47:44Z</time></trkpt><trkpt lat="44.08932675587903" lon="11.372941941202368"><ele>629.0</ele><time>2026-04-11T13:47:45Z</time></trkpt><trkpt lat="44.08922287297146" lon="11.372910671908315"><ele>629.0</ele><time>2026-04-11T13:47:46Z</time></trkpt><trkpt lat="44.08911242417551" lon="11.372935385964592"><ele>629.0</ele><time>2026-04-11T13:47:47Z</time></trkpt><trkpt lat="44.08900555151846" lon="11.372948699653778"><ele>629.6666666666666</ele><time>2026-04-11T13:47:48Z</time></trkpt><trkpt lat="44.088919050957514" lon="11.372978433351895"><ele>630.3333333333333</ele><time>2026-04-11T13:47:49Z</time></trkpt><trkpt lat="44.08884532852308" lon="11.373036811256084"><ele>631.0</ele><time>2026-04-11T13:47:50Z</time></trkpt><trkpt lat="44.088771262759" lon="11.373105691046716"><ele>631.6666666666666</ele><time>2026-04-11T13:47:51Z</time></trkpt><trkpt lat="44.08870967648741" lon="11.373181138311294"><ele>632.3333333333334</ele><time>2026-04-11T13:47:52Z</time></trkpt><trkpt lat="44.08866312752106" lon="11.373252633954293"><ele>633.0</ele><time>2026-04-11T13:47:53Z</time></trkpt><trkpt lat="44.08861200006933" lon="11.373323245303276"><ele>631.1666666666666</ele><time>2026-04-11T13:47:54Z</time></trkpt><trkpt lat="44.08856268353017" lon="11.373389281996362"><ele>629.3333333333334</ele><time>2026-04-11T13:47:55Z</time></trkpt><trkpt lat="44.08847030919288" lon="11.373489333835103"><ele>627.5</ele><time>2026-04-11T13:47:57Z</time></trkpt><trkpt lat="44.088358554995196" lon="11.37355591770446"><ele>625.6666666666667</ele><time>2026-04-11T13:47:59Z</time></trkpt><trkpt lat="44.08829386493155" lon="11.373573031625725"><ele>623.8333333333334</ele><time>2026-04-11T13:48:00Z</time></trkpt><trkpt lat="44.088231037126086" lon="11.373580635398698"><ele>622.0</ele><time>2026-04-11T13:48:01Z</time></trkpt><trkpt lat="44.088166124707605" lon="11.3735768191322"><ele>622.0</ele><time>2026-04-11T13:48:03Z</time></trkpt><trkpt lat="44.08825027190538" lon="11.373559802924659"><ele>622.0</ele><time>2026-04-11T13:48:23Z</time></trkpt><trkpt lat="44.08834622140614" lon="11.37353778342422"><ele>622.0</ele><time>2026-04-11T13:48:25Z</time></trkpt><trkpt lat="44.08844718464053" lon="11.37349062095745"><ele>622.0</ele><time>2026-04-11T13:48:27Z</time></trkpt><trkpt lat="44.08851003019813" lon="11.373449377164487"><ele>622.0</ele><time>2026-04-11T13:48:28Z</time></trkpt><trkpt lat="44.08862679923558" lon="11.373307795812895"><ele>620.6</ele><time>2026-04-11T13:48:29Z</time></trkpt><trkpt lat="44.088697982888576" lon="11.373220294444188"><ele>619.2</ele><time>2026-04-11T13:48:30Z</time></trkpt><trkpt lat="44.08877931460147" lon="11.373125798130205"><ele>617.8</ele><time>2026-04-11T13:48:31Z</time></trkpt><trkpt lat="44.088860448906175" lon="11.37305662325595"><ele>616.4</ele><time>2026-04-11T13:48:32Z</time></trkpt><trkpt lat="44.08894353763429" lon="11.373002789210698"><ele>615.0</ele><time>2026-04-11T13:48:32.999Z</time></trkpt><trkpt lat="44.08903161748314" lon="11.372961011010336"><ele>617.3333333333334</ele><time>2026-04-11T13:48:33.999Z</time></trkpt><trkpt lat="44.08912275957078" lon="11.37294382632328"><ele>619.6666666666666</ele><time>2026-04-11T13:48:34.999Z</time></trkpt><trkpt lat="44.089207377954345" lon="11.372943998190806"><ele>622.0</ele><time>2026-04-11T13:48:35.999Z</time></trkpt><trkpt lat="44.08928658332399" lon="11.37294591504519"><ele>624.3333333333333</ele><time>2026-04-11T13:48:36.999Z</time></trkpt><trkpt lat="44.08936702801663" lon="11.37293319728255"><ele>626.6666666666666</ele><time>2026-04-11T13:48:37.999Z</time></trkpt><trkpt lat="44.08944374105038" lon="11.372877946129666"><ele>629.0</ele><time>2026-04-11T13:48:38.999Z</time></trkpt><trkpt lat="44.08948634825063" lon="11.372767051121551"><ele>629.0</ele><time>2026-04-11T13:48:39.999Z</time></trkpt><trkpt lat="44.0895073800431" lon="11.372657927732472"><ele>629.0</ele><time>2026-04-11T13:48:40.999Z</time></trkpt><trkpt lat="44.089552743583496" lon="11.372577145133839"><ele>629.0</ele><time>2026-04-11T13:48:41.999Z</time></trkpt><trkpt lat="44.08962386970378" lon="11.372533232570222"><ele>629.0</ele><time>2026-04-11T13:48:42.999Z</time></trkpt><trkpt lat="44.08970854270559" lon="11.372515729252406"><ele>629.0</ele><time>2026-04-11T13:48:43.999Z</time></trkpt><trkpt lat="44.089791417220624" lon="11.372498895723773"><ele>629.0</ele><time>2026-04-11T13:48:44.999Z</time></trkpt><trkpt lat="44.08987626495133" lon="11.37248202122779"><ele>629.6</ele><time>2026-04-11T13:48:45.999Z</time></trkpt><trkpt lat="44.089963737947485" lon="11.37245239768842"><ele>630.2</ele><time>2026-04-11T13:48:46.999Z</time></trkpt><trkpt lat="44.090038849023074" lon="11.372379255897904"><ele>630.8000000000001</ele><time>2026-04-11T13:48:47.999Z</time></trkpt><trkpt lat="44.09007083649797" lon="11.37226767702717"><ele>631.4</ele><time>2026-04-11T13:48:48.999Z</time></trkpt><trkpt lat="44.09005765418852" lon="11.372141700872564"><ele>632.0</ele><time>2026-04-11T13:48:49.999Z</time></trkpt><trkpt lat="44.08999564316479" lon="11.372019226178255"><ele>634.2</ele><time>2026-04-11T13:48:50.999Z</time></trkpt><trkpt lat="44.08992001893501" lon="11.371916486594763"><ele>636.4000000000001</ele><time>2026-04-11T13:48:51.999Z</time></trkpt><trkpt lat="44.089856540093" lon="11.371828371886414"><ele>638.5999999999999</ele><time>2026-04-11T13:48:52.999Z</time></trkpt><trkpt lat="44.08979750381834" lon="11.371760224395883"><ele>640.8</ele><time>2026-04-11T13:48:53.999Z</time></trkpt><trkpt lat="44.08972863535867" lon="11.371684798227601"><ele>643.0</ele><time>2026-04-11T13:48:54.999Z</time></trkpt><trkpt lat="44.08964624903996" lon="11.371596463456951"><ele>643.0</ele><time>2026-04-11T13:48:55.999Z</time></trkpt><trkpt lat="44.089568358731036" lon="11.371458118456584"><ele>643.0</ele><time>2026-04-11T13:48:56.999Z</time></trkpt><trkpt lat="44.08947395778605" lon="11.371353187908149"><ele>643.0</ele><time>2026-04-11T13:48:57.999Z</time></trkpt><trkpt lat="44.08937609032001" lon="11.371248171039003"><ele>643.0</ele><time>2026-04-11T13:48:58.999Z</time></trkpt><trkpt lat="44.089276038661225" lon="11.371155072694265"><ele>645.5</ele><time>2026-04-11T13:48:59.999Z</time></trkpt><trkpt lat="44.0891982003907" lon="11.371088328736528"><ele>648.0</ele><time>2026-04-11T13:49:00.999Z</time></trkpt><trkpt lat="44.08910498715593" lon="11.370992049051559"><ele>650.5</ele><time>2026-04-11T13:49:02.999Z</time></trkpt><trkpt lat="44.08910091651504" lon="11.370886113294867"><ele>653.0</ele><time>2026-04-11T13:49:04.999Z</time></trkpt><trkpt lat="44.089166536471915" lon="11.370830230926819"><ele>655.5</ele><time>2026-04-11T13:49:05.999Z</time></trkpt><trkpt lat="44.08921630511474" lon="11.370769746898489"><ele>658.0</ele><time>2026-04-11T13:49:06.999Z</time></trkpt><trkpt lat="44.08928200372344" lon="11.370728049307417"><ele>658.0</ele><time>2026-04-11T13:49:07.999Z</time></trkpt><trkpt lat="44.089376958113256" lon="11.370664093934025"><ele>658.0</ele><time>2026-04-11T13:49:08.999Z</time></trkpt><trkpt lat="44.0894889371578" lon="11.370600349264926"><ele>658.0</ele><time>2026-04-11T13:49:09.999Z</time></trkpt><trkpt lat="44.089610708958716" lon="11.370535254463949"><ele>658.0</ele><time>2026-04-11T13:49:10.999Z</time></trkpt><trkpt lat="44.08972204136982" lon="11.370466898390006"><ele>658.2</ele><time>2026-04-11T13:49:11.999Z</time></trkpt><trkpt lat="44.089817464722316" lon="11.370382395268676"><ele>658.4</ele><time>2026-04-11T13:49:12.999Z</time></trkpt><trkpt lat="44.089903024607885" lon="11.370291377470906"><ele>658.6</ele><time>2026-04-11T13:49:13.999Z</time></trkpt><trkpt lat="44.08999983701382" lon="11.37021082243506"><ele>658.8000000000001</ele><time>2026-04-11T13:49:15Z</time></trkpt><trkpt lat="44.09007770354653" lon="11.37011338208787"><ele>659.0</ele><time>2026-04-11T13:49:16Z</time></trkpt><trkpt lat="44.090132795475064" lon="11.370012961848962"><ele>659.0</ele><time>2026-04-11T13:49:17Z</time></trkpt><trkpt lat="44.09019257251262" lon="11.369926070901126"><ele>659.0</ele><time>2026-04-11T13:49:18Z</time></trkpt><trkpt lat="44.09025325511219" lon="11.36985659231566"><ele>659.0</ele><time>2026-04-11T13:49:19Z</time></trkpt><trkpt lat="44.09030475908238" lon="11.369739862179832"><ele>659.0</ele><time>2026-04-11T13:49:20Z</time></trkpt><trkpt lat="44.09034388725906" lon="11.369655463475045"><ele>659.0</ele><time>2026-04-11T13:49:21Z</time></trkpt><trkpt lat="44.09034976362988" lon="11.369557366537846"><ele>659.0</ele><time>2026-04-11T13:49:22Z</time></trkpt><trkpt lat="44.09033581467726" lon="11.36942334610586"><ele>660.4000000000001</ele><time>2026-04-11T13:49:23Z</time></trkpt><trkpt lat="44.09032110390701" lon="11.3692650035365"><ele>661.8</ele><time>2026-04-11T13:49:24Z</time></trkpt><trkpt lat="44.09034188963398" lon="11.36912636112657"><ele>663.2</ele><time>2026-04-11T13:49:25Z</time></trkpt><trkpt lat="44.090369219504936" lon="11.369006975303625"><ele>664.5999999999999</ele><time>2026-04-11T13:49:26Z</time></trkpt><trkpt lat="44.090398452252735" lon="11.368884197871887"><ele>666.0</ele><time>2026-04-11T13:49:27Z</time></trkpt><trkpt lat="44.09042522048259" lon="11.368781257363146"><ele>667.1999999999999</ele><time>2026-04-11T13:49:28Z</time></trkpt><trkpt lat="44.090434609634094" lon="11.368642507155192"><ele>668.4</ele><time>2026-04-11T13:49:30Z</time></trkpt><trkpt lat="44.09042499118049" lon="11.368544189828084"><ele>669.6</ele><time>2026-04-11T13:49:32Z</time></trkpt><trkpt lat="44.09043694786221" lon="11.36844784683557"><ele>670.8</ele><time>2026-04-11T13:49:34Z</time></trkpt><trkpt lat="44.090445851165704" lon="11.368236752284362"><ele>672.0</ele><time>2026-04-11T13:49:36Z</time></trkpt><trkpt lat="44.09046173763912" lon="11.368129628098606"><ele>672.6</ele><time>2026-04-11T13:49:37Z</time></trkpt><trkpt lat="44.090488743264174" lon="11.367978273250559"><ele>673.2</ele><time>2026-04-11T13:49:38Z</time></trkpt><trkpt lat="44.090518363828174" lon="11.367854932093087"><ele>673.8</ele><time>2026-04-11T13:49:39Z</time></trkpt><trkpt lat="44.090554310424544" lon="11.367726604885455"><ele>674.4</ele><time>2026-04-11T13:49:40Z</time></trkpt><trkpt lat="44.09059078502672" lon="11.367624768927381"><ele>675.0</ele><time>2026-04-11T13:49:41Z</time></trkpt><trkpt lat="44.09065156373865" lon="11.367522171007419"><ele>675.0</ele><time>2026-04-11T13:49:42Z</time></trkpt><trkpt lat="44.09072648858514" lon="11.367441202918926"><ele>675.0</ele><time>2026-04-11T13:49:43Z</time></trkpt><trkpt lat="44.0907972085954" lon="11.367402937245375"><ele>675.0</ele><time>2026-04-11T13:49:44Z</time></trkpt><trkpt lat="44.09087951305647" lon="11.367375763417236"><ele>675.0</ele><time>2026-04-11T13:49:45Z</time></trkpt><trkpt lat="44.09096332495072" lon="11.367372768731467"><ele>675.0</ele><time>2026-04-11T13:49:46Z</time></trkpt><trkpt lat="44.091063130866864" lon="11.367378480006217"><ele>675.0</ele><time>2026-04-11T13:49:47Z</time></trkpt><trkpt lat="44.09116488822638" lon="11.367367772914346"><ele>669.2</ele><time>2026-04-11T13:49:48Z</time></trkpt><trkpt lat="44.09125673636942" lon="11.36736004786186"><ele>663.4</ele><time>2026-04-11T13:49:49Z</time></trkpt><trkpt lat="44.091362114027305" lon="11.367362296304442"><ele>657.5999999999999</ele><time>2026-04-11T13:49:50Z</time></trkpt><trkpt lat="44.09146492514692" lon="11.367330432421268"><ele>651.8</ele><time>2026-04-11T13:49:51Z</time></trkpt><trkpt lat="44.091584003999586" lon="11.367269979706819"><ele>646.0</ele><time>2026-04-11T13:49:52Z</time></trkpt><trkpt lat="44.091671367862325" lon="11.367193587153194"><ele>644.8333333333334</ele><time>2026-04-11T13:49:53Z</time></trkpt><trkpt lat="44.0917297310948" lon="11.367122377739697"><ele>643.6666666666667</ele><time>2026-04-11T13:49:54Z</time></trkpt><trkpt lat="44.09178901582904" lon="11.367049708912637"><ele>642.5</ele><time>2026-04-11T13:49:55Z</time></trkpt><trkpt lat="44.09183914815632" lon="11.366986008460868"><ele>641.3333333333334</ele><time>2026-04-11T13:49:56Z</time></trkpt><trkpt lat="44.09188854404092" lon="11.366923669477577"><ele>640.1666666666666</ele><time>2026-04-11T13:49:58Z</time></trkpt><trkpt lat="44.0919948509698" lon="11.366850025912374"><ele>639.0</ele><time>2026-04-11T13:50:01Z</time></trkpt><trkpt lat="44.09207171969119" lon="11.366845121414379"><ele>639.0</ele><time>2026-04-11T13:50:02Z</time></trkpt><trkpt lat="44.09215807680754" lon="11.366828550357388"><ele>639.0</ele><time>2026-04-11T13:50:03Z</time></trkpt><trkpt lat="44.09222869352553" lon="11.366795559932283"><ele>639.0</ele><time>2026-04-11T13:50:04Z</time></trkpt><trkpt lat="44.092296677251895" lon="11.366729087842751"><ele>639.0</ele><time>2026-04-11T13:50:05Z</time></trkpt><trkpt lat="44.09238506645949" lon="11.36666157470659"><ele>639.0</ele><time>2026-04-11T13:50:06Z</time></trkpt><trkpt lat="44.09248086329041" lon="11.366609266094281"><ele>639.0</ele><time>2026-04-11T13:50:07Z</time></trkpt><trkpt lat="44.09259189865143" lon="11.36657548631079"><ele>638.6</ele><time>2026-04-11T13:50:08Z</time></trkpt><trkpt lat="44.09270035909554" lon="11.366540508424153"><ele>638.2</ele><time>2026-04-11T13:50:09Z</time></trkpt><trkpt lat="44.09279945316631" lon="11.366504444381958"><ele>637.8000000000001</ele><time>2026-04-11T13:50:10Z</time></trkpt><trkpt lat="44.09289473311237" lon="11.366421141272824"><ele>637.4</ele><time>2026-04-11T13:50:11Z</time></trkpt><trkpt lat="44.093002474034314" lon="11.366342207707364"><ele>637.0</ele><time>2026-04-11T13:50:12Z</time></trkpt><trkpt lat="44.09312844041878" lon="11.366278063759598"><ele>637.0</ele><time>2026-04-11T13:50:13Z</time></trkpt><trkpt lat="44.09323820772728" lon="11.366218081827922"><ele>637.0</ele><time>2026-04-11T13:50:14Z</time></trkpt><trkpt lat="44.09333674734233" lon="11.366165699630777"><ele>637.0</ele><time>2026-04-11T13:50:15Z</time></trkpt><trkpt lat="44.09343400655087" lon="11.366099486662991"><ele>637.0</ele><time>2026-04-11T13:50:16Z</time></trkpt><trkpt lat="44.093523425892265" lon="11.366013089734343"><ele>637.0</ele><time>2026-04-11T13:50:17Z</time></trkpt><trkpt lat="44.093617789635395" lon="11.365913249163665"><ele>637.8</ele><time>2026-04-11T13:50:18Z</time></trkpt><trkpt lat="44.093709505405116" lon="11.365803899332011"><ele>638.6</ele><time>2026-04-11T13:50:19Z</time></trkpt><trkpt lat="44.09379066292587" lon="11.365684000397213"><ele>639.4</ele><time>2026-04-11T13:50:20Z</time></trkpt><trkpt lat="44.09386349069228" lon="11.365570789868828"><ele>640.1999999999999</ele><time>2026-04-11T13:50:21Z</time></trkpt><trkpt lat="44.093945073645045" lon="11.365489737856949"><ele>641.0</ele><time>2026-04-11T13:50:22Z</time></trkpt><trkpt lat="44.09403385751366" lon="11.36545948726301"><ele>639.4</ele><time>2026-04-11T13:50:23Z</time></trkpt><trkpt lat="44.09412036885625" lon="11.365432640137758"><ele>637.8</ele><time>2026-04-11T13:50:24Z</time></trkpt><trkpt lat="44.094211119311325" lon="11.365412091215289"><ele>636.1999999999999</ele><time>2026-04-11T13:50:25Z</time></trkpt><trkpt lat="44.094296660568624" lon="11.365404267877578"><ele>634.5999999999999</ele><time>2026-04-11T13:50:26Z</time></trkpt><trkpt lat="44.09439742682503" lon="11.365385366785473"><ele>633.0</ele><time>2026-04-11T13:50:27Z</time></trkpt><trkpt lat="44.094526912534555" lon="11.365411436622265"><ele>633.0</ele><time>2026-04-11T13:50:28Z</time></trkpt><trkpt lat="44.094643811997486" lon="11.365412387027042"><ele>633.0</ele><time>2026-04-11T13:50:29Z</time></trkpt><trkpt lat="44.09474249147189" lon="11.36541316115009"><ele>633.0</ele><time>2026-04-11T13:50:30Z</time></trkpt><trkpt lat="44.09482740235437" lon="11.365415126688974"><ele>633.0</ele><time>2026-04-11T13:50:31Z</time></trkpt><trkpt lat="44.09491309362735" lon="11.365457757859911"><ele>633.0</ele><time>2026-04-11T13:50:32Z</time></trkpt><trkpt lat="44.09500654254152" lon="11.365538156158792"><ele>627.4</ele><time>2026-04-11T13:50:33Z</time></trkpt><trkpt lat="44.09508352601988" lon="11.365640110932729"><ele>621.8</ele><time>2026-04-11T13:50:34Z</time></trkpt><trkpt lat="44.09515679837928" lon="11.365725755571747"><ele>616.2</ele><time>2026-04-11T13:50:34.999Z</time></trkpt><trkpt lat="44.09523295608238" lon="11.365780893439863"><ele>610.6</ele><time>2026-04-11T13:50:35.999Z</time></trkpt><trkpt lat="44.09532252922039" lon="11.365808679221233"><ele>605.0</ele><time>2026-04-11T13:50:36.999Z</time></trkpt><trkpt lat="44.095423972582935" lon="11.365799196647359"><ele>605.0</ele><time>2026-04-11T13:50:37.999Z</time></trkpt><trkpt lat="44.09554130198819" lon="11.365766956375046"><ele>605.0</ele><time>2026-04-11T13:50:38.999Z</time></trkpt><trkpt lat="44.095646316230805" lon="11.365727496060428"><ele>605.0</ele><time>2026-04-11T13:50:39.999Z</time></trkpt><trkpt lat="44.095737751792946" lon="11.36569385727005"><ele>605.0</ele><time>2026-04-11T13:50:40.999Z</time></trkpt><trkpt lat="44.09582178017034" lon="11.365656909731428"><ele>605.0</ele><time>2026-04-11T13:50:41.999Z</time></trkpt><trkpt lat="44.0959061602031" lon="11.365643254958883"><ele>605.2</ele><time>2026-04-11T13:50:42.999Z</time></trkpt><trkpt lat="44.096008470255626" lon="11.36566025773455"><ele>605.4</ele><time>2026-04-11T13:50:43.999Z</time></trkpt><trkpt lat="44.0961049506246" lon="11.365715256070262"><ele>605.6</ele><time>2026-04-11T13:50:44.999Z</time></trkpt><trkpt lat="44.09621024588309" lon="11.365784853433361"><ele>605.8</ele><time>2026-04-11T13:50:45.999Z</time></trkpt><trkpt lat="44.09630857578138" lon="11.365842699433918"><ele>606.0</ele><time>2026-04-11T13:50:46.999Z</time></trkpt><trkpt lat="44.09640330168803" lon="11.365894531200786"><ele>606.0</ele><time>2026-04-11T13:50:47.999Z</time></trkpt><trkpt lat="44.09649678652967" lon="11.365958864991217"><ele>606.0</ele><time>2026-04-11T13:50:48.999Z</time></trkpt><trkpt lat="44.09658865449077" lon="11.366014910233336"><ele>606.0</ele><time>2026-04-11T13:50:49.999Z</time></trkpt><trkpt lat="44.09668231171784" lon="11.36604700584168"><ele>606.0</ele><time>2026-04-11T13:50:50.999Z</time></trkpt><trkpt lat="44.09676916724932" lon="11.366043458720434"><ele>606.0</ele><time>2026-04-11T13:50:51.999Z</time></trkpt><trkpt lat="44.09687002659956" lon="11.366020310718799"><ele>606.0</ele><time>2026-04-11T13:50:52.999Z</time></trkpt><trkpt lat="44.09696794167247" lon="11.365997224082683"><ele>606.0</ele><time>2026-04-11T13:50:53.999Z</time></trkpt><trkpt lat="44.09707991344099" lon="11.365954551451075"><ele>606.0</ele><time>2026-04-11T13:50:54.999Z</time></trkpt><trkpt lat="44.097209099247834" lon="11.365901530416364"><ele>606.0</ele><time>2026-04-11T13:50:55.999Z</time></trkpt><trkpt lat="44.097349666808114" lon="11.365844857413148"><ele>604.4</ele><time>2026-04-11T13:50:56.999Z</time></trkpt><trkpt lat="44.09746325604614" lon="11.365787750471604"><ele>602.8</ele><time>2026-04-11T13:50:57.999Z</time></trkpt><trkpt lat="44.0975642488217" lon="11.365749963450003"><ele>601.1999999999999</ele><time>2026-04-11T13:50:58.999Z</time></trkpt><trkpt lat="44.09765467544258" lon="11.365713820744874"><ele>599.6</ele><time>2026-04-11T13:50:59.999Z</time></trkpt><trkpt lat="44.097733944793745" lon="11.365683940597485"><ele>598.0</ele><time>2026-04-11T13:51:00.999Z</time></trkpt><trkpt lat="44.09781808960236" lon="11.365634512960908"><ele>598.0</ele><time>2026-04-11T13:51:01.999Z</time></trkpt><trkpt lat="44.097904209336775" lon="11.365561084735248"><ele>598.0</ele><time>2026-04-11T13:51:02.999Z</time></trkpt><trkpt lat="44.097987639037854" lon="11.365464867180279"><ele>598.0</ele><time>2026-04-11T13:51:03.999Z</time></trkpt><trkpt lat="44.09806587371513" lon="11.365352954343333"><ele>598.0</ele><time>2026-04-11T13:51:04.999Z</time></trkpt><trkpt lat="44.098163700575604" lon="11.365267062995432"><ele>598.0</ele><time>2026-04-11T13:51:05.999Z</time></trkpt><trkpt lat="44.09824114837617" lon="11.36519928220637"><ele>596.6</ele><time>2026-04-11T13:51:06.999Z</time></trkpt><trkpt lat="44.09829302794452" lon="11.36513736283809"><ele>595.1999999999999</ele><time>2026-04-11T13:51:07.999Z</time></trkpt><trkpt lat="44.098430252069285" lon="11.36508787995831"><ele>593.8</ele><time>2026-04-11T13:51:09.999Z</time></trkpt><trkpt lat="44.09852668719554" lon="11.365085436973322"><ele>592.4</ele><time>2026-04-11T13:51:10.999Z</time></trkpt><trkpt lat="44.09861469398714" lon="11.365123171796203"><ele>591.0</ele><time>2026-04-11T13:51:11.999Z</time></trkpt><trkpt lat="44.09870582531531" lon="11.365181806959548"><ele>591.0</ele><time>2026-04-11T13:51:12.999Z</time></trkpt><trkpt lat="44.09881162268381" lon="11.365245331545488"><ele>591.0</ele><time>2026-04-11T13:51:13.999Z</time></trkpt><trkpt lat="44.09893794776019" lon="11.365302191390112"><ele>591.0</ele><time>2026-04-11T13:51:14.999Z</time></trkpt><trkpt lat="44.099076873309556" lon="11.365356353716976"><ele>591.0</ele><time>2026-04-11T13:51:15.999Z</time></trkpt><trkpt lat="44.09921301350005" lon="11.365413340426791"><ele>590.0</ele><time>2026-04-11T13:51:16.999Z</time></trkpt><trkpt lat="44.099336325168395" lon="11.365453750912833"><ele>589.0</ele><time>2026-04-11T13:51:17.999Z</time></trkpt><trkpt lat="44.09944506367008" lon="11.365494261154701"><ele>588.0</ele><time>2026-04-11T13:51:18.999Z</time></trkpt><trkpt lat="44.09953575614403" lon="11.365527274829224"><ele>587.0</ele><time>2026-04-11T13:51:19.999Z</time></trkpt><trkpt lat="44.09961862194481" lon="11.365561112402728"><ele>586.0</ele><time>2026-04-11T13:51:21Z</time></trkpt><trkpt lat="44.099699297617896" lon="11.365587908375128"><ele>585.4</ele><time>2026-04-11T13:51:22Z</time></trkpt><trkpt lat="44.09978292416227" lon="11.365612010419515"><ele>584.8</ele><time>2026-04-11T13:51:23Z</time></trkpt><trkpt lat="44.09987292310458" lon="11.365630802638629"><ele>584.1999999999999</ele><time>2026-04-11T13:51:24Z</time></trkpt><trkpt lat="44.099961362368916" lon="11.365663158687513"><ele>583.6</ele><time>2026-04-11T13:51:25Z</time></trkpt><trkpt lat="44.10006909267658" lon="11.3657153658178"><ele>583.0</ele><time>2026-04-11T13:51:26Z</time></trkpt><trkpt lat="44.100173533161154" lon="11.365784260510283"><ele>584.75</ele><time>2026-04-11T13:51:27Z</time></trkpt><trkpt lat="44.100267467847765" lon="11.365877112289517"><ele>586.5</ele><time>2026-04-11T13:51:28Z</time></trkpt><trkpt lat="44.100372015512384" lon="11.365963883549194"><ele>588.25</ele><time>2026-04-11T13:51:29Z</time></trkpt><trkpt lat="44.1004597106984" lon="11.366046682147157"><ele>590.0</ele><time>2026-04-11T13:51:30Z</time></trkpt><trkpt lat="44.10055175848416" lon="11.366127163100519"><ele>590.0</ele><time>2026-04-11T13:51:31Z</time></trkpt><trkpt lat="44.10064423225563" lon="11.366232678159944"><ele>590.0</ele><time>2026-04-11T13:51:32Z</time></trkpt><trkpt lat="44.100725886590844" lon="11.366351063099884"><ele>590.0</ele><time>2026-04-11T13:51:33Z</time></trkpt><trkpt lat="44.10079340226612" lon="11.366457548156315"><ele>590.0</ele><time>2026-04-11T13:51:34Z</time></trkpt><trkpt lat="44.1008606224252" lon="11.366552473092634"><ele>590.0</ele><time>2026-04-11T13:51:35Z</time></trkpt><trkpt lat="44.10092350718519" lon="11.366621268706545"><ele>589.0</ele><time>2026-04-11T13:51:36Z</time></trkpt><trkpt lat="44.101007129465366" lon="11.366674856830018"><ele>588.0</ele><time>2026-04-11T13:51:37Z</time></trkpt><trkpt lat="44.101110906906925" lon="11.36670756692013"><ele>587.0</ele><time>2026-04-11T13:51:38Z</time></trkpt><trkpt lat="44.101223529224654" lon="11.36671423684594"><ele>586.0</ele><time>2026-04-11T13:51:39Z</time></trkpt><trkpt lat="44.101350624727566" lon="11.366706507331145"><ele>585.0</ele><time>2026-04-11T13:51:40Z</time></trkpt><trkpt lat="44.10148675380325" lon="11.36673936940383"><ele>585.5</ele><time>2026-04-11T13:51:41Z</time></trkpt><trkpt lat="44.10161684242374" lon="11.36675379979419"><ele>586.0</ele><time>2026-04-11T13:51:42Z</time></trkpt><trkpt lat="44.10174677639913" lon="11.366768213024804"><ele>586.5</ele><time>2026-04-11T13:51:43Z</time></trkpt><trkpt lat="44.10187588813362" lon="11.366770370802595"><ele>587.0</ele><time>2026-04-11T13:51:44Z</time></trkpt><trkpt lat="44.101981535023455" lon="11.366772989371368"><ele>587.0</ele><time>2026-04-11T13:51:45Z</time></trkpt><trkpt lat="44.102078476757626" lon="11.366771729466105"><ele>587.0</ele><time>2026-04-11T13:51:46Z</time></trkpt><trkpt lat="44.10217608016433" lon="11.366735973790306"><ele>587.0</ele><time>2026-04-11T13:51:47Z</time></trkpt><trkpt lat="44.10226340953103" lon="11.366674868966571"><ele>587.0</ele><time>2026-04-11T13:51:48Z</time></trkpt><trkpt lat="44.10234383381513" lon="11.366617177465237"><ele>587.0</ele><time>2026-04-11T13:51:49Z</time></trkpt><trkpt lat="44.102431452552835" lon="11.366609246143813"><ele>588.2</ele><time>2026-04-11T13:51:50Z</time></trkpt><trkpt lat="44.102531528222386" lon="11.366594201882835"><ele>589.4000000000001</ele><time>2026-04-11T13:51:51Z</time></trkpt><trkpt lat="44.102649462083285" lon="11.366577619575025"><ele>590.5999999999999</ele><time>2026-04-11T13:51:52Z</time></trkpt><trkpt lat="44.10275978774522" lon="11.366565570356773"><ele>591.8</ele><time>2026-04-11T13:51:53Z</time></trkpt><trkpt lat="44.10285835301728" lon="11.366560059208856"><ele>593.0</ele><time>2026-04-11T13:51:54Z</time></trkpt><trkpt lat="44.102969681811494" lon="11.36658583365653"><ele>593.0</ele><time>2026-04-11T13:51:55Z</time></trkpt><trkpt lat="44.103101843621076" lon="11.366626955486545"><ele>593.0</ele><time>2026-04-11T13:51:56Z</time></trkpt><trkpt lat="44.10324048533229" lon="11.366661475264095"><ele>593.0</ele><time>2026-04-11T13:51:57Z</time></trkpt><trkpt lat="44.103383971648555" lon="11.366694877616776"><ele>593.0</ele><time>2026-04-11T13:51:58Z</time></trkpt><trkpt lat="44.10351948398839" lon="11.36672271681902"><ele>591.0</ele><time>2026-04-11T13:51:59Z</time></trkpt><trkpt lat="44.10363381542829" lon="11.366747891582051"><ele>589.0</ele><time>2026-04-11T13:52:00Z</time></trkpt><trkpt lat="44.10374811015472" lon="11.366784859367417"><ele>587.0</ele><time>2026-04-11T13:52:01Z</time></trkpt><trkpt lat="44.103878217056355" lon="11.366832191426553"><ele>585.0</ele><time>2026-04-11T13:52:02Z</time></trkpt><trkpt lat="44.10399912170663" lon="11.366910753319038"><ele>584.25</ele><time>2026-04-11T13:52:03Z</time></trkpt><trkpt lat="44.10410448247931" lon="11.366994849198964"><ele>583.5</ele><time>2026-04-11T13:52:04Z</time></trkpt><trkpt lat="44.1042200097545" lon="11.367081263970567"><ele>582.75</ele><time>2026-04-11T13:52:05Z</time></trkpt><trkpt lat="44.10433517414965" lon="11.367167846940513"><ele>582.0</ele><time>2026-04-11T13:52:06Z</time></trkpt><trkpt lat="44.10444528687374" lon="11.367245734839464"><ele>582.0</ele><time>2026-04-11T13:52:07Z</time></trkpt><trkpt lat="44.10455145399035" lon="11.367301294749707"><ele>582.0</ele><time>2026-04-11T13:52:08Z</time></trkpt><trkpt lat="44.10466460183561" lon="11.36735690803481"><ele>582.0</ele><time>2026-04-11T13:52:09Z</time></trkpt><trkpt lat="44.10479916721887" lon="11.367388988347065"><ele>582.0</ele><time>2026-04-11T13:52:10Z</time></trkpt><trkpt lat="44.10493385354507" lon="11.367396943443811"><ele>582.8333333333334</ele><time>2026-04-11T13:52:11Z</time></trkpt><trkpt lat="44.105044736948365" lon="11.367385280626811"><ele>583.6666666666666</ele><time>2026-04-11T13:52:12Z</time></trkpt><trkpt lat="44.10513232247402" lon="11.36737515517842"><ele>584.5</ele><time>2026-04-11T13:52:13Z</time></trkpt><trkpt lat="44.10521509100204" lon="11.367357718932734"><ele>585.3333333333333</ele><time>2026-04-11T13:52:14Z</time></trkpt><trkpt lat="44.10529943743645" lon="11.367341968860991"><ele>586.1666666666666</ele><time>2026-04-11T13:52:15Z</time></trkpt><trkpt lat="44.105370815322075" lon="11.36731832094221"><ele>587.0</ele><time>2026-04-11T13:52:16Z</time></trkpt><trkpt lat="44.105436696642414" lon="11.367296412181933"><ele>587.0</ele><time>2026-04-11T13:52:17Z</time></trkpt><trkpt lat="44.10551186743177" lon="11.367304472605062"><ele>587.0</ele><time>2026-04-11T13:52:18Z</time></trkpt><trkpt lat="44.105576778276884" lon="11.36731744100539"><ele>587.0</ele><time>2026-04-11T13:52:19Z</time></trkpt><trkpt lat="44.10565633605792" lon="11.367334247090385"><ele>587.0</ele><time>2026-04-11T13:52:21Z</time></trkpt><trkpt lat="44.105734561335474" lon="11.36734823639807"><ele>587.0</ele><time>2026-04-11T13:52:23Z</time></trkpt><trkpt lat="44.105800380106636" lon="11.367351574006403"><ele>587.0</ele><time>2026-04-11T13:52:24Z</time></trkpt><trkpt lat="44.105884198744626" lon="11.36739714293099"><ele>585.4</ele><time>2026-04-11T13:52:25Z</time></trkpt><trkpt lat="44.10597695685593" lon="11.367442599919402"><ele>583.8000000000001</ele><time>2026-04-11T13:52:26Z</time></trkpt><trkpt lat="44.10608728109371" lon="11.367470744838426"><ele>582.2</ele><time>2026-04-11T13:52:27Z</time></trkpt><trkpt lat="44.10617783625627" lon="11.367524062042156"><ele>580.6</ele><time>2026-04-11T13:52:28Z</time></trkpt><trkpt lat="44.10627432454668" lon="11.367578549995608"><ele>579.0</ele><time>2026-04-11T13:52:29Z</time></trkpt><trkpt lat="44.10636217785433" lon="11.36765762715809"><ele>579.0</ele><time>2026-04-11T13:52:30Z</time></trkpt><trkpt lat="44.106446919312965" lon="11.367739654142685"><ele>579.0</ele><time>2026-04-11T13:52:31Z</time></trkpt><trkpt lat="44.10654017189738" lon="11.367791444057008"><ele>579.0</ele><time>2026-04-11T13:52:32Z</time></trkpt><trkpt lat="44.106630046461575" lon="11.367859652197907"><ele>579.0</ele><time>2026-04-11T13:52:32.999Z</time></trkpt><trkpt lat="44.106700329482955" lon="11.36796083454259"><ele>579.0</ele><time>2026-04-11T13:52:33.999Z</time></trkpt><trkpt lat="44.10677060199772" lon="11.368064659627514"><ele>577.6666666666666</ele><time>2026-04-11T13:52:34.999Z</time></trkpt><trkpt lat="44.106832097465045" lon="11.368179815619467"><ele>576.3333333333334</ele><time>2026-04-11T13:52:35.999Z</time></trkpt><trkpt lat="44.10689552767994" lon="11.368284378465853"><ele>575.0</ele><time>2026-04-11T13:52:36.999Z</time></trkpt><trkpt lat="44.10695286260663" lon="11.368369439039403"><ele>573.6666666666667</ele><time>2026-04-11T13:52:37.999Z</time></trkpt><trkpt lat="44.107005463330474" lon="11.368442391222079"><ele>572.3333333333334</ele><time>2026-04-11T13:52:38.999Z</time></trkpt><trkpt lat="44.10705168173273" lon="11.368538594853518"><ele>571.0</ele><time>2026-04-11T13:52:39.999Z</time></trkpt><trkpt lat="44.10711227815472" lon="11.3686328449789"><ele>571.0</ele><time>2026-04-11T13:52:40.999Z</time></trkpt><trkpt lat="44.10720485532953" lon="11.368674247639966"><ele>571.0</ele><time>2026-04-11T13:52:41.999Z</time></trkpt><trkpt lat="44.107291905180944" lon="11.368700933092043"><ele>571.0</ele><time>2026-04-11T13:52:43.999Z</time></trkpt><trkpt lat="44.10739359703734" lon="11.368693877245144"><ele>571.0</ele><time>2026-04-11T13:52:45.999Z</time></trkpt><trkpt lat="44.10746063659527" lon="11.368679594296086"><ele>571.0</ele><time>2026-04-11T13:52:46.999Z</time></trkpt><trkpt lat="44.10756719872675" lon="11.368743035985556"><ele>570.2</ele><time>2026-04-11T13:52:48.999Z</time></trkpt><trkpt lat="44.10763318002457" lon="11.368857667979269"><ele>569.4000000000001</ele><time>2026-04-11T13:52:50.999Z</time></trkpt><trkpt lat="44.10769143022446" lon="11.368955783800294"><ele>568.6</ele><time>2026-04-11T13:52:53.999Z</time></trkpt><trkpt lat="44.10775029583902" lon="11.369109163693427"><ele>567.8000000000001</ele><time>2026-04-11T13:52:55.999Z</time></trkpt><trkpt lat="44.10776650549449" lon="11.369244868093922"><ele>567.0</ele><time>2026-04-11T13:52:57.999Z</time></trkpt><trkpt lat="44.10781139251188" lon="11.36933720995881"><ele>568.8333333333334</ele><time>2026-04-11T13:52:59.999Z</time></trkpt><trkpt lat="44.1078864258671" lon="11.36942474972327"><ele>570.6666666666666</ele><time>2026-04-11T13:53:01.999Z</time></trkpt><trkpt lat="44.10796797795389" lon="11.369501198499753"><ele>572.5</ele><time>2026-04-11T13:53:03.999Z</time></trkpt><trkpt lat="44.1080235577283" lon="11.369589530693712"><ele>574.3333333333333</ele><time>2026-04-11T13:53:06.999Z</time></trkpt><trkpt lat="44.10806001899748" lon="11.369679073458755"><ele>576.1666666666666</ele><time>2026-04-11T13:53:08.999Z</time></trkpt><trkpt lat="44.10810258888398" lon="11.369780537350186"><ele>578.0</ele><time>2026-04-11T13:53:11.999Z</time></trkpt><trkpt lat="44.10814688861714" lon="11.369888010078528"><ele>578.3333333333333</ele><time>2026-04-11T13:53:13.999Z</time></trkpt><trkpt lat="44.10819058486628" lon="11.370031333090889"><ele>578.6666666666666</ele><time>2026-04-11T13:53:15.999Z</time></trkpt><trkpt lat="44.10822610880343" lon="11.370117911245163"><ele>579.0</ele><time>2026-04-11T13:53:34Z</time></trkpt><trkpt lat="44.10826307741439" lon="11.370213642081882"><ele>579.3333333333334</ele><time>2026-04-11T13:53:39Z</time></trkpt><trkpt lat="44.1082805236305" lon="11.370328160016777"><ele>579.6666666666667</ele><time>2026-04-11T13:53:44Z</time></trkpt><trkpt lat="44.10831036281865" lon="11.370417447474416"><ele>580.0</ele><time>2026-04-11T13:53:46Z</time></trkpt><trkpt lat="44.10833703207578" lon="11.370512687231766"><ele>578.0</ele><time>2026-04-11T13:53:48Z</time></trkpt><trkpt lat="44.10841356127122" lon="11.370557651518226"><ele>576.0</ele><time>2026-04-11T13:54:10Z</time></trkpt><trkpt lat="44.10849558635166" lon="11.370605819615362"><ele>574.0</ele><time>2026-04-11T13:54:14Z</time></trkpt><trkpt lat="44.108560986578105" lon="11.37060757837317"><ele>572.0</ele><time>2026-04-11T13:54:18Z</time></trkpt><trkpt lat="44.108625519204466" lon="11.370618153735025"><ele>570.0</ele><time>2026-04-11T13:54:21Z</time></trkpt><trkpt lat="44.10870766931574" lon="11.370654601600911"><ele>568.0</ele><time>2026-04-11T13:54:24Z</time></trkpt><trkpt lat="44.108788240460726" lon="11.370666049389788"><ele>568.0</ele><time>2026-04-11T13:54:27Z</time></trkpt><trkpt lat="44.10882424200851" lon="11.37074880884188"><ele>568.0</ele><time>2026-04-11T13:54:34Z</time></trkpt><trkpt lat="44.10885349372021" lon="11.370844238715648"><ele>568.0</ele><time>2026-04-11T13:54:37Z</time></trkpt><trkpt lat="44.108843720947355" lon="11.370955469114152"><ele>568.0</ele><time>2026-04-11T13:54:41Z</time></trkpt><trkpt lat="44.10883818708539" lon="11.37105381475065"><ele>568.0</ele><time>2026-04-11T13:54:44.999Z</time></trkpt><trkpt lat="44.10882120769508" lon="11.371160808520164"><ele>568.0</ele><time>2026-04-11T13:54:49.999Z</time></trkpt><trkpt lat="44.10877128449304" lon="11.371250825322416"><ele>568.0</ele><time>2026-04-11T13:54:55.999Z</time></trkpt><trkpt lat="44.10873029982303" lon="11.371333306702887"><ele>568.0</ele><time>2026-04-11T13:55:16.999Z</time></trkpt><trkpt lat="44.10868648879776" lon="11.371405503905963"><ele>562.0</ele><time>2026-04-11T13:55:21.999Z</time></trkpt></trkseg><trkseg><trkpt lat="44.11739536640367" lon="11.379410889875349"><ele>418.0</ele><time>2026-04-11T14:40:25.999Z</time></trkpt><trkpt lat="44.11738588553021" lon="11.379528327968517"><ele>418.0</ele><time>2026-04-11T14:40:59.999Z</time></trkpt><trkpt lat="44.11746312863149" lon="11.379604198860129"><ele>418.0</ele><time>2026-04-11T14:41:06.999Z</time></trkpt><trkpt lat="44.11754817725781" lon="11.379594686856562"><ele>418.0</ele><time>2026-04-11T14:41:08.999Z</time></trkpt><trkpt lat="44.117665579628785" lon="11.379539140985049"><ele>418.0</ele><time>2026-04-11T14:41:10.999Z</time></trkpt><trkpt lat="44.1177623506715" lon="11.379511015188486"><ele>418.79999999999995</ele><time>2026-04-11T14:41:12.999Z</time></trkpt><trkpt lat="44.117879375198655" lon="11.379510936107751"><ele>419.6</ele><time>2026-04-11T14:41:14.999Z</time></trkpt><trkpt lat="44.11794143019477" lon="11.379448524623339"><ele>420.4</ele><time>2026-04-11T14:41:15.999Z</time></trkpt><trkpt lat="44.11800445573499" lon="11.379418784488703"><ele>421.20000000000005</ele><time>2026-04-11T14:41:16.999Z</time></trkpt><trkpt lat="44.11812237729" lon="11.379347394361782"><ele>422.0</ele><time>2026-04-11T14:41:18.999Z</time></trkpt><trkpt lat="44.11818426076338" lon="11.37930840762125"><ele>422.3333333333333</ele><time>2026-04-11T14:41:19.999Z</time></trkpt><trkpt lat="44.11831106484711" lon="11.379261255351656"><ele>422.66666666666663</ele><time>2026-04-11T14:41:21.999Z</time></trkpt><trkpt lat="44.11839245620535" lon="11.379223164914016"><ele>423.0</ele><time>2026-04-11T14:41:22.999Z</time></trkpt><trkpt lat="44.11845392302303" lon="11.379177903874172"><ele>423.33333333333337</ele><time>2026-04-11T14:41:23.999Z</time></trkpt><trkpt lat="44.11853634759838" lon="11.379155285895688"><ele>423.6666666666667</ele><time>2026-04-11T14:41:24.999Z</time></trkpt><trkpt lat="44.11860713958373" lon="11.37911790544326"><ele>424.0</ele><time>2026-04-11T14:41:25.999Z</time></trkpt><trkpt lat="44.1186728554808" lon="11.379079915315202"><ele>424.00000000000006</ele><time>2026-04-11T14:41:26.999Z</time></trkpt><trkpt lat="44.118746532022044" lon="11.37904596671384"><ele>424.0</ele><time>2026-04-11T14:41:27.999Z</time></trkpt><trkpt lat="44.11883439886543" lon="11.37900690571618"><ele>424.0</ele><time>2026-04-11T14:41:28.999Z</time></trkpt><trkpt lat="44.118925119858766" lon="11.378980632155809"><ele>424.0</ele><time>2026-04-11T14:41:29.999Z</time></trkpt><trkpt lat="44.11898786389307" lon="11.378955389938021"><ele>424.00000000000006</ele><time>2026-04-11T14:41:30.999Z</time></trkpt><trkpt lat="44.11904896944866" lon="11.378916069530915"><ele>424.0</ele><time>2026-04-11T14:41:31.999Z</time></trkpt><trkpt lat="44.11911309124464" lon="11.378884811835459"><ele>424.42857142857144</ele><time>2026-04-11T14:41:32.999Z</time></trkpt><trkpt lat="44.1191828354486" lon="11.37885735281721"><ele>424.85714285714283</ele><time>2026-04-11T14:41:33.999Z</time></trkpt><trkpt lat="44.119253147775176" lon="11.378839137027775"><ele>425.2857142857143</ele><time>2026-04-11T14:41:34.999Z</time></trkpt><trkpt lat="44.119325079792816" lon="11.37878767202904"><ele>425.7142857142857</ele><time>2026-04-11T14:41:35.999Z</time></trkpt><trkpt lat="44.11939120955106" lon="11.37875491648484"><ele>426.1428571428571</ele><time>2026-04-11T14:41:36.999Z</time></trkpt><trkpt lat="44.11947546019456" lon="11.37872430433411"><ele>426.57142857142856</ele><time>2026-04-11T14:41:37.999Z</time></trkpt><trkpt lat="44.119536617785684" lon="11.378694057180764"><ele>427.0</ele><time>2026-04-11T14:41:38.999Z</time></trkpt><trkpt lat="44.119628067956945" lon="11.378657122953921"><ele>427.0</ele><time>2026-04-11T14:41:40.999Z</time></trkpt><trkpt lat="44.11973358607686" lon="11.378597183710074"><ele>427.00000000000006</ele><time>2026-04-11T14:41:42.999Z</time></trkpt><trkpt lat="44.11983619292521" lon="11.37850777094686"><ele>427.00000000000006</ele><time>2026-04-11T14:41:44.999Z</time></trkpt><trkpt lat="44.11990962678787" lon="11.378469153508789"><ele>427.0</ele><time>2026-04-11T14:41:47.999Z</time></trkpt><trkpt lat="44.11993669183489" lon="11.378368786933994"><ele>427.0</ele><time>2026-04-11T14:41:49.999Z</time></trkpt><trkpt lat="44.119960641385525" lon="11.378182452383067"><ele>427.1666666666667</ele><time>2026-04-11T14:41:51.999Z</time></trkpt><trkpt lat="44.12000000455468" lon="11.378103827981434"><ele>427.33333333333337</ele><time>2026-04-11T14:41:52.999Z</time></trkpt><trkpt lat="44.12008583981779" lon="11.378077074697385"><ele>427.5</ele><time>2026-04-11T14:41:53.999Z</time></trkpt><trkpt lat="44.12013843832437" lon="11.37800835655151"><ele>427.66666666666663</ele><time>2026-04-11T14:41:54.999Z</time></trkpt><trkpt lat="44.12019210256756" lon="11.377938246053363"><ele>427.8333333333333</ele><time>2026-04-11T14:41:55.999Z</time></trkpt><trkpt lat="44.12025842834764" lon="11.377851593717894"><ele>428.0</ele><time>2026-04-11T14:41:56.999Z</time></trkpt><trkpt lat="44.120322949440144" lon="11.377767079342913"><ele>428.4</ele><time>2026-04-11T14:41:57.999Z</time></trkpt><trkpt lat="44.120399991515356" lon="11.377666082553345"><ele>428.79999999999995</ele><time>2026-04-11T14:41:58.999Z</time></trkpt><trkpt lat="44.12047285280772" lon="11.37755175841186"><ele>429.2</ele><time>2026-04-11T14:41:59.999Z</time></trkpt><trkpt lat="44.12055056861436" lon="11.377457606389617"><ele>429.6</ele><time>2026-04-11T14:42:00.999Z</time></trkpt><trkpt lat="44.12062571055884" lon="11.377363069061253"><ele>430.0</ele><time>2026-04-11T14:42:01.999Z</time></trkpt><trkpt lat="44.120695750420765" lon="11.377269429188997"><ele>432.4</ele><time>2026-04-11T14:42:02.999Z</time></trkpt><trkpt lat="44.120761680299765" lon="11.377177542950431"><ele>434.8</ele><time>2026-04-11T14:42:03.999Z</time></trkpt><trkpt lat="44.12083705971581" lon="11.377084503787833"><ele>437.20000000000005</ele><time>2026-04-11T14:42:04.999Z</time></trkpt><trkpt lat="44.120876215061955" lon="11.376957988481914"><ele>439.6</ele><time>2026-04-11T14:42:05.999Z</time></trkpt><trkpt lat="44.120949411232246" lon="11.37686752348129"><ele>442.0</ele><time>2026-04-11T14:42:06.999Z</time></trkpt><trkpt lat="44.120974332489986" lon="11.376753688924328"><ele>442.0</ele><time>2026-04-11T14:42:07.999Z</time></trkpt><trkpt lat="44.121008585764194" lon="11.376638006784146"><ele>442.00000000000006</ele><time>2026-04-11T14:42:08.999Z</time></trkpt><trkpt lat="44.121040494403495" lon="11.376512456789783"><ele>442.00000000000006</ele><time>2026-04-11T14:42:09.999Z</time></trkpt><trkpt lat="44.121099468474796" lon="11.376406937906758"><ele>442.0</ele><time>2026-04-11T14:42:10.999Z</time></trkpt><trkpt lat="44.121198917513745" lon="11.376356231389899"><ele>442.0</ele><time>2026-04-11T14:42:11.999Z</time></trkpt><trkpt lat="44.12128103762434" lon="11.376258115787188"><ele>442.5</ele><time>2026-04-11T14:42:12.999Z</time></trkpt><trkpt lat="44.12136224536" lon="11.376150681978858"><ele>443.0</ele><time>2026-04-11T14:42:13.999Z</time></trkpt><trkpt lat="44.12144401978214" lon="11.376044305930082"><ele>443.5</ele><time>2026-04-11T14:42:14.999Z</time></trkpt><trkpt lat="44.121534245685055" lon="11.37593207455384"><ele>444.0</ele><time>2026-04-11T14:42:15.999Z</time></trkpt><trkpt lat="44.121636964884516" lon="11.375817943656982"><ele>448.0</ele><time>2026-04-11T14:42:16.999Z</time></trkpt><trkpt lat="44.12173860019149" lon="11.375697746775018"><ele>452.0</ele><time>2026-04-11T14:42:17.999Z</time></trkpt><trkpt lat="44.12183190063031" lon="11.375583567254612"><ele>456.0</ele><time>2026-04-11T14:42:18.999Z</time></trkpt><trkpt lat="44.12191670579436" lon="11.375466507274824"><ele>460.0</ele><time>2026-04-11T14:42:19.999Z</time></trkpt><trkpt lat="44.12199007005976" lon="11.375334872357268"><ele>460.75</ele><time>2026-04-11T14:42:20.999Z</time></trkpt><trkpt lat="44.12203980903784" lon="11.37518260751943"><ele>461.5</ele><time>2026-04-11T14:42:21.999Z</time></trkpt><trkpt lat="44.12207348164564" lon="11.375029027917972"><ele>462.25</ele><time>2026-04-11T14:42:22.999Z</time></trkpt><trkpt lat="44.12212057855606" lon="11.374869870332896"><ele>463.0</ele><time>2026-04-11T14:42:23.999Z</time></trkpt><trkpt lat="44.1221771093894" lon="11.374748483032818"><ele>463.2</ele><time>2026-04-11T14:42:24.999Z</time></trkpt><trkpt lat="44.12220620227969" lon="11.374618325631806"><ele>463.4</ele><time>2026-04-11T14:42:25.999Z</time></trkpt><trkpt lat="44.12226096478439" lon="11.374500356254126"><ele>463.59999999999997</ele><time>2026-04-11T14:42:26.999Z</time></trkpt><trkpt lat="44.12231822388644" lon="11.374389035453367"><ele>463.79999999999995</ele><time>2026-04-11T14:42:27.999Z</time></trkpt><trkpt lat="44.12237135559993" lon="11.37429219319344"><ele>464.0</ele><time>2026-04-11T14:42:28.999Z</time></trkpt><trkpt lat="44.12242973109018" lon="11.374200123564984"><ele>467.0</ele><time>2026-04-11T14:42:29.999Z</time></trkpt><trkpt lat="44.122501348536005" lon="11.374128932078758"><ele>470.0</ele><time>2026-04-11T14:42:30.999Z</time></trkpt><trkpt lat="44.12257559769531" lon="11.374016982142416"><ele>473.0</ele><time>2026-04-11T14:42:31.999Z</time></trkpt><trkpt lat="44.12265123137772" lon="11.373929056413514"><ele>476.0</ele><time>2026-04-11T14:42:32.999Z</time></trkpt><trkpt lat="44.12272702153431" lon="11.373813383743293"><ele>479.0</ele><time>2026-04-11T14:42:33.999Z</time></trkpt><trkpt lat="44.12280220801555" lon="11.373696985651916"><ele>479.6</ele><time>2026-04-11T14:42:34.999Z</time></trkpt><trkpt lat="44.12288315459472" lon="11.373584944336079"><ele>480.2</ele><time>2026-04-11T14:42:35.999Z</time></trkpt><trkpt lat="44.122952387654934" lon="11.373485478713603"><ele>480.80000000000007</ele><time>2026-04-11T14:42:36.999Z</time></trkpt><trkpt lat="44.12302817516973" lon="11.373389736313154"><ele>481.40000000000003</ele><time>2026-04-11T14:42:37.999Z</time></trkpt><trkpt lat="44.12308673000191" lon="11.373312349538788"><ele>482.0</ele><time>2026-04-11T14:42:38.999Z</time></trkpt><trkpt lat="44.12312653914826" lon="11.373227124785076"><ele>481.99999999999994</ele><time>2026-04-11T14:42:39.999Z</time></trkpt><trkpt lat="44.12317080376621" lon="11.373127336181737"><ele>482.0</ele><time>2026-04-11T14:42:40.999Z</time></trkpt><trkpt lat="44.12319023629186" lon="11.373005675891385"><ele>482.0</ele><time>2026-04-11T14:42:41.999Z</time></trkpt><trkpt lat="44.12322142328419" lon="11.3728820091823"><ele>482.0</ele><time>2026-04-11T14:42:42.999Z</time></trkpt><trkpt lat="44.12324584049155" lon="11.372781963114926"><ele>481.99999999999994</ele><time>2026-04-11T14:42:43.999Z</time></trkpt><trkpt lat="44.12326706134128" lon="11.372683908277464"><ele>482.0</ele><time>2026-04-11T14:42:44.999Z</time></trkpt><trkpt lat="44.12327929124609" lon="11.372585767938299"><ele>485.8</ele><time>2026-04-11T14:42:45.999Z</time></trkpt><trkpt lat="44.12330268982714" lon="11.37239214253051"><ele>489.6</ele><time>2026-04-11T14:42:47.999Z</time></trkpt><trkpt lat="44.123314469643006" lon="11.37230322679815"><ele>493.40000000000003</ele><time>2026-04-11T14:42:48.999Z</time></trkpt><trkpt lat="44.12338731120052" lon="11.372208124102771"><ele>497.20000000000005</ele><time>2026-04-11T14:42:50.999Z</time></trkpt><trkpt lat="44.12342938395029" lon="11.372138115146418"><ele>501.0</ele><time>2026-04-11T14:42:51.999Z</time></trkpt><trkpt lat="44.12346969645574" lon="11.372044520317614"><ele>502.7142857142857</ele><time>2026-04-11T14:42:52.999Z</time></trkpt><trkpt lat="44.12349738564955" lon="11.371946152219712"><ele>504.42857142857144</ele><time>2026-04-11T14:42:53.999Z</time></trkpt><trkpt lat="44.123533017951644" lon="11.371858848784209"><ele>506.14285714285717</ele><time>2026-04-11T14:42:54.999Z</time></trkpt><trkpt lat="44.12358015515369" lon="11.371770789658065"><ele>507.8571428571429</ele><time>2026-04-11T14:42:55.999Z</time></trkpt><trkpt lat="44.12362522434278" lon="11.371697774565456"><ele>509.57142857142856</ele><time>2026-04-11T14:42:56.999Z</time></trkpt><trkpt lat="44.1236700674823" lon="11.371626594807601"><ele>511.28571428571433</ele><time>2026-04-11T14:42:57.999Z</time></trkpt><trkpt lat="44.12371350479859" lon="11.371538013967992"><ele>513.0</ele><time>2026-04-11T14:42:58.999Z</time></trkpt><trkpt lat="44.123771011138416" lon="11.371463857564613"><ele>513.0</ele><time>2026-04-11T14:42:59.999Z</time></trkpt><trkpt lat="44.12382362548214" lon="11.371396503565334"><ele>513.0</ele><time>2026-04-11T14:43:00.999Z</time></trkpt><trkpt lat="44.12392792623103" lon="11.371289065338278"><ele>513.0</ele><time>2026-04-11T14:43:02.999Z</time></trkpt><trkpt lat="44.1240073595753" lon="11.37123129935644"><ele>513.0</ele><time>2026-04-11T14:43:03.999Z</time></trkpt><trkpt lat="44.12408071966996" lon="11.371160509334317"><ele>513.0</ele><time>2026-04-11T14:43:04.999Z</time></trkpt><trkpt lat="44.124158931805255" lon="11.371082126927847"><ele>516.0</ele><time>2026-04-11T14:43:05.999Z</time></trkpt><trkpt lat="44.124225053495856" lon="11.371000202642534"><ele>519.0</ele><time>2026-04-11T14:43:06.999Z</time></trkpt><trkpt lat="44.12430045951793" lon="11.370913808954041"><ele>522.0</ele><time>2026-04-11T14:43:07.999Z</time></trkpt><trkpt lat="44.124362501215025" lon="11.370858863657089"><ele>525.0</ele><time>2026-04-11T14:43:08.999Z</time></trkpt><trkpt lat="44.12443694564706" lon="11.370795812980598"><ele>528.0</ele><time>2026-04-11T14:43:09.999Z</time></trkpt><trkpt lat="44.12451497827844" lon="11.37071652354281"><ele>531.0</ele><time>2026-04-11T14:43:10.999Z</time></trkpt><trkpt lat="44.124593420042885" lon="11.37064406029673"><ele>531.0</ele><time>2026-04-11T14:43:11.999Z</time></trkpt><trkpt lat="44.124661317636864" lon="11.370572566614278"><ele>531.0</ele><time>2026-04-11T14:43:12.999Z</time></trkpt><trkpt lat="44.124731202885584" lon="11.370505174661945"><ele>531.0</ele><time>2026-04-11T14:43:13.999Z</time></trkpt><trkpt lat="44.124810217266706" lon="11.370466034557266"><ele>531.0</ele><time>2026-04-11T14:43:14.999Z</time></trkpt><trkpt lat="44.124878179098964" lon="11.370414710329303"><ele>531.0</ele><time>2026-04-11T14:43:15.999Z</time></trkpt><trkpt lat="44.12493966072394" lon="11.370389124240688"><ele>531.0</ele><time>2026-04-11T14:43:16.999Z</time></trkpt><trkpt lat="44.12501319607102" lon="11.370365811234628"><ele>534.4</ele><time>2026-04-11T14:43:17.999Z</time></trkpt><trkpt lat="44.12509210294381" lon="11.370348654633107"><ele>537.8</ele><time>2026-04-11T14:43:18.999Z</time></trkpt><trkpt lat="44.12516915783211" lon="11.370335024170277"><ele>541.1999999999999</ele><time>2026-04-11T14:43:19.999Z</time></trkpt><trkpt lat="44.12524589315351" lon="11.37030685281515"><ele>544.6</ele><time>2026-04-11T14:43:20.999Z</time></trkpt><trkpt lat="44.12534833357809" lon="11.370287371029608"><ele>548.0</ele><time>2026-04-11T14:43:21.999Z</time></trkpt><trkpt lat="44.125461308924756" lon="11.370287433034854"><ele>548.0</ele><time>2026-04-11T14:43:22.999Z</time></trkpt><trkpt lat="44.12557867665501" lon="11.370275818364933"><ele>548.0</ele><time>2026-04-11T14:43:23.999Z</time></trkpt><trkpt lat="44.12567968007419" lon="11.370239246717796"><ele>548.0</ele><time>2026-04-11T14:43:24.999Z</time></trkpt><trkpt lat="44.12576510712773" lon="11.370179707490752"><ele>548.0</ele><time>2026-04-11T14:43:25.999Z</time></trkpt><trkpt lat="44.125866989385536" lon="11.370135655738528"><ele>548.0</ele><time>2026-04-11T14:43:26.999Z</time></trkpt><trkpt lat="44.12595599240023" lon="11.370082356000994"><ele>548.4</ele><time>2026-04-11T14:43:27.999Z</time></trkpt><trkpt lat="44.126047524504365" lon="11.370034105707031"><ele>548.8</ele><time>2026-04-11T14:43:28.999Z</time></trkpt><trkpt lat="44.12615313280047" lon="11.369982499507499"><ele>549.2</ele><time>2026-04-11T14:43:29.999Z</time></trkpt><trkpt lat="44.12624354156919" lon="11.369952469432128"><ele>549.6</ele><time>2026-04-11T14:43:30.999Z</time></trkpt><trkpt lat="44.126341224448005" lon="11.369906820947701"><ele>550.0</ele><time>2026-04-11T14:43:31.999Z</time></trkpt><trkpt lat="44.12643297096448" lon="11.36985434819242"><ele>550.0</ele><time>2026-04-11T14:43:32.999Z</time></trkpt><trkpt lat="44.1265294495657" lon="11.369809761112808"><ele>550.0</ele><time>2026-04-11T14:43:33.999Z</time></trkpt><trkpt lat="44.12662714473653" lon="11.369750671215916"><ele>550.0</ele><time>2026-04-11T14:43:34.999Z</time></trkpt><trkpt lat="44.126714977593444" lon="11.369693050972518"><ele>550.0</ele><time>2026-04-11T14:43:35.999Z</time></trkpt><trkpt lat="44.126787183058916" lon="11.369636030262557"><ele>550.0</ele><time>2026-04-11T14:43:36.999Z</time></trkpt><trkpt lat="44.12685991722493" lon="11.369629450319728"><ele>550.6</ele><time>2026-04-11T14:43:37.999Z</time></trkpt><trkpt lat="44.12693125690801" lon="11.36960422830134"><ele>551.2</ele><time>2026-04-11T14:43:38.999Z</time></trkpt><trkpt lat="44.1270241312736" lon="11.369605987243371"><ele>551.8</ele><time>2026-04-11T14:43:39.999Z</time></trkpt><trkpt lat="44.12711880868622" lon="11.369611643976583"><ele>552.4</ele><time>2026-04-11T14:43:40.999Z</time></trkpt><trkpt lat="44.127215810085495" lon="11.369637286788599"><ele>553.0</ele><time>2026-04-11T14:43:41.999Z</time></trkpt><trkpt lat="44.12730907842883" lon="11.369636301225722"><ele>553.0</ele><time>2026-04-11T14:43:42.999Z</time></trkpt><trkpt lat="44.127387442323105" lon="11.369609019487198"><ele>553.0</ele><time>2026-04-11T14:43:43.999Z</time></trkpt><trkpt lat="44.127450522530204" lon="11.369595984127441"><ele>553.0</ele><time>2026-04-11T14:43:44.999Z</time></trkpt><trkpt lat="44.12757504256254" lon="11.369593062701092"><ele>553.0</ele><time>2026-04-11T14:43:46.999Z</time></trkpt><trkpt lat="44.127647705828124" lon="11.36961814178295"><ele>553.0</ele><time>2026-04-11T14:43:47.999Z</time></trkpt><trkpt lat="44.127726298913494" lon="11.369661724799569"><ele>553.0</ele><time>2026-04-11T14:43:48.999Z</time></trkpt><trkpt lat="44.12780231590649" lon="11.369709775358547"><ele>552.1999999999999</ele><time>2026-04-11T14:43:49.999Z</time></trkpt><trkpt lat="44.12789844560933" lon="11.369745083044299"><ele>551.4</ele><time>2026-04-11T14:43:50.999Z</time></trkpt><trkpt lat="44.12799525055749" lon="11.369776522975236"><ele>550.5999999999999</ele><time>2026-04-11T14:43:51.999Z</time></trkpt><trkpt lat="44.12810293061453" lon="11.369799393733878"><ele>549.8</ele><time>2026-04-11T14:43:52.999Z</time></trkpt><trkpt lat="44.12819220016124" lon="11.36980744284868"><ele>549.0</ele><time>2026-04-11T14:43:53.999Z</time></trkpt><trkpt lat="44.12825663287847" lon="11.369771505173887"><ele>550.0</ele><time>2026-04-11T14:43:54.999Z</time></trkpt><trkpt lat="44.12836615949551" lon="11.369705412005773"><ele>551.0</ele><time>2026-04-11T14:43:56.999Z</time></trkpt><trkpt lat="44.12844248676476" lon="11.369679241324297"><ele>552.0</ele><time>2026-04-11T14:43:57.999Z</time></trkpt><trkpt lat="44.128541241841006" lon="11.36967406613963"><ele>553.0</ele><time>2026-04-11T14:43:58.999Z</time></trkpt><trkpt lat="44.12860471241353" lon="11.369658314314949"><ele>554.0</ele><time>2026-04-11T14:43:59.999Z</time></trkpt><trkpt lat="44.128673922200655" lon="11.36963883705996"><ele>555.0</ele><time>2026-04-11T14:44:00.999Z</time></trkpt><trkpt lat="44.128736503295755" lon="11.369595901356305"><ele>555.0</ele><time>2026-04-11T14:44:01.999Z</time></trkpt><trkpt lat="44.12881239004189" lon="11.369588730758679"><ele>555.0</ele><time>2026-04-11T14:44:02.999Z</time></trkpt><trkpt lat="44.128881122598806" lon="11.369569035026515"><ele>555.0</ele><time>2026-04-11T14:44:03.999Z</time></trkpt><trkpt lat="44.128960501583315" lon="11.369548807610917"><ele>555.0</ele><time>2026-04-11T14:44:04.999Z</time></trkpt><trkpt lat="44.129049863227415" lon="11.369533204930189"><ele>555.0</ele><time>2026-04-11T14:44:05.999Z</time></trkpt><trkpt lat="44.12912982968116" lon="11.369527381690437"><ele>555.0</ele><time>2026-04-11T14:44:06.999Z</time></trkpt><trkpt lat="44.129215640441544" lon="11.36954406858044"><ele>557.2</ele><time>2026-04-11T14:44:07.999Z</time></trkpt><trkpt lat="44.12927344770952" lon="11.369582780748768"><ele>559.4</ele><time>2026-04-11T14:44:08.999Z</time></trkpt><trkpt lat="44.129401761007294" lon="11.369678764632363"><ele>561.6</ele><time>2026-04-11T14:44:10.999Z</time></trkpt><trkpt lat="44.129477663210395" lon="11.369728788891369"><ele>563.8</ele><time>2026-04-11T14:44:11.999Z</time></trkpt><trkpt lat="44.12956200492141" lon="11.36975971814535"><ele>566.0</ele><time>2026-04-11T14:44:12.999Z</time></trkpt><trkpt lat="44.12965372194605" lon="11.369793058533023"><ele>566.6</ele><time>2026-04-11T14:44:13.999Z</time></trkpt><trkpt lat="44.12975571203717" lon="11.369792338784517"><ele>567.2</ele><time>2026-04-11T14:44:14.999Z</time></trkpt><trkpt lat="44.12986830298381" lon="11.369749745155426"><ele>567.8</ele><time>2026-04-11T14:44:16Z</time></trkpt><trkpt lat="44.12997805150606" lon="11.369706492470865"><ele>568.4</ele><time>2026-04-11T14:44:17Z</time></trkpt><trkpt lat="44.13008220260806" lon="11.369708693621828"><ele>569.0</ele><time>2026-04-11T14:44:18Z</time></trkpt><trkpt lat="44.1301770462239" lon="11.3697012075889"><ele>569.1666666666666</ele><time>2026-04-11T14:44:19Z</time></trkpt><trkpt lat="44.13027683969009" lon="11.369671075191025"><ele>569.3333333333333</ele><time>2026-04-11T14:44:20Z</time></trkpt><trkpt lat="44.13037236527658" lon="11.369675914307507"><ele>569.5</ele><time>2026-04-11T14:44:21Z</time></trkpt><trkpt lat="44.130448410706606" lon="11.369668307684112"><ele>569.6666666666666</ele><time>2026-04-11T14:44:22Z</time></trkpt><trkpt lat="44.13052337204213" lon="11.369639192799466"><ele>569.8333333333334</ele><time>2026-04-11T14:44:24Z</time></trkpt><trkpt lat="44.13058850475776" lon="11.369619299479304"><ele>570.0</ele><time>2026-04-11T14:44:26Z</time></trkpt><trkpt lat="44.13070754313546" lon="11.36962640415592"><ele>571.1666666666666</ele><time>2026-04-11T14:44:28Z</time></trkpt><trkpt lat="44.13078070281394" lon="11.36962495268357"><ele>572.3333333333334</ele><time>2026-04-11T14:44:29Z</time></trkpt><trkpt lat="44.13088734795477" lon="11.369612100730413"><ele>573.5</ele><time>2026-04-11T14:44:31Z</time></trkpt><trkpt lat="44.130991608375645" lon="11.369598063711024"><ele>574.6666666666667</ele><time>2026-04-11T14:44:33Z</time></trkpt><trkpt lat="44.13106534134436" lon="11.369590743253028"><ele>575.8333333333334</ele><time>2026-04-11T14:44:34Z</time></trkpt><trkpt lat="44.13114859472543" lon="11.36956501457796"><ele>577.0</ele><time>2026-04-11T14:44:35Z</time></trkpt><trkpt lat="44.131235277786" lon="11.369549933876758"><ele>577.0</ele><time>2026-04-11T14:44:36Z</time></trkpt><trkpt lat="44.13130778163608" lon="11.369544458591378"><ele>577.0</ele><time>2026-04-11T14:44:37Z</time></trkpt><trkpt lat="44.131368061116426" lon="11.369511724245406"><ele>577.0</ele><time>2026-04-11T14:44:38Z</time></trkpt><trkpt lat="44.13143152888431" lon="11.369465897659138"><ele>577.0</ele><time>2026-04-11T14:44:39Z</time></trkpt><trkpt lat="44.13149917512388" lon="11.36946057923204"><ele>577.0</ele><time>2026-04-11T14:44:40Z</time></trkpt><trkpt lat="44.131570237554904" lon="11.369449097326601"><ele>577.0</ele><time>2026-04-11T14:44:41Z</time></trkpt><trkpt lat="44.131635766492494" lon="11.36942018396322"><ele>577.0</ele><time>2026-04-11T14:44:42Z</time></trkpt><trkpt lat="44.13175385037188" lon="11.369368989217833"><ele>579.3333333333334</ele><time>2026-04-11T14:44:44Z</time></trkpt><trkpt lat="44.13185104224007" lon="11.36936664754662"><ele>581.6666666666667</ele><time>2026-04-11T14:44:46Z</time></trkpt><trkpt lat="44.13191104906676" lon="11.369327043639336"><ele>584.0</ele><time>2026-04-11T14:44:47Z</time></trkpt><trkpt lat="44.131963015957595" lon="11.369265538535563"><ele>586.3333333333334</ele><time>2026-04-11T14:44:47.999Z</time></trkpt><trkpt lat="44.13201138901265" lon="11.369177052941875"><ele>588.6666666666666</ele><time>2026-04-11T14:44:48.999Z</time></trkpt><trkpt lat="44.13205059820685" lon="11.369095565314183"><ele>591.0</ele><time>2026-04-11T14:44:49.999Z</time></trkpt><trkpt lat="44.13209814935657" lon="11.368964580946152"><ele>590.4</ele><time>2026-04-11T14:44:51.999Z</time></trkpt><trkpt lat="44.13219283693006" lon="11.368852354322241"><ele>589.8</ele><time>2026-04-11T14:44:53.999Z</time></trkpt><trkpt lat="44.132314148085776" lon="11.36883706140769"><ele>589.1999999999999</ele><time>2026-04-11T14:44:55.999Z</time></trkpt><trkpt lat="44.132411926942495" lon="11.368773218944778"><ele>588.6</ele><time>2026-04-11T14:44:57.999Z</time></trkpt><trkpt lat="44.13246460521234" lon="11.368723034117112"><ele>588.0</ele><time>2026-04-11T14:44:58.999Z</time></trkpt><trkpt lat="44.1325307786685" lon="11.36866923774286"><ele>590.1666666666666</ele><time>2026-04-11T14:44:59.999Z</time></trkpt><trkpt lat="44.13257080860292" lon="11.368598580624981"><ele>592.3333333333334</ele><time>2026-04-11T14:45:00.999Z</time></trkpt><trkpt lat="44.13262048035503" lon="11.368499035096375"><ele>594.5</ele><time>2026-04-11T14:45:02.999Z</time></trkpt><trkpt lat="44.13266508736458" lon="11.368413046651497"><ele>596.6666666666667</ele><time>2026-04-11T14:45:05.999Z</time></trkpt><trkpt lat="44.13271626487152" lon="11.368340993798855"><ele>598.8333333333334</ele><time>2026-04-11T14:45:08.999Z</time></trkpt><trkpt lat="44.13276290604297" lon="11.368217011285019"><ele>601.0</ele><time>2026-04-11T14:45:33.999Z</time></trkpt><trkpt lat="44.1327978482204" lon="11.36806929139295"><ele>599.2</ele><time>2026-04-11T14:45:35.999Z</time></trkpt><trkpt lat="44.132846419856165" lon="11.367949743305484"><ele>597.4000000000001</ele><time>2026-04-11T14:45:37.999Z</time></trkpt><trkpt lat="44.132875419994875" lon="11.367770461739877"><ele>595.6</ele><time>2026-04-11T14:45:39.999Z</time></trkpt><trkpt lat="44.132898955757305" lon="11.367670766561414"><ele>593.8000000000001</ele><time>2026-04-11T14:45:40.999Z</time></trkpt><trkpt lat="44.132939307973984" lon="11.367569918400525"><ele>592.0</ele><time>2026-04-11T14:45:41.999Z</time></trkpt><trkpt lat="44.13298561210995" lon="11.367461270430024"><ele>592.0</ele><time>2026-04-11T14:45:42.999Z</time></trkpt><trkpt lat="44.13303181403132" lon="11.367353359605865"><ele>592.0</ele><time>2026-04-11T14:45:43.999Z</time></trkpt><trkpt lat="44.1330758073219" lon="11.367254987659718"><ele>592.0</ele><time>2026-04-11T14:45:44.999Z</time></trkpt><trkpt lat="44.133113336822255" lon="11.367170730940321"><ele>592.0</ele><time>2026-04-11T14:45:45.999Z</time></trkpt><trkpt lat="44.133159011809006" lon="11.367065558739766"><ele>592.0</ele><time>2026-04-11T14:45:46.999Z</time></trkpt><trkpt lat="44.13320465332257" lon="11.366954861089328"><ele>592.0</ele><time>2026-04-11T14:45:47.999Z</time></trkpt><trkpt lat="44.13325256631567" lon="11.36683865415992"><ele>592.3333333333334</ele><time>2026-04-11T14:45:48.999Z</time></trkpt><trkpt lat="44.13329980166249" lon="11.366724090844414"><ele>592.6666666666667</ele><time>2026-04-11T14:45:49.999Z</time></trkpt><trkpt lat="44.13334804033339" lon="11.3666061001779"><ele>593.0</ele><time>2026-04-11T14:45:50.999Z</time></trkpt><trkpt lat="44.13338692332193" lon="11.366499773201143"><ele>593.3333333333334</ele><time>2026-04-11T14:45:51.999Z</time></trkpt><trkpt lat="44.1334167933245" lon="11.366406232970474"><ele>593.6666666666666</ele><time>2026-04-11T14:45:52.999Z</time></trkpt><trkpt lat="44.13343253491737" lon="11.366273275052986"><ele>594.0</ele><time>2026-04-11T14:45:53.999Z</time></trkpt><trkpt lat="44.13344433800627" lon="11.366146489766896"><ele>594.0</ele><time>2026-04-11T14:45:55Z</time></trkpt><trkpt lat="44.13346119048302" lon="11.365989926151636"><ele>594.0</ele><time>2026-04-11T14:45:56Z</time></trkpt><trkpt lat="44.13345708889335" lon="11.36585295354457"><ele>594.0</ele><time>2026-04-11T14:45:57Z</time></trkpt><trkpt lat="44.133454794492" lon="11.36572509999496"><ele>594.0</ele><time>2026-04-11T14:45:58Z</time></trkpt><trkpt lat="44.13345547596782" lon="11.365608417109266"><ele>594.0</ele><time>2026-04-11T14:45:59Z</time></trkpt><trkpt lat="44.13346302743565" lon="11.365480441579246"><ele>594.4</ele><time>2026-04-11T14:46:00Z</time></trkpt><trkpt lat="44.13347692947833" lon="11.365348863145451"><ele>594.8</ele><time>2026-04-11T14:46:01Z</time></trkpt><trkpt lat="44.133499965724845" lon="11.36522435979715"><ele>595.2</ele><time>2026-04-11T14:46:02Z</time></trkpt><trkpt lat="44.13352973089275" lon="11.365099919524384"><ele>595.6</ele><time>2026-04-11T14:46:03Z</time></trkpt><trkpt lat="44.13355478301365" lon="11.364987682444717"><ele>596.0</ele><time>2026-04-11T14:46:04Z</time></trkpt><trkpt lat="44.13357806463525" lon="11.364850448457743"><ele>596.0</ele><time>2026-04-11T14:46:05Z</time></trkpt><trkpt lat="44.133600641578155" lon="11.36472681748513"><ele>596.0</ele><time>2026-04-11T14:46:06Z</time></trkpt><trkpt lat="44.13362041257995" lon="11.364596923896396"><ele>596.0</ele><time>2026-04-11T14:46:07Z</time></trkpt><trkpt lat="44.1336500695402" lon="11.364465743016352"><ele>596.0</ele><time>2026-04-11T14:46:08Z</time></trkpt><trkpt lat="44.13365191952446" lon="11.364335998581689"><ele>596.0</ele><time>2026-04-11T14:46:09Z</time></trkpt><trkpt lat="44.13367241146427" lon="11.364202663057526"><ele>595.4</ele><time>2026-04-11T14:46:10Z</time></trkpt><trkpt lat="44.13369501164912" lon="11.364079366728912"><ele>594.8</ele><time>2026-04-11T14:46:11Z</time></trkpt><trkpt lat="44.13371542442469" lon="11.363962040624951"><ele>594.1999999999999</ele><time>2026-04-11T14:46:12Z</time></trkpt><trkpt lat="44.13373185019763" lon="11.363867630520799"><ele>593.6</ele><time>2026-04-11T14:46:13Z</time></trkpt><trkpt lat="44.1337539469833" lon="11.363714839416549"><ele>593.0</ele><time>2026-04-11T14:46:15Z</time></trkpt><trkpt lat="44.13382824467346" lon="11.363623615602325"><ele>592.75</ele><time>2026-04-11T14:46:17Z</time></trkpt><trkpt lat="44.13396697541119" lon="11.36361385331546"><ele>592.5</ele><time>2026-04-11T14:46:19Z</time></trkpt><trkpt lat="44.13407153972635" lon="11.36362051726075"><ele>592.25</ele><time>2026-04-11T14:46:20Z</time></trkpt><trkpt lat="44.134181101202905" lon="11.363641970787926"><ele>592.0</ele><time>2026-04-11T14:46:21Z</time></trkpt><trkpt lat="44.134283036965634" lon="11.363657359484334"><ele>593.2</ele><time>2026-04-11T14:46:22Z</time></trkpt><trkpt lat="44.1343673949245" lon="11.36365974515383"><ele>594.4000000000001</ele><time>2026-04-11T14:46:23Z</time></trkpt><trkpt lat="44.13443669766039" lon="11.36362114809554"><ele>595.5999999999999</ele><time>2026-04-11T14:46:24Z</time></trkpt><trkpt lat="44.134503875786386" lon="11.363547546955713"><ele>596.8</ele><time>2026-04-11T14:46:25Z</time></trkpt><trkpt lat="44.13456696656186" lon="11.36344413502711"><ele>598.0</ele><time>2026-04-11T14:46:26Z</time></trkpt><trkpt lat="44.13463621256966" lon="11.363316379040771"><ele>598.0</ele><time>2026-04-11T14:46:27Z</time></trkpt><trkpt lat="44.13470870472588" lon="11.36320646121371"><ele>598.0</ele><time>2026-04-11T14:46:28Z</time></trkpt><trkpt lat="44.13478847922259" lon="11.363111879401176"><ele>598.0</ele><time>2026-04-11T14:46:29Z</time></trkpt><trkpt lat="44.13486769477281" lon="11.363018887731187"><ele>598.0</ele><time>2026-04-11T14:46:30Z</time></trkpt><trkpt lat="44.13494873628455" lon="11.362922701502578"><ele>598.0</ele><time>2026-04-11T14:46:31Z</time></trkpt><trkpt lat="44.13502917961491" lon="11.362824747383007"><ele>595.8</ele><time>2026-04-11T14:46:32Z</time></trkpt><trkpt lat="44.13511243844359" lon="11.362734517871159"><ele>593.5999999999999</ele><time>2026-04-11T14:46:33Z</time></trkpt><trkpt lat="44.13518868894635" lon="11.362628522828054"><ele>591.4000000000001</ele><time>2026-04-11T14:46:34Z</time></trkpt><trkpt lat="44.13526872254863" lon="11.362538225595296"><ele>589.2</ele><time>2026-04-11T14:46:35Z</time></trkpt><trkpt lat="44.13534924926103" lon="11.362444229306051"><ele>587.0</ele><time>2026-04-11T14:46:36Z</time></trkpt><trkpt lat="44.135427570450375" lon="11.362355729804154"><ele>587.0</ele><time>2026-04-11T14:46:37Z</time></trkpt><trkpt lat="44.13550061771511" lon="11.362260961637094"><ele>587.0</ele><time>2026-04-11T14:46:38Z</time></trkpt><trkpt lat="44.13557545584235" lon="11.362173706046633"><ele>587.0</ele><time>2026-04-11T14:46:39Z</time></trkpt><trkpt lat="44.13564705250475" lon="11.362087617340038"><ele>587.0</ele><time>2026-04-11T14:46:40Z</time></trkpt><trkpt lat="44.135728907450584" lon="11.362005432461121"><ele>587.0</ele><time>2026-04-11T14:46:41Z</time></trkpt><trkpt lat="44.13580926707661" lon="11.361920525103347"><ele>583.5</ele><time>2026-04-11T14:46:42Z</time></trkpt><trkpt lat="44.1359150000006" lon="11.36183311712037"><ele>580.0</ele><time>2026-04-11T14:46:43Z</time></trkpt><trkpt lat="44.13603824807263" lon="11.36176368029982"><ele>576.5</ele><time>2026-04-11T14:46:44Z</time></trkpt><trkpt lat="44.136149198593436" lon="11.36170921342593"><ele>573.0</ele><time>2026-04-11T14:46:45Z</time></trkpt><trkpt lat="44.1362411788782" lon="11.36165283123128"><ele>573.0</ele><time>2026-04-11T14:46:46Z</time></trkpt><trkpt lat="44.136337117170925" lon="11.361583460559133"><ele>573.0</ele><time>2026-04-11T14:46:47Z</time></trkpt><trkpt lat="44.136433009309485" lon="11.361479705622408"><ele>573.0</ele><time>2026-04-11T14:46:48Z</time></trkpt><trkpt lat="44.13653723052281" lon="11.361348080824406"><ele>573.0</ele><time>2026-04-11T14:46:49Z</time></trkpt><trkpt lat="44.13663237625882" lon="11.361229246571819"><ele>571.75</ele><time>2026-04-11T14:46:50Z</time></trkpt><trkpt lat="44.13673987851622" lon="11.361111997711946"><ele>570.5</ele><time>2026-04-11T14:46:51Z</time></trkpt><trkpt lat="44.13685077548198" lon="11.361004599570622"><ele>569.25</ele><time>2026-04-11T14:46:52Z</time></trkpt><trkpt lat="44.136956939336095" lon="11.36089524138581"><ele>568.0</ele><time>2026-04-11T14:46:53Z</time></trkpt><trkpt lat="44.13705319981965" lon="11.360795539716394"><ele>568.0</ele><time>2026-04-11T14:46:54Z</time></trkpt><trkpt lat="44.13714284485257" lon="11.360704186737427"><ele>568.0</ele><time>2026-04-11T14:46:55Z</time></trkpt><trkpt lat="44.137227866916646" lon="11.360604612830093"><ele>568.0</ele><time>2026-04-11T14:46:56Z</time></trkpt><trkpt lat="44.137303834144284" lon="11.36049579746596"><ele>568.0</ele><time>2026-04-11T14:46:57Z</time></trkpt><trkpt lat="44.13738462802159" lon="11.360407759548453"><ele>568.0</ele><time>2026-04-11T14:46:58Z</time></trkpt><trkpt lat="44.13745062324257" lon="11.36031382510157"><ele>566.1999999999999</ele><time>2026-04-11T14:46:59Z</time></trkpt><trkpt lat="44.13748673289922" lon="11.360187069394613"><ele>564.4</ele><time>2026-04-11T14:47:00Z</time></trkpt><trkpt lat="44.137521683921506" lon="11.360058444422071"><ele>562.5999999999999</ele><time>2026-04-11T14:47:01Z</time></trkpt><trkpt lat="44.13753269792841" lon="11.359905388818865"><ele>560.8</ele><time>2026-04-11T14:47:02Z</time></trkpt><trkpt lat="44.137561319570594" lon="11.359756640552318"><ele>559.0</ele><time>2026-04-11T14:47:03Z</time></trkpt><trkpt lat="44.137593063332666" lon="11.359632318084229"><ele>559.0</ele><time>2026-04-11T14:47:04Z</time></trkpt><trkpt lat="44.13766956811815" lon="11.359548623310651"><ele>559.0</ele><time>2026-04-11T14:47:05Z</time></trkpt><trkpt lat="44.137745127918265" lon="11.359495072937156"><ele>559.0</ele><time>2026-04-11T14:47:06Z</time></trkpt><trkpt lat="44.137830488129545" lon="11.359484079545098"><ele>559.0</ele><time>2026-04-11T14:47:07Z</time></trkpt><trkpt lat="44.1379095813647" lon="11.359500412969194"><ele>559.0</ele><time>2026-04-11T14:47:08Z</time></trkpt><trkpt lat="44.13797963701697" lon="11.359556050647175"><ele>559.0</ele><time>2026-04-11T14:47:09Z</time></trkpt><trkpt lat="44.13806628400891" lon="11.35962403651455"><ele>559.0</ele><time>2026-04-11T14:47:10Z</time></trkpt><trkpt lat="44.13815687334805" lon="11.359642453884813"><ele>559.0</ele><time>2026-04-11T14:47:11Z</time></trkpt><trkpt lat="44.138227134397816" lon="11.359632494120318"><ele>559.0</ele><time>2026-04-11T14:47:12Z</time></trkpt><trkpt lat="44.13829980674351" lon="11.35954527859962"><ele>559.0</ele><time>2026-04-11T14:47:13Z</time></trkpt><trkpt lat="44.13837186047911" lon="11.359436025105769"><ele>559.0</ele><time>2026-04-11T14:47:14Z</time></trkpt><trkpt lat="44.138451947176826" lon="11.35937877315215"><ele>558.4</ele><time>2026-04-11T14:47:15Z</time></trkpt><trkpt lat="44.13854291118893" lon="11.35936419622213"><ele>557.8</ele><time>2026-04-11T14:47:16Z</time></trkpt><trkpt lat="44.1386367144076" lon="11.359348043868984"><ele>557.2</ele><time>2026-04-11T14:47:17Z</time></trkpt><trkpt lat="44.13873218256204" lon="11.359307928602728"><ele>556.6</ele><time>2026-04-11T14:47:18Z</time></trkpt><trkpt lat="44.13882719068017" lon="11.359245856398719"><ele>556.0</ele><time>2026-04-11T14:47:19Z</time></trkpt><trkpt lat="44.13892632139938" lon="11.359161326499898"><ele>556.0</ele><time>2026-04-11T14:47:20Z</time></trkpt><trkpt lat="44.13902531279377" lon="11.359051867035422"><ele>556.0</ele><time>2026-04-11T14:47:21Z</time></trkpt><trkpt lat="44.13911825187927" lon="11.358937486061363"><ele>556.0</ele><time>2026-04-11T14:47:22Z</time></trkpt><trkpt lat="44.13921541588081" lon="11.358829112109857"><ele>556.0</ele><time>2026-04-11T14:47:23Z</time></trkpt><trkpt lat="44.1393354770264" lon="11.358847237807241"><ele>556.6</ele><time>2026-04-11T14:47:24Z</time></trkpt><trkpt lat="44.13943260665229" lon="11.35878759063672"><ele>557.2</ele><time>2026-04-11T14:47:25Z</time></trkpt><trkpt lat="44.13950182679085" lon="11.358664873116465"><ele>557.8</ele><time>2026-04-11T14:47:26Z</time></trkpt><trkpt lat="44.13958331747191" lon="11.358562058568777"><ele>558.4</ele><time>2026-04-11T14:47:27Z</time></trkpt><trkpt lat="44.13967662957356" lon="11.358508367530955"><ele>559.0</ele><time>2026-04-11T14:47:28Z</time></trkpt><trkpt lat="44.13977413292753" lon="11.358438290123978"><ele>559.0</ele><time>2026-04-11T14:47:29Z</time></trkpt><trkpt lat="44.139877537070454" lon="11.358349156721637"><ele>559.0</ele><time>2026-04-11T14:47:30Z</time></trkpt><trkpt lat="44.13998045309858" lon="11.358285737245511"><ele>559.0</ele><time>2026-04-11T14:47:31Z</time></trkpt><trkpt lat="44.140079550234105" lon="11.3582160585009"><ele>559.0</ele><time>2026-04-11T14:47:32Z</time></trkpt><trkpt lat="44.14015828298226" lon="11.358113213229446"><ele>559.8</ele><time>2026-04-11T14:47:33Z</time></trkpt><trkpt lat="44.14023405378076" lon="11.358020563522157"><ele>560.5999999999999</ele><time>2026-04-11T14:47:34Z</time></trkpt><trkpt lat="44.14031114473724" lon="11.35795019809101"><ele>561.4</ele><time>2026-04-11T14:47:35Z</time></trkpt><trkpt lat="44.140380687566186" lon="11.35790205061399"><ele>562.1999999999999</ele><time>2026-04-11T14:47:36Z</time></trkpt><trkpt lat="44.14046493261254" lon="11.35794891435906"><ele>563.0</ele><time>2026-04-11T14:47:37Z</time></trkpt><trkpt lat="44.140555799476644" lon="11.35796819148789"><ele>563.0</ele><time>2026-04-11T14:47:38Z</time></trkpt><trkpt lat="44.14063049092728" lon="11.357979946262434"><ele>563.0</ele><time>2026-04-11T14:47:39Z</time></trkpt><trkpt lat="44.14070752728638" lon="11.357971025774225"><ele>563.0</ele><time>2026-04-11T14:47:40Z</time></trkpt><trkpt lat="44.140801771345" lon="11.357905987225838"><ele>563.0</ele><time>2026-04-11T14:47:41Z</time></trkpt><trkpt lat="44.14086395702368" lon="11.357797293388602"><ele>563.0</ele><time>2026-04-11T14:47:42Z</time></trkpt><trkpt lat="44.14091791036076" lon="11.357658292505507"><ele>560.4</ele><time>2026-04-11T14:47:43Z</time></trkpt><trkpt lat="44.140965025672266" lon="11.357527111025572"><ele>557.8</ele><time>2026-04-11T14:47:44Z</time></trkpt><trkpt lat="44.14103785302751" lon="11.357424870475809"><ele>555.2</ele><time>2026-04-11T14:47:45Z</time></trkpt><trkpt lat="44.14110912707233" lon="11.357319898526432"><ele>552.6</ele><time>2026-04-11T14:47:46Z</time></trkpt><trkpt lat="44.14118850132321" lon="11.35721897607978"><ele>550.0</ele><time>2026-04-11T14:47:47Z</time></trkpt><trkpt lat="44.141269931411294" lon="11.357127388131108"><ele>550.0</ele><time>2026-04-11T14:47:48Z</time></trkpt><trkpt lat="44.1413527252758" lon="11.357044191786917"><ele>550.0</ele><time>2026-04-11T14:47:49Z</time></trkpt><trkpt lat="44.1414324512358" lon="11.35697530991107"><ele>550.0</ele><time>2026-04-11T14:47:50Z</time></trkpt><trkpt lat="44.14151658195229" lon="11.356913568971743"><ele>550.0</ele><time>2026-04-11T14:47:51Z</time></trkpt><trkpt lat="44.14160854719302" lon="11.356897486673835"><ele>550.0</ele><time>2026-04-11T14:47:52Z</time></trkpt><trkpt lat="44.141693192148004" lon="11.356895002934278"><ele>548.1666666666667</ele><time>2026-04-11T14:47:53Z</time></trkpt><trkpt lat="44.141776578045196" lon="11.356901294607674"><ele>546.3333333333334</ele><time>2026-04-11T14:47:54Z</time></trkpt><trkpt lat="44.14185520826898" lon="11.356886600501708"><ele>544.5</ele><time>2026-04-11T14:47:55Z</time></trkpt><trkpt lat="44.141931604675854" lon="11.356819429657328"><ele>542.6666666666666</ele><time>2026-04-11T14:47:56Z</time></trkpt><trkpt lat="44.142009491664766" lon="11.356747879882027"><ele>540.8333333333333</ele><time>2026-04-11T14:47:57Z</time></trkpt><trkpt lat="44.14208631469186" lon="11.35666906538277"><ele>539.0</ele><time>2026-04-11T14:47:58Z</time></trkpt><trkpt lat="44.14217061606991" lon="11.356625554911654"><ele>539.0</ele><time>2026-04-11T14:47:59Z</time></trkpt><trkpt lat="44.1422581935393" lon="11.356594159766328"><ele>539.0</ele><time>2026-04-11T14:48:00Z</time></trkpt><trkpt lat="44.14234242005382" lon="11.356579029529795"><ele>539.0</ele><time>2026-04-11T14:48:01Z</time></trkpt><trkpt lat="44.14243596638284" lon="11.356572293511652"><ele>539.0</ele><time>2026-04-11T14:48:02Z</time></trkpt><trkpt lat="44.14252434217574" lon="11.356629404262831"><ele>539.0</ele><time>2026-04-11T14:48:03Z</time></trkpt><trkpt lat="44.142620881121836" lon="11.356707461696042"><ele>536.6</ele><time>2026-04-11T14:48:04Z</time></trkpt><trkpt lat="44.142710872176465" lon="11.356773196114471"><ele>534.2</ele><time>2026-04-11T14:48:05Z</time></trkpt><trkpt lat="44.142794348518976" lon="11.356836124547351"><ele>531.8000000000001</ele><time>2026-04-11T14:48:06Z</time></trkpt><trkpt lat="44.142881287996104" lon="11.356912218303615"><ele>529.4</ele><time>2026-04-11T14:48:07Z</time></trkpt><trkpt lat="44.14295472727933" lon="11.35700272844991"><ele>527.0</ele><time>2026-04-11T14:48:08Z</time></trkpt><trkpt lat="44.14301610190194" lon="11.357078094459364"><ele>527.0</ele><time>2026-04-11T14:48:09Z</time></trkpt><trkpt lat="44.1430760096146" lon="11.35713985398716"><ele>527.0</ele><time>2026-04-11T14:48:10Z</time></trkpt><trkpt lat="44.14313042721021" lon="11.357233825371246"><ele>527.0</ele><time>2026-04-11T14:48:11Z</time></trkpt><trkpt lat="44.1431892036888" lon="11.357303080590613"><ele>527.0</ele><time>2026-04-11T14:48:12Z</time></trkpt><trkpt lat="44.143263988777" lon="11.357318682348494"><ele>527.0</ele><time>2026-04-11T14:48:13Z</time></trkpt><trkpt lat="44.14334733174142" lon="11.357300326694387"><ele>527.0</ele><time>2026-04-11T14:48:14Z</time></trkpt><trkpt lat="44.14344806338901" lon="11.357368706107335"><ele>526.3333333333333</ele><time>2026-04-11T14:48:16Z</time></trkpt><trkpt lat="44.14348321864427" lon="11.357470885817454"><ele>525.6666666666666</ele><time>2026-04-11T14:48:17Z</time></trkpt><trkpt lat="44.14351152502907" lon="11.357589552685104"><ele>525.0</ele><time>2026-04-11T14:48:18Z</time></trkpt><trkpt lat="44.14355820075644" lon="11.357711060785796"><ele>524.3333333333334</ele><time>2026-04-11T14:48:19Z</time></trkpt><trkpt lat="44.14359096221956" lon="11.357802003556031"><ele>523.6666666666667</ele><time>2026-04-11T14:48:20Z</time></trkpt><trkpt lat="44.143648085733155" lon="11.35789612900392"><ele>523.0</ele><time>2026-04-11T14:48:21Z</time></trkpt><trkpt lat="44.14375170498644" lon="11.357913353855514"><ele>523.0</ele><time>2026-04-11T14:48:22Z</time></trkpt><trkpt lat="44.14385603816969" lon="11.357942351381382"><ele>523.0</ele><time>2026-04-11T14:48:23Z</time></trkpt><trkpt lat="44.14396176623872" lon="11.357847033920061"><ele>523.0</ele><time>2026-04-11T14:48:24Z</time></trkpt><trkpt lat="44.144066996819426" lon="11.357743713736774"><ele>523.0</ele><time>2026-04-11T14:48:25Z</time></trkpt><trkpt lat="44.144138102158365" lon="11.357632232951833"><ele>523.8</ele><time>2026-04-11T14:48:26Z</time></trkpt><trkpt lat="44.14420713512215" lon="11.357570074243494"><ele>524.5999999999999</ele><time>2026-04-11T14:48:27Z</time></trkpt><trkpt lat="44.144323132981235" lon="11.357542127345727"><ele>525.4000000000001</ele><time>2026-04-11T14:48:29Z</time></trkpt><trkpt lat="44.14439630152865" lon="11.357686030675557"><ele>526.2</ele><time>2026-04-11T14:48:31Z</time></trkpt><trkpt lat="44.14432952173227" lon="11.357800336014131"><ele>527.0</ele><time>2026-04-11T14:48:32Z</time></trkpt><trkpt lat="44.14430452604661" lon="11.357925962760675"><ele>528.1666666666666</ele><time>2026-04-11T14:48:33Z</time></trkpt><trkpt lat="44.144283726594246" lon="11.358054902800053"><ele>529.3333333333333</ele><time>2026-04-11T14:48:34Z</time></trkpt><trkpt lat="44.14427859692819" lon="11.358166585164009"><ele>530.5</ele><time>2026-04-11T14:48:35Z</time></trkpt><trkpt lat="44.144278661807604" lon="11.358256180462734"><ele>531.6666666666666</ele><time>2026-04-11T14:48:36Z</time></trkpt><trkpt lat="44.14431809624366" lon="11.3583386796956"><ele>532.8333333333334</ele><time>2026-04-11T14:48:37Z</time></trkpt><trkpt lat="44.14438323189385" lon="11.358377794036027"><ele>534.0</ele><time>2026-04-11T14:48:38Z</time></trkpt><trkpt lat="44.144469363319246" lon="11.358338020257644"><ele>534.0</ele><time>2026-04-11T14:48:39Z</time></trkpt><trkpt lat="44.14456910537159" lon="11.358280105378507"><ele>534.0</ele><time>2026-04-11T14:48:40Z</time></trkpt><trkpt lat="44.14467310848276" lon="11.358215446201683"><ele>534.0</ele><time>2026-04-11T14:48:41Z</time></trkpt><trkpt lat="44.14477643515969" lon="11.358170545943828"><ele>534.0</ele><time>2026-04-11T14:48:42Z</time></trkpt><trkpt lat="44.14486403219973" lon="11.358154303947947"><ele>534.0</ele><time>2026-04-11T14:48:43Z</time></trkpt><trkpt lat="44.144950986668555" lon="11.358157556653822"><ele>535.6666666666666</ele><time>2026-04-11T14:48:44Z</time></trkpt><trkpt lat="44.1450285561317" lon="11.358185066642712"><ele>537.3333333333334</ele><time>2026-04-11T14:48:45Z</time></trkpt><trkpt lat="44.14509534082242" lon="11.358263781236968"><ele>539.0</ele><time>2026-04-11T14:48:46Z</time></trkpt><trkpt lat="44.14513012929024" lon="11.358373386919768"><ele>540.6666666666667</ele><time>2026-04-11T14:48:47Z</time></trkpt><trkpt lat="44.145173731120735" lon="11.358481847784367"><ele>542.3333333333334</ele><time>2026-04-11T14:48:48Z</time></trkpt><trkpt lat="44.145214374800034" lon="11.3586177350166"><ele>544.0</ele><time>2026-04-11T14:48:49Z</time></trkpt><trkpt lat="44.145240867121395" lon="11.358763465964433"><ele>544.0</ele><time>2026-04-11T14:48:50Z</time></trkpt><trkpt lat="44.145292279596106" lon="11.358865711691202"><ele>544.0</ele><time>2026-04-11T14:48:51Z</time></trkpt><trkpt lat="44.14534722501044" lon="11.358972734429369"><ele>544.0</ele><time>2026-04-11T14:48:52Z</time></trkpt><trkpt lat="44.14543911533088" lon="11.359081620542211"><ele>544.0</ele><time>2026-04-11T14:48:53Z</time></trkpt><trkpt lat="44.14552565172694" lon="11.359170254389534"><ele>544.0</ele><time>2026-04-11T14:48:54Z</time></trkpt><trkpt lat="44.14559349561029" lon="11.359243111079092"><ele>546.0</ele><time>2026-04-11T14:48:55Z</time></trkpt><trkpt lat="44.14564617222115" lon="11.359320162475793"><ele>548.0</ele><time>2026-04-11T14:48:56Z</time></trkpt><trkpt lat="44.14568822123968" lon="11.359411772408745"><ele>550.0</ele><time>2026-04-11T14:48:57Z</time></trkpt><trkpt lat="44.14572271841866" lon="11.359520164732006"><ele>552.0</ele><time>2026-04-11T14:48:58Z</time></trkpt><trkpt lat="44.145752311501965" lon="11.359649509960544"><ele>554.0</ele><time>2026-04-11T14:48:59Z</time></trkpt><trkpt lat="44.14577368082158" lon="11.359765932878878"><ele>556.0</ele><time>2026-04-11T14:49:00Z</time></trkpt><trkpt lat="44.14579035970681" lon="11.359918553148853"><ele>558.3333333333334</ele><time>2026-04-11T14:49:02Z</time></trkpt><trkpt lat="44.1458060089" lon="11.360048858799832"><ele>560.6666666666667</ele><time>2026-04-11T14:49:10Z</time></trkpt><trkpt lat="44.14582289707507" lon="11.360149081894605"><ele>563.0</ele><time>2026-04-11T14:49:11Z</time></trkpt><trkpt lat="44.14584814788773" lon="11.360241634334175"><ele>565.3333333333334</ele><time>2026-04-11T14:49:12Z</time></trkpt><trkpt lat="44.14586409693257" lon="11.360332292140283"><ele>567.6666666666666</ele><time>2026-04-11T14:49:13Z</time></trkpt><trkpt lat="44.145893367812334" lon="11.360467663160739"><ele>570.0</ele><time>2026-04-11T14:49:15Z</time></trkpt><trkpt lat="44.14593566115717" lon="11.360564667891595"><ele>570.8333333333334</ele><time>2026-04-11T14:49:17Z</time></trkpt><trkpt lat="44.145968755089285" lon="11.360659663172173"><ele>571.6666666666666</ele><time>2026-04-11T14:49:19Z</time></trkpt><trkpt lat="44.146006248997146" lon="11.360805409582648"><ele>572.5</ele><time>2026-04-11T14:49:21Z</time></trkpt><trkpt lat="44.14604291452139" lon="11.360888694391257"><ele>573.3333333333333</ele><time>2026-04-11T14:49:22Z</time></trkpt><trkpt lat="44.14608440924893" lon="11.360968460237205"><ele>574.1666666666666</ele><time>2026-04-11T14:49:23Z</time></trkpt><trkpt lat="44.14613463234368" lon="11.36105249259938"><ele>575.0</ele><time>2026-04-11T14:49:24Z</time></trkpt><trkpt lat="44.14618819012374" lon="11.361103632857766"><ele>575.0</ele><time>2026-04-11T14:49:25Z</time></trkpt><trkpt lat="44.146266305927114" lon="11.361125548160802"><ele>575.0</ele><time>2026-04-11T14:49:26Z</time></trkpt><trkpt lat="44.146329578925936" lon="11.361082346074147"><ele>575.0</ele><time>2026-04-11T14:49:27Z</time></trkpt><trkpt lat="44.146412376517446" lon="11.361038231718153"><ele>575.0</ele><time>2026-04-11T14:49:28Z</time></trkpt><trkpt lat="44.14650074784057" lon="11.360991861087758"><ele>575.0</ele><time>2026-04-11T14:49:29Z</time></trkpt><trkpt lat="44.14657228759008" lon="11.360953876877405"><ele>575.0</ele><time>2026-04-11T14:49:30Z</time></trkpt><trkpt lat="44.14668262213087" lon="11.360978209090403"><ele>577.6</ele><time>2026-04-11T14:49:32Z</time></trkpt><trkpt lat="44.14675125217976" lon="11.361105880964589"><ele>580.2</ele><time>2026-04-11T14:49:34Z</time></trkpt><trkpt lat="44.14677145448168" lon="11.361208795046378"><ele>582.8</ele><time>2026-04-11T14:49:35Z</time></trkpt><trkpt lat="44.1467877483862" lon="11.3613291620489"><ele>585.4</ele><time>2026-04-11T14:49:36Z</time></trkpt><trkpt lat="44.146821370942874" lon="11.361465056825816"><ele>588.0</ele><time>2026-04-11T14:49:37Z</time></trkpt><trkpt lat="44.146875001848294" lon="11.361588101132938"><ele>589.0</ele><time>2026-04-11T14:49:38Z</time></trkpt><trkpt lat="44.14693145931281" lon="11.361682690356258"><ele>590.0</ele><time>2026-04-11T14:49:39Z</time></trkpt><trkpt lat="44.14699762920366" lon="11.361744577149812"><ele>591.0</ele><time>2026-04-11T14:49:40Z</time></trkpt><trkpt lat="44.14705914047555" lon="11.361833471612206"><ele>592.0</ele><time>2026-04-11T14:49:41Z</time></trkpt><trkpt lat="44.1471246381718" lon="11.361907490178318"><ele>593.0</ele><time>2026-04-11T14:49:42Z</time></trkpt><trkpt lat="44.147186232697685" lon="11.361954302566721"><ele>594.0</ele><time>2026-04-11T14:49:43Z</time></trkpt><trkpt lat="44.147258300348774" lon="11.361999485169234"><ele>594.0</ele><time>2026-04-11T14:49:44Z</time></trkpt><trkpt lat="44.14733165641325" lon="11.362007422870432"><ele>594.0</ele><time>2026-04-11T14:49:45Z</time></trkpt><trkpt lat="44.147402923943744" lon="11.362026897619893"><ele>594.0</ele><time>2026-04-11T14:49:46Z</time></trkpt><trkpt lat="44.14745715841445" lon="11.362097992661722"><ele>594.0</ele><time>2026-04-11T14:49:47Z</time></trkpt><trkpt lat="44.14752528326677" lon="11.362251714029833"><ele>594.0</ele><time>2026-04-11T14:49:49Z</time></trkpt><trkpt lat="44.147507619131304" lon="11.362368678716248"><ele>594.0</ele><time>2026-04-11T14:49:50Z</time></trkpt><trkpt lat="44.147538561237155" lon="11.362466922978484"><ele>596.2857142857143</ele><time>2026-04-11T14:49:51Z</time></trkpt><trkpt lat="44.14758138220541" lon="11.362542522751362"><ele>598.5714285714287</ele><time>2026-04-11T14:49:52Z</time></trkpt><trkpt lat="44.14763090548768" lon="11.362604648966064"><ele>600.8571428571429</ele><time>2026-04-11T14:49:53Z</time></trkpt><trkpt lat="44.147684842105576" lon="11.362650008392492"><ele>603.1428571428571</ele><time>2026-04-11T14:49:54Z</time></trkpt><trkpt lat="44.14774822212129" lon="11.36264664161214"><ele>605.4285714285713</ele><time>2026-04-11T14:49:55Z</time></trkpt><trkpt lat="44.14781982323773" lon="11.362619887097736"><ele>607.7142857142858</ele><time>2026-04-11T14:49:56Z</time></trkpt><trkpt lat="44.14789453673812" lon="11.36264613224348"><ele>610.0</ele><time>2026-04-11T14:49:57Z</time></trkpt><trkpt lat="44.1479614802023" lon="11.362661017911476"><ele>610.0</ele><time>2026-04-11T14:49:58Z</time></trkpt><trkpt lat="44.148015924469455" lon="11.362722241932882"><ele>610.0</ele><time>2026-04-11T14:49:59Z</time></trkpt><trkpt lat="44.148053982720874" lon="11.362794054414797"><ele>610.0</ele><time>2026-04-11T14:50:00Z</time></trkpt><trkpt lat="44.14806327649078" lon="11.362891037945106"><ele>610.0</ele><time>2026-04-11T14:50:01Z</time></trkpt><trkpt lat="44.14803962049773" lon="11.36299919999464"><ele>610.0</ele><time>2026-04-11T14:50:02Z</time></trkpt><trkpt lat="44.14806397387869" lon="11.363101119088823"><ele>610.0</ele><time>2026-04-11T14:50:03Z</time></trkpt><trkpt lat="44.14806293585188" lon="11.363198040287987"><ele>610.0</ele><time>2026-04-11T14:50:04Z</time></trkpt><trkpt lat="44.148104686384684" lon="11.36328089692262"><ele>611.1666666666667</ele><time>2026-04-11T14:50:05Z</time></trkpt><trkpt lat="44.14813115047969" lon="11.363368741123466"><ele>612.3333333333334</ele><time>2026-04-11T14:50:06Z</time></trkpt><trkpt lat="44.14821336826503" lon="11.363429336063787"><ele>613.5</ele><time>2026-04-11T14:50:08Z</time></trkpt><trkpt lat="44.14833545978197" lon="11.36344850834697"><ele>614.6666666666666</ele><time>2026-04-11T14:50:10Z</time></trkpt><trkpt lat="44.1484009631089" lon="11.363445455087254"><ele>615.8333333333333</ele><time>2026-04-11T14:50:11Z</time></trkpt><trkpt lat="44.148479322014204" lon="11.363478790380631"><ele>617.0</ele><time>2026-04-11T14:50:12Z</time></trkpt><trkpt lat="44.14856122648385" lon="11.363526360405446"><ele>619.5</ele><time>2026-04-11T14:50:13Z</time></trkpt><trkpt lat="44.14863659169224" lon="11.363592052610167"><ele>622.0</ele><time>2026-04-11T14:50:14Z</time></trkpt><trkpt lat="44.148701562712226" lon="11.363652297751132"><ele>624.5</ele><time>2026-04-11T14:50:15Z</time></trkpt><trkpt lat="44.14876246025735" lon="11.363710919799304"><ele>627.0</ele><time>2026-04-11T14:50:16Z</time></trkpt><trkpt lat="44.148834209343114" lon="11.363763222408684"><ele>629.5</ele><time>2026-04-11T14:50:17Z</time></trkpt><trkpt lat="44.14890408220428" lon="11.363822983771746"><ele>632.0</ele><time>2026-04-11T14:50:18Z</time></trkpt><trkpt lat="44.14897123912212" lon="11.363881559242785"><ele>633.3333333333333</ele><time>2026-04-11T14:50:19Z</time></trkpt><trkpt lat="44.14902121036952" lon="11.363972059600252"><ele>634.6666666666666</ele><time>2026-04-11T14:50:20Z</time></trkpt><trkpt lat="44.149059161913655" lon="11.364072363506766"><ele>636.0</ele><time>2026-04-11T14:50:21Z</time></trkpt><trkpt lat="44.14908681946891" lon="11.364172715887756"><ele>637.3333333333334</ele><time>2026-04-11T14:50:22Z</time></trkpt><trkpt lat="44.149099439928264" lon="11.364283726661347"><ele>638.6666666666667</ele><time>2026-04-11T14:50:23Z</time></trkpt><trkpt lat="44.1490953654446" lon="11.364379256818172"><ele>640.0</ele><time>2026-04-11T14:50:24Z</time></trkpt><trkpt lat="44.14903275036722" lon="11.364503471271679"><ele>640.0</ele><time>2026-04-11T14:50:26Z</time></trkpt><trkpt lat="44.1489900966342" lon="11.364572201944156"><ele>640.0</ele><time>2026-04-11T14:50:27Z</time></trkpt><trkpt lat="44.14892818569575" lon="11.364641941540201"><ele>640.0</ele><time>2026-04-11T14:50:28Z</time></trkpt><trkpt lat="44.148870902018416" lon="11.364743474759203"><ele>640.0</ele><time>2026-04-11T14:50:29Z</time></trkpt><trkpt lat="44.14886239697146" lon="11.36488881786846"><ele>640.0</ele><time>2026-04-11T14:50:30Z</time></trkpt><trkpt lat="44.14884606882908" lon="11.365009917299691"><ele>640.0</ele><time>2026-04-11T14:50:31Z</time></trkpt><trkpt lat="44.14883821777329" lon="11.365152574994111"><ele>641.3333333333334</ele><time>2026-04-11T14:50:32Z</time></trkpt><trkpt lat="44.14880483071579" lon="11.365287373965442"><ele>642.6666666666667</ele><time>2026-04-11T14:50:33Z</time></trkpt><trkpt lat="44.14878877827527" lon="11.365407061090494"><ele>644.0</ele><time>2026-04-11T14:50:34Z</time></trkpt><trkpt lat="44.14876884737843" lon="11.365528930400187"><ele>645.3333333333334</ele><time>2026-04-11T14:50:35Z</time></trkpt><trkpt lat="44.1487385444594" lon="11.365648202741932"><ele>646.6666666666666</ele><time>2026-04-11T14:50:36Z</time></trkpt><trkpt lat="44.14870560745296" lon="11.365743091299827"><ele>648.0</ele><time>2026-04-11T14:50:37Z</time></trkpt><trkpt lat="44.148661971679104" lon="11.36585407044998"><ele>649.6666666666666</ele><time>2026-04-11T14:50:38Z</time></trkpt><trkpt lat="44.14861299384265" lon="11.36595689306308"><ele>651.3333333333334</ele><time>2026-04-11T14:50:39Z</time></trkpt><trkpt lat="44.14856412458178" lon="11.366035432550198"><ele>653.0</ele><time>2026-04-11T14:50:40Z</time></trkpt><trkpt lat="44.14850294650746" lon="11.366106924009328"><ele>654.6666666666667</ele><time>2026-04-11T14:50:41Z</time></trkpt><trkpt lat="44.148434281631104" lon="11.366168284189985"><ele>656.3333333333334</ele><time>2026-04-11T14:50:42Z</time></trkpt><trkpt lat="44.14836544967415" lon="11.366192606116991"><ele>658.0</ele><time>2026-04-11T14:50:43Z</time></trkpt><trkpt lat="44.14829844538927" lon="11.366222003242429"><ele>659.0</ele><time>2026-04-11T14:50:45Z</time></trkpt><trkpt lat="44.14835603101073" lon="11.366420611063209"><ele>660.0</ele><time>2026-04-11T14:50:46Z</time></trkpt><trkpt lat="44.1484060744078" lon="11.366498910847072"><ele>661.0</ele><time>2026-04-11T14:50:47Z</time></trkpt><trkpt lat="44.14847849999141" lon="11.36657402958676"><ele>662.0</ele><time>2026-04-11T14:50:48Z</time></trkpt><trkpt lat="44.14856802219037" lon="11.366634470656242"><ele>663.0</ele><time>2026-04-11T14:50:49Z</time></trkpt><trkpt lat="44.14866149446807" lon="11.36667486652448"><ele>663.0</ele><time>2026-04-11T14:50:50Z</time></trkpt><trkpt lat="44.14876243064832" lon="11.36671809687613"><ele>663.0</ele><time>2026-04-11T14:50:51Z</time></trkpt><trkpt lat="44.148853845736674" lon="11.366762362185332"><ele>663.0</ele><time>2026-04-11T14:50:52Z</time></trkpt><trkpt lat="44.148939281787065" lon="11.366801889930333"><ele>663.0</ele><time>2026-04-11T14:50:53Z</time></trkpt><trkpt lat="44.149017855731536" lon="11.366824188436729"><ele>663.0</ele><time>2026-04-11T14:50:54Z</time></trkpt><trkpt lat="44.14908476237703" lon="11.366830505734619"><ele>663.0</ele><time>2026-04-11T14:50:55Z</time></trkpt><trkpt lat="44.14914848811461" lon="11.366795143870997"><ele>664.6666666666666</ele><time>2026-04-11T14:50:56Z</time></trkpt><trkpt lat="44.14920989437634" lon="11.366735255102336"><ele>666.3333333333334</ele><time>2026-04-11T14:50:57Z</time></trkpt><trkpt lat="44.149293672235636" lon="11.36672793526662"><ele>668.0</ele><time>2026-04-11T14:50:58Z</time></trkpt><trkpt lat="44.1493622217526" lon="11.366713530385217"><ele>669.6666666666667</ele><time>2026-04-11T14:50:59Z</time></trkpt><trkpt lat="44.14944603984532" lon="11.366719148514314"><ele>671.3333333333334</ele><time>2026-04-11T14:51:00Z</time></trkpt><trkpt lat="44.14953558592454" lon="11.366761616268205"><ele>673.0</ele><time>2026-04-11T14:51:01Z</time></trkpt><trkpt lat="44.149616294179914" lon="11.366805327287816"><ele>673.0</ele><time>2026-04-11T14:51:02Z</time></trkpt><trkpt lat="44.149703114867194" lon="11.366856562322114"><ele>673.0</ele><time>2026-04-11T14:51:03Z</time></trkpt><trkpt lat="44.1497756511963" lon="11.36690940102195"><ele>673.0</ele><time>2026-04-11T14:51:04Z</time></trkpt><trkpt lat="44.14982170201306" lon="11.36700822885742"><ele>673.0</ele><time>2026-04-11T14:51:05Z</time></trkpt><trkpt lat="44.149896651329215" lon="11.367054542940986"><ele>673.0</ele><time>2026-04-11T14:51:06Z</time></trkpt><trkpt lat="44.14996068887753" lon="11.367100286477896"><ele>673.0</ele><time>2026-04-11T14:51:07Z</time></trkpt><trkpt lat="44.15005156379733" lon="11.367143081658135"><ele>674.4</ele><time>2026-04-11T14:51:08Z</time></trkpt><trkpt lat="44.15014607075876" lon="11.36719467684716"><ele>675.8</ele><time>2026-04-11T14:51:09Z</time></trkpt><trkpt lat="44.15023413549457" lon="11.36726167768716"><ele>677.2</ele><time>2026-04-11T14:51:10Z</time></trkpt><trkpt lat="44.15033521022534" lon="11.367334121316762"><ele>678.6</ele><time>2026-04-11T14:51:11Z</time></trkpt><trkpt lat="44.15043275553471" lon="11.367402542900518"><ele>680.0</ele><time>2026-04-11T14:51:12Z</time></trkpt><trkpt lat="44.15052158471687" lon="11.367445500074693"><ele>680.0</ele><time>2026-04-11T14:51:13Z</time></trkpt><trkpt lat="44.15061719803058" lon="11.367472475447725"><ele>680.0</ele><time>2026-04-11T14:51:14Z</time></trkpt><trkpt lat="44.15069974769382" lon="11.367452845599205"><ele>680.0</ele><time>2026-04-11T14:51:15Z</time></trkpt><trkpt lat="44.15078387870317" lon="11.367410637790599"><ele>680.0</ele><time>2026-04-11T14:51:16Z</time></trkpt><trkpt lat="44.15089768612877" lon="11.367360207915596"><ele>680.0</ele><time>2026-04-11T14:51:17Z</time></trkpt><trkpt lat="44.15101214353498" lon="11.367327573242873"><ele>682.0</ele><time>2026-04-11T14:51:18Z</time></trkpt><trkpt lat="44.151129156710724" lon="11.367303558581824"><ele>684.0</ele><time>2026-04-11T14:51:19Z</time></trkpt><trkpt lat="44.15125506822592" lon="11.367273687319225"><ele>686.0</ele><time>2026-04-11T14:51:20Z</time></trkpt><trkpt lat="44.15135833062148" lon="11.367269359846166"><ele>688.0</ele><time>2026-04-11T14:51:21Z</time></trkpt><trkpt lat="44.15144608410407" lon="11.36728166459258"><ele>690.0</ele><time>2026-04-11T14:51:22Z</time></trkpt><trkpt lat="44.15152563811529" lon="11.36728522382295"><ele>691.8333333333334</ele><time>2026-04-11T14:51:23Z</time></trkpt><trkpt lat="44.15159333751875" lon="11.367318741452957"><ele>693.6666666666666</ele><time>2026-04-11T14:51:24Z</time></trkpt><trkpt lat="44.151662276902556" lon="11.367336960232985"><ele>695.5</ele><time>2026-04-11T14:51:25Z</time></trkpt><trkpt lat="44.15173117546647" lon="11.367396455583119"><ele>697.3333333333333</ele><time>2026-04-11T14:51:26Z</time></trkpt><trkpt lat="44.1518075063237" lon="11.367455778535456"><ele>699.1666666666666</ele><time>2026-04-11T14:51:27Z</time></trkpt><trkpt lat="44.15187290256093" lon="11.367511841108126"><ele>701.0</ele><time>2026-04-11T14:51:28Z</time></trkpt><trkpt lat="44.151926850425475" lon="11.367604406194031"><ele>701.0</ele><time>2026-04-11T14:51:29Z</time></trkpt><trkpt lat="44.152003441251296" lon="11.367674771551483"><ele>701.0</ele><time>2026-04-11T14:51:30Z</time></trkpt><trkpt lat="44.15206416310411" lon="11.367740732922014"><ele>701.0</ele><time>2026-04-11T14:51:31Z</time></trkpt><trkpt lat="44.15213053925058" lon="11.367779662730868"><ele>701.0</ele><time>2026-04-11T14:51:32Z</time></trkpt><trkpt lat="44.15229937415058" lon="11.367768794365983"><ele>701.0</ele><time>2026-04-11T14:51:34Z</time></trkpt><trkpt lat="44.15240688110342" lon="11.367717012356861"><ele>704.4</ele><time>2026-04-11T14:51:35Z</time></trkpt><trkpt lat="44.15246973965137" lon="11.367646445991193"><ele>707.8</ele><time>2026-04-11T14:51:37Z</time></trkpt><trkpt lat="44.152549044607376" lon="11.367645774302872"><ele>711.1999999999999</ele><time>2026-04-11T14:51:38Z</time></trkpt><trkpt lat="44.15262425187341" lon="11.367685722025483"><ele>714.5999999999999</ele><time>2026-04-11T14:51:39Z</time></trkpt><trkpt lat="44.15276619643401" lon="11.36765574968908"><ele>718.0</ele><time>2026-04-11T14:51:41Z</time></trkpt><trkpt lat="44.15282136058992" lon="11.367598997625176"><ele>718.0</ele><time>2026-04-11T14:51:42Z</time></trkpt><trkpt lat="44.152892817268956" lon="11.367551486396854"><ele>718.0</ele><time>2026-04-11T14:51:43Z</time></trkpt><trkpt lat="44.152984535765285" lon="11.367525669393885"><ele>718.0</ele><time>2026-04-11T14:51:44Z</time></trkpt><trkpt lat="44.15307606696464" lon="11.367507949913037"><ele>718.0</ele><time>2026-04-11T14:51:45Z</time></trkpt><trkpt lat="44.153179733182334" lon="11.367491292499201"><ele>718.0</ele><time>2026-04-11T14:51:46Z</time></trkpt><trkpt lat="44.15330147651264" lon="11.367480008142751"><ele>720.4</ele><time>2026-04-11T14:51:47Z</time></trkpt><trkpt lat="44.153390410843734" lon="11.367470344076883"><ele>722.8</ele><time>2026-04-11T14:51:48Z</time></trkpt><trkpt lat="44.15346132115759" lon="11.367459293951564"><ele>725.2</ele><time>2026-04-11T14:51:49Z</time></trkpt><trkpt lat="44.15355668881065" lon="11.367384881348766"><ele>727.6</ele><time>2026-04-11T14:51:51Z</time></trkpt><trkpt lat="44.153655953540714" lon="11.367314855647113"><ele>730.0</ele><time>2026-04-11T14:51:53Z</time></trkpt><trkpt lat="44.15371988143843" lon="11.367243523422362"><ele>730.0</ele><time>2026-04-11T14:51:54Z</time></trkpt><trkpt lat="44.153783697037376" lon="11.36719456632068"><ele>730.0</ele><time>2026-04-11T14:51:55Z</time></trkpt><trkpt lat="44.153852688695935" lon="11.367146825422008"><ele>730.0</ele><time>2026-04-11T14:51:56Z</time></trkpt><trkpt lat="44.153922482916016" lon="11.367107056070816"><ele>730.0</ele><time>2026-04-11T14:51:57Z</time></trkpt><trkpt lat="44.15402180876587" lon="11.367091150351213"><ele>730.0</ele><time>2026-04-11T14:51:58Z</time></trkpt><trkpt lat="44.15414773434799" lon="11.367145909422446"><ele>732.6666666666667</ele><time>2026-04-11T14:52:00Z</time></trkpt><trkpt lat="44.1542258810268" lon="11.36720410657322"><ele>735.3333333333334</ele><time>2026-04-11T14:52:01Z</time></trkpt><trkpt lat="44.1542918662039" lon="11.367251396927399"><ele>738.0</ele><time>2026-04-11T14:52:02Z</time></trkpt><trkpt lat="44.15436218201786" lon="11.367283875335492"><ele>740.6666666666666</ele><time>2026-04-11T14:52:03Z</time></trkpt><trkpt lat="44.154428501996435" lon="11.367370575149469"><ele>743.3333333333333</ele><time>2026-04-11T14:52:04Z</time></trkpt><trkpt lat="44.15449771895675" lon="11.367459950253544"><ele>746.0</ele><time>2026-04-11T14:52:05Z</time></trkpt><trkpt lat="44.15454309918215" lon="11.367540148179577"><ele>746.0</ele><time>2026-04-11T14:52:06Z</time></trkpt><trkpt lat="44.15458388890364" lon="11.3676499597744"><ele>746.0</ele><time>2026-04-11T14:52:07Z</time></trkpt><trkpt lat="44.15462868617527" lon="11.367760950682863"><ele>746.0</ele><time>2026-04-11T14:52:08Z</time></trkpt><trkpt lat="44.15469726590029" lon="11.367832286512396"><ele>746.0</ele><time>2026-04-11T14:52:10Z</time></trkpt><trkpt lat="44.154796929677175" lon="11.367776189102944"><ele>746.0</ele><time>2026-04-11T14:52:12Z</time></trkpt><trkpt lat="44.15490718251923" lon="11.36767289711456"><ele>748.5999999999999</ele><time>2026-04-11T14:52:14Z</time></trkpt><trkpt lat="44.15497358339413" lon="11.367601229587436"><ele>751.2</ele><time>2026-04-11T14:52:15Z</time></trkpt><trkpt lat="44.1549960925304" lon="11.367489536302907"><ele>753.8</ele><time>2026-04-11T14:52:16Z</time></trkpt><trkpt lat="44.155038990750256" lon="11.367424122845742"><ele>756.4000000000001</ele><time>2026-04-11T14:52:17Z</time></trkpt><trkpt lat="44.15511129755402" lon="11.36729036608725"><ele>759.0</ele><time>2026-04-11T14:52:19Z</time></trkpt><trkpt lat="44.15517733296741" lon="11.367182295667497"><ele>760.0</ele><time>2026-04-11T14:52:20Z</time></trkpt><trkpt lat="44.15524806526834" lon="11.367089792072957"><ele>761.0</ele><time>2026-04-11T14:52:21Z</time></trkpt><trkpt lat="44.15532647046046" lon="11.36702478250526"><ele>762.0</ele><time>2026-04-11T14:52:23Z</time></trkpt><trkpt lat="44.15543883512481" lon="11.367047813738479"><ele>763.0</ele><time>2026-04-11T14:52:25Z</time></trkpt><trkpt lat="44.15551320964102" lon="11.367046055490746"><ele>764.0</ele><time>2026-04-11T14:52:26Z</time></trkpt><trkpt lat="44.155587429974716" lon="11.367068690477215"><ele>764.0</ele><time>2026-04-11T14:52:27Z</time></trkpt><trkpt lat="44.155692395055915" lon="11.367089793251612"><ele>764.0</ele><time>2026-04-11T14:52:28Z</time></trkpt><trkpt lat="44.15579875836476" lon="11.367126803282146"><ele>764.0</ele><time>2026-04-11T14:52:29Z</time></trkpt><trkpt lat="44.155886279275606" lon="11.367161544338378"><ele>764.0</ele><time>2026-04-11T14:52:30Z</time></trkpt><trkpt lat="44.15599694929465" lon="11.36715856534104"><ele>764.0</ele><time>2026-04-11T14:52:32Z</time></trkpt><trkpt lat="44.15606397669926" lon="11.367132568381308"><ele>765.4000000000001</ele><time>2026-04-11T14:52:33Z</time></trkpt><trkpt lat="44.1561436926172" lon="11.367074492812757"><ele>766.8</ele><time>2026-04-11T14:52:34Z</time></trkpt><trkpt lat="44.1562055555738" lon="11.367053429249628"><ele>768.2</ele><time>2026-04-11T14:52:35Z</time></trkpt><trkpt lat="44.15635084337572" lon="11.367108131318423"><ele>769.5999999999999</ele><time>2026-04-11T14:52:37Z</time></trkpt><trkpt lat="44.15642053253267" lon="11.367181871396921"><ele>771.0</ele><time>2026-04-11T14:52:38Z</time></trkpt><trkpt lat="44.156481244483174" lon="11.367268727991453"><ele>771.5</ele><time>2026-04-11T14:52:39Z</time></trkpt><trkpt lat="44.15653192328265" lon="11.367365848528138"><ele>772.0</ele><time>2026-04-11T14:52:40Z</time></trkpt><trkpt lat="44.156599014460944" lon="11.367460564277069"><ele>772.5</ele><time>2026-04-11T14:52:41Z</time></trkpt><trkpt lat="44.15664030054519" lon="11.367553468217928"><ele>773.0</ele><time>2026-04-11T14:52:42Z</time></trkpt><trkpt lat="44.15669381131871" lon="11.367650062050917"><ele>773.5</ele><time>2026-04-11T14:52:43Z</time></trkpt><trkpt lat="44.156767153070064" lon="11.367734782504831"><ele>774.0</ele><time>2026-04-11T14:52:44Z</time></trkpt><trkpt lat="44.15684876223777" lon="11.367828520631951"><ele>776.6666666666667</ele><time>2026-04-11T14:52:46Z</time></trkpt><trkpt lat="44.157072820166434" lon="11.367683687972647"><ele>779.3333333333334</ele><time>2026-04-11T14:52:50Z</time></trkpt><trkpt lat="44.15714533930069" lon="11.367568144966823"><ele>782.0</ele><time>2026-04-11T14:52:51Z</time></trkpt><trkpt lat="44.15723340956076" lon="11.367486906966958"><ele>782.0000000000001</ele><time>2026-04-11T14:52:52Z</time></trkpt><trkpt lat="44.15730308389021" lon="11.367401164815163"><ele>782.0</ele><time>2026-04-11T14:52:53Z</time></trkpt><trkpt lat="44.15735139697602" lon="11.367316379076259"><ele>782.0</ele><time>2026-04-11T14:52:54Z</time></trkpt><trkpt lat="44.157415804050494" lon="11.36724581191904"><ele>782.0</ele><time>2026-04-11T14:52:55Z</time></trkpt><trkpt lat="44.15747756066239" lon="11.36716731550368"><ele>782.0000000000001</ele><time>2026-04-11T14:52:56Z</time></trkpt><trkpt lat="44.157542237849455" lon="11.367077735385136"><ele>782.0</ele><time>2026-04-11T14:52:57Z</time></trkpt><trkpt lat="44.15763158289836" lon="11.367007408710695"><ele>783.2</ele><time>2026-04-11T14:52:58Z</time></trkpt><trkpt lat="44.15771622501814" lon="11.366906914157708"><ele>784.4000000000001</ele><time>2026-04-11T14:52:59Z</time></trkpt><trkpt lat="44.15780283720776" lon="11.366840463453748"><ele>785.5999999999999</ele><time>2026-04-11T14:53:00Z</time></trkpt><trkpt lat="44.15789427813939" lon="11.366761062291635"><ele>786.8</ele><time>2026-04-11T14:53:01Z</time></trkpt><trkpt lat="44.15798910048284" lon="11.36667332086145"><ele>788.0</ele><time>2026-04-11T14:53:02Z</time></trkpt><trkpt lat="44.15808182997309" lon="11.366582351905912"><ele>788.0</ele><time>2026-04-11T14:53:03Z</time></trkpt><trkpt lat="44.158171691900115" lon="11.366488032082572"><ele>788.0</ele><time>2026-04-11T14:53:04Z</time></trkpt><trkpt lat="44.15827869366157" lon="11.36641388799485"><ele>788.0</ele><time>2026-04-11T14:53:05Z</time></trkpt><trkpt lat="44.158365890978814" lon="11.366312887181305"><ele>788.0</ele><time>2026-04-11T14:53:06Z</time></trkpt><trkpt lat="44.158447352466396" lon="11.366235316982882"><ele>788.0</ele><time>2026-04-11T14:53:07Z</time></trkpt><trkpt lat="44.15852347869436" lon="11.366169773928846"><ele>788.5999999999999</ele><time>2026-04-11T14:53:08Z</time></trkpt><trkpt lat="44.158601544636014" lon="11.366076722778883"><ele>789.1999999999999</ele><time>2026-04-11T14:53:10Z</time></trkpt><trkpt lat="44.158661883942976" lon="11.36604063244088"><ele>789.8</ele><time>2026-04-11T14:53:16Z</time></trkpt><trkpt lat="44.1586583300641" lon="11.366229520334686"><ele>790.4</ele><time>2026-04-11T14:53:19Z</time></trkpt><trkpt lat="44.15868498972874" lon="11.36635633926383"><ele>791.0</ele><time>2026-04-11T14:53:20Z</time></trkpt><trkpt lat="44.15870734424236" lon="11.366464270303577"><ele>792.0</ele><time>2026-04-11T14:53:21Z</time></trkpt><trkpt lat="44.158715610552534" lon="11.36656205353101"><ele>793.0</ele><time>2026-04-11T14:53:22Z</time></trkpt><trkpt lat="44.15871568046014" lon="11.366655312561676"><ele>794.0</ele><time>2026-04-11T14:53:23Z</time></trkpt><trkpt lat="44.15870474997365" lon="11.366750147858479"><ele>795.0</ele><time>2026-04-11T14:53:24Z</time></trkpt><trkpt lat="44.15869381894231" lon="11.366852314130515"><ele>796.0</ele><time>2026-04-11T14:53:25Z</time></trkpt><trkpt lat="44.15867069335354" lon="11.36693926210841"><ele>797.0</ele><time>2026-04-11T14:53:26Z</time></trkpt><trkpt lat="44.15866032075962" lon="11.3670418136143"><ele>798.0</ele><time>2026-04-11T14:53:27Z</time></trkpt><trkpt lat="44.158640922910806" lon="11.36716388971763"><ele>799.3333333333334</ele><time>2026-04-11T14:53:29Z</time></trkpt><trkpt lat="44.15863498345374" lon="11.36726557178764"><ele>800.6666666666667</ele><time>2026-04-11T14:53:31Z</time></trkpt><trkpt lat="44.15863493587269" lon="11.367434528258148"><ele>802.0</ele><time>2026-04-11T14:53:33Z</time></trkpt><trkpt lat="44.158704007387705" lon="11.367507863676373"><ele>803.3333333333334</ele><time>2026-04-11T14:53:36Z</time></trkpt><trkpt lat="44.15879162803673" lon="11.36748690275665"><ele>804.6666666666667</ele><time>2026-04-11T14:53:38Z</time></trkpt><trkpt lat="44.158854272408725" lon="11.367475113220983"><ele>806.0</ele><time>2026-04-11T14:53:39Z</time></trkpt><trkpt lat="44.15892417788149" lon="11.36745771896514"><ele>806.0</ele><time>2026-04-11T14:53:40Z</time></trkpt><trkpt lat="44.158998280183525" lon="11.367442307414379"><ele>806.0</ele><time>2026-04-11T14:53:41Z</time></trkpt><trkpt lat="44.159083126572284" lon="11.367432946450663"><ele>806.0</ele><time>2026-04-11T14:53:42Z</time></trkpt><trkpt lat="44.15915879651463" lon="11.367425707113476"><ele>806.0</ele><time>2026-04-11T14:53:43Z</time></trkpt><trkpt lat="44.15927729587756" lon="11.367453831256604"><ele>806.0</ele><time>2026-04-11T14:53:45Z</time></trkpt><trkpt lat="44.15938617743305" lon="11.367493559726428"><ele>807.1999999999999</ele><time>2026-04-11T14:53:47Z</time></trkpt><trkpt lat="44.159499302128594" lon="11.367530107585273"><ele>808.4</ele><time>2026-04-11T14:53:49Z</time></trkpt><trkpt lat="44.15960261012269" lon="11.367545767025936"><ele>809.6</ele><time>2026-04-11T14:53:51Z</time></trkpt><trkpt lat="44.15967436770349" lon="11.367578243553272"><ele>810.8</ele><time>2026-04-11T14:53:53Z</time></trkpt><trkpt lat="44.159782198988815" lon="11.367589600205346"><ele>812.0</ele><time>2026-04-11T14:53:55Z</time></trkpt><trkpt lat="44.159834632283655" lon="11.367684059427623"><ele>813.8</ele><time>2026-04-11T14:53:57Z</time></trkpt><trkpt lat="44.15987410793607" lon="11.367878995574213"><ele>815.6</ele><time>2026-04-11T14:53:59Z</time></trkpt><trkpt lat="44.159903519131284" lon="11.367986018302012"><ele>817.4</ele><time>2026-04-11T14:54:00Z</time></trkpt><trkpt lat="44.15994737826028" lon="11.368077925875403"><ele>819.1999999999999</ele><time>2026-04-11T14:54:01Z</time></trkpt><trkpt lat="44.15998978218302" lon="11.368169214517822"><ele>821.0</ele><time>2026-04-11T14:54:02Z</time></trkpt><trkpt lat="44.160022688935086" lon="11.368260344629887"><ele>821.0000000000001</ele><time>2026-04-11T14:54:03Z</time></trkpt><trkpt lat="44.160049923236954" lon="11.36833966929577"><ele>821.0</ele><time>2026-04-11T14:54:04Z</time></trkpt><trkpt lat="44.1600942263217" lon="11.368406858180304"><ele>821.0</ele><time>2026-04-11T14:54:05Z</time></trkpt><trkpt lat="44.16017177591121" lon="11.368478618200971"><ele>821.0</ele><time>2026-04-11T14:54:07Z</time></trkpt><trkpt lat="44.16022716538462" lon="11.36854553222424"><ele>821.0000000000001</ele><time>2026-04-11T14:54:09Z</time></trkpt><trkpt lat="44.16022439789147" lon="11.368682583090049"><ele>821.0</ele><time>2026-04-11T14:54:11Z</time></trkpt><trkpt lat="44.160210944445986" lon="11.36877086127707"><ele>820.25</ele><time>2026-04-11T14:54:12Z</time></trkpt><trkpt lat="44.160218920877035" lon="11.368940119579394"><ele>819.5</ele><time>2026-04-11T14:54:13.999Z</time></trkpt><trkpt lat="44.160305890716856" lon="11.369081171699126"><ele>818.75</ele><time>2026-04-11T14:54:15.999Z</time></trkpt><trkpt lat="44.1603894749185" lon="11.3692181786774"><ele>818.0</ele><time>2026-04-11T14:54:17.999Z</time></trkpt><trkpt lat="44.16043012880165" lon="11.369293785664091"><ele>818.0</ele><time>2026-04-11T14:54:19Z</time></trkpt><trkpt lat="44.16047813150868" lon="11.369370943948018"><ele>818.0</ele><time>2026-04-11T14:54:20Z</time></trkpt><trkpt lat="44.16055235125474" lon="11.369446058151137"><ele>818.0</ele><time>2026-04-11T14:54:22Z</time></trkpt><trkpt lat="44.16064133767041" lon="11.369545927922756"><ele>818.0</ele><time>2026-04-11T14:54:24Z</time></trkpt><trkpt lat="44.160684543981375" lon="11.36970545805524"><ele>818.0</ele><time>2026-04-11T14:54:26Z</time></trkpt><trkpt lat="44.16080412734955" lon="11.369808999255234"><ele>820.8333333333334</ele><time>2026-04-11T14:54:28Z</time></trkpt><trkpt lat="44.1609074174157" lon="11.369856601886626"><ele>823.6666666666667</ele><time>2026-04-11T14:54:29Z</time></trkpt><trkpt lat="44.16098493560962" lon="11.369912980982566"><ele>826.5</ele><time>2026-04-11T14:54:31Z</time></trkpt><trkpt lat="44.16104068572533" lon="11.369954231727688"><ele>829.3333333333333</ele><time>2026-04-11T14:54:32Z</time></trkpt><trkpt lat="44.161117063495205" lon="11.370073639518221"><ele>832.1666666666666</ele><time>2026-04-11T14:54:34Z</time></trkpt><trkpt lat="44.16115822159888" lon="11.370146375793947"><ele>835.0</ele><time>2026-04-11T14:54:35Z</time></trkpt><trkpt lat="44.1611921277151" lon="11.370222508430029"><ele>834.9999999999999</ele><time>2026-04-11T14:54:36Z</time></trkpt><trkpt lat="44.16123859612244" lon="11.370381096255707"><ele>835.0</ele><time>2026-04-11T14:54:38Z</time></trkpt><trkpt lat="44.161242657069664" lon="11.370469532782625"><ele>835.0</ele><time>2026-04-11T14:54:39Z</time></trkpt><trkpt lat="44.16125499644862" lon="11.370568103242796"><ele>835.0</ele><time>2026-04-11T14:54:40Z</time></trkpt><trkpt lat="44.161276038154064" lon="11.37065436293805"><ele>834.9999999999999</ele><time>2026-04-11T14:54:41Z</time></trkpt><trkpt lat="44.16129613396269" lon="11.37074616654359"><ele>835.0</ele><time>2026-04-11T14:54:42Z</time></trkpt><trkpt lat="44.16131968766065" lon="11.370842061886234"><ele>834.1666666666666</ele><time>2026-04-11T14:54:43Z</time></trkpt><trkpt lat="44.16133689737735" lon="11.370932709053353"><ele>833.3333333333333</ele><time>2026-04-11T14:54:44Z</time></trkpt><trkpt lat="44.16135013422362" lon="11.371096087682558"><ele>832.5</ele><time>2026-04-11T14:54:46Z</time></trkpt><trkpt lat="44.16137237787984" lon="11.371252756209758"><ele>831.6666666666667</ele><time>2026-04-11T14:54:48Z</time></trkpt><trkpt lat="44.16137125000927" lon="11.371346470593997"><ele>830.8333333333334</ele><time>2026-04-11T14:54:49Z</time></trkpt><trkpt lat="44.1613571902187" lon="11.371436707919834"><ele>830.0</ele><time>2026-04-11T14:54:50Z</time></trkpt><trkpt lat="44.161338340927614" lon="11.371521967184208"><ele>829.5000000000001</ele><time>2026-04-11T14:54:51Z</time></trkpt><trkpt lat="44.161312721404926" lon="11.371664611206624"><ele>829.0</ele><time>2026-04-11T14:54:53Z</time></trkpt><trkpt lat="44.16129081611302" lon="11.371758200323894"><ele>828.5</ele><time>2026-04-11T14:54:54Z</time></trkpt><trkpt lat="44.161267203504075" lon="11.37186573033"><ele>828.0</ele><time>2026-04-11T14:54:55Z</time></trkpt><trkpt lat="44.161241616164915" lon="11.371953093148733"><ele>827.5000000000001</ele><time>2026-04-11T14:54:56Z</time></trkpt><trkpt lat="44.16120934020502" lon="11.37210094708796"><ele>827.0</ele><time>2026-04-11T14:54:58Z</time></trkpt><trkpt lat="44.16117122208635" lon="11.372267812779102"><ele>827.0000000000001</ele><time>2026-04-11T14:55:00Z</time></trkpt><trkpt lat="44.1611540804265" lon="11.372389777160414"><ele>827.0</ele><time>2026-04-11T14:55:01Z</time></trkpt><trkpt lat="44.1611395690788" lon="11.372507352125844"><ele>827.0</ele><time>2026-04-11T14:55:02Z</time></trkpt><trkpt lat="44.161130164076965" lon="11.372625643151345"><ele>827.0</ele><time>2026-04-11T14:55:03Z</time></trkpt><trkpt lat="44.16112716758805" lon="11.3727245231907"><ele>827.0000000000001</ele><time>2026-04-11T14:55:04Z</time></trkpt><trkpt lat="44.161130488883416" lon="11.372827031495463"><ele>827.0</ele><time>2026-04-11T14:55:05Z</time></trkpt><trkpt lat="44.161139046568934" lon="11.3729524193359"><ele>825.6</ele><time>2026-04-11T14:55:06Z</time></trkpt><trkpt lat="44.161156523991906" lon="11.37307565606962"><ele>824.2</ele><time>2026-04-11T14:55:07Z</time></trkpt><trkpt lat="44.1611661675089" lon="11.373203794611532"><ele>822.8</ele><time>2026-04-11T14:55:08Z</time></trkpt><trkpt lat="44.16117853855614" lon="11.373335164467774"><ele>821.4</ele><time>2026-04-11T14:55:09Z</time></trkpt><trkpt lat="44.16118556988164" lon="11.373470803134198"><ele>820.0</ele><time>2026-04-11T14:55:10Z</time></trkpt><trkpt lat="44.16119641446773" lon="11.373608312486926"><ele>820.0</ele><time>2026-04-11T14:55:11Z</time></trkpt><trkpt lat="44.16121622812112" lon="11.37375739228493"><ele>820.0</ele><time>2026-04-11T14:55:12Z</time></trkpt><trkpt lat="44.16122802826159" lon="11.37388483458598"><ele>820.0</ele><time>2026-04-11T14:55:13Z</time></trkpt><trkpt lat="44.161238062174675" lon="11.374054819505611"><ele>820.0</ele><time>2026-04-11T14:55:14Z</time></trkpt><trkpt lat="44.16124589938413" lon="11.374183266264591"><ele>820.0</ele><time>2026-04-11T14:55:15Z</time></trkpt><trkpt lat="44.16122122025683" lon="11.37431580503297"><ele>820.1666666666666</ele><time>2026-04-11T14:55:16Z</time></trkpt><trkpt lat="44.161222190667665" lon="11.374441305771052"><ele>820.3333333333333</ele><time>2026-04-11T14:55:17Z</time></trkpt><trkpt lat="44.16120435196936" lon="11.37454599829926"><ele>820.5</ele><time>2026-04-11T14:55:18Z</time></trkpt><trkpt lat="44.161171111674996" lon="11.374639370143228"><ele>820.6666666666667</ele><time>2026-04-11T14:55:19Z</time></trkpt><trkpt lat="44.1611248963821" lon="11.37475350256381"><ele>820.8333333333334</ele><time>2026-04-11T14:55:21Z</time></trkpt><trkpt lat="44.16108902924256" lon="11.37483023569037"><ele>821.0</ele><time>2026-04-11T14:55:23Z</time></trkpt><trkpt lat="44.16112405566882" lon="11.374931371818194"><ele>821.0000000000001</ele><time>2026-04-11T14:55:26Z</time></trkpt><trkpt lat="44.16119409069036" lon="11.37493864496262"><ele>821.0</ele><time>2026-04-11T14:55:28Z</time></trkpt><trkpt lat="44.161304697456565" lon="11.374892376237899"><ele>821.0</ele><time>2026-04-11T14:55:30Z</time></trkpt><trkpt lat="44.1613678175831" lon="11.374881630999162"><ele>821.0</ele><time>2026-04-11T14:55:31Z</time></trkpt><trkpt lat="44.16146705069817" lon="11.374878900355338"><ele>821.0000000000001</ele><time>2026-04-11T14:55:33Z</time></trkpt><trkpt lat="44.16153125978844" lon="11.374869658767407"><ele>821.0</ele><time>2026-04-11T14:55:34Z</time></trkpt><trkpt lat="44.16159318434062" lon="11.374849448361113"><ele>822.4</ele><time>2026-04-11T14:55:35Z</time></trkpt><trkpt lat="44.161662643135344" lon="11.374804425424182"><ele>823.8</ele><time>2026-04-11T14:55:36Z</time></trkpt><trkpt lat="44.161748674645864" lon="11.374734399737413"><ele>825.1999999999999</ele><time>2026-04-11T14:55:37Z</time></trkpt><trkpt lat="44.161836221688986" lon="11.374661581605656"><ele>826.5999999999999</ele><time>2026-04-11T14:55:38Z</time></trkpt><trkpt lat="44.16192709428994" lon="11.374598382635059"><ele>828.0</ele><time>2026-04-11T14:55:39Z</time></trkpt><trkpt lat="44.16201243007007" lon="11.37455459016571"><ele>828.1666666666666</ele><time>2026-04-11T14:55:40Z</time></trkpt><trkpt lat="44.16208334702174" lon="11.374528480603267"><ele>828.3333333333333</ele><time>2026-04-11T14:55:41Z</time></trkpt><trkpt lat="44.16214828968466" lon="11.37450588951596"><ele>828.5</ele><time>2026-04-11T14:55:42Z</time></trkpt><trkpt lat="44.16220773867861" lon="11.374458646112366"><ele>828.6666666666666</ele><time>2026-04-11T14:55:43Z</time></trkpt><trkpt lat="44.16225784501411" lon="11.374395485129057"><ele>828.8333333333333</ele><time>2026-04-11T14:55:44Z</time></trkpt><trkpt lat="44.16235715020326" lon="11.374252450012767"><ele>829.0</ele><time>2026-04-11T14:55:46Z</time></trkpt><trkpt lat="44.16241090913577" lon="11.374174351197148"><ele>828.9999999999999</ele><time>2026-04-11T14:55:47Z</time></trkpt><trkpt lat="44.16245636861921" lon="11.374090831571948"><ele>829.0</ele><time>2026-04-11T14:55:48Z</time></trkpt><trkpt lat="44.162519011063836" lon="11.374012799163344"><ele>829.0</ele><time>2026-04-11T14:55:49Z</time></trkpt><trkpt lat="44.16258120486278" lon="11.373927668756064"><ele>829.0</ele><time>2026-04-11T14:55:50Z</time></trkpt><trkpt lat="44.162638187828705" lon="11.373850084080976"><ele>828.9999999999999</ele><time>2026-04-11T14:55:51Z</time></trkpt><trkpt lat="44.16269268061103" lon="11.373778498378986"><ele>829.0</ele><time>2026-04-11T14:55:52Z</time></trkpt><trkpt lat="44.162760892078815" lon="11.373692115187483"><ele>831.0</ele><time>2026-04-11T14:55:53Z</time></trkpt><trkpt lat="44.162828584952734" lon="11.373612041225318"><ele>833.0</ele><time>2026-04-11T14:55:54Z</time></trkpt><trkpt lat="44.162891718095175" lon="11.373548032879478"><ele>835.0</ele><time>2026-04-11T14:55:55Z</time></trkpt><trkpt lat="44.16296604983946" lon="11.373465307021812"><ele>837.0</ele><time>2026-04-11T14:55:56Z</time></trkpt><trkpt lat="44.163050149639325" lon="11.37338915906632"><ele>839.0</ele><time>2026-04-11T14:55:57Z</time></trkpt><trkpt lat="44.16313629827" lon="11.373323278157237"><ele>834.8000000000001</ele><time>2026-04-11T14:55:58Z</time></trkpt><trkpt lat="44.16322149634048" lon="11.373258266511485"><ele>830.6</ele><time>2026-04-11T14:55:58.999Z</time></trkpt><trkpt lat="44.16331462455719" lon="11.37318156172019"><ele>826.4</ele><time>2026-04-11T14:55:59.999Z</time></trkpt><trkpt lat="44.16340442384787" lon="11.37310749291413"><ele>822.2</ele><time>2026-04-11T14:56:00.999Z</time></trkpt><trkpt lat="44.16349980696588" lon="11.37306606992589"><ele>818.0</ele><time>2026-04-11T14:56:01.999Z</time></trkpt><trkpt lat="44.16359038933244" lon="11.37302342821512"><ele>817.0</ele><time>2026-04-11T14:56:02.999Z</time></trkpt><trkpt lat="44.163674958750555" lon="11.3729887972327"><ele>816.0</ele><time>2026-04-11T14:56:03.999Z</time></trkpt><trkpt lat="44.1637565511363" lon="11.372940246438318"><ele>815.0</ele><time>2026-04-11T14:56:04.999Z</time></trkpt><trkpt lat="44.16384094452271" lon="11.37291471165861"><ele>814.0</ele><time>2026-04-11T14:56:05.999Z</time></trkpt><trkpt lat="44.163940966193785" lon="11.372896363938978"><ele>813.0</ele><time>2026-04-11T14:56:06.999Z</time></trkpt><trkpt lat="44.16404394005469" lon="11.372917806114707"><ele>813.0</ele><time>2026-04-11T14:56:07.999Z</time></trkpt><trkpt lat="44.16413640956445" lon="11.372909112135295"><ele>813.0</ele><time>2026-04-11T14:56:08.999Z</time></trkpt><trkpt lat="44.16422051946445" lon="11.372912707046346"><ele>813.0</ele><time>2026-04-11T14:56:09.999Z</time></trkpt><trkpt lat="44.16435495086167" lon="11.372873923987187"><ele>813.0</ele><time>2026-04-11T14:56:11.999Z</time></trkpt><trkpt lat="44.164431361223095" lon="11.372825416149134"><ele>813.0</ele><time>2026-04-11T14:56:12.999Z</time></trkpt><trkpt lat="44.1645058201426" lon="11.372743562107555"><ele>813.0</ele><time>2026-04-11T14:56:13.999Z</time></trkpt><trkpt lat="44.164593955571945" lon="11.372662534380517"><ele>813.0</ele><time>2026-04-11T14:56:14.999Z</time></trkpt><trkpt lat="44.164680455698246" lon="11.37258205927717"><ele>813.0</ele><time>2026-04-11T14:56:15.999Z</time></trkpt><trkpt lat="44.164761364876505" lon="11.372520482613345"><ele>813.0</ele><time>2026-04-11T14:56:16.999Z</time></trkpt><trkpt lat="44.164845321633855" lon="11.372467170237273"><ele>813.0</ele><time>2026-04-11T14:56:17.999Z</time></trkpt><trkpt lat="44.16492880385791" lon="11.372424916832927"><ele>811.0</ele><time>2026-04-11T14:56:18.999Z</time></trkpt><trkpt lat="44.165007169977606" lon="11.372393590542975"><ele>809.0</ele><time>2026-04-11T14:56:19.999Z</time></trkpt><trkpt lat="44.165089574197836" lon="11.372369399419686"><ele>807.0</ele><time>2026-04-11T14:56:20.999Z</time></trkpt><trkpt lat="44.16517098178944" lon="11.372363801431048"><ele>805.0</ele><time>2026-04-11T14:56:21.999Z</time></trkpt><trkpt lat="44.165252893721615" lon="11.372379373331789"><ele>803.0</ele><time>2026-04-11T14:56:22.999Z</time></trkpt><trkpt lat="44.165333151815375" lon="11.37241452187184"><ele>801.0</ele><time>2026-04-11T14:56:23.999Z</time></trkpt><trkpt lat="44.16542989757765" lon="11.372432372489868"><ele>801.0</ele><time>2026-04-11T14:56:25Z</time></trkpt><trkpt lat="44.165522452420234" lon="11.372477956167401"><ele>801.0</ele><time>2026-04-11T14:56:26Z</time></trkpt><trkpt lat="44.1656227930988" lon="11.37250017458482"><ele>801.0</ele><time>2026-04-11T14:56:27Z</time></trkpt><trkpt lat="44.165731410227295" lon="11.372521539081902"><ele>801.0</ele><time>2026-04-11T14:56:28Z</time></trkpt><trkpt lat="44.165829968938745" lon="11.372537719100583"><ele>801.0</ele><time>2026-04-11T14:56:29Z</time></trkpt><trkpt lat="44.16593294713256" lon="11.372530492173052"><ele>800.5</ele><time>2026-04-11T14:56:30Z</time></trkpt><trkpt lat="44.16603658637713" lon="11.372514560673597"><ele>800.0</ele><time>2026-04-11T14:56:31Z</time></trkpt><trkpt lat="44.16614389928885" lon="11.372488251452763"><ele>799.5</ele><time>2026-04-11T14:56:32Z</time></trkpt><trkpt lat="44.16626479510118" lon="11.372423121777244"><ele>799.0</ele><time>2026-04-11T14:56:33Z</time></trkpt><trkpt lat="44.166394047940464" lon="11.37237074916207"><ele>799.0</ele><time>2026-04-11T14:56:34Z</time></trkpt><trkpt lat="44.16651945850059" lon="11.372341005228513"><ele>799.0</ele><time>2026-04-11T14:56:35Z</time></trkpt><trkpt lat="44.166636305138674" lon="11.372297802852305"><ele>799.0</ele><time>2026-04-11T14:56:36Z</time></trkpt><trkpt lat="44.16673619827376" lon="11.372251995960479"><ele>799.0</ele><time>2026-04-11T14:56:37Z</time></trkpt><trkpt lat="44.166814285821474" lon="11.372196366488664"><ele>799.0</ele><time>2026-04-11T14:56:38Z</time></trkpt><trkpt lat="44.166892913771896" lon="11.372148080385381"><ele>799.1666666666666</ele><time>2026-04-11T14:56:39Z</time></trkpt><trkpt lat="44.166935041861315" lon="11.37204599373"><ele>799.3333333333333</ele><time>2026-04-11T14:56:40Z</time></trkpt><trkpt lat="44.16697711276366" lon="11.371934930884871"><ele>799.5</ele><time>2026-04-11T14:56:41Z</time></trkpt><trkpt lat="44.16703278366135" lon="11.371840894589297"><ele>799.6666666666667</ele><time>2026-04-11T14:56:42Z</time></trkpt><trkpt lat="44.16707504089322" lon="11.371740962691078"><ele>799.8333333333334</ele><time>2026-04-11T14:56:43Z</time></trkpt><trkpt lat="44.16712649790728" lon="11.371633703153499"><ele>800.0</ele><time>2026-04-11T14:56:44Z</time></trkpt><trkpt lat="44.16717933945003" lon="11.3715256080973"><ele>800.0</ele><time>2026-04-11T14:56:45Z</time></trkpt><trkpt lat="44.16721962782568" lon="11.371406193620382"><ele>800.0</ele><time>2026-04-11T14:56:46Z</time></trkpt><trkpt lat="44.16727670055173" lon="11.371293751458307"><ele>800.0</ele><time>2026-04-11T14:56:47Z</time></trkpt><trkpt lat="44.167325386454536" lon="11.37118710088679"><ele>800.0</ele><time>2026-04-11T14:56:48Z</time></trkpt><trkpt lat="44.167377353297645" lon="11.371087588494598"><ele>800.0</ele><time>2026-04-11T14:56:49Z</time></trkpt><trkpt lat="44.16742953845085" lon="11.37098293241397"><ele>796.6</ele><time>2026-04-11T14:56:50Z</time></trkpt><trkpt lat="44.167473384103815" lon="11.370869619098743"><ele>793.2</ele><time>2026-04-11T14:56:51Z</time></trkpt><trkpt lat="44.16752872933073" lon="11.370758396754862"><ele>789.8</ele><time>2026-04-11T14:56:52Z</time></trkpt><trkpt lat="44.167598082535285" lon="11.370651640915272"><ele>786.4</ele><time>2026-04-11T14:56:53Z</time></trkpt><trkpt lat="44.16767380145936" lon="11.370562565583159"><ele>783.0</ele><time>2026-04-11T14:56:54Z</time></trkpt><trkpt lat="44.16776010045253" lon="11.370487504691907"><ele>783.0</ele><time>2026-04-11T14:56:55Z</time></trkpt><trkpt lat="44.1678430127758" lon="11.370420395909258"><ele>783.0</ele><time>2026-04-11T14:56:56Z</time></trkpt><trkpt lat="44.167917422075504" lon="11.370358270554805"><ele>783.0</ele><time>2026-04-11T14:56:57Z</time></trkpt><trkpt lat="44.16797176741992" lon="11.370269192283459"><ele>783.0</ele><time>2026-04-11T14:56:58Z</time></trkpt><trkpt lat="44.16801232220092" lon="11.370170844545143"><ele>783.0</ele><time>2026-04-11T14:56:59Z</time></trkpt><trkpt lat="44.16803967734102" lon="11.370074952793772"><ele>783.0</ele><time>2026-04-11T14:57:00Z</time></trkpt><trkpt lat="44.168049747156935" lon="11.369968266568385"><ele>783.0</ele><time>2026-04-11T14:57:01Z</time></trkpt><trkpt lat="44.168055939448585" lon="11.36983655117213"><ele>783.0</ele><time>2026-04-11T14:57:02Z</time></trkpt><trkpt lat="44.16807614623615" lon="11.36969905961476"><ele>783.0</ele><time>2026-04-11T14:57:03Z</time></trkpt><trkpt lat="44.16809779914363" lon="11.369571694437337"><ele>783.0</ele><time>2026-04-11T14:57:04Z</time></trkpt><trkpt lat="44.16812001916299" lon="11.369453605486973"><ele>783.0</ele><time>2026-04-11T14:57:05Z</time></trkpt><trkpt lat="44.16813331650318" lon="11.369327052965057"><ele>783.8333333333334</ele><time>2026-04-11T14:57:06Z</time></trkpt><trkpt lat="44.16817066592686" lon="11.369221721946635"><ele>784.6666666666667</ele><time>2026-04-11T14:57:07Z</time></trkpt><trkpt lat="44.16819245654704" lon="11.369130649698537"><ele>785.5</ele><time>2026-04-11T14:57:08Z</time></trkpt><trkpt lat="44.16821368500164" lon="11.36904801484137"><ele>786.3333333333334</ele><time>2026-04-11T14:57:09Z</time></trkpt><trkpt lat="44.168272115272494" lon="11.368979787993723"><ele>787.1666666666667</ele><time>2026-04-11T14:57:10Z</time></trkpt><trkpt lat="44.16834840074501" lon="11.368923348827966"><ele>788.0</ele><time>2026-04-11T14:57:11Z</time></trkpt><trkpt lat="44.168416597617565" lon="11.368894901727137"><ele>785.6666666666667</ele><time>2026-04-11T14:57:12Z</time></trkpt><trkpt lat="44.168494754796924" lon="11.368882290812344"><ele>783.3333333333334</ele><time>2026-04-11T14:57:13Z</time></trkpt><trkpt lat="44.16858207099977" lon="11.368879947339503"><ele>781.0</ele><time>2026-04-11T14:57:14Z</time></trkpt><trkpt lat="44.16867861747576" lon="11.368879207355102"><ele>778.6666666666667</ele><time>2026-04-11T14:57:15Z</time></trkpt><trkpt lat="44.1687709786828" lon="11.368887636560537"><ele>776.3333333333334</ele><time>2026-04-11T14:57:16Z</time></trkpt><trkpt lat="44.168862451090355" lon="11.368895910666428"><ele>774.0</ele><time>2026-04-11T14:57:17Z</time></trkpt><trkpt lat="44.16896711920838" lon="11.36888308993392"><ele>772.0</ele><time>2026-04-11T14:57:18Z</time></trkpt><trkpt lat="44.16908187057759" lon="11.368916175847817"><ele>770.0</ele><time>2026-04-11T14:57:19Z</time></trkpt><trkpt lat="44.169189715363295" lon="11.368927853613352"><ele>768.0</ele><time>2026-04-11T14:57:20Z</time></trkpt><trkpt lat="44.169285389800876" lon="11.368942090120601"><ele>766.0</ele><time>2026-04-11T14:57:21Z</time></trkpt><trkpt lat="44.1693697627604" lon="11.368972394757739"><ele>764.0</ele><time>2026-04-11T14:57:22Z</time></trkpt><trkpt lat="44.16946294173862" lon="11.368996108023024"><ele>764.0</ele><time>2026-04-11T14:57:23Z</time></trkpt><trkpt lat="44.169551075653466" lon="11.369036137510502"><ele>764.0</ele><time>2026-04-11T14:57:24Z</time></trkpt><trkpt lat="44.16962886860754" lon="11.369070820519589"><ele>764.0</ele><time>2026-04-11T14:57:25Z</time></trkpt><trkpt lat="44.169704080232165" lon="11.369132382133957"><ele>764.0</ele><time>2026-04-11T14:57:26Z</time></trkpt><trkpt lat="44.16977970017326" lon="11.36916209906717"><ele>764.0</ele><time>2026-04-11T14:57:27Z</time></trkpt><trkpt lat="44.16986196343773" lon="11.369224445339404"><ele>764.0</ele><time>2026-04-11T14:57:28Z</time></trkpt><trkpt lat="44.16993470232129" lon="11.36928243901787"><ele>763.1666666666666</ele><time>2026-04-11T14:57:29Z</time></trkpt><trkpt lat="44.17002018203912" lon="11.36934395166217"><ele>762.3333333333333</ele><time>2026-04-11T14:57:30Z</time></trkpt><trkpt lat="44.17008923978431" lon="11.369400283436075"><ele>761.5</ele><time>2026-04-11T14:57:31Z</time></trkpt><trkpt lat="44.17017085229923" lon="11.369454843473001"><ele>760.6666666666666</ele><time>2026-04-11T14:57:32Z</time></trkpt><trkpt lat="44.17024096482311" lon="11.36953730330535"><ele>759.8333333333334</ele><time>2026-04-11T14:57:33Z</time></trkpt><trkpt lat="44.17031537300436" lon="11.369599147918864"><ele>759.0</ele><time>2026-04-11T14:57:34Z</time></trkpt><trkpt lat="44.17039261967084" lon="11.369663973256559"><ele>757.2</ele><time>2026-04-11T14:57:35Z</time></trkpt><trkpt lat="44.17047865054366" lon="11.369733593628435"><ele>755.4000000000001</ele><time>2026-04-11T14:57:36Z</time></trkpt><trkpt lat="44.17056085522242" lon="11.369798566827985"><ele>753.6</ele><time>2026-04-11T14:57:37Z</time></trkpt><trkpt lat="44.17064208526122" lon="11.369867124250202"><ele>751.8</ele><time>2026-04-11T14:57:38Z</time></trkpt><trkpt lat="44.17071561671126" lon="11.36994062345476"><ele>750.0</ele><time>2026-04-11T14:57:39Z</time></trkpt><trkpt lat="44.17080451272129" lon="11.370014842682698"><ele>749.0</ele><time>2026-04-11T14:57:40Z</time></trkpt><trkpt lat="44.17089054072307" lon="11.370092172184583"><ele>748.0</ele><time>2026-04-11T14:57:41Z</time></trkpt><trkpt lat="44.17096406341998" lon="11.370169825774893"><ele>747.0</ele><time>2026-04-11T14:57:42Z</time></trkpt><trkpt lat="44.1710477536783" lon="11.370237612807484"><ele>746.0</ele><time>2026-04-11T14:57:43Z</time></trkpt><trkpt lat="44.17113581445473" lon="11.370321918313445"><ele>745.0</ele><time>2026-04-11T14:57:44Z</time></trkpt><trkpt lat="44.17121110320323" lon="11.370423099754186"><ele>745.0</ele><time>2026-04-11T14:57:45Z</time></trkpt><trkpt lat="44.17129162572861" lon="11.370520315938041"><ele>745.0</ele><time>2026-04-11T14:57:46Z</time></trkpt><trkpt lat="44.171370539022604" lon="11.37059046351204"><ele>745.0</ele><time>2026-04-11T14:57:47Z</time></trkpt><trkpt lat="44.17143949246517" lon="11.370676789606406"><ele>745.0</ele><time>2026-04-11T14:57:48Z</time></trkpt><trkpt lat="44.17149614361824" lon="11.370755720144373"><ele>745.0</ele><time>2026-04-11T14:57:49Z</time></trkpt><trkpt lat="44.17153726721705" lon="11.370823160481153"><ele>745.0</ele><time>2026-04-11T14:57:50Z</time></trkpt><trkpt lat="44.17158571327189" lon="11.370894241445514"><ele>743.1666666666667</ele><time>2026-04-11T14:57:51Z</time></trkpt><trkpt lat="44.17162887434739" lon="11.370974400565865"><ele>741.3333333333334</ele><time>2026-04-11T14:57:52Z</time></trkpt><trkpt lat="44.171660662530776" lon="11.37106903895074"><ele>739.5</ele><time>2026-04-11T14:57:53Z</time></trkpt><trkpt lat="44.17169199558668" lon="11.371199619761727"><ele>737.6666666666666</ele><time>2026-04-11T14:57:54Z</time></trkpt><trkpt lat="44.171730266159216" lon="11.371338594511156"><ele>735.8333333333333</ele><time>2026-04-11T14:57:55Z</time></trkpt><trkpt lat="44.17176958534941" lon="11.37145528470652"><ele>734.0</ele><time>2026-04-11T14:57:56Z</time></trkpt><trkpt lat="44.17180638996474" lon="11.371546689367081"><ele>731.6666666666666</ele><time>2026-04-11T14:57:57Z</time></trkpt><trkpt lat="44.17186206717745" lon="11.371625530194843"><ele>729.3333333333333</ele><time>2026-04-11T14:57:57.999Z</time></trkpt><trkpt lat="44.171929619594806" lon="11.371669275960624"><ele>727.0</ele><time>2026-04-11T14:57:58.999Z</time></trkpt><trkpt lat="44.17201714005082" lon="11.37172944044174"><ele>724.6666666666666</ele><time>2026-04-11T14:57:59.999Z</time></trkpt><trkpt lat="44.17209564134752" lon="11.371785162165962"><ele>722.3333333333334</ele><time>2026-04-11T14:58:00.999Z</time></trkpt><trkpt lat="44.17217533088276" lon="11.371837726266774"><ele>720.0</ele><time>2026-04-11T14:58:01.999Z</time></trkpt><trkpt lat="44.172256474650226" lon="11.371890863883788"><ele>720.0</ele><time>2026-04-11T14:58:02.999Z</time></trkpt><trkpt lat="44.17233549768149" lon="11.371973453541239"><ele>720.0</ele><time>2026-04-11T14:58:03.999Z</time></trkpt><trkpt lat="44.172396911718224" lon="11.372070161008716"><ele>720.0</ele><time>2026-04-11T14:58:04.999Z</time></trkpt><trkpt lat="44.17244827406487" lon="11.372193011026113"><ele>720.0</ele><time>2026-04-11T14:58:05.999Z</time></trkpt><trkpt lat="44.172521097420216" lon="11.37231557985401"><ele>720.0</ele><time>2026-04-11T14:58:06.999Z</time></trkpt><trkpt lat="44.172568025665726" lon="11.372428352534572"><ele>718.0</ele><time>2026-04-11T14:58:07.999Z</time></trkpt><trkpt lat="44.1726399602054" lon="11.372515330495434"><ele>716.0</ele><time>2026-04-11T14:58:08.999Z</time></trkpt><trkpt lat="44.172701773608246" lon="11.372607792874705"><ele>714.0</ele><time>2026-04-11T14:58:09.999Z</time></trkpt><trkpt lat="44.17276551498628" lon="11.372679614679972"><ele>712.0</ele><time>2026-04-11T14:58:10.999Z</time></trkpt><trkpt lat="44.17283696073451" lon="11.372737586375887"><ele>710.0</ele><time>2026-04-11T14:58:11.999Z</time></trkpt><trkpt lat="44.172883976817765" lon="11.372807806689009"><ele>708.0</ele><time>2026-04-11T14:58:12.999Z</time></trkpt><trkpt lat="44.17294602640488" lon="11.372878488462193"><ele>708.0</ele><time>2026-04-11T14:58:13.999Z</time></trkpt><trkpt lat="44.17300171358606" lon="11.372953047338298"><ele>708.0</ele><time>2026-04-11T14:58:14.999Z</time></trkpt><trkpt lat="44.17304197051386" lon="11.37303457998168"><ele>708.0</ele><time>2026-04-11T14:58:15.999Z</time></trkpt><trkpt lat="44.173065215952086" lon="11.37313141095049"><ele>708.0</ele><time>2026-04-11T14:58:16.999Z</time></trkpt><trkpt lat="44.173071151334064" lon="11.373230893186214"><ele>708.0</ele><time>2026-04-11T14:58:17.999Z</time></trkpt><trkpt lat="44.17302083289578" lon="11.373374402226439"><ele>708.0</ele><time>2026-04-11T14:58:19.999Z</time></trkpt><trkpt lat="44.17295496542743" lon="11.373419405267516"><ele>706.4</ele><time>2026-04-11T14:58:20.999Z</time></trkpt><trkpt lat="44.172868391963966" lon="11.373475400522436"><ele>704.8</ele><time>2026-04-11T14:58:21.999Z</time></trkpt><trkpt lat="44.17276664840366" lon="11.373580721325743"><ele>703.2</ele><time>2026-04-11T14:58:22.999Z</time></trkpt><trkpt lat="44.17266217374244" lon="11.373663463194774"><ele>701.6</ele><time>2026-04-11T14:58:23.999Z</time></trkpt><trkpt lat="44.172573809598184" lon="11.373731543197385"><ele>700.0</ele><time>2026-04-11T14:58:24.999Z</time></trkpt><trkpt lat="44.172499545506064" lon="11.37381002452678"><ele>699.5</ele><time>2026-04-11T14:58:25.999Z</time></trkpt><trkpt lat="44.17243695003499" lon="11.373891922827646"><ele>699.0</ele><time>2026-04-11T14:58:26.999Z</time></trkpt><trkpt lat="44.17238321631719" lon="11.373977380585638"><ele>698.5</ele><time>2026-04-11T14:58:27.999Z</time></trkpt><trkpt lat="44.172332195629075" lon="11.374052095103151"><ele>698.0</ele><time>2026-04-11T14:58:28.999Z</time></trkpt><trkpt lat="44.17227594294425" lon="11.37413106091985"><ele>697.5</ele><time>2026-04-11T14:58:29.999Z</time></trkpt><trkpt lat="44.17222151527428" lon="11.374207096813299"><ele>697.0</ele><time>2026-04-11T14:58:31Z</time></trkpt><trkpt lat="44.1721700405235" lon="11.374276917294647"><ele>697.0</ele><time>2026-04-11T14:58:32Z</time></trkpt><trkpt lat="44.17210220167295" lon="11.374342127440412"><ele>697.0</ele><time>2026-04-11T14:58:33Z</time></trkpt><trkpt lat="44.172026432267806" lon="11.374407818252994"><ele>697.0</ele><time>2026-04-11T14:58:34Z</time></trkpt><trkpt lat="44.17194708739249" lon="11.374485850349291"><ele>697.0</ele><time>2026-04-11T14:58:35Z</time></trkpt><trkpt lat="44.17187299622601" lon="11.374550726994428"><ele>697.0</ele><time>2026-04-11T14:58:36Z</time></trkpt><trkpt lat="44.171817607527935" lon="11.374623348840998"><ele>697.0</ele><time>2026-04-11T14:58:37Z</time></trkpt><trkpt lat="44.1717788758704" lon="11.374707262518347"><ele>695.4000000000001</ele><time>2026-04-11T14:58:38Z</time></trkpt><trkpt lat="44.17175387687724" lon="11.374821594252571"><ele>693.8000000000001</ele><time>2026-04-11T14:58:39Z</time></trkpt><trkpt lat="44.17174328549346" lon="11.374957205864048"><ele>692.2</ele><time>2026-04-11T14:58:40Z</time></trkpt><trkpt lat="44.1717280469338" lon="11.375121093510844"><ele>690.6</ele><time>2026-04-11T14:58:41Z</time></trkpt><trkpt lat="44.17171099081566" lon="11.37527487994"><ele>689.0</ele><time>2026-04-11T14:58:42Z</time></trkpt><trkpt lat="44.1716812760323" lon="11.375399352504523"><ele>688.0</ele><time>2026-04-11T14:58:43Z</time></trkpt><trkpt lat="44.1716707389549" lon="11.375537755249008"><ele>687.0</ele><time>2026-04-11T14:58:44Z</time></trkpt><trkpt lat="44.1716539532056" lon="11.37569373818288"><ele>686.0</ele><time>2026-04-11T14:58:45Z</time></trkpt><trkpt lat="44.17163515271266" lon="11.37583688064271"><ele>685.0</ele><time>2026-04-11T14:58:46Z</time></trkpt><trkpt lat="44.1716046956895" lon="11.375979686025335"><ele>684.0</ele><time>2026-04-11T14:58:47Z</time></trkpt><trkpt lat="44.17156549769228" lon="11.376119298240846"><ele>684.0</ele><time>2026-04-11T14:58:48Z</time></trkpt><trkpt lat="44.171547464530164" lon="11.376248774524015"><ele>684.0</ele><time>2026-04-11T14:58:49Z</time></trkpt><trkpt lat="44.1715175771863" lon="11.376382986622607"><ele>684.0</ele><time>2026-04-11T14:58:50Z</time></trkpt><trkpt lat="44.171476882579455" lon="11.376536019969727"><ele>684.0</ele><time>2026-04-11T14:58:51Z</time></trkpt><trkpt lat="44.17143613877992" lon="11.376680185500653"><ele>684.0</ele><time>2026-04-11T14:58:52Z</time></trkpt><trkpt lat="44.1714011358652" lon="11.376801404048257"><ele>683.8333333333334</ele><time>2026-04-11T14:58:53Z</time></trkpt><trkpt lat="44.17136554497695" lon="11.376913512023235"><ele>683.6666666666666</ele><time>2026-04-11T14:58:54Z</time></trkpt><trkpt lat="44.171337250728854" lon="11.377021632794296"><ele>683.5</ele><time>2026-04-11T14:58:55Z</time></trkpt><trkpt lat="44.1713025517219" lon="11.377143962083291"><ele>683.3333333333333</ele><time>2026-04-11T14:58:56Z</time></trkpt><trkpt lat="44.1712714491188" lon="11.37725857952669"><ele>683.1666666666666</ele><time>2026-04-11T14:58:57Z</time></trkpt><trkpt lat="44.171251162121955" lon="11.377351274080969"><ele>683.0</ele><time>2026-04-11T14:58:58Z</time></trkpt><trkpt lat="44.17122614247376" lon="11.377454046631973"><ele>683.0</ele><time>2026-04-11T14:58:59Z</time></trkpt><trkpt lat="44.171187859957264" lon="11.37758496821484"><ele>683.0</ele><time>2026-04-11T14:59:00Z</time></trkpt><trkpt lat="44.17115649947324" lon="11.377700180582258"><ele>683.0</ele><time>2026-04-11T14:59:01Z</time></trkpt><trkpt lat="44.17112679894668" lon="11.377793564017203"><ele>683.0</ele><time>2026-04-11T14:59:02Z</time></trkpt><trkpt lat="44.17110276626849" lon="11.37789558755191"><ele>683.0</ele><time>2026-04-11T14:59:03Z</time></trkpt><trkpt lat="44.17107136822812" lon="11.377997854002894"><ele>683.0</ele><time>2026-04-11T14:59:04Z</time></trkpt><trkpt lat="44.171003513076045" lon="11.378045253283032"><ele>682.3333333333333</ele><time>2026-04-11T14:59:05Z</time></trkpt><trkpt lat="44.170951731320706" lon="11.378114238789507"><ele>681.6666666666666</ele><time>2026-04-11T14:59:06Z</time></trkpt><trkpt lat="44.17086925055369" lon="11.37816403952784"><ele>681.0</ele><time>2026-04-11T14:59:07Z</time></trkpt><trkpt lat="44.17078145135389" lon="11.378215765821624"><ele>680.3333333333334</ele><time>2026-04-11T14:59:08Z</time></trkpt><trkpt lat="44.17070990976139" lon="11.378270380655739"><ele>679.6666666666667</ele><time>2026-04-11T14:59:09Z</time></trkpt><trkpt lat="44.17065631427652" lon="11.378329417165444"><ele>679.0</ele><time>2026-04-11T14:59:10Z</time></trkpt><trkpt lat="44.17057858978539" lon="11.378356161447492"><ele>679.0</ele><time>2026-04-11T14:59:11Z</time></trkpt><trkpt lat="44.17049329099429" lon="11.378438012782198"><ele>679.0</ele><time>2026-04-11T14:59:12Z</time></trkpt><trkpt lat="44.17041181160367" lon="11.37851352379004"><ele>679.0</ele><time>2026-04-11T14:59:13Z</time></trkpt><trkpt lat="44.17035059607077" lon="11.378598771709525"><ele>679.0</ele><time>2026-04-11T14:59:14Z</time></trkpt><trkpt lat="44.170283296967646" lon="11.378702693896326"><ele>679.0</ele><time>2026-04-11T14:59:15Z</time></trkpt><trkpt lat="44.17021622191689" lon="11.37880158012052"><ele>679.6</ele><time>2026-04-11T14:59:16Z</time></trkpt><trkpt lat="44.17012951859676" lon="11.3788627760256"><ele>680.2</ele><time>2026-04-11T14:59:17Z</time></trkpt><trkpt lat="44.1700488568326" lon="11.37895344119791"><ele>680.8000000000001</ele><time>2026-04-11T14:59:18Z</time></trkpt><trkpt lat="44.1699632253852" lon="11.379065536941093"><ele>681.4000000000001</ele><time>2026-04-11T14:59:19Z</time></trkpt><trkpt lat="44.16987310117195" lon="11.379168047327589"><ele>682.0</ele><time>2026-04-11T14:59:20Z</time></trkpt><trkpt lat="44.169795896124654" lon="11.379268983615228"><ele>682.0</ele><time>2026-04-11T14:59:21Z</time></trkpt><trkpt lat="44.169723899603056" lon="11.37937186668395"><ele>682.0</ele><time>2026-04-11T14:59:22Z</time></trkpt><trkpt lat="44.169643833921775" lon="11.379468395770276"><ele>682.0</ele><time>2026-04-11T14:59:23Z</time></trkpt><trkpt lat="44.169561877914674" lon="11.379533928542115"><ele>682.0</ele><time>2026-04-11T14:59:24Z</time></trkpt><trkpt lat="44.16949520577308" lon="11.379593550624724"><ele>682.0</ele><time>2026-04-11T14:59:25Z</time></trkpt><trkpt lat="44.16944869414565" lon="11.37970245746813"><ele>680.6666666666667</ele><time>2026-04-11T14:59:27Z</time></trkpt><trkpt lat="44.16946177833074" lon="11.37984465166427"><ele>679.3333333333334</ele><time>2026-04-11T14:59:29Z</time></trkpt><trkpt lat="44.16944951190609" lon="11.379931562995552"><ele>678.0</ele><time>2026-04-11T14:59:30Z</time></trkpt><trkpt lat="44.16947754870985" lon="11.380040415497131"><ele>676.6666666666666</ele><time>2026-04-11T14:59:32Z</time></trkpt><trkpt lat="44.169469762943756" lon="11.380154905234098"><ele>675.3333333333333</ele><time>2026-04-11T14:59:34Z</time></trkpt><trkpt lat="44.16942778630889" lon="11.380250564376865"><ele>674.0</ele><time>2026-04-11T14:59:36Z</time></trkpt><trkpt lat="44.169344973774656" lon="11.380333239065981"><ele>674.0</ele><time>2026-04-11T14:59:38Z</time></trkpt><trkpt lat="44.16929306060882" lon="11.380388573633525"><ele>674.0</ele><time>2026-04-11T14:59:39Z</time></trkpt><trkpt lat="44.16919745420598" lon="11.380438504776812"><ele>674.0</ele><time>2026-04-11T14:59:41Z</time></trkpt><trkpt lat="44.169102969334396" lon="11.38047945482929"><ele>674.0</ele><time>2026-04-11T14:59:43Z</time></trkpt><trkpt lat="44.16901820927176" lon="11.380501929205927"><ele>674.0</ele><time>2026-04-11T14:59:45Z</time></trkpt><trkpt lat="44.168917888182875" lon="11.380483461139075"><ele>673.0</ele><time>2026-04-11T14:59:49Z</time></trkpt><trkpt lat="44.16886039738031" lon="11.380536909269622"><ele>672.0</ele><time>2026-04-11T14:59:50Z</time></trkpt><trkpt lat="44.16888916010791" lon="11.38066685217173"><ele>671.0</ele><time>2026-04-11T14:59:51Z</time></trkpt><trkpt lat="44.16897140747852" lon="11.38080464196159"><ele>670.0</ele><time>2026-04-11T14:59:53Z</time></trkpt><trkpt lat="44.169030191208485" lon="11.380882893705145"><ele>669.0</ele><time>2026-04-11T14:59:54Z</time></trkpt><trkpt lat="44.169115001474665" lon="11.380985727332154"><ele>667.8000000000001</ele><time>2026-04-11T14:59:56Z</time></trkpt><trkpt lat="44.169172399122644" lon="11.381065613026522"><ele>666.6</ele><time>2026-04-11T14:59:58Z</time></trkpt><trkpt lat="44.169233573699145" lon="11.381142400471585"><ele>665.4</ele><time>2026-04-11T14:59:59.999Z</time></trkpt><trkpt lat="44.169320534224966" lon="11.381237496633618"><ele>664.2</ele><time>2026-04-11T15:00:01.999Z</time></trkpt><trkpt lat="44.16938228345999" lon="11.381388692480126"><ele>663.0</ele><time>2026-04-11T15:00:03.999Z</time></trkpt><trkpt lat="44.16942130806482" lon="11.381487319744165"><ele>660.4</ele><time>2026-04-11T15:00:04.999Z</time></trkpt><trkpt lat="44.16948730977581" lon="11.38163292322082"><ele>657.8</ele><time>2026-04-11T15:00:06.999Z</time></trkpt><trkpt lat="44.1695566164756" lon="11.381754073971349"><ele>655.2</ele><time>2026-04-11T15:00:08.999Z</time></trkpt><trkpt lat="44.16962708067014" lon="11.381864088896075"><ele>652.6</ele><time>2026-04-11T15:00:10.999Z</time></trkpt><trkpt lat="44.16970318107088" lon="11.381950910071458"><ele>650.0</ele><time>2026-04-11T15:00:12.999Z</time></trkpt><trkpt lat="44.16975634897093" lon="11.382044860629907"><ele>650.0</ele><time>2026-04-11T15:00:14.999Z</time></trkpt><trkpt lat="44.16982039697551" lon="11.382128107588201"><ele>650.0</ele><time>2026-04-11T15:00:16.999Z</time></trkpt><trkpt lat="44.16989907322315" lon="11.382227200101106"><ele>650.0</ele><time>2026-04-11T15:00:18.999Z</time></trkpt><trkpt lat="44.169999638700176" lon="11.38234414104418"><ele>650.0</ele><time>2026-04-11T15:00:20.999Z</time></trkpt><trkpt lat="44.17009300339743" lon="11.382504275850659"><ele>646.8333333333333</ele><time>2026-04-11T15:00:22.999Z</time></trkpt><trkpt lat="44.17014937958667" lon="11.38255006720681"><ele>643.6666666666666</ele><time>2026-04-11T15:00:23.999Z</time></trkpt><trkpt lat="44.17022695577761" lon="11.382650434959338"><ele>640.5</ele><time>2026-04-11T15:00:25.999Z</time></trkpt><trkpt lat="44.170293163175785" lon="11.382674316373944"><ele>637.3333333333334</ele><time>2026-04-11T15:00:26.999Z</time></trkpt><trkpt lat="44.170345637276135" lon="11.382753431438509"><ele>634.1666666666667</ele><time>2026-04-11T15:00:27.999Z</time></trkpt><trkpt lat="44.17039057016645" lon="11.382851179291166"><ele>631.0</ele><time>2026-04-11T15:00:28.999Z</time></trkpt><trkpt lat="44.17043568070417" lon="11.382960475972354"><ele>629.6666666666667</ele><time>2026-04-11T15:00:29.999Z</time></trkpt><trkpt lat="44.1704755612301" lon="11.383072994836837"><ele>628.3333333333334</ele><time>2026-04-11T15:00:30.999Z</time></trkpt><trkpt lat="44.1705101409311" lon="11.38317555063409"><ele>627.0</ele><time>2026-04-11T15:00:31.999Z</time></trkpt><trkpt lat="44.17054007834545" lon="11.383264338969452"><ele>625.6666666666666</ele><time>2026-04-11T15:00:32.999Z</time></trkpt><trkpt lat="44.17060116477485" lon="11.383443236478609"><ele>624.3333333333333</ele><time>2026-04-11T15:00:34.999Z</time></trkpt><trkpt lat="44.17062802432378" lon="11.383523249382794"><ele>623.0</ele><time>2026-04-11T15:00:35.999Z</time></trkpt><trkpt lat="44.17065626475001" lon="11.383618346076506"><ele>623.0</ele><time>2026-04-11T15:00:37Z</time></trkpt><trkpt lat="44.17068167784012" lon="11.383717844479703"><ele>623.0</ele><time>2026-04-11T15:00:38Z</time></trkpt><trkpt lat="44.17067305655132" lon="11.383834299641183"><ele>623.0</ele><time>2026-04-11T15:00:39Z</time></trkpt><trkpt lat="44.17073002751272" lon="11.383993391782631"><ele>623.0</ele><time>2026-04-11T15:00:41Z</time></trkpt><trkpt lat="44.170802694250135" lon="11.384130676075731"><ele>623.0</ele><time>2026-04-11T15:00:43Z</time></trkpt><trkpt lat="44.170853105497066" lon="11.384215845105011"><ele>622.6666666666666</ele><time>2026-04-11T15:00:44Z</time></trkpt><trkpt lat="44.170890061082126" lon="11.384288028965996"><ele>622.3333333333333</ele><time>2026-04-11T15:00:45Z</time></trkpt><trkpt lat="44.170951138013585" lon="11.384418278795268"><ele>622.0</ele><time>2026-04-11T15:00:47Z</time></trkpt><trkpt lat="44.170953260256866" lon="11.38451886279548"><ele>621.6666666666666</ele><time>2026-04-11T15:00:50Z</time></trkpt><trkpt lat="44.17089511656817" lon="11.384583471170252"><ele>621.3333333333334</ele><time>2026-04-11T15:00:52Z</time></trkpt><trkpt lat="44.170834717298604" lon="11.38469852336633"><ele>621.0</ele><time>2026-04-11T15:00:54Z</time></trkpt><trkpt lat="44.17078116569658" lon="11.384793340838643"><ele>620.5</ele><time>2026-04-11T15:00:56Z</time></trkpt><trkpt lat="44.17070897836162" lon="11.384849242079913"><ele>620.0</ele><time>2026-04-11T15:00:58Z</time></trkpt><trkpt lat="44.17063621554924" lon="11.384906240042051"><ele>619.5</ele><time>2026-04-11T15:01:00Z</time></trkpt><trkpt lat="44.17056236342331" lon="11.3849430530525"><ele>619.0</ele><time>2026-04-11T15:01:02Z</time></trkpt><trkpt lat="44.170503144268096" lon="11.385010979143894"><ele>618.5</ele><time>2026-04-11T15:01:04Z</time></trkpt><trkpt lat="44.1704246801093" lon="11.385084599511087"><ele>618.0</ele><time>2026-04-11T15:01:06Z</time></trkpt><trkpt lat="44.17037245973569" lon="11.385164549603152"><ele>616.0</ele><time>2026-04-11T15:01:08Z</time></trkpt><trkpt lat="44.170301376088425" lon="11.38525064208345"><ele>614.0</ele><time>2026-04-11T15:01:10Z</time></trkpt><trkpt lat="44.170234790543766" lon="11.385321472462659"><ele>612.0</ele><time>2026-04-11T15:01:12Z</time></trkpt><trkpt lat="44.17018624871963" lon="11.385389996410975"><ele>610.0</ele><time>2026-04-11T15:01:14Z</time></trkpt><trkpt lat="44.17013421526499" lon="11.385480409033297"><ele>608.0</ele><time>2026-04-11T15:01:17Z</time></trkpt><trkpt lat="44.17009315982528" lon="11.385572123141053"><ele>606.0</ele><time>2026-04-11T15:01:19Z</time></trkpt><trkpt lat="44.170032287030565" lon="11.385638059636749"><ele>604.8571428571429</ele><time>2026-04-11T15:01:21Z</time></trkpt><trkpt lat="44.16998566927925" lon="11.38570438949672"><ele>603.7142857142857</ele><time>2026-04-11T15:01:23Z</time></trkpt><trkpt lat="44.16994378578371" lon="11.385784819043632"><ele>602.5714285714286</ele><time>2026-04-11T15:01:26Z</time></trkpt><trkpt lat="44.169926130272465" lon="11.385869783301873"><ele>601.4285714285714</ele><time>2026-04-11T15:01:28Z</time></trkpt><trkpt lat="44.16991778288982" lon="11.38596796048911"><ele>600.2857142857143</ele><time>2026-04-11T15:01:29Z</time></trkpt><trkpt lat="44.16997726608579" lon="11.386064353532923"><ele>599.1428571428571</ele><time>2026-04-11T15:01:31Z</time></trkpt><trkpt lat="44.17003627549311" lon="11.386147016912988"><ele>598.0</ele><time>2026-04-11T15:01:33Z</time></trkpt><trkpt lat="44.170061597077456" lon="11.386231878631582"><ele>596.1666666666667</ele><time>2026-04-11T15:01:35Z</time></trkpt><trkpt lat="44.1700933523024" lon="11.386348580839817"><ele>594.3333333333334</ele><time>2026-04-11T15:01:37Z</time></trkpt><trkpt lat="44.17012104791109" lon="11.386444486623606"><ele>592.5</ele><time>2026-04-11T15:01:38Z</time></trkpt><trkpt lat="44.17015331796455" lon="11.38658743814359"><ele>590.6666666666666</ele><time>2026-04-11T15:01:40Z</time></trkpt><trkpt lat="44.170180808154896" lon="11.386685781857759"><ele>588.8333333333333</ele><time>2026-04-11T15:01:42Z</time></trkpt><trkpt lat="44.170244227648325" lon="11.386794988579199"><ele>587.0</ele><time>2026-04-11T15:01:44Z</time></trkpt><trkpt lat="44.17031978693316" lon="11.386888852064976"><ele>587.0</ele><time>2026-04-11T15:01:46Z</time></trkpt><trkpt lat="44.17037252767852" lon="11.38698047614554"><ele>587.0</ele><time>2026-04-11T15:01:47.999Z</time></trkpt><trkpt lat="44.17041144827767" lon="11.387059540304696"><ele>587.0</ele><time>2026-04-11T15:01:48.999Z</time></trkpt><trkpt lat="44.17045245279735" lon="11.387189181471049"><ele>587.0</ele><time>2026-04-11T15:01:50.999Z</time></trkpt><trkpt lat="44.17049802873729" lon="11.387307213855062"><ele>587.0</ele><time>2026-04-11T15:01:52.999Z</time></trkpt><trkpt lat="44.17055829179583" lon="11.38740692271353"><ele>587.0</ele><time>2026-04-11T15:01:54.999Z</time></trkpt><trkpt lat="44.17063117234014" lon="11.387495872040724"><ele>584.8333333333333</ele><time>2026-04-11T15:01:56.999Z</time></trkpt><trkpt lat="44.170681918257806" lon="11.38755851668549"><ele>582.6666666666666</ele><time>2026-04-11T15:01:57.999Z</time></trkpt><trkpt lat="44.17074777784632" lon="11.387621002520282"><ele>580.5</ele><time>2026-04-11T15:01:58.999Z</time></trkpt><trkpt lat="44.17080396952049" lon="11.387672742260456"><ele>578.3333333333334</ele><time>2026-04-11T15:01:59.999Z</time></trkpt><trkpt lat="44.170862680936075" lon="11.387731899187937"><ele>576.1666666666667</ele><time>2026-04-11T15:02:00.999Z</time></trkpt><trkpt lat="44.17089558872097" lon="11.387812785835424"><ele>574.0</ele><time>2026-04-11T15:02:01.999Z</time></trkpt><trkpt lat="44.17095960262608" lon="11.387927091956344"><ele>574.0</ele><time>2026-04-11T15:02:03.999Z</time></trkpt><trkpt lat="44.171002814359454" lon="11.388000459338127"><ele>574.0</ele><time>2026-04-11T15:02:04.999Z</time></trkpt><trkpt lat="44.17106223100193" lon="11.388060572231916"><ele>574.0</ele><time>2026-04-11T15:02:05.999Z</time></trkpt><trkpt lat="44.171104483628895" lon="11.388127370525568"><ele>574.0</ele><time>2026-04-11T15:02:06.999Z</time></trkpt><trkpt lat="44.17113530507601" lon="11.388204980415383"><ele>574.0</ele><time>2026-04-11T15:02:07.999Z</time></trkpt><trkpt lat="44.17118032885285" lon="11.388271900247043"><ele>574.0</ele><time>2026-04-11T15:02:08.999Z</time></trkpt><trkpt lat="44.1712316537209" lon="11.388348185624162"><ele>574.0</ele><time>2026-04-11T15:02:09.999Z</time></trkpt><trkpt lat="44.17127752690686" lon="11.388421148937466"><ele>570.6666666666667</ele><time>2026-04-11T15:02:10.999Z</time></trkpt><trkpt lat="44.1713190440986" lon="11.388494580237369"><ele>567.3333333333334</ele><time>2026-04-11T15:02:11.999Z</time></trkpt><trkpt lat="44.1713661228025" lon="11.388586962541032"><ele>564.0</ele><time>2026-04-11T15:02:12.999Z</time></trkpt><trkpt lat="44.17140667848431" lon="11.388670483028328"><ele>560.6666666666666</ele><time>2026-04-11T15:02:13.999Z</time></trkpt><trkpt lat="44.17144327003724" lon="11.38874697926897"><ele>557.3333333333333</ele><time>2026-04-11T15:02:14.999Z</time></trkpt><trkpt lat="44.171509248314635" lon="11.388888534072217"><ele>554.0</ele><time>2026-04-11T15:02:16.999Z</time></trkpt><trkpt lat="44.171579435482464" lon="11.389018716290282"><ele>551.8571428571429</ele><time>2026-04-11T15:02:18.999Z</time></trkpt><trkpt lat="44.17161733487057" lon="11.389095015891735"><ele>549.7142857142857</ele><time>2026-04-11T15:02:19.999Z</time></trkpt><trkpt lat="44.17165895323564" lon="11.38916182059041"><ele>547.5714285714286</ele><time>2026-04-11T15:02:20.999Z</time></trkpt><trkpt lat="44.17170675480351" lon="11.389219620319656"><ele>545.4285714285714</ele><time>2026-04-11T15:02:21.999Z</time></trkpt><trkpt lat="44.17176155286217" lon="11.389265227640324"><ele>543.2857142857142</ele><time>2026-04-11T15:02:22.999Z</time></trkpt><trkpt lat="44.171818158098965" lon="11.389303674481694"><ele>541.1428571428571</ele><time>2026-04-11T15:02:23.999Z</time></trkpt><trkpt lat="44.17193586245643" lon="11.389323721262262"><ele>539.0</ele><time>2026-04-11T15:02:25.999Z</time></trkpt><trkpt lat="44.17205807910127" lon="11.389260329167213"><ele>539.0</ele><time>2026-04-11T15:02:27.999Z</time></trkpt><trkpt lat="44.172139287501395" lon="11.389203419443271"><ele>539.0</ele><time>2026-04-11T15:02:28.999Z</time></trkpt><trkpt lat="44.17222452163173" lon="11.389131392520556"><ele>539.0</ele><time>2026-04-11T15:02:29.999Z</time></trkpt><trkpt lat="44.172301545919275" lon="11.389065123444617"><ele>539.0</ele><time>2026-04-11T15:02:30.999Z</time></trkpt><trkpt lat="44.17236088650489" lon="11.389003704718625"><ele>539.0</ele><time>2026-04-11T15:02:31.999Z</time></trkpt><trkpt lat="44.17240692432305" lon="11.388940693663258"><ele>539.0</ele><time>2026-04-11T15:02:32.999Z</time></trkpt><trkpt lat="44.1724633667179" lon="11.388884933671976"><ele>537.6</ele><time>2026-04-11T15:02:33.999Z</time></trkpt><trkpt lat="44.17250858832205" lon="11.388804367165799"><ele>536.2</ele><time>2026-04-11T15:02:34.999Z</time></trkpt><trkpt lat="44.172577782925366" lon="11.388681133046726"><ele>534.8000000000001</ele><time>2026-04-11T15:02:36.999Z</time></trkpt><trkpt lat="44.1726943787029" lon="11.38862095438454"><ele>533.4</ele><time>2026-04-11T15:02:38.999Z</time></trkpt><trkpt lat="44.1727799741026" lon="11.388627584458874"><ele>532.0</ele><time>2026-04-11T15:02:39.999Z</time></trkpt><trkpt lat="44.17287711300402" lon="11.388602718264877"><ele>532.0</ele><time>2026-04-11T15:02:40.999Z</time></trkpt><trkpt lat="44.17296461049106" lon="11.388589190647284"><ele>532.0</ele><time>2026-04-11T15:02:41.999Z</time></trkpt><trkpt lat="44.17303465360057" lon="11.388540137019948"><ele>532.0</ele><time>2026-04-11T15:02:43Z</time></trkpt><trkpt lat="44.17310035687244" lon="11.38852890134945"><ele>532.0</ele><time>2026-04-11T15:02:44Z</time></trkpt><trkpt lat="44.173170512101656" lon="11.3885115816246"><ele>532.0</ele><time>2026-04-11T15:02:45Z</time></trkpt><trkpt lat="44.17324058841068" lon="11.388496441547932"><ele>532.0</ele><time>2026-04-11T15:02:46Z</time></trkpt><trkpt lat="44.1733286264043" lon="11.388472046349724"><ele>529.8333333333334</ele><time>2026-04-11T15:02:47Z</time></trkpt><trkpt lat="44.173411743712755" lon="11.388446726711512"><ele>527.6666666666667</ele><time>2026-04-11T15:02:48Z</time></trkpt><trkpt lat="44.173487197336115" lon="11.388412329167267"><ele>525.5</ele><time>2026-04-11T15:02:49Z</time></trkpt><trkpt lat="44.17356592818781" lon="11.388412550313882"><ele>523.3333333333334</ele><time>2026-04-11T15:02:50Z</time></trkpt><trkpt lat="44.17364623750545" lon="11.388442030871998"><ele>521.1666666666666</ele><time>2026-04-11T15:02:51Z</time></trkpt><trkpt lat="44.17373184702026" lon="11.388436046939168"><ele>519.0</ele><time>2026-04-11T15:02:52Z</time></trkpt><trkpt lat="44.173818573032044" lon="11.388381886698557"><ele>519.0</ele><time>2026-04-11T15:02:53Z</time></trkpt><trkpt lat="44.17389790052074" lon="11.388343657443027"><ele>519.0</ele><time>2026-04-11T15:02:54Z</time></trkpt><trkpt lat="44.173961119376244" lon="11.388362119041778"><ele>519.0</ele><time>2026-04-11T15:02:55Z</time></trkpt><trkpt lat="44.1740737303674" lon="11.388435274082903"><ele>519.0</ele><time>2026-04-11T15:02:57Z</time></trkpt><trkpt lat="44.1741046819341" lon="11.388523584686778"><ele>519.0</ele><time>2026-04-11T15:02:58Z</time></trkpt><trkpt lat="44.1741027354013" lon="11.388622012259496"><ele>519.0</ele><time>2026-04-11T15:02:59Z</time></trkpt><trkpt lat="44.17412595770396" lon="11.388723688395224"><ele>518.1666666666666</ele><time>2026-04-11T15:03:00Z</time></trkpt><trkpt lat="44.17415811790298" lon="11.388835782955496"><ele>517.3333333333334</ele><time>2026-04-11T15:03:01Z</time></trkpt><trkpt lat="44.17421704562074" lon="11.388898126300711"><ele>516.5</ele><time>2026-04-11T15:03:02Z</time></trkpt><trkpt lat="44.17427430629057" lon="11.38894019347647"><ele>515.6666666666667</ele><time>2026-04-11T15:03:03Z</time></trkpt><trkpt lat="44.174344724346355" lon="11.388958204405808"><ele>514.8333333333334</ele><time>2026-04-11T15:03:04Z</time></trkpt><trkpt lat="44.17444508481178" lon="11.388991212868607"><ele>514.0</ele><time>2026-04-11T15:03:05Z</time></trkpt><trkpt lat="44.17452634360441" lon="11.38901763972666"><ele>513.6</ele><time>2026-04-11T15:03:06Z</time></trkpt><trkpt lat="44.17459845037418" lon="11.389052916221786"><ele>513.2</ele><time>2026-04-11T15:03:07Z</time></trkpt><trkpt lat="44.17470617594895" lon="11.38915765947061"><ele>512.8000000000001</ele><time>2026-04-11T15:03:09Z</time></trkpt><trkpt lat="44.174774418168965" lon="11.389223505142139"><ele>512.4</ele><time>2026-04-11T15:03:10Z</time></trkpt><trkpt lat="44.17485955673434" lon="11.389287732406977"><ele>512.0</ele><time>2026-04-11T15:03:11Z</time></trkpt><trkpt lat="44.17495014355766" lon="11.389334845939377"><ele>516.2</ele><time>2026-04-11T15:03:12Z</time></trkpt><trkpt lat="44.17503420494366" lon="11.38939227857338"><ele>520.4000000000001</ele><time>2026-04-11T15:03:13Z</time></trkpt><trkpt lat="44.17508870091301" lon="11.389473051356363"><ele>524.5999999999999</ele><time>2026-04-11T15:03:14Z</time></trkpt><trkpt lat="44.17516766923628" lon="11.389547804673938"><ele>528.8</ele><time>2026-04-11T15:03:15Z</time></trkpt><trkpt lat="44.17525157771891" lon="11.389591740341775"><ele>533.0</ele><time>2026-04-11T15:03:16Z</time></trkpt><trkpt lat="44.17534259830914" lon="11.389654016501817"><ele>532.3333333333333</ele><time>2026-04-11T15:03:17Z</time></trkpt><trkpt lat="44.17540183217922" lon="11.389744205413185"><ele>531.6666666666666</ele><time>2026-04-11T15:03:18Z</time></trkpt><trkpt lat="44.17544578206942" lon="11.389809833731098"><ele>531.0</ele><time>2026-04-11T15:03:19Z</time></trkpt><trkpt lat="44.175467564306715" lon="11.389907417773598"><ele>530.3333333333334</ele><time>2026-04-11T15:03:20Z</time></trkpt><trkpt lat="44.1755100577102" lon="11.390039331370723"><ele>529.6666666666667</ele><time>2026-04-11T15:03:21Z</time></trkpt><trkpt lat="44.17557147986412" lon="11.390154635206196"><ele>529.0</ele><time>2026-04-11T15:03:22Z</time></trkpt><trkpt lat="44.175620103869534" lon="11.390237973353743"><ele>529.0</ele><time>2026-04-11T15:03:23Z</time></trkpt><trkpt lat="44.175666944496946" lon="11.39030806025173"><ele>529.0</ele><time>2026-04-11T15:03:24Z</time></trkpt><trkpt lat="44.1757602581492" lon="11.39031897707664"><ele>529.0</ele><time>2026-04-11T15:03:25Z</time></trkpt><trkpt lat="44.17587047826098" lon="11.390340527475253"><ele>529.0</ele><time>2026-04-11T15:03:26Z</time></trkpt><trkpt lat="44.17597618101327" lon="11.39036810012635"><ele>529.0</ele><time>2026-04-11T15:03:27Z</time></trkpt><trkpt lat="44.176066204940625" lon="11.390395408638552"><ele>532.4</ele><time>2026-04-11T15:03:28Z</time></trkpt><trkpt lat="44.176144435302895" lon="11.39040152065831"><ele>535.8</ele><time>2026-04-11T15:03:29Z</time></trkpt><trkpt lat="44.176224833033245" lon="11.390396070711505"><ele>539.2</ele><time>2026-04-11T15:03:30Z</time></trkpt><trkpt lat="44.17635292274453" lon="11.39041209247603"><ele>542.6</ele><time>2026-04-11T15:03:32Z</time></trkpt><trkpt lat="44.17642978565435" lon="11.390432221272981"><ele>546.0</ele><time>2026-04-11T15:03:33Z</time></trkpt><trkpt lat="44.17650789803228" lon="11.39048398655491"><ele>546.2</ele><time>2026-04-11T15:03:34Z</time></trkpt><trkpt lat="44.17660430949694" lon="11.390505040592753"><ele>546.4000000000001</ele><time>2026-04-11T15:03:35Z</time></trkpt><trkpt lat="44.17668141958646" lon="11.390574789030094"><ele>546.6</ele><time>2026-04-11T15:03:36Z</time></trkpt><trkpt lat="44.176759024551735" lon="11.39065309105317"><ele>546.8000000000001</ele><time>2026-04-11T15:03:37Z</time></trkpt><trkpt lat="44.17684298196248" lon="11.390726079247056"><ele>547.0</ele><time>2026-04-11T15:03:38Z</time></trkpt><trkpt lat="44.176916802124566" lon="11.390839890724882"><ele>547.0</ele><time>2026-04-11T15:03:39Z</time></trkpt><trkpt lat="44.17699619780702" lon="11.390966749498983"><ele>547.0</ele><time>2026-04-11T15:03:40Z</time></trkpt><trkpt lat="44.177054910227966" lon="11.39108834606959"><ele>547.0</ele><time>2026-04-11T15:03:41Z</time></trkpt><trkpt lat="44.17711065381745" lon="11.391196010153859"><ele>547.0</ele><time>2026-04-11T15:03:42Z</time></trkpt><trkpt lat="44.17714966953697" lon="11.391299108239876"><ele>547.0</ele><time>2026-04-11T15:03:43Z</time></trkpt><trkpt lat="44.17717307222261" lon="11.391418851315176"><ele>546.6666666666667</ele><time>2026-04-11T15:03:44Z</time></trkpt><trkpt lat="44.17718615055903" lon="11.391540994128"><ele>546.3333333333334</ele><time>2026-04-11T15:03:45Z</time></trkpt><trkpt lat="44.17720358783938" lon="11.391676133659741"><ele>546.0</ele><time>2026-04-11T15:03:45.999Z</time></trkpt><trkpt lat="44.17722015478018" lon="11.391796788758457"><ele>545.6666666666666</ele><time>2026-04-11T15:03:46.999Z</time></trkpt><trkpt lat="44.1772486832677" lon="11.391905537314633"><ele>545.3333333333333</ele><time>2026-04-11T15:03:47.999Z</time></trkpt><trkpt lat="44.17727932650129" lon="11.391988348606025"><ele>545.0</ele><time>2026-04-11T15:03:48.999Z</time></trkpt><trkpt lat="44.17730637707146" lon="11.392116872091442"><ele>544.0</ele><time>2026-04-11T15:03:49.999Z</time></trkpt><trkpt lat="44.177318173134985" lon="11.39224614295597"><ele>543.0</ele><time>2026-04-11T15:03:50.999Z</time></trkpt><trkpt lat="44.17733585135453" lon="11.392385963954258"><ele>542.0</ele><time>2026-04-11T15:03:51.999Z</time></trkpt><trkpt lat="44.17733550630992" lon="11.392519460759932"><ele>541.0</ele><time>2026-04-11T15:03:52.999Z</time></trkpt><trkpt lat="44.17734480013069" lon="11.392666237695869"><ele>540.0</ele><time>2026-04-11T15:03:53.999Z</time></trkpt><trkpt lat="44.177352481674845" lon="11.392815905953992"><ele>542.1666666666666</ele><time>2026-04-11T15:03:54.999Z</time></trkpt><trkpt lat="44.17737638305988" lon="11.392942586524885"><ele>544.3333333333334</ele><time>2026-04-11T15:03:55.999Z</time></trkpt><trkpt lat="44.177384187094965" lon="11.393068380349833"><ele>546.5</ele><time>2026-04-11T15:03:56.999Z</time></trkpt><trkpt lat="44.17739646887835" lon="11.39317551317208"><ele>548.6666666666667</ele><time>2026-04-11T15:03:57.999Z</time></trkpt><trkpt lat="44.17740692586087" lon="11.393266429508024"><ele>550.8333333333334</ele><time>2026-04-11T15:03:58.999Z</time></trkpt><trkpt lat="44.17742512613243" lon="11.393375270930521"><ele>553.0</ele><time>2026-04-11T15:03:59.999Z</time></trkpt><trkpt lat="44.177454714531045" lon="11.393482660757234"><ele>553.0</ele><time>2026-04-11T15:04:00.999Z</time></trkpt><trkpt lat="44.177454823843185" lon="11.393595528507085"><ele>553.0</ele><time>2026-04-11T15:04:01.999Z</time></trkpt><trkpt lat="44.17747548223414" lon="11.39368838821203"><ele>553.0</ele><time>2026-04-11T15:04:02.999Z</time></trkpt><trkpt lat="44.177450931636365" lon="11.393779056148546"><ele>553.0</ele><time>2026-04-11T15:04:03.999Z</time></trkpt><trkpt lat="44.17743553437107" lon="11.393919262805172"><ele>553.0</ele><time>2026-04-11T15:04:05.999Z</time></trkpt><trkpt lat="44.17751435373693" lon="11.394113416696063"><ele>553.0</ele><time>2026-04-11T15:04:07.999Z</time></trkpt><trkpt lat="44.17756260979391" lon="11.394230311663051"><ele>553.0</ele><time>2026-04-11T15:04:08.999Z</time></trkpt><trkpt lat="44.17761237574324" lon="11.39436067385233"><ele>553.0</ele><time>2026-04-11T15:04:09.999Z</time></trkpt><trkpt lat="44.177641426151126" lon="11.394513103163405"><ele>553.0</ele><time>2026-04-11T15:04:10.999Z</time></trkpt><trkpt lat="44.177610631316526" lon="11.394669965605464"><ele>553.0</ele><time>2026-04-11T15:04:11.999Z</time></trkpt><trkpt lat="44.17759774009883" lon="11.39483501310633"><ele>554.25</ele><time>2026-04-11T15:04:12.999Z</time></trkpt><trkpt lat="44.177569189792585" lon="11.394978308077524"><ele>555.5</ele><time>2026-04-11T15:04:13.999Z</time></trkpt><trkpt lat="44.177546680701504" lon="11.395142133216526"><ele>556.75</ele><time>2026-04-11T15:04:14.999Z</time></trkpt><trkpt lat="44.17752647585275" lon="11.395318589586443"><ele>558.0</ele><time>2026-04-11T15:04:15.999Z</time></trkpt><trkpt lat="44.17750451501192" lon="11.395495787264055"><ele>559.0</ele><time>2026-04-11T15:04:16.999Z</time></trkpt><trkpt lat="44.177473463908285" lon="11.395664184513295"><ele>560.0</ele><time>2026-04-11T15:04:17.999Z</time></trkpt><trkpt lat="44.17744797897585" lon="11.395815669224092"><ele>561.0</ele><time>2026-04-11T15:04:18.999Z</time></trkpt><trkpt lat="44.17743470745811" lon="11.39594822921167"><ele>562.0</ele><time>2026-04-11T15:04:19.999Z</time></trkpt><trkpt lat="44.177423324055376" lon="11.396066439716119"><ele>563.0</ele><time>2026-04-11T15:04:20.999Z</time></trkpt><trkpt lat="44.177425379493144" lon="11.396181207783771"><ele>563.0</ele><time>2026-04-11T15:04:21.999Z</time></trkpt><trkpt lat="44.177480986839676" lon="11.396302710088964"><ele>563.0</ele><time>2026-04-11T15:04:22.999Z</time></trkpt><trkpt lat="44.17757441557431" lon="11.396377523239353"><ele>563.0</ele><time>2026-04-11T15:04:23.999Z</time></trkpt><trkpt lat="44.17766814525036" lon="11.396440281109207"><ele>563.0</ele><time>2026-04-11T15:04:24.999Z</time></trkpt><trkpt lat="44.177783976194945" lon="11.396490997132352"><ele>563.0</ele><time>2026-04-11T15:04:25.999Z</time></trkpt><trkpt lat="44.17790522701748" lon="11.396560704844385"><ele>562.5</ele><time>2026-04-11T15:04:26.999Z</time></trkpt><trkpt lat="44.1780282180466" lon="11.396657667301872"><ele>562.0</ele><time>2026-04-11T15:04:27.999Z</time></trkpt><trkpt lat="44.178151329475064" lon="11.396771297887456"><ele>561.5</ele><time>2026-04-11T15:04:28.999Z</time></trkpt><trkpt lat="44.17826223332069" lon="11.396870870236794"><ele>561.0</ele><time>2026-04-11T15:04:29.999Z</time></trkpt><trkpt lat="44.17835410284526" lon="11.397041448173699"><ele>563.5</ele><time>2026-04-11T15:04:30.999Z</time></trkpt><trkpt lat="44.178416897266" lon="11.397195373951897"><ele>566.0</ele><time>2026-04-11T15:04:31.999Z</time></trkpt><trkpt lat="44.178453378714465" lon="11.397377251625343"><ele>568.5</ele><time>2026-04-11T15:04:32.999Z</time></trkpt><trkpt lat="44.17851369837749" lon="11.39752753777726"><ele>571.0</ele><time>2026-04-11T15:04:33.999Z</time></trkpt><trkpt lat="44.17854538179385" lon="11.397653216424459"><ele>571.0</ele><time>2026-04-11T15:04:34.999Z</time></trkpt><trkpt lat="44.17861328070856" lon="11.397711716306937"><ele>571.0</ele><time>2026-04-11T15:04:35.999Z</time></trkpt><trkpt lat="44.1786996896316" lon="11.397698362971717"><ele>571.0</ele><time>2026-04-11T15:04:36.999Z</time></trkpt><trkpt lat="44.17876816083428" lon="11.397596402290684"><ele>571.0</ele><time>2026-04-11T15:04:37.999Z</time></trkpt><trkpt lat="44.178783509903525" lon="11.397449930830023"><ele>571.0</ele><time>2026-04-11T15:04:38.999Z</time></trkpt><trkpt lat="44.178744306240894" lon="11.397282827912864"><ele>572.75</ele><time>2026-04-11T15:04:39.999Z</time></trkpt><trkpt lat="44.178683584300224" lon="11.397096390510333"><ele>574.5</ele><time>2026-04-11T15:04:40.999Z</time></trkpt><trkpt lat="44.17863358787133" lon="11.396884293758836"><ele>576.25</ele><time>2026-04-11T15:04:41.999Z</time></trkpt><trkpt lat="44.178592672248016" lon="11.396698970423715"><ele>578.0</ele><time>2026-04-11T15:04:42.999Z</time></trkpt><trkpt lat="44.1785849569299" lon="11.396537884588586"><ele>578.0</ele><time>2026-04-11T15:04:43.999Z</time></trkpt><trkpt lat="44.17859000133779" lon="11.396410390914568"><ele>578.0</ele><time>2026-04-11T15:04:44.999Z</time></trkpt><trkpt lat="44.17863263834847" lon="11.396279722426925"><ele>578.0</ele><time>2026-04-11T15:04:45.999Z</time></trkpt><trkpt lat="44.178678226835686" lon="11.396112192284821"><ele>578.0</ele><time>2026-04-11T15:04:46.999Z</time></trkpt><trkpt lat="44.17872142790312" lon="11.39598145465486"><ele>578.0</ele><time>2026-04-11T15:04:47.999Z</time></trkpt><trkpt lat="44.17876367028599" lon="11.395892330854767"><ele>578.0</ele><time>2026-04-11T15:04:49Z</time></trkpt><trkpt lat="44.178813000660085" lon="11.395831314046841"><ele>578.0</ele><time>2026-04-11T15:04:50Z</time></trkpt><trkpt lat="44.17888892446193" lon="11.395851832804807"><ele>578.0</ele><time>2026-04-11T15:04:51Z</time></trkpt><trkpt lat="44.178952358005226" lon="11.395919798737982"><ele>578.0</ele><time>2026-04-11T15:04:52Z</time></trkpt><trkpt lat="44.17896848212327" lon="11.396041300858187"><ele>578.0</ele><time>2026-04-11T15:04:53Z</time></trkpt><trkpt lat="44.17891420939613" lon="11.396175361769453"><ele>578.0</ele><time>2026-04-11T15:04:54Z</time></trkpt><trkpt lat="44.17890802103355" lon="11.396355337039914"><ele>578.0</ele><time>2026-04-11T15:04:55Z</time></trkpt><trkpt lat="44.178897077651925" lon="11.396534308936475"><ele>578.0</ele><time>2026-04-11T15:04:56Z</time></trkpt><trkpt lat="44.178964682930285" lon="11.396682818927154"><ele>578.0</ele><time>2026-04-11T15:04:57Z</time></trkpt><trkpt lat="44.17905834870838" lon="11.396823750384456"><ele>578.0</ele><time>2026-04-11T15:04:58Z</time></trkpt><trkpt lat="44.17916085466428" lon="11.396939930913225"><ele>583.0</ele><time>2026-04-11T15:04:59Z</time></trkpt><trkpt lat="44.17924861465299" lon="11.397043976110242"><ele>588.0</ele><time>2026-04-11T15:05:00Z</time></trkpt><trkpt lat="44.17933962489943" lon="11.397117851368526"><ele>593.0</ele><time>2026-04-11T15:05:01Z</time></trkpt><trkpt lat="44.17945865717648" lon="11.397155291651242"><ele>598.0</ele><time>2026-04-11T15:05:02Z</time></trkpt><trkpt lat="44.17960071760872" lon="11.397157912445362"><ele>596.25</ele><time>2026-04-11T15:05:03Z</time></trkpt><trkpt lat="44.17974161436412" lon="11.39717365789237"><ele>594.5</ele><time>2026-04-11T15:05:04Z</time></trkpt><trkpt lat="44.179874751659064" lon="11.397217630107427"><ele>592.75</ele><time>2026-04-11T15:05:05Z</time></trkpt><trkpt lat="44.17998196150539" lon="11.397319427184176"><ele>591.0</ele><time>2026-04-11T15:05:06Z</time></trkpt><trkpt lat="44.18008632587312" lon="11.397408620692058"><ele>594.5</ele><time>2026-04-11T15:05:07Z</time></trkpt><trkpt lat="44.18017579632788" lon="11.397484423538375"><ele>598.0</ele><time>2026-04-11T15:05:08Z</time></trkpt><trkpt lat="44.18028022917497" lon="11.3975171269914"><ele>601.5</ele><time>2026-04-11T15:05:09Z</time></trkpt><trkpt lat="44.18040238404415" lon="11.397517684495602"><ele>605.0</ele><time>2026-04-11T15:05:10Z</time></trkpt><trkpt lat="44.18053344823965" lon="11.39748530214254"><ele>605.0</ele><time>2026-04-11T15:05:11Z</time></trkpt><trkpt lat="44.18066172374311" lon="11.3974406794603"><ele>605.0</ele><time>2026-04-11T15:05:12Z</time></trkpt><trkpt lat="44.18077873544346" lon="11.397376726432658"><ele>605.0</ele><time>2026-04-11T15:05:13Z</time></trkpt><trkpt lat="44.18088791011158" lon="11.397245018836731"><ele>605.0</ele><time>2026-04-11T15:05:14Z</time></trkpt><trkpt lat="44.180989972490764" lon="11.397090081473713"><ele>608.6</ele><time>2026-04-11T15:05:15Z</time></trkpt><trkpt lat="44.181079049709396" lon="11.396954582667735"><ele>612.2</ele><time>2026-04-11T15:05:16Z</time></trkpt><trkpt lat="44.18114291790394" lon="11.396850377943785"><ele>615.8</ele><time>2026-04-11T15:05:17Z</time></trkpt><trkpt lat="44.181175674453655" lon="11.396775280719046"><ele>619.4</ele><time>2026-04-11T15:05:18Z</time></trkpt><trkpt lat="44.18116687025202" lon="11.396677821738685"><ele>623.0</ele><time>2026-04-11T15:05:19Z</time></trkpt><trkpt lat="44.181100905402886" lon="11.396580047719842"><ele>623.0</ele><time>2026-04-11T15:05:20Z</time></trkpt><trkpt lat="44.18099939593378" lon="11.396551617862464"><ele>623.0</ele><time>2026-04-11T15:05:21Z</time></trkpt><trkpt lat="44.18089317443273" lon="11.39659765058723"><ele>623.0</ele><time>2026-04-11T15:05:22Z</time></trkpt><trkpt lat="44.180803576936206" lon="11.396730040463146"><ele>623.0</ele><time>2026-04-11T15:05:23Z</time></trkpt><trkpt lat="44.18073437189317" lon="11.396892406016766"><ele>621.0</ele><time>2026-04-11T15:05:24Z</time></trkpt><trkpt lat="44.180643109950346" lon="11.397003703104096"><ele>619.0</ele><time>2026-04-11T15:05:25Z</time></trkpt><trkpt lat="44.1805205267212" lon="11.396994767760102"><ele>617.0</ele><time>2026-04-11T15:05:26Z</time></trkpt><trkpt lat="44.18041912602506" lon="11.39690981325213"><ele>615.0</ele><time>2026-04-11T15:05:27Z</time></trkpt><trkpt lat="44.18035811654263" lon="11.396789951642132"><ele>615.0</ele><time>2026-04-11T15:05:28Z</time></trkpt><trkpt lat="44.18035955520204" lon="11.39663864116386"><ele>615.0</ele><time>2026-04-11T15:05:29Z</time></trkpt><trkpt lat="44.18038811196623" lon="11.396485831109624"><ele>615.0</ele><time>2026-04-11T15:05:30Z</time></trkpt><trkpt lat="44.180484869028874" lon="11.396396382155936"><ele>615.0</ele><time>2026-04-11T15:05:31Z</time></trkpt><trkpt lat="44.18059943474678" lon="11.396294131733827"><ele>618.0</ele><time>2026-04-11T15:05:32Z</time></trkpt><trkpt lat="44.180721436553455" lon="11.396184926865265"><ele>621.0</ele><time>2026-04-11T15:05:33Z</time></trkpt><trkpt lat="44.180832856743784" lon="11.396082108210226"><ele>624.0</ele><time>2026-04-11T15:05:34Z</time></trkpt><trkpt lat="44.18094374512482" lon="11.395977825683445"><ele>627.0</ele><time>2026-04-11T15:05:35Z</time></trkpt><trkpt lat="44.18105265571078" lon="11.395875403401261"><ele>627.0</ele><time>2026-04-11T15:05:36Z</time></trkpt><trkpt lat="44.18115083732535" lon="11.395764062133832"><ele>627.0</ele><time>2026-04-11T15:05:37Z</time></trkpt><trkpt lat="44.18125955758811" lon="11.3956616185987"><ele>627.0</ele><time>2026-04-11T15:05:38Z</time></trkpt><trkpt lat="44.18136457632607" lon="11.395563749012307"><ele>627.0</ele><time>2026-04-11T15:05:39Z</time></trkpt><trkpt lat="44.18147388332778" lon="11.395491749969056"><ele>630.75</ele><time>2026-04-11T15:05:40Z</time></trkpt><trkpt lat="44.18157594611751" lon="11.395435843314193"><ele>634.5</ele><time>2026-04-11T15:05:41Z</time></trkpt><trkpt lat="44.18169309882719" lon="11.395434363385231"><ele>638.25</ele><time>2026-04-11T15:05:42Z</time></trkpt><trkpt lat="44.1818110189257" lon="11.39545685112762"><ele>642.0</ele><time>2026-04-11T15:05:43Z</time></trkpt><trkpt lat="44.18193534779408" lon="11.395495361719098"><ele>642.0</ele><time>2026-04-11T15:05:44Z</time></trkpt><trkpt lat="44.18206568826594" lon="11.39553480384178"><ele>642.0</ele><time>2026-04-11T15:05:45Z</time></trkpt><trkpt lat="44.18219064684736" lon="11.395593357048968"><ele>642.0</ele><time>2026-04-11T15:05:46Z</time></trkpt><trkpt lat="44.18231660461629" lon="11.39565420740961"><ele>642.0</ele><time>2026-04-11T15:05:47Z</time></trkpt><trkpt lat="44.18244374646225" lon="11.395710089817321"><ele>642.0</ele><time>2026-04-11T15:05:48Z</time></trkpt><trkpt lat="44.1825505322695" lon="11.395756504689231"><ele>642.0</ele><time>2026-04-11T15:05:49Z</time></trkpt><trkpt lat="44.18264485959496" lon="11.395772573967053"><ele>642.0</ele><time>2026-04-11T15:05:50Z</time></trkpt><trkpt lat="44.18275286641096" lon="11.395756461501183"><ele>642.0</ele><time>2026-04-11T15:05:50.999Z</time></trkpt><trkpt lat="44.18286964614626" lon="11.395694361241976"><ele>642.0</ele><time>2026-04-11T15:05:51.999Z</time></trkpt><trkpt lat="44.18298910023226" lon="11.395603176368617"><ele>642.0</ele><time>2026-04-11T15:05:52.999Z</time></trkpt><trkpt lat="44.183116882125894" lon="11.395519184201616"><ele>642.0</ele><time>2026-04-11T15:05:53.999Z</time></trkpt><trkpt lat="44.18322947674425" lon="11.395439374273057"><ele>642.0</ele><time>2026-04-11T15:05:54.999Z</time></trkpt><trkpt lat="44.18334483334975" lon="11.395380531307639"><ele>642.0</ele><time>2026-04-11T15:05:55.999Z</time></trkpt><trkpt lat="44.183459588943116" lon="11.395319507040416"><ele>647.0</ele><time>2026-04-11T15:05:56.999Z</time></trkpt><trkpt lat="44.183582191537326" lon="11.395270103241181"><ele>652.0</ele><time>2026-04-11T15:05:57.999Z</time></trkpt><trkpt lat="44.18371435156023" lon="11.395292990886105"><ele>657.0</ele><time>2026-04-11T15:05:58.999Z</time></trkpt><trkpt lat="44.18384786414074" lon="11.395321554870195"><ele>662.0</ele><time>2026-04-11T15:05:59.999Z</time></trkpt><trkpt lat="44.18397728985119" lon="11.39540890495005"><ele>660.5</ele><time>2026-04-11T15:06:00.999Z</time></trkpt><trkpt lat="44.1840978791292" lon="11.395486661855177"><ele>659.0</ele><time>2026-04-11T15:06:01.999Z</time></trkpt><trkpt lat="44.18421689619322" lon="11.395547124506962"><ele>657.5</ele><time>2026-04-11T15:06:02.999Z</time></trkpt><trkpt lat="44.18433732540797" lon="11.395588135700097"><ele>656.0</ele><time>2026-04-11T15:06:03.999Z</time></trkpt><trkpt lat="44.18445661561931" lon="11.3956228231617"><ele>656.0</ele><time>2026-04-11T15:06:04.999Z</time></trkpt><trkpt lat="44.18456702219334" lon="11.395683956679811"><ele>656.0</ele><time>2026-04-11T15:06:05.999Z</time></trkpt><trkpt lat="44.18467056952659" lon="11.395784208638666"><ele>656.0</ele><time>2026-04-11T15:06:06.999Z</time></trkpt><trkpt lat="44.184766044775714" lon="11.395911660875225"><ele>656.0</ele><time>2026-04-11T15:06:07.999Z</time></trkpt><trkpt lat="44.184856764018264" lon="11.396050003491023"><ele>658.75</ele><time>2026-04-11T15:06:08.999Z</time></trkpt><trkpt lat="44.18494693805656" lon="11.396190755361367"><ele>661.5</ele><time>2026-04-11T15:06:09.999Z</time></trkpt><trkpt lat="44.185025517165094" lon="11.396357456922843"><ele>664.25</ele><time>2026-04-11T15:06:10.999Z</time></trkpt><trkpt lat="44.18509019464567" lon="11.396541035812193"><ele>667.0</ele><time>2026-04-11T15:06:11.999Z</time></trkpt><trkpt lat="44.185136441760356" lon="11.396720827380284"><ele>667.0</ele><time>2026-04-11T15:06:12.999Z</time></trkpt><trkpt lat="44.18519665411593" lon="11.396889908731202"><ele>667.0</ele><time>2026-04-11T15:06:13.999Z</time></trkpt><trkpt lat="44.18525914033431" lon="11.397032869126038"><ele>667.0</ele><time>2026-04-11T15:06:14.999Z</time></trkpt><trkpt lat="44.18534623247242" lon="11.397147828695534"><ele>667.0</ele><time>2026-04-11T15:06:15.999Z</time></trkpt><trkpt lat="44.18545682041991" lon="11.397213467570532"><ele>667.0</ele><time>2026-04-11T15:06:16.999Z</time></trkpt><trkpt lat="44.185562687919735" lon="11.397221269145575"><ele>667.0</ele><time>2026-04-11T15:06:17.999Z</time></trkpt><trkpt lat="44.185658461407485" lon="11.397160529299812"><ele>667.0</ele><time>2026-04-11T15:06:18.999Z</time></trkpt><trkpt lat="44.185739357560315" lon="11.397071795955297"><ele>667.0</ele><time>2026-04-11T15:06:19.999Z</time></trkpt><trkpt lat="44.18580817619461" lon="11.396935962658954"><ele>667.0</ele><time>2026-04-11T15:06:20.999Z</time></trkpt><trkpt lat="44.1858482599251" lon="11.39676167652817"><ele>668.5</ele><time>2026-04-11T15:06:21.999Z</time></trkpt><trkpt lat="44.18586057024462" lon="11.396569299375509"><ele>670.0</ele><time>2026-04-11T15:06:22.999Z</time></trkpt><trkpt lat="44.18590602529405" lon="11.396388801521958"><ele>671.5</ele><time>2026-04-11T15:06:23.999Z</time></trkpt><trkpt lat="44.185923393159264" lon="11.396217864433124"><ele>673.0</ele><time>2026-04-11T15:06:24.999Z</time></trkpt><trkpt lat="44.18596670490505" lon="11.39606819725937"><ele>674.25</ele><time>2026-04-11T15:06:25.999Z</time></trkpt><trkpt lat="44.1859943727899" lon="11.395928197906851"><ele>675.5</ele><time>2026-04-11T15:06:26.999Z</time></trkpt><trkpt lat="44.18602313917713" lon="11.395782639378265"><ele>676.75</ele><time>2026-04-11T15:06:27.999Z</time></trkpt><trkpt lat="44.186052715284376" lon="11.395620145764491"><ele>678.0</ele><time>2026-04-11T15:06:28.999Z</time></trkpt><trkpt lat="44.18608392384201" lon="11.395445401436062"><ele>679.75</ele><time>2026-04-11T15:06:29.999Z</time></trkpt><trkpt lat="44.18612896605907" lon="11.395263446658662"><ele>681.5</ele><time>2026-04-11T15:06:30.999Z</time></trkpt><trkpt lat="44.18619892791007" lon="11.395084775111226"><ele>683.25</ele><time>2026-04-11T15:06:31.999Z</time></trkpt><trkpt lat="44.18631065960889" lon="11.394939906357784"><ele>685.0</ele><time>2026-04-11T15:06:32.999Z</time></trkpt><trkpt lat="44.186445602777844" lon="11.394808431895628"><ele>684.3333333333334</ele><time>2026-04-11T15:06:33.999Z</time></trkpt><trkpt lat="44.186595688100255" lon="11.39470078292839"><ele>683.6666666666666</ele><time>2026-04-11T15:06:34.999Z</time></trkpt><trkpt lat="44.18674147514403" lon="11.394627282299588"><ele>683.0</ele><time>2026-04-11T15:06:35.999Z</time></trkpt><trkpt lat="44.18688288544895" lon="11.39457994790265"><ele>683.0</ele><time>2026-04-11T15:06:36.999Z</time></trkpt><trkpt lat="44.18702189855574" lon="11.394590227774971"><ele>683.0</ele><time>2026-04-11T15:06:37.999Z</time></trkpt><trkpt lat="44.18715571539167" lon="11.394661736361599"><ele>683.0</ele><time>2026-04-11T15:06:38.999Z</time></trkpt><trkpt lat="44.187278333472776" lon="11.394771411559919"><ele>683.0</ele><time>2026-04-11T15:06:39.999Z</time></trkpt><trkpt lat="44.187403202874926" lon="11.3948662426749"><ele>682.0</ele><time>2026-04-11T15:06:40.999Z</time></trkpt><trkpt lat="44.18752835177948" lon="11.394926738532662"><ele>681.0</ele><time>2026-04-11T15:06:41.999Z</time></trkpt><trkpt lat="44.187660584610796" lon="11.394918574302055"><ele>680.0</ele><time>2026-04-11T15:06:42.999Z</time></trkpt><trkpt lat="44.18779825532202" lon="11.394874946947711"><ele>679.0</ele><time>2026-04-11T15:06:43.999Z</time></trkpt><trkpt lat="44.18791993164025" lon="11.394803794026526"><ele>679.0</ele><time>2026-04-11T15:06:44.999Z</time></trkpt><trkpt lat="44.18803236746952" lon="11.394773601838114"><ele>679.0</ele><time>2026-04-11T15:06:45.999Z</time></trkpt><trkpt lat="44.18814182857123" lon="11.394767436100825"><ele>679.0</ele><time>2026-04-11T15:06:46.999Z</time></trkpt><trkpt lat="44.188234245159975" lon="11.394843402191357"><ele>679.0</ele><time>2026-04-11T15:06:47.999Z</time></trkpt><trkpt lat="44.188317552425154" lon="11.394973230964217"><ele>679.5</ele><time>2026-04-11T15:06:48.999Z</time></trkpt><trkpt lat="44.18840572426446" lon="11.395123426466014"><ele>680.0</ele><time>2026-04-11T15:06:49.999Z</time></trkpt><trkpt lat="44.18846544072142" lon="11.395274318045564"><ele>680.5</ele><time>2026-04-11T15:06:50.999Z</time></trkpt><trkpt lat="44.1885347290537" lon="11.395391853083046"><ele>681.0</ele><time>2026-04-11T15:06:51.999Z</time></trkpt><trkpt lat="44.188622836622066" lon="11.395447230797304"><ele>681.0</ele><time>2026-04-11T15:06:52.999Z</time></trkpt><trkpt lat="44.18871468778157" lon="11.39542207751137"><ele>681.0</ele><time>2026-04-11T15:06:53.999Z</time></trkpt><trkpt lat="44.18880284135316" lon="11.395332121968043"><ele>681.0</ele><time>2026-04-11T15:06:55Z</time></trkpt><trkpt lat="44.188875473147036" lon="11.395221319290327"><ele>681.0</ele><time>2026-04-11T15:06:56Z</time></trkpt><trkpt lat="44.18896853680204" lon="11.395192602099034"><ele>681.0</ele><time>2026-04-11T15:06:57Z</time></trkpt><trkpt lat="44.18906336723558" lon="11.395219121281212"><ele>680.5</ele><time>2026-04-11T15:06:58Z</time></trkpt><trkpt lat="44.189158858996706" lon="11.39527605942799"><ele>680.0</ele><time>2026-04-11T15:06:59Z</time></trkpt><trkpt lat="44.189213834023754" lon="11.395437890032378"><ele>679.5</ele><time>2026-04-11T15:07:00Z</time></trkpt><trkpt lat="44.18928930879856" lon="11.395578239745108"><ele>679.0</ele><time>2026-04-11T15:07:01Z</time></trkpt><trkpt lat="44.18934144112671" lon="11.395727036638728"><ele>679.0</ele><time>2026-04-11T15:07:02Z</time></trkpt><trkpt lat="44.18940340395903" lon="11.395863077906913"><ele>679.0</ele><time>2026-04-11T15:07:03Z</time></trkpt><trkpt lat="44.18948019492608" lon="11.395973326567153"><ele>679.0</ele><time>2026-04-11T15:07:04Z</time></trkpt><trkpt lat="44.189586983361465" lon="11.396044033897516"><ele>679.0</ele><time>2026-04-11T15:07:05Z</time></trkpt><trkpt lat="44.189715494146824" lon="11.396054435986546"><ele>679.0</ele><time>2026-04-11T15:07:06Z</time></trkpt><trkpt lat="44.1898298708992" lon="11.395990701238993"><ele>679.0</ele><time>2026-04-11T15:07:07Z</time></trkpt><trkpt lat="44.18992418171516" lon="11.395902525831332"><ele>679.0</ele><time>2026-04-11T15:07:08Z</time></trkpt><trkpt lat="44.1900030028402" lon="11.395766824741376"><ele>679.0</ele><time>2026-04-11T15:07:09Z</time></trkpt><trkpt lat="44.190059400982435" lon="11.395595302816934"><ele>682.0</ele><time>2026-04-11T15:07:10Z</time></trkpt><trkpt lat="44.19011119336667" lon="11.395442413075864"><ele>685.0</ele><time>2026-04-11T15:07:11Z</time></trkpt><trkpt lat="44.19016964112314" lon="11.395327816573399"><ele>688.0</ele><time>2026-04-11T15:07:12Z</time></trkpt><trkpt lat="44.190229920115456" lon="11.395240692007501"><ele>691.0</ele><time>2026-04-11T15:07:13Z</time></trkpt><trkpt lat="44.19033887756603" lon="11.395277926083269"><ele>694.0</ele><time>2026-04-11T15:07:14Z</time></trkpt><trkpt lat="44.19044122324395" lon="11.395302938983848"><ele>694.0</ele><time>2026-04-11T15:07:15Z</time></trkpt><trkpt lat="44.190518576757604" lon="11.395388190126052"><ele>694.0</ele><time>2026-04-11T15:07:16Z</time></trkpt><trkpt lat="44.190575032216906" lon="11.395523632324062"><ele>694.0</ele><time>2026-04-11T15:07:17Z</time></trkpt><trkpt lat="44.19064571826596" lon="11.395666072864659"><ele>694.0</ele><time>2026-04-11T15:07:18Z</time></trkpt><trkpt lat="44.19069393991991" lon="11.39581763244682"><ele>693.25</ele><time>2026-04-11T15:07:19Z</time></trkpt><trkpt lat="44.19075416450959" lon="11.395953842087064"><ele>692.5</ele><time>2026-04-11T15:07:20Z</time></trkpt><trkpt lat="44.19082299375514" lon="11.396093868871466"><ele>691.75</ele><time>2026-04-11T15:07:21Z</time></trkpt><trkpt lat="44.19088977348544" lon="11.396239743028978"><ele>691.0</ele><time>2026-04-11T15:07:22Z</time></trkpt><trkpt lat="44.19095939830273" lon="11.39638674143379"><ele>690.0</ele><time>2026-04-11T15:07:23Z</time></trkpt><trkpt lat="44.1910258027419" lon="11.396532776068382"><ele>689.0</ele><time>2026-04-11T15:07:24Z</time></trkpt><trkpt lat="44.19109375144493" lon="11.396660119109347"><ele>688.0</ele><time>2026-04-11T15:07:25Z</time></trkpt><trkpt lat="44.19116578047211" lon="11.396767313539979"><ele>687.0</ele><time>2026-04-11T15:07:26Z</time></trkpt><trkpt lat="44.19124500376209" lon="11.396853632328957"><ele>686.0</ele><time>2026-04-11T15:07:27Z</time></trkpt><trkpt lat="44.19134752360408" lon="11.396901317567039"><ele>686.0</ele><time>2026-04-11T15:07:28Z</time></trkpt><trkpt lat="44.191468416576356" lon="11.396906367665641"><ele>686.0</ele><time>2026-04-11T15:07:29Z</time></trkpt><trkpt lat="44.19160011696993" lon="11.396886362209683"><ele>686.0</ele><time>2026-04-11T15:07:30Z</time></trkpt><trkpt lat="44.1917373288801" lon="11.396878550153875"><ele>686.0</ele><time>2026-04-11T15:07:31Z</time></trkpt><trkpt lat="44.19188356483125" lon="11.39687794013486"><ele>686.5</ele><time>2026-04-11T15:07:32Z</time></trkpt><trkpt lat="44.19202077083453" lon="11.39687156583395"><ele>687.0</ele><time>2026-04-11T15:07:33Z</time></trkpt><trkpt lat="44.19214979689414" lon="11.396871954476604"><ele>687.5</ele><time>2026-04-11T15:07:34Z</time></trkpt><trkpt lat="44.19227245761514" lon="11.396873078966651"><ele>688.0</ele><time>2026-04-11T15:07:35Z</time></trkpt><trkpt lat="44.19239458385887" lon="11.396873507564917"><ele>688.0</ele><time>2026-04-11T15:07:36Z</time></trkpt><trkpt lat="44.19252796851472" lon="11.396868219287452"><ele>688.0</ele><time>2026-04-11T15:07:37Z</time></trkpt><trkpt lat="44.19266694284905" lon="11.3968609244384"><ele>688.0</ele><time>2026-04-11T15:07:38Z</time></trkpt><trkpt lat="44.192811080865724" lon="11.396862342225623"><ele>688.0</ele><time>2026-04-11T15:07:39Z</time></trkpt><trkpt lat="44.19295295762515" lon="11.396867996583547"><ele>688.0</ele><time>2026-04-11T15:07:40Z</time></trkpt><trkpt lat="44.1931008072367" lon="11.396867022705319"><ele>688.0</ele><time>2026-04-11T15:07:41Z</time></trkpt><trkpt lat="44.19324449043632" lon="11.396861612088966"><ele>688.0</ele><time>2026-04-11T15:07:42Z</time></trkpt><trkpt lat="44.193384554064394" lon="11.396859354656007"><ele>688.0</ele><time>2026-04-11T15:07:43Z</time></trkpt><trkpt lat="44.19351820616584" lon="11.396856178919657"><ele>687.5</ele><time>2026-04-11T15:07:44Z</time></trkpt><trkpt lat="44.19365275013147" lon="11.396855300785893"><ele>687.0</ele><time>2026-04-11T15:07:45Z</time></trkpt><trkpt lat="44.19378120984497" lon="11.396861745623557"><ele>686.5</ele><time>2026-04-11T15:07:46Z</time></trkpt><trkpt lat="44.19390718029016" lon="11.396885698140228"><ele>686.0</ele><time>2026-04-11T15:07:47Z</time></trkpt><trkpt lat="44.19403578609642" lon="11.396940474492371"><ele>685.75</ele><time>2026-04-11T15:07:48Z</time></trkpt><trkpt lat="44.194153835559426" lon="11.39701854031807"><ele>685.5</ele><time>2026-04-11T15:07:49Z</time></trkpt><trkpt lat="44.19426515594074" lon="11.397111553922944"><ele>685.25</ele><time>2026-04-11T15:07:50Z</time></trkpt><trkpt lat="44.19437181131439" lon="11.39722999374882"><ele>685.0</ele><time>2026-04-11T15:07:51Z</time></trkpt><trkpt lat="44.19446551472329" lon="11.397374117833206"><ele>683.5</ele><time>2026-04-11T15:07:51.999Z</time></trkpt><trkpt lat="44.19454437823004" lon="11.397526887428274"><ele>682.0</ele><time>2026-04-11T15:07:52.999Z</time></trkpt><trkpt lat="44.19460268859381" lon="11.397694156484029"><ele>680.5</ele><time>2026-04-11T15:07:53.999Z</time></trkpt><trkpt lat="44.19466236036494" lon="11.3978603454671"><ele>679.0</ele><time>2026-04-11T15:07:54.999Z</time></trkpt><trkpt lat="44.194732193768246" lon="11.398018722892225"><ele>678.0</ele><time>2026-04-11T15:07:55.999Z</time></trkpt><trkpt lat="44.19481695415302" lon="11.39816239526572"><ele>677.0</ele><time>2026-04-11T15:07:56.999Z</time></trkpt><trkpt lat="44.194903736670874" lon="11.398292724328469"><ele>676.0</ele><time>2026-04-11T15:07:57.999Z</time></trkpt><trkpt lat="44.195002831236785" lon="11.398421170416844"><ele>675.0</ele><time>2026-04-11T15:07:58.999Z</time></trkpt><trkpt lat="44.19510051904696" lon="11.398544150205991"><ele>676.5</ele><time>2026-04-11T15:07:59.999Z</time></trkpt><trkpt lat="44.1952015575831" lon="11.398664455343834"><ele>678.0</ele><time>2026-04-11T15:08:00.999Z</time></trkpt><trkpt lat="44.195298468823644" lon="11.398785785264684"><ele>679.5</ele><time>2026-04-11T15:08:01.999Z</time></trkpt><trkpt lat="44.19538222018963" lon="11.398920160023893"><ele>681.0</ele><time>2026-04-11T15:08:02.999Z</time></trkpt><trkpt lat="44.195443394592274" lon="11.399071331804826"><ele>681.0</ele><time>2026-04-11T15:08:03.999Z</time></trkpt><trkpt lat="44.19544882984061" lon="11.399267807684947"><ele>681.0</ele><time>2026-04-11T15:08:04.999Z</time></trkpt><trkpt lat="44.195450012421354" lon="11.399447638941755"><ele>681.0</ele><time>2026-04-11T15:08:05.999Z</time></trkpt><trkpt lat="44.19542688722305" lon="11.399630481913091"><ele>681.0</ele><time>2026-04-11T15:08:06.999Z</time></trkpt><trkpt lat="44.195402071642604" lon="11.399804942058607"><ele>680.5</ele><time>2026-04-11T15:08:07.999Z</time></trkpt><trkpt lat="44.19542232547392" lon="11.399955041732497"><ele>680.0</ele><time>2026-04-11T15:08:08.999Z</time></trkpt><trkpt lat="44.19549886203595" lon="11.40009195302149"><ele>679.5</ele><time>2026-04-11T15:08:09.999Z</time></trkpt><trkpt lat="44.19561510600806" lon="11.40017339314005"><ele>679.0</ele><time>2026-04-11T15:08:10.999Z</time></trkpt><trkpt lat="44.195742482657764" lon="11.400217333391577"><ele>683.5</ele><time>2026-04-11T15:08:11.999Z</time></trkpt><trkpt lat="44.195868702655126" lon="11.400248968042415"><ele>688.0</ele><time>2026-04-11T15:08:12.999Z</time></trkpt><trkpt lat="44.19599610921109" lon="11.400281556812319"><ele>692.5</ele><time>2026-04-11T15:08:13.999Z</time></trkpt><trkpt lat="44.19612147988265" lon="11.400313124512632"><ele>697.0</ele><time>2026-04-11T15:08:14.999Z</time></trkpt><trkpt lat="44.19624798301404" lon="11.40034460602164"><ele>697.0</ele><time>2026-04-11T15:08:15.999Z</time></trkpt><trkpt lat="44.19637657080515" lon="11.400379731429314"><ele>697.0</ele><time>2026-04-11T15:08:16.999Z</time></trkpt><trkpt lat="44.196502091692096" lon="11.400411998363362"><ele>697.0</ele><time>2026-04-11T15:08:17.999Z</time></trkpt><trkpt lat="44.196628315353" lon="11.400438840118033"><ele>697.0</ele><time>2026-04-11T15:08:18.999Z</time></trkpt><trkpt lat="44.196755385541884" lon="11.400467508447834"><ele>697.75</ele><time>2026-04-11T15:08:19.999Z</time></trkpt><trkpt lat="44.19688167336892" lon="11.400510325648654"><ele>698.5</ele><time>2026-04-11T15:08:20.999Z</time></trkpt><trkpt lat="44.19699659702035" lon="11.400600628989643"><ele>699.25</ele><time>2026-04-11T15:08:21.999Z</time></trkpt><trkpt lat="44.197087480010275" lon="11.400741664566295"><ele>700.0</ele><time>2026-04-11T15:08:22.999Z</time></trkpt><trkpt lat="44.19713921159209" lon="11.40092325913833"><ele>700.0</ele><time>2026-04-11T15:08:23.999Z</time></trkpt><trkpt lat="44.19714195442344" lon="11.40111784822715"><ele>700.0</ele><time>2026-04-11T15:08:24.999Z</time></trkpt><trkpt lat="44.19710590715541" lon="11.401307210619239"><ele>700.0</ele><time>2026-04-11T15:08:25.999Z</time></trkpt><trkpt lat="44.19705628490186" lon="11.401494307583974"><ele>700.0</ele><time>2026-04-11T15:08:26.999Z</time></trkpt><trkpt lat="44.19703386024706" lon="11.401688874240728"><ele>700.25</ele><time>2026-04-11T15:08:27.999Z</time></trkpt><trkpt lat="44.197041392664545" lon="11.401884982156083"><ele>700.5</ele><time>2026-04-11T15:08:28.999Z</time></trkpt><trkpt lat="44.19706858139771" lon="11.402079163583156"><ele>700.75</ele><time>2026-04-11T15:08:29.999Z</time></trkpt><trkpt lat="44.19710073957387" lon="11.402263890190943"><ele>701.0</ele><time>2026-04-11T15:08:30.999Z</time></trkpt><trkpt lat="44.19713952286948" lon="11.40245559358262"><ele>701.0</ele><time>2026-04-11T15:08:31.999Z</time></trkpt><trkpt lat="44.19716068481383" lon="11.402640371738617"><ele>701.0</ele><time>2026-04-11T15:08:32.999Z</time></trkpt><trkpt lat="44.19716248457675" lon="11.402826099117535"><ele>701.0</ele><time>2026-04-11T15:08:33.999Z</time></trkpt><trkpt lat="44.197130270355636" lon="11.402998060387901"><ele>701.0</ele><time>2026-04-11T15:08:34.999Z</time></trkpt><trkpt lat="44.197088683598935" lon="11.403165326709539"><ele>702.5</ele><time>2026-04-11T15:08:35.999Z</time></trkpt><trkpt lat="44.19709106665878" lon="11.403345688055307"><ele>704.0</ele><time>2026-04-11T15:08:36.999Z</time></trkpt><trkpt lat="44.197128223025935" lon="11.40352706474403"><ele>705.5</ele><time>2026-04-11T15:08:37.999Z</time></trkpt><trkpt lat="44.197184722021284" lon="11.40369132283875"><ele>707.0</ele><time>2026-04-11T15:08:38.999Z</time></trkpt><trkpt lat="44.19721059089366" lon="11.403875024638332"><ele>708.0</ele><time>2026-04-11T15:08:39.999Z</time></trkpt><trkpt lat="44.197181374336786" lon="11.404060826868145"><ele>709.0</ele><time>2026-04-11T15:08:40.999Z</time></trkpt><trkpt lat="44.197131106656784" lon="11.404238709567435"><ele>710.0</ele><time>2026-04-11T15:08:41.999Z</time></trkpt><trkpt lat="44.19708823028735" lon="11.404423652070548"><ele>711.0</ele><time>2026-04-11T15:08:42.999Z</time></trkpt><trkpt lat="44.197061069447656" lon="11.404611599497755"><ele>711.5</ele><time>2026-04-11T15:08:43.999Z</time></trkpt><trkpt lat="44.19706357218139" lon="11.40479742359811"><ele>712.0</ele><time>2026-04-11T15:08:44.999Z</time></trkpt><trkpt lat="44.19710870432984" lon="11.404973683965036"><ele>712.5</ele><time>2026-04-11T15:08:45.999Z</time></trkpt><trkpt lat="44.197185022777056" lon="11.405127944527953"><ele>713.0</ele><time>2026-04-11T15:08:46.999Z</time></trkpt><trkpt lat="44.19726480369139" lon="11.405269680658014"><ele>713.0</ele><time>2026-04-11T15:08:47.999Z</time></trkpt><trkpt lat="44.19730358525604" lon="11.405440776307856"><ele>713.0</ele><time>2026-04-11T15:08:48.999Z</time></trkpt><trkpt lat="44.19730462621219" lon="11.405632653581026"><ele>713.0</ele><time>2026-04-11T15:08:49.999Z</time></trkpt><trkpt lat="44.19727638507557" lon="11.405822714060678"><ele>713.0</ele><time>2026-04-11T15:08:50.999Z</time></trkpt><trkpt lat="44.197229774766576" lon="11.40600839289802"><ele>715.5</ele><time>2026-04-11T15:08:51.999Z</time></trkpt><trkpt lat="44.19718864220429" lon="11.406194928293058"><ele>718.0</ele><time>2026-04-11T15:08:52.999Z</time></trkpt><trkpt lat="44.19715723407541" lon="11.406365962029414"><ele>720.5</ele><time>2026-04-11T15:08:53.999Z</time></trkpt><trkpt lat="44.1971010044288" lon="11.40649616545895"><ele>723.0</ele><time>2026-04-11T15:08:54.999Z</time></trkpt><trkpt lat="44.197036864628025" lon="11.406602843659524"><ele>725.8</ele><time>2026-04-11T15:08:55.999Z</time></trkpt><trkpt lat="44.19699109669577" lon="11.406707624113618"><ele>728.5999999999999</ele><time>2026-04-11T15:08:56.999Z</time></trkpt><trkpt lat="44.19697262286725" lon="11.406831089494656"><ele>731.4000000000001</ele><time>2026-04-11T15:08:57.999Z</time></trkpt><trkpt lat="44.19699806861021" lon="11.406966203072832"><ele>734.2</ele><time>2026-04-11T15:08:58.999Z</time></trkpt><trkpt lat="44.19705444404789" lon="11.407059569985305"><ele>737.0</ele><time>2026-04-11T15:08:59.999Z</time></trkpt><trkpt lat="44.197134141998255" lon="11.407105871812414"><ele>737.0</ele><time>2026-04-11T15:09:01Z</time></trkpt><trkpt lat="44.19722725246647" lon="11.407094488100293"><ele>737.0</ele><time>2026-04-11T15:09:02Z</time></trkpt><trkpt lat="44.197319509084195" lon="11.407022568673051"><ele>737.0</ele><time>2026-04-11T15:09:03Z</time></trkpt><trkpt lat="44.19738514688983" lon="11.40689807097982"><ele>737.0</ele><time>2026-04-11T15:09:04Z</time></trkpt><trkpt lat="44.19744892591161" lon="11.406778758589919"><ele>737.0</ele><time>2026-04-11T15:09:05Z</time></trkpt><trkpt lat="44.19751313253537" lon="11.406670214314666"><ele>738.25</ele><time>2026-04-11T15:09:06Z</time></trkpt><trkpt lat="44.197575552048015" lon="11.406544029801996"><ele>739.5</ele><time>2026-04-11T15:09:07Z</time></trkpt><trkpt lat="44.19765892663116" lon="11.406428010769238"><ele>740.75</ele><time>2026-04-11T15:09:08Z</time></trkpt><trkpt lat="44.19776053103091" lon="11.406319206614647"><ele>742.0</ele><time>2026-04-11T15:09:09Z</time></trkpt><trkpt lat="44.19786898844653" lon="11.406232176377845"><ele>742.0</ele><time>2026-04-11T15:09:10Z</time></trkpt><trkpt lat="44.19796885828187" lon="11.406177122860774"><ele>742.0</ele><time>2026-04-11T15:09:11Z</time></trkpt><trkpt lat="44.19806650844872" lon="11.406143336716866"><ele>742.0</ele><time>2026-04-11T15:09:12Z</time></trkpt><trkpt lat="44.198152111450796" lon="11.406141384447778"><ele>742.0</ele><time>2026-04-11T15:09:13Z</time></trkpt><trkpt lat="44.19822850256595" lon="11.406119889866298"><ele>742.0</ele><time>2026-04-11T15:09:14Z</time></trkpt><trkpt lat="44.19830125599732" lon="11.406102104532252"><ele>742.0</ele><time>2026-04-11T15:09:15Z</time></trkpt><trkpt lat="44.19837721388898" lon="11.406070415612197"><ele>742.8</ele><time>2026-04-11T15:09:17Z</time></trkpt><trkpt lat="44.19846181668215" lon="11.40608611081804"><ele>743.6</ele><time>2026-04-11T15:09:19Z</time></trkpt><trkpt lat="44.198528192522" lon="11.406122070600896"><ele>744.4</ele><time>2026-04-11T15:09:22Z</time></trkpt><trkpt lat="44.1986053915597" lon="11.406140702008024"><ele>745.1999999999999</ele><time>2026-04-11T15:09:52Z</time></trkpt><trkpt lat="44.19851556031924" lon="11.406259624494576"><ele>746.0</ele><time>2026-04-11T15:09:54Z</time></trkpt><trkpt lat="44.19851794406035" lon="11.406433935514364"><ele>746.0</ele><time>2026-04-11T15:10:01.999Z</time></trkpt><trkpt lat="44.19852786151135" lon="11.406555077032811"><ele>746.0</ele><time>2026-04-11T15:10:02.999Z</time></trkpt><trkpt lat="44.19854966181221" lon="11.40668886403765"><ele>746.0</ele><time>2026-04-11T15:10:03.999Z</time></trkpt><trkpt lat="44.19856288408227" lon="11.406851200071484"><ele>746.0</ele><time>2026-04-11T15:10:04.999Z</time></trkpt><trkpt lat="44.19858196381095" lon="11.407026903363924"><ele>746.0</ele><time>2026-04-11T15:10:05.999Z</time></trkpt><trkpt lat="44.198593689714734" lon="11.407222009506226"><ele>743.6666666666666</ele><time>2026-04-11T15:10:06.999Z</time></trkpt><trkpt lat="44.198592079225755" lon="11.407439592311567"><ele>741.3333333333334</ele><time>2026-04-11T15:10:07.999Z</time></trkpt><trkpt lat="44.19856445759149" lon="11.407659744895781"><ele>739.0</ele><time>2026-04-11T15:10:08.999Z</time></trkpt><trkpt lat="44.198560006778536" lon="11.407873862479574"><ele>736.3333333333334</ele><time>2026-04-11T15:10:09.999Z</time></trkpt><trkpt lat="44.198529912079294" lon="11.40811829491025"><ele>733.6666666666666</ele><time>2026-04-11T15:10:10.999Z</time></trkpt><trkpt lat="44.1985079087697" lon="11.408383200194963"><ele>731.0</ele><time>2026-04-11T15:10:11.999Z</time></trkpt><trkpt lat="44.1984880867708" lon="11.408633425229118"><ele>728.6666666666666</ele><time>2026-04-11T15:10:12.999Z</time></trkpt><trkpt lat="44.198464557567654" lon="11.40887076405099"><ele>726.3333333333334</ele><time>2026-04-11T15:10:13.999Z</time></trkpt><trkpt lat="44.19843470650367" lon="11.409116556304875"><ele>724.0</ele><time>2026-04-11T15:10:14.999Z</time></trkpt><trkpt lat="44.19839049048142" lon="11.409353408807167"><ele>724.0</ele><time>2026-04-11T15:10:15.999Z</time></trkpt><trkpt lat="44.19833127322358" lon="11.409585279787535"><ele>724.0</ele><time>2026-04-11T15:10:16.999Z</time></trkpt><trkpt lat="44.198266073367535" lon="11.409799869802324"><ele>724.0</ele><time>2026-04-11T15:10:17.999Z</time></trkpt><trkpt lat="44.198211733991336" lon="11.410016296308735"><ele>722.3333333333334</ele><time>2026-04-11T15:10:18.999Z</time></trkpt><trkpt lat="44.19819553664658" lon="11.410231505645044"><ele>720.6666666666666</ele><time>2026-04-11T15:10:19.999Z</time></trkpt><trkpt lat="44.19823240474535" lon="11.410458000340814"><ele>719.0</ele><time>2026-04-11T15:10:20.999Z</time></trkpt><trkpt lat="44.198302822932455" lon="11.41069016499313"><ele>716.0</ele><time>2026-04-11T15:10:21.999Z</time></trkpt><trkpt lat="44.1983893149702" lon="11.410908532016295"><ele>713.0</ele><time>2026-04-11T15:10:22.999Z</time></trkpt><trkpt lat="44.19846168330451" lon="11.411121027713742"><ele>710.0</ele><time>2026-04-11T15:10:23.999Z</time></trkpt><trkpt lat="44.198533505966786" lon="11.411348895832834"><ele>710.0</ele><time>2026-04-11T15:10:24.999Z</time></trkpt><trkpt lat="44.19860956254685" lon="11.411573573480677"><ele>710.0</ele><time>2026-04-11T15:10:25.999Z</time></trkpt><trkpt lat="44.19868625463039" lon="11.411781197793596"><ele>710.0</ele><time>2026-04-11T15:10:26.999Z</time></trkpt><trkpt lat="44.19876900584256" lon="11.411974070348517"><ele>712.6666666666666</ele><time>2026-04-11T15:10:27.999Z</time></trkpt><trkpt lat="44.19884427849379" lon="11.412168404854839"><ele>715.3333333333334</ele><time>2026-04-11T15:10:28.999Z</time></trkpt><trkpt lat="44.198907144902925" lon="11.412396148443056"><ele>718.0</ele><time>2026-04-11T15:10:29.999Z</time></trkpt><trkpt lat="44.198919703516815" lon="11.41263632297834"><ele>718.0</ele><time>2026-04-11T15:10:30.999Z</time></trkpt><trkpt lat="44.19894993835617" lon="11.412876723264537"><ele>718.0</ele><time>2026-04-11T15:10:31.999Z</time></trkpt><trkpt lat="44.198965005041885" lon="11.413103674953117"><ele>718.0</ele><time>2026-04-11T15:10:32.999Z</time></trkpt><trkpt lat="44.199033972431906" lon="11.413328562914598"><ele>711.0</ele><time>2026-04-11T15:10:33.999Z</time></trkpt><trkpt lat="44.19914886120173" lon="11.413550103640684"><ele>704.0</ele><time>2026-04-11T15:10:34.999Z</time></trkpt><trkpt lat="44.19926690194585" lon="11.413744539729796"><ele>697.0</ele><time>2026-04-11T15:10:35.999Z</time></trkpt><trkpt lat="44.19940108464096" lon="11.413931082629146"><ele>697.0</ele><time>2026-04-11T15:10:36.999Z</time></trkpt><trkpt lat="44.199535851323716" lon="11.414090838414575"><ele>697.0</ele><time>2026-04-11T15:10:37.999Z</time></trkpt><trkpt lat="44.19969975861393" lon="11.414229576172213"><ele>697.0</ele><time>2026-04-11T15:10:38.999Z</time></trkpt><trkpt lat="44.19987255294184" lon="11.414358782522488"><ele>692.0</ele><time>2026-04-11T15:10:39.999Z</time></trkpt><trkpt lat="44.200039271186455" lon="11.4144700103738"><ele>687.0</ele><time>2026-04-11T15:10:40.999Z</time></trkpt><trkpt lat="44.200197276575835" lon="11.414580168419926"><ele>682.0</ele><time>2026-04-11T15:10:41.999Z</time></trkpt><trkpt lat="44.20033803479456" lon="11.41468353433536"><ele>682.0</ele><time>2026-04-11T15:10:42.999Z</time></trkpt><trkpt lat="44.200475694793404" lon="11.414784920758425"><ele>682.0</ele><time>2026-04-11T15:10:43.999Z</time></trkpt><trkpt lat="44.20060696332984" lon="11.41487808277798"><ele>682.0</ele><time>2026-04-11T15:10:44.999Z</time></trkpt><trkpt lat="44.20074412402893" lon="11.414936417480506"><ele>682.0</ele><time>2026-04-11T15:10:45.999Z</time></trkpt><trkpt lat="44.2008964953895" lon="11.414926594303111"><ele>679.0</ele><time>2026-04-11T15:10:46.999Z</time></trkpt><trkpt lat="44.20105738560825" lon="11.41484119468125"><ele>676.0</ele><time>2026-04-11T15:10:47.999Z</time></trkpt><trkpt lat="44.20120566253407" lon="11.414728804890759"><ele>673.0</ele><time>2026-04-11T15:10:48.999Z</time></trkpt><trkpt lat="44.20138253796517" lon="11.414696696647537"><ele>671.0</ele><time>2026-04-11T15:10:49.999Z</time></trkpt><trkpt lat="44.20156227842329" lon="11.414699586352164"><ele>669.0</ele><time>2026-04-11T15:10:50.999Z</time></trkpt><trkpt lat="44.20173376738551" lon="11.414744872209576"><ele>667.0</ele><time>2026-04-11T15:10:51.999Z</time></trkpt><trkpt lat="44.201908266284526" lon="11.414809564672076"><ele>667.0</ele><time>2026-04-11T15:10:52.999Z</time></trkpt><trkpt lat="44.20207049329434" lon="11.414868623557265"><ele>667.0</ele><time>2026-04-11T15:10:53.999Z</time></trkpt><trkpt lat="44.20222625003452" lon="11.41493157411085"><ele>667.0</ele><time>2026-04-11T15:10:54.999Z</time></trkpt><trkpt lat="44.20237194782266" lon="11.414980787576335"><ele>664.25</ele><time>2026-04-11T15:10:55.999Z</time></trkpt><trkpt lat="44.202519151890854" lon="11.41502799835707"><ele>661.5</ele><time>2026-04-11T15:10:56.999Z</time></trkpt><trkpt lat="44.20264680905056" lon="11.415073100866582"><ele>658.75</ele><time>2026-04-11T15:10:57.999Z</time></trkpt><trkpt lat="44.20276559988538" lon="11.415122576777971"><ele>656.0</ele><time>2026-04-11T15:10:58.999Z</time></trkpt><trkpt lat="44.20287868034958" lon="11.415165182800889"><ele>656.0</ele><time>2026-04-11T15:10:59.999Z</time></trkpt><trkpt lat="44.20297883020503" lon="11.415215110682295"><ele>656.0</ele><time>2026-04-11T15:11:00.999Z</time></trkpt><trkpt lat="44.20306029012423" lon="11.415334049588095"><ele>656.0</ele><time>2026-04-11T15:11:01.999Z</time></trkpt><trkpt lat="44.20316227736063" lon="11.41546418207162"><ele>656.0</ele><time>2026-04-11T15:11:02.999Z</time></trkpt><trkpt lat="44.203305730654534" lon="11.415561969010328"><ele>655.3333333333333</ele><time>2026-04-11T15:11:03.999Z</time></trkpt><trkpt lat="44.20342809503497" lon="11.415682858563285"><ele>654.6666666666666</ele><time>2026-04-11T15:11:04.999Z</time></trkpt><trkpt lat="44.20358471476699" lon="11.415804419222834"><ele>654.0</ele><time>2026-04-11T15:11:05.999Z</time></trkpt><trkpt lat="44.20373020579734" lon="11.415911066138529"><ele>654.0</ele><time>2026-04-11T15:11:07Z</time></trkpt><trkpt lat="44.20387167317417" lon="11.416026804073184"><ele>654.0</ele><time>2026-04-11T15:11:08Z</time></trkpt><trkpt lat="44.20399130800343" lon="11.41615358703406"><ele>654.0</ele><time>2026-04-11T15:11:09Z</time></trkpt><trkpt lat="44.2041152499666" lon="11.416273075203152"><ele>652.0</ele><time>2026-04-11T15:11:10Z</time></trkpt><trkpt lat="44.204246075437595" lon="11.416390740648882"><ele>650.0</ele><time>2026-04-11T15:11:11Z</time></trkpt><trkpt lat="44.2043759726746" lon="11.416504639871055"><ele>648.0</ele><time>2026-04-11T15:11:12Z</time></trkpt><trkpt lat="44.20450996381857" lon="11.416628891623947"><ele>648.0</ele><time>2026-04-11T15:11:13Z</time></trkpt><trkpt lat="44.20464360796689" lon="11.416758147806531"><ele>648.0</ele><time>2026-04-11T15:11:14Z</time></trkpt><trkpt lat="44.20477166935845" lon="11.416890795803132"><ele>648.0</ele><time>2026-04-11T15:11:15Z</time></trkpt><trkpt lat="44.20489559650165" lon="11.41704169406407"><ele>642.6666666666666</ele><time>2026-04-11T15:11:16Z</time></trkpt><trkpt lat="44.20501537988489" lon="11.417198223414518"><ele>637.3333333333333</ele><time>2026-04-11T15:11:17Z</time></trkpt><trkpt lat="44.20513585666333" lon="11.417358295891878"><ele>632.0</ele><time>2026-04-11T15:11:18Z</time></trkpt><trkpt lat="44.20526424238084" lon="11.417517548094363"><ele>632.0</ele><time>2026-04-11T15:11:19Z</time></trkpt><trkpt lat="44.20538726757447" lon="11.41766494125519"><ele>632.0</ele><time>2026-04-11T15:11:20Z</time></trkpt><trkpt lat="44.20552193892447" lon="11.417810637190623"><ele>632.0</ele><time>2026-04-11T15:11:21Z</time></trkpt><trkpt lat="44.20565676338638" lon="11.417941352777845"><ele>628.3333333333333</ele><time>2026-04-11T15:11:22Z</time></trkpt><trkpt lat="44.20579243680411" lon="11.418059737696394"><ele>624.6666666666666</ele><time>2026-04-11T15:11:23Z</time></trkpt><trkpt lat="44.205924799211445" lon="11.418199260750818"><ele>621.0</ele><time>2026-04-11T15:11:24Z</time></trkpt><trkpt lat="44.20605637887213" lon="11.418360264831021"><ele>621.0</ele><time>2026-04-11T15:11:25Z</time></trkpt><trkpt lat="44.20618012543006" lon="11.41853737384371"><ele>621.0</ele><time>2026-04-11T15:11:26Z</time></trkpt><trkpt lat="44.206293596730866" lon="11.418708655286828"><ele>621.0</ele><time>2026-04-11T15:11:27Z</time></trkpt><trkpt lat="44.206401267262414" lon="11.418874712477393"><ele>616.3333333333334</ele><time>2026-04-11T15:11:28Z</time></trkpt><trkpt lat="44.206508140352845" lon="11.41903379830394"><ele>611.6666666666667</ele><time>2026-04-11T15:11:29Z</time></trkpt><trkpt lat="44.206628264602955" lon="11.419196577633738"><ele>607.0</ele><time>2026-04-11T15:11:30Z</time></trkpt><trkpt lat="44.20674026316166" lon="11.419348291137235"><ele>607.0</ele><time>2026-04-11T15:11:31Z</time></trkpt><trkpt lat="44.20684794215572" lon="11.419506072302315"><ele>607.0</ele><time>2026-04-11T15:11:32Z</time></trkpt><trkpt lat="44.206947959746856" lon="11.419656825309737"><ele>607.0</ele><time>2026-04-11T15:11:33Z</time></trkpt><trkpt lat="44.20705185505301" lon="11.419803751759376"><ele>611.0</ele><time>2026-04-11T15:11:34Z</time></trkpt><trkpt lat="44.20715456902431" lon="11.419945911938855"><ele>615.0</ele><time>2026-04-11T15:11:35Z</time></trkpt><trkpt lat="44.207256852416286" lon="11.42009484309829"><ele>619.0</ele><time>2026-04-11T15:11:36Z</time></trkpt><trkpt lat="44.20734764563272" lon="11.420251713353109"><ele>623.0</ele><time>2026-04-11T15:11:37Z</time></trkpt><trkpt lat="44.207427565952365" lon="11.42041599845566"><ele>613.5</ele><time>2026-04-11T15:11:38Z</time></trkpt><trkpt lat="44.20749303200715" lon="11.420577140404676"><ele>604.0</ele><time>2026-04-11T15:11:39Z</time></trkpt><trkpt lat="44.20754833969823" lon="11.42073208225588"><ele>594.5</ele><time>2026-04-11T15:11:40Z</time></trkpt><trkpt lat="44.20759918388877" lon="11.42087313502187"><ele>585.0</ele><time>2026-04-11T15:11:41Z</time></trkpt><trkpt lat="44.20764607775615" lon="11.421010980758513"><ele>585.0</ele><time>2026-04-11T15:11:42Z</time></trkpt><trkpt lat="44.207631652290644" lon="11.421177958441238"><ele>585.0</ele><time>2026-04-11T15:11:43Z</time></trkpt><trkpt lat="44.20762973695262" lon="11.42134549411394"><ele>585.0</ele><time>2026-04-11T15:11:44Z</time></trkpt><trkpt lat="44.20763525341171" lon="11.421503358126893"><ele>585.0</ele><time>2026-04-11T15:11:45Z</time></trkpt><trkpt lat="44.20771210565708" lon="11.421668797605863"><ele>586.0</ele><time>2026-04-11T15:11:46Z</time></trkpt><trkpt lat="44.207831111208215" lon="11.42180774943143"><ele>587.0</ele><time>2026-04-11T15:11:47Z</time></trkpt><trkpt lat="44.207954620549884" lon="11.421922185615491"><ele>588.0</ele><time>2026-04-11T15:11:48Z</time></trkpt><trkpt lat="44.2080546422804" lon="11.422062525897609"><ele>589.0</ele><time>2026-04-11T15:11:49Z</time></trkpt><trkpt lat="44.208126037967176" lon="11.422241390434307"><ele>584.25</ele><time>2026-04-11T15:11:50Z</time></trkpt><trkpt lat="44.20818582090002" lon="11.422398065001438"><ele>579.5</ele><time>2026-04-11T15:11:51Z</time></trkpt><trkpt lat="44.2082314042576" lon="11.422572759874912"><ele>574.75</ele><time>2026-04-11T15:11:52Z</time></trkpt><trkpt lat="44.20828792559543" lon="11.422745298383639"><ele>570.0</ele><time>2026-04-11T15:11:53Z</time></trkpt><trkpt lat="44.20833418016997" lon="11.422911008069786"><ele>571.5</ele><time>2026-04-11T15:11:54Z</time></trkpt><trkpt lat="44.208382830305574" lon="11.423065319886767"><ele>573.0</ele><time>2026-04-11T15:11:55Z</time></trkpt><trkpt lat="44.20842821433487" lon="11.423218732605074"><ele>574.5</ele><time>2026-04-11T15:11:56Z</time></trkpt><trkpt lat="44.20846812806749" lon="11.423362999287614"><ele>576.0</ele><time>2026-04-11T15:11:57Z</time></trkpt><trkpt lat="44.20850876210962" lon="11.423500610130333"><ele>576.0</ele><time>2026-04-11T15:11:58Z</time></trkpt><trkpt lat="44.208537530450464" lon="11.423615588897558"><ele>576.0</ele><time>2026-04-11T15:11:59Z</time></trkpt><trkpt lat="44.208526514986616" lon="11.423721244724936"><ele>576.0</ele><time>2026-04-11T15:12:00Z</time></trkpt><trkpt lat="44.20861900761608" lon="11.42369901819456"><ele>576.0</ele><time>2026-04-11T15:12:06Z</time></trkpt><trkpt lat="44.20861242502629" lon="11.423599734352742"><ele>576.0</ele><time>2026-04-11T15:12:07Z</time></trkpt><trkpt lat="44.20860612402955" lon="11.423493189592747"><ele>576.0</ele><time>2026-04-11T15:12:07.999Z</time></trkpt><trkpt lat="44.20861052075247" lon="11.423394538315181"><ele>576.0</ele><time>2026-04-11T15:12:08.999Z</time></trkpt><trkpt lat="44.20859421433569" lon="11.42323660462216"><ele>576.0</ele><time>2026-04-11T15:12:10.999Z</time></trkpt><trkpt lat="44.2085738393314" lon="11.423038934267849"><ele>576.0</ele><time>2026-04-11T15:12:12.999Z</time></trkpt><trkpt lat="44.20855993012076" lon="11.422903340423582"><ele>576.0</ele><time>2026-04-11T15:12:13.999Z</time></trkpt><trkpt lat="44.208544285748836" lon="11.422752464753968"><ele>574.8</ele><time>2026-04-11T15:12:14.999Z</time></trkpt><trkpt lat="44.20851669539749" lon="11.4226280983058"><ele>573.6</ele><time>2026-04-11T15:12:15.999Z</time></trkpt><trkpt lat="44.208500007894436" lon="11.422483942649677"><ele>572.4</ele><time>2026-04-11T15:12:16.999Z</time></trkpt><trkpt lat="44.20848014220951" lon="11.422339748395897"><ele>571.2</ele><time>2026-04-11T15:12:17.999Z</time></trkpt><trkpt lat="44.20845440381202" lon="11.422184748191244"><ele>570.0</ele><time>2026-04-11T15:12:18.999Z</time></trkpt><trkpt lat="44.208437200754" lon="11.422026229232838"><ele>567.4</ele><time>2026-04-11T15:12:19.999Z</time></trkpt><trkpt lat="44.20842189066457" lon="11.421885605811454"><ele>564.8</ele><time>2026-04-11T15:12:20.999Z</time></trkpt><trkpt lat="44.208409522679354" lon="11.42173601718086"><ele>562.2</ele><time>2026-04-11T15:12:21.999Z</time></trkpt><trkpt lat="44.20841507193617" lon="11.421590247907709"><ele>559.6</ele><time>2026-04-11T15:12:22.999Z</time></trkpt><trkpt lat="44.208409264845926" lon="11.42146134038641"><ele>557.0</ele><time>2026-04-11T15:12:23.999Z</time></trkpt><trkpt lat="44.20839549701008" lon="11.421335820014683"><ele>556.5</ele><time>2026-04-11T15:12:24.999Z</time></trkpt><trkpt lat="44.20840272231538" lon="11.421219437794342"><ele>556.0</ele><time>2026-04-11T15:12:25.999Z</time></trkpt><trkpt lat="44.20840837753695" lon="11.421098782428043"><ele>555.5</ele><time>2026-04-11T15:12:26.999Z</time></trkpt><trkpt lat="44.20842308323054" lon="11.421001921764738"><ele>555.0</ele><time>2026-04-11T15:12:27.999Z</time></trkpt><trkpt lat="44.208429709274434" lon="11.420905839641163"><ele>554.5</ele><time>2026-04-11T15:12:28.999Z</time></trkpt><trkpt lat="44.20845219364479" lon="11.42078835051559"><ele>554.0</ele><time>2026-04-11T15:12:29.999Z</time></trkpt><trkpt lat="44.20845114338139" lon="11.42064352189792"><ele>553.2</ele><time>2026-04-11T15:12:30.999Z</time></trkpt><trkpt lat="44.20842477380138" lon="11.42047745650034"><ele>552.4</ele><time>2026-04-11T15:12:31.999Z</time></trkpt><trkpt lat="44.2084154902038" lon="11.420332049500404"><ele>551.6</ele><time>2026-04-11T15:12:32.999Z</time></trkpt><trkpt lat="44.20839918273388" lon="11.420190889952547"><ele>550.8</ele><time>2026-04-11T15:12:33.999Z</time></trkpt><trkpt lat="44.208363405584784" lon="11.420064818123697"><ele>550.0</ele><time>2026-04-11T15:12:34.999Z</time></trkpt><trkpt lat="44.208335860387415" lon="11.41994979198922"><ele>550.0</ele><time>2026-04-11T15:12:35.999Z</time></trkpt><trkpt lat="44.208350389988375" lon="11.419830165321011"><ele>550.0</ele><time>2026-04-11T15:12:36.999Z</time></trkpt><trkpt lat="44.20838277368815" lon="11.419726750905385"><ele>550.0</ele><time>2026-04-11T15:12:37.999Z</time></trkpt><trkpt lat="44.20844355824404" lon="11.419692042876326"><ele>550.0</ele><time>2026-04-11T15:12:39.999Z</time></trkpt><trkpt lat="44.208513013123266" lon="11.419659765777594"><ele>550.0</ele><time>2026-04-11T15:12:46.999Z</time></trkpt><trkpt lat="44.20860557167006" lon="11.419613258562153"><ele>550.0</ele><time>2026-04-11T15:12:47.999Z</time></trkpt><trkpt lat="44.20868459391729" lon="11.419555073085418"><ele>550.0</ele><time>2026-04-11T15:12:48.999Z</time></trkpt><trkpt lat="44.20874532559429" lon="11.419512469021987"><ele>550.0</ele><time>2026-04-11T15:12:49.999Z</time></trkpt><trkpt lat="44.20880505648271" lon="11.41946896805877"><ele>550.0</ele><time>2026-04-11T15:12:50.999Z</time></trkpt><trkpt lat="44.2088809689334" lon="11.41948328313532"><ele>550.0</ele><time>2026-04-11T15:12:51.999Z</time></trkpt><trkpt lat="44.20894974557217" lon="11.419521542948695"><ele>550.0</ele><time>2026-04-11T15:12:52.999Z</time></trkpt><trkpt lat="44.209002531410505" lon="11.419580027467585"><ele>550.0</ele><time>2026-04-11T15:12:53.999Z</time></trkpt><trkpt lat="44.209002530229064" lon="11.419672635120726"><ele>550.0</ele><time>2026-04-11T15:12:54.999Z</time></trkpt><trkpt lat="44.20895264697244" lon="11.41982536423747"><ele>550.0</ele><time>2026-04-11T15:12:56.999Z</time></trkpt><trkpt lat="44.208918346009625" lon="11.41991348908379"><ele>550.0</ele><time>2026-04-11T15:12:57.999Z</time></trkpt><trkpt lat="44.208900114799945" lon="11.420008464685774"><ele>550.0</ele><time>2026-04-11T15:12:58.999Z</time></trkpt><trkpt lat="44.20888040234892" lon="11.420099027732283"><ele>550.0</ele><time>2026-04-11T15:12:59.999Z</time></trkpt><trkpt lat="44.208862556498836" lon="11.420219062185748"><ele>550.0</ele><time>2026-04-11T15:13:00.999Z</time></trkpt><trkpt lat="44.20890910928935" lon="11.420332280396709"><ele>550.0</ele><time>2026-04-11T15:13:01.999Z</time></trkpt><trkpt lat="44.20896198760798" lon="11.420415227475468"><ele>549.3333333333334</ele><time>2026-04-11T15:13:02.999Z</time></trkpt><trkpt lat="44.20903155233002" lon="11.420490225400375"><ele>548.6666666666667</ele><time>2026-04-11T15:13:03.999Z</time></trkpt><trkpt lat="44.209121456587546" lon="11.420567647324956"><ele>548.0</ele><time>2026-04-11T15:13:04.999Z</time></trkpt><trkpt lat="44.20919784013751" lon="11.420629376954023"><ele>547.3333333333334</ele><time>2026-04-11T15:13:05.999Z</time></trkpt><trkpt lat="44.20926857056609" lon="11.420660508699184"><ele>546.6666666666666</ele><time>2026-04-11T15:13:06.999Z</time></trkpt><trkpt lat="44.209356901807034" lon="11.420665474687787"><ele>546.0</ele><time>2026-04-11T15:13:07.999Z</time></trkpt><trkpt lat="44.20944155576415" lon="11.420642942375268"><ele>546.0</ele><time>2026-04-11T15:13:08.999Z</time></trkpt><trkpt lat="44.209528591846365" lon="11.420631933955514"><ele>546.0</ele><time>2026-04-11T15:13:09.999Z</time></trkpt><trkpt lat="44.20961683275158" lon="11.420655817659327"><ele>546.0</ele><time>2026-04-11T15:13:10.999Z</time></trkpt><trkpt lat="44.20970442445224" lon="11.42069685224791"><ele>546.0</ele><time>2026-04-11T15:13:11.999Z</time></trkpt><trkpt lat="44.20978523625984" lon="11.42075411024687"><ele>546.0</ele><time>2026-04-11T15:13:13Z</time></trkpt><trkpt lat="44.2098673114632" lon="11.420832675588716"><ele>549.6</ele><time>2026-04-11T15:13:14Z</time></trkpt><trkpt lat="44.20994687614812" lon="11.420936696195316"><ele>553.2</ele><time>2026-04-11T15:13:15Z</time></trkpt><trkpt lat="44.21002037858529" lon="11.421052943705401"><ele>556.8</ele><time>2026-04-11T15:13:16Z</time></trkpt><trkpt lat="44.21005914717319" lon="11.421137551143941"><ele>560.4</ele><time>2026-04-11T15:13:17Z</time></trkpt><trkpt lat="44.210107769836725" lon="11.421218408721284"><ele>564.0</ele><time>2026-04-11T15:13:19Z</time></trkpt><trkpt lat="44.210192116673305" lon="11.42124069301443"><ele>564.0</ele><time>2026-04-11T15:13:22Z</time></trkpt><trkpt lat="44.21031957722802" lon="11.421276781010397"><ele>564.0</ele><time>2026-04-11T15:13:24Z</time></trkpt><trkpt lat="44.21039458938595" lon="11.421303038693186"><ele>564.0</ele><time>2026-04-11T15:13:25Z</time></trkpt><trkpt lat="44.21046842341492" lon="11.42132176239713"><ele>564.0</ele><time>2026-04-11T15:13:26Z</time></trkpt><trkpt lat="44.210540353218114" lon="11.421311738671397"><ele>564.0</ele><time>2026-04-11T15:13:27Z</time></trkpt><trkpt lat="44.21061330771879" lon="11.421273447351595"><ele>564.0</ele><time>2026-04-11T15:13:28Z</time></trkpt><trkpt lat="44.2106882298125" lon="11.421216494502868"><ele>566.3333333333334</ele><time>2026-04-11T15:13:29Z</time></trkpt><trkpt lat="44.21075448510654" lon="11.421151844263848"><ele>568.6666666666666</ele><time>2026-04-11T15:13:30Z</time></trkpt><trkpt lat="44.210809595827115" lon="11.421080427656515"><ele>571.0</ele><time>2026-04-11T15:13:31Z</time></trkpt><trkpt lat="44.210864177836726" lon="11.420989983124903"><ele>573.3333333333333</ele><time>2026-04-11T15:13:32Z</time></trkpt><trkpt lat="44.21091206331337" lon="11.420862887559952"><ele>575.6666666666666</ele><time>2026-04-11T15:13:33Z</time></trkpt><trkpt lat="44.21097557516365" lon="11.4207468309578"><ele>578.0</ele><time>2026-04-11T15:13:34Z</time></trkpt><trkpt lat="44.211037110946734" lon="11.420669191886017"><ele>578.0</ele><time>2026-04-11T15:13:35Z</time></trkpt><trkpt lat="44.2111183805769" lon="11.420598270328577"><ele>578.0</ele><time>2026-04-11T15:13:36Z</time></trkpt><trkpt lat="44.21121846478569" lon="11.420523458045563"><ele>578.0</ele><time>2026-04-11T15:13:37Z</time></trkpt><trkpt lat="44.21132903429175" lon="11.420442901277433"><ele>578.0</ele><time>2026-04-11T15:13:38Z</time></trkpt><trkpt lat="44.21142936716131" lon="11.420371121932547"><ele>578.0</ele><time>2026-04-11T15:13:39Z</time></trkpt><trkpt lat="44.2115155588531" lon="11.42031529478872"><ele>581.8333333333333</ele><time>2026-04-11T15:13:40Z</time></trkpt><trkpt lat="44.211580498053124" lon="11.420288960664422"><ele>585.6666666666666</ele><time>2026-04-11T15:13:41Z</time></trkpt><trkpt lat="44.211649526504054" lon="11.420293283101012"><ele>589.5</ele><time>2026-04-11T15:13:42Z</time></trkpt><trkpt lat="44.21172696075889" lon="11.420323657528739"><ele>593.3333333333334</ele><time>2026-04-11T15:13:43Z</time></trkpt><trkpt lat="44.21182354420421" lon="11.420371728066515"><ele>597.1666666666667</ele><time>2026-04-11T15:13:44Z</time></trkpt><trkpt lat="44.21193009469917" lon="11.420403277678659"><ele>601.0</ele><time>2026-04-11T15:13:45Z</time></trkpt><trkpt lat="44.21202876351535" lon="11.42041371572781"><ele>601.0</ele><time>2026-04-11T15:13:46Z</time></trkpt><trkpt lat="44.21212952733066" lon="11.420398379365105"><ele>601.0</ele><time>2026-04-11T15:13:47Z</time></trkpt><trkpt lat="44.21222866099071" lon="11.420343829772781"><ele>601.0</ele><time>2026-04-11T15:13:48Z</time></trkpt><trkpt lat="44.212338622919376" lon="11.420273665691589"><ele>601.0</ele><time>2026-04-11T15:13:49Z</time></trkpt><trkpt lat="44.21246991565464" lon="11.4201892918544"><ele>603.0</ele><time>2026-04-11T15:13:50Z</time></trkpt><trkpt lat="44.21257510698848" lon="11.42011752781877"><ele>605.0</ele><time>2026-04-11T15:13:51Z</time></trkpt><trkpt lat="44.21266044309684" lon="11.42002589763171"><ele>607.0</ele><time>2026-04-11T15:13:52Z</time></trkpt><trkpt lat="44.21273813973327" lon="11.41991026991598"><ele>609.0</ele><time>2026-04-11T15:13:53Z</time></trkpt><trkpt lat="44.21282286954821" lon="11.419781922058418"><ele>610.25</ele><time>2026-04-11T15:13:54Z</time></trkpt><trkpt lat="44.212923891361285" lon="11.419649587845118"><ele>611.5</ele><time>2026-04-11T15:13:55Z</time></trkpt><trkpt lat="44.213034609500866" lon="11.41953215649845"><ele>612.75</ele><time>2026-04-11T15:13:56Z</time></trkpt><trkpt lat="44.213138716289464" lon="11.419396356667068"><ele>614.0</ele><time>2026-04-11T15:13:57Z</time></trkpt><trkpt lat="44.21322101087922" lon="11.419273779981264"><ele>614.4</ele><time>2026-04-11T15:13:58Z</time></trkpt><trkpt lat="44.213280520811054" lon="11.419154452699294"><ele>614.8</ele><time>2026-04-11T15:13:59Z</time></trkpt><trkpt lat="44.21333769184157" lon="11.419039103315397"><ele>615.2</ele><time>2026-04-11T15:14:00Z</time></trkpt><trkpt lat="44.21338153425573" lon="11.418895350586093"><ele>615.6</ele><time>2026-04-11T15:14:01Z</time></trkpt><trkpt lat="44.21341834254265" lon="11.418733233680314"><ele>616.0</ele><time>2026-04-11T15:14:02Z</time></trkpt><trkpt lat="44.213475813973226" lon="11.4185893959155"><ele>617.2</ele><time>2026-04-11T15:14:03Z</time></trkpt><trkpt lat="44.213519854282104" lon="11.41848655070468"><ele>618.4000000000001</ele><time>2026-04-11T15:14:04Z</time></trkpt><trkpt lat="44.213573508907444" lon="11.418382126406039"><ele>619.6</ele><time>2026-04-11T15:14:05Z</time></trkpt><trkpt lat="44.21366154188215" lon="11.418295628624143"><ele>620.8000000000001</ele><time>2026-04-11T15:14:06Z</time></trkpt><trkpt lat="44.213760915613555" lon="11.418202431432492"><ele>622.0</ele><time>2026-04-11T15:14:07Z</time></trkpt><trkpt lat="44.213869039166475" lon="11.41811151763433"><ele>622.75</ele><time>2026-04-11T15:14:08Z</time></trkpt><trkpt lat="44.213992442547735" lon="11.418004919130963"><ele>623.5</ele><time>2026-04-11T15:14:09Z</time></trkpt><trkpt lat="44.214122525783225" lon="11.417892085122142"><ele>624.25</ele><time>2026-04-11T15:14:10Z</time></trkpt><trkpt lat="44.21423341968565" lon="11.417770720775302"><ele>625.0</ele><time>2026-04-11T15:14:11Z</time></trkpt><trkpt lat="44.21434443287089" lon="11.417646268255934"><ele>628.5</ele><time>2026-04-11T15:14:12Z</time></trkpt><trkpt lat="44.214436768731325" lon="11.417511505660851"><ele>632.0</ele><time>2026-04-11T15:14:13Z</time></trkpt><trkpt lat="44.214520882403654" lon="11.41737362177566"><ele>635.5</ele><time>2026-04-11T15:14:14Z</time></trkpt><trkpt lat="44.21460904217616" lon="11.417233271227255"><ele>639.0</ele><time>2026-04-11T15:14:14.999Z</time></trkpt><trkpt lat="44.214701234922444" lon="11.417112255500003"><ele>642.5</ele><time>2026-04-11T15:14:15.999Z</time></trkpt><trkpt lat="44.214811594226674" lon="11.417006940575472"><ele>646.0</ele><time>2026-04-11T15:14:16.999Z</time></trkpt><trkpt lat="44.21492602982536" lon="11.416947525426345"><ele>649.5</ele><time>2026-04-11T15:14:17.999Z</time></trkpt><trkpt lat="44.215028020367576" lon="11.416861428531474"><ele>653.0</ele><time>2026-04-11T15:14:18.999Z</time></trkpt><trkpt lat="44.215125436666554" lon="11.416803621690303"><ele>653.1666666666666</ele><time>2026-04-11T15:14:19.999Z</time></trkpt><trkpt lat="44.215184053598215" lon="11.416746842194609"><ele>653.3333333333333</ele><time>2026-04-11T15:14:20.999Z</time></trkpt><trkpt lat="44.21523018158267" lon="11.416666849035476"><ele>653.5</ele><time>2026-04-11T15:14:22.999Z</time></trkpt><trkpt lat="44.21529937512977" lon="11.416538545250907"><ele>653.6666666666666</ele><time>2026-04-11T15:14:29.999Z</time></trkpt><trkpt lat="44.21529488777566" lon="11.416442365536039"><ele>653.8333333333334</ele><time>2026-04-11T15:14:30.999Z</time></trkpt><trkpt lat="44.21531820907379" lon="11.416349385604887"><ele>654.0</ele><time>2026-04-11T15:14:31.999Z</time></trkpt><trkpt lat="44.21535711025372" lon="11.416254468540481"><ele>655.6666666666666</ele><time>2026-04-11T15:14:32.999Z</time></trkpt><trkpt lat="44.215391507764984" lon="11.416166612578333"><ele>657.3333333333334</ele><time>2026-04-11T15:14:33.999Z</time></trkpt><trkpt lat="44.215459262871505" lon="11.41608590838178"><ele>659.0</ele><time>2026-04-11T15:14:34.999Z</time></trkpt><trkpt lat="44.21552176668604" lon="11.415995042385282"><ele>660.6666666666667</ele><time>2026-04-11T15:14:35.999Z</time></trkpt><trkpt lat="44.21558351322988" lon="11.4159181826727"><ele>662.3333333333334</ele><time>2026-04-11T15:14:36.999Z</time></trkpt><trkpt lat="44.21565567530453" lon="11.41583414588221"><ele>664.0</ele><time>2026-04-11T15:14:37.999Z</time></trkpt><trkpt lat="44.215692239019724" lon="11.41574985788827"><ele>664.0</ele><time>2026-04-11T15:14:38.999Z</time></trkpt><trkpt lat="44.21571321583325" lon="11.415617865136145"><ele>664.0</ele><time>2026-04-11T15:14:40.999Z</time></trkpt><trkpt lat="44.21567510974873" lon="11.415531612290113"><ele>664.0</ele><time>2026-04-11T15:14:41.999Z</time></trkpt><trkpt lat="44.21558584606877" lon="11.415508031991424"><ele>664.0</ele><time>2026-04-11T15:14:42.999Z</time></trkpt><trkpt lat="44.215502865036605" lon="11.415591572799483"><ele>664.0</ele><time>2026-04-11T15:14:43.999Z</time></trkpt><trkpt lat="44.21544206183858" lon="11.415648987479278"><ele>664.0</ele><time>2026-04-11T15:14:44.999Z</time></trkpt><trkpt lat="44.21537588430252" lon="11.41569127974865"><ele>665.1666666666667</ele><time>2026-04-11T15:14:45.999Z</time></trkpt><trkpt lat="44.21528154682146" lon="11.415736652703114"><ele>666.3333333333334</ele><time>2026-04-11T15:14:46.999Z</time></trkpt><trkpt lat="44.215194877007036" lon="11.415754045216827"><ele>667.5</ele><time>2026-04-11T15:14:47.999Z</time></trkpt><trkpt lat="44.21511795330491" lon="11.41576313930011"><ele>668.6666666666666</ele><time>2026-04-11T15:14:48.999Z</time></trkpt><trkpt lat="44.21503827869456" lon="11.415753777287094"><ele>669.8333333333333</ele><time>2026-04-11T15:14:49.999Z</time></trkpt><trkpt lat="44.2149393303217" lon="11.415732632286405"><ele>671.0</ele><time>2026-04-11T15:14:50.999Z</time></trkpt><trkpt lat="44.21484711880416" lon="11.415716751791242"><ele>670.0</ele><time>2026-04-11T15:14:51.999Z</time></trkpt><trkpt lat="44.214744751446595" lon="11.415733552305783"><ele>669.0</ele><time>2026-04-11T15:14:52.999Z</time></trkpt><trkpt lat="44.214641560461224" lon="11.41571335464168"><ele>668.0</ele><time>2026-04-11T15:14:53.999Z</time></trkpt><trkpt lat="44.214555976465036" lon="11.415712346405416"><ele>667.0</ele><time>2026-04-11T15:14:54.999Z</time></trkpt><trkpt lat="44.21445334215007" lon="11.415701777506744"><ele>666.0</ele><time>2026-04-11T15:14:56.999Z</time></trkpt><trkpt lat="44.21447296370039" lon="11.415545553251132"><ele>665.6666666666666</ele><time>2026-04-11T15:14:59.999Z</time></trkpt><trkpt lat="44.21453559350803" lon="11.415483235543418"><ele>665.3333333333334</ele><time>2026-04-11T15:15:00.999Z</time></trkpt><trkpt lat="44.21460766635087" lon="11.415425875814753"><ele>665.0</ele><time>2026-04-11T15:15:01.999Z</time></trkpt><trkpt lat="44.21469457153322" lon="11.415357873244815"><ele>664.6666666666667</ele><time>2026-04-11T15:15:02.999Z</time></trkpt><trkpt lat="44.214765374750314" lon="11.415288554681904"><ele>664.3333333333334</ele><time>2026-04-11T15:15:03.999Z</time></trkpt><trkpt lat="44.21483348531296" lon="11.415202743322213"><ele>664.0</ele><time>2026-04-11T15:15:04.999Z</time></trkpt><trkpt lat="44.21490294846067" lon="11.41510607065603"><ele>668.25</ele><time>2026-04-11T15:15:05.999Z</time></trkpt><trkpt lat="44.21497647889551" lon="11.415009340145193"><ele>672.5</ele><time>2026-04-11T15:15:06.999Z</time></trkpt><trkpt lat="44.2150761246358" lon="11.414894067101752"><ele>676.75</ele><time>2026-04-11T15:15:07.999Z</time></trkpt><trkpt lat="44.215167771292684" lon="11.414783980511713"><ele>681.0</ele><time>2026-04-11T15:15:08.999Z</time></trkpt><trkpt lat="44.21525976851197" lon="11.414670502444269"><ele>680.5</ele><time>2026-04-11T15:15:09.999Z</time></trkpt><trkpt lat="44.2153630477029" lon="11.414543230088144"><ele>680.0</ele><time>2026-04-11T15:15:10.999Z</time></trkpt><trkpt lat="44.21546745974234" lon="11.414406979312554"><ele>679.5</ele><time>2026-04-11T15:15:11.999Z</time></trkpt><trkpt lat="44.2155435317426" lon="11.414306372883544"><ele>679.0</ele><time>2026-04-11T15:15:12.999Z</time></trkpt><trkpt lat="44.21562005247606" lon="11.414205908426046"><ele>680.25</ele><time>2026-04-11T15:15:13.999Z</time></trkpt><trkpt lat="44.21567779000823" lon="11.414076191746972"><ele>681.5</ele><time>2026-04-11T15:15:14.999Z</time></trkpt><trkpt lat="44.215717758085795" lon="11.413932814853716"><ele>682.75</ele><time>2026-04-11T15:15:15.999Z</time></trkpt><trkpt lat="44.215755034405056" lon="11.413751792141374"><ele>684.0</ele><time>2026-04-11T15:15:16.999Z</time></trkpt><trkpt lat="44.21577688078645" lon="11.413600473374943"><ele>685.0</ele><time>2026-04-11T15:15:17.999Z</time></trkpt><trkpt lat="44.215798103488005" lon="11.413480709319494"><ele>686.0</ele><time>2026-04-11T15:15:19Z</time></trkpt><trkpt lat="44.215844210492115" lon="11.413357681942182"><ele>687.0</ele><time>2026-04-11T15:15:20Z</time></trkpt><trkpt lat="44.21590508514767" lon="11.413235357553278"><ele>688.0</ele><time>2026-04-11T15:15:21Z</time></trkpt><trkpt lat="44.215991088098136" lon="11.413119745760165"><ele>689.0</ele><time>2026-04-11T15:15:22Z</time></trkpt><trkpt lat="44.21607643825916" lon="11.413000945867399"><ele>688.5</ele><time>2026-04-11T15:15:23Z</time></trkpt><trkpt lat="44.216182534203185" lon="11.412875479352785"><ele>688.0</ele><time>2026-04-11T15:15:24Z</time></trkpt><trkpt lat="44.21628619448633" lon="11.412772069667282"><ele>687.5</ele><time>2026-04-11T15:15:25Z</time></trkpt><trkpt lat="44.21639680699387" lon="11.412677078318083"><ele>687.0</ele><time>2026-04-11T15:15:26Z</time></trkpt><trkpt lat="44.216494581895155" lon="11.412580105182832"><ele>688.2</ele><time>2026-04-11T15:15:27Z</time></trkpt><trkpt lat="44.21660060170697" lon="11.412516492826033"><ele>689.4000000000001</ele><time>2026-04-11T15:15:28Z</time></trkpt><trkpt lat="44.21671702755003" lon="11.412470608956149"><ele>690.5999999999999</ele><time>2026-04-11T15:15:29Z</time></trkpt><trkpt lat="44.21682162603012" lon="11.412440198645976"><ele>691.8</ele><time>2026-04-11T15:15:30Z</time></trkpt><trkpt lat="44.216916124215025" lon="11.412403749493075"><ele>693.0</ele><time>2026-04-11T15:15:31Z</time></trkpt><trkpt lat="44.2170104817947" lon="11.412360412585999"><ele>693.0</ele><time>2026-04-11T15:15:32Z</time></trkpt><trkpt lat="44.21711486149207" lon="11.412300537046004"><ele>693.0</ele><time>2026-04-11T15:15:33Z</time></trkpt><trkpt lat="44.217217958965115" lon="11.412224997649721"><ele>693.0</ele><time>2026-04-11T15:15:34Z</time></trkpt><trkpt lat="44.217310456406686" lon="11.412141600493149"><ele>693.0</ele><time>2026-04-11T15:15:35Z</time></trkpt><trkpt lat="44.21738892965637" lon="11.41202643332041"><ele>695.5</ele><time>2026-04-11T15:15:36Z</time></trkpt><trkpt lat="44.2174496330111" lon="11.411885215553255"><ele>698.0</ele><time>2026-04-11T15:15:37Z</time></trkpt><trkpt lat="44.21749427637368" lon="11.411720673079003"><ele>700.5</ele><time>2026-04-11T15:15:38Z</time></trkpt><trkpt lat="44.21753618737768" lon="11.411584594455253"><ele>703.0</ele><time>2026-04-11T15:15:39Z</time></trkpt><trkpt lat="44.21758489196276" lon="11.411450259011346"><ele>703.8</ele><time>2026-04-11T15:15:40Z</time></trkpt><trkpt lat="44.217630973772394" lon="11.411323579274177"><ele>704.5999999999999</ele><time>2026-04-11T15:15:41Z</time></trkpt><trkpt lat="44.21768491557972" lon="11.41118531701481"><ele>705.4000000000001</ele><time>2026-04-11T15:15:42Z</time></trkpt><trkpt lat="44.21772827006607" lon="11.411070333077493"><ele>706.2</ele><time>2026-04-11T15:15:43Z</time></trkpt><trkpt lat="44.21777303687459" lon="11.410987072246408"><ele>707.0</ele><time>2026-04-11T15:15:44Z</time></trkpt><trkpt lat="44.21784434739692" lon="11.410769765838184"><ele>707.0</ele><time>2026-04-11T15:15:45Z</time></trkpt><trkpt lat="44.217898317213525" lon="11.410612803651265"><ele>707.0</ele><time>2026-04-11T15:15:46Z</time></trkpt><trkpt lat="44.217961841649554" lon="11.410461405433452"><ele>707.0</ele><time>2026-04-11T15:15:47Z</time></trkpt><trkpt lat="44.2180213101122" lon="11.41031565565675"><ele>707.0</ele><time>2026-04-11T15:15:48Z</time></trkpt><trkpt lat="44.21808324668866" lon="11.410171261732433"><ele>706.6</ele><time>2026-04-11T15:15:49Z</time></trkpt><trkpt lat="44.218136082545776" lon="11.410006087137356"><ele>706.2</ele><time>2026-04-11T15:15:50Z</time></trkpt><trkpt lat="44.21819015493879" lon="11.409873463279459"><ele>705.8</ele><time>2026-04-11T15:15:51Z</time></trkpt><trkpt lat="44.218247710332484" lon="11.409776912220076"><ele>705.4</ele><time>2026-04-11T15:15:52Z</time></trkpt><trkpt lat="44.21830114556681" lon="11.409690417852127"><ele>705.0</ele><time>2026-04-11T15:15:53Z</time></trkpt><trkpt lat="44.21837810064137" lon="11.40961624345795"><ele>707.75</ele><time>2026-04-11T15:15:54Z</time></trkpt><trkpt lat="44.21845185567562" lon="11.40951818827442"><ele>710.5</ele><time>2026-04-11T15:15:55Z</time></trkpt><trkpt lat="44.21854155733228" lon="11.409383509566933"><ele>713.25</ele><time>2026-04-11T15:15:56Z</time></trkpt><trkpt lat="44.21863920818552" lon="11.409288614630059"><ele>716.0</ele><time>2026-04-11T15:15:57Z</time></trkpt><trkpt lat="44.218698939132345" lon="11.409162855520398"><ele>716.0</ele><time>2026-04-11T15:15:58Z</time></trkpt><trkpt lat="44.21877426282674" lon="11.409049148540515"><ele>716.0</ele><time>2026-04-11T15:15:59Z</time></trkpt><trkpt lat="44.218843500652795" lon="11.408936834493094"><ele>716.0</ele><time>2026-04-11T15:16:00Z</time></trkpt><trkpt lat="44.21891541457568" lon="11.408828196589878"><ele>716.0</ele><time>2026-04-11T15:16:01Z</time></trkpt><trkpt lat="44.218990125682055" lon="11.408726830846652"><ele>716.0</ele><time>2026-04-11T15:16:02Z</time></trkpt><trkpt lat="44.219051194655506" lon="11.408629375276567"><ele>718.8</ele><time>2026-04-11T15:16:03Z</time></trkpt><trkpt lat="44.2191143447904" lon="11.408518420251951"><ele>721.5999999999999</ele><time>2026-04-11T15:16:04Z</time></trkpt><trkpt lat="44.219187723461864" lon="11.408414471061327"><ele>724.4</ele><time>2026-04-11T15:16:05Z</time></trkpt><trkpt lat="44.21925578861987" lon="11.408324536168998"><ele>727.2</ele><time>2026-04-11T15:16:06Z</time></trkpt><trkpt lat="44.21934769572804" lon="11.408204908203336"><ele>730.0</ele><time>2026-04-11T15:16:07Z</time></trkpt><trkpt lat="44.21943178898496" lon="11.408073803853801"><ele>730.1666666666667</ele><time>2026-04-11T15:16:08Z</time></trkpt><trkpt lat="44.21949196423906" lon="11.407975549810802"><ele>730.3333333333334</ele><time>2026-04-11T15:16:09Z</time></trkpt><trkpt lat="44.21955428985244" lon="11.40789255627563"><ele>730.5</ele><time>2026-04-11T15:16:10Z</time></trkpt><trkpt lat="44.219608241358536" lon="11.407819085479534"><ele>730.6666666666666</ele><time>2026-04-11T15:16:11Z</time></trkpt><trkpt lat="44.21965655371768" lon="11.407743503372565"><ele>730.8333333333333</ele><time>2026-04-11T15:16:12Z</time></trkpt><trkpt lat="44.219680038263306" lon="11.407628514515807"><ele>731.0</ele><time>2026-04-11T15:16:14Z</time></trkpt><trkpt lat="44.219716457964125" lon="11.407517501552215"><ele>731.0</ele><time>2026-04-11T15:16:17Z</time></trkpt><trkpt lat="44.21973745369426" lon="11.407419857427998"><ele>731.0</ele><time>2026-04-11T15:16:19Z</time></trkpt><trkpt lat="44.219765207440226" lon="11.407325601328322"><ele>731.0</ele><time>2026-04-11T15:16:20Z</time></trkpt><trkpt lat="44.21979294336374" lon="11.4072064351205"><ele>731.0</ele><time>2026-04-11T15:16:20.999Z</time></trkpt><trkpt lat="44.21980214072263" lon="11.407093541051964"><ele>731.0</ele><time>2026-04-11T15:16:21.999Z</time></trkpt><trkpt lat="44.21982580648157" lon="11.406962380654278"><ele>731.0</ele><time>2026-04-11T15:16:22.999Z</time></trkpt><trkpt lat="44.21986025116761" lon="11.406865973006507"><ele>732.3333333333333</ele><time>2026-04-11T15:16:23.999Z</time></trkpt><trkpt lat="44.219880604898236" lon="11.406764644612673"><ele>733.6666666666666</ele><time>2026-04-11T15:16:24.999Z</time></trkpt><trkpt lat="44.21990299775498" lon="11.40667668055796"><ele>735.0</ele><time>2026-04-11T15:16:25.999Z</time></trkpt><trkpt lat="44.21993468282424" lon="11.406570001526102"><ele>736.3333333333334</ele><time>2026-04-11T15:16:26.999Z</time></trkpt><trkpt lat="44.2199686288796" lon="11.406455484239233"><ele>737.6666666666667</ele><time>2026-04-11T15:16:27.999Z</time></trkpt><trkpt lat="44.21997855835045" lon="11.406363217714908"><ele>739.0</ele><time>2026-04-11T15:16:28.999Z</time></trkpt><trkpt lat="44.22002122333337" lon="11.406222689677776"><ele>739.6666666666667</ele><time>2026-04-11T15:16:30.999Z</time></trkpt><trkpt lat="44.22006268423578" lon="11.40612977201575"><ele>740.3333333333334</ele><time>2026-04-11T15:16:32.999Z</time></trkpt><trkpt lat="44.220100822149625" lon="11.40605179163062"><ele>741.0</ele><time>2026-04-11T15:16:35.999Z</time></trkpt><trkpt lat="44.22009269133106" lon="11.405958335290322"><ele>741.6666666666666</ele><time>2026-04-11T15:16:50.999Z</time></trkpt><trkpt lat="44.22012967749846" lon="11.40581285570965"><ele>742.3333333333333</ele><time>2026-04-11T15:16:52.999Z</time></trkpt><trkpt lat="44.22014388440476" lon="11.40569399130685"><ele>743.0</ele><time>2026-04-11T15:16:53.999Z</time></trkpt><trkpt lat="44.22017852577981" lon="11.405593872850014"><ele>743.0</ele><time>2026-04-11T15:16:54.999Z</time></trkpt><trkpt lat="44.220199459407624" lon="11.405508028085636"><ele>743.0</ele><time>2026-04-11T15:16:55.999Z</time></trkpt><trkpt lat="44.22022336459436" lon="11.405418222736126"><ele>743.0</ele><time>2026-04-11T15:16:56.999Z</time></trkpt><trkpt lat="44.220249695704055" lon="11.405319696425373"><ele>743.0</ele><time>2026-04-11T15:16:57.999Z</time></trkpt><trkpt lat="44.220278191591845" lon="11.405217737859886"><ele>743.0</ele><time>2026-04-11T15:16:58.999Z</time></trkpt><trkpt lat="44.22030529907067" lon="11.40510305723005"><ele>743.0</ele><time>2026-04-11T15:16:59.999Z</time></trkpt><trkpt lat="44.22033248584778" lon="11.405017641505184"><ele>743.0</ele><time>2026-04-11T15:17:00.999Z</time></trkpt><trkpt lat="44.22035558945081" lon="11.404911655405625"><ele>743.8</ele><time>2026-04-11T15:17:02.999Z</time></trkpt><trkpt lat="44.22041587013038" lon="11.404794509615751"><ele>744.5999999999999</ele><time>2026-04-11T15:17:04.999Z</time></trkpt><trkpt lat="44.22046440400229" lon="11.404692889883721"><ele>745.4000000000001</ele><time>2026-04-11T15:17:05.999Z</time></trkpt><trkpt lat="44.22049351083027" lon="11.404591746935532"><ele>746.2</ele><time>2026-04-11T15:17:06.999Z</time></trkpt><trkpt lat="44.220557004325826" lon="11.404474438982378"><ele>747.0</ele><time>2026-04-11T15:17:08.999Z</time></trkpt><trkpt lat="44.22060884305364" lon="11.404304618532505"><ele>746.9999999999999</ele><time>2026-04-11T15:17:10.999Z</time></trkpt><trkpt lat="44.22064703118363" lon="11.404193767822772"><ele>747.0</ele><time>2026-04-11T15:17:11.999Z</time></trkpt><trkpt lat="44.22068640484534" lon="11.404092719589183"><ele>747.0</ele><time>2026-04-11T15:17:12.999Z</time></trkpt><trkpt lat="44.220715421649814" lon="11.404007946614053"><ele>747.0</ele><time>2026-04-11T15:17:13.999Z</time></trkpt><trkpt lat="44.22075452113718" lon="11.403925385832453"><ele>747.0</ele><time>2026-04-11T15:17:14.999Z</time></trkpt><trkpt lat="44.220788854900654" lon="11.403850249197014"><ele>746.9999999999999</ele><time>2026-04-11T15:17:15.999Z</time></trkpt><trkpt lat="44.22082871754512" lon="11.403772834970374"><ele>747.0</ele><time>2026-04-11T15:17:16.999Z</time></trkpt><trkpt lat="44.22086248499388" lon="11.403688301004404"><ele>750.5</ele><time>2026-04-11T15:17:17.999Z</time></trkpt><trkpt lat="44.22089601454229" lon="11.403598946657747"><ele>754.0</ele><time>2026-04-11T15:17:18.999Z</time></trkpt><trkpt lat="44.22091410843447" lon="11.40349945885875"><ele>757.5</ele><time>2026-04-11T15:17:19.999Z</time></trkpt><trkpt lat="44.2209349421226" lon="11.403403575603173"><ele>761.0</ele><time>2026-04-11T15:17:20.999Z</time></trkpt><trkpt lat="44.22095445729899" lon="11.403314705089944"><ele>764.5</ele><time>2026-04-11T15:17:21.999Z</time></trkpt><trkpt lat="44.220950616631725" lon="11.403128902048072"><ele>768.0</ele><time>2026-04-11T15:17:23.999Z</time></trkpt><trkpt lat="44.220931325034286" lon="11.40300004433269"><ele>769.0</ele><time>2026-04-11T15:17:25Z</time></trkpt><trkpt lat="44.220923218071746" lon="11.402866774908635"><ele>770.0</ele><time>2026-04-11T15:17:26Z</time></trkpt><trkpt lat="44.22092530644532" lon="11.40275066822574"><ele>771.0</ele><time>2026-04-11T15:17:27Z</time></trkpt><trkpt lat="44.2209324214152" lon="11.402624129403277"><ele>772.0</ele><time>2026-04-11T15:17:29Z</time></trkpt><trkpt lat="44.22097986221836" lon="11.402547455508952"><ele>773.0</ele><time>2026-04-11T15:17:31Z</time></trkpt><trkpt lat="44.22097989081353" lon="11.40244156806749"><ele>774.0</ele><time>2026-04-11T15:17:33Z</time></trkpt><trkpt lat="44.220936674369696" lon="11.40236560378625"><ele>774.0</ele><time>2026-04-11T15:17:35Z</time></trkpt><trkpt lat="44.22086226680325" lon="11.402301784706305"><ele>774.0</ele><time>2026-04-11T15:17:47Z</time></trkpt><trkpt lat="44.22079136078152" lon="11.402248639346846"><ele>774.0</ele><time>2026-04-11T15:17:49Z</time></trkpt><trkpt lat="44.22070604588264" lon="11.402184343407988"><ele>774.0</ele><time>2026-04-11T15:17:52Z</time></trkpt><trkpt lat="44.2206325592119" lon="11.402111457979597"><ele>774.0</ele><time>2026-04-11T15:17:54Z</time></trkpt><trkpt lat="44.22056003677444" lon="11.401965652611242"><ele>772.8000000000001</ele><time>2026-04-11T15:17:56Z</time></trkpt><trkpt lat="44.22052190733253" lon="11.401821532557626"><ele>771.6</ele><time>2026-04-11T15:17:58Z</time></trkpt><trkpt lat="44.22052067941977" lon="11.401699225745062"><ele>770.4</ele><time>2026-04-11T15:18:00Z</time></trkpt><trkpt lat="44.220483749826585" lon="11.401506336259416"><ele>769.2</ele><time>2026-04-11T15:18:03Z</time></trkpt><trkpt lat="44.220484421571086" lon="11.401399621464957"><ele>768.0</ele><time>2026-04-11T15:18:08Z</time></trkpt><trkpt lat="44.220490933354625" lon="11.401301284570303"><ele>768.0</ele><time>2026-04-11T15:18:10Z</time></trkpt><trkpt lat="44.22051487699557" lon="11.40116300438584"><ele>768.0</ele><time>2026-04-11T15:18:12Z</time></trkpt><trkpt lat="44.22053747344474" lon="11.401002066906726"><ele>768.0</ele><time>2026-04-11T15:18:14Z</time></trkpt><trkpt lat="44.22058281203818" lon="11.400841679222797"><ele>768.0</ele><time>2026-04-11T15:18:16Z</time></trkpt><trkpt lat="44.22058824676282" lon="11.400711060972176"><ele>768.0</ele><time>2026-04-11T15:18:18Z</time></trkpt><trkpt lat="44.220587927412666" lon="11.400595319269247"><ele>769.4</ele><time>2026-04-11T15:18:21Z</time></trkpt><trkpt lat="44.22061279554958" lon="11.40049723524478"><ele>770.8</ele><time>2026-04-11T15:18:22.999Z</time></trkpt><trkpt lat="44.2206676762076" lon="11.400350793615097"><ele>772.2</ele><time>2026-04-11T15:18:24.999Z</time></trkpt><trkpt lat="44.220676634602185" lon="11.400250181120173"><ele>773.6</ele><time>2026-04-11T15:18:25.999Z</time></trkpt><trkpt lat="44.220702647148656" lon="11.400133078909898"><ele>775.0</ele><time>2026-04-11T15:18:27.999Z</time></trkpt><trkpt lat="44.220647750205046" lon="11.400016755718035"><ele>775.0</ele><time>2026-04-11T15:18:30.999Z</time></trkpt><trkpt lat="44.22058653968716" lon="11.399909341673357"><ele>775.0</ele><time>2026-04-11T15:18:32.999Z</time></trkpt><trkpt lat="44.220517924733215" lon="11.399881119014497"><ele>775.0</ele><time>2026-04-11T15:18:33.999Z</time></trkpt><trkpt lat="44.220409792051015" lon="11.399853519553808"><ele>775.0</ele><time>2026-04-11T15:18:35.999Z</time></trkpt><trkpt lat="44.220353704000544" lon="11.399757768651659"><ele>775.0</ele><time>2026-04-11T15:18:37.999Z</time></trkpt><trkpt lat="44.22028081222582" lon="11.399666407520593"><ele>777.8</ele><time>2026-04-11T15:18:40.999Z</time></trkpt><trkpt lat="44.2202225449776" lon="11.399575887272833"><ele>780.6</ele><time>2026-04-11T15:18:42.999Z</time></trkpt><trkpt lat="44.2201797408952" lon="11.399481953129834"><ele>783.4000000000001</ele><time>2026-04-11T15:18:44.999Z</time></trkpt><trkpt lat="44.22014386010446" lon="11.399312651922466"><ele>786.2</ele><time>2026-04-11T15:18:46.999Z</time></trkpt><trkpt lat="44.22015989520693" lon="11.399197692323444"><ele>789.0</ele><time>2026-04-11T15:18:48.999Z</time></trkpt><trkpt lat="44.22022450185007" lon="11.399143527548274"><ele>789.0</ele><time>2026-04-11T15:18:50.999Z</time></trkpt><trkpt lat="44.220292505295276" lon="11.399042159163962"><ele>789.0</ele><time>2026-04-11T15:18:52.999Z</time></trkpt><trkpt lat="44.22030717826887" lon="11.39894141682588"><ele>789.0</ele><time>2026-04-11T15:18:54.999Z</time></trkpt><trkpt lat="44.22038146431423" lon="11.398926573843706"><ele>789.0</ele><time>2026-04-11T15:18:56.999Z</time></trkpt><trkpt lat="44.22045733543068" lon="11.398883626129887"><ele>789.0</ele><time>2026-04-11T15:18:58.999Z</time></trkpt><trkpt lat="44.22053794407252" lon="11.39876823049198"><ele>789.0</ele><time>2026-04-11T15:19:00.999Z</time></trkpt><trkpt lat="44.22056672270295" lon="11.398675413583748"><ele>791.0</ele><time>2026-04-11T15:19:01.999Z</time></trkpt><trkpt lat="44.2205704465066" lon="11.398584577433885"><ele>793.0</ele><time>2026-04-11T15:19:02.999Z</time></trkpt><trkpt lat="44.22061228504184" lon="11.398445693203566"><ele>795.0</ele><time>2026-04-11T15:19:04.999Z</time></trkpt><trkpt lat="44.22062574724005" lon="11.398358409276108"><ele>797.0</ele><time>2026-04-11T15:19:05.999Z</time></trkpt><trkpt lat="44.22059016354019" lon="11.39824824659335"><ele>799.0</ele><time>2026-04-11T15:19:06.999Z</time></trkpt><trkpt lat="44.22059262515072" lon="11.39814003261573"><ele>801.0</ele><time>2026-04-11T15:19:07.999Z</time></trkpt><trkpt lat="44.220606756228555" lon="11.398046040255805"><ele>801.0</ele><time>2026-04-11T15:19:08.999Z</time></trkpt><trkpt lat="44.22061295038917" lon="11.39795415040704"><ele>801.0</ele><time>2026-04-11T15:19:09.999Z</time></trkpt><trkpt lat="44.220590543797826" lon="11.39782944847338"><ele>801.0</ele><time>2026-04-11T15:19:11.999Z</time></trkpt><trkpt lat="44.220538337784205" lon="11.397745335156758"><ele>801.0</ele><time>2026-04-11T15:19:12.999Z</time></trkpt><trkpt lat="44.22049398321471" lon="11.397662671555821"><ele>801.0</ele><time>2026-04-11T15:19:13.999Z</time></trkpt><trkpt lat="44.22046830306633" lon="11.397566704532252"><ele>801.0</ele><time>2026-04-11T15:19:14.999Z</time></trkpt><trkpt lat="44.22046166261697" lon="11.397449928633005"><ele>801.0</ele><time>2026-04-11T15:19:15.999Z</time></trkpt><trkpt lat="44.22044733915093" lon="11.397335182204957"><ele>801.0</ele><time>2026-04-11T15:19:16.999Z</time></trkpt><trkpt lat="44.22044068352865" lon="11.397234643796128"><ele>801.0</ele><time>2026-04-11T15:19:17.999Z</time></trkpt><trkpt lat="44.22046194621677" lon="11.397145761112728"><ele>801.0</ele><time>2026-04-11T15:19:18.999Z</time></trkpt><trkpt lat="44.220438852600694" lon="11.397055856469327"><ele>801.0</ele><time>2026-04-11T15:19:19.999Z</time></trkpt><trkpt lat="44.22044352340474" lon="11.39693691566592"><ele>801.0</ele><time>2026-04-11T15:19:20.999Z</time></trkpt><trkpt lat="44.22038792872621" lon="11.396781793690652"><ele>801.5999999999999</ele><time>2026-04-11T15:19:21.999Z</time></trkpt><trkpt lat="44.220343718595394" lon="11.396624833123733"><ele>802.2</ele><time>2026-04-11T15:19:22.999Z</time></trkpt><trkpt lat="44.22035083533671" lon="11.396502460401459"><ele>802.8</ele><time>2026-04-11T15:19:23.999Z</time></trkpt><trkpt lat="44.22043863904617" lon="11.396535563369136"><ele>803.4000000000001</ele><time>2026-04-11T15:19:57Z</time></trkpt><trkpt lat="44.220488039313075" lon="11.396647036293695"><ele>804.0</ele><time>2026-04-11T15:19:59Z</time></trkpt><trkpt lat="44.220568614541136" lon="11.396802092788283"><ele>804.0</ele><time>2026-04-11T15:20:01Z</time></trkpt><trkpt lat="44.22059310402428" lon="11.396920951911381"><ele>804.0</ele><time>2026-04-11T15:20:02Z</time></trkpt><trkpt lat="44.220645001603216" lon="11.397031736706474"><ele>804.0</ele><time>2026-04-11T15:20:03Z</time></trkpt><trkpt lat="44.22069275739403" lon="11.397143551326229"><ele>804.0</ele><time>2026-04-11T15:20:04Z</time></trkpt><trkpt lat="44.220724602649305" lon="11.397259551086291"><ele>804.0</ele><time>2026-04-11T15:20:05Z</time></trkpt><trkpt lat="44.220761630084056" lon="11.39736689573205"><ele>804.6666666666666</ele><time>2026-04-11T15:20:06Z</time></trkpt><trkpt lat="44.220818692166134" lon="11.397444832357717"><ele>805.3333333333333</ele><time>2026-04-11T15:20:07Z</time></trkpt><trkpt lat="44.22087989071566" lon="11.397533358265209"><ele>806.0</ele><time>2026-04-11T15:20:08Z</time></trkpt><trkpt lat="44.220937617126104" lon="11.397621136938977"><ele>806.6666666666666</ele><time>2026-04-11T15:20:09Z</time></trkpt><trkpt lat="44.22100781131229" lon="11.397701051984303"><ele>807.3333333333333</ele><time>2026-04-11T15:20:10Z</time></trkpt><trkpt lat="44.22108003209802" lon="11.397781184135935"><ele>808.0</ele><time>2026-04-11T15:20:11Z</time></trkpt><trkpt lat="44.221156594913104" lon="11.397843086638701"><ele>807.9999999999999</ele><time>2026-04-11T15:20:12Z</time></trkpt><trkpt lat="44.22122164354988" lon="11.397910862530809"><ele>808.0</ele><time>2026-04-11T15:20:13Z</time></trkpt><trkpt lat="44.22126466478276" lon="11.397978496553742"><ele>808.0</ele><time>2026-04-11T15:20:14Z</time></trkpt><trkpt lat="44.22133604947271" lon="11.398057670877414"><ele>808.0</ele><time>2026-04-11T15:20:16Z</time></trkpt><trkpt lat="44.22139600008405" lon="11.398124887564332"><ele>807.9999999999999</ele><time>2026-04-11T15:20:17Z</time></trkpt><trkpt lat="44.22147533217272" lon="11.398193312632626"><ele>808.0</ele><time>2026-04-11T15:20:18Z</time></trkpt><trkpt lat="44.221536477066984" lon="11.398259214879182"><ele>808.5999999999999</ele><time>2026-04-11T15:20:19Z</time></trkpt><trkpt lat="44.22162201922057" lon="11.398365652058077"><ele>809.1999999999999</ele><time>2026-04-11T15:20:21Z</time></trkpt><trkpt lat="44.22170622588689" lon="11.398433507121107"><ele>809.8</ele><time>2026-04-11T15:20:23Z</time></trkpt><trkpt lat="44.221797433237754" lon="11.398507003443118"><ele>810.4</ele><time>2026-04-11T15:20:25Z</time></trkpt><trkpt lat="44.221904583387555" lon="11.398594173303792"><ele>811.0</ele><time>2026-04-11T15:20:26.999Z</time></trkpt><trkpt lat="44.221968650491156" lon="11.39864847554022"><ele>810.9999999999999</ele><time>2026-04-11T15:20:27.999Z</time></trkpt><trkpt lat="44.222026928112555" lon="11.398696871935385"><ele>811.0</ele><time>2026-04-11T15:20:28.999Z</time></trkpt><trkpt lat="44.22209606646386" lon="11.398763318340926"><ele>811.0</ele><time>2026-04-11T15:20:29.999Z</time></trkpt><trkpt lat="44.22217449075041" lon="11.398816685786175"><ele>811.0</ele><time>2026-04-11T15:20:30.999Z</time></trkpt><trkpt lat="44.22224187120717" lon="11.398909664131033"><ele>810.9999999999999</ele><time>2026-04-11T15:20:31.999Z</time></trkpt><trkpt lat="44.22231542929485" lon="11.3989375019508"><ele>811.0</ele><time>2026-04-11T15:20:32.999Z</time></trkpt><trkpt lat="44.22242961673786" lon="11.398985375059729"><ele>810.9999999999999</ele><time>2026-04-11T15:20:34.999Z</time></trkpt><trkpt lat="44.2224941549" lon="11.398969774973061"><ele>811.0</ele><time>2026-04-11T15:20:35.999Z</time></trkpt><trkpt lat="44.22260330614462" lon="11.398963415544515"><ele>811.0</ele><time>2026-04-11T15:20:37.999Z</time></trkpt><trkpt lat="44.22269031989129" lon="11.398918316793383"><ele>811.0</ele><time>2026-04-11T15:20:39.999Z</time></trkpt><trkpt lat="44.22274510573632" lon="11.398866059063515"><ele>810.9999999999999</ele><time>2026-04-11T15:20:40.999Z</time></trkpt><trkpt lat="44.222801660252046" lon="11.398799945928527"><ele>811.0</ele><time>2026-04-11T15:20:41.999Z</time></trkpt><trkpt lat="44.22288014117058" lon="11.398745535376836"><ele>811.0</ele><time>2026-04-11T15:20:42.999Z</time></trkpt><trkpt lat="44.22295869741674" lon="11.39866723853544"><ele>811.0</ele><time>2026-04-11T15:20:43.999Z</time></trkpt><trkpt lat="44.22303471377767" lon="11.398593671160187"><ele>811.0</ele><time>2026-04-11T15:20:44.999Z</time></trkpt><trkpt lat="44.223105407296906" lon="11.39853001531356"><ele>811.0</ele><time>2026-04-11T15:20:45.999Z</time></trkpt><trkpt lat="44.2232238868484" lon="11.398462555134072"><ele>811.0</ele><time>2026-04-11T15:20:47.999Z</time></trkpt><trkpt lat="44.223309110229934" lon="11.398495049363621"><ele>810.6666666666666</ele><time>2026-04-11T15:20:48.999Z</time></trkpt><trkpt lat="44.223404087610376" lon="11.398529239568274"><ele>810.3333333333333</ele><time>2026-04-11T15:20:49.999Z</time></trkpt><trkpt lat="44.22349496174208" lon="11.398553222762898"><ele>810.0</ele><time>2026-04-11T15:20:50.999Z</time></trkpt><trkpt lat="44.223568417017056" lon="11.398549314786978"><ele>809.6666666666667</ele><time>2026-04-11T15:20:51.999Z</time></trkpt><trkpt lat="44.22363694360469" lon="11.398557332701342"><ele>809.3333333333334</ele><time>2026-04-11T15:20:52.999Z</time></trkpt><trkpt lat="44.223701729709276" lon="11.398550329967016"><ele>809.0</ele><time>2026-04-11T15:20:53.999Z</time></trkpt><trkpt lat="44.22379680598152" lon="11.398521057364002"><ele>809.0</ele><time>2026-04-11T15:20:55.999Z</time></trkpt><trkpt lat="44.22391367513784" lon="11.39850314118962"><ele>809.0</ele><time>2026-04-11T15:20:57.999Z</time></trkpt><trkpt lat="44.22397619412822" lon="11.398491230672105"><ele>809.0</ele><time>2026-04-11T15:20:58.999Z</time></trkpt><trkpt lat="44.22410095611082" lon="11.398477190875463"><ele>809.0</ele><time>2026-04-11T15:21:00.999Z</time></trkpt><trkpt lat="44.22418235319178" lon="11.398448724279834"><ele>809.0</ele><time>2026-04-11T15:21:01.999Z</time></trkpt><trkpt lat="44.2242397415626" lon="11.3983953557877"><ele>808.8333333333334</ele><time>2026-04-11T15:21:02.999Z</time></trkpt><trkpt lat="44.224362986339564" lon="11.39837389330992"><ele>808.6666666666667</ele><time>2026-04-11T15:21:04.999Z</time></trkpt><trkpt lat="44.22442928957231" lon="11.39837788567941"><ele>808.5</ele><time>2026-04-11T15:21:05.999Z</time></trkpt><trkpt lat="44.22449400032734" lon="11.398362830086935"><ele>808.3333333333333</ele><time>2026-04-11T15:21:06.999Z</time></trkpt><trkpt lat="44.22460870906192" lon="11.398372118819166"><ele>808.1666666666666</ele><time>2026-04-11T15:21:08.999Z</time></trkpt><trkpt lat="44.2246603035947" lon="11.398426252046454"><ele>808.0</ele><time>2026-04-11T15:21:09.999Z</time></trkpt><trkpt lat="44.22471861049379" lon="11.398468062131645"><ele>807.1666666666666</ele><time>2026-04-11T15:21:10.999Z</time></trkpt><trkpt lat="44.22482673431166" lon="11.398536239026978"><ele>806.3333333333333</ele><time>2026-04-11T15:21:12.999Z</time></trkpt><trkpt lat="44.224892027806725" lon="11.398581895587267"><ele>805.5</ele><time>2026-04-11T15:21:13.999Z</time></trkpt><trkpt lat="44.224984977283974" lon="11.398597132617747"><ele>804.6666666666667</ele><time>2026-04-11T15:21:15.999Z</time></trkpt><trkpt lat="44.225048541745146" lon="11.39861515306621"><ele>803.8333333333334</ele><time>2026-04-11T15:21:17.999Z</time></trkpt><trkpt lat="44.225112370403046" lon="11.39865071651838"><ele>803.0</ele><time>2026-04-11T15:21:19.999Z</time></trkpt><trkpt lat="44.225185652163056" lon="11.398720986125436"><ele>803.8333333333334</ele><time>2026-04-11T15:21:21.999Z</time></trkpt><trkpt lat="44.22518491207163" lon="11.398849167685011"><ele>804.6666666666667</ele><time>2026-04-11T15:21:25.999Z</time></trkpt><trkpt lat="44.22517997270126" lon="11.398949267142836"><ele>805.5</ele><time>2026-04-11T15:21:29.999Z</time></trkpt><trkpt lat="44.2252219754205" lon="11.399035773607006"><ele>806.3333333333333</ele><time>2026-04-11T15:21:42Z</time></trkpt><trkpt lat="44.22524041260001" lon="11.399124815827987"><ele>807.1666666666666</ele><time>2026-04-11T15:21:46Z</time></trkpt><trkpt lat="44.225247246428495" lon="11.399223639063871"><ele>808.0</ele><time>2026-04-11T15:21:50Z</time></trkpt><trkpt lat="44.22527554245099" lon="11.399336354824186"><ele>808.0</ele><time>2026-04-11T15:21:52Z</time></trkpt><trkpt lat="44.22535139273904" lon="11.3994498941952"><ele>808.0</ele><time>2026-04-11T15:21:54Z</time></trkpt><trkpt lat="44.22538784822498" lon="11.399564385463728"><ele>808.0</ele><time>2026-04-11T15:21:56Z</time></trkpt><trkpt lat="44.22532196405502" lon="11.399686105489629"><ele>808.0</ele><time>2026-04-11T15:21:58Z</time></trkpt><trkpt lat="44.22522033525885" lon="11.399761518563427"><ele>808.0</ele><time>2026-04-11T15:22:00Z</time></trkpt><trkpt lat="44.22511368643251" lon="11.399848235241711"><ele>807.4999999999999</ele><time>2026-04-11T15:22:02Z</time></trkpt><trkpt lat="44.225063133936224" lon="11.399914198004685"><ele>807.0</ele><time>2026-04-11T15:22:03Z</time></trkpt><trkpt lat="44.22503412483117" lon="11.400022416378418"><ele>806.5</ele><time>2026-04-11T15:22:04Z</time></trkpt><trkpt lat="44.224995571559944" lon="11.400102609839642"><ele>806.0</ele><time>2026-04-11T15:22:05Z</time></trkpt><trkpt lat="44.22500111233423" lon="11.400210170097381"><ele>805.4999999999999</ele><time>2026-04-11T15:22:06Z</time></trkpt><trkpt lat="44.225008025669275" lon="11.400304429043022"><ele>805.0</ele><time>2026-04-11T15:22:07Z</time></trkpt><trkpt lat="44.22496804409797" lon="11.400471104445069"><ele>804.3333333333333</ele><time>2026-04-11T15:22:09Z</time></trkpt><trkpt lat="44.22493980601717" lon="11.400550029535347"><ele>803.6666666666666</ele><time>2026-04-11T15:22:10Z</time></trkpt><trkpt lat="44.22489608379441" lon="11.400622957817635"><ele>803.0</ele><time>2026-04-11T15:22:12Z</time></trkpt><trkpt lat="44.22485785133457" lon="11.400696923458675"><ele>802.3333333333333</ele><time>2026-04-11T15:22:14Z</time></trkpt><trkpt lat="44.224817987264615" lon="11.400786766092658"><ele>801.6666666666666</ele><time>2026-04-11T15:22:16Z</time></trkpt><trkpt lat="44.22481595293342" lon="11.40092817714232"><ele>801.0</ele><time>2026-04-11T15:22:18Z</time></trkpt><trkpt lat="44.22487275416607" lon="11.401029480677765"><ele>801.0</ele><time>2026-04-11T15:22:20Z</time></trkpt><trkpt lat="44.22491529976969" lon="11.401108456915125"><ele>801.0</ele><time>2026-04-11T15:22:24Z</time></trkpt><trkpt lat="44.22494715455098" lon="11.401196373481527"><ele>801.0</ele><time>2026-04-11T15:22:26Z</time></trkpt><trkpt lat="44.224968997566364" lon="11.401325916358632"><ele>801.0</ele><time>2026-04-11T15:22:28Z</time></trkpt><trkpt lat="44.22498113881579" lon="11.401431241866131"><ele>801.0</ele><time>2026-04-11T15:22:30Z</time></trkpt><trkpt lat="44.22499202266901" lon="11.401529743572109"><ele>801.0</ele><time>2026-04-11T15:22:32Z</time></trkpt><trkpt lat="44.22500374419706" lon="11.401640085525399"><ele>800.8571428571429</ele><time>2026-04-11T15:22:34Z</time></trkpt><trkpt lat="44.225032363359034" lon="11.40172702181688"><ele>800.7142857142857</ele><time>2026-04-11T15:22:37Z</time></trkpt><trkpt lat="44.22506130041335" lon="11.401805551780779"><ele>800.5714285714287</ele><time>2026-04-11T15:22:40Z</time></trkpt><trkpt lat="44.22510121201323" lon="11.401901126764402"><ele>800.4285714285714</ele><time>2026-04-11T15:22:44.999Z</time></trkpt><trkpt lat="44.225142649249875" lon="11.401976517677001"><ele>800.2857142857143</ele><time>2026-04-11T15:22:47.999Z</time></trkpt><trkpt lat="44.22519225073838" lon="11.402073353451666"><ele>800.1428571428572</ele><time>2026-04-11T15:22:49.999Z</time></trkpt><trkpt lat="44.225239000737226" lon="11.402158057602461"><ele>800.0</ele><time>2026-04-11T15:22:51.999Z</time></trkpt><trkpt lat="44.225301437599846" lon="11.402218237346418"><ele>800.8571428571429</ele><time>2026-04-11T15:22:53.999Z</time></trkpt><trkpt lat="44.22537030033678" lon="11.402295197336962"><ele>801.7142857142858</ele><time>2026-04-11T15:22:55.999Z</time></trkpt><trkpt lat="44.22541161040187" lon="11.402374951801853"><ele>802.5714285714287</ele><time>2026-04-11T15:22:56.999Z</time></trkpt><trkpt lat="44.22544429372711" lon="11.402451172740504"><ele>803.4285714285714</ele><time>2026-04-11T15:22:57.999Z</time></trkpt><trkpt lat="44.2254709904562" lon="11.402539644933526"><ele>804.2857142857142</ele><time>2026-04-11T15:22:59.999Z</time></trkpt><trkpt lat="44.225514006241994" lon="11.402636660844724"><ele>805.1428571428572</ele><time>2026-04-11T15:23:01.999Z</time></trkpt><trkpt lat="44.225524645303004" lon="11.402723840626889"><ele>806.0</ele><time>2026-04-11T15:23:03.999Z</time></trkpt><trkpt lat="44.22556208893484" lon="11.402810542616193"><ele>806.0000000000001</ele><time>2026-04-11T15:23:06.999Z</time></trkpt><trkpt lat="44.225615666021405" lon="11.402889186325506"><ele>806.0</ele><time>2026-04-11T15:23:10.999Z</time></trkpt><trkpt lat="44.225653094299" lon="11.402967563489424"><ele>806.0</ele><time>2026-04-11T15:23:16.999Z</time></trkpt><trkpt lat="44.22572320982126" lon="11.40307795957902"><ele>806.0</ele><time>2026-04-11T15:23:19.999Z</time></trkpt><trkpt lat="44.225774117338204" lon="11.40316108084663"><ele>806.0000000000001</ele><time>2026-04-11T15:23:23.999Z</time></trkpt><trkpt lat="44.22583062628279" lon="11.403208553841507"><ele>806.0</ele><time>2026-04-11T15:23:27.999Z</time></trkpt><trkpt lat="44.22589324802674" lon="11.403277494963517"><ele>803.1999999999999</ele><time>2026-04-11T15:23:30.999Z</time></trkpt><trkpt lat="44.22595871856811" lon="11.403349999934955"><ele>800.4</ele><time>2026-04-11T15:23:33.999Z</time></trkpt><trkpt lat="44.2260005836522" lon="11.403447992680244"><ele>797.6</ele><time>2026-04-11T15:23:36.999Z</time></trkpt><trkpt lat="44.22606712120471" lon="11.403612389440843"><ele>794.8</ele><time>2026-04-11T15:23:38.999Z</time></trkpt><trkpt lat="44.22608114799811" lon="11.403701583237035"><ele>792.0</ele><time>2026-04-11T15:23:39.999Z</time></trkpt><trkpt lat="44.22608912802878" lon="11.403828099724679"><ele>792.5</ele><time>2026-04-11T15:23:40.999Z</time></trkpt><trkpt lat="44.226093660017526" lon="11.403967369587892"><ele>793.0</ele><time>2026-04-11T15:23:41.999Z</time></trkpt><trkpt lat="44.22610805047753" lon="11.404073531271413"><ele>793.5</ele><time>2026-04-11T15:23:43Z</time></trkpt><trkpt lat="44.226113296183435" lon="11.404174228668126"><ele>794.0</ele><time>2026-04-11T15:23:44Z</time></trkpt><trkpt lat="44.226125426146794" lon="11.40426817730508"><ele>794.5</ele><time>2026-04-11T15:23:45Z</time></trkpt><trkpt lat="44.22615309947419" lon="11.404404384715814"><ele>795.0</ele><time>2026-04-11T15:23:46Z</time></trkpt><trkpt lat="44.22616626648661" lon="11.404521066238182"><ele>795.0</ele><time>2026-04-11T15:23:47Z</time></trkpt><trkpt lat="44.22618740639122" lon="11.40463195218433"><ele>795.0</ele><time>2026-04-11T15:23:48Z</time></trkpt><trkpt lat="44.22620811890616" lon="11.40473817307078"><ele>795.0</ele><time>2026-04-11T15:23:49Z</time></trkpt><trkpt lat="44.22623188456785" lon="11.404843189920653"><ele>795.0</ele><time>2026-04-11T15:23:50Z</time></trkpt><trkpt lat="44.226250329267664" lon="11.404932124875375"><ele>795.0</ele><time>2026-04-11T15:23:51Z</time></trkpt><trkpt lat="44.226259217799345" lon="11.405089160008739"><ele>795.0</ele><time>2026-04-11T15:23:53Z</time></trkpt><trkpt lat="44.22626823476502" lon="11.405265119262168"><ele>794.3333333333334</ele><time>2026-04-11T15:23:55Z</time></trkpt><trkpt lat="44.22630301543956" lon="11.40534196669398"><ele>793.6666666666667</ele><time>2026-04-11T15:23:56Z</time></trkpt><trkpt lat="44.226309788012166" lon="11.405497432490092"><ele>793.0</ele><time>2026-04-11T15:23:58Z</time></trkpt><trkpt lat="44.22631652084883" lon="11.40559562884659"><ele>792.3333333333334</ele><time>2026-04-11T15:23:59Z</time></trkpt><trkpt lat="44.226323821253274" lon="11.405686194872334"><ele>791.6666666666667</ele><time>2026-04-11T15:24:00Z</time></trkpt><trkpt lat="44.226336360716196" lon="11.405813051188765"><ele>791.0</ele><time>2026-04-11T15:24:02Z</time></trkpt><trkpt lat="44.226353700862326" lon="11.405944860532344"><ele>790.0</ele><time>2026-04-11T15:24:05Z</time></trkpt><trkpt lat="44.22637279591861" lon="11.40605509137869"><ele>789.0</ele><time>2026-04-11T15:24:07Z</time></trkpt><trkpt lat="44.2264076649368" lon="11.406160856450128"><ele>788.0</ele><time>2026-04-11T15:24:09Z</time></trkpt><trkpt lat="44.22643554714943" lon="11.406308056379048"><ele>787.0</ele><time>2026-04-11T15:24:11Z</time></trkpt><trkpt lat="44.22648026531204" lon="11.406485022599783"><ele>786.0</ele><time>2026-04-11T15:24:12Z</time></trkpt><trkpt lat="44.2264986283085" lon="11.406573722607007"><ele>785.6666666666666</ele><time>2026-04-11T15:24:13Z</time></trkpt><trkpt lat="44.226534544195864" lon="11.406673552713121"><ele>785.3333333333333</ele><time>2026-04-11T15:24:14Z</time></trkpt><trkpt lat="44.22654915920378" lon="11.406820953064592"><ele>785.0</ele><time>2026-04-11T15:24:15Z</time></trkpt><trkpt lat="44.22657250289037" lon="11.406934972791909"><ele>784.6666666666666</ele><time>2026-04-11T15:24:16Z</time></trkpt><trkpt lat="44.22658832934904" lon="11.407025382320397"><ele>784.3333333333333</ele><time>2026-04-11T15:24:17Z</time></trkpt><trkpt lat="44.22659875194868" lon="11.407143259108013"><ele>784.0</ele><time>2026-04-11T15:24:21Z</time></trkpt><trkpt lat="44.226682688248665" lon="11.407351904411726"><ele>782.6</ele><time>2026-04-11T15:24:23Z</time></trkpt><trkpt lat="44.2267828351707" lon="11.407371247351696"><ele>781.2</ele><time>2026-04-11T15:24:24Z</time></trkpt><trkpt lat="44.226875806426925" lon="11.407447279453597"><ele>779.8000000000001</ele><time>2026-04-11T15:24:25Z</time></trkpt><trkpt lat="44.22698352484711" lon="11.407515470013658"><ele>778.4000000000001</ele><time>2026-04-11T15:24:26Z</time></trkpt><trkpt lat="44.2270527269901" lon="11.407548296824919"><ele>777.0</ele><time>2026-04-11T15:24:27Z</time></trkpt><trkpt lat="44.22712405373354" lon="11.40758522302222"><ele>777.0</ele><time>2026-04-11T15:24:28Z</time></trkpt><trkpt lat="44.22718780157626" lon="11.40765112638365"><ele>777.0</ele><time>2026-04-11T15:24:30Z</time></trkpt><trkpt lat="44.22725784108484" lon="11.407692720800497"><ele>777.0</ele><time>2026-04-11T15:24:32Z</time></trkpt><trkpt lat="44.22737675619954" lon="11.407798014659761"><ele>777.0</ele><time>2026-04-11T15:24:34Z</time></trkpt><trkpt lat="44.227430599400314" lon="11.407886117062287"><ele>777.0</ele><time>2026-04-11T15:24:35Z</time></trkpt><trkpt lat="44.22748513544151" lon="11.40795413851921"><ele>777.0</ele><time>2026-04-11T15:24:36Z</time></trkpt><trkpt lat="44.227533602440516" lon="11.408015244365718"><ele>777.0</ele><time>2026-04-11T15:24:37Z</time></trkpt><trkpt lat="44.227604447980966" lon="11.408094667299407"><ele>777.0</ele><time>2026-04-11T15:24:39Z</time></trkpt><trkpt lat="44.2276502939565" lon="11.408161065440058"><ele>777.0</ele><time>2026-04-11T15:24:41Z</time></trkpt><trkpt lat="44.2277246563232" lon="11.408220007344317"><ele>777.0</ele><time>2026-04-11T15:24:48Z</time></trkpt><trkpt lat="44.227787929453335" lon="11.408249688739716"><ele>777.0</ele><time>2026-04-11T15:25:30.999Z</time></trkpt><trkpt lat="44.22784997409377" lon="11.408312386649804"><ele>777.0</ele><time>2026-04-11T15:25:37.999Z</time></trkpt><trkpt lat="44.22780982682411" lon="11.408413687682474"><ele>777.0</ele><time>2026-04-11T15:25:38.999Z</time></trkpt><trkpt lat="44.227856597719494" lon="11.408490959810253"><ele>777.0</ele><time>2026-04-11T15:25:40.999Z</time></trkpt><trkpt lat="44.227898708399756" lon="11.40857617558179"><ele>777.0</ele><time>2026-04-11T15:25:42.999Z</time></trkpt><trkpt lat="44.22794193952729" lon="11.408714416762436"><ele>777.0</ele><time>2026-04-11T15:25:44.999Z</time></trkpt><trkpt lat="44.22797628203928" lon="11.408798559031391"><ele>777.0</ele><time>2026-04-11T15:25:45.999Z</time></trkpt><trkpt lat="44.22803222377151" lon="11.40889070323598"><ele>778.1666666666666</ele><time>2026-04-11T15:25:46.999Z</time></trkpt><trkpt lat="44.228058348359305" lon="11.408999628948495"><ele>779.3333333333333</ele><time>2026-04-11T15:25:47.999Z</time></trkpt><trkpt lat="44.228100488923836" lon="11.409099184533098"><ele>780.5</ele><time>2026-04-11T15:25:49Z</time></trkpt><trkpt lat="44.22814389267654" lon="11.409193921171006"><ele>781.6666666666666</ele><time>2026-04-11T15:25:50Z</time></trkpt><trkpt lat="44.22820287954761" lon="11.409286662364117"><ele>782.8333333333333</ele><time>2026-04-11T15:25:51Z</time></trkpt><trkpt lat="44.228277299413456" lon="11.409328041506996"><ele>784.0</ele><time>2026-04-11T15:25:52Z</time></trkpt><trkpt lat="44.228346859077895" lon="11.409375412503309"><ele>784.0</ele><time>2026-04-11T15:25:53Z</time></trkpt><trkpt lat="44.22841958175463" lon="11.409428554064853"><ele>784.0</ele><time>2026-04-11T15:25:54Z</time></trkpt><trkpt lat="44.228476703657336" lon="11.409472331812802"><ele>784.0</ele><time>2026-04-11T15:25:55Z</time></trkpt><trkpt lat="44.22856745992446" lon="11.409566891945532"><ele>784.0</ele><time>2026-04-11T15:25:57Z</time></trkpt><trkpt lat="44.228617920034736" lon="11.409671895964165"><ele>779.0</ele><time>2026-04-11T15:25:59Z</time></trkpt></trkseg><trkseg><trkpt lat="44.293969706673444" lon="11.427625017251286"><ele>498.0</ele><time>2026-04-11T16:23:35.017Z</time></trkpt><trkpt lat="44.29386592397257" lon="11.427641452240865"><ele>497.99999999999994</ele><time>2026-04-11T16:24:38.999Z</time></trkpt><trkpt lat="44.29394918147971" lon="11.427586277243773"><ele>497.99999999999994</ele><time>2026-04-11T16:24:42.999Z</time></trkpt><trkpt lat="44.294002466579194" lon="11.427532751265678"><ele>498.0</ele><time>2026-04-11T16:24:43.999Z</time></trkpt><trkpt lat="44.2941205525647" lon="11.427478535403285"><ele>498.0</ele><time>2026-04-11T16:24:45.999Z</time></trkpt><trkpt lat="44.294206240135324" lon="11.427352359011179"><ele>498.0</ele><time>2026-04-11T16:24:47.999Z</time></trkpt><trkpt lat="44.29421886773646" lon="11.427246516050724"><ele>497.99999999999994</ele><time>2026-04-11T16:24:48.999Z</time></trkpt><trkpt lat="44.29425520816427" lon="11.427167678919867"><ele>498.0</ele><time>2026-04-11T16:24:49.999Z</time></trkpt><trkpt lat="44.29427946872258" lon="11.427074749359532"><ele>498.0</ele><time>2026-04-11T16:24:50.999Z</time></trkpt><trkpt lat="44.29430253469154" lon="11.42697922615691"><ele>497.99999999999994</ele><time>2026-04-11T16:24:51.999Z</time></trkpt><trkpt lat="44.294325383994014" lon="11.426885822793707"><ele>498.0</ele><time>2026-04-11T16:24:52.999Z</time></trkpt><trkpt lat="44.294348725160994" lon="11.426803163943092"><ele>498.0</ele><time>2026-04-11T16:24:53.999Z</time></trkpt><trkpt lat="44.29437134339011" lon="11.426695571947791"><ele>498.3333333333333</ele><time>2026-04-11T16:24:54.999Z</time></trkpt><trkpt lat="44.294399033897825" lon="11.426585863142309"><ele>498.66666666666663</ele><time>2026-04-11T16:24:55.999Z</time></trkpt><trkpt lat="44.29444042879074" lon="11.42651147275933"><ele>499.0</ele><time>2026-04-11T16:24:56.999Z</time></trkpt><trkpt lat="44.29446876941527" lon="11.426424672795475"><ele>499.3333333333333</ele><time>2026-04-11T16:24:57.999Z</time></trkpt><trkpt lat="44.294533943616244" lon="11.426300986364765"><ele>499.66666666666663</ele><time>2026-04-11T16:24:59.999Z</time></trkpt><trkpt lat="44.29463250968422" lon="11.426276500430486"><ele>500.0</ele><time>2026-04-11T16:25:01.999Z</time></trkpt><trkpt lat="44.29470296069907" lon="11.426298980297986"><ele>498.6</ele><time>2026-04-11T16:25:02.999Z</time></trkpt><trkpt lat="44.294800095093436" lon="11.426273662006611"><ele>497.2</ele><time>2026-04-11T16:25:03.999Z</time></trkpt><trkpt lat="44.29488701677889" lon="11.426215761073816"><ele>495.79999999999995</ele><time>2026-04-11T16:25:04.999Z</time></trkpt><trkpt lat="44.29496801704061" lon="11.42620074760542"><ele>494.4</ele><time>2026-04-11T16:25:05.999Z</time></trkpt><trkpt lat="44.295051294536826" lon="11.426177837173423"><ele>493.0</ele><time>2026-04-11T16:25:06.999Z</time></trkpt><trkpt lat="44.2951443628394" lon="11.426190714265664"><ele>493.0</ele><time>2026-04-11T16:25:07.999Z</time></trkpt><trkpt lat="44.29523791057909" lon="11.426186232850963"><ele>492.99999999999994</ele><time>2026-04-11T16:25:08.999Z</time></trkpt><trkpt lat="44.29533887820591" lon="11.426198876809156"><ele>492.99999999999994</ele><time>2026-04-11T16:25:09.999Z</time></trkpt><trkpt lat="44.29543783274027" lon="11.426181421748584"><ele>493.0</ele><time>2026-04-11T16:25:10.999Z</time></trkpt><trkpt lat="44.29552848675356" lon="11.426142443506528"><ele>493.0</ele><time>2026-04-11T16:25:11.999Z</time></trkpt><trkpt lat="44.29561312722997" lon="11.426092780551004"><ele>491.6666666666667</ele><time>2026-04-11T16:25:12.999Z</time></trkpt><trkpt lat="44.29570590763863" lon="11.426058838516251"><ele>490.33333333333337</ele><time>2026-04-11T16:25:13.999Z</time></trkpt><trkpt lat="44.29579443392932" lon="11.426039547978634"><ele>489.0</ele><time>2026-04-11T16:25:14.999Z</time></trkpt><trkpt lat="44.29586817738657" lon="11.42602188795034"><ele>487.66666666666663</ele><time>2026-04-11T16:25:15.999Z</time></trkpt><trkpt lat="44.29594314908618" lon="11.426004131939852"><ele>486.3333333333333</ele><time>2026-04-11T16:25:16.999Z</time></trkpt><trkpt lat="44.29600506090689" lon="11.425986298085782"><ele>485.0</ele><time>2026-04-11T16:25:17.999Z</time></trkpt><trkpt lat="44.29606956157726" lon="11.425996170382316"><ele>485.0</ele><time>2026-04-11T16:25:18.999Z</time></trkpt><trkpt lat="44.2961455020961" lon="11.425974840376462"><ele>485.0</ele><time>2026-04-11T16:25:19.999Z</time></trkpt><trkpt lat="44.296235926231375" lon="11.425964673943707"><ele>485.0</ele><time>2026-04-11T16:25:20.999Z</time></trkpt><trkpt lat="44.296347990151006" lon="11.425943825144012"><ele>485.0</ele><time>2026-04-11T16:25:21.999Z</time></trkpt><trkpt lat="44.296462129620764" lon="11.425916426835963"><ele>485.0</ele><time>2026-04-11T16:25:22.999Z</time></trkpt><trkpt lat="44.2965629977179" lon="11.425884827811895"><ele>484.0</ele><time>2026-04-11T16:25:23.999Z</time></trkpt><trkpt lat="44.29665088464181" lon="11.425849926663448"><ele>483.0</ele><time>2026-04-11T16:25:24.999Z</time></trkpt><trkpt lat="44.29672755977334" lon="11.4258241165028"><ele>482.0</ele><time>2026-04-11T16:25:25.999Z</time></trkpt><trkpt lat="44.296799947295426" lon="11.425795502680058"><ele>481.0</ele><time>2026-04-11T16:25:26.999Z</time></trkpt><trkpt lat="44.29692420358655" lon="11.425722698610091"><ele>480.0</ele><time>2026-04-11T16:25:28.999Z</time></trkpt><trkpt lat="44.29699555956427" lon="11.425634746542672"><ele>480.0</ele><time>2026-04-11T16:25:29.999Z</time></trkpt><trkpt lat="44.29703923766259" lon="11.425543083023804"><ele>480.0</ele><time>2026-04-11T16:25:30.999Z</time></trkpt><trkpt lat="44.297092886441575" lon="11.425470639412666"><ele>480.0</ele><time>2026-04-11T16:25:31.999Z</time></trkpt><trkpt lat="44.297117170396575" lon="11.425287103016656"><ele>480.0</ele><time>2026-04-11T16:25:33.999Z</time></trkpt><trkpt lat="44.29713284839852" lon="11.425165665495552"><ele>480.0</ele><time>2026-04-11T16:25:35.998Z</time></trkpt><trkpt lat="44.29714268037995" lon="11.425067114336509"><ele>480.0</ele><time>2026-04-11T16:25:37.998Z</time></trkpt><trkpt lat="44.297176082118426" lon="11.424989927490879"><ele>478.8</ele><time>2026-04-11T16:25:39.998Z</time></trkpt><trkpt lat="44.297268443138634" lon="11.42496469302999"><ele>477.6</ele><time>2026-04-11T16:25:41.998Z</time></trkpt><trkpt lat="44.29739496193879" lon="11.425012911161215"><ele>476.4</ele><time>2026-04-11T16:25:43.998Z</time></trkpt><trkpt lat="44.29746129155738" lon="11.425043547204222"><ele>475.2</ele><time>2026-04-11T16:25:44.998Z</time></trkpt><trkpt lat="44.297537264103454" lon="11.425053350020871"><ele>474.0</ele><time>2026-04-11T16:25:45.999Z</time></trkpt><trkpt lat="44.29761970318819" lon="11.425011729646458"><ele>474.0</ele><time>2026-04-11T16:25:46.999Z</time></trkpt><trkpt lat="44.297693228092186" lon="11.424949370366129"><ele>474.0</ele><time>2026-04-11T16:25:47.999Z</time></trkpt><trkpt lat="44.29777041632714" lon="11.424871846436583"><ele>474.0</ele><time>2026-04-11T16:25:48.999Z</time></trkpt><trkpt lat="44.297853611017196" lon="11.424790439159477"><ele>474.0</ele><time>2026-04-11T16:25:49.999Z</time></trkpt><trkpt lat="44.29794911509563" lon="11.424729856963928"><ele>474.0</ele><time>2026-04-11T16:25:50.999Z</time></trkpt><trkpt lat="44.29806722396283" lon="11.424706024463028"><ele>471.5</ele><time>2026-04-11T16:25:51.999Z</time></trkpt><trkpt lat="44.29819707803354" lon="11.42470770674239"><ele>469.0</ele><time>2026-04-11T16:25:53Z</time></trkpt><trkpt lat="44.298321042471166" lon="11.424741709762591"><ele>466.5</ele><time>2026-04-11T16:25:54Z</time></trkpt><trkpt lat="44.29843428740028" lon="11.424758531251943"><ele>464.0</ele><time>2026-04-11T16:25:55Z</time></trkpt><trkpt lat="44.2985477468047" lon="11.424754372105223"><ele>464.0</ele><time>2026-04-11T16:25:56Z</time></trkpt><trkpt lat="44.29866138329429" lon="11.424775556150031"><ele>464.0</ele><time>2026-04-11T16:25:57Z</time></trkpt><trkpt lat="44.29876483887071" lon="11.424808373674859"><ele>464.0</ele><time>2026-04-11T16:25:58Z</time></trkpt><trkpt lat="44.2988637945466" lon="11.424823663650159"><ele>464.0</ele><time>2026-04-11T16:25:59Z</time></trkpt><trkpt lat="44.2989667507623" lon="11.42483954829489"><ele>464.0</ele><time>2026-04-11T16:26:00Z</time></trkpt><trkpt lat="44.29906918688066" lon="11.424835091629411"><ele>464.0</ele><time>2026-04-11T16:26:01Z</time></trkpt><trkpt lat="44.29916155296907" lon="11.424810655920508"><ele>464.0</ele><time>2026-04-11T16:26:02Z</time></trkpt><trkpt lat="44.29925057841335" lon="11.424796279051822"><ele>464.0</ele><time>2026-04-11T16:26:03Z</time></trkpt><trkpt lat="44.29935304501822" lon="11.424805110012496"><ele>464.0</ele><time>2026-04-11T16:26:04Z</time></trkpt><trkpt lat="44.29945449611677" lon="11.424820128412199"><ele>464.0</ele><time>2026-04-11T16:26:05Z</time></trkpt><trkpt lat="44.299581389287475" lon="11.424846553803205"><ele>464.0</ele><time>2026-04-11T16:26:06Z</time></trkpt><trkpt lat="44.299713295859824" lon="11.424879995030226"><ele>464.0</ele><time>2026-04-11T16:26:07Z</time></trkpt><trkpt lat="44.29984630923269" lon="11.424921981845207"><ele>464.0</ele><time>2026-04-11T16:26:08Z</time></trkpt><trkpt lat="44.29997289442969" lon="11.424969593066148"><ele>464.0</ele><time>2026-04-11T16:26:09Z</time></trkpt><trkpt lat="44.30009737029554" lon="11.425021521317456"><ele>462.0</ele><time>2026-04-11T16:26:10Z</time></trkpt><trkpt lat="44.3002223228581" lon="11.42508667099114"><ele>460.0</ele><time>2026-04-11T16:26:11Z</time></trkpt><trkpt lat="44.30034427304161" lon="11.42514609885718"><ele>458.0</ele><time>2026-04-11T16:26:12Z</time></trkpt><trkpt lat="44.30045889563854" lon="11.425180120994176"><ele>456.0</ele><time>2026-04-11T16:26:13Z</time></trkpt><trkpt lat="44.30057563605893" lon="11.425207222329416"><ele>459.25</ele><time>2026-04-11T16:26:14Z</time></trkpt><trkpt lat="44.30069979784846" lon="11.425231513347128"><ele>462.5</ele><time>2026-04-11T16:26:15Z</time></trkpt><trkpt lat="44.30083009235935" lon="11.425248446633208"><ele>465.75</ele><time>2026-04-11T16:26:16Z</time></trkpt><trkpt lat="44.30094061049665" lon="11.425258373152614"><ele>469.0</ele><time>2026-04-11T16:26:17Z</time></trkpt><trkpt lat="44.30103552817051" lon="11.42526990554015"><ele>469.0</ele><time>2026-04-11T16:26:17.999Z</time></trkpt><trkpt lat="44.30111955394309" lon="11.42528586093023"><ele>469.0</ele><time>2026-04-11T16:26:18.999Z</time></trkpt><trkpt lat="44.30124878196589" lon="11.425223148764752"><ele>469.0</ele><time>2026-04-11T16:26:20.999Z</time></trkpt><trkpt lat="44.30131876677044" lon="11.425185046501696"><ele>469.0</ele><time>2026-04-11T16:26:21.999Z</time></trkpt><trkpt lat="44.30141251388143" lon="11.425137380733588"><ele>469.0</ele><time>2026-04-11T16:26:22.999Z</time></trkpt><trkpt lat="44.30150652326822" lon="11.425123460827576"><ele>472.2</ele><time>2026-04-11T16:26:23.999Z</time></trkpt><trkpt lat="44.30161250009748" lon="11.425137307540988"><ele>475.4</ele><time>2026-04-11T16:26:24.999Z</time></trkpt><trkpt lat="44.301716184586176" lon="11.425166625731515"><ele>478.6</ele><time>2026-04-11T16:26:25.999Z</time></trkpt><trkpt lat="44.301813016399024" lon="11.425215351350237"><ele>481.8</ele><time>2026-04-11T16:26:26.999Z</time></trkpt><trkpt lat="44.301914778791065" lon="11.42524858758578"><ele>485.0</ele><time>2026-04-11T16:26:27.999Z</time></trkpt><trkpt lat="44.30202558745768" lon="11.425264726794188"><ele>485.0</ele><time>2026-04-11T16:26:28.999Z</time></trkpt><trkpt lat="44.30213472290259" lon="11.425297105464539"><ele>485.0</ele><time>2026-04-11T16:26:29.999Z</time></trkpt><trkpt lat="44.302244490009286" lon="11.42533757965659"><ele>485.0</ele><time>2026-04-11T16:26:30.999Z</time></trkpt><trkpt lat="44.30233144343933" lon="11.425364790595102"><ele>485.0</ele><time>2026-04-11T16:26:31.999Z</time></trkpt><trkpt lat="44.30243072846095" lon="11.425385450961674"><ele>485.0</ele><time>2026-04-11T16:26:32.999Z</time></trkpt><trkpt lat="44.30251453270985" lon="11.425435399796743"><ele>485.3333333333333</ele><time>2026-04-11T16:26:33.999Z</time></trkpt><trkpt lat="44.30258691680671" lon="11.425466993376903"><ele>485.66666666666663</ele><time>2026-04-11T16:26:34.999Z</time></trkpt><trkpt lat="44.30264096217303" lon="11.425515297087808"><ele>486.0</ele><time>2026-04-11T16:26:35.999Z</time></trkpt><trkpt lat="44.30271017895077" lon="11.425551141837547"><ele>486.33333333333337</ele><time>2026-04-11T16:26:37.999Z</time></trkpt><trkpt lat="44.30277730214546" lon="11.42563724593102"><ele>486.6666666666667</ele><time>2026-04-11T16:27:13.999Z</time></trkpt><trkpt lat="44.30289617511536" lon="11.425731671746997"><ele>487.0</ele><time>2026-04-11T16:27:15.999Z</time></trkpt><trkpt lat="44.30297264580564" lon="11.425790536870398"><ele>487.0</ele><time>2026-04-11T16:27:16.999Z</time></trkpt><trkpt lat="44.303047886492266" lon="11.425858276791908"><ele>487.00000000000006</ele><time>2026-04-11T16:27:17.999Z</time></trkpt><trkpt lat="44.3031212986496" lon="11.425958513734836"><ele>487.00000000000006</ele><time>2026-04-11T16:27:18.999Z</time></trkpt><trkpt lat="44.303196401659605" lon="11.426028105111696"><ele>487.0</ele><time>2026-04-11T16:27:19.999Z</time></trkpt><trkpt lat="44.30326495616582" lon="11.426129236280548"><ele>487.0</ele><time>2026-04-11T16:27:20.999Z</time></trkpt><trkpt lat="44.303369521281375" lon="11.426117785116329"><ele>490.40000000000003</ele><time>2026-04-11T16:27:22.999Z</time></trkpt><trkpt lat="44.303510302191064" lon="11.426063507970953"><ele>493.80000000000007</ele><time>2026-04-11T16:27:24.999Z</time></trkpt><trkpt lat="44.30362017906036" lon="11.426039546700814"><ele>497.2</ele><time>2026-04-11T16:27:25.999Z</time></trkpt><trkpt lat="44.30371116222548" lon="11.426034522061286"><ele>500.6</ele><time>2026-04-11T16:27:26.999Z</time></trkpt><trkpt lat="44.30377587186042" lon="11.426055286293595"><ele>504.0</ele><time>2026-04-11T16:27:27.999Z</time></trkpt><trkpt lat="44.30390117853062" lon="11.426029376846634"><ele>505.6666666666667</ele><time>2026-04-11T16:27:28.999Z</time></trkpt><trkpt lat="44.303993955706666" lon="11.426078855461517"><ele>507.33333333333337</ele><time>2026-04-11T16:27:29.999Z</time></trkpt><trkpt lat="44.30407498380628" lon="11.426094555363015"><ele>509.0</ele><time>2026-04-11T16:27:30.999Z</time></trkpt><trkpt lat="44.30415674223079" lon="11.426135531660226"><ele>510.6666666666667</ele><time>2026-04-11T16:27:31.999Z</time></trkpt><trkpt lat="44.30425305203479" lon="11.426162301625947"><ele>512.3333333333334</ele><time>2026-04-11T16:27:32.999Z</time></trkpt><trkpt lat="44.30433383672475" lon="11.426174842663556"><ele>514.0</ele><time>2026-04-11T16:27:33.999Z</time></trkpt><trkpt lat="44.304403992120015" lon="11.426178699555562"><ele>514.0</ele><time>2026-04-11T16:27:34.999Z</time></trkpt><trkpt lat="44.304516094318224" lon="11.426196460179597"><ele>514.0</ele><time>2026-04-11T16:27:36.999Z</time></trkpt><trkpt lat="44.30460698986943" lon="11.426309926369758"><ele>514.0</ele><time>2026-04-11T16:27:38.999Z</time></trkpt><trkpt lat="44.304688189026486" lon="11.426376104726403"><ele>514.0</ele><time>2026-04-11T16:27:39.999Z</time></trkpt><trkpt lat="44.30477385020739" lon="11.426488430562104"><ele>514.0</ele><time>2026-04-11T16:27:40.999Z</time></trkpt><trkpt lat="44.30487098061181" lon="11.426574749576192"><ele>514.0</ele><time>2026-04-11T16:27:41.998Z</time></trkpt><trkpt lat="44.30498760348947" lon="11.426616196815766"><ele>514.0</ele><time>2026-04-11T16:27:42.998Z</time></trkpt><trkpt lat="44.305130754844406" lon="11.426641224394606"><ele>514.0</ele><time>2026-04-11T16:27:43.998Z</time></trkpt><trkpt lat="44.305264948864185" lon="11.426655850976587"><ele>514.0</ele><time>2026-04-11T16:27:44.998Z</time></trkpt><trkpt lat="44.305385184878574" lon="11.426664702735312"><ele>514.0</ele><time>2026-04-11T16:27:45.998Z</time></trkpt><trkpt lat="44.30548634299796" lon="11.426668464349847"><ele>514.0</ele><time>2026-04-11T16:27:46.998Z</time></trkpt><trkpt lat="44.30557733215389" lon="11.426682658464532"><ele>514.0</ele><time>2026-04-11T16:27:47.998Z</time></trkpt><trkpt lat="44.30568028747385" lon="11.426706013612826"><ele>514.0</ele><time>2026-04-11T16:27:48.998Z</time></trkpt><trkpt lat="44.305780024537306" lon="11.426752584600731"><ele>514.0</ele><time>2026-04-11T16:27:49.998Z</time></trkpt><trkpt lat="44.305868661722776" lon="11.426814817825436"><ele>512.2</ele><time>2026-04-11T16:27:50.998Z</time></trkpt><trkpt lat="44.30594261159182" lon="11.426884205203839"><ele>510.4</ele><time>2026-04-11T16:27:52Z</time></trkpt><trkpt lat="44.306009019079454" lon="11.42698054313398"><ele>508.6</ele><time>2026-04-11T16:27:53Z</time></trkpt><trkpt lat="44.30607438027794" lon="11.427081619702284"><ele>506.8</ele><time>2026-04-11T16:27:54Z</time></trkpt><trkpt lat="44.30615507422358" lon="11.42715507349089"><ele>505.0</ele><time>2026-04-11T16:27:55Z</time></trkpt><trkpt lat="44.306256464585985" lon="11.427200231014817"><ele>504.75</ele><time>2026-04-11T16:27:56Z</time></trkpt><trkpt lat="44.30636670427927" lon="11.427209387855193"><ele>504.5</ele><time>2026-04-11T16:27:57Z</time></trkpt><trkpt lat="44.306476652962864" lon="11.427187983257335"><ele>504.25</ele><time>2026-04-11T16:27:58Z</time></trkpt><trkpt lat="44.306596208507" lon="11.427158768803132"><ele>504.0</ele><time>2026-04-11T16:27:59Z</time></trkpt><trkpt lat="44.30671416383701" lon="11.427125764810388"><ele>502.0</ele><time>2026-04-11T16:28:00Z</time></trkpt><trkpt lat="44.306833300741" lon="11.427091782633836"><ele>500.0</ele><time>2026-04-11T16:28:01Z</time></trkpt><trkpt lat="44.30694722445699" lon="11.427082391055858"><ele>498.0</ele><time>2026-04-11T16:28:02Z</time></trkpt><trkpt lat="44.30706039741033" lon="11.42709956194873"><ele>496.0</ele><time>2026-04-11T16:28:03Z</time></trkpt><trkpt lat="44.30717971927398" lon="11.42714082453514"><ele>495.0</ele><time>2026-04-11T16:28:04Z</time></trkpt><trkpt lat="44.30729369147762" lon="11.4271749240138"><ele>494.0</ele><time>2026-04-11T16:28:05Z</time></trkpt><trkpt lat="44.30741785818024" lon="11.427166305789513"><ele>493.0</ele><time>2026-04-11T16:28:06Z</time></trkpt><trkpt lat="44.30753964402049" lon="11.427113621053154"><ele>492.0</ele><time>2026-04-11T16:28:07Z</time></trkpt><trkpt lat="44.30766193128099" lon="11.427029688870967"><ele>492.0</ele><time>2026-04-11T16:28:08Z</time></trkpt><trkpt lat="44.30778164397851" lon="11.426943043391143"><ele>492.0</ele><time>2026-04-11T16:28:09Z</time></trkpt><trkpt lat="44.3079067871493" lon="11.426858183104757"><ele>492.0</ele><time>2026-04-11T16:28:10Z</time></trkpt><trkpt lat="44.30801405228609" lon="11.426788835056046"><ele>492.0</ele><time>2026-04-11T16:28:11Z</time></trkpt><trkpt lat="44.30811292399843" lon="11.426691804729987"><ele>491.75</ele><time>2026-04-11T16:28:12Z</time></trkpt><trkpt lat="44.308212973120746" lon="11.426583177846457"><ele>491.5</ele><time>2026-04-11T16:28:13Z</time></trkpt><trkpt lat="44.30832093076093" lon="11.426481830757503"><ele>491.25</ele><time>2026-04-11T16:28:14Z</time></trkpt><trkpt lat="44.308441058899604" lon="11.426387161422255"><ele>491.0</ele><time>2026-04-11T16:28:15Z</time></trkpt><trkpt lat="44.30856292384931" lon="11.426277688376468"><ele>491.0</ele><time>2026-04-11T16:28:16Z</time></trkpt><trkpt lat="44.30865713257214" lon="11.426150987246663"><ele>491.0</ele><time>2026-04-11T16:28:17Z</time></trkpt><trkpt lat="44.30874742144139" lon="11.426018489761846"><ele>491.0</ele><time>2026-04-11T16:28:18Z</time></trkpt><trkpt lat="44.30883156454223" lon="11.425873228728333"><ele>491.0</ele><time>2026-04-11T16:28:19Z</time></trkpt><trkpt lat="44.308911657351004" lon="11.425725181044845"><ele>493.0</ele><time>2026-04-11T16:28:20Z</time></trkpt><trkpt lat="44.30898704468474" lon="11.425573167245384"><ele>495.0</ele><time>2026-04-11T16:28:21Z</time></trkpt><trkpt lat="44.309072097244986" lon="11.425429387833944"><ele>497.0</ele><time>2026-04-11T16:28:22Z</time></trkpt><trkpt lat="44.30915306763443" lon="11.425295911378122"><ele>499.0</ele><time>2026-04-11T16:28:23Z</time></trkpt><trkpt lat="44.309238228230974" lon="11.425159954397275"><ele>500.75</ele><time>2026-04-11T16:28:24Z</time></trkpt><trkpt lat="44.30931517513294" lon="11.425036972954862"><ele>502.5</ele><time>2026-04-11T16:28:25Z</time></trkpt><trkpt lat="44.309391907870044" lon="11.424892426706071"><ele>504.25</ele><time>2026-04-11T16:28:26Z</time></trkpt><trkpt lat="44.30947108889569" lon="11.424763050810249"><ele>506.0</ele><time>2026-04-11T16:28:27Z</time></trkpt><trkpt lat="44.30952731084555" lon="11.424644246104462"><ele>507.8333333333333</ele><time>2026-04-11T16:28:28Z</time></trkpt><trkpt lat="44.30956484770568" lon="11.424551150956352"><ele>509.66666666666663</ele><time>2026-04-11T16:28:29Z</time></trkpt><trkpt lat="44.30965631692087" lon="11.424447316822823"><ele>511.5</ele><time>2026-04-11T16:28:31Z</time></trkpt><trkpt lat="44.309723867294565" lon="11.424432551961884"><ele>513.3333333333334</ele><time>2026-04-11T16:28:32Z</time></trkpt><trkpt lat="44.309794309397276" lon="11.424457873858632"><ele>515.1666666666667</ele><time>2026-04-11T16:28:33Z</time></trkpt><trkpt lat="44.309859499683256" lon="11.424546938888668"><ele>517.0</ele><time>2026-04-11T16:28:34Z</time></trkpt><trkpt lat="44.30996906296592" lon="11.424615588601476"><ele>516.6</ele><time>2026-04-11T16:28:35Z</time></trkpt><trkpt lat="44.31006996227388" lon="11.424718176958438"><ele>516.2</ele><time>2026-04-11T16:28:36Z</time></trkpt><trkpt lat="44.310164314502686" lon="11.424815730351092"><ele>515.8</ele><time>2026-04-11T16:28:37Z</time></trkpt><trkpt lat="44.31024961259404" lon="11.42490639636815"><ele>515.4</ele><time>2026-04-11T16:28:38Z</time></trkpt><trkpt lat="44.31032496930691" lon="11.424992781134417"><ele>515.0</ele><time>2026-04-11T16:28:39Z</time></trkpt><trkpt lat="44.31039091559203" lon="11.425084731957044"><ele>515.0</ele><time>2026-04-11T16:28:40Z</time></trkpt><trkpt lat="44.3104507447547" lon="11.425169479487042"><ele>515.0</ele><time>2026-04-11T16:28:41Z</time></trkpt><trkpt lat="44.31051355636956" lon="11.425263619406493"><ele>515.0</ele><time>2026-04-11T16:28:42Z</time></trkpt><trkpt lat="44.3105668064296" lon="11.425336826596089"><ele>515.0</ele><time>2026-04-11T16:28:43Z</time></trkpt><trkpt lat="44.310623644567414" lon="11.425431923919202"><ele>515.0</ele><time>2026-04-11T16:28:43.999Z</time></trkpt><trkpt lat="44.310663907392886" lon="11.42552180223175"><ele>515.0</ele><time>2026-04-11T16:28:44.999Z</time></trkpt><trkpt lat="44.310705048174164" lon="11.425597153310758"><ele>514.6666666666666</ele><time>2026-04-11T16:28:45.999Z</time></trkpt><trkpt lat="44.31074329962298" lon="11.425689155282079"><ele>514.3333333333333</ele><time>2026-04-11T16:28:46.999Z</time></trkpt><trkpt lat="44.31079908950649" lon="11.425752905892526"><ele>514.0</ele><time>2026-04-11T16:28:47.999Z</time></trkpt><trkpt lat="44.31084122304161" lon="11.425829967304166"><ele>513.6666666666666</ele><time>2026-04-11T16:28:48.999Z</time></trkpt><trkpt lat="44.3109051448676" lon="11.425909272563596"><ele>513.3333333333334</ele><time>2026-04-11T16:28:49.999Z</time></trkpt><trkpt lat="44.31095608749832" lon="11.426004760908192"><ele>513.0</ele><time>2026-04-11T16:28:50.999Z</time></trkpt><trkpt lat="44.31097088508574" lon="11.42613095591809"><ele>513.0</ele><time>2026-04-11T16:28:51.999Z</time></trkpt><trkpt lat="44.31098336212697" lon="11.426255157642048"><ele>513.0</ele><time>2026-04-11T16:28:52.999Z</time></trkpt><trkpt lat="44.31100013320586" lon="11.426412332098293"><ele>513.0</ele><time>2026-04-11T16:28:53.999Z</time></trkpt><trkpt lat="44.31099417999898" lon="11.426569808672538"><ele>513.0</ele><time>2026-04-11T16:28:54.999Z</time></trkpt><trkpt lat="44.31098283824825" lon="11.426752789454861"><ele>513.0</ele><time>2026-04-11T16:28:55.999Z</time></trkpt><trkpt lat="44.311012194645286" lon="11.426921341782705"><ele>511.8333333333333</ele><time>2026-04-11T16:28:56.999Z</time></trkpt><trkpt lat="44.31104992348401" lon="11.427053402640867"><ele>510.66666666666663</ele><time>2026-04-11T16:28:57.999Z</time></trkpt><trkpt lat="44.311101887507036" lon="11.42714166591969"><ele>509.5</ele><time>2026-04-11T16:28:58.999Z</time></trkpt><trkpt lat="44.31115801052395" lon="11.427200675338861"><ele>508.3333333333333</ele><time>2026-04-11T16:28:59.999Z</time></trkpt><trkpt lat="44.31123216355999" lon="11.427272785944131"><ele>507.16666666666663</ele><time>2026-04-11T16:29:00.999Z</time></trkpt><trkpt lat="44.311326334570616" lon="11.4273365186853"><ele>506.0</ele><time>2026-04-11T16:29:01.999Z</time></trkpt><trkpt lat="44.31142879457778" lon="11.427401541800263"><ele>506.0</ele><time>2026-04-11T16:29:02.999Z</time></trkpt><trkpt lat="44.31154559784958" lon="11.427473552382299"><ele>506.0</ele><time>2026-04-11T16:29:03.999Z</time></trkpt><trkpt lat="44.311645474067646" lon="11.427552644175508"><ele>506.0</ele><time>2026-04-11T16:29:04.999Z</time></trkpt><trkpt lat="44.31174969263057" lon="11.427607346012662"><ele>506.0</ele><time>2026-04-11T16:29:05.999Z</time></trkpt><trkpt lat="44.311853055593396" lon="11.427633990541372"><ele>506.0</ele><time>2026-04-11T16:29:06.999Z</time></trkpt><trkpt lat="44.31195701503002" lon="11.427664555641313"><ele>506.0</ele><time>2026-04-11T16:29:07.999Z</time></trkpt><trkpt lat="44.31204190136491" lon="11.427698290316503"><ele>506.0</ele><time>2026-04-11T16:29:08.999Z</time></trkpt><trkpt lat="44.31210713582658" lon="11.427713884823637"><ele>506.0</ele><time>2026-04-11T16:29:09.999Z</time></trkpt><trkpt lat="44.31223677283852" lon="11.427728135005994"><ele>506.0</ele><time>2026-04-11T16:29:11.999Z</time></trkpt><trkpt lat="44.31230092864125" lon="11.427722410597472"><ele>506.8</ele><time>2026-04-11T16:29:12.999Z</time></trkpt><trkpt lat="44.31238216789363" lon="11.427654214044026"><ele>507.6</ele><time>2026-04-11T16:29:14.999Z</time></trkpt><trkpt lat="44.31242261053575" lon="11.427549451414922"><ele>508.4</ele><time>2026-04-11T16:29:15.999Z</time></trkpt><trkpt lat="44.31245259499158" lon="11.427439167901879"><ele>509.2</ele><time>2026-04-11T16:29:16.999Z</time></trkpt><trkpt lat="44.31250339664303" lon="11.427328698583338"><ele>510.0</ele><time>2026-04-11T16:29:17.999Z</time></trkpt><trkpt lat="44.312571598186" lon="11.427239793482432"><ele>510.0</ele><time>2026-04-11T16:29:18.999Z</time></trkpt><trkpt lat="44.312649768578666" lon="11.427164637878466"><ele>510.0</ele><time>2026-04-11T16:29:19.999Z</time></trkpt><trkpt lat="44.31272546234561" lon="11.42712206542148"><ele>510.0</ele><time>2026-04-11T16:29:20.999Z</time></trkpt><trkpt lat="44.31282949176676" lon="11.427072927979989"><ele>510.0</ele><time>2026-04-11T16:29:21.999Z</time></trkpt><trkpt lat="44.31291861813083" lon="11.42704955797112"><ele>510.0</ele><time>2026-04-11T16:29:22.999Z</time></trkpt><trkpt lat="44.313008197151355" lon="11.427042216936034"><ele>514.4</ele><time>2026-04-11T16:29:23.999Z</time></trkpt><trkpt lat="44.313117228416196" lon="11.427042065894057"><ele>518.8</ele><time>2026-04-11T16:29:24.999Z</time></trkpt><trkpt lat="44.31323079468995" lon="11.427018946126887"><ele>523.2</ele><time>2026-04-11T16:29:25.999Z</time></trkpt><trkpt lat="44.31333751484388" lon="11.427007258073848"><ele>527.6</ele><time>2026-04-11T16:29:26.999Z</time></trkpt><trkpt lat="44.313412790377484" lon="11.426990523693155"><ele>532.0</ele><time>2026-04-11T16:29:27.999Z</time></trkpt><trkpt lat="44.313493671018215" lon="11.42691347600445"><ele>532.0</ele><time>2026-04-11T16:29:28.999Z</time></trkpt><trkpt lat="44.313562032340315" lon="11.426845003733527"><ele>532.0</ele><time>2026-04-11T16:29:29.999Z</time></trkpt><trkpt lat="44.31364871069377" lon="11.426854897183029"><ele>532.0</ele><time>2026-04-11T16:29:30.999Z</time></trkpt><trkpt lat="44.31376675759463" lon="11.426820737973902"><ele>532.0</ele><time>2026-04-11T16:29:31.999Z</time></trkpt><trkpt lat="44.31383782096497" lon="11.426757624261473"><ele>532.0</ele><time>2026-04-11T16:29:32.999Z</time></trkpt><trkpt lat="44.31391094797054" lon="11.42671621825698"><ele>530.8333333333334</ele><time>2026-04-11T16:29:33.999Z</time></trkpt><trkpt lat="44.313994518882815" lon="11.426656260642838"><ele>529.6666666666667</ele><time>2026-04-11T16:29:34.999Z</time></trkpt><trkpt lat="44.314079436804924" lon="11.426628449309126"><ele>528.5</ele><time>2026-04-11T16:29:35.999Z</time></trkpt><trkpt lat="44.314158431292825" lon="11.426655651800532"><ele>527.3333333333334</ele><time>2026-04-11T16:29:36.999Z</time></trkpt><trkpt lat="44.31423011483663" lon="11.426632716026045"><ele>526.1666666666666</ele><time>2026-04-11T16:29:37.999Z</time></trkpt><trkpt lat="44.314329487513504" lon="11.426622444976948"><ele>525.0</ele><time>2026-04-11T16:29:38.999Z</time></trkpt><trkpt lat="44.31441021734586" lon="11.426498815590412"><ele>525.0</ele><time>2026-04-11T16:29:39.999Z</time></trkpt><trkpt lat="44.31450899249859" lon="11.426431899205488"><ele>525.0</ele><time>2026-04-11T16:29:40.999Z</time></trkpt><trkpt lat="44.314601135677414" lon="11.426352441842312"><ele>525.0</ele><time>2026-04-11T16:29:41.999Z</time></trkpt><trkpt lat="44.31468594528943" lon="11.426292108778874"><ele>525.0</ele><time>2026-04-11T16:29:42.999Z</time></trkpt><trkpt lat="44.314776144431214" lon="11.4262570291068"><ele>525.0</ele><time>2026-04-11T16:29:43.999Z</time></trkpt><trkpt lat="44.314873066053835" lon="11.42627525206464"><ele>528.2</ele><time>2026-04-11T16:29:44.999Z</time></trkpt><trkpt lat="44.31498129712742" lon="11.426287984882538"><ele>531.4</ele><time>2026-04-11T16:29:45.999Z</time></trkpt><trkpt lat="44.31508808320549" lon="11.42630176476107"><ele>534.6</ele><time>2026-04-11T16:29:46.999Z</time></trkpt><trkpt lat="44.315195558849965" lon="11.426273849742493"><ele>537.8</ele><time>2026-04-11T16:29:47.999Z</time></trkpt><trkpt lat="44.31530175958757" lon="11.426254444888064"><ele>541.0</ele><time>2026-04-11T16:29:48.999Z</time></trkpt><trkpt lat="44.31539272022067" lon="11.42626306552246"><ele>541.0</ele><time>2026-04-11T16:29:49.999Z</time></trkpt><trkpt lat="44.315486105239486" lon="11.426304355456669"><ele>541.0</ele><time>2026-04-11T16:29:50.999Z</time></trkpt><trkpt lat="44.315555251108734" lon="11.426366605261272"><ele>541.0</ele><time>2026-04-11T16:29:51.999Z</time></trkpt><trkpt lat="44.315619145615855" lon="11.426423991672506"><ele>541.0</ele><time>2026-04-11T16:29:52.999Z</time></trkpt><trkpt lat="44.31570312496847" lon="11.426465314192157"><ele>541.0</ele><time>2026-04-11T16:29:53.999Z</time></trkpt><trkpt lat="44.315801640659366" lon="11.42654664202436"><ele>538.4</ele><time>2026-04-11T16:29:54.999Z</time></trkpt><trkpt lat="44.3158821510396" lon="11.426620064254038"><ele>535.8</ele><time>2026-04-11T16:29:55.999Z</time></trkpt><trkpt lat="44.31597749835587" lon="11.426655550118282"><ele>533.1999999999999</ele><time>2026-04-11T16:29:56.999Z</time></trkpt><trkpt lat="44.31606900642713" lon="11.426723781430697"><ele>530.6</ele><time>2026-04-11T16:29:58Z</time></trkpt><trkpt lat="44.3161499144996" lon="11.426831515029455"><ele>528.0</ele><time>2026-04-11T16:29:59Z</time></trkpt><trkpt lat="44.3162326768701" lon="11.42694124007474"><ele>528.0</ele><time>2026-04-11T16:30:00Z</time></trkpt><trkpt lat="44.31631547209937" lon="11.427016481095668"><ele>528.0</ele><time>2026-04-11T16:30:01Z</time></trkpt><trkpt lat="44.31640220733511" lon="11.42709731048047"><ele>528.0</ele><time>2026-04-11T16:30:02Z</time></trkpt><trkpt lat="44.31648207645212" lon="11.427174678943954"><ele>528.0</ele><time>2026-04-11T16:30:03Z</time></trkpt><trkpt lat="44.31653557479741" lon="11.427246213265237"><ele>528.0</ele><time>2026-04-11T16:30:04Z</time></trkpt><trkpt lat="44.31658687686909" lon="11.427302052222023"><ele>528.0</ele><time>2026-04-11T16:30:05Z</time></trkpt><trkpt lat="44.316647276633" lon="11.427374096397747"><ele>527.7142857142857</ele><time>2026-04-11T16:30:06Z</time></trkpt><trkpt lat="44.316709849665926" lon="11.427440024734034"><ele>527.4285714285714</ele><time>2026-04-11T16:30:07Z</time></trkpt><trkpt lat="44.31677964142253" lon="11.427488351326078"><ele>527.1428571428571</ele><time>2026-04-11T16:30:08Z</time></trkpt><trkpt lat="44.31684394439997" lon="11.427527987180158"><ele>526.8571428571429</ele><time>2026-04-11T16:30:09Z</time></trkpt><trkpt lat="44.31690916571298" lon="11.427577736783885"><ele>526.5714285714286</ele><time>2026-04-11T16:30:10Z</time></trkpt><trkpt lat="44.316951528997286" lon="11.42764964665929"><ele>526.2857142857142</ele><time>2026-04-11T16:30:11Z</time></trkpt><trkpt lat="44.31700052929259" lon="11.427732372769473"><ele>526.0</ele><time>2026-04-11T16:30:12Z</time></trkpt><trkpt lat="44.317047411091224" lon="11.427810166797526"><ele>526.0</ele><time>2026-04-11T16:30:13Z</time></trkpt><trkpt lat="44.31709574320164" lon="11.42788488176006"><ele>526.0</ele><time>2026-04-11T16:30:14Z</time></trkpt><trkpt lat="44.317144022845135" lon="11.427947089808427"><ele>526.0</ele><time>2026-04-11T16:30:15Z</time></trkpt><trkpt lat="44.31720439087131" lon="11.428004179620789"><ele>526.0</ele><time>2026-04-11T16:30:16Z</time></trkpt><trkpt lat="44.317260462641975" lon="11.42804791941355"><ele>526.0</ele><time>2026-04-11T16:30:17Z</time></trkpt><trkpt lat="44.317324948557264" lon="11.428093592466398"><ele>526.0</ele><time>2026-04-11T16:30:18Z</time></trkpt><trkpt lat="44.317408643266745" lon="11.42814613839397"><ele>526.0</ele><time>2026-04-11T16:30:19Z</time></trkpt><trkpt lat="44.3175001833762" lon="11.428197375654792"><ele>526.0</ele><time>2026-04-11T16:30:20Z</time></trkpt><trkpt lat="44.31757203131896" lon="11.4282489405638"><ele>526.0</ele><time>2026-04-11T16:30:21Z</time></trkpt><trkpt lat="44.31763789951915" lon="11.42829050441353"><ele>526.0</ele><time>2026-04-11T16:30:22Z</time></trkpt><trkpt lat="44.317711137316124" lon="11.428355436264667"><ele>526.0</ele><time>2026-04-11T16:30:23Z</time></trkpt><trkpt lat="44.31778229300622" lon="11.428399639590834"><ele>526.0</ele><time>2026-04-11T16:30:24Z</time></trkpt><trkpt lat="44.3178707880631" lon="11.428455610418983"><ele>526.0</ele><time>2026-04-11T16:30:25Z</time></trkpt><trkpt lat="44.31797012061044" lon="11.428535527949204"><ele>526.0</ele><time>2026-04-11T16:30:26Z</time></trkpt><trkpt lat="44.318057860650086" lon="11.428628619093688"><ele>526.0</ele><time>2026-04-11T16:30:27Z</time></trkpt><trkpt lat="44.31814398604085" lon="11.428752585248038"><ele>526.0</ele><time>2026-04-11T16:30:28Z</time></trkpt><trkpt lat="44.31822774280389" lon="11.428865667708063"><ele>526.0</ele><time>2026-04-11T16:30:29Z</time></trkpt><trkpt lat="44.31830103383126" lon="11.428966335962592"><ele>528.2</ele><time>2026-04-11T16:30:30Z</time></trkpt><trkpt lat="44.31837404736601" lon="11.429055291259207"><ele>530.4000000000001</ele><time>2026-04-11T16:30:31Z</time></trkpt><trkpt lat="44.31844559059043" lon="11.429137103301873"><ele>532.6</ele><time>2026-04-11T16:30:32Z</time></trkpt><trkpt lat="44.318513180777316" lon="11.429214800874348"><ele>534.8000000000001</ele><time>2026-04-11T16:30:33Z</time></trkpt><trkpt lat="44.31856148366223" lon="11.429293182327854"><ele>537.0</ele><time>2026-04-11T16:30:34Z</time></trkpt><trkpt lat="44.31859806335749" lon="11.429425274526873"><ele>537.0</ele><time>2026-04-11T16:30:35Z</time></trkpt><trkpt lat="44.31861352875537" lon="11.429560782162616"><ele>537.0</ele><time>2026-04-11T16:30:36Z</time></trkpt><trkpt lat="44.318609777254" lon="11.429716389253356"><ele>537.0</ele><time>2026-04-11T16:30:37Z</time></trkpt><trkpt lat="44.318589877358626" lon="11.429878105872243"><ele>537.0</ele><time>2026-04-11T16:30:38Z</time></trkpt><trkpt lat="44.31857641851595" lon="11.430059397163706"><ele>536.25</ele><time>2026-04-11T16:30:39Z</time></trkpt><trkpt lat="44.31857266212212" lon="11.43024076906579"><ele>535.5</ele><time>2026-04-11T16:30:40Z</time></trkpt><trkpt lat="44.31857071054107" lon="11.430409968338934"><ele>534.75</ele><time>2026-04-11T16:30:41Z</time></trkpt><trkpt lat="44.31857293654785" lon="11.430564569202737"><ele>534.0</ele><time>2026-04-11T16:30:42Z</time></trkpt><trkpt lat="44.31858896261151" lon="11.430691396261505"><ele>536.8</ele><time>2026-04-11T16:30:43Z</time></trkpt><trkpt lat="44.31860486134476" lon="11.43081175947494"><ele>539.5999999999999</ele><time>2026-04-11T16:30:44Z</time></trkpt><trkpt lat="44.318634877850116" lon="11.43093460772029"><ele>542.4</ele><time>2026-04-11T16:30:45Z</time></trkpt><trkpt lat="44.318669681225444" lon="11.431044953327337"><ele>545.1999999999999</ele><time>2026-04-11T16:30:46Z</time></trkpt><trkpt lat="44.31877198812952" lon="11.431177000826409"><ele>548.0</ele><time>2026-04-11T16:30:48Z</time></trkpt><trkpt lat="44.31887111913118" lon="11.431223802851381"><ele>548.0</ele><time>2026-04-11T16:30:49Z</time></trkpt><trkpt lat="44.31898264291928" lon="11.431251955126703"><ele>548.0</ele><time>2026-04-11T16:30:50Z</time></trkpt><trkpt lat="44.31909825200541" lon="11.431300828715539"><ele>548.0</ele><time>2026-04-11T16:30:51Z</time></trkpt><trkpt lat="44.31918839210443" lon="11.431359553489495"><ele>548.0</ele><time>2026-04-11T16:30:52Z</time></trkpt><trkpt lat="44.31926148800099" lon="11.431419243389369"><ele>548.0</ele><time>2026-04-11T16:30:53Z</time></trkpt><trkpt lat="44.319333008264685" lon="11.43146905513461"><ele>548.0</ele><time>2026-04-11T16:30:54Z</time></trkpt><trkpt lat="44.3194026957873" lon="11.43150845119558"><ele>548.0</ele><time>2026-04-11T16:30:55Z</time></trkpt><trkpt lat="44.319468184650205" lon="11.431544939254922"><ele>548.0</ele><time>2026-04-11T16:30:56Z</time></trkpt><trkpt lat="44.319553294585575" lon="11.431599535915952"><ele>548.0</ele><time>2026-04-11T16:30:57Z</time></trkpt><trkpt lat="44.319635859265176" lon="11.431640186302607"><ele>548.0</ele><time>2026-04-11T16:30:57.999Z</time></trkpt><trkpt lat="44.319717126559226" lon="11.431666732970596"><ele>548.0</ele><time>2026-04-11T16:30:58.999Z</time></trkpt><trkpt lat="44.31978926465863" lon="11.43169244635548"><ele>548.1999999999999</ele><time>2026-04-11T16:30:59.999Z</time></trkpt><trkpt lat="44.31984853922301" lon="11.431733792514018"><ele>548.4</ele><time>2026-04-11T16:31:00.999Z</time></trkpt><trkpt lat="44.3199668013038" lon="11.431773789273242"><ele>548.5999999999999</ele><time>2026-04-11T16:31:02.999Z</time></trkpt><trkpt lat="44.319975630723256" lon="11.431875064546878"><ele>548.8</ele><time>2026-04-11T16:31:04.999Z</time></trkpt><trkpt lat="44.32000776277163" lon="11.431999125881331"><ele>549.0</ele><time>2026-04-11T16:31:06.999Z</time></trkpt><trkpt lat="44.32009128784718" lon="11.43189885577523"><ele>549.0</ele><time>2026-04-11T16:31:49.999Z</time></trkpt><trkpt lat="44.32012621253757" lon="11.43178995894888"><ele>549.0</ele><time>2026-04-11T16:31:50.999Z</time></trkpt><trkpt lat="44.32015529591942" lon="11.431707873365852"><ele>549.0</ele><time>2026-04-11T16:31:51.999Z</time></trkpt><trkpt lat="44.32020480758345" lon="11.431579445820805"><ele>549.0</ele><time>2026-04-11T16:31:53.999Z</time></trkpt><trkpt lat="44.320267921418036" lon="11.431451389028688"><ele>549.0</ele><time>2026-04-11T16:31:55.999Z</time></trkpt><trkpt lat="44.320314733042935" lon="11.431371499766149"><ele>549.0</ele><time>2026-04-11T16:31:56.999Z</time></trkpt><trkpt lat="44.32041201613403" lon="11.431333168259513"><ele>549.0</ele><time>2026-04-11T16:31:57.999Z</time></trkpt><trkpt lat="44.3205247293886" lon="11.431370676077195"><ele>549.0</ele><time>2026-04-11T16:31:58.999Z</time></trkpt><trkpt lat="44.320632208662474" lon="11.431303286553684"><ele>549.0</ele><time>2026-04-11T16:31:59.999Z</time></trkpt><trkpt lat="44.320738246451974" lon="11.431224562611732"><ele>549.0</ele><time>2026-04-11T16:32:00.999Z</time></trkpt><trkpt lat="44.320831996959875" lon="11.431128610864752"><ele>548.0</ele><time>2026-04-11T16:32:01.999Z</time></trkpt><trkpt lat="44.32092573817686" lon="11.431058298945503"><ele>547.0</ele><time>2026-04-11T16:32:02.999Z</time></trkpt><trkpt lat="44.32100356619986" lon="11.430984681762302"><ele>546.0</ele><time>2026-04-11T16:32:04Z</time></trkpt><trkpt lat="44.32108278282513" lon="11.430895151343538"><ele>545.0</ele><time>2026-04-11T16:32:05Z</time></trkpt><trkpt lat="44.32119513093871" lon="11.430872139751397"><ele>544.0</ele><time>2026-04-11T16:32:06Z</time></trkpt><trkpt lat="44.32131259001078" lon="11.430873045590024"><ele>544.1666666666667</ele><time>2026-04-11T16:32:07Z</time></trkpt><trkpt lat="44.32142691934689" lon="11.430859389631523"><ele>544.3333333333334</ele><time>2026-04-11T16:32:08Z</time></trkpt><trkpt lat="44.32152400252122" lon="11.43087932499569"><ele>544.5</ele><time>2026-04-11T16:32:09Z</time></trkpt><trkpt lat="44.32160604292445" lon="11.430882698876868"><ele>544.6666666666666</ele><time>2026-04-11T16:32:10Z</time></trkpt><trkpt lat="44.32167943377236" lon="11.430853670080797"><ele>544.8333333333333</ele><time>2026-04-11T16:32:11Z</time></trkpt><trkpt lat="44.32174922059676" lon="11.430814857209187"><ele>545.0</ele><time>2026-04-11T16:32:12Z</time></trkpt><trkpt lat="44.32178832088397" lon="11.430698970609315"><ele>545.0</ele><time>2026-04-11T16:32:13Z</time></trkpt><trkpt lat="44.321779742576574" lon="11.430542708067565"><ele>545.0</ele><time>2026-04-11T16:32:14Z</time></trkpt><trkpt lat="44.32170639868775" lon="11.43039817995306"><ele>545.0</ele><time>2026-04-11T16:32:15Z</time></trkpt><trkpt lat="44.32165092157856" lon="11.430243544385199"><ele>545.0</ele><time>2026-04-11T16:32:16Z</time></trkpt><trkpt lat="44.32161275108675" lon="11.430085535526592"><ele>543.4</ele><time>2026-04-11T16:32:17Z</time></trkpt><trkpt lat="44.32156526746017" lon="11.429949740762659"><ele>541.8</ele><time>2026-04-11T16:32:18Z</time></trkpt><trkpt lat="44.32152352149946" lon="11.429819760782005"><ele>540.2</ele><time>2026-04-11T16:32:19Z</time></trkpt><trkpt lat="44.321515027916504" lon="11.429664444535023"><ele>538.6</ele><time>2026-04-11T16:32:20Z</time></trkpt><trkpt lat="44.32154249150882" lon="11.42950763191719"><ele>537.0</ele><time>2026-04-11T16:32:21Z</time></trkpt><trkpt lat="44.32157483451921" lon="11.429323021745969"><ele>532.25</ele><time>2026-04-11T16:32:22Z</time></trkpt><trkpt lat="44.321589197137634" lon="11.42914434012167"><ele>527.5</ele><time>2026-04-11T16:32:23Z</time></trkpt><trkpt lat="44.32162779637958" lon="11.428964770531403"><ele>522.75</ele><time>2026-04-11T16:32:24Z</time></trkpt><trkpt lat="44.32165248605964" lon="11.42877571638776"><ele>518.0</ele><time>2026-04-11T16:32:25Z</time></trkpt><trkpt lat="44.321706615497206" lon="11.428596182847548"><ele>513.5</ele><time>2026-04-11T16:32:26Z</time></trkpt><trkpt lat="44.32174282722999" lon="11.428408798868254"><ele>509.0</ele><time>2026-04-11T16:32:27Z</time></trkpt><trkpt lat="44.321842181911386" lon="11.428254167521375"><ele>504.5</ele><time>2026-04-11T16:32:28Z</time></trkpt><trkpt lat="44.32193243611501" lon="11.42810778330624"><ele>500.0</ele><time>2026-04-11T16:32:29Z</time></trkpt><trkpt lat="44.32201277419893" lon="11.427988620809817"><ele>498.5</ele><time>2026-04-11T16:32:30Z</time></trkpt><trkpt lat="44.322101489403906" lon="11.42785956618348"><ele>497.0</ele><time>2026-04-11T16:32:31Z</time></trkpt><trkpt lat="44.32218799610118" lon="11.427721161450494"><ele>495.5</ele><time>2026-04-11T16:32:32Z</time></trkpt><trkpt lat="44.32226700310612" lon="11.427590619154572"><ele>494.0</ele><time>2026-04-11T16:32:33Z</time></trkpt><trkpt lat="44.32235237134208" lon="11.427459513265124"><ele>497.75</ele><time>2026-04-11T16:32:34Z</time></trkpt><trkpt lat="44.322442110690496" lon="11.427343149772785"><ele>501.5</ele><time>2026-04-11T16:32:35Z</time></trkpt><trkpt lat="44.32254138657558" lon="11.427235032333318"><ele>505.25</ele><time>2026-04-11T16:32:36Z</time></trkpt><trkpt lat="44.32265262054433" lon="11.427134218294222"><ele>509.0</ele><time>2026-04-11T16:32:37Z</time></trkpt><trkpt lat="44.32275507636148" lon="11.427005787830774"><ele>512.5</ele><time>2026-04-11T16:32:38Z</time></trkpt><trkpt lat="44.32286625706232" lon="11.426881369472577"><ele>516.0</ele><time>2026-04-11T16:32:39Z</time></trkpt><trkpt lat="44.32296273159776" lon="11.426746840541623"><ele>519.5</ele><time>2026-04-11T16:32:40Z</time></trkpt><trkpt lat="44.32304620268391" lon="11.426638818055842"><ele>523.0</ele><time>2026-04-11T16:32:41Z</time></trkpt><trkpt lat="44.323114567384074" lon="11.426535370304807"><ele>523.0</ele><time>2026-04-11T16:32:42Z</time></trkpt><trkpt lat="44.32315789852821" lon="11.426409060036125"><ele>523.0</ele><time>2026-04-11T16:32:43Z</time></trkpt><trkpt lat="44.32318143435726" lon="11.426260859311803"><ele>523.0</ele><time>2026-04-11T16:32:44Z</time></trkpt><trkpt lat="44.32321021775617" lon="11.426101812816736"><ele>523.0</ele><time>2026-04-11T16:32:45Z</time></trkpt><trkpt lat="44.32322586547756" lon="11.425951623509734"><ele>523.0</ele><time>2026-04-11T16:32:46Z</time></trkpt><trkpt lat="44.32321766605566" lon="11.425796378456681"><ele>523.1999999999999</ele><time>2026-04-11T16:32:47Z</time></trkpt><trkpt lat="44.3231982604317" lon="11.425673966879614"><ele>523.4</ele><time>2026-04-11T16:32:48Z</time></trkpt><trkpt lat="44.32312003715726" lon="11.425560955062473"><ele>523.5999999999999</ele><time>2026-04-11T16:32:49Z</time></trkpt><trkpt lat="44.323058418776206" lon="11.425431811255768"><ele>523.8</ele><time>2026-04-11T16:32:50Z</time></trkpt><trkpt lat="44.32300591823424" lon="11.425319377450364"><ele>524.0</ele><time>2026-04-11T16:32:51Z</time></trkpt><trkpt lat="44.322977004573296" lon="11.42522419810605"><ele>524.0</ele><time>2026-04-11T16:32:52Z</time></trkpt><trkpt lat="44.32297231667464" lon="11.425097369960218"><ele>524.0</ele><time>2026-04-11T16:32:53Z</time></trkpt><trkpt lat="44.32294770355125" lon="11.424994558306853"><ele>524.0</ele><time>2026-04-11T16:32:54Z</time></trkpt><trkpt lat="44.322902267582144" lon="11.42491173227595"><ele>524.0</ele><time>2026-04-11T16:32:55Z</time></trkpt><trkpt lat="44.32280757777846" lon="11.424890187083108"><ele>524.0</ele><time>2026-04-11T16:32:56Z</time></trkpt><trkpt lat="44.322712933979005" lon="11.424875381915196"><ele>524.0</ele><time>2026-04-11T16:32:57Z</time></trkpt><trkpt lat="44.32263560287113" lon="11.424825452800654"><ele>524.0</ele><time>2026-04-11T16:32:58Z</time></trkpt><trkpt lat="44.32256021865692" lon="11.424762724832977"><ele>524.0</ele><time>2026-04-11T16:32:59Z</time></trkpt><trkpt lat="44.32252438902688" lon="11.424640803936795"><ele>524.0</ele><time>2026-04-11T16:33:00Z</time></trkpt><trkpt lat="44.32251767641656" lon="11.424473988617347"><ele>524.0</ele><time>2026-04-11T16:33:01Z</time></trkpt><trkpt lat="44.322498976542086" lon="11.424313221501896"><ele>524.0</ele><time>2026-04-11T16:33:02Z</time></trkpt><trkpt lat="44.32248907354529" lon="11.424169168363983"><ele>523.0</ele><time>2026-04-11T16:33:03Z</time></trkpt><trkpt lat="44.32248413297886" lon="11.424040646931873"><ele>522.0</ele><time>2026-04-11T16:33:04Z</time></trkpt><trkpt lat="44.32249546572663" lon="11.423916109828435"><ele>521.0</ele><time>2026-04-11T16:33:05Z</time></trkpt><trkpt lat="44.322543944507245" lon="11.423786500186274"><ele>520.0</ele><time>2026-04-11T16:33:06Z</time></trkpt><trkpt lat="44.32264449499905" lon="11.423707405844914"><ele>519.0</ele><time>2026-04-11T16:33:07Z</time></trkpt><trkpt lat="44.32274032941455" lon="11.423596197391138"><ele>519.0</ele><time>2026-04-11T16:33:08Z</time></trkpt><trkpt lat="44.32284017277334" lon="11.423520026492612"><ele>519.0</ele><time>2026-04-11T16:33:09Z</time></trkpt><trkpt lat="44.322920141476914" lon="11.423428297872261"><ele>519.0</ele><time>2026-04-11T16:33:10Z</time></trkpt><trkpt lat="44.32296066780541" lon="11.423312748589236"><ele>519.0</ele><time>2026-04-11T16:33:11Z</time></trkpt><trkpt lat="44.322974123175655" lon="11.42318063648315"><ele>519.0</ele><time>2026-04-11T16:33:12Z</time></trkpt><trkpt lat="44.322973130774315" lon="11.423010583540309"><ele>516.0</ele><time>2026-04-11T16:33:12.999Z</time></trkpt><trkpt lat="44.32300185953702" lon="11.422843179206168"><ele>513.0</ele><time>2026-04-11T16:33:13.999Z</time></trkpt><trkpt lat="44.32302684843809" lon="11.422714825958035"><ele>510.0</ele><time>2026-04-11T16:33:14.999Z</time></trkpt><trkpt lat="44.32305234440595" lon="11.422602513177468"><ele>507.0</ele><time>2026-04-11T16:33:15.999Z</time></trkpt><trkpt lat="44.32307412938843" lon="11.422511878510022"><ele>504.0</ele><time>2026-04-11T16:33:16.999Z</time></trkpt><trkpt lat="44.323072204866364" lon="11.422365853463177"><ele>504.0</ele><time>2026-04-11T16:33:18.999Z</time></trkpt><trkpt lat="44.323033387761924" lon="11.42229404768535"><ele>504.0</ele><time>2026-04-11T16:33:21.999Z</time></trkpt><trkpt lat="44.323084976521294" lon="11.422205941445373"><ele>504.0</ele><time>2026-04-11T16:33:26.999Z</time></trkpt><trkpt lat="44.32317471960606" lon="11.422139025770676"><ele>504.0</ele><time>2026-04-11T16:33:27.999Z</time></trkpt><trkpt lat="44.323280440091914" lon="11.422068801009296"><ele>504.0</ele><time>2026-04-11T16:33:28.999Z</time></trkpt><trkpt lat="44.32340759150147" lon="11.422009712493983"><ele>501.25</ele><time>2026-04-11T16:33:29.999Z</time></trkpt><trkpt lat="44.32352488747807" lon="11.421936629788005"><ele>498.5</ele><time>2026-04-11T16:33:30.999Z</time></trkpt><trkpt lat="44.32362154817625" lon="11.421857796318283"><ele>495.75</ele><time>2026-04-11T16:33:31.999Z</time></trkpt><trkpt lat="44.3237141159734" lon="11.4217576332971"><ele>493.0</ele><time>2026-04-11T16:33:32.999Z</time></trkpt><trkpt lat="44.323812994829126" lon="11.421627328522296"><ele>493.0</ele><time>2026-04-11T16:33:33.999Z</time></trkpt><trkpt lat="44.32391284265846" lon="11.421492850294548"><ele>493.0</ele><time>2026-04-11T16:33:34.999Z</time></trkpt><trkpt lat="44.324015444259466" lon="11.421377035906817"><ele>493.0</ele><time>2026-04-11T16:33:35.999Z</time></trkpt><trkpt lat="44.32417931952057" lon="11.421188228262356"><ele>493.0</ele><time>2026-04-11T16:33:37.999Z</time></trkpt><trkpt lat="44.324270637400424" lon="11.421119649466553"><ele>493.0</ele><time>2026-04-11T16:33:38.999Z</time></trkpt><trkpt lat="44.32437897550085" lon="11.421073198642484"><ele>493.0</ele><time>2026-04-11T16:33:39.999Z</time></trkpt><trkpt lat="44.32450420954882" lon="11.421027464777396"><ele>493.0</ele><time>2026-04-11T16:33:40.999Z</time></trkpt><trkpt lat="44.324643112647564" lon="11.42101027396918"><ele>495.25</ele><time>2026-04-11T16:33:41.999Z</time></trkpt><trkpt lat="44.32477278183558" lon="11.420962435661517"><ele>497.5</ele><time>2026-04-11T16:33:42.999Z</time></trkpt><trkpt lat="44.32489542642959" lon="11.420910354512147"><ele>499.75</ele><time>2026-04-11T16:33:43.999Z</time></trkpt><trkpt lat="44.32501318338011" lon="11.420847354493004"><ele>502.0</ele><time>2026-04-11T16:33:44.999Z</time></trkpt><trkpt lat="44.32512927268457" lon="11.420850744435267"><ele>502.0</ele><time>2026-04-11T16:33:45.999Z</time></trkpt><trkpt lat="44.325241902477785" lon="11.420890847288158"><ele>502.0</ele><time>2026-04-11T16:33:46.999Z</time></trkpt><trkpt lat="44.32534385986255" lon="11.420943615894686"><ele>502.0</ele><time>2026-04-11T16:33:47.999Z</time></trkpt><trkpt lat="44.32545507545746" lon="11.420946256321749"><ele>502.0</ele><time>2026-04-11T16:33:48.999Z</time></trkpt><trkpt lat="44.32556877915024" lon="11.420966817679306"><ele>503.40000000000003</ele><time>2026-04-11T16:33:49.999Z</time></trkpt><trkpt lat="44.325682281727815" lon="11.420973014155145"><ele>504.80000000000007</ele><time>2026-04-11T16:33:50.999Z</time></trkpt><trkpt lat="44.32578959324553" lon="11.420919313112533"><ele>506.2</ele><time>2026-04-11T16:33:51.999Z</time></trkpt><trkpt lat="44.325882044593875" lon="11.420840395950563"><ele>507.6</ele><time>2026-04-11T16:33:52.999Z</time></trkpt><trkpt lat="44.325959269372454" lon="11.42072471761568"><ele>509.0</ele><time>2026-04-11T16:33:53.999Z</time></trkpt><trkpt lat="44.32603345276446" lon="11.4205745078437"><ele>506.5</ele><time>2026-04-11T16:33:54.999Z</time></trkpt><trkpt lat="44.32610164054437" lon="11.420409832034558"><ele>504.0</ele><time>2026-04-11T16:33:55.999Z</time></trkpt><trkpt lat="44.3261659347126" lon="11.420255561954683"><ele>501.5</ele><time>2026-04-11T16:33:56.999Z</time></trkpt><trkpt lat="44.32622615451212" lon="11.420115101097887"><ele>499.0</ele><time>2026-04-11T16:33:57.999Z</time></trkpt><trkpt lat="44.32629718423957" lon="11.419985417538538"><ele>502.0</ele><time>2026-04-11T16:33:58.999Z</time></trkpt><trkpt lat="44.32640208130959" lon="11.419899207646063"><ele>505.0</ele><time>2026-04-11T16:33:59.999Z</time></trkpt><trkpt lat="44.326501413211616" lon="11.419807246807158"><ele>508.0</ele><time>2026-04-11T16:34:00.999Z</time></trkpt><trkpt lat="44.3266060109782" lon="11.419714844986727"><ele>511.0</ele><time>2026-04-11T16:34:01.999Z</time></trkpt><trkpt lat="44.32669714463237" lon="11.41963174828918"><ele>511.8</ele><time>2026-04-11T16:34:02.999Z</time></trkpt><trkpt lat="44.32678460372751" lon="11.419567330596884"><ele>512.6</ele><time>2026-04-11T16:34:03.999Z</time></trkpt><trkpt lat="44.32687813771916" lon="11.419506833790631"><ele>513.4</ele><time>2026-04-11T16:34:04.999Z</time></trkpt><trkpt lat="44.32696588405385" lon="11.419434218785181"><ele>514.2</ele><time>2026-04-11T16:34:05.999Z</time></trkpt><trkpt lat="44.32702020673954" lon="11.41935721919907"><ele>515.0</ele><time>2026-04-11T16:34:06.999Z</time></trkpt><trkpt lat="44.32708528666419" lon="11.41931814786488"><ele>515.0</ele><time>2026-04-11T16:34:08.999Z</time></trkpt><trkpt lat="44.327158133705765" lon="11.419277088570201"><ele>515.0</ele><time>2026-04-11T16:34:11Z</time></trkpt><trkpt lat="44.32727844849279" lon="11.419248346584578"><ele>515.0</ele><time>2026-04-11T16:34:13Z</time></trkpt><trkpt lat="44.327348818072615" lon="11.419243873366245"><ele>515.0</ele><time>2026-04-11T16:34:14Z</time></trkpt><trkpt lat="44.32741201829824" lon="11.419213208988173"><ele>515.0</ele><time>2026-04-11T16:34:15Z</time></trkpt><trkpt lat="44.32754355452618" lon="11.419202732759459"><ele>512.4</ele><time>2026-04-11T16:34:17Z</time></trkpt><trkpt lat="44.3276171194658" lon="11.419186101519475"><ele>509.8</ele><time>2026-04-11T16:34:18Z</time></trkpt><trkpt lat="44.32770371777369" lon="11.419177727609224"><ele>507.20000000000005</ele><time>2026-04-11T16:34:19Z</time></trkpt><trkpt lat="44.32778991692643" lon="11.419156179972598"><ele>504.6</ele><time>2026-04-11T16:34:20Z</time></trkpt><trkpt lat="44.327889862373155" lon="11.419162467819142"><ele>502.0</ele><time>2026-04-11T16:34:21Z</time></trkpt><trkpt lat="44.32799008972074" lon="11.419204286295518"><ele>499.40000000000003</ele><time>2026-04-11T16:34:22Z</time></trkpt><trkpt lat="44.32808447778614" lon="11.419219645286647"><ele>496.80000000000007</ele><time>2026-04-11T16:34:23Z</time></trkpt><trkpt lat="44.32819125071488" lon="11.419225107184566"><ele>494.2</ele><time>2026-04-11T16:34:24Z</time></trkpt><trkpt lat="44.328303055618036" lon="11.419227495526195"><ele>491.6</ele><time>2026-04-11T16:34:25Z</time></trkpt><trkpt lat="44.32840539125443" lon="11.419234445884355"><ele>489.0</ele><time>2026-04-11T16:34:26Z</time></trkpt><trkpt lat="44.328508403378564" lon="11.419223542270574"><ele>489.0</ele><time>2026-04-11T16:34:27Z</time></trkpt><trkpt lat="44.32859854586928" lon="11.41920057687408"><ele>489.0</ele><time>2026-04-11T16:34:28Z</time></trkpt><trkpt lat="44.32867591704854" lon="11.419173115052981"><ele>489.0</ele><time>2026-04-11T16:34:29Z</time></trkpt><trkpt lat="44.328752248120914" lon="11.419145581830058"><ele>489.0</ele><time>2026-04-11T16:34:30Z</time></trkpt><trkpt lat="44.32882794924639" lon="11.419121899406333"><ele>489.0</ele><time>2026-04-11T16:34:31Z</time></trkpt><trkpt lat="44.32892097988153" lon="11.4191038316521"><ele>489.0</ele><time>2026-04-11T16:34:32Z</time></trkpt><trkpt lat="44.32901125841228" lon="11.4190950454578"><ele>487.28571428571433</ele><time>2026-04-11T16:34:33Z</time></trkpt><trkpt lat="44.32908741465045" lon="11.419109866417086"><ele>485.5714285714286</ele><time>2026-04-11T16:34:34Z</time></trkpt><trkpt lat="44.329165968125515" lon="11.419127499240718"><ele>483.8571428571429</ele><time>2026-04-11T16:34:35Z</time></trkpt><trkpt lat="44.32923820521815" lon="11.419155712868006"><ele>482.1428571428571</ele><time>2026-04-11T16:34:36Z</time></trkpt><trkpt lat="44.32930837495823" lon="11.419168040057668"><ele>480.4285714285714</ele><time>2026-04-11T16:34:37Z</time></trkpt><trkpt lat="44.329375670581065" lon="11.419153677620082"><ele>478.71428571428567</ele><time>2026-04-11T16:34:38Z</time></trkpt><trkpt lat="44.32943782109867" lon="11.419108002147786"><ele>477.0</ele><time>2026-04-11T16:34:39Z</time></trkpt><trkpt lat="44.32951817679948" lon="11.419081313318488"><ele>477.0</ele><time>2026-04-11T16:34:40Z</time></trkpt><trkpt lat="44.32957072215857" lon="11.418978290178497"><ele>477.00000000000006</ele><time>2026-04-11T16:34:41Z</time></trkpt><trkpt lat="44.32961201162872" lon="11.418836759753859"><ele>477.00000000000006</ele><time>2026-04-11T16:34:42Z</time></trkpt><trkpt lat="44.32964839145272" lon="11.418697505637617"><ele>477.0</ele><time>2026-04-11T16:34:43Z</time></trkpt><trkpt lat="44.329677359269645" lon="11.418552108071378"><ele>477.0</ele><time>2026-04-11T16:34:44Z</time></trkpt><trkpt lat="44.32970522222233" lon="11.418408678789648"><ele>474.40000000000003</ele><time>2026-04-11T16:34:45Z</time></trkpt><trkpt lat="44.329734024024766" lon="11.418272453002647"><ele>471.80000000000007</ele><time>2026-04-11T16:34:46Z</time></trkpt><trkpt lat="44.329761354157725" lon="11.418141772016185"><ele>469.2</ele><time>2026-04-11T16:34:47Z</time></trkpt><trkpt lat="44.329792095726056" lon="11.41801176528475"><ele>466.6</ele><time>2026-04-11T16:34:48Z</time></trkpt><trkpt lat="44.32986486405891" lon="11.417900450527787"><ele>464.0</ele><time>2026-04-11T16:34:49Z</time></trkpt><trkpt lat="44.32993984663632" lon="11.417809998865074"><ele>462.25</ele><time>2026-04-11T16:34:50Z</time></trkpt><trkpt lat="44.33004420159871" lon="11.41770222799738"><ele>460.5</ele><time>2026-04-11T16:34:51Z</time></trkpt><trkpt lat="44.330160295187824" lon="11.417593681904341"><ele>458.75</ele><time>2026-04-11T16:34:52Z</time></trkpt><trkpt lat="44.330271645092544" lon="11.417498118030059"><ele>457.0</ele><time>2026-04-11T16:34:53Z</time></trkpt><trkpt lat="44.33037196584304" lon="11.417403245427924"><ele>457.0</ele><time>2026-04-11T16:34:54Z</time></trkpt><trkpt lat="44.330449589349236" lon="11.417290647305103"><ele>457.0</ele><time>2026-04-11T16:34:55Z</time></trkpt><trkpt lat="44.33055590608709" lon="11.417212499382918"><ele>457.0</ele><time>2026-04-11T16:34:56Z</time></trkpt><trkpt lat="44.3306548950064" lon="11.417077683228976"><ele>457.0</ele><time>2026-04-11T16:34:57Z</time></trkpt><trkpt lat="44.33074812857299" lon="11.416975869745025"><ele>454.20000000000005</ele><time>2026-04-11T16:34:58Z</time></trkpt><trkpt lat="44.33083973915423" lon="11.41683951821808"><ele>451.40000000000003</ele><time>2026-04-11T16:34:59Z</time></trkpt><trkpt lat="44.33091513823314" lon="11.416724898155977"><ele>448.59999999999997</ele><time>2026-04-11T16:35:00Z</time></trkpt><trkpt lat="44.33097836183804" lon="11.416637488463282"><ele>445.79999999999995</ele><time>2026-04-11T16:35:01Z</time></trkpt><trkpt lat="44.33104421927484" lon="11.416551877096872"><ele>443.0</ele><time>2026-04-11T16:35:02Z</time></trkpt><trkpt lat="44.331102512079454" lon="11.416448995692098"><ele>442.99999999999994</ele><time>2026-04-11T16:35:03Z</time></trkpt><trkpt lat="44.331136946087966" lon="11.416339894580991"><ele>443.0</ele><time>2026-04-11T16:35:04Z</time></trkpt><trkpt lat="44.33115552133028" lon="11.416239481583823"><ele>443.0</ele><time>2026-04-11T16:35:05Z</time></trkpt><trkpt lat="44.33121833073929" lon="11.416090092381761"><ele>443.0</ele><time>2026-04-11T16:35:07Z</time></trkpt><trkpt lat="44.33128114602549" lon="11.416021180260458"><ele>442.99999999999994</ele><time>2026-04-11T16:35:08Z</time></trkpt><trkpt lat="44.331353882555135" lon="11.415979294985743"><ele>443.0</ele><time>2026-04-11T16:35:09Z</time></trkpt><trkpt lat="44.33143660169269" lon="11.41594734587587"><ele>440.79999999999995</ele><time>2026-04-11T16:35:10Z</time></trkpt><trkpt lat="44.33151873654714" lon="11.415921375459032"><ele>438.59999999999997</ele><time>2026-04-11T16:35:11Z</time></trkpt><trkpt lat="44.33160442036467" lon="11.415976440890914"><ele>436.40000000000003</ele><time>2026-04-11T16:35:12Z</time></trkpt><trkpt lat="44.33168434364019" lon="11.41594096307377"><ele>434.20000000000005</ele><time>2026-04-11T16:35:13Z</time></trkpt><trkpt lat="44.33175132506363" lon="11.415846507631871"><ele>432.0</ele><time>2026-04-11T16:35:14Z</time></trkpt><trkpt lat="44.33179209956357" lon="11.4157224528977"><ele>432.0</ele><time>2026-04-11T16:35:14.999Z</time></trkpt><trkpt lat="44.33182221026892" lon="11.415611989208578"><ele>432.00000000000006</ele><time>2026-04-11T16:35:15.999Z</time></trkpt><trkpt lat="44.3318757059259" lon="11.4155296229813"><ele>432.00000000000006</ele><time>2026-04-11T16:35:16.999Z</time></trkpt><trkpt lat="44.33196118903194" lon="11.415476403715765"><ele>432.0</ele><time>2026-04-11T16:35:17.999Z</time></trkpt><trkpt lat="44.33206015337561" lon="11.415436914194292"><ele>432.0</ele><time>2026-04-11T16:35:18.999Z</time></trkpt><trkpt lat="44.33217490759514" lon="11.415429488361655"><ele>425.40000000000003</ele><time>2026-04-11T16:35:19.999Z</time></trkpt><trkpt lat="44.33229704487161" lon="11.415452969284084"><ele>418.80000000000007</ele><time>2026-04-11T16:35:20.999Z</time></trkpt><trkpt lat="44.332397646783186" lon="11.415438179214707"><ele>412.2</ele><time>2026-04-11T16:35:21.999Z</time></trkpt><trkpt lat="44.33249824650708" lon="11.415403633145145"><ele>405.6</ele><time>2026-04-11T16:35:22.999Z</time></trkpt><trkpt lat="44.33259573591963" lon="11.415360507704847"><ele>399.0</ele><time>2026-04-11T16:35:23.999Z</time></trkpt><trkpt lat="44.33267968047948" lon="11.415308145693201"><ele>399.0</ele><time>2026-04-11T16:35:24.999Z</time></trkpt><trkpt lat="44.33274907500022" lon="11.415232761441683"><ele>399.0</ele><time>2026-04-11T16:35:25.999Z</time></trkpt><trkpt lat="44.33279340995072" lon="11.41512934519765"><ele>399.0</ele><time>2026-04-11T16:35:26.999Z</time></trkpt><trkpt lat="44.33282473981856" lon="11.415018100200278"><ele>399.0</ele><time>2026-04-11T16:35:27.999Z</time></trkpt><trkpt lat="44.33286607627497" lon="11.414908133881765"><ele>399.0</ele><time>2026-04-11T16:35:28.999Z</time></trkpt><trkpt lat="44.33292038243668" lon="11.414797974131817"><ele>399.0</ele><time>2026-04-11T16:35:29.999Z</time></trkpt><trkpt lat="44.33299146229352" lon="11.41470135111325"><ele>395.4</ele><time>2026-04-11T16:35:30.999Z</time></trkpt><trkpt lat="44.33308922366269" lon="11.414628350937958"><ele>391.79999999999995</ele><time>2026-04-11T16:35:31.999Z</time></trkpt><trkpt lat="44.333184583287654" lon="11.414582824464588"><ele>388.20000000000005</ele><time>2026-04-11T16:35:32.999Z</time></trkpt><trkpt lat="44.33327563931141" lon="11.414561655901489"><ele>384.6</ele><time>2026-04-11T16:35:33.999Z</time></trkpt><trkpt lat="44.33336599893128" lon="11.414571952181303"><ele>381.0</ele><time>2026-04-11T16:35:34.999Z</time></trkpt><trkpt lat="44.33344128267935" lon="11.414629726506094"><ele>381.0</ele><time>2026-04-11T16:35:35.999Z</time></trkpt><trkpt lat="44.33352455957768" lon="11.414666076938014"><ele>381.0</ele><time>2026-04-11T16:35:36.999Z</time></trkpt><trkpt lat="44.33359750713481" lon="11.414647335606501"><ele>381.0</ele><time>2026-04-11T16:35:37.999Z</time></trkpt><trkpt lat="44.33367251141628" lon="11.41456490032642"><ele>381.0</ele><time>2026-04-11T16:35:38.999Z</time></trkpt><trkpt lat="44.333736238882594" lon="11.414453757677105"><ele>381.0</ele><time>2026-04-11T16:35:39.999Z</time></trkpt><trkpt lat="44.333778161583716" lon="11.41432113763447"><ele>381.0</ele><time>2026-04-11T16:35:40.999Z</time></trkpt><trkpt lat="44.33380265776911" lon="11.41417878488361"><ele>381.0</ele><time>2026-04-11T16:35:41.999Z</time></trkpt><trkpt lat="44.3338449906638" lon="11.41404924358133"><ele>381.0</ele><time>2026-04-11T16:35:42.999Z</time></trkpt><trkpt lat="44.33386531859479" lon="11.41391263230949"><ele>381.0</ele><time>2026-04-11T16:35:43.999Z</time></trkpt><trkpt lat="44.333929455720536" lon="11.413791195943148"><ele>381.0</ele><time>2026-04-11T16:35:44.999Z</time></trkpt><trkpt lat="44.33397572339347" lon="11.413645858094295"><ele>379.8333333333333</ele><time>2026-04-11T16:35:45.999Z</time></trkpt><trkpt lat="44.3339735503613" lon="11.413484927496173"><ele>378.6666666666667</ele><time>2026-04-11T16:35:46.999Z</time></trkpt><trkpt lat="44.33398932637224" lon="11.413352987481796"><ele>377.5</ele><time>2026-04-11T16:35:47.999Z</time></trkpt><trkpt lat="44.33398023899282" lon="11.41324731273262"><ele>376.33333333333337</ele><time>2026-04-11T16:35:48.999Z</time></trkpt><trkpt lat="44.333973348490204" lon="11.413140486336122"><ele>375.1666666666667</ele><time>2026-04-11T16:35:49.999Z</time></trkpt><trkpt lat="44.33402237612423" lon="11.413045405886994"><ele>374.0</ele><time>2026-04-11T16:35:50.999Z</time></trkpt><trkpt lat="44.334124469079036" lon="11.41298696483362"><ele>369.79999999999995</ele><time>2026-04-11T16:35:51.999Z</time></trkpt><trkpt lat="44.33418947825543" lon="11.412873205455266"><ele>365.59999999999997</ele><time>2026-04-11T16:35:52.999Z</time></trkpt><trkpt lat="44.334254519629205" lon="11.412778962479782"><ele>361.4</ele><time>2026-04-11T16:35:53.999Z</time></trkpt><trkpt lat="44.334290488348806" lon="11.412637397858056"><ele>357.2</ele><time>2026-04-11T16:35:54.999Z</time></trkpt><trkpt lat="44.334302759534985" lon="11.412489446549452"><ele>353.0</ele><time>2026-04-11T16:35:55.999Z</time></trkpt><trkpt lat="44.33431438297049" lon="11.412341524341532"><ele>353.0</ele><time>2026-04-11T16:35:56.999Z</time></trkpt><trkpt lat="44.33430356790472" lon="11.412201023649672"><ele>353.0</ele><time>2026-04-11T16:35:57.999Z</time></trkpt><trkpt lat="44.3342787638293" lon="11.412078683575153"><ele>353.0</ele><time>2026-04-11T16:35:58.999Z</time></trkpt><trkpt lat="44.33425305327165" lon="11.411975593261955"><ele>353.0</ele><time>2026-04-11T16:35:59.999Z</time></trkpt><trkpt lat="44.33423181996263" lon="11.411863701431843"><ele>353.0</ele><time>2026-04-11T16:36:01.999Z</time></trkpt><trkpt lat="44.33436243294842" lon="11.411780086848397"><ele>351.5</ele><time>2026-04-11T16:36:03.999Z</time></trkpt><trkpt lat="44.334464962364365" lon="11.41189156853638"><ele>350.0</ele><time>2026-04-11T16:36:04.999Z</time></trkpt><trkpt lat="44.33456843482413" lon="11.411973956342953"><ele>348.5</ele><time>2026-04-11T16:36:05.999Z</time></trkpt><trkpt lat="44.334677472793715" lon="11.412028423900455"><ele>347.0</ele><time>2026-04-11T16:36:06.999Z</time></trkpt><trkpt lat="44.334796898712725" lon="11.412034560115732"><ele>347.0</ele><time>2026-04-11T16:36:07.999Z</time></trkpt><trkpt lat="44.334937098110075" lon="11.411995245447532"><ele>347.0</ele><time>2026-04-11T16:36:08.999Z</time></trkpt><trkpt lat="44.33507614529612" lon="11.411931582678163"><ele>347.0</ele><time>2026-04-11T16:36:09.999Z</time></trkpt><trkpt lat="44.335198597912594" lon="11.411861735993808"><ele>347.0</ele><time>2026-04-11T16:36:10.999Z</time></trkpt><trkpt lat="44.33530367655149" lon="11.411774396875542"><ele>347.0</ele><time>2026-04-11T16:36:11.999Z</time></trkpt><trkpt lat="44.33538689529996" lon="11.41164992584302"><ele>347.0</ele><time>2026-04-11T16:36:12.999Z</time></trkpt><trkpt lat="44.33546399215479" lon="11.411542572485198"><ele>347.0</ele><time>2026-04-11T16:36:13.999Z</time></trkpt><trkpt lat="44.335515403391184" lon="11.411434504990993"><ele>347.0</ele><time>2026-04-11T16:36:14.999Z</time></trkpt><trkpt lat="44.33555807535171" lon="11.411344291004832"><ele>347.0</ele><time>2026-04-11T16:36:16Z</time></trkpt><trkpt lat="44.3356001820019" lon="11.411261480700917"><ele>344.6</ele><time>2026-04-11T16:36:17Z</time></trkpt><trkpt lat="44.33570520065158" lon="11.411246348655705"><ele>342.20000000000005</ele><time>2026-04-11T16:36:19Z</time></trkpt><trkpt lat="44.335768225100736" lon="11.411297291970076"><ele>339.8</ele><time>2026-04-11T16:36:20Z</time></trkpt><trkpt lat="44.335790975406006" lon="11.4114438505993"><ele>337.4</ele><time>2026-04-11T16:36:21Z</time></trkpt><trkpt lat="44.33584958042524" lon="11.411551154752738"><ele>335.0</ele><time>2026-04-11T16:36:22Z</time></trkpt><trkpt lat="44.335934710355815" lon="11.411622810031508"><ele>335.0</ele><time>2026-04-11T16:36:23Z</time></trkpt><trkpt lat="44.33603479188031" lon="11.411650093589271"><ele>335.0</ele><time>2026-04-11T16:36:24Z</time></trkpt><trkpt lat="44.33613953904658" lon="11.411621387097954"><ele>335.0</ele><time>2026-04-11T16:36:25Z</time></trkpt><trkpt lat="44.336243696518196" lon="11.4115410183961"><ele>335.0</ele><time>2026-04-11T16:36:26Z</time></trkpt><trkpt lat="44.33633934985901" lon="11.41141884508989"><ele>329.5</ele><time>2026-04-11T16:36:27Z</time></trkpt><trkpt lat="44.336419182283" lon="11.411262595885633"><ele>324.0</ele><time>2026-04-11T16:36:28Z</time></trkpt><trkpt lat="44.33649289155405" lon="11.411098753120855"><ele>318.5</ele><time>2026-04-11T16:36:29Z</time></trkpt><trkpt lat="44.336553441135806" lon="11.410940869027629"><ele>313.0</ele><time>2026-04-11T16:36:30Z</time></trkpt><trkpt lat="44.33661218156935" lon="11.410788176787145"><ele>313.0</ele><time>2026-04-11T16:36:31Z</time></trkpt><trkpt lat="44.33668392866357" lon="11.41065535366177"><ele>313.0</ele><time>2026-04-11T16:36:32Z</time></trkpt><trkpt lat="44.336729247736734" lon="11.410550264465451"><ele>313.0</ele><time>2026-04-11T16:36:33Z</time></trkpt><trkpt lat="44.336760064695994" lon="11.41046752727207"><ele>313.0</ele><time>2026-04-11T16:36:34Z</time></trkpt><trkpt lat="44.33683056628168" lon="11.41041900170167"><ele>313.0</ele><time>2026-04-11T16:36:35Z</time></trkpt><trkpt lat="44.336913811811456" lon="11.410448874442277"><ele>313.0</ele><time>2026-04-11T16:36:36Z</time></trkpt><trkpt lat="44.33701280672143" lon="11.410496187715758"><ele>313.0</ele><time>2026-04-11T16:36:37Z</time></trkpt><trkpt lat="44.33708754853078" lon="11.410587884863384"><ele>313.0</ele><time>2026-04-11T16:36:38Z</time></trkpt><trkpt lat="44.33715419875522" lon="11.410684162898601"><ele>313.0</ele><time>2026-04-11T16:36:39Z</time></trkpt><trkpt lat="44.33722487176034" lon="11.41073736638765"><ele>313.0</ele><time>2026-04-11T16:36:40Z</time></trkpt><trkpt lat="44.33731879789213" lon="11.410726016461146"><ele>313.0</ele><time>2026-04-11T16:36:41Z</time></trkpt><trkpt lat="44.33741885213794" lon="11.410667806472382"><ele>311.4</ele><time>2026-04-11T16:36:42Z</time></trkpt><trkpt lat="44.33749593078549" lon="11.410579118766623"><ele>309.8</ele><time>2026-04-11T16:36:43Z</time></trkpt><trkpt lat="44.337553554165815" lon="11.410455203304224"><ele>308.2</ele><time>2026-04-11T16:36:44Z</time></trkpt><trkpt lat="44.337619706947414" lon="11.410347980573208"><ele>306.6</ele><time>2026-04-11T16:36:45Z</time></trkpt><trkpt lat="44.3377272772489" lon="11.410291778562794"><ele>305.0</ele><time>2026-04-11T16:36:46Z</time></trkpt><trkpt lat="44.33781372656271" lon="11.410181507960033"><ele>300.4</ele><time>2026-04-11T16:36:47Z</time></trkpt><trkpt lat="44.33789155962664" lon="11.41006346207089"><ele>295.8</ele><time>2026-04-11T16:36:48Z</time></trkpt><trkpt lat="44.33797252201925" lon="11.409955047063715"><ele>291.2</ele><time>2026-04-11T16:36:49Z</time></trkpt><trkpt lat="44.338036605942136" lon="11.409845137706213"><ele>286.6</ele><time>2026-04-11T16:36:50Z</time></trkpt><trkpt lat="44.33811028642663" lon="11.409763891614595"><ele>282.0</ele><time>2026-04-11T16:36:51Z</time></trkpt><trkpt lat="44.33819125757175" lon="11.409702770557429"><ele>279.8</ele><time>2026-04-11T16:36:52Z</time></trkpt><trkpt lat="44.33828057257754" lon="11.409665718721927"><ele>277.6</ele><time>2026-04-11T16:36:53Z</time></trkpt><trkpt lat="44.3383747846625" lon="11.409685255573635"><ele>275.40000000000003</ele><time>2026-04-11T16:36:54Z</time></trkpt><trkpt lat="44.33848329692046" lon="11.40969503253464"><ele>273.2</ele><time>2026-04-11T16:36:55Z</time></trkpt><trkpt lat="44.338582397667594" lon="11.40970770820678"><ele>271.0</ele><time>2026-04-11T16:36:56Z</time></trkpt><trkpt lat="44.338705306901915" lon="11.409655980630259"><ele>267.40000000000003</ele><time>2026-04-11T16:36:57Z</time></trkpt><trkpt lat="44.338798306638964" lon="11.409565837824022"><ele>263.8</ele><time>2026-04-11T16:36:58Z</time></trkpt><trkpt lat="44.338866283528105" lon="11.409487806807897"><ele>260.20000000000005</ele><time>2026-04-11T16:36:59Z</time></trkpt><trkpt lat="44.33890738980292" lon="11.409414488125677"><ele>256.6</ele><time>2026-04-11T16:37:00Z</time></trkpt><trkpt lat="44.33892527872439" lon="11.40931365283295"><ele>253.0</ele><time>2026-04-11T16:37:01Z</time></trkpt><trkpt lat="44.338830405420325" lon="11.409193060927572"><ele>252.99999999999997</ele><time>2026-04-11T16:37:02Z</time></trkpt><trkpt lat="44.33876137532642" lon="11.409186426038683"><ele>253.0</ele><time>2026-04-11T16:37:03Z</time></trkpt><trkpt lat="44.33870331271535" lon="11.4092266813636"><ele>253.0</ele><time>2026-04-11T16:37:04Z</time></trkpt><trkpt lat="44.33861660189399" lon="11.409200030399651"><ele>253.0</ele><time>2026-04-11T16:37:05Z</time></trkpt><trkpt lat="44.338529495840774" lon="11.409211677816849"><ele>252.99999999999997</ele><time>2026-04-11T16:37:06Z</time></trkpt><trkpt lat="44.33843281904001" lon="11.409203971348669"><ele>253.0</ele><time>2026-04-11T16:37:07Z</time></trkpt><trkpt lat="44.33833308653539" lon="11.409162701612047"><ele>253.0</ele><time>2026-04-11T16:37:08Z</time></trkpt><trkpt lat="44.33822341831066" lon="11.40913729544097"><ele>253.0</ele><time>2026-04-11T16:37:09Z</time></trkpt><trkpt lat="44.33811199444798" lon="11.409137444621"><ele>253.0</ele><time>2026-04-11T16:37:10Z</time></trkpt><trkpt lat="44.33800160442559" lon="11.409136884712185"><ele>253.0</ele><time>2026-04-11T16:37:11Z</time></trkpt><trkpt lat="44.33789566169736" lon="11.409117719630059"><ele>253.0</ele><time>2026-04-11T16:37:11.999Z</time></trkpt><trkpt lat="44.337796761743476" lon="11.409114312212175"><ele>254.0</ele><time>2026-04-11T16:37:12.999Z</time></trkpt><trkpt lat="44.33770829047549" lon="11.409102693789187"><ele>255.0</ele><time>2026-04-11T16:37:13.999Z</time></trkpt><trkpt lat="44.33764840816982" lon="11.40903849509542"><ele>256.0</ele><time>2026-04-11T16:37:14.999Z</time></trkpt><trkpt lat="44.337606478228224" lon="11.40893386835755"><ele>257.0</ele><time>2026-04-11T16:37:15.999Z</time></trkpt><trkpt lat="44.33757618448796" lon="11.408790153289129"><ele>258.0</ele><time>2026-04-11T16:37:16.999Z</time></trkpt><trkpt lat="44.33752655489659" lon="11.408627349372178"><ele>253.75</ele><time>2026-04-11T16:37:17.999Z</time></trkpt><trkpt lat="44.33748155295654" lon="11.408453500585393"><ele>249.5</ele><time>2026-04-11T16:37:18.999Z</time></trkpt><trkpt lat="44.33746150829233" lon="11.408297267654248"><ele>245.25</ele><time>2026-04-11T16:37:19.999Z</time></trkpt><trkpt lat="44.337453422369" lon="11.408135703531906"><ele>241.0</ele><time>2026-04-11T16:37:20.999Z</time></trkpt><trkpt lat="44.33744150576027" lon="11.407978442929812"><ele>238.25</ele><time>2026-04-11T16:37:21.999Z</time></trkpt><trkpt lat="44.33741090914872" lon="11.407815752548371"><ele>235.5</ele><time>2026-04-11T16:37:22.999Z</time></trkpt><trkpt lat="44.3373975371422" lon="11.40765474410221"><ele>232.75</ele><time>2026-04-11T16:37:23.999Z</time></trkpt><trkpt lat="44.33738170425735" lon="11.407512754558581"><ele>230.0</ele><time>2026-04-11T16:37:24.999Z</time></trkpt><trkpt lat="44.337338817097304" lon="11.407367145563562"><ele>230.0</ele><time>2026-04-11T16:37:25.999Z</time></trkpt><trkpt lat="44.337275504117265" lon="11.407243014084157"><ele>230.0</ele><time>2026-04-11T16:37:26.999Z</time></trkpt><trkpt lat="44.33721095847694" lon="11.407140848163762"><ele>230.0</ele><time>2026-04-11T16:37:27.999Z</time></trkpt><trkpt lat="44.33717600479433" lon="11.407051238984936"><ele>230.0</ele><time>2026-04-11T16:37:28.999Z</time></trkpt><trkpt lat="44.337122027704766" lon="11.40694399734137"><ele>230.0</ele><time>2026-04-11T16:37:30.999Z</time></trkpt><trkpt lat="44.337212302020674" lon="11.406857535016027"><ele>227.83333333333334</ele><time>2026-04-11T16:37:32.999Z</time></trkpt><trkpt lat="44.33729873239003" lon="11.406894018034112"><ele>225.66666666666669</ele><time>2026-04-11T16:37:33.999Z</time></trkpt><trkpt lat="44.337367690990725" lon="11.406968446215656"><ele>223.5</ele><time>2026-04-11T16:37:34.999Z</time></trkpt><trkpt lat="44.337425826321855" lon="11.407007530558833"><ele>221.33333333333331</ele><time>2026-04-11T16:37:35.999Z</time></trkpt><trkpt lat="44.337491631042276" lon="11.407009601379922"><ele>219.16666666666666</ele><time>2026-04-11T16:37:36.999Z</time></trkpt><trkpt lat="44.33755849696951" lon="11.406996687027295"><ele>217.0</ele><time>2026-04-11T16:37:37.999Z</time></trkpt><trkpt lat="44.337606889824315" lon="11.406889597405424"><ele>217.0</ele><time>2026-04-11T16:37:38.999Z</time></trkpt><trkpt lat="44.33758380684377" lon="11.406763650335357"><ele>217.0</ele><time>2026-04-11T16:37:39.999Z</time></trkpt><trkpt lat="44.33754138391043" lon="11.40666051262718"><ele>217.0</ele><time>2026-04-11T16:37:40.999Z</time></trkpt><trkpt lat="44.33750776396657" lon="11.406527748012229"><ele>217.0</ele><time>2026-04-11T16:37:41.999Z</time></trkpt><trkpt lat="44.33745477923897" lon="11.406406146791634"><ele>217.0</ele><time>2026-04-11T16:37:42.999Z</time></trkpt><trkpt lat="44.337396760426245" lon="11.406307139799202"><ele>215.8</ele><time>2026-04-11T16:37:43.999Z</time></trkpt><trkpt lat="44.33735300562838" lon="11.406206088325323"><ele>214.6</ele><time>2026-04-11T16:37:44.999Z</time></trkpt><trkpt lat="44.33728817693995" lon="11.406095826559001"><ele>213.4</ele><time>2026-04-11T16:37:45.999Z</time></trkpt><trkpt lat="44.337218614639774" lon="11.406001470107972"><ele>212.20000000000002</ele><time>2026-04-11T16:37:46.999Z</time></trkpt><trkpt lat="44.33714939042199" lon="11.405916656266605"><ele>211.0</ele><time>2026-04-11T16:37:47.999Z</time></trkpt><trkpt lat="44.337083442537256" lon="11.405831277602388"><ele>210.99999999999997</ele><time>2026-04-11T16:37:48.999Z</time></trkpt><trkpt lat="44.33703912315108" lon="11.405742173277952"><ele>211.0</ele><time>2026-04-11T16:37:49.999Z</time></trkpt><trkpt lat="44.33698824966214" lon="11.405686241746261"><ele>211.0</ele><time>2026-04-11T16:37:50.999Z</time></trkpt><trkpt lat="44.33696242625607" lon="11.405533414310757"><ele>211.0</ele><time>2026-04-11T16:37:52.999Z</time></trkpt><trkpt lat="44.33703613664828" lon="11.405477858890587"><ele>210.99999999999997</ele><time>2026-04-11T16:37:53.999Z</time></trkpt><trkpt lat="44.337113021767536" lon="11.405424894753065"><ele>211.0</ele><time>2026-04-11T16:37:54.999Z</time></trkpt><trkpt lat="44.33718032262553" lon="11.405333925345792"><ele>208.33333333333331</ele><time>2026-04-11T16:37:55.999Z</time></trkpt><trkpt lat="44.33724606820312" lon="11.405243854380254"><ele>205.66666666666666</ele><time>2026-04-11T16:37:56.999Z</time></trkpt><trkpt lat="44.337310943262196" lon="11.405155242014724"><ele>203.0</ele><time>2026-04-11T16:37:57.999Z</time></trkpt><trkpt lat="44.33737349443111" lon="11.405067240047236"><ele>200.33333333333331</ele><time>2026-04-11T16:37:58.999Z</time></trkpt><trkpt lat="44.33743159849601" lon="11.404981594995688"><ele>197.66666666666666</ele><time>2026-04-11T16:37:59.999Z</time></trkpt><trkpt lat="44.33748060307507" lon="11.404912188296231"><ele>195.0</ele><time>2026-04-11T16:38:00.999Z</time></trkpt><trkpt lat="44.33755769298952" lon="11.404811453439198"><ele>195.0</ele><time>2026-04-11T16:38:02.999Z</time></trkpt><trkpt lat="44.33761716374204" lon="11.404723067308781"><ele>195.0</ele><time>2026-04-11T16:38:05.999Z</time></trkpt><trkpt lat="44.337658995785056" lon="11.40465341385059"><ele>195.0</ele><time>2026-04-11T16:38:12.999Z</time></trkpt><trkpt lat="44.33759167077684" lon="11.404498757445305"><ele>195.0</ele><time>2026-04-11T16:38:14.999Z</time></trkpt><trkpt lat="44.337523969054324" lon="11.404430143845556"><ele>195.0</ele><time>2026-04-11T16:38:15.999Z</time></trkpt><trkpt lat="44.33747882995513" lon="11.404362199975697"><ele>195.0</ele><time>2026-04-11T16:38:16.999Z</time></trkpt><trkpt lat="44.33743255767052" lon="11.404294706416636"><ele>195.16666666666666</ele><time>2026-04-11T16:38:17.999Z</time></trkpt><trkpt lat="44.33735810042397" lon="11.404188239890852"><ele>195.33333333333331</ele><time>2026-04-11T16:38:19.999Z</time></trkpt><trkpt lat="44.33730148965815" lon="11.404143173100964"><ele>195.5</ele><time>2026-04-11T16:39:05Z</time></trkpt><trkpt lat="44.33722537753217" lon="11.404088627269045"><ele>195.66666666666666</ele><time>2026-04-11T16:39:07Z</time></trkpt><trkpt lat="44.337175619250644" lon="11.404026935978523"><ele>195.83333333333331</ele><time>2026-04-11T16:39:07.999Z</time></trkpt><trkpt lat="44.33710845771361" lon="11.403961900985303"><ele>196.0</ele><time>2026-04-11T16:39:09.999Z</time></trkpt><trkpt lat="44.33701082143898" lon="11.403897361897252"><ele>196.0</ele><time>2026-04-11T16:39:11.999Z</time></trkpt><trkpt lat="44.33694134370681" lon="11.403845952673262"><ele>196.0</ele><time>2026-04-11T16:39:12.999Z</time></trkpt><trkpt lat="44.336866793210795" lon="11.40379216164339"><ele>196.0</ele><time>2026-04-11T16:39:13.999Z</time></trkpt><trkpt lat="44.33678383499217" lon="11.403742133259861"><ele>196.0</ele><time>2026-04-11T16:39:14.999Z</time></trkpt><trkpt lat="44.33668611359943" lon="11.40368801526963"><ele>196.0</ele><time>2026-04-11T16:39:15.999Z</time></trkpt><trkpt lat="44.33658213278976" lon="11.403639185493898"><ele>198.75</ele><time>2026-04-11T16:39:16.999Z</time></trkpt><trkpt lat="44.33647359504656" lon="11.403615085365274"><ele>201.5</ele><time>2026-04-11T16:39:17.999Z</time></trkpt><trkpt lat="44.33635195182214" lon="11.403619891184093"><ele>204.25</ele><time>2026-04-11T16:39:18.999Z</time></trkpt><trkpt lat="44.336215655471015" lon="11.403657073146018"><ele>207.0</ele><time>2026-04-11T16:39:19.999Z</time></trkpt><trkpt lat="44.33609876067253" lon="11.40372964979107"><ele>207.0</ele><time>2026-04-11T16:39:20.999Z</time></trkpt><trkpt lat="44.33599480677405" lon="11.403822965267452"><ele>207.0</ele><time>2026-04-11T16:39:21.999Z</time></trkpt><trkpt lat="44.33589847770021" lon="11.403942974778149"><ele>207.0</ele><time>2026-04-11T16:39:22.999Z</time></trkpt><trkpt lat="44.33580140891741" lon="11.404071592419124"><ele>207.0</ele><time>2026-04-11T16:39:23.999Z</time></trkpt><trkpt lat="44.335694062542075" lon="11.404206773343445"><ele>204.5</ele><time>2026-04-11T16:39:24.999Z</time></trkpt><trkpt lat="44.335594182004236" lon="11.404345641208597"><ele>202.0</ele><time>2026-04-11T16:39:25.999Z</time></trkpt><trkpt lat="44.335483094910266" lon="11.404483957873456"><ele>199.5</ele><time>2026-04-11T16:39:26.999Z</time></trkpt><trkpt lat="44.33537601627805" lon="11.404619399858552"><ele>197.0</ele><time>2026-04-11T16:39:27.999Z</time></trkpt><trkpt lat="44.33527186217511" lon="11.404753799689729"><ele>197.0</ele><time>2026-04-11T16:39:28.999Z</time></trkpt><trkpt lat="44.33515918739896" lon="11.404900405428817"><ele>197.0</ele><time>2026-04-11T16:39:29.999Z</time></trkpt><trkpt lat="44.3350474516681" lon="11.405056156938151"><ele>197.0</ele><time>2026-04-11T16:39:30.999Z</time></trkpt><trkpt lat="44.334945705038244" lon="11.405214315037584"><ele>197.0</ele><time>2026-04-11T16:39:31.999Z</time></trkpt><trkpt lat="44.3348459997764" lon="11.40539723746368"><ele>197.0</ele><time>2026-04-11T16:39:32.999Z</time></trkpt><trkpt lat="44.3347439321821" lon="11.40558338343563"><ele>197.0</ele><time>2026-04-11T16:39:33.999Z</time></trkpt><trkpt lat="44.334627903797454" lon="11.405764758387404"><ele>197.5</ele><time>2026-04-11T16:39:34.999Z</time></trkpt><trkpt lat="44.33450647787135" lon="11.405908208998454"><ele>198.0</ele><time>2026-04-11T16:39:35.999Z</time></trkpt><trkpt lat="44.3343797516685" lon="11.406003690618794"><ele>198.5</ele><time>2026-04-11T16:39:36.999Z</time></trkpt><trkpt lat="44.33424545450583" lon="11.40608430037934"><ele>199.0</ele><time>2026-04-11T16:39:37.999Z</time></trkpt><trkpt lat="44.3341017076675" lon="11.406142209997647"><ele>199.0</ele><time>2026-04-11T16:39:38.999Z</time></trkpt><trkpt lat="44.33395897923461" lon="11.406206150264277"><ele>199.0</ele><time>2026-04-11T16:39:39.999Z</time></trkpt><trkpt lat="44.33383097183698" lon="11.40630615724568"><ele>199.0</ele><time>2026-04-11T16:39:40.999Z</time></trkpt><trkpt lat="44.333692771062125" lon="11.406432260330764"><ele>200.25</ele><time>2026-04-11T16:39:41.999Z</time></trkpt><trkpt lat="44.33358915111031" lon="11.406503727384623"><ele>201.5</ele><time>2026-04-11T16:39:42.999Z</time></trkpt><trkpt lat="44.333457598681484" lon="11.4065318090778"><ele>202.75</ele><time>2026-04-11T16:39:43.999Z</time></trkpt><trkpt lat="44.333331217394225" lon="11.406512919072478"><ele>204.0</ele><time>2026-04-11T16:39:44.999Z</time></trkpt><trkpt lat="44.33322492676932" lon="11.40640862862525"><ele>202.0</ele><time>2026-04-11T16:39:45.999Z</time></trkpt><trkpt lat="44.333100617815454" lon="11.406278206673246"><ele>200.0</ele><time>2026-04-11T16:39:46.999Z</time></trkpt><trkpt lat="44.33299172481923" lon="11.406125935932666"><ele>198.0</ele><time>2026-04-11T16:39:47.999Z</time></trkpt><trkpt lat="44.3328785640319" lon="11.405990852431378"><ele>198.0</ele><time>2026-04-11T16:39:48.999Z</time></trkpt><trkpt lat="44.3327620761137" lon="11.405879195664616"><ele>198.0</ele><time>2026-04-11T16:39:49.999Z</time></trkpt><trkpt lat="44.33263633474182" lon="11.405802310816004"><ele>198.0</ele><time>2026-04-11T16:39:50.999Z</time></trkpt><trkpt lat="44.3324972332711" lon="11.405760981358759"><ele>198.0</ele><time>2026-04-11T16:39:51.999Z</time></trkpt><trkpt lat="44.33235389460117" lon="11.405724596661765"><ele>198.0</ele><time>2026-04-11T16:39:52.999Z</time></trkpt><trkpt lat="44.33221735774441" lon="11.405690023909147"><ele>198.0</ele><time>2026-04-11T16:39:53.999Z</time></trkpt><trkpt lat="44.33208226078653" lon="11.405658068497413"><ele>198.0</ele><time>2026-04-11T16:39:54.999Z</time></trkpt><trkpt lat="44.33194487371894" lon="11.4056298843811"><ele>198.0</ele><time>2026-04-11T16:39:55.999Z</time></trkpt><trkpt lat="44.33181613667497" lon="11.40562153058249"><ele>198.0</ele><time>2026-04-11T16:39:56.999Z</time></trkpt><trkpt lat="44.33168693997332" lon="11.405663303693517"><ele>198.0</ele><time>2026-04-11T16:39:57.999Z</time></trkpt><trkpt lat="44.33156564379951" lon="11.405768191619535"><ele>198.0</ele><time>2026-04-11T16:39:58.999Z</time></trkpt><trkpt lat="44.331473236760715" lon="11.405923940195239"><ele>198.0</ele><time>2026-04-11T16:39:59.999Z</time></trkpt><trkpt lat="44.33141216513152" lon="11.406106964406643"><ele>198.5</ele><time>2026-04-11T16:40:00.999Z</time></trkpt><trkpt lat="44.33135304156427" lon="11.406291703670087"><ele>199.0</ele><time>2026-04-11T16:40:01.999Z</time></trkpt><trkpt lat="44.33128434690738" lon="11.406468760943394"><ele>199.5</ele><time>2026-04-11T16:40:02.999Z</time></trkpt><trkpt lat="44.33119943032997" lon="11.40663563151869"><ele>200.0</ele><time>2026-04-11T16:40:03.999Z</time></trkpt><trkpt lat="44.33109574418777" lon="11.406784071925088"><ele>200.0</ele><time>2026-04-11T16:40:04.999Z</time></trkpt><trkpt lat="44.33097281056998" lon="11.406908427152596"><ele>200.0</ele><time>2026-04-11T16:40:05.999Z</time></trkpt><trkpt lat="44.3308397681689" lon="11.407000915850226"><ele>200.0</ele><time>2026-04-11T16:40:06.999Z</time></trkpt><trkpt lat="44.330706825499725" lon="11.407095862079153"><ele>200.33333333333334</ele><time>2026-04-11T16:40:07.999Z</time></trkpt><trkpt lat="44.330574755868774" lon="11.407202199533558"><ele>200.66666666666669</ele><time>2026-04-11T16:40:08.999Z</time></trkpt><trkpt lat="44.330445488269284" lon="11.407320603634496"><ele>201.0</ele><time>2026-04-11T16:40:09.999Z</time></trkpt><trkpt lat="44.33031134263273" lon="11.407436264986766"><ele>201.0</ele><time>2026-04-11T16:40:10.999Z</time></trkpt><trkpt lat="44.33018953192363" lon="11.407543301326445"><ele>201.0</ele><time>2026-04-11T16:40:11.999Z</time></trkpt><trkpt lat="44.33007602485275" lon="11.407642563168482"><ele>201.0</ele><time>2026-04-11T16:40:12.999Z</time></trkpt><trkpt lat="44.329953318107314" lon="11.407730769537315"><ele>201.0</ele><time>2026-04-11T16:40:13.999Z</time></trkpt><trkpt lat="44.32983367842918" lon="11.407781670793721"><ele>201.25</ele><time>2026-04-11T16:40:14.999Z</time></trkpt><trkpt lat="44.32970251503512" lon="11.407807222987136"><ele>201.5</ele><time>2026-04-11T16:40:15.999Z</time></trkpt><trkpt lat="44.32956471561398" lon="11.407813081031668"><ele>201.75</ele><time>2026-04-11T16:40:16.999Z</time></trkpt><trkpt lat="44.329426775209335" lon="11.407795547849338"><ele>202.0</ele><time>2026-04-11T16:40:17.999Z</time></trkpt><trkpt lat="44.329295971933604" lon="11.407725233480347"><ele>202.0</ele><time>2026-04-11T16:40:18.999Z</time></trkpt><trkpt lat="44.32916813002817" lon="11.40764331649942"><ele>202.0</ele><time>2026-04-11T16:40:19.998Z</time></trkpt><trkpt lat="44.32904857159265" lon="11.407539127956145"><ele>202.0</ele><time>2026-04-11T16:40:20.998Z</time></trkpt><trkpt lat="44.32892922061057" lon="11.407426212940248"><ele>202.0</ele><time>2026-04-11T16:40:21.998Z</time></trkpt><trkpt lat="44.328811788414285" lon="11.407317509607076"><ele>203.0</ele><time>2026-04-11T16:40:22.998Z</time></trkpt><trkpt lat="44.32873206477938" lon="11.40714841392133"><ele>204.0</ele><time>2026-04-11T16:40:23.998Z</time></trkpt><trkpt lat="44.32866933210935" lon="11.406983077972253"><ele>205.0</ele><time>2026-04-11T16:40:24.998Z</time></trkpt><trkpt lat="44.328587876102326" lon="11.406809817761278"><ele>206.0</ele><time>2026-04-11T16:40:25.998Z</time></trkpt><trkpt lat="44.32855486191476" lon="11.406623784766806"><ele>206.0</ele><time>2026-04-11T16:40:26.998Z</time></trkpt><trkpt lat="44.328513214772535" lon="11.406441082343195"><ele>206.0</ele><time>2026-04-11T16:40:28Z</time></trkpt><trkpt lat="44.32846153936758" lon="11.406247620512906"><ele>206.0</ele><time>2026-04-11T16:40:29Z</time></trkpt><trkpt lat="44.32841643228005" lon="11.406056955724996"><ele>206.0</ele><time>2026-04-11T16:40:30Z</time></trkpt><trkpt lat="44.32835978645619" lon="11.405866279129034"><ele>205.75</ele><time>2026-04-11T16:40:31Z</time></trkpt><trkpt lat="44.328295914244556" lon="11.405682714543659"><ele>205.5</ele><time>2026-04-11T16:40:32Z</time></trkpt><trkpt lat="44.32823978746707" lon="11.405493416008545"><ele>205.25</ele><time>2026-04-11T16:40:33Z</time></trkpt><trkpt lat="44.32814126423754" lon="11.405330734153608"><ele>205.0</ele><time>2026-04-11T16:40:34Z</time></trkpt><trkpt lat="44.32803475004984" lon="11.405203725783156"><ele>205.0</ele><time>2026-04-11T16:40:35Z</time></trkpt><trkpt lat="44.327944791522874" lon="11.405064056176633"><ele>205.0</ele><time>2026-04-11T16:40:36Z</time></trkpt><trkpt lat="44.327840508748814" lon="11.404933958110513"><ele>205.0</ele><time>2026-04-11T16:40:37Z</time></trkpt><trkpt lat="44.32771599118101" lon="11.404866359897705"><ele>205.0</ele><time>2026-04-11T16:40:38Z</time></trkpt><trkpt lat="44.32759709928444" lon="11.404811917738732"><ele>205.0</ele><time>2026-04-11T16:40:39Z</time></trkpt><trkpt lat="44.32747802866249" lon="11.404784061604417"><ele>205.0</ele><time>2026-04-11T16:40:40Z</time></trkpt><trkpt lat="44.327360410413014" lon="11.404764340853102"><ele>205.0</ele><time>2026-04-11T16:40:41Z</time></trkpt><trkpt lat="44.32725057331214" lon="11.404755830848336"><ele>205.0</ele><time>2026-04-11T16:40:42Z</time></trkpt><trkpt lat="44.32714946329475" lon="11.404751558559596"><ele>205.83333333333331</ele><time>2026-04-11T16:40:43Z</time></trkpt><trkpt lat="44.32705299816203" lon="11.404743783009089"><ele>206.66666666666666</ele><time>2026-04-11T16:40:44Z</time></trkpt><trkpt lat="44.326971775859214" lon="11.4047360724693"><ele>207.5</ele><time>2026-04-11T16:40:45Z</time></trkpt><trkpt lat="44.326901296345774" lon="11.404731934812501"><ele>208.33333333333331</ele><time>2026-04-11T16:40:46Z</time></trkpt><trkpt lat="44.32679500173759" lon="11.40472870974646"><ele>209.16666666666666</ele><time>2026-04-11T16:40:48Z</time></trkpt><trkpt lat="44.32672444027126" lon="11.404760459335614"><ele>210.0</ele><time>2026-04-11T16:40:50Z</time></trkpt><trkpt lat="44.32667702171973" lon="11.40486764525689"><ele>210.0</ele><time>2026-04-11T16:40:53Z</time></trkpt><trkpt lat="44.32666792660989" lon="11.404733483919768"><ele>210.0</ele><time>2026-04-11T16:40:54Z</time></trkpt><trkpt lat="44.32665198763814" lon="11.404884726238375"><ele>210.0</ele><time>2026-04-11T16:40:56Z</time></trkpt><trkpt lat="44.32664363368652" lon="11.404716449840299"><ele>210.0</ele><time>2026-04-11T16:41:02Z</time></trkpt><trkpt lat="44.32663507596224" lon="11.404869901325712"><ele>210.0</ele><time>2026-04-11T16:41:17.999Z</time></trkpt><trkpt lat="44.32671760326667" lon="11.40475780923884"><ele>210.0</ele><time>2026-04-11T16:48:16.999Z</time></trkpt><trkpt lat="44.326651115127376" lon="11.404683191169937"><ele>210.0</ele><time>2026-04-11T16:48:38.999Z</time></trkpt><trkpt lat="44.32657684403801" lon="11.404690451418592"><ele>210.0</ele><time>2026-04-11T16:48:39.999Z</time></trkpt><trkpt lat="44.32644513676395" lon="11.404696429961643"><ele>210.0</ele><time>2026-04-11T16:48:41.999Z</time></trkpt><trkpt lat="44.326367533657745" lon="11.404700380150047"><ele>210.0</ele><time>2026-04-11T16:48:42.999Z</time></trkpt><trkpt lat="44.32628472562104" lon="11.404707058012985"><ele>210.0</ele><time>2026-04-11T16:48:43.999Z</time></trkpt><trkpt lat="44.32619569221996" lon="11.404710417616345"><ele>210.0</ele><time>2026-04-11T16:48:44.999Z</time></trkpt><trkpt lat="44.32610187993536" lon="11.404706544051443"><ele>210.0</ele><time>2026-04-11T16:48:45.999Z</time></trkpt><trkpt lat="44.32600912000977" lon="11.404706242703757"><ele>210.0</ele><time>2026-04-11T16:48:46.999Z</time></trkpt><trkpt lat="44.325914368008064" lon="11.404709305988202"><ele>210.0</ele><time>2026-04-11T16:48:47.999Z</time></trkpt><trkpt lat="44.325813788803416" lon="11.404719019045569"><ele>210.0</ele><time>2026-04-11T16:48:48.999Z</time></trkpt><trkpt lat="44.32570309246256" lon="11.404716822816715"><ele>210.0</ele><time>2026-04-11T16:48:49.999Z</time></trkpt><trkpt lat="44.32558834263623" lon="11.404699975478326"><ele>210.0</ele><time>2026-04-11T16:48:50.999Z</time></trkpt><trkpt lat="44.3254864200265" lon="11.404682260323687"><ele>210.0</ele><time>2026-04-11T16:48:52Z</time></trkpt><trkpt lat="44.32535963911874" lon="11.404639998127042"><ele>209.5</ele><time>2026-04-11T16:48:53Z</time></trkpt><trkpt lat="44.32523446159397" lon="11.404599316839708"><ele>209.0</ele><time>2026-04-11T16:48:54Z</time></trkpt><trkpt lat="44.32511059584188" lon="11.404553454005741"><ele>208.5</ele><time>2026-04-11T16:48:55Z</time></trkpt><trkpt lat="44.32497962980139" lon="11.404516829892957"><ele>208.0</ele><time>2026-04-11T16:48:56Z</time></trkpt><trkpt lat="44.32485597970221" lon="11.404472751094076"><ele>208.0</ele><time>2026-04-11T16:48:57Z</time></trkpt><trkpt lat="44.324721512152486" lon="11.40445127491803"><ele>208.0</ele><time>2026-04-11T16:48:58Z</time></trkpt><trkpt lat="44.32458698013747" lon="11.4044543187397"><ele>208.0</ele><time>2026-04-11T16:48:59Z</time></trkpt><trkpt lat="44.32445688086739" lon="11.404463828394968"><ele>208.0</ele><time>2026-04-11T16:49:00Z</time></trkpt><trkpt lat="44.324320926905834" lon="11.404505322379348"><ele>208.0</ele><time>2026-04-11T16:49:01Z</time></trkpt><trkpt lat="44.32420586899447" lon="11.404552203671352"><ele>208.0</ele><time>2026-04-11T16:49:02Z</time></trkpt><trkpt lat="44.32406214875772" lon="11.404601844022691"><ele>208.0</ele><time>2026-04-11T16:49:03Z</time></trkpt><trkpt lat="44.32393730442768" lon="11.404671320728083"><ele>208.0</ele><time>2026-04-11T16:49:04Z</time></trkpt><trkpt lat="44.323811169265504" lon="11.404746974082013"><ele>210.25</ele><time>2026-04-11T16:49:05Z</time></trkpt><trkpt lat="44.32369108107742" lon="11.404841992925823"><ele>212.5</ele><time>2026-04-11T16:49:06Z</time></trkpt><trkpt lat="44.32357548673072" lon="11.404943549810644"><ele>214.75</ele><time>2026-04-11T16:49:07Z</time></trkpt><trkpt lat="44.3234595644852" lon="11.405051489254761"><ele>217.0</ele><time>2026-04-11T16:49:08Z</time></trkpt><trkpt lat="44.32334860968544" lon="11.405156669667779"><ele>217.0</ele><time>2026-04-11T16:49:09Z</time></trkpt><trkpt lat="44.32322699427136" lon="11.405262096245917"><ele>217.0</ele><time>2026-04-11T16:49:10Z</time></trkpt><trkpt lat="44.32310013771635" lon="11.405348066548322"><ele>217.0</ele><time>2026-04-11T16:49:11Z</time></trkpt><trkpt lat="44.322961109268626" lon="11.405396845374323"><ele>217.0</ele><time>2026-04-11T16:49:12Z</time></trkpt><trkpt lat="44.322821465495586" lon="11.405421107725848"><ele>215.75</ele><time>2026-04-11T16:49:13Z</time></trkpt><trkpt lat="44.322683243270795" lon="11.40543366129268"><ele>214.5</ele><time>2026-04-11T16:49:14Z</time></trkpt><trkpt lat="44.3225447961883" lon="11.40544196134971"><ele>213.25</ele><time>2026-04-11T16:49:15Z</time></trkpt><trkpt lat="44.322406391628476" lon="11.405460021108912"><ele>212.0</ele><time>2026-04-11T16:49:16Z</time></trkpt><trkpt lat="44.32226700296329" lon="11.405471329704632"><ele>212.25</ele><time>2026-04-11T16:49:17Z</time></trkpt><trkpt lat="44.32213192887794" lon="11.405493449278413"><ele>212.5</ele><time>2026-04-11T16:49:18Z</time></trkpt><trkpt lat="44.32198829874396" lon="11.405533804394233"><ele>212.75</ele><time>2026-04-11T16:49:19Z</time></trkpt><trkpt lat="44.32184682542368" lon="11.40559584136209"><ele>213.0</ele><time>2026-04-11T16:49:20Z</time></trkpt><trkpt lat="44.32171148935705" lon="11.405664816238723"><ele>215.5</ele><time>2026-04-11T16:49:21Z</time></trkpt><trkpt lat="44.32157801577246" lon="11.405723020688011"><ele>218.0</ele><time>2026-04-11T16:49:22Z</time></trkpt><trkpt lat="44.32144203710037" lon="11.405759110205715"><ele>220.5</ele><time>2026-04-11T16:49:23Z</time></trkpt><trkpt lat="44.32130530562214" lon="11.405755892064361"><ele>223.0</ele><time>2026-04-11T16:49:24Z</time></trkpt><trkpt lat="44.32117833079068" lon="11.405724318230657"><ele>225.25</ele><time>2026-04-11T16:49:25Z</time></trkpt><trkpt lat="44.32105042195252" lon="11.405691106955453"><ele>227.5</ele><time>2026-04-11T16:49:26Z</time></trkpt><trkpt lat="44.32092435131679" lon="11.405648897976867"><ele>229.75</ele><time>2026-04-11T16:49:27Z</time></trkpt><trkpt lat="44.32080168357066" lon="11.405577068302295"><ele>232.0</ele><time>2026-04-11T16:49:28Z</time></trkpt><trkpt lat="44.320692418565606" lon="11.405462773297511"><ele>233.25</ele><time>2026-04-11T16:49:29Z</time></trkpt><trkpt lat="44.320592244983324" lon="11.405320459051891"><ele>234.5</ele><time>2026-04-11T16:49:30Z</time></trkpt><trkpt lat="44.32050706140642" lon="11.40515654559153"><ele>235.75</ele><time>2026-04-11T16:49:31Z</time></trkpt><trkpt lat="44.32042079924086" lon="11.40498863874524"><ele>237.0</ele><time>2026-04-11T16:49:32Z</time></trkpt><trkpt lat="44.32033691439852" lon="11.404826671132364"><ele>237.0</ele><time>2026-04-11T16:49:33Z</time></trkpt><trkpt lat="44.32024926118546" lon="11.404666197831514"><ele>237.0</ele><time>2026-04-11T16:49:34Z</time></trkpt><trkpt lat="44.320167997500974" lon="11.404503232547022"><ele>237.0</ele><time>2026-04-11T16:49:35Z</time></trkpt><trkpt lat="44.32008278512396" lon="11.40434135325005"><ele>237.0</ele><time>2026-04-11T16:49:36Z</time></trkpt><trkpt lat="44.31999544386608" lon="11.404176103782673"><ele>234.5</ele><time>2026-04-11T16:49:37Z</time></trkpt><trkpt lat="44.31991045604531" lon="11.404013587064274"><ele>232.0</ele><time>2026-04-11T16:49:38Z</time></trkpt><trkpt lat="44.319823784000064" lon="11.403848721552205"><ele>229.5</ele><time>2026-04-11T16:49:39Z</time></trkpt><trkpt lat="44.319738698527594" lon="11.40368361006809"><ele>227.0</ele><time>2026-04-11T16:49:40Z</time></trkpt><trkpt lat="44.319657304911225" lon="11.403524774129068"><ele>227.0</ele><time>2026-04-11T16:49:41Z</time></trkpt><trkpt lat="44.31956230354745" lon="11.40338070712954"><ele>227.0</ele><time>2026-04-11T16:49:42Z</time></trkpt><trkpt lat="44.31944798783938" lon="11.403262277334738"><ele>227.0</ele><time>2026-04-11T16:49:43Z</time></trkpt><trkpt lat="44.31932066082504" lon="11.403167864998709"><ele>227.0</ele><time>2026-04-11T16:49:43.999Z</time></trkpt><trkpt lat="44.31918404061656" lon="11.403108992677515"><ele>227.0</ele><time>2026-04-11T16:49:44.999Z</time></trkpt><trkpt lat="44.31903710986525" lon="11.403069165125311"><ele>227.0</ele><time>2026-04-11T16:49:45.999Z</time></trkpt><trkpt lat="44.31888934875696" lon="11.403029861270882"><ele>227.0</ele><time>2026-04-11T16:49:46.999Z</time></trkpt><trkpt lat="44.31874336666128" lon="11.402991248630103"><ele>227.0</ele><time>2026-04-11T16:49:47.999Z</time></trkpt><trkpt lat="44.31860542264125" lon="11.402958081230313"><ele>227.25</ele><time>2026-04-11T16:49:48.999Z</time></trkpt><trkpt lat="44.3184671511486" lon="11.402936665759785"><ele>227.5</ele><time>2026-04-11T16:49:49.999Z</time></trkpt><trkpt lat="44.318327075145405" lon="11.402959927621051"><ele>227.75</ele><time>2026-04-11T16:49:50.999Z</time></trkpt><trkpt lat="44.318188972614884" lon="11.403030839336479"><ele>228.0</ele><time>2026-04-11T16:49:51.999Z</time></trkpt><trkpt lat="44.318058676484675" lon="11.40311584640838"><ele>228.0</ele><time>2026-04-11T16:49:52.999Z</time></trkpt><trkpt lat="44.31791633965773" lon="11.403196998512744"><ele>228.0</ele><time>2026-04-11T16:49:53.999Z</time></trkpt><trkpt lat="44.317770478956945" lon="11.40323784139481"><ele>228.0</ele><time>2026-04-11T16:49:54.999Z</time></trkpt><trkpt lat="44.31761548312324" lon="11.403243536948914"><ele>228.0</ele><time>2026-04-11T16:49:55.999Z</time></trkpt><trkpt lat="44.31746718750368" lon="11.4032318714262"><ele>228.0</ele><time>2026-04-11T16:49:56.999Z</time></trkpt><trkpt lat="44.31733043443044" lon="11.403261886052064"><ele>228.0</ele><time>2026-04-11T16:49:57.999Z</time></trkpt><trkpt lat="44.31719073755117" lon="11.40331049200606"><ele>228.0</ele><time>2026-04-11T16:49:58.999Z</time></trkpt><trkpt lat="44.31704655548659" lon="11.403358651191622"><ele>227.33333333333331</ele><time>2026-04-11T16:49:59.999Z</time></trkpt><trkpt lat="44.31689858343649" lon="11.40341013805077"><ele>226.66666666666666</ele><time>2026-04-11T16:50:00.999Z</time></trkpt><trkpt lat="44.31674821504668" lon="11.40347554053266"><ele>226.0</ele><time>2026-04-11T16:50:01.999Z</time></trkpt><trkpt lat="44.31660981542343" lon="11.403532302379517"><ele>226.0</ele><time>2026-04-11T16:50:02.999Z</time></trkpt><trkpt lat="44.31646826013275" lon="11.403573175627763"><ele>226.0</ele><time>2026-04-11T16:50:03.999Z</time></trkpt><trkpt lat="44.316330138621225" lon="11.403559135948747"><ele>226.0</ele><time>2026-04-11T16:50:04.999Z</time></trkpt><trkpt lat="44.31620243509954" lon="11.403500310514712"><ele>226.0</ele><time>2026-04-11T16:50:05.999Z</time></trkpt><trkpt lat="44.31609788317572" lon="11.403369448807139"><ele>224.75</ele><time>2026-04-11T16:50:06.999Z</time></trkpt><trkpt lat="44.315984548766096" lon="11.403236916126707"><ele>223.5</ele><time>2026-04-11T16:50:07.999Z</time></trkpt><trkpt lat="44.31588919918833" lon="11.403075601505723"><ele>222.25</ele><time>2026-04-11T16:50:08.999Z</time></trkpt><trkpt lat="44.31578487703415" lon="11.402931534286548"><ele>221.0</ele><time>2026-04-11T16:50:09.999Z</time></trkpt><trkpt lat="44.315680785105016" lon="11.402789700607983"><ele>221.0</ele><time>2026-04-11T16:50:10.999Z</time></trkpt><trkpt lat="44.31557220614469" lon="11.402664537586716"><ele>221.0</ele><time>2026-04-11T16:50:11.999Z</time></trkpt><trkpt lat="44.31545862285475" lon="11.402543939305772"><ele>221.0</ele><time>2026-04-11T16:50:12.999Z</time></trkpt><trkpt lat="44.31533980493859" lon="11.402426458940031"><ele>221.0</ele><time>2026-04-11T16:50:13.999Z</time></trkpt><trkpt lat="44.3152110062162" lon="11.402334218881164"><ele>221.75</ele><time>2026-04-11T16:50:14.999Z</time></trkpt><trkpt lat="44.315067786954764" lon="11.402279676682607"><ele>222.5</ele><time>2026-04-11T16:50:15.999Z</time></trkpt><trkpt lat="44.31492054521522" lon="11.402269079436573"><ele>223.25</ele><time>2026-04-11T16:50:16.999Z</time></trkpt><trkpt lat="44.31477659373888" lon="11.402270738328474"><ele>224.0</ele><time>2026-04-11T16:50:17.999Z</time></trkpt><trkpt lat="44.314630416380716" lon="11.402290268015294"><ele>224.0</ele><time>2026-04-11T16:50:18.999Z</time></trkpt><trkpt lat="44.314487076748364" lon="11.402313486461678"><ele>224.0</ele><time>2026-04-11T16:50:19.999Z</time></trkpt><trkpt lat="44.31434100753528" lon="11.402318518666753"><ele>224.0</ele><time>2026-04-11T16:50:20.999Z</time></trkpt><trkpt lat="44.31419256527645" lon="11.402295252970294"><ele>224.0</ele><time>2026-04-11T16:50:21.999Z</time></trkpt><trkpt lat="44.31404499789478" lon="11.402247642022175"><ele>224.25</ele><time>2026-04-11T16:50:22.999Z</time></trkpt><trkpt lat="44.31390455447019" lon="11.402172825897416"><ele>224.5</ele><time>2026-04-11T16:50:23.999Z</time></trkpt><trkpt lat="44.31377221215643" lon="11.402083326418403"><ele>224.75</ele><time>2026-04-11T16:50:24.999Z</time></trkpt><trkpt lat="44.3136459530902" lon="11.401973657169046"><ele>225.0</ele><time>2026-04-11T16:50:25.999Z</time></trkpt><trkpt lat="44.31353145005728" lon="11.401842158292872"><ele>225.0</ele><time>2026-04-11T16:50:26.999Z</time></trkpt><trkpt lat="44.313430794895915" lon="11.401687952413205"><ele>225.0</ele><time>2026-04-11T16:50:27.999Z</time></trkpt><trkpt lat="44.31335108495355" lon="11.401519763916722"><ele>225.0</ele><time>2026-04-11T16:50:28.999Z</time></trkpt><trkpt lat="44.31327424310385" lon="11.40134895097024"><ele>225.0</ele><time>2026-04-11T16:50:29.999Z</time></trkpt><trkpt lat="44.31318978457511" lon="11.40119074682701"><ele>225.25</ele><time>2026-04-11T16:50:30.999Z</time></trkpt><trkpt lat="44.31308503333999" lon="11.401058287030724"><ele>225.5</ele><time>2026-04-11T16:50:31.999Z</time></trkpt><trkpt lat="44.31296064314095" lon="11.400967348539806"><ele>225.75</ele><time>2026-04-11T16:50:32.999Z</time></trkpt><trkpt lat="44.31282642252578" lon="11.400897333520446"><ele>226.0</ele><time>2026-04-11T16:50:33.999Z</time></trkpt><trkpt lat="44.31269121327939" lon="11.400825648735289"><ele>226.0</ele><time>2026-04-11T16:50:34.999Z</time></trkpt><trkpt lat="44.312556413730945" lon="11.400756919814809"><ele>226.0</ele><time>2026-04-11T16:50:35.999Z</time></trkpt><trkpt lat="44.31242044269787" lon="11.400687408076726"><ele>226.0</ele><time>2026-04-11T16:50:36.999Z</time></trkpt><trkpt lat="44.31228475476584" lon="11.400610911199657"><ele>226.0</ele><time>2026-04-11T16:50:37.999Z</time></trkpt><trkpt lat="44.31214987496453" lon="11.400535953322633"><ele>225.75</ele><time>2026-04-11T16:50:38.999Z</time></trkpt><trkpt lat="44.31201332459236" lon="11.400471609759196"><ele>225.5</ele><time>2026-04-11T16:50:39.999Z</time></trkpt><trkpt lat="44.3118671765467" lon="11.400429682132765"><ele>225.25</ele><time>2026-04-11T16:50:40.999Z</time></trkpt><trkpt lat="44.31171518527984" lon="11.400433831518452"><ele>225.0</ele><time>2026-04-11T16:50:41.999Z</time></trkpt><trkpt lat="44.31156680088753" lon="11.400477936422861"><ele>225.0</ele><time>2026-04-11T16:50:42.999Z</time></trkpt><trkpt lat="44.31141919069358" lon="11.400498757187213"><ele>225.0</ele><time>2026-04-11T16:50:43.999Z</time></trkpt><trkpt lat="44.311287938830446" lon="11.40052814677632"><ele>225.0</ele><time>2026-04-11T16:50:44.999Z</time></trkpt><trkpt lat="44.31113786488893" lon="11.400514222650406"><ele>225.0</ele><time>2026-04-11T16:50:45.999Z</time></trkpt><trkpt lat="44.310990601967006" lon="11.40049548347351"><ele>225.5</ele><time>2026-04-11T16:50:46.999Z</time></trkpt><trkpt lat="44.31084201137329" lon="11.400468374592386"><ele>226.0</ele><time>2026-04-11T16:50:47.999Z</time></trkpt><trkpt lat="44.31069591810396" lon="11.400441339870373"><ele>226.5</ele><time>2026-04-11T16:50:48.999Z</time></trkpt><trkpt lat="44.3105485770743" lon="11.400417898751375"><ele>227.0</ele><time>2026-04-11T16:50:49.999Z</time></trkpt><trkpt lat="44.31039661868255" lon="11.400398118461814"><ele>227.66666666666669</ele><time>2026-04-11T16:50:50.999Z</time></trkpt><trkpt lat="44.31024698956204" lon="11.400364704155404"><ele>228.33333333333331</ele><time>2026-04-11T16:50:51.999Z</time></trkpt><trkpt lat="44.3100913827983" lon="11.400320549267734"><ele>229.0</ele><time>2026-04-11T16:50:52.999Z</time></trkpt><trkpt lat="44.30994133053753" lon="11.400260446777637"><ele>229.0</ele><time>2026-04-11T16:50:53.999Z</time></trkpt><trkpt lat="44.3097977022658" lon="11.400182021324449"><ele>229.0</ele><time>2026-04-11T16:50:54.999Z</time></trkpt><trkpt lat="44.30966569059002" lon="11.400077649350303"><ele>229.0</ele><time>2026-04-11T16:50:55.999Z</time></trkpt><trkpt lat="44.30953060972102" lon="11.399986278711596"><ele>229.25</ele><time>2026-04-11T16:50:56.999Z</time></trkpt><trkpt lat="44.309404117893486" lon="11.399876199045046"><ele>229.5</ele><time>2026-04-11T16:50:58Z</time></trkpt><trkpt lat="44.30928540367677" lon="11.399759237432434"><ele>229.75</ele><time>2026-04-11T16:50:59Z</time></trkpt><trkpt lat="44.30916478320997" lon="11.399634006153544"><ele>230.0</ele><time>2026-04-11T16:51:00Z</time></trkpt><trkpt lat="44.309054646426134" lon="11.399503090358305"><ele>230.0</ele><time>2026-04-11T16:51:01Z</time></trkpt><trkpt lat="44.30893821114393" lon="11.399379040177417"><ele>230.0</ele><time>2026-04-11T16:51:02Z</time></trkpt><trkpt lat="44.30880985755933" lon="11.399281825786067"><ele>230.0</ele><time>2026-04-11T16:51:03Z</time></trkpt><trkpt lat="44.308669076434" lon="11.399211697430433"><ele>230.0</ele><time>2026-04-11T16:51:04Z</time></trkpt><trkpt lat="44.308527311004895" lon="11.399160016040495"><ele>230.75</ele><time>2026-04-11T16:51:05Z</time></trkpt><trkpt lat="44.308390041293" lon="11.399108405256431"><ele>231.5</ele><time>2026-04-11T16:51:06Z</time></trkpt><trkpt lat="44.30825029048513" lon="11.399063809897331"><ele>232.25</ele><time>2026-04-11T16:51:07Z</time></trkpt><trkpt lat="44.308108147676315" lon="11.399027558944633"><ele>233.0</ele><time>2026-04-11T16:51:08Z</time></trkpt><trkpt lat="44.30796578600184" lon="11.39899078517078"><ele>234.5</ele><time>2026-04-11T16:51:09Z</time></trkpt><trkpt lat="44.30782562893958" lon="11.398972747374186"><ele>236.0</ele><time>2026-04-11T16:51:10Z</time></trkpt><trkpt lat="44.30767597088148" lon="11.398961840771548"><ele>237.5</ele><time>2026-04-11T16:51:11Z</time></trkpt><trkpt lat="44.30753094099143" lon="11.398953973401856"><ele>239.0</ele><time>2026-04-11T16:51:12Z</time></trkpt><trkpt lat="44.30738486897616" lon="11.398939925663246"><ele>239.5</ele><time>2026-04-11T16:51:13Z</time></trkpt><trkpt lat="44.30723518860921" lon="11.398927394916933"><ele>240.0</ele><time>2026-04-11T16:51:14Z</time></trkpt><trkpt lat="44.30708681238069" lon="11.398911775397343"><ele>240.5</ele><time>2026-04-11T16:51:15Z</time></trkpt><trkpt lat="44.30693711764808" lon="11.398888212147575"><ele>241.0</ele><time>2026-04-11T16:51:16Z</time></trkpt><trkpt lat="44.3067947134696" lon="11.398865641434284"><ele>241.0</ele><time>2026-04-11T16:51:17Z</time></trkpt><trkpt lat="44.306651167525025" lon="11.398850729020529"><ele>241.0</ele><time>2026-04-11T16:51:18Z</time></trkpt><trkpt lat="44.306509539043084" lon="11.398836162316053"><ele>241.0</ele><time>2026-04-11T16:51:19Z</time></trkpt><trkpt lat="44.30636681267343" lon="11.398817458391356"><ele>241.0</ele><time>2026-04-11T16:51:20Z</time></trkpt><trkpt lat="44.30622522468401" lon="11.398806458346105"><ele>241.0</ele><time>2026-04-11T16:51:21Z</time></trkpt><trkpt lat="44.306081477372224" lon="11.398813479728378"><ele>241.0</ele><time>2026-04-11T16:51:22Z</time></trkpt><trkpt lat="44.30593671325983" lon="11.398834528529896"><ele>241.0</ele><time>2026-04-11T16:51:23Z</time></trkpt><trkpt lat="44.30578812936315" lon="11.398861755677581"><ele>241.0</ele><time>2026-04-11T16:51:24Z</time></trkpt><trkpt lat="44.305638024695874" lon="11.398886963981928"><ele>239.0</ele><time>2026-04-11T16:51:25Z</time></trkpt><trkpt lat="44.30549031546488" lon="11.39891630425837"><ele>237.0</ele><time>2026-04-11T16:51:26Z</time></trkpt><trkpt lat="44.305344342350786" lon="11.398946860500773"><ele>235.0</ele><time>2026-04-11T16:51:27Z</time></trkpt><trkpt lat="44.305198171037794" lon="11.398970637178587"><ele>233.0</ele><time>2026-04-11T16:51:28Z</time></trkpt><trkpt lat="44.30504677220631" lon="11.398983520697707"><ele>233.0</ele><time>2026-04-11T16:51:29Z</time></trkpt><trkpt lat="44.30489663726104" lon="11.398988102202438"><ele>233.0</ele><time>2026-04-11T16:51:30Z</time></trkpt><trkpt lat="44.304748294354646" lon="11.39900056249237"><ele>233.0</ele><time>2026-04-11T16:51:31Z</time></trkpt><trkpt lat="44.3045970907056" lon="11.39900585990598"><ele>233.0</ele><time>2026-04-11T16:51:32Z</time></trkpt><trkpt lat="44.304446051740875" lon="11.399023322371157"><ele>233.0</ele><time>2026-04-11T16:51:33Z</time></trkpt><trkpt lat="44.304292661514125" lon="11.399036535643521"><ele>233.0</ele><time>2026-04-11T16:51:34Z</time></trkpt><trkpt lat="44.30414356472119" lon="11.399044452229749"><ele>233.0</ele><time>2026-04-11T16:51:35Z</time></trkpt><trkpt lat="44.303993115114444" lon="11.399051522352144"><ele>233.0</ele><time>2026-04-11T16:51:36Z</time></trkpt><trkpt lat="44.30384418101028" lon="11.399059615837484"><ele>233.0</ele><time>2026-04-11T16:51:37Z</time></trkpt><trkpt lat="44.30369731599794" lon="11.399063895526785"><ele>233.0</ele><time>2026-04-11T16:51:38Z</time></trkpt><trkpt lat="44.30355126991045" lon="11.39906047331983"><ele>234.0</ele><time>2026-04-11T16:51:39Z</time></trkpt><trkpt lat="44.303402437873025" lon="11.399048579077531"><ele>235.0</ele><time>2026-04-11T16:51:40Z</time></trkpt><trkpt lat="44.30326022287692" lon="11.39901876539211"><ele>236.0</ele><time>2026-04-11T16:51:41Z</time></trkpt><trkpt lat="44.303118890161116" lon="11.398978058561362"><ele>237.0</ele><time>2026-04-11T16:51:42Z</time></trkpt><trkpt lat="44.30297829692387" lon="11.398931503462482"><ele>236.0</ele><time>2026-04-11T16:51:43Z</time></trkpt><trkpt lat="44.302835883998384" lon="11.398882208556945"><ele>235.0</ele><time>2026-04-11T16:51:44Z</time></trkpt><trkpt lat="44.302692231872264" lon="11.398833355055961"><ele>234.0</ele><time>2026-04-11T16:51:45Z</time></trkpt><trkpt lat="44.30254533669883" lon="11.398783727747963"><ele>233.0</ele><time>2026-04-11T16:51:46Z</time></trkpt><trkpt lat="44.302397513736125" lon="11.398737525590358"><ele>233.0</ele><time>2026-04-11T16:51:47Z</time></trkpt><trkpt lat="44.30225329026054" lon="11.398686014786303"><ele>233.0</ele><time>2026-04-11T16:51:48Z</time></trkpt><trkpt lat="44.30210278759898" lon="11.39863610312222"><ele>233.0</ele><time>2026-04-11T16:51:49Z</time></trkpt><trkpt lat="44.30195547867985" lon="11.3985850210983"><ele>233.5</ele><time>2026-04-11T16:51:50Z</time></trkpt><trkpt lat="44.301810151124876" lon="11.398532883172255"><ele>234.0</ele><time>2026-04-11T16:51:51Z</time></trkpt><trkpt lat="44.30166410032942" lon="11.398482874558576"><ele>234.5</ele><time>2026-04-11T16:51:52Z</time></trkpt><trkpt lat="44.30152589662649" lon="11.398435530503347"><ele>235.0</ele><time>2026-04-11T16:51:53Z</time></trkpt><trkpt lat="44.301408187066286" lon="11.398399006306297"><ele>235.5</ele><time>2026-04-11T16:51:53.999Z</time></trkpt><trkpt lat="44.30129990176453" lon="11.398365796800062"><ele>236.0</ele><time>2026-04-11T16:51:54.999Z</time></trkpt><trkpt lat="44.3011817099555" lon="11.398329376900037"><ele>236.5</ele><time>2026-04-11T16:51:55.999Z</time></trkpt><trkpt lat="44.301051857105094" lon="11.39828721098865"><ele>237.0</ele><time>2026-04-11T16:51:56.999Z</time></trkpt><trkpt lat="44.300915823663004" lon="11.398241972790057"><ele>237.0</ele><time>2026-04-11T16:51:57.999Z</time></trkpt><trkpt lat="44.300776533779334" lon="11.398193073196536"><ele>237.0</ele><time>2026-04-11T16:51:58.999Z</time></trkpt><trkpt lat="44.30063266234331" lon="11.398142370589872"><ele>237.0</ele><time>2026-04-11T16:51:59.999Z</time></trkpt><trkpt lat="44.300485633921966" lon="11.398094124909175"><ele>237.0</ele><time>2026-04-11T16:52:00.999Z</time></trkpt><trkpt lat="44.3003398154664" lon="11.398046592806354"><ele>237.25</ele><time>2026-04-11T16:52:01.999Z</time></trkpt><trkpt lat="44.300201141825546" lon="11.398000934094773"><ele>237.5</ele><time>2026-04-11T16:52:02.999Z</time></trkpt><trkpt lat="44.30006555748084" lon="11.397955872316931"><ele>237.75</ele><time>2026-04-11T16:52:03.999Z</time></trkpt><trkpt lat="44.29993245477534" lon="11.397906066586781"><ele>238.0</ele><time>2026-04-11T16:52:04.999Z</time></trkpt><trkpt lat="44.29979326168461" lon="11.397858505859357"><ele>238.5</ele><time>2026-04-11T16:52:05.999Z</time></trkpt><trkpt lat="44.29965145750477" lon="11.397823750861296"><ele>239.0</ele><time>2026-04-11T16:52:06.999Z</time></trkpt><trkpt lat="44.29950540718741" lon="11.39781530381475"><ele>239.5</ele><time>2026-04-11T16:52:07.999Z</time></trkpt><trkpt lat="44.29935909572851" lon="11.397829259772607"><ele>240.0</ele><time>2026-04-11T16:52:08.999Z</time></trkpt><trkpt lat="44.29921885145109" lon="11.397882150822031"><ele>240.0</ele><time>2026-04-11T16:52:09.999Z</time></trkpt><trkpt lat="44.29908622539167" lon="11.397973882993611"><ele>240.0</ele><time>2026-04-11T16:52:10.999Z</time></trkpt><trkpt lat="44.29896608525452" lon="11.398084891714959"><ele>240.0</ele><time>2026-04-11T16:52:11.999Z</time></trkpt><trkpt lat="44.29885362097034" lon="11.398197196331386"><ele>240.0</ele><time>2026-04-11T16:52:12.999Z</time></trkpt><trkpt lat="44.29873770441989" lon="11.398305231844981"><ele>240.75</ele><time>2026-04-11T16:52:13.999Z</time></trkpt><trkpt lat="44.29861438880655" lon="11.398392364962795"><ele>241.5</ele><time>2026-04-11T16:52:14.999Z</time></trkpt><trkpt lat="44.298484399980346" lon="11.39847319260731"><ele>242.25</ele><time>2026-04-11T16:52:15.999Z</time></trkpt><trkpt lat="44.2983518574911" lon="11.398538290555921"><ele>243.0</ele><time>2026-04-11T16:52:16.999Z</time></trkpt><trkpt lat="44.29821619792044" lon="11.398587722712467"><ele>243.25</ele><time>2026-04-11T16:52:17.999Z</time></trkpt><trkpt lat="44.29807702341117" lon="11.398624031702656"><ele>243.5</ele><time>2026-04-11T16:52:18.999Z</time></trkpt><trkpt lat="44.29793126213425" lon="11.398640177071115"><ele>243.75</ele><time>2026-04-11T16:52:19.999Z</time></trkpt><trkpt lat="44.29778157011499" lon="11.398636341270223"><ele>244.0</ele><time>2026-04-11T16:52:20.999Z</time></trkpt><trkpt lat="44.297635791430196" lon="11.39861325386996"><ele>244.0</ele><time>2026-04-11T16:52:21.999Z</time></trkpt><trkpt lat="44.297491613503766" lon="11.398582622977749"><ele>244.0</ele><time>2026-04-11T16:52:22.999Z</time></trkpt><trkpt lat="44.29734609858771" lon="11.39854842790998"><ele>244.0</ele><time>2026-04-11T16:52:23.999Z</time></trkpt><trkpt lat="44.297199843132205" lon="11.398508167037361"><ele>244.0</ele><time>2026-04-11T16:52:24.999Z</time></trkpt><trkpt lat="44.2970536064336" lon="11.398469973737367"><ele>245.0</ele><time>2026-04-11T16:52:25.999Z</time></trkpt><trkpt lat="44.29690480177967" lon="11.398432497681593"><ele>246.0</ele><time>2026-04-11T16:52:26.999Z</time></trkpt><trkpt lat="44.29675472913792" lon="11.398397831593064"><ele>247.0</ele><time>2026-04-11T16:52:27.999Z</time></trkpt><trkpt lat="44.296606799102754" lon="11.398364524650844"><ele>247.0</ele><time>2026-04-11T16:52:28.999Z</time></trkpt><trkpt lat="44.29645616589372" lon="11.398321779940217"><ele>247.0</ele><time>2026-04-11T16:52:29.999Z</time></trkpt><trkpt lat="44.29630620549882" lon="11.398284105586246"><ele>247.0</ele><time>2026-04-11T16:52:30.999Z</time></trkpt><trkpt lat="44.29615266301958" lon="11.398268850555153"><ele>247.75</ele><time>2026-04-11T16:52:31.999Z</time></trkpt><trkpt lat="44.29599964211744" lon="11.398268800999062"><ele>248.5</ele><time>2026-04-11T16:52:32.999Z</time></trkpt><trkpt lat="44.29585159221352" lon="11.398294372873705"><ele>249.25</ele><time>2026-04-11T16:52:33.999Z</time></trkpt><trkpt lat="44.29571772881348" lon="11.39833888242621"><ele>250.0</ele><time>2026-04-11T16:52:34.999Z</time></trkpt><trkpt lat="44.295604903337924" lon="11.398385096545196"><ele>250.33333333333331</ele><time>2026-04-11T16:52:35.999Z</time></trkpt><trkpt lat="44.295506082290345" lon="11.398401049195407"><ele>250.66666666666666</ele><time>2026-04-11T16:52:36.999Z</time></trkpt><trkpt lat="44.29543589146738" lon="11.39845513760909"><ele>251.0</ele><time>2026-04-11T16:52:37.999Z</time></trkpt><trkpt lat="44.29536815628916" lon="11.39845923346173"><ele>251.33333333333331</ele><time>2026-04-11T16:52:38.999Z</time></trkpt><trkpt lat="44.2952990840852" lon="11.398442628133454"><ele>251.66666666666666</ele><time>2026-04-11T16:52:39.999Z</time></trkpt><trkpt lat="44.295242343149255" lon="11.398370413266218"><ele>252.0</ele><time>2026-04-11T16:52:40.999Z</time></trkpt><trkpt lat="44.29520006692293" lon="11.398299691277376"><ele>252.0</ele><time>2026-04-11T16:52:41.999Z</time></trkpt><trkpt lat="44.29508033355701" lon="11.398387595233125"><ele>252.0</ele><time>2026-04-11T16:52:42.999Z</time></trkpt><trkpt lat="44.29498668649806" lon="11.39842272740009"><ele>252.0</ele><time>2026-04-11T16:52:43.999Z</time></trkpt><trkpt lat="44.29489284081136" lon="11.398464295082027"><ele>252.0</ele><time>2026-04-11T16:52:44.999Z</time></trkpt><trkpt lat="44.29477912357481" lon="11.39848871515098"><ele>252.0</ele><time>2026-04-11T16:52:45.999Z</time></trkpt><trkpt lat="44.294663064370425" lon="11.398503851103497"><ele>252.0</ele><time>2026-04-11T16:52:46.999Z</time></trkpt><trkpt lat="44.29453866620569" lon="11.398508403701012"><ele>252.0</ele><time>2026-04-11T16:52:47.999Z</time></trkpt><trkpt lat="44.29440747926072" lon="11.39849516155913"><ele>252.0</ele><time>2026-04-11T16:52:48.999Z</time></trkpt><trkpt lat="44.29426427604061" lon="11.39847666660223"><ele>252.0</ele><time>2026-04-11T16:52:49.999Z</time></trkpt><trkpt lat="44.294128509616776" lon="11.398456865182327"><ele>252.0</ele><time>2026-04-11T16:52:50.999Z</time></trkpt><trkpt lat="44.293986251487944" lon="11.398436115392904"><ele>252.0</ele><time>2026-04-11T16:52:51.999Z</time></trkpt><trkpt lat="44.29386055729817" lon="11.398389800447076"><ele>252.0</ele><time>2026-04-11T16:52:52.999Z</time></trkpt><trkpt lat="44.293738582530175" lon="11.398330800414195"><ele>252.0</ele><time>2026-04-11T16:52:53.999Z</time></trkpt><trkpt lat="44.293624137493" lon="11.398232623566354"><ele>253.25</ele><time>2026-04-11T16:52:54.999Z</time></trkpt><trkpt lat="44.293516415742275" lon="11.398119855175416"><ele>254.5</ele><time>2026-04-11T16:52:55.999Z</time></trkpt><trkpt lat="44.2934028029763" lon="11.397998468896773"><ele>255.75</ele><time>2026-04-11T16:52:56.999Z</time></trkpt><trkpt lat="44.293293148477595" lon="11.39788863668262"><ele>257.0</ele><time>2026-04-11T16:52:57.999Z</time></trkpt><trkpt lat="44.29318303107464" lon="11.397817757462423"><ele>254.75</ele><time>2026-04-11T16:52:58.999Z</time></trkpt><trkpt lat="44.29309633188896" lon="11.397737094573186"><ele>252.5</ele><time>2026-04-11T16:52:59.999Z</time></trkpt><trkpt lat="44.29301431961023" lon="11.397648520034728"><ele>250.25</ele><time>2026-04-11T16:53:00.999Z</time></trkpt><trkpt lat="44.292902230410924" lon="11.397722734960523"><ele>248.0</ele><time>2026-04-11T16:53:01.999Z</time></trkpt><trkpt lat="44.29278353378204" lon="11.397784754745334"><ele>248.0</ele><time>2026-04-11T16:53:02.999Z</time></trkpt><trkpt lat="44.29270030862325" lon="11.397870715219767"><ele>248.0</ele><time>2026-04-11T16:53:04Z</time></trkpt><trkpt lat="44.29261695715519" lon="11.397987152236965"><ele>248.0</ele><time>2026-04-11T16:53:05Z</time></trkpt><trkpt lat="44.292544278406915" lon="11.398135501583845"><ele>248.0</ele><time>2026-04-11T16:53:06Z</time></trkpt><trkpt lat="44.29247416792103" lon="11.398296728945457"><ele>249.2</ele><time>2026-04-11T16:53:07Z</time></trkpt><trkpt lat="44.292410355940966" lon="11.398440573209607"><ele>250.4</ele><time>2026-04-11T16:53:08Z</time></trkpt><trkpt lat="44.2923509883107" lon="11.39857216788872"><ele>251.59999999999997</ele><time>2026-04-11T16:53:09Z</time></trkpt><trkpt lat="44.29230182224522" lon="11.39870445002946"><ele>252.79999999999998</ele><time>2026-04-11T16:53:10Z</time></trkpt><trkpt lat="44.29225156883373" lon="11.398835378279284"><ele>254.0</ele><time>2026-04-11T16:53:11Z</time></trkpt><trkpt lat="44.29221321807356" lon="11.398957711504886"><ele>254.75</ele><time>2026-04-11T16:53:12Z</time></trkpt><trkpt lat="44.29215605016886" lon="11.399070566403802"><ele>255.5</ele><time>2026-04-11T16:53:13Z</time></trkpt><trkpt lat="44.29204759043732" lon="11.399136370814189"><ele>256.25</ele><time>2026-04-11T16:53:14Z</time></trkpt><trkpt lat="44.29193176776684" lon="11.399230724873663"><ele>257.0</ele><time>2026-04-11T16:53:15Z</time></trkpt><trkpt lat="44.29180534287191" lon="11.3993355854385"><ele>257.0</ele><time>2026-04-11T16:53:16Z</time></trkpt><trkpt lat="44.291698928872684" lon="11.399441110140796"><ele>257.0</ele><time>2026-04-11T16:53:17Z</time></trkpt><trkpt lat="44.29162964777022" lon="11.399532647133338"><ele>257.0</ele><time>2026-04-11T16:53:18Z</time></trkpt><trkpt lat="44.291578183106424" lon="11.399669607446695"><ele>257.0</ele><time>2026-04-11T16:53:19Z</time></trkpt><trkpt lat="44.29154448273792" lon="11.399832004943528"><ele>258.0</ele><time>2026-04-11T16:53:20Z</time></trkpt><trkpt lat="44.2915407579993" lon="11.400013016426005"><ele>259.0</ele><time>2026-04-11T16:53:21Z</time></trkpt><trkpt lat="44.29155555823199" lon="11.40019851378233"><ele>260.0</ele><time>2026-04-11T16:53:22Z</time></trkpt><trkpt lat="44.29161730404418" lon="11.400387271469716"><ele>261.0</ele><time>2026-04-11T16:53:23Z</time></trkpt><trkpt lat="44.291670064145585" lon="11.400543398157447"><ele>262.0</ele><time>2026-04-11T16:53:24Z</time></trkpt><trkpt lat="44.291743795868186" lon="11.400694887537217"><ele>263.0</ele><time>2026-04-11T16:53:25Z</time></trkpt><trkpt lat="44.29179071964732" lon="11.400851394024563"><ele>264.0</ele><time>2026-04-11T16:53:26Z</time></trkpt><trkpt lat="44.2918347016539" lon="11.40100936543242"><ele>265.0</ele><time>2026-04-11T16:53:27Z</time></trkpt><trkpt lat="44.29186971509507" lon="11.401152722319667"><ele>265.0</ele><time>2026-04-11T16:53:28Z</time></trkpt><trkpt lat="44.29183800989436" lon="11.401299887208573"><ele>265.0</ele><time>2026-04-11T16:53:29Z</time></trkpt><trkpt lat="44.291810607976345" lon="11.401416764001835"><ele>265.0</ele><time>2026-04-11T16:53:30Z</time></trkpt><trkpt lat="44.291756923069755" lon="11.401530704180175"><ele>265.0</ele><time>2026-04-11T16:53:31Z</time></trkpt><trkpt lat="44.29166426259644" lon="11.40162599809074"><ele>265.0</ele><time>2026-04-11T16:53:32Z</time></trkpt><trkpt lat="44.29157227070871" lon="11.40171698628402"><ele>264.2</ele><time>2026-04-11T16:53:33Z</time></trkpt><trkpt lat="44.29149599795877" lon="11.40180913615603"><ele>263.4</ele><time>2026-04-11T16:53:34Z</time></trkpt><trkpt lat="44.29142964624757" lon="11.401911601682594"><ele>262.6</ele><time>2026-04-11T16:53:35Z</time></trkpt><trkpt lat="44.29138236234721" lon="11.402031965391656"><ele>261.8</ele><time>2026-04-11T16:53:36Z</time></trkpt><trkpt lat="44.29135160594574" lon="11.402156439643884"><ele>261.0</ele><time>2026-04-11T16:53:37Z</time></trkpt><trkpt lat="44.291343935303836" lon="11.402296721430437"><ele>265.0</ele><time>2026-04-11T16:53:38Z</time></trkpt><trkpt lat="44.29133422070348" lon="11.402458568506143"><ele>269.0</ele><time>2026-04-11T16:53:39Z</time></trkpt><trkpt lat="44.2913457386488" lon="11.402602089120457"><ele>273.0</ele><time>2026-04-11T16:53:40Z</time></trkpt><trkpt lat="44.29137078437036" lon="11.402773602101691"><ele>277.0</ele><time>2026-04-11T16:53:41Z</time></trkpt><trkpt lat="44.291369056133554" lon="11.402929439520303"><ele>276.0</ele><time>2026-04-11T16:53:42Z</time></trkpt><trkpt lat="44.29137065171319" lon="11.403050382568416"><ele>275.0</ele><time>2026-04-11T16:53:43Z</time></trkpt><trkpt lat="44.29136608893462" lon="11.403169808254324"><ele>274.0</ele><time>2026-04-11T16:53:44Z</time></trkpt><trkpt lat="44.29125778218964" lon="11.403249776611316"><ele>273.0</ele><time>2026-04-11T16:53:45Z</time></trkpt><trkpt lat="44.29123919121182" lon="11.40335135036931"><ele>272.0</ele><time>2026-04-11T16:53:46Z</time></trkpt><trkpt lat="44.29120473477801" lon="11.403440607434954"><ele>271.0</ele><time>2026-04-11T16:53:47Z</time></trkpt><trkpt lat="44.29122185512665" lon="11.403549870299049"><ele>271.0</ele><time>2026-04-11T16:53:48Z</time></trkpt><trkpt lat="44.29127845152301" lon="11.40366184758514"><ele>271.0</ele><time>2026-04-11T16:53:49Z</time></trkpt><trkpt lat="44.29136371855879" lon="11.403766267086924"><ele>271.0</ele><time>2026-04-11T16:53:50Z</time></trkpt><trkpt lat="44.29143664281781" lon="11.403862453088813"><ele>271.0</ele><time>2026-04-11T16:53:51Z</time></trkpt><trkpt lat="44.291461644335754" lon="11.40400902977509"><ele>271.0</ele><time>2026-04-11T16:53:52Z</time></trkpt><trkpt lat="44.291487782748796" lon="11.404174021635919"><ele>272.2</ele><time>2026-04-11T16:53:53Z</time></trkpt><trkpt lat="44.29152503905237" lon="11.404347181179562"><ele>273.40000000000003</ele><time>2026-04-11T16:53:54Z</time></trkpt><trkpt lat="44.291547403773336" lon="11.404505266555232"><ele>274.6</ele><time>2026-04-11T16:53:55Z</time></trkpt><trkpt lat="44.29159567359193" lon="11.404640415205975"><ele>275.8</ele><time>2026-04-11T16:53:56Z</time></trkpt><trkpt lat="44.29166496190691" lon="11.404730394610533"><ele>277.0</ele><time>2026-04-11T16:53:57Z</time></trkpt><trkpt lat="44.291742728648266" lon="11.404779239121368"><ele>277.0</ele><time>2026-04-11T16:53:58Z</time></trkpt><trkpt lat="44.29176965694637" lon="11.404964780156405"><ele>277.0</ele><time>2026-04-11T16:54:00Z</time></trkpt><trkpt lat="44.2917131825991" lon="11.405047749870887"><ele>277.0</ele><time>2026-04-11T16:54:00.999Z</time></trkpt><trkpt lat="44.29163333930589" lon="11.40507756857029"><ele>277.0</ele><time>2026-04-11T16:54:01.999Z</time></trkpt><trkpt lat="44.29154391561915" lon="11.405053649788895"><ele>277.0</ele><time>2026-04-11T16:54:02.999Z</time></trkpt><trkpt lat="44.29145700707058" lon="11.40494831738208"><ele>279.25</ele><time>2026-04-11T16:54:03.999Z</time></trkpt><trkpt lat="44.291343201448896" lon="11.40489997143872"><ele>281.5</ele><time>2026-04-11T16:54:04.999Z</time></trkpt><trkpt lat="44.291223991882255" lon="11.404840952374743"><ele>283.75</ele><time>2026-04-11T16:54:05.999Z</time></trkpt><trkpt lat="44.291117338856665" lon="11.404781212631878"><ele>286.0</ele><time>2026-04-11T16:54:06.999Z</time></trkpt><trkpt lat="44.2910192453266" lon="11.404753198807727"><ele>286.0</ele><time>2026-04-11T16:54:07.999Z</time></trkpt><trkpt lat="44.29095083260813" lon="11.404701643971745"><ele>286.0</ele><time>2026-04-11T16:54:08.999Z</time></trkpt><trkpt lat="44.290887367377806" lon="11.404690585792745"><ele>286.0</ele><time>2026-04-11T16:54:09.999Z</time></trkpt><trkpt lat="44.29084316493234" lon="11.404761193185807"><ele>286.0</ele><time>2026-04-11T16:54:10.999Z</time></trkpt><trkpt lat="44.290816041304176" lon="11.404845430026695"><ele>286.0</ele><time>2026-04-11T16:54:11.999Z</time></trkpt><trkpt lat="44.290847870279784" lon="11.404967363559596"><ele>286.0</ele><time>2026-04-11T16:54:12.999Z</time></trkpt><trkpt lat="44.29097083597099" lon="11.405021408366581"><ele>286.0</ele><time>2026-04-11T16:54:13.999Z</time></trkpt><trkpt lat="44.29102763381163" lon="11.405104256472846"><ele>286.0</ele><time>2026-04-11T16:54:14.999Z</time></trkpt><trkpt lat="44.29104114167523" lon="11.405192068255827"><ele>286.0</ele><time>2026-04-11T16:54:16.999Z</time></trkpt><trkpt lat="44.290933619456474" lon="11.405207158668563"><ele>286.0</ele><time>2026-04-11T16:54:17.999Z</time></trkpt><trkpt lat="44.29079518471724" lon="11.40503574971267"><ele>286.0</ele><time>2026-04-11T16:54:19.999Z</time></trkpt><trkpt lat="44.29071685290295" lon="11.404956196376661"><ele>286.0</ele><time>2026-04-11T16:54:20.999Z</time></trkpt><trkpt lat="44.29066143128968" lon="11.404912670304524"><ele>286.0</ele><time>2026-04-11T16:54:21.999Z</time></trkpt><trkpt lat="44.290591285416994" lon="11.40491142634076"><ele>286.0</ele><time>2026-04-11T16:54:23.999Z</time></trkpt><trkpt lat="44.290561087783466" lon="11.405074558180551"><ele>286.0</ele><time>2026-04-11T16:54:24.999Z</time></trkpt><trkpt lat="44.29063182654884" lon="11.405183236827314"><ele>286.0</ele><time>2026-04-11T16:54:25.999Z</time></trkpt><trkpt lat="44.290678739102326" lon="11.40526899577481"><ele>286.0</ele><time>2026-04-11T16:54:26.999Z</time></trkpt><trkpt lat="44.290652318421955" lon="11.405352609638147"><ele>289.2</ele><time>2026-04-11T16:54:27.999Z</time></trkpt><trkpt lat="44.290492662369985" lon="11.405313574872896"><ele>292.40000000000003</ele><time>2026-04-11T16:54:29.999Z</time></trkpt><trkpt lat="44.2904012494563" lon="11.405271353953326"><ele>295.6</ele><time>2026-04-11T16:54:30.999Z</time></trkpt><trkpt lat="44.290324743084234" lon="11.405191801044928"><ele>298.8</ele><time>2026-04-11T16:54:31.999Z</time></trkpt><trkpt lat="44.290304528845375" lon="11.405078721434315"><ele>302.0</ele><time>2026-04-11T16:54:32.999Z</time></trkpt><trkpt lat="44.29031495733189" lon="11.404943647811123"><ele>302.0</ele><time>2026-04-11T16:54:33.999Z</time></trkpt><trkpt lat="44.29035744964907" lon="11.40480386207117"><ele>302.0</ele><time>2026-04-11T16:54:34.999Z</time></trkpt><trkpt lat="44.29036675488704" lon="11.404693529615548"><ele>302.0</ele><time>2026-04-11T16:54:35.999Z</time></trkpt><trkpt lat="44.29037573216736" lon="11.404589445218287"><ele>302.0</ele><time>2026-04-11T16:54:36.999Z</time></trkpt><trkpt lat="44.2903467234798" lon="11.404499751229443"><ele>302.0</ele><time>2026-04-11T16:54:37.999Z</time></trkpt><trkpt lat="44.2902645509021" lon="11.40446977361827"><ele>302.0</ele><time>2026-04-11T16:54:38.999Z</time></trkpt><trkpt lat="44.29019227983086" lon="11.404472304100151"><ele>302.0</ele><time>2026-04-11T16:54:39.999Z</time></trkpt><trkpt lat="44.29011894614951" lon="11.404561982078294"><ele>302.0</ele><time>2026-04-11T16:54:40.999Z</time></trkpt><trkpt lat="44.290068394572984" lon="11.40469890810664"><ele>302.0</ele><time>2026-04-11T16:54:41.999Z</time></trkpt><trkpt lat="44.290012094334855" lon="11.404852395238173"><ele>302.0</ele><time>2026-04-11T16:54:42.999Z</time></trkpt><trkpt lat="44.28995813749069" lon="11.405014506477585"><ele>302.0</ele><time>2026-04-11T16:54:43.999Z</time></trkpt><trkpt lat="44.28992651256254" lon="11.405171396739817"><ele>302.0</ele><time>2026-04-11T16:54:44.999Z</time></trkpt><trkpt lat="44.28992129433336" lon="11.405339805007198"><ele>302.0</ele><time>2026-04-11T16:54:45.999Z</time></trkpt><trkpt lat="44.28993517106053" lon="11.405525677722249"><ele>302.0</ele><time>2026-04-11T16:54:46.999Z</time></trkpt><trkpt lat="44.28995684842903" lon="11.405711190553097"><ele>303.25</ele><time>2026-04-11T16:54:47.999Z</time></trkpt><trkpt lat="44.29000837862515" lon="11.405880682504563"><ele>304.5</ele><time>2026-04-11T16:54:48.999Z</time></trkpt><trkpt lat="44.29008440590529" lon="11.406041833042265"><ele>305.75</ele><time>2026-04-11T16:54:49.999Z</time></trkpt><trkpt lat="44.290154023325336" lon="11.406211135007327"><ele>307.0</ele><time>2026-04-11T16:54:50.999Z</time></trkpt><trkpt lat="44.29024099512971" lon="11.406344817492744"><ele>309.16666666666663</ele><time>2026-04-11T16:54:51.999Z</time></trkpt><trkpt lat="44.290307498512504" lon="11.406445443456649"><ele>311.3333333333333</ele><time>2026-04-11T16:54:52.999Z</time></trkpt><trkpt lat="44.29035477409174" lon="11.406522553840462"><ele>313.5</ele><time>2026-04-11T16:54:53.999Z</time></trkpt><trkpt lat="44.29038177971336" lon="11.406649928152504"><ele>315.6666666666667</ele><time>2026-04-11T16:54:55.999Z</time></trkpt><trkpt lat="44.29033057734454" lon="11.406732026067134"><ele>317.83333333333337</ele><time>2026-04-11T16:54:56.999Z</time></trkpt><trkpt lat="44.29024074787356" lon="11.406776357065596"><ele>320.0</ele><time>2026-04-11T16:54:57.999Z</time></trkpt><trkpt lat="44.2901408639709" lon="11.40679102122665"><ele>320.0</ele><time>2026-04-11T16:54:58.999Z</time></trkpt><trkpt lat="44.290033289976456" lon="11.406814084843207"><ele>320.0</ele><time>2026-04-11T16:54:59.999Z</time></trkpt><trkpt lat="44.289947968747136" lon="11.406894975393346"><ele>320.0</ele><time>2026-04-11T16:55:00.999Z</time></trkpt><trkpt lat="44.28988134018095" lon="11.407027677720148"><ele>320.0</ele><time>2026-04-11T16:55:01.999Z</time></trkpt><trkpt lat="44.28985334137782" lon="11.407218299437222"><ele>320.75</ele><time>2026-04-11T16:55:02.999Z</time></trkpt><trkpt lat="44.289813892566066" lon="11.40737059437691"><ele>321.5</ele><time>2026-04-11T16:55:03.999Z</time></trkpt><trkpt lat="44.28977702355631" lon="11.407528567990923"><ele>322.25</ele><time>2026-04-11T16:55:04.999Z</time></trkpt><trkpt lat="44.289736535682046" lon="11.40770505744421"><ele>323.0</ele><time>2026-04-11T16:55:05.999Z</time></trkpt><trkpt lat="44.28971138108065" lon="11.407872331598266"><ele>323.5</ele><time>2026-04-11T16:55:06.999Z</time></trkpt><trkpt lat="44.28967077970503" lon="11.408039148316874"><ele>324.0</ele><time>2026-04-11T16:55:07.999Z</time></trkpt><trkpt lat="44.28963890706152" lon="11.408208130541226"><ele>324.5</ele><time>2026-04-11T16:55:08.999Z</time></trkpt><trkpt lat="44.28960736966141" lon="11.408391190252797"><ele>325.0</ele><time>2026-04-11T16:55:10Z</time></trkpt><trkpt lat="44.28959049194568" lon="11.408582285246366"><ele>325.0</ele><time>2026-04-11T16:55:11Z</time></trkpt><trkpt lat="44.289593249592684" lon="11.408783427229874"><ele>325.0</ele><time>2026-04-11T16:55:12Z</time></trkpt><trkpt lat="44.28961981463965" lon="11.408965161818136"><ele>325.0</ele><time>2026-04-11T16:55:13Z</time></trkpt><trkpt lat="44.289647749839546" lon="11.409152997937706"><ele>325.0</ele><time>2026-04-11T16:55:14Z</time></trkpt><trkpt lat="44.28966870248656" lon="11.40934755474546"><ele>326.2</ele><time>2026-04-11T16:55:15Z</time></trkpt><trkpt lat="44.289675579515794" lon="11.409519678490634"><ele>327.4</ele><time>2026-04-11T16:55:16Z</time></trkpt><trkpt lat="44.289668477664264" lon="11.409658189673857"><ele>328.6</ele><time>2026-04-11T16:55:17Z</time></trkpt><trkpt lat="44.28965765103275" lon="11.409779937073216"><ele>329.8</ele><time>2026-04-11T16:55:18Z</time></trkpt><trkpt lat="44.28965730209166" lon="11.40991056854573"><ele>331.0</ele><time>2026-04-11T16:55:19Z</time></trkpt><trkpt lat="44.289679928660206" lon="11.410044517767828"><ele>332.25</ele><time>2026-04-11T16:55:20Z</time></trkpt><trkpt lat="44.28975102360607" lon="11.410180775661757"><ele>333.5</ele><time>2026-04-11T16:55:21Z</time></trkpt><trkpt lat="44.28983473936609" lon="11.410336150773427"><ele>334.75</ele><time>2026-04-11T16:55:22Z</time></trkpt><trkpt lat="44.28988498214057" lon="11.410467026505476"><ele>336.0</ele><time>2026-04-11T16:55:23Z</time></trkpt><trkpt lat="44.28990792321979" lon="11.410658879396943"><ele>340.5</ele><time>2026-04-11T16:55:24Z</time></trkpt><trkpt lat="44.2899407565071" lon="11.4108370942685"><ele>345.0</ele><time>2026-04-11T16:55:25Z</time></trkpt><trkpt lat="44.289984674444696" lon="11.410986085692894"><ele>349.5</ele><time>2026-04-11T16:55:26Z</time></trkpt><trkpt lat="44.28998550578386" lon="11.411169854056752"><ele>354.0</ele><time>2026-04-11T16:55:27Z</time></trkpt><trkpt lat="44.2899619911551" lon="11.411366417526871"><ele>356.5</ele><time>2026-04-11T16:55:28Z</time></trkpt><trkpt lat="44.289953116094146" lon="11.411527005810479"><ele>359.0</ele><time>2026-04-11T16:55:29Z</time></trkpt><trkpt lat="44.28998548908172" lon="11.411728713397757"><ele>361.5</ele><time>2026-04-11T16:55:30Z</time></trkpt><trkpt lat="44.29000959655233" lon="11.411934048372332"><ele>364.0</ele><time>2026-04-11T16:55:31Z</time></trkpt><trkpt lat="44.29002820254393" lon="11.412143839084617"><ele>366.25</ele><time>2026-04-11T16:55:32Z</time></trkpt><trkpt lat="44.290052467893524" lon="11.412348944907036"><ele>368.5</ele><time>2026-04-11T16:55:33Z</time></trkpt><trkpt lat="44.29008918233724" lon="11.412542894770727"><ele>370.75</ele><time>2026-04-11T16:55:34Z</time></trkpt><trkpt lat="44.290083824959055" lon="11.41272185533247"><ele>373.0</ele><time>2026-04-11T16:55:35Z</time></trkpt><trkpt lat="44.29010056756314" lon="11.412860980402842"><ele>373.0</ele><time>2026-04-11T16:55:36Z</time></trkpt><trkpt lat="44.29012733182991" lon="11.412967922512474"><ele>373.0</ele><time>2026-04-11T16:55:37Z</time></trkpt><trkpt lat="44.29018024728256" lon="11.413097023772334"><ele>373.0</ele><time>2026-04-11T16:55:38Z</time></trkpt><trkpt lat="44.290286668197915" lon="11.413178681605098"><ele>373.0</ele><time>2026-04-11T16:55:39Z</time></trkpt><trkpt lat="44.29038193268389" lon="11.413229223524981"><ele>373.0</ele><time>2026-04-11T16:55:40Z</time></trkpt><trkpt lat="44.2904655954775" lon="11.41327136395207"><ele>375.5</ele><time>2026-04-11T16:55:41Z</time></trkpt><trkpt lat="44.29051674242012" lon="11.413413230267231"><ele>378.0</ele><time>2026-04-11T16:55:42Z</time></trkpt><trkpt lat="44.29049519297802" lon="11.413584027026072"><ele>380.5</ele><time>2026-04-11T16:55:43Z</time></trkpt><trkpt lat="44.29049435911822" lon="11.413758261198327"><ele>383.0</ele><time>2026-04-11T16:55:44Z</time></trkpt><trkpt lat="44.29049989492408" lon="11.413971579599908"><ele>385.0</ele><time>2026-04-11T16:55:45Z</time></trkpt><trkpt lat="44.29050951338247" lon="11.414138565132635"><ele>387.0</ele><time>2026-04-11T16:55:47Z</time></trkpt><trkpt lat="44.290537781356996" lon="11.414249051527001"><ele>389.0</ele><time>2026-04-11T16:55:48Z</time></trkpt><trkpt lat="44.29059618837141" lon="11.41436443571959"><ele>391.0</ele><time>2026-04-11T16:55:49Z</time></trkpt><trkpt lat="44.290664984537294" lon="11.41448705269327"><ele>393.0</ele><time>2026-04-11T16:55:50Z</time></trkpt><trkpt lat="44.29073633912267" lon="11.414611515315329"><ele>396.0</ele><time>2026-04-11T16:55:51Z</time></trkpt><trkpt lat="44.290808599341474" lon="11.41472731182747"><ele>399.0</ele><time>2026-04-11T16:55:52Z</time></trkpt><trkpt lat="44.29087745764268" lon="11.414833090734733"><ele>402.0</ele><time>2026-04-11T16:55:53Z</time></trkpt><trkpt lat="44.2909072439204" lon="11.414944112387872"><ele>405.0</ele><time>2026-04-11T16:55:55Z</time></trkpt><trkpt lat="44.290948629585536" lon="11.415088105712654"><ele>408.0</ele><time>2026-04-11T16:55:58Z</time></trkpt><trkpt lat="44.290973514136766" lon="11.41519102497018"><ele>408.0</ele><time>2026-04-11T16:55:59Z</time></trkpt><trkpt lat="44.290998595406705" lon="11.415319265148858"><ele>408.0</ele><time>2026-04-11T16:56:00Z</time></trkpt><trkpt lat="44.291008225667696" lon="11.415449621956908"><ele>408.0</ele><time>2026-04-11T16:56:01Z</time></trkpt><trkpt lat="44.290997395389496" lon="11.415576628506825"><ele>408.0</ele><time>2026-04-11T16:56:01.999Z</time></trkpt><trkpt lat="44.290948773964246" lon="11.41570129429933"><ele>408.0</ele><time>2026-04-11T16:56:02.999Z</time></trkpt><trkpt lat="44.290886830127135" lon="11.415851260561356"><ele>410.25</ele><time>2026-04-11T16:56:03.999Z</time></trkpt><trkpt lat="44.29085651482963" lon="11.416011571606633"><ele>412.5</ele><time>2026-04-11T16:56:04.999Z</time></trkpt><trkpt lat="44.29083416443911" lon="11.416168262891086"><ele>414.75</ele><time>2026-04-11T16:56:05.999Z</time></trkpt><trkpt lat="44.29083880659509" lon="11.416335763770451"><ele>417.0</ele><time>2026-04-11T16:56:06.999Z</time></trkpt><trkpt lat="44.29086018081017" lon="11.41650298701439"><ele>419.25</ele><time>2026-04-11T16:56:07.999Z</time></trkpt><trkpt lat="44.29087933133848" lon="11.416681041577819"><ele>421.5</ele><time>2026-04-11T16:56:08.999Z</time></trkpt><trkpt lat="44.2908764519298" lon="11.416879640752898"><ele>423.75</ele><time>2026-04-11T16:56:09.999Z</time></trkpt><trkpt lat="44.29088214626886" lon="11.4170548740866"><ele>426.0</ele><time>2026-04-11T16:56:10.999Z</time></trkpt><trkpt lat="44.2909176647885" lon="11.417209665290748"><ele>427.8333333333333</ele><time>2026-04-11T16:56:11.999Z</time></trkpt><trkpt lat="44.290946873303035" lon="11.417329918305414"><ele>429.66666666666663</ele><time>2026-04-11T16:56:12.999Z</time></trkpt><trkpt lat="44.29096001160572" lon="11.417423833387332"><ele>431.5</ele><time>2026-04-11T16:56:13.999Z</time></trkpt><trkpt lat="44.29091021223813" lon="11.417509677973237"><ele>433.3333333333333</ele><time>2026-04-11T16:56:14.999Z</time></trkpt><trkpt lat="44.290853170874854" lon="11.417570338446007"><ele>435.16666666666663</ele><time>2026-04-11T16:56:15.999Z</time></trkpt><trkpt lat="44.29076950934715" lon="11.417563943524005"><ele>437.0</ele><time>2026-04-11T16:56:16.999Z</time></trkpt><trkpt lat="44.290673822677206" lon="11.41752346554682"><ele>439.75</ele><time>2026-04-11T16:56:17.999Z</time></trkpt><trkpt lat="44.29056218399335" lon="11.41751890004802"><ele>442.5</ele><time>2026-04-11T16:56:18.999Z</time></trkpt><trkpt lat="44.29045185642602" lon="11.417565313810071"><ele>445.25</ele><time>2026-04-11T16:56:19.999Z</time></trkpt><trkpt lat="44.29035095494004" lon="11.417649838266557"><ele>448.0</ele><time>2026-04-11T16:56:20.999Z</time></trkpt><trkpt lat="44.29025683465502" lon="11.417755664302272"><ele>448.0</ele><time>2026-04-11T16:56:21.999Z</time></trkpt><trkpt lat="44.29017314001609" lon="11.417853501697875"><ele>447.99999999999994</ele><time>2026-04-11T16:56:22.999Z</time></trkpt><trkpt lat="44.29008989313026" lon="11.417951613321913"><ele>447.99999999999994</ele><time>2026-04-11T16:56:23.999Z</time></trkpt><trkpt lat="44.29000278792466" lon="11.418023049678048"><ele>448.0</ele><time>2026-04-11T16:56:24.999Z</time></trkpt><trkpt lat="44.28990102390984" lon="11.418053132555318"><ele>448.0</ele><time>2026-04-11T16:56:25.999Z</time></trkpt><trkpt lat="44.289792680492454" lon="11.418006698621856"><ele>450.75</ele><time>2026-04-11T16:56:26.999Z</time></trkpt><trkpt lat="44.28970299006635" lon="11.417927219471254"><ele>453.5</ele><time>2026-04-11T16:56:27.999Z</time></trkpt><trkpt lat="44.28965052960465" lon="11.417801668352174"><ele>456.25</ele><time>2026-04-11T16:56:28.999Z</time></trkpt><trkpt lat="44.28953515234748" lon="11.417640607372046"><ele>459.0</ele><time>2026-04-11T16:56:29.999Z</time></trkpt><trkpt lat="44.28946036638839" lon="11.417530075946557"><ele>459.0</ele><time>2026-04-11T16:56:30.999Z</time></trkpt><trkpt lat="44.28936954822974" lon="11.417463217597863"><ele>459.0</ele><time>2026-04-11T16:56:31.999Z</time></trkpt><trkpt lat="44.289266100567836" lon="11.417427738359732"><ele>459.0</ele><time>2026-04-11T16:56:32.999Z</time></trkpt><trkpt lat="44.28917902278071" lon="11.417429884375329"><ele>459.0</ele><time>2026-04-11T16:56:33.999Z</time></trkpt><trkpt lat="44.289080988561146" lon="11.417467621138103"><ele>459.0</ele><time>2026-04-11T16:56:35.999Z</time></trkpt><trkpt lat="44.289047705388484" lon="11.41757550187318"><ele>459.0</ele><time>2026-04-11T16:56:36.999Z</time></trkpt><trkpt lat="44.28909758061" lon="11.417720309635277"><ele>459.0</ele><time>2026-04-11T16:56:37.999Z</time></trkpt><trkpt lat="44.28912649073351" lon="11.417840479532675"><ele>459.0</ele><time>2026-04-11T16:56:38.999Z</time></trkpt><trkpt lat="44.289134302184706" lon="11.417945287161821"><ele>459.0</ele><time>2026-04-11T16:56:39.999Z</time></trkpt><trkpt lat="44.28911121826211" lon="11.418083662037048"><ele>459.0</ele><time>2026-04-11T16:56:40.999Z</time></trkpt><trkpt lat="44.28904935548043" lon="11.418211242909848"><ele>460.5</ele><time>2026-04-11T16:56:41.999Z</time></trkpt><trkpt lat="44.288965828488784" lon="11.418342539149576"><ele>462.0</ele><time>2026-04-11T16:56:42.999Z</time></trkpt><trkpt lat="44.288880195396416" lon="11.418463000596773"><ele>463.5</ele><time>2026-04-11T16:56:43.999Z</time></trkpt><trkpt lat="44.28879858151519" lon="11.418602276391807"><ele>465.0</ele><time>2026-04-11T16:56:44.999Z</time></trkpt><trkpt lat="44.28870491754827" lon="11.418732781096947"><ele>468.75</ele><time>2026-04-11T16:56:45.999Z</time></trkpt><trkpt lat="44.2885957003942" lon="11.41886987940281"><ele>472.5</ele><time>2026-04-11T16:56:46.999Z</time></trkpt><trkpt lat="44.28850423140162" lon="11.419034761522182"><ele>476.25</ele><time>2026-04-11T16:56:47.999Z</time></trkpt><trkpt lat="44.288402379567216" lon="11.419166161277149"><ele>480.0</ele><time>2026-04-11T16:56:48.999Z</time></trkpt><trkpt lat="44.28827701397571" lon="11.41925214720312"><ele>480.0</ele><time>2026-04-11T16:56:49.999Z</time></trkpt><trkpt lat="44.28815265973299" lon="11.419280359198096"><ele>480.0</ele><time>2026-04-11T16:56:50.999Z</time></trkpt><trkpt lat="44.28804551455248" lon="11.419252938035196"><ele>480.0</ele><time>2026-04-11T16:56:51.999Z</time></trkpt><trkpt lat="44.28796751618575" lon="11.419285911867705"><ele>480.0</ele><time>2026-04-11T16:56:52.999Z</time></trkpt><trkpt lat="44.2878866907612" lon="11.419294225580632"><ele>480.0</ele><time>2026-04-11T16:56:53.999Z</time></trkpt><trkpt lat="44.28780797684307" lon="11.419371731979462"><ele>479.0</ele><time>2026-04-11T16:56:54.999Z</time></trkpt><trkpt lat="44.287731055608084" lon="11.419494654739035"><ele>478.0</ele><time>2026-04-11T16:56:55.999Z</time></trkpt><trkpt lat="44.28766254588263" lon="11.419623514728604"><ele>477.0</ele><time>2026-04-11T16:56:56.999Z</time></trkpt><trkpt lat="44.28759687164932" lon="11.419722624146038"><ele>476.0</ele><time>2026-04-11T16:56:57.999Z</time></trkpt><trkpt lat="44.287544791000926" lon="11.419791909337752"><ele>475.0</ele><time>2026-04-11T16:56:58.999Z</time></trkpt><trkpt lat="44.287507201717666" lon="11.419983049176885"><ele>478.2</ele><time>2026-04-11T16:57:00.999Z</time></trkpt><trkpt lat="44.28750297043078" lon="11.420131419981894"><ele>481.4</ele><time>2026-04-11T16:57:01.999Z</time></trkpt><trkpt lat="44.2875150762575" lon="11.42024903701069"><ele>484.6</ele><time>2026-04-11T16:57:02.999Z</time></trkpt><trkpt lat="44.28758720093014" lon="11.420357917087092"><ele>487.8</ele><time>2026-04-11T16:57:04.999Z</time></trkpt><trkpt lat="44.28765963906259" lon="11.420360176710117"><ele>491.0</ele><time>2026-04-11T16:57:05.999Z</time></trkpt><trkpt lat="44.287702892886756" lon="11.420226379853556"><ele>490.99999999999994</ele><time>2026-04-11T16:57:06.999Z</time></trkpt><trkpt lat="44.287767399861764" lon="11.42015852625064"><ele>491.0</ele><time>2026-04-11T16:57:07.999Z</time></trkpt><trkpt lat="44.28787737709167" lon="11.420180844733771"><ele>491.0</ele><time>2026-04-11T16:57:09.999Z</time></trkpt><trkpt lat="44.28788793702769" lon="11.420293909532482"><ele>491.0</ele><time>2026-04-11T16:57:10.999Z</time></trkpt><trkpt lat="44.28788313004004" lon="11.420406613259082"><ele>490.99999999999994</ele><time>2026-04-11T16:57:11.999Z</time></trkpt><trkpt lat="44.28789992406022" lon="11.420525081407723"><ele>491.0</ele><time>2026-04-11T16:57:12.999Z</time></trkpt><trkpt lat="44.28794727960587" lon="11.420661650077754"><ele>492.20000000000005</ele><time>2026-04-11T16:57:13.999Z</time></trkpt><trkpt lat="44.28797976246827" lon="11.420802658085133"><ele>493.40000000000003</ele><time>2026-04-11T16:57:14.998Z</time></trkpt><trkpt lat="44.28801343128981" lon="11.420920284662849"><ele>494.6</ele><time>2026-04-11T16:57:16Z</time></trkpt><trkpt lat="44.28804137700006" lon="11.421037599381416"><ele>495.8</ele><time>2026-04-11T16:57:17Z</time></trkpt><trkpt lat="44.288022368122704" lon="11.421186222904446"><ele>497.0</ele><time>2026-04-11T16:57:18Z</time></trkpt><trkpt lat="44.28796398061785" lon="11.421347766960654"><ele>499.0</ele><time>2026-04-11T16:57:19Z</time></trkpt><trkpt lat="44.287926147492804" lon="11.421538731514364"><ele>501.0</ele><time>2026-04-11T16:57:20Z</time></trkpt><trkpt lat="44.2878779020407" lon="11.42171024257978"><ele>503.0</ele><time>2026-04-11T16:57:21Z</time></trkpt><trkpt lat="44.28783621292647" lon="11.421878597920724"><ele>505.0</ele><time>2026-04-11T16:57:22Z</time></trkpt><trkpt lat="44.28780059014317" lon="11.422050103941915"><ele>508.25</ele><time>2026-04-11T16:57:23Z</time></trkpt><trkpt lat="44.28775300511534" lon="11.422208557171059"><ele>511.5</ele><time>2026-04-11T16:57:24Z</time></trkpt><trkpt lat="44.28766147147303" lon="11.422324363893791"><ele>514.75</ele><time>2026-04-11T16:57:25Z</time></trkpt><trkpt lat="44.28757003780272" lon="11.42245252480594"><ele>518.0</ele><time>2026-04-11T16:57:26Z</time></trkpt><trkpt lat="44.28746456927543" lon="11.422546739736463"><ele>518.0</ele><time>2026-04-11T16:57:27Z</time></trkpt><trkpt lat="44.28735357058323" lon="11.422630994610754"><ele>518.0</ele><time>2026-04-11T16:57:28Z</time></trkpt><trkpt lat="44.28723532365027" lon="11.422721681655302"><ele>518.0</ele><time>2026-04-11T16:57:29Z</time></trkpt><trkpt lat="44.28712389117415" lon="11.422827895109023"><ele>518.0</ele><time>2026-04-11T16:57:30Z</time></trkpt><trkpt lat="44.287027367566864" lon="11.422903486448833"><ele>518.5</ele><time>2026-04-11T16:57:31Z</time></trkpt><trkpt lat="44.28694684121326" lon="11.42300788104164"><ele>519.0</ele><time>2026-04-11T16:57:32Z</time></trkpt><trkpt lat="44.286883488135615" lon="11.423153169699336"><ele>519.5</ele><time>2026-04-11T16:57:33Z</time></trkpt><trkpt lat="44.28683238682535" lon="11.423312833407632"><ele>520.0</ele><time>2026-04-11T16:57:34Z</time></trkpt><trkpt lat="44.286794338706144" lon="11.423486788642773"><ele>520.0</ele><time>2026-04-11T16:57:35Z</time></trkpt><trkpt lat="44.286758684200144" lon="11.423660718202536"><ele>520.0</ele><time>2026-04-11T16:57:36Z</time></trkpt><trkpt lat="44.28670884288954" lon="11.423819466294175"><ele>520.0</ele><time>2026-04-11T16:57:37Z</time></trkpt><trkpt lat="44.28664150200437" lon="11.423917863880245"><ele>520.0</ele><time>2026-04-11T16:57:38Z</time></trkpt><trkpt lat="44.28656028409486" lon="11.423995180055025"><ele>520.0</ele><time>2026-04-11T16:57:39Z</time></trkpt><trkpt lat="44.28648078464683" lon="11.424069942122328"><ele>521.8</ele><time>2026-04-11T16:57:40Z</time></trkpt><trkpt lat="44.28640378013275" lon="11.424150039853753"><ele>523.6</ele><time>2026-04-11T16:57:41Z</time></trkpt><trkpt lat="44.286311052823166" lon="11.424234694775823"><ele>525.4</ele><time>2026-04-11T16:57:42Z</time></trkpt><trkpt lat="44.286216620637575" lon="11.424291984167672"><ele>527.2</ele><time>2026-04-11T16:57:43Z</time></trkpt><trkpt lat="44.28611462016262" lon="11.424346225821468"><ele>529.0</ele><time>2026-04-11T16:57:44Z</time></trkpt><trkpt lat="44.28603007739489" lon="11.424413514743032"><ele>529.0</ele><time>2026-04-11T16:57:45Z</time></trkpt><trkpt lat="44.2859599127772" lon="11.424471224491603"><ele>529.0</ele><time>2026-04-11T16:57:46Z</time></trkpt><trkpt lat="44.285876837259515" lon="11.42450568107918"><ele>529.0</ele><time>2026-04-11T16:57:47Z</time></trkpt><trkpt lat="44.28577515011572" lon="11.424481117069593"><ele>529.0</ele><time>2026-04-11T16:57:48Z</time></trkpt><trkpt lat="44.28565443869584" lon="11.424463953732477"><ele>529.0</ele><time>2026-04-11T16:57:49Z</time></trkpt><trkpt lat="44.28551517009527" lon="11.42445843730339"><ele>528.5</ele><time>2026-04-11T16:57:50Z</time></trkpt><trkpt lat="44.28538653808536" lon="11.424432306323514"><ele>528.0</ele><time>2026-04-11T16:57:51Z</time></trkpt><trkpt lat="44.28526054747545" lon="11.424428908950569"><ele>527.5</ele><time>2026-04-11T16:57:52Z</time></trkpt><trkpt lat="44.28512222617224" lon="11.424425751160605"><ele>527.0</ele><time>2026-04-11T16:57:53Z</time></trkpt><trkpt lat="44.28496948424641" lon="11.424425860559044"><ele>527.0</ele><time>2026-04-11T16:57:54Z</time></trkpt><trkpt lat="44.28481019564825" lon="11.424443124553616"><ele>527.0</ele><time>2026-04-11T16:57:55Z</time></trkpt><trkpt lat="44.28466303362609" lon="11.424465553331682"><ele>527.0</ele><time>2026-04-11T16:57:56Z</time></trkpt><trkpt lat="44.284527372467025" lon="11.424487412574035"><ele>527.0</ele><time>2026-04-11T16:57:57Z</time></trkpt><trkpt lat="44.284384012084374" lon="11.424514479274727"><ele>527.0</ele><time>2026-04-11T16:57:58Z</time></trkpt><trkpt lat="44.284242893550335" lon="11.424545117622142"><ele>527.0</ele><time>2026-04-11T16:57:59Z</time></trkpt><trkpt lat="44.284113747653535" lon="11.424606907799685"><ele>527.0</ele><time>2026-04-11T16:58:00Z</time></trkpt><trkpt lat="44.28398085325599" lon="11.42465849611628"><ele>527.0</ele><time>2026-04-11T16:58:01Z</time></trkpt><trkpt lat="44.283837125054106" lon="11.424687954472274"><ele>531.5</ele><time>2026-04-11T16:58:02Z</time></trkpt><trkpt lat="44.2836933126828" lon="11.424718227012201"><ele>536.0</ele><time>2026-04-11T16:58:03Z</time></trkpt><trkpt lat="44.28355432684612" lon="11.424747891139472"><ele>540.5</ele><time>2026-04-11T16:58:04Z</time></trkpt><trkpt lat="44.283418413039605" lon="11.424772903965913"><ele>545.0</ele><time>2026-04-11T16:58:05Z</time></trkpt><trkpt lat="44.283288939238" lon="11.424751008848075"><ele>545.0</ele><time>2026-04-11T16:58:06Z</time></trkpt><trkpt lat="44.28315151517489" lon="11.424770022263294"><ele>545.0</ele><time>2026-04-11T16:58:07Z</time></trkpt><trkpt lat="44.28302620990507" lon="11.424762935213998"><ele>545.0</ele><time>2026-04-11T16:58:08Z</time></trkpt><trkpt lat="44.282910039198065" lon="11.424775116331263"><ele>545.0</ele><time>2026-04-11T16:58:09Z</time></trkpt><trkpt lat="44.282803441114616" lon="11.424784650897811"><ele>544.2</ele><time>2026-04-11T16:58:10Z</time></trkpt><trkpt lat="44.28270784227092" lon="11.424762910888731"><ele>543.4</ele><time>2026-04-11T16:58:11Z</time></trkpt><trkpt lat="44.28263156081962" lon="11.424646230582528"><ele>542.6</ele><time>2026-04-11T16:58:12Z</time></trkpt><trkpt lat="44.28253662525194" lon="11.424573305682674"><ele>541.8</ele><time>2026-04-11T16:58:12.999Z</time></trkpt><trkpt lat="44.282447691493076" lon="11.424505656310956"><ele>541.0</ele><time>2026-04-11T16:58:13.999Z</time></trkpt><trkpt lat="44.282329026175226" lon="11.424486730052829"><ele>544.25</ele><time>2026-04-11T16:58:14.999Z</time></trkpt><trkpt lat="44.28220259059702" lon="11.424515614844786"><ele>547.5</ele><time>2026-04-11T16:58:15.999Z</time></trkpt><trkpt lat="44.282074015282966" lon="11.424528459309117"><ele>550.75</ele><time>2026-04-11T16:58:16.999Z</time></trkpt><trkpt lat="44.28196813526295" lon="11.424459460744155"><ele>554.0</ele><time>2026-04-11T16:58:17.999Z</time></trkpt><trkpt lat="44.28188150411446" lon="11.424389537076074"><ele>554.0</ele><time>2026-04-11T16:58:18.999Z</time></trkpt><trkpt lat="44.28181117749014" lon="11.424294966900417"><ele>554.0</ele><time>2026-04-11T16:58:19.999Z</time></trkpt><trkpt lat="44.28173951337028" lon="11.424191862121123"><ele>554.0</ele><time>2026-04-11T16:58:20.999Z</time></trkpt><trkpt lat="44.281643513940494" lon="11.424107010603374"><ele>554.0</ele><time>2026-04-11T16:58:21.999Z</time></trkpt><trkpt lat="44.2815419913051" lon="11.424005198589835"><ele>554.0</ele><time>2026-04-11T16:58:22.999Z</time></trkpt><trkpt lat="44.28143868136431" lon="11.423925210329523"><ele>555.4</ele><time>2026-04-11T16:58:23.999Z</time></trkpt><trkpt lat="44.28134836212103" lon="11.423862915449778"><ele>556.8</ele><time>2026-04-11T16:58:24.999Z</time></trkpt><trkpt lat="44.28126695529536" lon="11.423823193706484"><ele>558.2</ele><time>2026-04-11T16:58:25.999Z</time></trkpt><trkpt lat="44.28117488546992" lon="11.423820480123403"><ele>559.6</ele><time>2026-04-11T16:58:26.999Z</time></trkpt><trkpt lat="44.281065682864586" lon="11.423869110558257"><ele>561.0</ele><time>2026-04-11T16:58:27.999Z</time></trkpt><trkpt lat="44.2809506475073" lon="11.423952109027594"><ele>561.0</ele><time>2026-04-11T16:58:28.999Z</time></trkpt><trkpt lat="44.28082643789665" lon="11.424033803373446"><ele>561.0</ele><time>2026-04-11T16:58:29.999Z</time></trkpt><trkpt lat="44.28068787076117" lon="11.424078972807557"><ele>561.0</ele><time>2026-04-11T16:58:30.999Z</time></trkpt><trkpt lat="44.280550430324055" lon="11.424099123584181"><ele>561.0</ele><time>2026-04-11T16:58:31.999Z</time></trkpt><trkpt lat="44.28041955036735" lon="11.424113484775544"><ele>561.25</ele><time>2026-04-11T16:58:32.999Z</time></trkpt><trkpt lat="44.280307747504494" lon="11.424173730111027"><ele>561.5</ele><time>2026-04-11T16:58:33.999Z</time></trkpt><trkpt lat="44.28021069647125" lon="11.424254857119703"><ele>561.75</ele><time>2026-04-11T16:58:34.999Z</time></trkpt><trkpt lat="44.28010185976697" lon="11.424303840816183"><ele>562.0</ele><time>2026-04-11T16:58:35.999Z</time></trkpt><trkpt lat="44.27998990481683" lon="11.424332571242232"><ele>562.0</ele><time>2026-04-11T16:58:36.999Z</time></trkpt><trkpt lat="44.2798804095019" lon="11.42434607103526"><ele>562.0</ele><time>2026-04-11T16:58:37.999Z</time></trkpt><trkpt lat="44.279786827833775" lon="11.42426891728675"><ele>562.0</ele><time>2026-04-11T16:58:38.999Z</time></trkpt><trkpt lat="44.279685257699235" lon="11.42418050446566"><ele>562.0</ele><time>2026-04-11T16:58:39.999Z</time></trkpt><trkpt lat="44.27957968064294" lon="11.424118268673183"><ele>563.25</ele><time>2026-04-11T16:58:40.999Z</time></trkpt><trkpt lat="44.279473098451554" lon="11.424064056463347"><ele>564.5</ele><time>2026-04-11T16:58:41.999Z</time></trkpt><trkpt lat="44.27934711099972" lon="11.424053421564441"><ele>565.75</ele><time>2026-04-11T16:58:42.999Z</time></trkpt><trkpt lat="44.279209740382235" lon="11.424064837296866"><ele>567.0</ele><time>2026-04-11T16:58:43.999Z</time></trkpt><trkpt lat="44.2790727931895" lon="11.424065420255912"><ele>567.0</ele><time>2026-04-11T16:58:44.999Z</time></trkpt><trkpt lat="44.27894586585934" lon="11.423999045984935"><ele>567.0</ele><time>2026-04-11T16:58:45.999Z</time></trkpt><trkpt lat="44.27883452004987" lon="11.423926445351935"><ele>567.0</ele><time>2026-04-11T16:58:46.999Z</time></trkpt><trkpt lat="44.278738651940465" lon="11.423852396178034"><ele>567.0</ele><time>2026-04-11T16:58:47.999Z</time></trkpt><trkpt lat="44.2786854617179" lon="11.423737106196475"><ele>567.75</ele><time>2026-04-11T16:58:48.999Z</time></trkpt><trkpt lat="44.278624826945055" lon="11.423629982036454"><ele>568.5</ele><time>2026-04-11T16:58:49.999Z</time></trkpt><trkpt lat="44.27854798954543" lon="11.423522847100735"><ele>569.25</ele><time>2026-04-11T16:58:50.999Z</time></trkpt><trkpt lat="44.278444231881835" lon="11.423423715656243"><ele>570.0</ele><time>2026-04-11T16:58:51.999Z</time></trkpt><trkpt lat="44.278321589931124" lon="11.423346652159747"><ele>570.0</ele><time>2026-04-11T16:58:52.999Z</time></trkpt><trkpt lat="44.27818690394198" lon="11.423291986754265"><ele>570.0</ele><time>2026-04-11T16:58:53.999Z</time></trkpt><trkpt lat="44.278049617790465" lon="11.423261928100338"><ele>570.0</ele><time>2026-04-11T16:58:54.999Z</time></trkpt><trkpt lat="44.277911321739374" lon="11.423237969695926"><ele>570.0</ele><time>2026-04-11T16:58:55.999Z</time></trkpt><trkpt lat="44.27779103597643" lon="11.423174310126132"><ele>570.4</ele><time>2026-04-11T16:58:56.999Z</time></trkpt><trkpt lat="44.27769712866633" lon="11.423108090034411"><ele>570.8</ele><time>2026-04-11T16:58:57.999Z</time></trkpt><trkpt lat="44.27760574829018" lon="11.42304588829697"><ele>571.2</ele><time>2026-04-11T16:58:58.999Z</time></trkpt><trkpt lat="44.27749136467883" lon="11.423021245505801"><ele>571.6</ele><time>2026-04-11T16:58:59.999Z</time></trkpt><trkpt lat="44.277366677396934" lon="11.42299685808571"><ele>572.0</ele><time>2026-04-11T16:59:00.999Z</time></trkpt><trkpt lat="44.277225526835856" lon="11.422993763878189"><ele>572.0</ele><time>2026-04-11T16:59:01.999Z</time></trkpt><trkpt lat="44.27710123610599" lon="11.422989394147013"><ele>572.0</ele><time>2026-04-11T16:59:02.999Z</time></trkpt><trkpt lat="44.27699647015678" lon="11.422982552273288"><ele>572.0</ele><time>2026-04-11T16:59:03.999Z</time></trkpt><trkpt lat="44.27688228135779" lon="11.422967789328807"><ele>572.0</ele><time>2026-04-11T16:59:04.999Z</time></trkpt><trkpt lat="44.27677217665905" lon="11.422951304681883"><ele>571.75</ele><time>2026-04-11T16:59:05.999Z</time></trkpt><trkpt lat="44.27665260143801" lon="11.422911342197514"><ele>571.5</ele><time>2026-04-11T16:59:06.999Z</time></trkpt><trkpt lat="44.27653917758203" lon="11.42280010131811"><ele>571.25</ele><time>2026-04-11T16:59:07.999Z</time></trkpt><trkpt lat="44.27641342245791" lon="11.422689194783265"><ele>571.0</ele><time>2026-04-11T16:59:08.999Z</time></trkpt><trkpt lat="44.276283335564685" lon="11.422583238845753"><ele>571.75</ele><time>2026-04-11T16:59:09.999Z</time></trkpt><trkpt lat="44.276158264384335" lon="11.422490527988566"><ele>572.5</ele><time>2026-04-11T16:59:10.999Z</time></trkpt><trkpt lat="44.27603687765945" lon="11.422397838680507"><ele>573.25</ele><time>2026-04-11T16:59:11.999Z</time></trkpt><trkpt lat="44.2759259740996" lon="11.422329926636094"><ele>574.0</ele><time>2026-04-11T16:59:12.999Z</time></trkpt><trkpt lat="44.27583460387196" lon="11.422238616574129"><ele>575.25</ele><time>2026-04-11T16:59:13.999Z</time></trkpt><trkpt lat="44.27576610778671" lon="11.422110597021712"><ele>576.5</ele><time>2026-04-11T16:59:14.999Z</time></trkpt><trkpt lat="44.27570389652718" lon="11.421976896776165"><ele>577.75</ele><time>2026-04-11T16:59:15.999Z</time></trkpt><trkpt lat="44.2756193622158" lon="11.421859412665773"><ele>579.0</ele><time>2026-04-11T16:59:16.999Z</time></trkpt><trkpt lat="44.275547437598085" lon="11.42175282929382"><ele>580.5</ele><time>2026-04-11T16:59:17.999Z</time></trkpt><trkpt lat="44.27545667246643" lon="11.421695685594612"><ele>582.0</ele><time>2026-04-11T16:59:18.999Z</time></trkpt><trkpt lat="44.27534813211698" lon="11.421676172840094"><ele>583.5</ele><time>2026-04-11T16:59:19.999Z</time></trkpt><trkpt lat="44.27521964931741" lon="11.421685054765922"><ele>585.0</ele><time>2026-04-11T16:59:20.999Z</time></trkpt><trkpt lat="44.27507835703805" lon="11.42171813266989"><ele>585.0</ele><time>2026-04-11T16:59:22Z</time></trkpt><trkpt lat="44.2749398780981" lon="11.421764973161835"><ele>585.0</ele><time>2026-04-11T16:59:23Z</time></trkpt><trkpt lat="44.274806668086434" lon="11.421792043253292"><ele>585.0</ele><time>2026-04-11T16:59:24Z</time></trkpt><trkpt lat="44.27468349848949" lon="11.421805003095374"><ele>585.0</ele><time>2026-04-11T16:59:25Z</time></trkpt><trkpt lat="44.27457203018766" lon="11.42183255694006"><ele>585.25</ele><time>2026-04-11T16:59:26Z</time></trkpt><trkpt lat="44.274458620844186" lon="11.421903349370035"><ele>585.5</ele><time>2026-04-11T16:59:27Z</time></trkpt><trkpt lat="44.274354644910275" lon="11.422004113925677"><ele>585.75</ele><time>2026-04-11T16:59:28Z</time></trkpt><trkpt lat="44.2742397344901" lon="11.422084906768834"><ele>586.0</ele><time>2026-04-11T16:59:29Z</time></trkpt><trkpt lat="44.27411876715029" lon="11.422130176847299"><ele>585.25</ele><time>2026-04-11T16:59:30Z</time></trkpt><trkpt lat="44.274004466695004" lon="11.422180842412299"><ele>584.5</ele><time>2026-04-11T16:59:31Z</time></trkpt><trkpt lat="44.273906089309975" lon="11.422212835561645"><ele>583.75</ele><time>2026-04-11T16:59:32Z</time></trkpt><trkpt lat="44.273803466254286" lon="11.422155847138926"><ele>583.0</ele><time>2026-04-11T16:59:33Z</time></trkpt><trkpt lat="44.27369121152283" lon="11.422091722455319"><ele>583.0</ele><time>2026-04-11T16:59:34Z</time></trkpt><trkpt lat="44.27356348310736" lon="11.422037716720563"><ele>583.0</ele><time>2026-04-11T16:59:35Z</time></trkpt><trkpt lat="44.27343450094482" lon="11.422005473745378"><ele>583.0</ele><time>2026-04-11T16:59:36Z</time></trkpt><trkpt lat="44.273292250138184" lon="11.422015714129426"><ele>583.0</ele><time>2026-04-11T16:59:37Z</time></trkpt><trkpt lat="44.27315216419128" lon="11.422021766280322"><ele>583.0</ele><time>2026-04-11T16:59:38Z</time></trkpt><trkpt lat="44.27301041700483" lon="11.422027566879388"><ele>583.0</ele><time>2026-04-11T16:59:39Z</time></trkpt><trkpt lat="44.27287663861728" lon="11.422024901718288"><ele>583.0</ele><time>2026-04-11T16:59:40Z</time></trkpt><trkpt lat="44.272733476088334" lon="11.422031468365569"><ele>583.0</ele><time>2026-04-11T16:59:41Z</time></trkpt><trkpt lat="44.27258543790855" lon="11.422033584549602"><ele>583.0</ele><time>2026-04-11T16:59:42Z</time></trkpt><trkpt lat="44.27244439477074" lon="11.422040181588429"><ele>583.0</ele><time>2026-04-11T16:59:43Z</time></trkpt><trkpt lat="44.27229476218645" lon="11.422044575290183"><ele>583.0</ele><time>2026-04-11T16:59:44Z</time></trkpt><trkpt lat="44.27214807655248" lon="11.422060244564188"><ele>583.0</ele><time>2026-04-11T16:59:45Z</time></trkpt><trkpt lat="44.271999322132594" lon="11.422089059794786"><ele>583.5</ele><time>2026-04-11T16:59:46Z</time></trkpt><trkpt lat="44.27186516227619" lon="11.422131591296846"><ele>584.0</ele><time>2026-04-11T16:59:47Z</time></trkpt><trkpt lat="44.27172924035899" lon="11.422176361583757"><ele>584.5</ele><time>2026-04-11T16:59:48Z</time></trkpt><trkpt lat="44.27159755504314" lon="11.422207037706029"><ele>585.0</ele><time>2026-04-11T16:59:49Z</time></trkpt><trkpt lat="44.27146234502064" lon="11.422197514112113"><ele>586.25</ele><time>2026-04-11T16:59:50Z</time></trkpt><trkpt lat="44.271326309018576" lon="11.4221976349262"><ele>587.5</ele><time>2026-04-11T16:59:51Z</time></trkpt><trkpt lat="44.27119066356438" lon="11.422193302510202"><ele>588.75</ele><time>2026-04-11T16:59:52Z</time></trkpt><trkpt lat="44.271055848819614" lon="11.422189124282745"><ele>590.0</ele><time>2026-04-11T16:59:53Z</time></trkpt><trkpt lat="44.27092296601711" lon="11.422191138156151"><ele>590.0</ele><time>2026-04-11T16:59:54Z</time></trkpt><trkpt lat="44.27079539745614" lon="11.422207036222494"><ele>590.0</ele><time>2026-04-11T16:59:55Z</time></trkpt><trkpt lat="44.270677019958676" lon="11.422208444918137"><ele>590.0</ele><time>2026-04-11T16:59:56Z</time></trkpt><trkpt lat="44.27055984329198" lon="11.42221360302853"><ele>590.0</ele><time>2026-04-11T16:59:57Z</time></trkpt><trkpt lat="44.270439047156934" lon="11.42222546388243"><ele>591.4</ele><time>2026-04-11T16:59:58Z</time></trkpt><trkpt lat="44.27031761949161" lon="11.422253436447972"><ele>592.8</ele><time>2026-04-11T16:59:59Z</time></trkpt><trkpt lat="44.270215545363875" lon="11.422322135443483"><ele>594.2</ele><time>2026-04-11T17:00:00Z</time></trkpt><trkpt lat="44.270125855823856" lon="11.422393641581898"><ele>595.6</ele><time>2026-04-11T17:00:01Z</time></trkpt><trkpt lat="44.270046086054506" lon="11.422455252747662"><ele>597.0</ele><time>2026-04-11T17:00:02Z</time></trkpt><trkpt lat="44.269956217718224" lon="11.4225091547238"><ele>597.0</ele><time>2026-04-11T17:00:03Z</time></trkpt><trkpt lat="44.26987323407148" lon="11.422542445298575"><ele>597.0</ele><time>2026-04-11T17:00:04Z</time></trkpt><trkpt lat="44.269802748719286" lon="11.422578043882588"><ele>597.0</ele><time>2026-04-11T17:00:05Z</time></trkpt><trkpt lat="44.26974321197951" lon="11.422650145048829"><ele>597.0</ele><time>2026-04-11T17:00:06Z</time></trkpt><trkpt lat="44.26970931158497" lon="11.422727757780265"><ele>597.0</ele><time>2026-04-11T17:00:07Z</time></trkpt><trkpt lat="44.26968438175581" lon="11.42280899284418"><ele>597.0</ele><time>2026-04-11T17:00:08Z</time></trkpt><trkpt lat="44.26964175655263" lon="11.422928354069498"><ele>595.1666666666666</ele><time>2026-04-11T17:00:10Z</time></trkpt><trkpt lat="44.2695946135007" lon="11.42300742007856"><ele>593.3333333333334</ele><time>2026-04-11T17:00:12Z</time></trkpt><trkpt lat="44.269508069140805" lon="11.423064065998922"><ele>591.5</ele><time>2026-04-11T17:00:14Z</time></trkpt><trkpt lat="44.26945341628722" lon="11.423121097033746"><ele>589.6666666666667</ele><time>2026-04-11T17:00:15Z</time></trkpt><trkpt lat="44.26943479367573" lon="11.423250163043313"><ele>587.8333333333334</ele><time>2026-04-11T17:00:16Z</time></trkpt><trkpt lat="44.26933943039517" lon="11.423258345917366"><ele>586.0</ele><time>2026-04-11T17:00:16.999Z</time></trkpt><trkpt lat="44.269250749706956" lon="11.423250629406287"><ele>586.0</ele><time>2026-04-11T17:00:17.999Z</time></trkpt><trkpt lat="44.26917289880753" lon="11.42328752961102"><ele>586.0</ele><time>2026-04-11T17:00:18.999Z</time></trkpt><trkpt lat="44.26909344754919" lon="11.423328356305042"><ele>586.0</ele><time>2026-04-11T17:00:19.999Z</time></trkpt><trkpt lat="44.269022139703324" lon="11.42341164513651"><ele>586.0</ele><time>2026-04-11T17:00:20.999Z</time></trkpt><trkpt lat="44.26895968629957" lon="11.423540021289922"><ele>586.0</ele><time>2026-04-11T17:00:21.999Z</time></trkpt><trkpt lat="44.26890577476257" lon="11.423701136889234"><ele>585.5</ele><time>2026-04-11T17:00:22.999Z</time></trkpt><trkpt lat="44.268849035588815" lon="11.42385864390805"><ele>585.0</ele><time>2026-04-11T17:00:23.999Z</time></trkpt><trkpt lat="44.2687903101776" lon="11.424008194781159"><ele>584.5</ele><time>2026-04-11T17:00:24.999Z</time></trkpt><trkpt lat="44.26875552641492" lon="11.424167439079064"><ele>584.0</ele><time>2026-04-11T17:00:25.999Z</time></trkpt><trkpt lat="44.268728845051115" lon="11.424316376696568"><ele>584.0</ele><time>2026-04-11T17:00:26.999Z</time></trkpt><trkpt lat="44.268711661158505" lon="11.424477794542975"><ele>584.0</ele><time>2026-04-11T17:00:27.999Z</time></trkpt><trkpt lat="44.26869504589541" lon="11.42464868551913"><ele>584.0</ele><time>2026-04-11T17:00:28.999Z</time></trkpt><trkpt lat="44.26868063103235" lon="11.424798950288228"><ele>584.0</ele><time>2026-04-11T17:00:29.999Z</time></trkpt><trkpt lat="44.2686661701615" lon="11.424948676594592"><ele>583.2</ele><time>2026-04-11T17:00:30.999Z</time></trkpt><trkpt lat="44.26867165288433" lon="11.425085657398714"><ele>582.4</ele><time>2026-04-11T17:00:31.999Z</time></trkpt><trkpt lat="44.26869025510541" lon="11.425216704409658"><ele>581.6</ele><time>2026-04-11T17:00:32.999Z</time></trkpt><trkpt lat="44.26872897467915" lon="11.425338953208723"><ele>580.8</ele><time>2026-04-11T17:00:33.999Z</time></trkpt><trkpt lat="44.26879060215174" lon="11.425442020353561"><ele>580.0</ele><time>2026-04-11T17:00:34.999Z</time></trkpt><trkpt lat="44.26887580257649" lon="11.425514467615313"><ele>577.2</ele><time>2026-04-11T17:00:35.999Z</time></trkpt><trkpt lat="44.26898209621973" lon="11.425558745189711"><ele>574.4</ele><time>2026-04-11T17:00:36.999Z</time></trkpt><trkpt lat="44.26909447149341" lon="11.425577884853487"><ele>571.6</ele><time>2026-04-11T17:00:37.999Z</time></trkpt><trkpt lat="44.26919850992846" lon="11.425606920032788"><ele>568.8</ele><time>2026-04-11T17:00:38.999Z</time></trkpt><trkpt lat="44.26928835546269" lon="11.425674645670734"><ele>566.0</ele><time>2026-04-11T17:00:39.999Z</time></trkpt><trkpt lat="44.26935009824522" lon="11.425830609326464"><ele>566.0</ele><time>2026-04-11T17:00:40.999Z</time></trkpt><trkpt lat="44.26943450404011" lon="11.425959750673005"><ele>566.0</ele><time>2026-04-11T17:00:41.999Z</time></trkpt><trkpt lat="44.269504841842185" lon="11.426108532056768"><ele>566.0</ele><time>2026-04-11T17:00:42.999Z</time></trkpt><trkpt lat="44.26957611772819" lon="11.426225346219779"><ele>566.0</ele><time>2026-04-11T17:00:43.999Z</time></trkpt><trkpt lat="44.269641230541296" lon="11.426324255893286"><ele>566.0</ele><time>2026-04-11T17:00:44.999Z</time></trkpt><trkpt lat="44.26971015820192" lon="11.426414347396094"><ele>566.0</ele><time>2026-04-11T17:00:45.999Z</time></trkpt><trkpt lat="44.2697844926624" lon="11.426492272702262"><ele>566.0</ele><time>2026-04-11T17:00:46.999Z</time></trkpt><trkpt lat="44.2697965493838" lon="11.427369955937776"><ele>561.4</ele><time>2026-04-11T17:00:55.413Z</time></trkpt><trkpt lat="44.26985853355775" lon="11.427553184341106"><ele>556.8</ele><time>2026-04-11T17:00:56.999Z</time></trkpt><trkpt lat="44.269901909906665" lon="11.427667848776492"><ele>552.1999999999999</ele><time>2026-04-11T17:00:57.999Z</time></trkpt><trkpt lat="44.26995425489197" lon="11.427769269804868"><ele>547.6</ele><time>2026-04-11T17:00:58.999Z</time></trkpt><trkpt lat="44.270028267096976" lon="11.427854932855281"><ele>543.0</ele><time>2026-04-11T17:00:59.999Z</time></trkpt><trkpt lat="44.27011874639577" lon="11.427935568280839"><ele>543.0</ele><time>2026-04-11T17:01:01Z</time></trkpt><trkpt lat="44.2702261773999" lon="11.427955775723904"><ele>543.0</ele><time>2026-04-11T17:01:02Z</time></trkpt><trkpt lat="44.27033114716808" lon="11.427951743836912"><ele>543.0</ele><time>2026-04-11T17:01:03Z</time></trkpt><trkpt lat="44.27042389292667" lon="11.427990803505692"><ele>543.0</ele><time>2026-04-11T17:01:04Z</time></trkpt><trkpt lat="44.27049291789929" lon="11.428089961420211"><ele>543.0</ele><time>2026-04-11T17:01:05Z</time></trkpt><trkpt lat="44.27053935364286" lon="11.428178893412861"><ele>543.1666666666666</ele><time>2026-04-11T17:01:06Z</time></trkpt><trkpt lat="44.27056265533368" lon="11.42827603967062"><ele>543.3333333333334</ele><time>2026-04-11T17:01:07Z</time></trkpt><trkpt lat="44.27057346488152" lon="11.428381931605095"><ele>543.5</ele><time>2026-04-11T17:01:08Z</time></trkpt><trkpt lat="44.270536333474126" lon="11.42850369667999"><ele>543.6666666666667</ele><time>2026-04-11T17:01:09Z</time></trkpt><trkpt lat="44.27048213700943" lon="11.428594393097004"><ele>543.8333333333334</ele><time>2026-04-11T17:01:10Z</time></trkpt><trkpt lat="44.27047099337578" lon="11.428692847226886"><ele>544.0</ele><time>2026-04-11T17:01:11Z</time></trkpt><trkpt lat="44.27046626061674" lon="11.428809425111526"><ele>542.0</ele><time>2026-04-11T17:01:12Z</time></trkpt><trkpt lat="44.270498367183066" lon="11.428924724525308"><ele>540.0</ele><time>2026-04-11T17:01:13Z</time></trkpt><trkpt lat="44.27059588946495" lon="11.429027235128832"><ele>538.0</ele><time>2026-04-11T17:01:14Z</time></trkpt><trkpt lat="44.27064874992358" lon="11.42912655014864"><ele>536.0</ele><time>2026-04-11T17:01:15Z</time></trkpt><trkpt lat="44.27068858107486" lon="11.429231986707347"><ele>534.0</ele><time>2026-04-11T17:01:16Z</time></trkpt><trkpt lat="44.27069181677791" lon="11.429383521078336"><ele>531.2</ele><time>2026-04-11T17:01:17Z</time></trkpt><trkpt lat="44.27066726529301" lon="11.429531826554513"><ele>528.4</ele><time>2026-04-11T17:01:18Z</time></trkpt><trkpt lat="44.270681728826645" lon="11.429648186415653"><ele>525.6</ele><time>2026-04-11T17:01:19Z</time></trkpt><trkpt lat="44.2707426096688" lon="11.429779376036347"><ele>522.8</ele><time>2026-04-11T17:01:20Z</time></trkpt><trkpt lat="44.27081239913376" lon="11.429903690839325"><ele>520.0</ele><time>2026-04-11T17:01:21Z</time></trkpt><trkpt lat="44.270921257440506" lon="11.430043742748982"><ele>518.0</ele><time>2026-04-11T17:01:22Z</time></trkpt><trkpt lat="44.27101332125862" lon="11.430190822016074"><ele>516.0</ele><time>2026-04-11T17:01:23Z</time></trkpt><trkpt lat="44.27109664085736" lon="11.430347131500556"><ele>514.0</ele><time>2026-04-11T17:01:24Z</time></trkpt><trkpt lat="44.27118063433198" lon="11.43049784387079"><ele>512.0</ele><time>2026-04-11T17:01:25Z</time></trkpt><trkpt lat="44.271264307616484" lon="11.430648279250603"><ele>509.0</ele><time>2026-04-11T17:01:26Z</time></trkpt><trkpt lat="44.27134956116633" lon="11.430791211315404"><ele>506.0</ele><time>2026-04-11T17:01:27Z</time></trkpt><trkpt lat="44.27142657962234" lon="11.430914856537004"><ele>503.0</ele><time>2026-04-11T17:01:28Z</time></trkpt><trkpt lat="44.27148939028136" lon="11.431054444321651"><ele>500.0</ele><time>2026-04-11T17:01:29Z</time></trkpt><trkpt lat="44.27155622948104" lon="11.43116573250133"><ele>499.8</ele><time>2026-04-11T17:01:30Z</time></trkpt><trkpt lat="44.2716223199249" lon="11.431264915845171"><ele>499.6</ele><time>2026-04-11T17:01:31Z</time></trkpt><trkpt lat="44.27169731485505" lon="11.431341611668685"><ele>499.4</ele><time>2026-04-11T17:01:32Z</time></trkpt><trkpt lat="44.271796578175106" lon="11.4314171201097"><ele>499.2</ele><time>2026-04-11T17:01:34Z</time></trkpt><trkpt lat="44.271839158522056" lon="11.431526626540377"><ele>499.0</ele><time>2026-04-11T17:01:36Z</time></trkpt><trkpt lat="44.27179843744548" lon="11.431611589850885"><ele>496.25</ele><time>2026-04-11T17:01:37Z</time></trkpt><trkpt lat="44.271722463102265" lon="11.431676183067388"><ele>493.5</ele><time>2026-04-11T17:01:38Z</time></trkpt><trkpt lat="44.27160535922941" lon="11.431686999741839"><ele>490.75</ele><time>2026-04-11T17:01:39Z</time></trkpt><trkpt lat="44.27148556871687" lon="11.431737377164511"><ele>488.0</ele><time>2026-04-11T17:01:40Z</time></trkpt><trkpt lat="44.27136293257357" lon="11.431748754718269"><ele>486.75</ele><time>2026-04-11T17:01:41Z</time></trkpt><trkpt lat="44.271249118806075" lon="11.431750982595604"><ele>485.5</ele><time>2026-04-11T17:01:42Z</time></trkpt><trkpt lat="44.27113460895848" lon="11.431743201529924"><ele>484.25</ele><time>2026-04-11T17:01:43Z</time></trkpt><trkpt lat="44.27102449579874" lon="11.431750033515733"><ele>483.0</ele><time>2026-04-11T17:01:44Z</time></trkpt><trkpt lat="44.2709158725518" lon="11.431798909418367"><ele>483.0</ele><time>2026-04-11T17:01:45Z</time></trkpt><trkpt lat="44.27081917281138" lon="11.431873881459051"><ele>483.0</ele><time>2026-04-11T17:01:46Z</time></trkpt><trkpt lat="44.270726614818706" lon="11.431980174910528"><ele>483.0</ele><time>2026-04-11T17:01:47Z</time></trkpt><trkpt lat="44.2706452293533" lon="11.432133104482874"><ele>483.0</ele><time>2026-04-11T17:01:47.999Z</time></trkpt><trkpt lat="44.27055257020572" lon="11.432290162080534"><ele>480.5</ele><time>2026-04-11T17:01:48.999Z</time></trkpt><trkpt lat="44.270454922828726" lon="11.432426365811233"><ele>478.0</ele><time>2026-04-11T17:01:49.999Z</time></trkpt><trkpt lat="44.270354205469175" lon="11.432554882023899"><ele>475.5</ele><time>2026-04-11T17:01:50.999Z</time></trkpt><trkpt lat="44.270247684536834" lon="11.43266350794571"><ele>473.0</ele><time>2026-04-11T17:01:51.999Z</time></trkpt><trkpt lat="44.27014320914332" lon="11.432760432302903"><ele>473.0</ele><time>2026-04-11T17:01:52.999Z</time></trkpt><trkpt lat="44.27004746231219" lon="11.432866653037088"><ele>473.0</ele><time>2026-04-11T17:01:53.999Z</time></trkpt><trkpt lat="44.26997238403442" lon="11.432993843521139"><ele>473.0</ele><time>2026-04-11T17:01:54.999Z</time></trkpt><trkpt lat="44.26991374146109" lon="11.433130350265735"><ele>473.0</ele><time>2026-04-11T17:01:55.999Z</time></trkpt><trkpt lat="44.26987586719165" lon="11.433264463788337"><ele>470.79999999999995</ele><time>2026-04-11T17:01:56.999Z</time></trkpt><trkpt lat="44.269837841921444" lon="11.43337316029658"><ele>468.59999999999997</ele><time>2026-04-11T17:01:57.999Z</time></trkpt><trkpt lat="44.26978238073035" lon="11.433458535622623"><ele>466.40000000000003</ele><time>2026-04-11T17:01:58.999Z</time></trkpt><trkpt lat="44.2696814956503" lon="11.433511468673924"><ele>464.20000000000005</ele><time>2026-04-11T17:01:59.999Z</time></trkpt><trkpt lat="44.26955810897931" lon="11.433517467601181"><ele>462.0</ele><time>2026-04-11T17:02:00.999Z</time></trkpt><trkpt lat="44.26943924415434" lon="11.433523026008645"><ele>461.75</ele><time>2026-04-11T17:02:01.999Z</time></trkpt><trkpt lat="44.26932288042897" lon="11.43356354902934"><ele>461.5</ele><time>2026-04-11T17:02:02.999Z</time></trkpt><trkpt lat="44.26920438522629" lon="11.433627129626535"><ele>461.25</ele><time>2026-04-11T17:02:03.999Z</time></trkpt><trkpt lat="44.26909134607288" lon="11.433688633440205"><ele>461.0</ele><time>2026-04-11T17:02:04.999Z</time></trkpt><trkpt lat="44.26898937587883" lon="11.433748333529138"><ele>461.6</ele><time>2026-04-11T17:02:05.999Z</time></trkpt><trkpt lat="44.268893762300195" lon="11.433799612805911"><ele>462.20000000000005</ele><time>2026-04-11T17:02:06.999Z</time></trkpt><trkpt lat="44.268800910563776" lon="11.433844390104062"><ele>462.79999999999995</ele><time>2026-04-11T17:02:07.999Z</time></trkpt><trkpt lat="44.26871131549264" lon="11.433879081924896"><ele>463.4</ele><time>2026-04-11T17:02:08.999Z</time></trkpt><trkpt lat="44.26862174234595" lon="11.433911150946987"><ele>464.0</ele><time>2026-04-11T17:02:09.999Z</time></trkpt><trkpt lat="44.26853555021045" lon="11.433923609112854"><ele>461.4</ele><time>2026-04-11T17:02:10.999Z</time></trkpt><trkpt lat="44.268449275951276" lon="11.433947125781962"><ele>458.79999999999995</ele><time>2026-04-11T17:02:11.999Z</time></trkpt><trkpt lat="44.26837268625208" lon="11.433999460405603"><ele>456.20000000000005</ele><time>2026-04-11T17:02:12.999Z</time></trkpt><trkpt lat="44.26829058405182" lon="11.43411501322921"><ele>453.6</ele><time>2026-04-11T17:02:13.999Z</time></trkpt><trkpt lat="44.26822137258338" lon="11.434254032640156"><ele>451.0</ele><time>2026-04-11T17:02:14.999Z</time></trkpt><trkpt lat="44.268150158277194" lon="11.434372840291177"><ele>451.4</ele><time>2026-04-11T17:02:15.999Z</time></trkpt><trkpt lat="44.26808293899729" lon="11.434477363462813"><ele>451.8</ele><time>2026-04-11T17:02:16.999Z</time></trkpt><trkpt lat="44.268023350271726" lon="11.43457657684837"><ele>452.19999999999993</ele><time>2026-04-11T17:02:17.999Z</time></trkpt><trkpt lat="44.267954433784524" lon="11.434664681815615"><ele>452.59999999999997</ele><time>2026-04-11T17:02:18.999Z</time></trkpt><trkpt lat="44.26787275861456" lon="11.434747747735136"><ele>453.0</ele><time>2026-04-11T17:02:19.999Z</time></trkpt><trkpt lat="44.267770847909176" lon="11.434796338960831"><ele>450.8333333333333</ele><time>2026-04-11T17:02:20.999Z</time></trkpt><trkpt lat="44.26767979118173" lon="11.434849801872774"><ele>448.66666666666663</ele><time>2026-04-11T17:02:21.999Z</time></trkpt><trkpt lat="44.267585862082996" lon="11.434871480536252"><ele>446.5</ele><time>2026-04-11T17:02:22.999Z</time></trkpt><trkpt lat="44.267504357973834" lon="11.434891545640355"><ele>444.3333333333333</ele><time>2026-04-11T17:02:23.999Z</time></trkpt><trkpt lat="44.26742810261558" lon="11.434912927410224"><ele>442.16666666666663</ele><time>2026-04-11T17:02:24.999Z</time></trkpt><trkpt lat="44.26735702785239" lon="11.434941087285422"><ele>440.0</ele><time>2026-04-11T17:02:25.999Z</time></trkpt><trkpt lat="44.267294967919156" lon="11.434990957819425"><ele>439.8</ele><time>2026-04-11T17:02:26.999Z</time></trkpt><trkpt lat="44.2672530284296" lon="11.43507457679009"><ele>439.6</ele><time>2026-04-11T17:02:27.999Z</time></trkpt><trkpt lat="44.2672346944119" lon="11.435198662274354"><ele>439.4</ele><time>2026-04-11T17:02:28.999Z</time></trkpt><trkpt lat="44.26725473129346" lon="11.435335158341193"><ele>439.2</ele><time>2026-04-11T17:02:29.999Z</time></trkpt><trkpt lat="44.26729788634908" lon="11.435489693504406"><ele>439.0</ele><time>2026-04-11T17:02:30.999Z</time></trkpt><trkpt lat="44.267350118477765" lon="11.435644397715844"><ele>437.2</ele><time>2026-04-11T17:02:31.999Z</time></trkpt><trkpt lat="44.267403696275935" lon="11.435788163358657"><ele>435.4</ele><time>2026-04-11T17:02:32.999Z</time></trkpt><trkpt lat="44.26745060907853" lon="11.43592838457018"><ele>433.6</ele><time>2026-04-11T17:02:33.999Z</time></trkpt><trkpt lat="44.267499976422506" lon="11.436050325386798"><ele>431.8</ele><time>2026-04-11T17:02:34.999Z</time></trkpt><trkpt lat="44.26753986047509" lon="11.436159898374992"><ele>430.0</ele><time>2026-04-11T17:02:35.999Z</time></trkpt><trkpt lat="44.26757774201099" lon="11.436262429469013"><ele>429.6</ele><time>2026-04-11T17:02:36.999Z</time></trkpt><trkpt lat="44.26767781014725" lon="11.436328262017646"><ele>429.2</ele><time>2026-04-11T17:02:37.999Z</time></trkpt><trkpt lat="44.26778947460356" lon="11.436354029568214"><ele>428.79999999999995</ele><time>2026-04-11T17:02:38.999Z</time></trkpt><trkpt lat="44.26788165959726" lon="11.436379711587326"><ele>428.4</ele><time>2026-04-11T17:02:39.999Z</time></trkpt><trkpt lat="44.26795557613934" lon="11.436435146766426"><ele>428.0</ele><time>2026-04-11T17:02:40.999Z</time></trkpt><trkpt lat="44.268006681192894" lon="11.43653783132965"><ele>427.99999999999994</ele><time>2026-04-11T17:02:41.999Z</time></trkpt><trkpt lat="44.26802585700998" lon="11.436660538841965"><ele>428.0</ele><time>2026-04-11T17:02:42.999Z</time></trkpt><trkpt lat="44.26800072541669" lon="11.43679563825537"><ele>428.0</ele><time>2026-04-11T17:02:43.999Z</time></trkpt><trkpt lat="44.26795824701798" lon="11.436911859351326"><ele>428.0</ele><time>2026-04-11T17:02:44.999Z</time></trkpt><trkpt lat="44.26790863747331" lon="11.437006346852254"><ele>427.99999999999994</ele><time>2026-04-11T17:02:45.999Z</time></trkpt><trkpt lat="44.26789576206457" lon="11.437107308694099"><ele>428.0</ele><time>2026-04-11T17:02:46.999Z</time></trkpt><trkpt lat="44.26793551348422" lon="11.43724442395423"><ele>428.75</ele><time>2026-04-11T17:02:47.999Z</time></trkpt><trkpt lat="44.26799026716892" lon="11.437402815907914"><ele>429.5</ele><time>2026-04-11T17:02:48.999Z</time></trkpt><trkpt lat="44.26805063854032" lon="11.43755513398614"><ele>430.25</ele><time>2026-04-11T17:02:49.999Z</time></trkpt><trkpt lat="44.26811638199352" lon="11.437717160815875"><ele>431.0</ele><time>2026-04-11T17:02:50.999Z</time></trkpt><trkpt lat="44.26817601960699" lon="11.437896583575231"><ele>427.75</ele><time>2026-04-11T17:02:51.999Z</time></trkpt><trkpt lat="44.26822254187345" lon="11.438076486618648"><ele>424.5</ele><time>2026-04-11T17:02:52.999Z</time></trkpt><trkpt lat="44.26825269160118" lon="11.438249266889953"><ele>421.25</ele><time>2026-04-11T17:02:53.999Z</time></trkpt><trkpt lat="44.268274114260514" lon="11.438409914686526"><ele>418.0</ele><time>2026-04-11T17:02:54.999Z</time></trkpt><trkpt lat="44.26830092486331" lon="11.438554258299023"><ele>418.0</ele><time>2026-04-11T17:02:55.999Z</time></trkpt><trkpt lat="44.2683829343548" lon="11.438672916569118"><ele>418.0</ele><time>2026-04-11T17:02:56.999Z</time></trkpt><trkpt lat="44.268487733812414" lon="11.438765128521352"><ele>418.0</ele><time>2026-04-11T17:02:57.999Z</time></trkpt><trkpt lat="44.26858051106933" lon="11.43887908704373"><ele>418.0</ele><time>2026-04-11T17:02:58.999Z</time></trkpt><trkpt lat="44.268629881242866" lon="11.43903463738707"><ele>420.5</ele><time>2026-04-11T17:02:59.998Z</time></trkpt><trkpt lat="44.2686415922973" lon="11.439202086260952"><ele>423.0</ele><time>2026-04-11T17:03:00.998Z</time></trkpt><trkpt lat="44.268677170377835" lon="11.439354219764768"><ele>425.5</ele><time>2026-04-11T17:03:01.998Z</time></trkpt><trkpt lat="44.26875690153166" lon="11.439470146176362"><ele>428.0</ele><time>2026-04-11T17:03:02.998Z</time></trkpt><trkpt lat="44.26886590784166" lon="11.439562831449361"><ele>423.75</ele><time>2026-04-11T17:03:03.998Z</time></trkpt><trkpt lat="44.268945911542865" lon="11.439671761012391"><ele>419.5</ele><time>2026-04-11T17:03:04.998Z</time></trkpt><trkpt lat="44.269011220251684" lon="11.439793509720644"><ele>415.25</ele><time>2026-04-11T17:03:05.998Z</time></trkpt><trkpt lat="44.26906884371106" lon="11.43996466358303"><ele>411.0</ele><time>2026-04-11T17:03:07Z</time></trkpt><trkpt lat="44.26913326131087" lon="11.440158040572292"><ele>411.0</ele><time>2026-04-11T17:03:08Z</time></trkpt><trkpt lat="44.26919867002968" lon="11.440349563732147"><ele>411.0</ele><time>2026-04-11T17:03:09Z</time></trkpt><trkpt lat="44.26925676697491" lon="11.440509219715162"><ele>411.0</ele><time>2026-04-11T17:03:10Z</time></trkpt><trkpt lat="44.26930447701312" lon="11.440631406852773"><ele>411.0</ele><time>2026-04-11T17:03:11Z</time></trkpt><trkpt lat="44.26934676711904" lon="11.440738273937132"><ele>414.0</ele><time>2026-04-11T17:03:12Z</time></trkpt><trkpt lat="44.26938186931549" lon="11.440837242571709"><ele>417.0</ele><time>2026-04-11T17:03:13Z</time></trkpt><trkpt lat="44.26940842598923" lon="11.440937199109367"><ele>420.0</ele><time>2026-04-11T17:03:14Z</time></trkpt><trkpt lat="44.26942562643954" lon="11.441054096302786"><ele>423.0</ele><time>2026-04-11T17:03:15Z</time></trkpt><trkpt lat="44.26940473074119" lon="11.441185878079837"><ele>426.0</ele><time>2026-04-11T17:03:16Z</time></trkpt><trkpt lat="44.26937700801223" lon="11.441342750065333"><ele>428.0</ele><time>2026-04-11T17:03:17Z</time></trkpt><trkpt lat="44.269346117771484" lon="11.4415212796252"><ele>430.0</ele><time>2026-04-11T17:03:18Z</time></trkpt><trkpt lat="44.269319438805226" lon="11.441694887690986"><ele>432.0</ele><time>2026-04-11T17:03:19Z</time></trkpt><trkpt lat="44.26930922121411" lon="11.441868934373675"><ele>434.0</ele><time>2026-04-11T17:03:20Z</time></trkpt><trkpt lat="44.26927513623641" lon="11.442048632463646"><ele>434.0</ele><time>2026-04-11T17:03:21Z</time></trkpt><trkpt lat="44.26925207142485" lon="11.442227937094255"><ele>434.0</ele><time>2026-04-11T17:03:22Z</time></trkpt><trkpt lat="44.26923366290216" lon="11.442416345121671"><ele>434.0</ele><time>2026-04-11T17:03:23Z</time></trkpt><trkpt lat="44.269220715464606" lon="11.44260824229171"><ele>434.0</ele><time>2026-04-11T17:03:24Z</time></trkpt><trkpt lat="44.2692096892623" lon="11.442798774544178"><ele>434.0</ele><time>2026-04-11T17:03:25Z</time></trkpt><trkpt lat="44.269221018389196" lon="11.442950488843282"><ele>434.0</ele><time>2026-04-11T17:03:26Z</time></trkpt><trkpt lat="44.269233850195846" lon="11.44308947546068"><ele>434.0</ele><time>2026-04-11T17:03:27Z</time></trkpt><trkpt lat="44.26926456144446" lon="11.44322997961557"><ele>434.0</ele><time>2026-04-11T17:03:28Z</time></trkpt><trkpt lat="44.269332160754566" lon="11.44336951394731"><ele>434.0</ele><time>2026-04-11T17:03:29Z</time></trkpt><trkpt lat="44.26940912755045" lon="11.44350268132462"><ele>434.5</ele><time>2026-04-11T17:03:30Z</time></trkpt><trkpt lat="44.269468861455834" lon="11.443658376494405"><ele>435.0</ele><time>2026-04-11T17:03:31Z</time></trkpt><trkpt lat="44.26955317409706" lon="11.443804346093735"><ele>435.5</ele><time>2026-04-11T17:03:32Z</time></trkpt><trkpt lat="44.26964424829317" lon="11.443956268352643"><ele>436.0</ele><time>2026-04-11T17:03:33Z</time></trkpt><trkpt lat="44.269734309766314" lon="11.444107487690852"><ele>434.25</ele><time>2026-04-11T17:03:34Z</time></trkpt><trkpt lat="44.26981962152402" lon="11.444269116998624"><ele>432.5</ele><time>2026-04-11T17:03:35Z</time></trkpt><trkpt lat="44.26989590328543" lon="11.444442597186429"><ele>430.75</ele><time>2026-04-11T17:03:36Z</time></trkpt><trkpt lat="44.26996574329262" lon="11.444615734113288"><ele>429.0</ele><time>2026-04-11T17:03:37Z</time></trkpt><trkpt lat="44.27003139120952" lon="11.4447784782884"><ele>429.0</ele><time>2026-04-11T17:03:38Z</time></trkpt><trkpt lat="44.2700894737021" lon="11.444922467449194"><ele>429.0</ele><time>2026-04-11T17:03:39Z</time></trkpt><trkpt lat="44.270144256782295" lon="11.445055354435103"><ele>429.0</ele><time>2026-04-11T17:03:40Z</time></trkpt><trkpt lat="44.270206351748996" lon="11.445161906545165"><ele>429.0</ele><time>2026-04-11T17:03:41Z</time></trkpt><trkpt lat="44.270267649596484" lon="11.445266664376263"><ele>429.0</ele><time>2026-04-11T17:03:42Z</time></trkpt><trkpt lat="44.270354770163806" lon="11.445351373956125"><ele>429.0</ele><time>2026-04-11T17:03:43Z</time></trkpt><trkpt lat="44.27045812145279" lon="11.445413626063461"><ele>429.0</ele><time>2026-04-11T17:03:44Z</time></trkpt><trkpt lat="44.270554207324565" lon="11.445452389205734"><ele>429.0</ele><time>2026-04-11T17:03:45Z</time></trkpt><trkpt lat="44.27064998706741" lon="11.445495155928205"><ele>429.0</ele><time>2026-04-11T17:03:46Z</time></trkpt><trkpt lat="44.27076358957658" lon="11.445510646758933"><ele>429.0</ele><time>2026-04-11T17:03:47Z</time></trkpt><trkpt lat="44.27088594388644" lon="11.445519641092346"><ele>428.4</ele><time>2026-04-11T17:03:47.999Z</time></trkpt><trkpt lat="44.271001586211064" lon="11.44552466729855"><ele>427.79999999999995</ele><time>2026-04-11T17:03:48.999Z</time></trkpt><trkpt lat="44.271112426864065" lon="11.445510302338844"><ele>427.20000000000005</ele><time>2026-04-11T17:03:49.999Z</time></trkpt><trkpt lat="44.27121206553639" lon="11.44553315541762"><ele>426.6</ele><time>2026-04-11T17:03:50.999Z</time></trkpt><trkpt lat="44.27130392262952" lon="11.44555030866945"><ele>426.0</ele><time>2026-04-11T17:03:51.999Z</time></trkpt><trkpt lat="44.271381477453495" lon="11.445609933692232"><ele>422.75</ele><time>2026-04-11T17:03:52.999Z</time></trkpt><trkpt lat="44.27146598151501" lon="11.445672112666454"><ele>419.5</ele><time>2026-04-11T17:03:53.999Z</time></trkpt><trkpt lat="44.271544439398156" lon="11.445770072780311"><ele>416.25</ele><time>2026-04-11T17:03:54.999Z</time></trkpt><trkpt lat="44.271633720793155" lon="11.445915925020408"><ele>413.0</ele><time>2026-04-11T17:03:55.999Z</time></trkpt><trkpt lat="44.27172551906161" lon="11.446063724477233"><ele>413.0</ele><time>2026-04-11T17:03:56.999Z</time></trkpt><trkpt lat="44.27182773087423" lon="11.446204123870007"><ele>413.0</ele><time>2026-04-11T17:03:57.999Z</time></trkpt><trkpt lat="44.27191710254016" lon="11.446350802288624"><ele>413.0</ele><time>2026-04-11T17:03:58.999Z</time></trkpt><trkpt lat="44.27200723570528" lon="11.446487548480325"><ele>413.0</ele><time>2026-04-11T17:03:59.999Z</time></trkpt><trkpt lat="44.27209235841551" lon="11.44663343285183"><ele>413.75</ele><time>2026-04-11T17:04:00.999Z</time></trkpt><trkpt lat="44.27217760495512" lon="11.446774481784198"><ele>414.5</ele><time>2026-04-11T17:04:01.999Z</time></trkpt><trkpt lat="44.272256222384996" lon="11.44689344870028"><ele>415.25</ele><time>2026-04-11T17:04:02.999Z</time></trkpt><trkpt lat="44.2723253122278" lon="11.447007736126759"><ele>416.0</ele><time>2026-04-11T17:04:03.999Z</time></trkpt><trkpt lat="44.27238774736255" lon="11.44712228032471"><ele>413.4</ele><time>2026-04-11T17:04:04.999Z</time></trkpt><trkpt lat="44.27243229770392" lon="11.447241063662679"><ele>410.8</ele><time>2026-04-11T17:04:05.999Z</time></trkpt><trkpt lat="44.27246532139515" lon="11.447370032350221"><ele>408.2</ele><time>2026-04-11T17:04:06.999Z</time></trkpt><trkpt lat="44.272495537722364" lon="11.447513307715706"><ele>405.59999999999997</ele><time>2026-04-11T17:04:07.999Z</time></trkpt><trkpt lat="44.27252065860354" lon="11.447670794721331"><ele>403.0</ele><time>2026-04-11T17:04:08.999Z</time></trkpt><trkpt lat="44.27253431876946" lon="11.447833408034509"><ele>401.59999999999997</ele><time>2026-04-11T17:04:09.999Z</time></trkpt><trkpt lat="44.2725549324513" lon="11.447981645416757"><ele>400.2</ele><time>2026-04-11T17:04:10.999Z</time></trkpt><trkpt lat="44.27258533607665" lon="11.448128569182485"><ele>398.8</ele><time>2026-04-11T17:04:11.999Z</time></trkpt><trkpt lat="44.27257512150663" lon="11.448278453363132"><ele>397.4</ele><time>2026-04-11T17:04:12.999Z</time></trkpt><trkpt lat="44.272572311955464" lon="11.448440392506129"><ele>396.0</ele><time>2026-04-11T17:04:13.999Z</time></trkpt><trkpt lat="44.272561420082646" lon="11.448584861741804"><ele>396.0</ele><time>2026-04-11T17:04:14.999Z</time></trkpt><trkpt lat="44.27255301154417" lon="11.448735198164488"><ele>396.0</ele><time>2026-04-11T17:04:15.999Z</time></trkpt><trkpt lat="44.27252991992974" lon="11.44888133290028"><ele>396.0</ele><time>2026-04-11T17:04:16.999Z</time></trkpt><trkpt lat="44.27251224835552" lon="11.449027587720918"><ele>396.0</ele><time>2026-04-11T17:04:17.999Z</time></trkpt><trkpt lat="44.27250777199498" lon="11.449168084502956"><ele>396.0</ele><time>2026-04-11T17:04:18.999Z</time></trkpt><trkpt lat="44.27250976284435" lon="11.449291100281085"><ele>394.3333333333333</ele><time>2026-04-11T17:04:19.999Z</time></trkpt><trkpt lat="44.27251860938578" lon="11.449398180317319"><ele>392.66666666666663</ele><time>2026-04-11T17:04:20.999Z</time></trkpt><trkpt lat="44.272550617398664" lon="11.44949408533249"><ele>391.0</ele><time>2026-04-11T17:04:21.999Z</time></trkpt><trkpt lat="44.27259877689035" lon="11.449571450289708"><ele>389.3333333333333</ele><time>2026-04-11T17:04:22.999Z</time></trkpt><trkpt lat="44.272662125095366" lon="11.44964019548493"><ele>387.66666666666663</ele><time>2026-04-11T17:04:23.999Z</time></trkpt><trkpt lat="44.272737417251356" lon="11.449700253973273"><ele>386.0</ele><time>2026-04-11T17:04:24.999Z</time></trkpt><trkpt lat="44.2728271197979" lon="11.449747203209174"><ele>384.25</ele><time>2026-04-11T17:04:25.999Z</time></trkpt><trkpt lat="44.27292313605056" lon="11.44977209344191"><ele>382.5</ele><time>2026-04-11T17:04:26.999Z</time></trkpt><trkpt lat="44.27304112823875" lon="11.44975642770609"><ele>380.75</ele><time>2026-04-11T17:04:27.999Z</time></trkpt><trkpt lat="44.27316146949468" lon="11.449700315371631"><ele>379.0</ele><time>2026-04-11T17:04:28.999Z</time></trkpt><trkpt lat="44.273297727678454" lon="11.449650488795896"><ele>376.25</ele><time>2026-04-11T17:04:29.999Z</time></trkpt><trkpt lat="44.27343605893138" lon="11.449637169322452"><ele>373.5</ele><time>2026-04-11T17:04:30.999Z</time></trkpt><trkpt lat="44.27356075935181" lon="11.449621063306397"><ele>370.75</ele><time>2026-04-11T17:04:31.999Z</time></trkpt><trkpt lat="44.27367612677716" lon="11.449631389982066"><ele>368.0</ele><time>2026-04-11T17:04:32.999Z</time></trkpt><trkpt lat="44.273779044681774" lon="11.4496055548377"><ele>368.0</ele><time>2026-04-11T17:04:33.999Z</time></trkpt><trkpt lat="44.2738716322991" lon="11.449621369786003"><ele>368.0</ele><time>2026-04-11T17:04:34.999Z</time></trkpt><trkpt lat="44.27394434724065" lon="11.44962136978577"><ele>368.0</ele><time>2026-04-11T17:04:35.999Z</time></trkpt><trkpt lat="44.27402508806228" lon="11.449687172021846"><ele>368.0</ele><time>2026-04-11T17:04:37.999Z</time></trkpt><trkpt lat="44.274014421571785" lon="11.449779553002074"><ele>368.0</ele><time>2026-04-11T17:04:38.999Z</time></trkpt><trkpt lat="44.27396678500928" lon="11.449871891033604"><ele>368.0</ele><time>2026-04-11T17:04:39.999Z</time></trkpt><trkpt lat="44.273875737122815" lon="11.449918708698792"><ele>368.0</ele><time>2026-04-11T17:04:40.999Z</time></trkpt><trkpt lat="44.27378995911621" lon="11.449994836261379"><ele>368.0</ele><time>2026-04-11T17:04:41.999Z</time></trkpt><trkpt lat="44.27371438047043" lon="11.45009485885963"><ele>368.0</ele><time>2026-04-11T17:04:42.999Z</time></trkpt><trkpt lat="44.273674544034876" lon="11.450244165311329"><ele>368.0</ele><time>2026-04-11T17:04:43.999Z</time></trkpt><trkpt lat="44.273632045468005" lon="11.450390981090857"><ele>368.0</ele><time>2026-04-11T17:04:44.999Z</time></trkpt><trkpt lat="44.27359290982183" lon="11.450543681986982"><ele>365.59999999999997</ele><time>2026-04-11T17:04:45.999Z</time></trkpt><trkpt lat="44.27353356205167" lon="11.450673760371885"><ele>363.2</ele><time>2026-04-11T17:04:46.999Z</time></trkpt><trkpt lat="44.273468074714245" lon="11.450800623892452"><ele>360.8</ele><time>2026-04-11T17:04:47.999Z</time></trkpt><trkpt lat="44.27336695311929" lon="11.450870149308752"><ele>358.4</ele><time>2026-04-11T17:04:48.999Z</time></trkpt><trkpt lat="44.27330260304457" lon="11.45095730371689"><ele>356.0</ele><time>2026-04-11T17:04:49.999Z</time></trkpt><trkpt lat="44.273257549991165" lon="11.451081304450469"><ele>356.0</ele><time>2026-04-11T17:04:50.999Z</time></trkpt><trkpt lat="44.27325514365916" lon="11.451246381267207"><ele>356.0</ele><time>2026-04-11T17:04:51.999Z</time></trkpt><trkpt lat="44.27329106969562" lon="11.451420453632938"><ele>356.0</ele><time>2026-04-11T17:04:52.999Z</time></trkpt><trkpt lat="44.273325546733716" lon="11.451599927733238"><ele>356.0</ele><time>2026-04-11T17:04:53.999Z</time></trkpt><trkpt lat="44.2733408276325" lon="11.451785728793284"><ele>354.5</ele><time>2026-04-11T17:04:54.998Z</time></trkpt><trkpt lat="44.27336644138689" lon="11.451952119082312"><ele>353.0</ele><time>2026-04-11T17:04:55.998Z</time></trkpt><trkpt lat="44.27338937344245" lon="11.452118421134939"><ele>351.5</ele><time>2026-04-11T17:04:56.998Z</time></trkpt><trkpt lat="44.27340785678916" lon="11.452302809043418"><ele>350.0</ele><time>2026-04-11T17:04:57.998Z</time></trkpt><trkpt lat="44.27342219985658" lon="11.452487701344115"><ele>348.8</ele><time>2026-04-11T17:04:58.998Z</time></trkpt><trkpt lat="44.27343422735524" lon="11.452658182865363"><ele>347.6</ele><time>2026-04-11T17:04:59.998Z</time></trkpt><trkpt lat="44.27344585781235" lon="11.452804092285835"><ele>346.4</ele><time>2026-04-11T17:05:00.998Z</time></trkpt><trkpt lat="44.27347742986954" lon="11.452936654179354"><ele>345.2</ele><time>2026-04-11T17:05:01.998Z</time></trkpt><trkpt lat="44.27349947074827" lon="11.453082899516865"><ele>344.0</ele><time>2026-04-11T17:05:02.998Z</time></trkpt><trkpt lat="44.27353703695817" lon="11.453216262079989"><ele>341.75</ele><time>2026-04-11T17:05:03.998Z</time></trkpt><trkpt lat="44.27357627798421" lon="11.453359374794518"><ele>339.5</ele><time>2026-04-11T17:05:04.998Z</time></trkpt><trkpt lat="44.273635659265025" lon="11.453509581346228"><ele>337.25</ele><time>2026-04-11T17:05:05.998Z</time></trkpt><trkpt lat="44.27370111676647" lon="11.453668381837243"><ele>335.0</ele><time>2026-04-11T17:05:06.998Z</time></trkpt><trkpt lat="44.2737783267502" lon="11.453855694121065"><ele>332.75</ele><time>2026-04-11T17:05:07.998Z</time></trkpt><trkpt lat="44.273856631194654" lon="11.454046156666829"><ele>330.5</ele><time>2026-04-11T17:05:08.998Z</time></trkpt><trkpt lat="44.27392829928445" lon="11.454221616958925"><ele>328.25</ele><time>2026-04-11T17:05:09.998Z</time></trkpt><trkpt lat="44.27401196309036" lon="11.45438190939366"><ele>326.0</ele><time>2026-04-11T17:05:10.998Z</time></trkpt><trkpt lat="44.274072388079546" lon="11.45455172958907"><ele>323.5</ele><time>2026-04-11T17:05:11.998Z</time></trkpt><trkpt lat="44.274142489400106" lon="11.454707548968205"><ele>321.0</ele><time>2026-04-11T17:05:13Z</time></trkpt><trkpt lat="44.274200930949945" lon="11.454864081413536"><ele>318.5</ele><time>2026-04-11T17:05:14Z</time></trkpt><trkpt lat="44.27425819367416" lon="11.455013059108282"><ele>316.0</ele><time>2026-04-11T17:05:15Z</time></trkpt><trkpt lat="44.27431296295143" lon="11.455152151435888"><ele>316.0</ele><time>2026-04-11T17:05:16Z</time></trkpt><trkpt lat="44.27435015420709" lon="11.455278072022676"><ele>316.0</ele><time>2026-04-11T17:05:17Z</time></trkpt><trkpt lat="44.27440184975276" lon="11.455409342833232"><ele>316.0</ele><time>2026-04-11T17:05:18Z</time></trkpt><trkpt lat="44.27449154896132" lon="11.455529671791767"><ele>316.0</ele><time>2026-04-11T17:05:19Z</time></trkpt><trkpt lat="44.27459430100848" lon="11.455625577996614"><ele>315.66666666666663</ele><time>2026-04-11T17:05:20Z</time></trkpt><trkpt lat="44.27468489328117" lon="11.455710542674653"><ele>315.3333333333333</ele><time>2026-04-11T17:05:21Z</time></trkpt><trkpt lat="44.27476018180179" lon="11.455801056901016"><ele>315.0</ele><time>2026-04-11T17:05:22Z</time></trkpt><trkpt lat="44.274831656288896" lon="11.455877395737815"><ele>314.6666666666667</ele><time>2026-04-11T17:05:23Z</time></trkpt><trkpt lat="44.27489130822157" lon="11.455927562006243"><ele>314.33333333333337</ele><time>2026-04-11T17:05:24Z</time></trkpt><trkpt lat="44.274951956687914" lon="11.455983497301371"><ele>314.0</ele><time>2026-04-11T17:05:25Z</time></trkpt><trkpt lat="44.27500097485636" lon="11.456100812167518"><ele>314.0</ele><time>2026-04-11T17:05:27Z</time></trkpt><trkpt lat="44.27496268715979" lon="11.456190823530143"><ele>314.0</ele><time>2026-04-11T17:05:28Z</time></trkpt><trkpt lat="44.2748897792485" lon="11.456244351009794"><ele>314.0</ele><time>2026-04-11T17:05:29Z</time></trkpt><trkpt lat="44.27479242289759" lon="11.45620345933067"><ele>314.0</ele><time>2026-04-11T17:05:30Z</time></trkpt><trkpt lat="44.274684244514475" lon="11.45622408329423"><ele>314.0</ele><time>2026-04-11T17:05:31Z</time></trkpt><trkpt lat="44.27457887489547" lon="11.456220355435363"><ele>312.8</ele><time>2026-04-11T17:05:32Z</time></trkpt><trkpt lat="44.274474997436194" lon="11.45622596349874"><ele>311.59999999999997</ele><time>2026-04-11T17:05:33Z</time></trkpt><trkpt lat="44.27437552786993" lon="11.456220305042898"><ele>310.4</ele><time>2026-04-11T17:05:34Z</time></trkpt><trkpt lat="44.27427213879256" lon="11.456207861392066"><ele>309.2</ele><time>2026-04-11T17:05:35Z</time></trkpt><trkpt lat="44.27418174806641" lon="11.456187599217676"><ele>308.0</ele><time>2026-04-11T17:05:36Z</time></trkpt><trkpt lat="44.27410651250118" lon="11.456190612985807"><ele>308.0</ele><time>2026-04-11T17:05:37Z</time></trkpt><trkpt lat="44.274037360857555" lon="11.456229924106857"><ele>308.0</ele><time>2026-04-11T17:05:38Z</time></trkpt><trkpt lat="44.27396752900919" lon="11.456332863190916"><ele>308.0</ele><time>2026-04-11T17:05:39Z</time></trkpt><trkpt lat="44.27391919765871" lon="11.456487344505932"><ele>308.0</ele><time>2026-04-11T17:05:40Z</time></trkpt><trkpt lat="44.27388137885495" lon="11.456641764864678"><ele>308.0</ele><time>2026-04-11T17:05:41Z</time></trkpt><trkpt lat="44.27385144646874" lon="11.456771885870198"><ele>306.2857142857143</ele><time>2026-04-11T17:05:42Z</time></trkpt><trkpt lat="44.2738282708275" lon="11.456859266366653"><ele>304.57142857142856</ele><time>2026-04-11T17:05:43Z</time></trkpt><trkpt lat="44.273789299324285" lon="11.45697162747732"><ele>302.8571428571429</ele><time>2026-04-11T17:05:45Z</time></trkpt><trkpt lat="44.27373033459876" lon="11.457017244238292"><ele>301.1428571428571</ele><time>2026-04-11T17:05:48Z</time></trkpt><trkpt lat="44.273646616755066" lon="11.457072379508414"><ele>299.42857142857144</ele><time>2026-04-11T17:05:50Z</time></trkpt><trkpt lat="44.27358342731942" lon="11.457094654238979"><ele>297.7142857142857</ele><time>2026-04-11T17:05:51Z</time></trkpt><trkpt lat="44.27352477978822" lon="11.45713743622537"><ele>296.0</ele><time>2026-04-11T17:05:52Z</time></trkpt><trkpt lat="44.27351855259224" lon="11.457307967103507"><ele>294.5</ele><time>2026-04-11T17:05:54Z</time></trkpt><trkpt lat="44.273552120228636" lon="11.457394850412074"><ele>293.0</ele><time>2026-04-11T17:05:55Z</time></trkpt><trkpt lat="44.27364880039035" lon="11.457415097756028"><ele>291.5</ele><time>2026-04-11T17:05:56Z</time></trkpt><trkpt lat="44.27371582121319" lon="11.457430334408476"><ele>290.0</ele><time>2026-04-11T17:05:57Z</time></trkpt><trkpt lat="44.27381265522436" lon="11.457473539127067"><ele>288.5</ele><time>2026-04-11T17:05:59Z</time></trkpt><trkpt lat="44.27383460478647" lon="11.457556342477183"><ele>287.0</ele><time>2026-04-11T17:06:01Z</time></trkpt><trkpt lat="44.273877360991406" lon="11.457634033704768"><ele>287.0</ele><time>2026-04-11T17:06:02.999Z</time></trkpt><trkpt lat="44.27394940375259" lon="11.457698560397404"><ele>287.0</ele><time>2026-04-11T17:06:03.999Z</time></trkpt><trkpt lat="44.27404650382615" lon="11.457736241000674"><ele>287.0</ele><time>2026-04-11T17:06:04.999Z</time></trkpt><trkpt lat="44.27415454755963" lon="11.457754842054028"><ele>287.0</ele><time>2026-04-11T17:06:05.999Z</time></trkpt><trkpt lat="44.2742713065223" lon="11.45777803852446"><ele>287.0</ele><time>2026-04-11T17:06:06.999Z</time></trkpt><trkpt lat="44.27440342123604" lon="11.457828918734974"><ele>287.0</ele><time>2026-04-11T17:06:07.999Z</time></trkpt><trkpt lat="44.274538987996884" lon="11.457907581751886"><ele>287.0</ele><time>2026-04-11T17:06:08.999Z</time></trkpt><trkpt lat="44.27465507733968" lon="11.458038946652726"><ele>287.0</ele><time>2026-04-11T17:06:09.999Z</time></trkpt><trkpt lat="44.27479086161533" lon="11.458155214183147"><ele>284.0</ele><time>2026-04-11T17:06:10.999Z</time></trkpt><trkpt lat="44.27491770331389" lon="11.458308118470693"><ele>281.0</ele><time>2026-04-11T17:06:11.999Z</time></trkpt><trkpt lat="44.27504830639693" lon="11.458455127935423"><ele>278.0</ele><time>2026-04-11T17:06:12.999Z</time></trkpt><trkpt lat="44.27517407908719" lon="11.45857073720153"><ele>278.0</ele><time>2026-04-11T17:06:13.999Z</time></trkpt><trkpt lat="44.27531170029555" lon="11.458663813976287"><ele>278.0</ele><time>2026-04-11T17:06:14.999Z</time></trkpt><trkpt lat="44.27546750065644" lon="11.45873103239847"><ele>278.0</ele><time>2026-04-11T17:06:15.999Z</time></trkpt><trkpt lat="44.27563489366853" lon="11.458785533456942"><ele>276.6666666666667</ele><time>2026-04-11T17:06:16.999Z</time></trkpt><trkpt lat="44.275807532002666" lon="11.458824280803912"><ele>275.3333333333333</ele><time>2026-04-11T17:06:17.999Z</time></trkpt><trkpt lat="44.2759646412437" lon="11.458851226136796"><ele>274.0</ele><time>2026-04-11T17:06:18.999Z</time></trkpt><trkpt lat="44.27610735820036" lon="11.458864415218436"><ele>274.0</ele><time>2026-04-11T17:06:19.999Z</time></trkpt><trkpt lat="44.27624343473622" lon="11.45889628382595"><ele>274.0</ele><time>2026-04-11T17:06:20.999Z</time></trkpt><trkpt lat="44.27637471960153" lon="11.458909381423359"><ele>274.0</ele><time>2026-04-11T17:06:21.999Z</time></trkpt><trkpt lat="44.276501789767124" lon="11.458913171617995"><ele>274.0</ele><time>2026-04-11T17:06:22.999Z</time></trkpt><trkpt lat="44.27662293389771" lon="11.45891075008131"><ele>273.0</ele><time>2026-04-11T17:06:23.999Z</time></trkpt><trkpt lat="44.27675307671302" lon="11.458863351630784"><ele>272.0</ele><time>2026-04-11T17:06:24.999Z</time></trkpt><trkpt lat="44.276868032114116" lon="11.45878998620605"><ele>271.0</ele><time>2026-04-11T17:06:25.999Z</time></trkpt><trkpt lat="44.27697014234275" lon="11.458696410182196"><ele>270.0</ele><time>2026-04-11T17:06:26.999Z</time></trkpt><trkpt lat="44.27706211118386" lon="11.458587482688296"><ele>270.5</ele><time>2026-04-11T17:06:27.999Z</time></trkpt><trkpt lat="44.2771636086867" lon="11.458504354356599"><ele>271.0</ele><time>2026-04-11T17:06:28.999Z</time></trkpt><trkpt lat="44.277273604552754" lon="11.45849002543543"><ele>271.5</ele><time>2026-04-11T17:06:29.999Z</time></trkpt><trkpt lat="44.277375900571215" lon="11.458555653806766"><ele>272.0</ele><time>2026-04-11T17:06:30.999Z</time></trkpt><trkpt lat="44.27747562168059" lon="11.458633245205844"><ele>272.0</ele><time>2026-04-11T17:06:31.999Z</time></trkpt><trkpt lat="44.27757118523897" lon="11.458701757475602"><ele>272.0</ele><time>2026-04-11T17:06:32.999Z</time></trkpt><trkpt lat="44.27764675981122" lon="11.458752392131329"><ele>272.0</ele><time>2026-04-11T17:06:33.999Z</time></trkpt><trkpt lat="44.27771122189471" lon="11.458796677642876"><ele>272.0</ele><time>2026-04-11T17:06:34.999Z</time></trkpt><trkpt lat="44.277777865705026" lon="11.458842194574785"><ele>272.0</ele><time>2026-04-11T17:06:35.999Z</time></trkpt><trkpt lat="44.27784210218441" lon="11.458893474303524"><ele>272.0</ele><time>2026-04-11T17:06:36.999Z</time></trkpt><trkpt lat="44.27791455182077" lon="11.458942873204283"><ele>271.83333333333337</ele><time>2026-04-11T17:06:37.999Z</time></trkpt><trkpt lat="44.27798190707198" lon="11.458986716101716"><ele>271.6666666666667</ele><time>2026-04-11T17:06:38.999Z</time></trkpt><trkpt lat="44.27806020571924" lon="11.459000811129405"><ele>271.5</ele><time>2026-04-11T17:06:39.999Z</time></trkpt><trkpt lat="44.27813780699253" lon="11.458952525605236"><ele>271.3333333333333</ele><time>2026-04-11T17:06:40.999Z</time></trkpt><trkpt lat="44.27820909705333" lon="11.458878603401466"><ele>271.16666666666663</ele><time>2026-04-11T17:06:41.999Z</time></trkpt><trkpt lat="44.27826651689491" lon="11.458804406283015"><ele>271.0</ele><time>2026-04-11T17:06:42.999Z</time></trkpt><trkpt lat="44.278319425396745" lon="11.458716171951414"><ele>271.0</ele><time>2026-04-11T17:06:43.999Z</time></trkpt><trkpt lat="44.278363895376295" lon="11.458626690662078"><ele>271.0</ele><time>2026-04-11T17:06:44.999Z</time></trkpt><trkpt lat="44.278408047280195" lon="11.458542007012024"><ele>271.0</ele><time>2026-04-11T17:06:45.999Z</time></trkpt><trkpt lat="44.278456210536085" lon="11.458461396394584"><ele>271.0</ele><time>2026-04-11T17:06:46.999Z</time></trkpt><trkpt lat="44.27852333629459" lon="11.458392022233122"><ele>271.0</ele><time>2026-04-11T17:06:47.999Z</time></trkpt><trkpt lat="44.2785860445341" lon="11.458311165883774"><ele>271.0</ele><time>2026-04-11T17:06:48.999Z</time></trkpt><trkpt lat="44.27865434863376" lon="11.458237974257903"><ele>271.0</ele><time>2026-04-11T17:06:49.999Z</time></trkpt><trkpt lat="44.27871132695557" lon="11.458163255573371"><ele>271.0</ele><time>2026-04-11T17:06:50.999Z</time></trkpt><trkpt lat="44.27878137945103" lon="11.458113969391608"><ele>271.0</ele><time>2026-04-11T17:06:51.999Z</time></trkpt><trkpt lat="44.2788451383333" lon="11.458070900320655"><ele>271.0</ele><time>2026-04-11T17:06:52.999Z</time></trkpt><trkpt lat="44.27892020593903" lon="11.458024135457357"><ele>271.0</ele><time>2026-04-11T17:06:53.999Z</time></trkpt><trkpt lat="44.27899494108838" lon="11.457987869726592"><ele>271.0</ele><time>2026-04-11T17:06:54.999Z</time></trkpt><trkpt lat="44.27907156919685" lon="11.457965262260835"><ele>272.5</ele><time>2026-04-11T17:06:55.999Z</time></trkpt><trkpt lat="44.27914724004479" lon="11.457951855006343"><ele>274.0</ele><time>2026-04-11T17:06:56.999Z</time></trkpt><trkpt lat="44.27922472883979" lon="11.457953616097445"><ele>275.5</ele><time>2026-04-11T17:06:57.999Z</time></trkpt><trkpt lat="44.27930535068423" lon="11.457963504805976"><ele>277.0</ele><time>2026-04-11T17:06:58.999Z</time></trkpt><trkpt lat="44.27937629444994" lon="11.457976738149696"><ele>278.5</ele><time>2026-04-11T17:06:59.999Z</time></trkpt><trkpt lat="44.27944616630896" lon="11.45799960970093"><ele>280.0</ele><time>2026-04-11T17:07:00.999Z</time></trkpt><trkpt lat="44.27952118030483" lon="11.458010282769674"><ele>280.0</ele><time>2026-04-11T17:07:01.999Z</time></trkpt><trkpt lat="44.279588772096375" lon="11.45798569075423"><ele>280.0</ele><time>2026-04-11T17:07:02.999Z</time></trkpt><trkpt lat="44.27964920441075" lon="11.457920847470561"><ele>280.0</ele><time>2026-04-11T17:07:03.999Z</time></trkpt><trkpt lat="44.2796907536056" lon="11.457824367923008"><ele>280.0</ele><time>2026-04-11T17:07:04.999Z</time></trkpt><trkpt lat="44.27970814400059" lon="11.457706092281606"><ele>280.0</ele><time>2026-04-11T17:07:05.999Z</time></trkpt><trkpt lat="44.279715984680195" lon="11.457587202962634"><ele>280.0</ele><time>2026-04-11T17:07:06.999Z</time></trkpt><trkpt lat="44.27969465649669" lon="11.457471308051918"><ele>278.8</ele><time>2026-04-11T17:07:07.999Z</time></trkpt><trkpt lat="44.27970859674367" lon="11.457352300159268"><ele>277.6</ele><time>2026-04-11T17:07:08.999Z</time></trkpt><trkpt lat="44.279720209727245" lon="11.457224473147502"><ele>276.4</ele><time>2026-04-11T17:07:09.999Z</time></trkpt><trkpt lat="44.27974710621041" lon="11.45706732367966"><ele>275.2</ele><time>2026-04-11T17:07:10.999Z</time></trkpt><trkpt lat="44.27978952965586" lon="11.456894136805335"><ele>274.0</ele><time>2026-04-11T17:07:11.999Z</time></trkpt><trkpt lat="44.27984654426091" lon="11.456724504943164"><ele>274.0</ele><time>2026-04-11T17:07:12.998Z</time></trkpt><trkpt lat="44.279908861860754" lon="11.456552493196293"><ele>274.0</ele><time>2026-04-11T17:07:13.998Z</time></trkpt><trkpt lat="44.27996540126398" lon="11.456365622482158"><ele>274.0</ele><time>2026-04-11T17:07:14.998Z</time></trkpt><trkpt lat="44.28004007448401" lon="11.456197759287516"><ele>274.0</ele><time>2026-04-11T17:07:15.998Z</time></trkpt><trkpt lat="44.28010096602442" lon="11.456033815703554"><ele>271.75</ele><time>2026-04-11T17:07:16.998Z</time></trkpt><trkpt lat="44.28015921680902" lon="11.455862853989416"><ele>269.5</ele><time>2026-04-11T17:07:17.998Z</time></trkpt><trkpt lat="44.28022007581767" lon="11.455691854029554"><ele>267.25</ele><time>2026-04-11T17:07:19Z</time></trkpt><trkpt lat="44.280304182077124" lon="11.455531279862214"><ele>265.0</ele><time>2026-04-11T17:07:20Z</time></trkpt><trkpt lat="44.28040234094806" lon="11.455390639043324"><ele>264.3333333333333</ele><time>2026-04-11T17:07:21Z</time></trkpt><trkpt lat="44.280515204866646" lon="11.455254539397147"><ele>263.6666666666667</ele><time>2026-04-11T17:07:22Z</time></trkpt><trkpt lat="44.28063238338232" lon="11.455115598804587"><ele>263.0</ele><time>2026-04-11T17:07:23Z</time></trkpt><trkpt lat="44.28074764705021" lon="11.454975665155446"><ele>263.0</ele><time>2026-04-11T17:07:24Z</time></trkpt><trkpt lat="44.28086899166505" lon="11.454848289169773"><ele>263.0</ele><time>2026-04-11T17:07:25Z</time></trkpt><trkpt lat="44.280994599952706" lon="11.45473465563775"><ele>263.0</ele><time>2026-04-11T17:07:26Z</time></trkpt><trkpt lat="44.28112508946905" lon="11.454626899263413"><ele>262.5</ele><time>2026-04-11T17:07:27Z</time></trkpt><trkpt lat="44.28124758904023" lon="11.454538064718815"><ele>262.0</ele><time>2026-04-11T17:07:28Z</time></trkpt><trkpt lat="44.28136501378498" lon="11.45443844170296"><ele>261.5</ele><time>2026-04-11T17:07:29Z</time></trkpt><trkpt lat="44.2814662736431" lon="11.45431837617379"><ele>261.0</ele><time>2026-04-11T17:07:30Z</time></trkpt><trkpt lat="44.281550001289304" lon="11.454185245459714"><ele>261.0</ele><time>2026-04-11T17:07:31Z</time></trkpt><trkpt lat="44.28160642536357" lon="11.454032970109504"><ele>261.0</ele><time>2026-04-11T17:07:32Z</time></trkpt><trkpt lat="44.281680321039445" lon="11.453904762493293"><ele>261.0</ele><time>2026-04-11T17:07:33Z</time></trkpt><trkpt lat="44.2817497065609" lon="11.453771666757909"><ele>261.0</ele><time>2026-04-11T17:07:34Z</time></trkpt><trkpt lat="44.28186621005696" lon="11.453697437618112"><ele>260.25</ele><time>2026-04-11T17:07:35Z</time></trkpt><trkpt lat="44.282001878579145" lon="11.453665655965132"><ele>259.5</ele><time>2026-04-11T17:07:36Z</time></trkpt><trkpt lat="44.28213812950742" lon="11.453652314799232"><ele>258.75</ele><time>2026-04-11T17:07:37Z</time></trkpt><trkpt lat="44.282261480291154" lon="11.453617970280558"><ele>258.0</ele><time>2026-04-11T17:07:38Z</time></trkpt><trkpt lat="44.28236445918158" lon="11.453547519356215"><ele>258.0</ele><time>2026-04-11T17:07:39Z</time></trkpt><trkpt lat="44.28244773549365" lon="11.453426558555408"><ele>258.0</ele><time>2026-04-11T17:07:40Z</time></trkpt><trkpt lat="44.2824959539247" lon="11.453265109382754"><ele>258.0</ele><time>2026-04-11T17:07:41Z</time></trkpt><trkpt lat="44.282539338313924" lon="11.453110892039975"><ele>258.0</ele><time>2026-04-11T17:07:42Z</time></trkpt><trkpt lat="44.282580408698664" lon="11.452981925889919"><ele>256.0</ele><time>2026-04-11T17:07:43Z</time></trkpt><trkpt lat="44.28265031528557" lon="11.452878773617893"><ele>254.0</ele><time>2026-04-11T17:07:44Z</time></trkpt><trkpt lat="44.282747566580525" lon="11.452819701904787"><ele>252.0</ele><time>2026-04-11T17:07:45Z</time></trkpt><trkpt lat="44.28286615676993" lon="11.452797272388837"><ele>250.0</ele><time>2026-04-11T17:07:46Z</time></trkpt><trkpt lat="44.28300142895765" lon="11.452797083317686"><ele>250.5</ele><time>2026-04-11T17:07:47Z</time></trkpt><trkpt lat="44.2831378768707" lon="11.452783513594706"><ele>251.0</ele><time>2026-04-11T17:07:48Z</time></trkpt><trkpt lat="44.28327493220195" lon="11.452824890326735"><ele>251.5</ele><time>2026-04-11T17:07:49Z</time></trkpt><trkpt lat="44.28339523633349" lon="11.452899182348904"><ele>252.0</ele><time>2026-04-11T17:07:50Z</time></trkpt><trkpt lat="44.28349013743384" lon="11.453001542550489"><ele>252.75</ele><time>2026-04-11T17:07:51Z</time></trkpt><trkpt lat="44.28359904333684" lon="11.45307712591256"><ele>253.5</ele><time>2026-04-11T17:07:52Z</time></trkpt><trkpt lat="44.28372838255915" lon="11.453068135832991"><ele>254.25</ele><time>2026-04-11T17:07:53Z</time></trkpt><trkpt lat="44.28386172463864" lon="11.453007297229293"><ele>255.0</ele><time>2026-04-11T17:07:54Z</time></trkpt><trkpt lat="44.28397076501509" lon="11.452918890250183"><ele>255.0</ele><time>2026-04-11T17:07:55Z</time></trkpt><trkpt lat="44.28404774975884" lon="11.452845101233702"><ele>255.0</ele><time>2026-04-11T17:07:56Z</time></trkpt><trkpt lat="44.2841003110325" lon="11.4527639152474"><ele>255.0</ele><time>2026-04-11T17:07:57Z</time></trkpt><trkpt lat="44.2841265433842" lon="11.45263350355262"><ele>255.0</ele><time>2026-04-11T17:07:58Z</time></trkpt><trkpt lat="44.28411305888131" lon="11.45246558865026"><ele>255.0</ele><time>2026-04-11T17:07:59Z</time></trkpt><trkpt lat="44.28408649623676" lon="11.452284008198696"><ele>254.2</ele><time>2026-04-11T17:08:00Z</time></trkpt><trkpt lat="44.284074161688174" lon="11.452119284710191"><ele>253.4</ele><time>2026-04-11T17:08:01Z</time></trkpt><trkpt lat="44.28408715733061" lon="11.45197265606112"><ele>252.60000000000002</ele><time>2026-04-11T17:08:02Z</time></trkpt><trkpt lat="44.28412148430221" lon="11.4518343414434"><ele>251.8</ele><time>2026-04-11T17:08:03Z</time></trkpt><trkpt lat="44.284178380775764" lon="11.451705355951347"><ele>251.0</ele><time>2026-04-11T17:08:04Z</time></trkpt><trkpt lat="44.28425124608884" lon="11.451585915193439"><ele>251.0</ele><time>2026-04-11T17:08:05Z</time></trkpt><trkpt lat="44.28435927528128" lon="11.451504323606962"><ele>251.0</ele><time>2026-04-11T17:08:06Z</time></trkpt><trkpt lat="44.28448100867274" lon="11.451446144865805"><ele>251.0</ele><time>2026-04-11T17:08:07Z</time></trkpt><trkpt lat="44.28461695722898" lon="11.451416860261968"><ele>251.0</ele><time>2026-04-11T17:08:08Z</time></trkpt><trkpt lat="44.28476446339467" lon="11.451412326309732"><ele>252.0</ele><time>2026-04-11T17:08:09Z</time></trkpt><trkpt lat="44.284913212371" lon="11.451415321682404"><ele>253.0</ele><time>2026-04-11T17:08:10Z</time></trkpt><trkpt lat="44.285064008305724" lon="11.451433895777967"><ele>254.0</ele><time>2026-04-11T17:08:10.999Z</time></trkpt><trkpt lat="44.2852053092974" lon="11.451451548540748"><ele>255.0</ele><time>2026-04-11T17:08:11.999Z</time></trkpt><trkpt lat="44.28533450642972" lon="11.451467285194143"><ele>255.0</ele><time>2026-04-11T17:08:12.999Z</time></trkpt><trkpt lat="44.28545869062157" lon="11.451515446928735"><ele>255.0</ele><time>2026-04-11T17:08:13.999Z</time></trkpt><trkpt lat="44.28559203608264" lon="11.451546968282951"><ele>255.0</ele><time>2026-04-11T17:08:14.999Z</time></trkpt><trkpt lat="44.285695655955166" lon="11.451644878380137"><ele>255.0</ele><time>2026-04-11T17:08:15.999Z</time></trkpt><trkpt lat="44.28577553302188" lon="11.451795655411686"><ele>256.0</ele><time>2026-04-11T17:08:16.999Z</time></trkpt><trkpt lat="44.28582260514887" lon="11.451960318773983"><ele>257.0</ele><time>2026-04-11T17:08:17.999Z</time></trkpt><trkpt lat="44.285863421346775" lon="11.452097255000359"><ele>258.0</ele><time>2026-04-11T17:08:18.999Z</time></trkpt><trkpt lat="44.28593848786989" lon="11.452192511924073"><ele>259.0</ele><time>2026-04-11T17:08:19.999Z</time></trkpt><trkpt lat="44.28605936411221" lon="11.452225509205325"><ele>259.0</ele><time>2026-04-11T17:08:20.999Z</time></trkpt><trkpt lat="44.28618187119834" lon="11.452209250245254"><ele>259.0</ele><time>2026-04-11T17:08:21.999Z</time></trkpt><trkpt lat="44.286288682107525" lon="11.452158883668384"><ele>259.0</ele><time>2026-04-11T17:08:22.999Z</time></trkpt><trkpt lat="44.28637793234789" lon="11.452074855818395"><ele>259.0</ele><time>2026-04-11T17:08:23.999Z</time></trkpt><trkpt lat="44.28643595130614" lon="11.451967509070577"><ele>259.0</ele><time>2026-04-11T17:08:24.999Z</time></trkpt><trkpt lat="44.28648831651554" lon="11.45184322148784"><ele>256.59999999999997</ele><time>2026-04-11T17:08:25.999Z</time></trkpt><trkpt lat="44.28651729941022" lon="11.451728164889875"><ele>254.2</ele><time>2026-04-11T17:08:26.999Z</time></trkpt><trkpt lat="44.28655693270504" lon="11.451600098399124"><ele>251.79999999999998</ele><time>2026-04-11T17:08:27.999Z</time></trkpt><trkpt lat="44.28662047688424" lon="11.451492732147509"><ele>249.39999999999998</ele><time>2026-04-11T17:08:28.999Z</time></trkpt><trkpt lat="44.2867337613334" lon="11.451425714986593"><ele>247.0</ele><time>2026-04-11T17:08:29.999Z</time></trkpt><trkpt lat="44.2868501828348" lon="11.451388699383166"><ele>247.0</ele><time>2026-04-11T17:08:30.999Z</time></trkpt><trkpt lat="44.28696885235118" lon="11.451342735668483"><ele>247.0</ele><time>2026-04-11T17:08:31.999Z</time></trkpt><trkpt lat="44.28707048787292" lon="11.451232888596488"><ele>247.0</ele><time>2026-04-11T17:08:32.999Z</time></trkpt><trkpt lat="44.28715545581701" lon="11.451074162005899"><ele>247.0</ele><time>2026-04-11T17:08:33.999Z</time></trkpt><trkpt lat="44.287255579930154" lon="11.450955550309311"><ele>246.5</ele><time>2026-04-11T17:08:34.999Z</time></trkpt><trkpt lat="44.287315020144845" lon="11.450775265817857"><ele>246.0</ele><time>2026-04-11T17:08:35.999Z</time></trkpt><trkpt lat="44.2873783044944" lon="11.450604401148883"><ele>245.5</ele><time>2026-04-11T17:08:36.999Z</time></trkpt><trkpt lat="44.287441427552935" lon="11.450438983998573"><ele>245.0</ele><time>2026-04-11T17:08:37.999Z</time></trkpt><trkpt lat="44.28749840053585" lon="11.450290155818417"><ele>243.0</ele><time>2026-04-11T17:08:38.999Z</time></trkpt><trkpt lat="44.28754095519537" lon="11.450148768507834"><ele>241.0</ele><time>2026-04-11T17:08:39.999Z</time></trkpt><trkpt lat="44.28759060959043" lon="11.45000912241504"><ele>239.0</ele><time>2026-04-11T17:08:40.999Z</time></trkpt><trkpt lat="44.287687340473155" lon="11.449903003549837"><ele>237.0</ele><time>2026-04-11T17:08:41.999Z</time></trkpt><trkpt lat="44.28779572213627" lon="11.449823711128774"><ele>237.0</ele><time>2026-04-11T17:08:42.999Z</time></trkpt><trkpt lat="44.28792663552288" lon="11.449768199834248"><ele>237.0</ele><time>2026-04-11T17:08:43.999Z</time></trkpt><trkpt lat="44.28806636489677" lon="11.449702087175389"><ele>237.0</ele><time>2026-04-11T17:08:44.999Z</time></trkpt><trkpt lat="44.288192753521564" lon="11.449631559291504"><ele>237.0</ele><time>2026-04-11T17:08:45.999Z</time></trkpt><trkpt lat="44.28831630135073" lon="11.449548616026881"><ele>236.5</ele><time>2026-04-11T17:08:46.999Z</time></trkpt><trkpt lat="44.288437907288426" lon="11.449473609062007"><ele>236.0</ele><time>2026-04-11T17:08:47.999Z</time></trkpt><trkpt lat="44.2885717886485" lon="11.449429057408079"><ele>235.5</ele><time>2026-04-11T17:08:48.999Z</time></trkpt><trkpt lat="44.28870820593391" lon="11.449389380636626"><ele>235.0</ele><time>2026-04-11T17:08:49.999Z</time></trkpt><trkpt lat="44.28885913015305" lon="11.44935954258464"><ele>235.0</ele><time>2026-04-11T17:08:50.999Z</time></trkpt><trkpt lat="44.28900869795304" lon="11.449344202990387"><ele>235.0</ele><time>2026-04-11T17:08:51.999Z</time></trkpt><trkpt lat="44.289160045100914" lon="11.449341494169346"><ele>235.0</ele><time>2026-04-11T17:08:52.999Z</time></trkpt><trkpt lat="44.28931480053668" lon="11.44933249330743"><ele>235.0</ele><time>2026-04-11T17:08:53.999Z</time></trkpt><trkpt lat="44.289458065156126" lon="11.449304849880393"><ele>235.0</ele><time>2026-04-11T17:08:54.999Z</time></trkpt><trkpt lat="44.28960557305732" lon="11.449283347417413"><ele>235.0</ele><time>2026-04-11T17:08:55.999Z</time></trkpt><trkpt lat="44.289750793326334" lon="11.449254899818825"><ele>235.0</ele><time>2026-04-11T17:08:56.999Z</time></trkpt><trkpt lat="44.28988733332329" lon="11.449214721914577"><ele>235.5</ele><time>2026-04-11T17:08:57.999Z</time></trkpt><trkpt lat="44.29002105869288" lon="11.449153577519848"><ele>236.0</ele><time>2026-04-11T17:08:58.999Z</time></trkpt><trkpt lat="44.29014425788616" lon="11.44904425645666"><ele>236.5</ele><time>2026-04-11T17:08:59.999Z</time></trkpt><trkpt lat="44.29026034847623" lon="11.448906364130414"><ele>237.0</ele><time>2026-04-11T17:09:00.999Z</time></trkpt><trkpt lat="44.290373447178126" lon="11.448769712001837"><ele>235.75</ele><time>2026-04-11T17:09:01.999Z</time></trkpt><trkpt lat="44.29047483767841" lon="11.448656485544673"><ele>234.5</ele><time>2026-04-11T17:09:02.999Z</time></trkpt><trkpt lat="44.29058779741903" lon="11.448556964864123"><ele>233.25</ele><time>2026-04-11T17:09:03.999Z</time></trkpt><trkpt lat="44.29071644789809" lon="11.448479260931167"><ele>232.0</ele><time>2026-04-11T17:09:04.999Z</time></trkpt><trkpt lat="44.290857819248885" lon="11.448426977839242"><ele>232.0</ele><time>2026-04-11T17:09:05.999Z</time></trkpt><trkpt lat="44.291012984905606" lon="11.448394163438143"><ele>232.0</ele><time>2026-04-11T17:09:06.999Z</time></trkpt><trkpt lat="44.29116936334637" lon="11.448374065848636"><ele>232.0</ele><time>2026-04-11T17:09:07.999Z</time></trkpt><trkpt lat="44.291323473552225" lon="11.448361552518081"><ele>232.25</ele><time>2026-04-11T17:09:08.999Z</time></trkpt><trkpt lat="44.29146039201813" lon="11.448362869698327"><ele>232.5</ele><time>2026-04-11T17:09:09.999Z</time></trkpt><trkpt lat="44.29159459980277" lon="11.448359920340321"><ele>232.75</ele><time>2026-04-11T17:09:10.999Z</time></trkpt><trkpt lat="44.291736404312736" lon="11.44836950363886"><ele>233.0</ele><time>2026-04-11T17:09:11.999Z</time></trkpt><trkpt lat="44.291886259047665" lon="11.44840586483273"><ele>233.0</ele><time>2026-04-11T17:09:12.999Z</time></trkpt><trkpt lat="44.292016425926505" lon="11.448472988410167"><ele>233.0</ele><time>2026-04-11T17:09:13.999Z</time></trkpt><trkpt lat="44.292144501258996" lon="11.448535281825432"><ele>233.0</ele><time>2026-04-11T17:09:14.999Z</time></trkpt><trkpt lat="44.29226148837779" lon="11.448599923634866"><ele>233.0</ele><time>2026-04-11T17:09:15.999Z</time></trkpt><trkpt lat="44.29236319274895" lon="11.44865635663076"><ele>231.75</ele><time>2026-04-11T17:09:16.999Z</time></trkpt><trkpt lat="44.292467298247665" lon="11.448696413882997"><ele>230.5</ele><time>2026-04-11T17:09:17.999Z</time></trkpt><trkpt lat="44.292582891683644" lon="11.448666459892856"><ele>229.25</ele><time>2026-04-11T17:09:18.999Z</time></trkpt><trkpt lat="44.292687574824235" lon="11.448560618015625"><ele>228.0</ele><time>2026-04-11T17:09:19.998Z</time></trkpt><trkpt lat="44.29276785745152" lon="11.448405332981705"><ele>228.0</ele><time>2026-04-11T17:09:20.998Z</time></trkpt><trkpt lat="44.292839810667594" lon="11.448240633018845"><ele>228.0</ele><time>2026-04-11T17:09:21.998Z</time></trkpt><trkpt lat="44.29293320843484" lon="11.448121405938863"><ele>228.0</ele><time>2026-04-11T17:09:22.998Z</time></trkpt><trkpt lat="44.29301282481639" lon="11.448022042162428"><ele>228.0</ele><time>2026-04-11T17:09:23.998Z</time></trkpt><trkpt lat="44.29309526768841" lon="11.44792800278197"><ele>228.4</ele><time>2026-04-11T17:09:25Z</time></trkpt><trkpt lat="44.29317797584294" lon="11.447855579064429"><ele>228.8</ele><time>2026-04-11T17:09:26Z</time></trkpt><trkpt lat="44.29327626247997" lon="11.447839863708825"><ele>229.2</ele><time>2026-04-11T17:09:27Z</time></trkpt><trkpt lat="44.293385884316564" lon="11.447869899295286"><ele>229.6</ele><time>2026-04-11T17:09:28Z</time></trkpt><trkpt lat="44.29348508797027" lon="11.44797727633841"><ele>230.0</ele><time>2026-04-11T17:09:29Z</time></trkpt><trkpt lat="44.29358948862259" lon="11.448092977304153"><ele>230.0</ele><time>2026-04-11T17:09:30Z</time></trkpt><trkpt lat="44.29367862135928" lon="11.448218471469078"><ele>230.0</ele><time>2026-04-11T17:09:31Z</time></trkpt><trkpt lat="44.29379935691914" lon="11.448280467249969"><ele>230.0</ele><time>2026-04-11T17:09:32Z</time></trkpt><trkpt lat="44.29393849987997" lon="11.448271616958476"><ele>230.0</ele><time>2026-04-11T17:09:33Z</time></trkpt><trkpt lat="44.294078037987504" lon="11.44822099552581"><ele>230.0</ele><time>2026-04-11T17:09:34Z</time></trkpt><trkpt lat="44.294201433449835" lon="11.448166407204369"><ele>230.0</ele><time>2026-04-11T17:09:35Z</time></trkpt><trkpt lat="44.29432174075036" lon="11.448108337300903"><ele>230.0</ele><time>2026-04-11T17:09:36Z</time></trkpt><trkpt lat="44.29444007858817" lon="11.448011713562096"><ele>230.0</ele><time>2026-04-11T17:09:37Z</time></trkpt><trkpt lat="44.29454440849929" lon="11.447878307493001"><ele>229.25</ele><time>2026-04-11T17:09:38Z</time></trkpt><trkpt lat="44.294647596000736" lon="11.447726512599456"><ele>228.5</ele><time>2026-04-11T17:09:39Z</time></trkpt><trkpt lat="44.294749983562696" lon="11.447580080664473"><ele>227.75</ele><time>2026-04-11T17:09:40Z</time></trkpt><trkpt lat="44.294854499879705" lon="11.447458353897305"><ele>227.0</ele><time>2026-04-11T17:09:41Z</time></trkpt><trkpt lat="44.294961920494366" lon="11.447335074209219"><ele>227.0</ele><time>2026-04-11T17:09:42Z</time></trkpt><trkpt lat="44.29506969907319" lon="11.447237764575256"><ele>227.0</ele><time>2026-04-11T17:09:43Z</time></trkpt><trkpt lat="44.29517028771846" lon="11.447126306631096"><ele>227.0</ele><time>2026-04-11T17:09:44Z</time></trkpt><trkpt lat="44.29527235436275" lon="11.447029650034386"><ele>227.0</ele><time>2026-04-11T17:09:45Z</time></trkpt><trkpt lat="44.29537129921134" lon="11.446944642217005"><ele>225.0</ele><time>2026-04-11T17:09:46Z</time></trkpt><trkpt lat="44.29549826036382" lon="11.446924445624163"><ele>223.0</ele><time>2026-04-11T17:09:47Z</time></trkpt><trkpt lat="44.29563599815843" lon="11.446937090844019"><ele>221.0</ele><time>2026-04-11T17:09:48Z</time></trkpt><trkpt lat="44.295772452092834" lon="11.446989087017975"><ele>219.0</ele><time>2026-04-11T17:09:49Z</time></trkpt><trkpt lat="44.29591282946976" lon="11.447067095277976"><ele>220.75</ele><time>2026-04-11T17:09:50Z</time></trkpt><trkpt lat="44.29604700276005" lon="11.447165794588972"><ele>222.5</ele><time>2026-04-11T17:09:51Z</time></trkpt><trkpt lat="44.29616573961215" lon="11.447262333497001"><ele>224.25</ele><time>2026-04-11T17:09:52Z</time></trkpt><trkpt lat="44.296293951375624" lon="11.44733938573315"><ele>226.0</ele><time>2026-04-11T17:09:53Z</time></trkpt><trkpt lat="44.29644837145368" lon="11.447355375200669"><ele>226.0</ele><time>2026-04-11T17:09:54Z</time></trkpt><trkpt lat="44.29658716952435" lon="11.447342137249096"><ele>226.0</ele><time>2026-04-11T17:09:55Z</time></trkpt><trkpt lat="44.296711520894824" lon="11.447323932873054"><ele>226.0</ele><time>2026-04-11T17:09:56Z</time></trkpt><trkpt lat="44.296822023764435" lon="11.447273001099932"><ele>226.0</ele><time>2026-04-11T17:09:57Z</time></trkpt><trkpt lat="44.29691934675803" lon="11.447169344689218"><ele>223.60000000000002</ele><time>2026-04-11T17:09:58Z</time></trkpt><trkpt lat="44.29701017476182" lon="11.44705243839428"><ele>221.20000000000002</ele><time>2026-04-11T17:09:59Z</time></trkpt><trkpt lat="44.2970809665038" lon="11.446949597181472"><ele>218.79999999999998</ele><time>2026-04-11T17:10:00Z</time></trkpt><trkpt lat="44.29716849676985" lon="11.446864363670306"><ele>216.39999999999998</ele><time>2026-04-11T17:10:01Z</time></trkpt><trkpt lat="44.29727892836263" lon="11.446834443166049"><ele>214.0</ele><time>2026-04-11T17:10:02Z</time></trkpt><trkpt lat="44.29740269305499" lon="11.44686741116069"><ele>213.5</ele><time>2026-04-11T17:10:03Z</time></trkpt><trkpt lat="44.29753837296021" lon="11.446879449118832"><ele>213.0</ele><time>2026-04-11T17:10:04Z</time></trkpt><trkpt lat="44.29766750705378" lon="11.446908458746098"><ele>212.5</ele><time>2026-04-11T17:10:05Z</time></trkpt><trkpt lat="44.29780358214377" lon="11.446882020889074"><ele>212.0</ele><time>2026-04-11T17:10:06Z</time></trkpt><trkpt lat="44.297942652152116" lon="11.44681664258615"><ele>212.0</ele><time>2026-04-11T17:10:07Z</time></trkpt><trkpt lat="44.298071655289874" lon="11.446741435352074"><ele>212.0</ele><time>2026-04-11T17:10:08Z</time></trkpt><trkpt lat="44.29820539720927" lon="11.446687951791432"><ele>212.0</ele><time>2026-04-11T17:10:09Z</time></trkpt><trkpt lat="44.29833047447965" lon="11.446602902423775"><ele>212.0</ele><time>2026-04-11T17:10:10Z</time></trkpt><trkpt lat="44.2984610845205" lon="11.44657348101826"><ele>212.0</ele><time>2026-04-11T17:10:11Z</time></trkpt><trkpt lat="44.29858001986484" lon="11.44655889145321"><ele>212.0</ele><time>2026-04-11T17:10:12Z</time></trkpt><trkpt lat="44.29870208446577" lon="11.44658763494975"><ele>212.0</ele><time>2026-04-11T17:10:13Z</time></trkpt><trkpt lat="44.298824305750266" lon="11.446668303277164"><ele>212.0</ele><time>2026-04-11T17:10:14Z</time></trkpt><trkpt lat="44.298945577304124" lon="11.446768074500842"><ele>212.0</ele><time>2026-04-11T17:10:15Z</time></trkpt><trkpt lat="44.29907418427814" lon="11.44686421941849"><ele>212.0</ele><time>2026-04-11T17:10:15.999Z</time></trkpt><trkpt lat="44.29921522808472" lon="11.446942003487102"><ele>212.0</ele><time>2026-04-11T17:10:16.999Z</time></trkpt><trkpt lat="44.299369267041584" lon="11.446957327330434"><ele>212.0</ele><time>2026-04-11T17:10:17.999Z</time></trkpt><trkpt lat="44.299522178465" lon="11.446948405461015"><ele>212.0</ele><time>2026-04-11T17:10:18.999Z</time></trkpt><trkpt lat="44.29968438849955" lon="11.446948584713345"><ele>212.0</ele><time>2026-04-11T17:10:19.999Z</time></trkpt><trkpt lat="44.29983521875892" lon="11.44703869878976"><ele>211.66666666666669</ele><time>2026-04-11T17:10:20.999Z</time></trkpt><trkpt lat="44.29999036826754" lon="11.447100321539706"><ele>211.33333333333331</ele><time>2026-04-11T17:10:21.999Z</time></trkpt><trkpt lat="44.30012768342032" lon="11.447176780269785"><ele>211.0</ele><time>2026-04-11T17:10:22.999Z</time></trkpt><trkpt lat="44.300261717798456" lon="11.447236976792757"><ele>211.0</ele><time>2026-04-11T17:10:23.999Z</time></trkpt><trkpt lat="44.30038864225421" lon="11.447288889879701"><ele>211.0</ele><time>2026-04-11T17:10:24.999Z</time></trkpt><trkpt lat="44.30052346327544" lon="11.447349078595185"><ele>211.0</ele><time>2026-04-11T17:10:25.999Z</time></trkpt><trkpt lat="44.30064928921788" lon="11.447444272066452"><ele>211.0</ele><time>2026-04-11T17:10:26.999Z</time></trkpt><trkpt lat="44.30078656147131" lon="11.447528500850751"><ele>211.0</ele><time>2026-04-11T17:10:27.999Z</time></trkpt><trkpt lat="44.30089785334081" lon="11.44765458711469"><ele>211.0</ele><time>2026-04-11T17:10:28.999Z</time></trkpt><trkpt lat="44.30103626739488" lon="11.447749632048259"><ele>211.0</ele><time>2026-04-11T17:10:29.999Z</time></trkpt><trkpt lat="44.30116218722787" lon="11.447873962437441"><ele>211.0</ele><time>2026-04-11T17:10:30.999Z</time></trkpt><trkpt lat="44.30128502026428" lon="11.448010664422144"><ele>211.0</ele><time>2026-04-11T17:10:31.999Z</time></trkpt><trkpt lat="44.301393140821254" lon="11.4481394261399"><ele>211.0</ele><time>2026-04-11T17:10:32.999Z</time></trkpt><trkpt lat="44.30149268369481" lon="11.448259282243699"><ele>211.0</ele><time>2026-04-11T17:10:33.999Z</time></trkpt><trkpt lat="44.30157688803172" lon="11.448380833121751"><ele>211.0</ele><time>2026-04-11T17:10:34.999Z</time></trkpt><trkpt lat="44.30165293159738" lon="11.448496610619376"><ele>211.0</ele><time>2026-04-11T17:10:35.999Z</time></trkpt><trkpt lat="44.30172774399472" lon="11.448614076842906"><ele>211.0</ele><time>2026-04-11T17:10:36.999Z</time></trkpt><trkpt lat="44.30179343076811" lon="11.448732293781179"><ele>211.0</ele><time>2026-04-11T17:10:37.999Z</time></trkpt><trkpt lat="44.30187518509665" lon="11.448829044484281"><ele>211.0</ele><time>2026-04-11T17:10:38.999Z</time></trkpt><trkpt lat="44.301977830998666" lon="11.4488579952334"><ele>211.0</ele><time>2026-04-11T17:10:39.999Z</time></trkpt><trkpt lat="44.302100788243195" lon="11.44882363667974"><ele>211.0</ele><time>2026-04-11T17:10:40.999Z</time></trkpt><trkpt lat="44.302228764994375" lon="11.44874018251811"><ele>211.0</ele><time>2026-04-11T17:10:41.999Z</time></trkpt><trkpt lat="44.30235691461039" lon="11.44867754822631"><ele>211.0</ele><time>2026-04-11T17:10:42.999Z</time></trkpt><trkpt lat="44.302478041042974" lon="11.448617801399186"><ele>210.5</ele><time>2026-04-11T17:10:43.999Z</time></trkpt><trkpt lat="44.30259688223487" lon="11.448562147699077"><ele>210.0</ele><time>2026-04-11T17:10:44.999Z</time></trkpt><trkpt lat="44.30271705989655" lon="11.448533838985274"><ele>209.5</ele><time>2026-04-11T17:10:45.999Z</time></trkpt><trkpt lat="44.30284898323824" lon="11.448556191328848"><ele>209.0</ele><time>2026-04-11T17:10:46.999Z</time></trkpt><trkpt lat="44.30298034131787" lon="11.44860020826963"><ele>209.25</ele><time>2026-04-11T17:10:47.999Z</time></trkpt><trkpt lat="44.30309416149564" lon="11.448697740159107"><ele>209.5</ele><time>2026-04-11T17:10:48.999Z</time></trkpt><trkpt lat="44.30320329629863" lon="11.448821277710401"><ele>209.75</ele><time>2026-04-11T17:10:49.999Z</time></trkpt><trkpt lat="44.30329913566199" lon="11.448964608266692"><ele>210.0</ele><time>2026-04-11T17:10:50.999Z</time></trkpt><trkpt lat="44.30338342657891" lon="11.449109144694285"><ele>210.0</ele><time>2026-04-11T17:10:51.999Z</time></trkpt><trkpt lat="44.303464852156964" lon="11.449253267788048"><ele>210.0</ele><time>2026-04-11T17:10:52.999Z</time></trkpt><trkpt lat="44.30357016643908" lon="11.449371035111783"><ele>210.0</ele><time>2026-04-11T17:10:53.999Z</time></trkpt><trkpt lat="44.30369642771993" lon="11.449474465968958"><ele>210.0</ele><time>2026-04-11T17:10:54.999Z</time></trkpt><trkpt lat="44.30382317688983" lon="11.449572408879554"><ele>209.66666666666669</ele><time>2026-04-11T17:10:55.999Z</time></trkpt><trkpt lat="44.303939799450774" lon="11.449685727802388"><ele>209.33333333333334</ele><time>2026-04-11T17:10:56.999Z</time></trkpt><trkpt lat="44.30406992907876" lon="11.449798013915697"><ele>209.0</ele><time>2026-04-11T17:10:57.999Z</time></trkpt><trkpt lat="44.30420216648288" lon="11.449916547883863"><ele>209.0</ele><time>2026-04-11T17:10:58.999Z</time></trkpt><trkpt lat="44.3043252378541" lon="11.450039177868371"><ele>209.0</ele><time>2026-04-11T17:10:59.999Z</time></trkpt><trkpt lat="44.304444529520886" lon="11.450174609907828"><ele>209.0</ele><time>2026-04-11T17:11:00.999Z</time></trkpt><trkpt lat="44.304561276792285" lon="11.450303479330993"><ele>209.0</ele><time>2026-04-11T17:11:01.999Z</time></trkpt><trkpt lat="44.30467839027938" lon="11.450417208987597"><ele>209.0</ele><time>2026-04-11T17:11:02.999Z</time></trkpt><trkpt lat="44.304807368437345" lon="11.45052784300479"><ele>209.0</ele><time>2026-04-11T17:11:03.999Z</time></trkpt><trkpt lat="44.304946443568035" lon="11.450623003335503"><ele>209.0</ele><time>2026-04-11T17:11:04.999Z</time></trkpt><trkpt lat="44.30509143929785" lon="11.450695715377536"><ele>208.25</ele><time>2026-04-11T17:11:05.999Z</time></trkpt><trkpt lat="44.305232579266296" lon="11.450762511613643"><ele>207.5</ele><time>2026-04-11T17:11:06.999Z</time></trkpt><trkpt lat="44.305361119025704" lon="11.450859886809967"><ele>206.75</ele><time>2026-04-11T17:11:07.999Z</time></trkpt><trkpt lat="44.30548323798494" lon="11.450955430160466"><ele>206.0</ele><time>2026-04-11T17:11:08.999Z</time></trkpt><trkpt lat="44.30559876450598" lon="11.451054694760025"><ele>206.0</ele><time>2026-04-11T17:11:09.999Z</time></trkpt><trkpt lat="44.30570955071062" lon="11.451192329011763"><ele>206.0</ele><time>2026-04-11T17:11:10.999Z</time></trkpt><trkpt lat="44.3058061610942" lon="11.451336942219989"><ele>206.0</ele><time>2026-04-11T17:11:11.999Z</time></trkpt><trkpt lat="44.30589238030026" lon="11.451503021930812"><ele>206.0</ele><time>2026-04-11T17:11:12.999Z</time></trkpt><trkpt lat="44.30597154801322" lon="11.451681314865555"><ele>205.25</ele><time>2026-04-11T17:11:13.999Z</time></trkpt><trkpt lat="44.306031823131256" lon="11.451866568724764"><ele>204.5</ele><time>2026-04-11T17:11:14.999Z</time></trkpt><trkpt lat="44.306072639681695" lon="11.452051470406083"><ele>203.75</ele><time>2026-04-11T17:11:15.999Z</time></trkpt><trkpt lat="44.306112684239196" lon="11.452212102385309"><ele>203.0</ele><time>2026-04-11T17:11:16.999Z</time></trkpt><trkpt lat="44.30617943687672" lon="11.452360136974574"><ele>201.75</ele><time>2026-04-11T17:11:17.999Z</time></trkpt><trkpt lat="44.30626247091224" lon="11.452504485362388"><ele>200.5</ele><time>2026-04-11T17:11:18.999Z</time></trkpt><trkpt lat="44.3063655691618" lon="11.452631940938502"><ele>199.25</ele><time>2026-04-11T17:11:19.999Z</time></trkpt><trkpt lat="44.30648536458796" lon="11.452738237036877"><ele>198.0</ele><time>2026-04-11T17:11:20.999Z</time></trkpt><trkpt lat="44.30660407059496" lon="11.452845748517905"><ele>198.0</ele><time>2026-04-11T17:11:21.999Z</time></trkpt><trkpt lat="44.30672621547964" lon="11.45293948724235"><ele>198.0</ele><time>2026-04-11T17:11:22.999Z</time></trkpt><trkpt lat="44.30682733085603" lon="11.453028191837436"><ele>198.0</ele><time>2026-04-11T17:11:23.999Z</time></trkpt><trkpt lat="44.306914063858585" lon="11.453140887143123"><ele>198.0</ele><time>2026-04-11T17:11:24.998Z</time></trkpt><trkpt lat="44.30699479529584" lon="11.453277114167625"><ele>198.0</ele><time>2026-04-11T17:11:25.998Z</time></trkpt><trkpt lat="44.30706504264112" lon="11.453429790908507"><ele>198.0</ele><time>2026-04-11T17:11:26.998Z</time></trkpt><trkpt lat="44.30712939451151" lon="11.453589036196385"><ele>198.0</ele><time>2026-04-11T17:11:27.998Z</time></trkpt><trkpt lat="44.30719463458014" lon="11.453751644104146"><ele>198.0</ele><time>2026-04-11T17:11:28.998Z</time></trkpt><trkpt lat="44.307256679348484" lon="11.453907521760234"><ele>197.75</ele><time>2026-04-11T17:11:29.998Z</time></trkpt><trkpt lat="44.307327368056086" lon="11.454078608523497"><ele>197.5</ele><time>2026-04-11T17:11:31Z</time></trkpt><trkpt lat="44.30740428258388" lon="11.454252185003668"><ele>197.25</ele><time>2026-04-11T17:11:32Z</time></trkpt><trkpt lat="44.30748447177768" lon="11.454439196951032"><ele>197.0</ele><time>2026-04-11T17:11:33Z</time></trkpt><trkpt lat="44.30756156970652" lon="11.454631495918678"><ele>197.0</ele><time>2026-04-11T17:11:34Z</time></trkpt><trkpt lat="44.307634034894626" lon="11.454835362203841"><ele>197.0</ele><time>2026-04-11T17:11:35Z</time></trkpt><trkpt lat="44.3077022550846" lon="11.455035613521511"><ele>197.0</ele><time>2026-04-11T17:11:36Z</time></trkpt><trkpt lat="44.307763062613084" lon="11.455226006618783"><ele>197.0</ele><time>2026-04-11T17:11:37Z</time></trkpt><trkpt lat="44.307827196045594" lon="11.455414314712218"><ele>197.0</ele><time>2026-04-11T17:11:38Z</time></trkpt><trkpt lat="44.30789738457987" lon="11.45560840355265"><ele>197.0</ele><time>2026-04-11T17:11:39Z</time></trkpt><trkpt lat="44.307968158169565" lon="11.455801202920954"><ele>196.66666666666669</ele><time>2026-04-11T17:11:40Z</time></trkpt><trkpt lat="44.30803458247817" lon="11.456005851555561"><ele>196.33333333333331</ele><time>2026-04-11T17:11:41Z</time></trkpt><trkpt lat="44.30809660702324" lon="11.45621501718081"><ele>196.0</ele><time>2026-04-11T17:11:42Z</time></trkpt><trkpt lat="44.30814926521863" lon="11.456411476253502"><ele>195.5</ele><time>2026-04-11T17:11:43Z</time></trkpt><trkpt lat="44.308196123578085" lon="11.456608149443198"><ele>195.0</ele><time>2026-04-11T17:11:44Z</time></trkpt><trkpt lat="44.30824120318813" lon="11.45679001945726"><ele>194.5</ele><time>2026-04-11T17:11:45Z</time></trkpt><trkpt lat="44.308289411083436" lon="11.456963246414709"><ele>194.0</ele><time>2026-04-11T17:11:46Z</time></trkpt><trkpt lat="44.3083529286272" lon="11.457134369271381"><ele>193.25</ele><time>2026-04-11T17:11:47Z</time></trkpt><trkpt lat="44.30844540683044" lon="11.45729031430416"><ele>192.5</ele><time>2026-04-11T17:11:48Z</time></trkpt><trkpt lat="44.30856303950008" lon="11.457406360760494"><ele>191.75</ele><time>2026-04-11T17:11:49Z</time></trkpt><trkpt lat="44.308704715251665" lon="11.457486627188489"><ele>191.0</ele><time>2026-04-11T17:11:50Z</time></trkpt><trkpt lat="44.30884491154663" lon="11.45756145173878"><ele>191.5</ele><time>2026-04-11T17:11:51Z</time></trkpt><trkpt lat="44.30897962090965" lon="11.457644821083047"><ele>192.0</ele><time>2026-04-11T17:11:52Z</time></trkpt><trkpt lat="44.3091087949363" lon="11.457723904897543"><ele>192.5</ele><time>2026-04-11T17:11:53Z</time></trkpt><trkpt lat="44.30922674134662" lon="11.457795509542382"><ele>193.0</ele><time>2026-04-11T17:11:54Z</time></trkpt><trkpt lat="44.30933451240472" lon="11.457860923063398"><ele>193.0</ele><time>2026-04-11T17:11:55Z</time></trkpt><trkpt lat="44.30943782074846" lon="11.457925574252812"><ele>193.0</ele><time>2026-04-11T17:11:56Z</time></trkpt><trkpt lat="44.309531473142265" lon="11.457985773629344"><ele>193.0</ele><time>2026-04-11T17:11:57Z</time></trkpt><trkpt lat="44.309616224054615" lon="11.45805323536421"><ele>193.0</ele><time>2026-04-11T17:11:58Z</time></trkpt><trkpt lat="44.30970546439913" lon="11.458129991426711"><ele>193.0</ele><time>2026-04-11T17:11:59Z</time></trkpt><trkpt lat="44.30978474490158" lon="11.458192834127178"><ele>192.8</ele><time>2026-04-11T17:12:00Z</time></trkpt><trkpt lat="44.309837219054856" lon="11.458248180568456"><ele>192.60000000000002</ele><time>2026-04-11T17:12:01Z</time></trkpt><trkpt lat="44.30992426219063" lon="11.458328941311164"><ele>192.39999999999998</ele><time>2026-04-11T17:12:03Z</time></trkpt><trkpt lat="44.310014677094934" lon="11.458323645595177"><ele>192.2</ele><time>2026-04-11T17:12:05Z</time></trkpt><trkpt lat="44.31010181552691" lon="11.458341073415317"><ele>192.0</ele><time>2026-04-11T17:12:08Z</time></trkpt><trkpt lat="44.31016889732276" lon="11.45847381762696"><ele>192.0</ele><time>2026-04-11T17:12:10Z</time></trkpt><trkpt lat="44.3102174670961" lon="11.458556144861587"><ele>192.0</ele><time>2026-04-11T17:12:11Z</time></trkpt><trkpt lat="44.3102772705047" lon="11.458653923939705"><ele>192.0</ele><time>2026-04-11T17:12:12Z</time></trkpt><trkpt lat="44.31034267360404" lon="11.45875334200093"><ele>192.0</ele><time>2026-04-11T17:12:13Z</time></trkpt><trkpt lat="44.31039724204029" lon="11.458835831324109"><ele>192.0</ele><time>2026-04-11T17:12:14Z</time></trkpt><trkpt lat="44.31044131266279" lon="11.458927902795253"><ele>192.0</ele><time>2026-04-11T17:12:15Z</time></trkpt><trkpt lat="44.31049441660821" lon="11.459021086405842"><ele>191.85714285714283</ele><time>2026-04-11T17:12:16Z</time></trkpt><trkpt lat="44.3105390592897" lon="11.459091737235536"><ele>191.71428571428572</ele><time>2026-04-11T17:12:17Z</time></trkpt><trkpt lat="44.31060091420826" lon="11.459184417277253"><ele>191.57142857142856</ele><time>2026-04-11T17:12:19Z</time></trkpt><trkpt lat="44.31065495321063" lon="11.459250218244843"><ele>191.42857142857142</ele><time>2026-04-11T17:12:22.999Z</time></trkpt><trkpt lat="44.31065750954373" lon="11.459360594944426"><ele>191.28571428571428</ele><time>2026-04-11T17:12:39.999Z</time></trkpt><trkpt lat="44.31064255175873" lon="11.459446836735987"><ele>191.14285714285714</ele><time>2026-04-11T17:12:41.999Z</time></trkpt><trkpt lat="44.31064287609016" lon="11.459539543920041"><ele>191.0</ele><time>2026-04-11T17:12:43.999Z</time></trkpt><trkpt lat="44.31067555715534" lon="11.459630860840218"><ele>191.4</ele><time>2026-04-11T17:12:45.999Z</time></trkpt><trkpt lat="44.31085510083196" lon="11.459575014277087"><ele>191.8</ele><time>2026-04-11T17:13:03.999Z</time></trkpt><trkpt lat="44.31092049695395" lon="11.459519348999086"><ele>192.20000000000002</ele><time>2026-04-11T17:13:07.999Z</time></trkpt><trkpt lat="44.31098457086507" lon="11.459469715312688"><ele>192.60000000000002</ele><time>2026-04-11T17:13:09.999Z</time></trkpt><trkpt lat="44.31108134358183" lon="11.45939514620663"><ele>193.0</ele><time>2026-04-11T17:13:11.999Z</time></trkpt><trkpt lat="44.311159749012404" lon="11.45934123849461"><ele>192.99999999999997</ele><time>2026-04-11T17:13:13.999Z</time></trkpt><trkpt lat="44.311229668371034" lon="11.459293420540737"><ele>193.0</ele><time>2026-04-11T17:13:16.999Z</time></trkpt><trkpt lat="44.311326222117565" lon="11.459227386194911"><ele>193.0</ele><time>2026-04-11T17:13:27.999Z</time></trkpt><trkpt lat="44.311384915864565" lon="11.459176836753876"><ele>193.0</ele><time>2026-04-11T17:13:28.999Z</time></trkpt><trkpt lat="44.31145075654845" lon="11.459127225069626"><ele>192.99999999999997</ele><time>2026-04-11T17:13:29.999Z</time></trkpt><trkpt lat="44.31153166989897" lon="11.459064479457735"><ele>193.0</ele><time>2026-04-11T17:13:31.999Z</time></trkpt><trkpt lat="44.31159570117998" lon="11.459018732954904"><ele>193.99999999999997</ele><time>2026-04-11T17:14:38.999Z</time></trkpt><trkpt lat="44.31165321191382" lon="11.458978963343089"><ele>195.0</ele><time>2026-04-11T17:14:44.999Z</time></trkpt><trkpt lat="44.3117588361762" lon="11.459075164313695"><ele>196.0</ele><time>2026-04-11T17:15:01.999Z</time></trkpt><trkpt lat="44.31181400468415" lon="11.459125693484935"><ele>197.0</ele><time>2026-04-11T17:15:08.999Z</time></trkpt><trkpt lat="44.31185674185573" lon="11.459190771239866"><ele>197.99999999999997</ele><time>2026-04-11T17:15:16.999Z</time></trkpt><trkpt lat="44.311910108448956" lon="11.45926115265665"><ele>199.0</ele><time>2026-04-11T17:15:23.999Z</time></trkpt><trkpt lat="44.311950758553664" lon="11.45934221436976"><ele>198.99999999999997</ele><time>2026-04-11T17:15:30.998Z</time></trkpt><trkpt lat="44.31186754365635" lon="11.459395989226975"><ele>199.0</ele><time>2026-04-11T17:16:06Z</time></trkpt><trkpt lat="44.31185240544459" lon="11.45928824264013"><ele>199.0</ele><time>2026-04-11T17:16:11Z</time></trkpt><trkpt lat="44.31189438169327" lon="11.459362933810468"><ele>199.0</ele><time>2026-04-11T17:24:43Z</time></trkpt><trkpt lat="44.31195078884712" lon="11.459289011372164"><ele>198.99999999999997</ele><time>2026-04-11T17:24:50Z</time></trkpt><trkpt lat="44.311969014024356" lon="11.459196058554197"><ele>199.0</ele><time>2026-04-11T17:25:03.999Z</time></trkpt><trkpt lat="44.31199449607892" lon="11.459105249378334"><ele>199.0</ele><time>2026-04-11T17:25:10.999Z</time></trkpt><trkpt lat="44.31200946916065" lon="11.45901279316951"><ele>199.0</ele><time>2026-04-11T17:25:16.999Z</time></trkpt></trkseg><trkseg><trkpt lat="44.30585778179904" lon="11.451344684695258"><ele>203.00000000000003</ele><time>2026-04-12T08:06:46Z</time></trkpt><trkpt lat="44.30581949733841" lon="11.451414612714458"><ele>203.0</ele><time>2026-04-12T08:06:51Z</time></trkpt><trkpt lat="44.30573747931613" lon="11.451384338835348"><ele>203.0</ele><time>2026-04-12T08:06:58Z</time></trkpt><trkpt lat="44.305662858504775" lon="11.45144936729638"><ele>203.0</ele><time>2026-04-12T08:07:01Z</time></trkpt><trkpt lat="44.305652898219236" lon="11.45155169080924"><ele>203.00000000000003</ele><time>2026-04-12T08:07:04Z</time></trkpt><trkpt lat="44.30573841660096" lon="11.45162682907261"><ele>203.0</ele><time>2026-04-12T08:07:31.999Z</time></trkpt><trkpt lat="44.30579049261148" lon="11.451731482396132"><ele>203.0</ele><time>2026-04-12T08:07:33.999Z</time></trkpt><trkpt lat="44.30586294041438" lon="11.451861623958996"><ele>203.0</ele><time>2026-04-12T08:07:35.999Z</time></trkpt><trkpt lat="44.30597653102291" lon="11.451891876335665"><ele>203.0</ele><time>2026-04-12T08:07:36.999Z</time></trkpt><trkpt lat="44.30600365214971" lon="11.452026887647653"><ele>203.0</ele><time>2026-04-12T08:07:38.999Z</time></trkpt><trkpt lat="44.30602858872452" lon="11.45214533770401"><ele>203.0</ele><time>2026-04-12T08:07:40.999Z</time></trkpt><trkpt lat="44.30605892785847" lon="11.452240173407343"><ele>202.16666666666669</ele><time>2026-04-12T08:07:42.999Z</time></trkpt><trkpt lat="44.306100600573885" lon="11.452350299306978"><ele>201.33333333333334</ele><time>2026-04-12T08:07:44.999Z</time></trkpt><trkpt lat="44.306151420051386" lon="11.452446489875658"><ele>200.5</ele><time>2026-04-12T08:07:46.999Z</time></trkpt><trkpt lat="44.30620596328941" lon="11.45253368055227"><ele>199.66666666666669</ele><time>2026-04-12T08:07:49.999Z</time></trkpt><trkpt lat="44.30626007813643" lon="11.452608533306838"><ele>198.83333333333334</ele><time>2026-04-12T08:07:51.999Z</time></trkpt><trkpt lat="44.306338967578704" lon="11.452701937453984"><ele>198.0</ele><time>2026-04-12T08:07:53.999Z</time></trkpt><trkpt lat="44.30642165653849" lon="11.452792829115731"><ele>198.0</ele><time>2026-04-12T08:07:55.999Z</time></trkpt><trkpt lat="44.30648011436391" lon="11.452847449082872"><ele>198.0</ele><time>2026-04-12T08:07:57.999Z</time></trkpt><trkpt lat="44.306557975146944" lon="11.452910322996201"><ele>198.0</ele><time>2026-04-12T08:07:59.999Z</time></trkpt><trkpt lat="44.30666479220392" lon="11.452992776639944"><ele>198.0</ele><time>2026-04-12T08:08:01.999Z</time></trkpt><trkpt lat="44.30673986525229" lon="11.453048193354844"><ele>198.0</ele><time>2026-04-12T08:08:02.999Z</time></trkpt><trkpt lat="44.306793647400674" lon="11.453109200579147"><ele>198.0</ele><time>2026-04-12T08:08:03.999Z</time></trkpt><trkpt lat="44.306875956001534" lon="11.453209508540064"><ele>198.0</ele><time>2026-04-12T08:08:04.999Z</time></trkpt><trkpt lat="44.30693596588351" lon="11.45331419606306"><ele>198.0</ele><time>2026-04-12T08:08:05.999Z</time></trkpt><trkpt lat="44.30697524524153" lon="11.453402990752112"><ele>198.0</ele><time>2026-04-12T08:08:06.999Z</time></trkpt><trkpt lat="44.307024701513036" lon="11.453520008823727"><ele>198.0</ele><time>2026-04-12T08:08:08.999Z</time></trkpt><trkpt lat="44.30709472503249" lon="11.453685691084127"><ele>198.0</ele><time>2026-04-12T08:08:10.999Z</time></trkpt><trkpt lat="44.30713183952464" lon="11.453773507418783"><ele>197.2</ele><time>2026-04-12T08:08:11.999Z</time></trkpt><trkpt lat="44.30719097343648" lon="11.453913443264812"><ele>196.4</ele><time>2026-04-12T08:08:14Z</time></trkpt><trkpt lat="44.30725328336254" lon="11.454060419276791"><ele>195.6</ele><time>2026-04-12T08:08:16Z</time></trkpt><trkpt lat="44.30730372683647" lon="11.45417750054263"><ele>194.79999999999998</ele><time>2026-04-12T08:08:18Z</time></trkpt><trkpt lat="44.30734582257275" lon="11.454273664910426"><ele>194.0</ele><time>2026-04-12T08:08:21Z</time></trkpt><trkpt lat="44.307396889966185" lon="11.454329916396969"><ele>194.6</ele><time>2026-04-12T08:08:23Z</time></trkpt><trkpt lat="44.30747222819083" lon="11.454361483525314"><ele>195.2</ele><time>2026-04-12T08:08:26Z</time></trkpt><trkpt lat="44.30752801059212" lon="11.454553502801733"><ele>195.79999999999998</ele><time>2026-04-12T08:08:28Z</time></trkpt><trkpt lat="44.30757389145799" lon="11.454653749710195"><ele>196.39999999999998</ele><time>2026-04-12T08:08:29Z</time></trkpt><trkpt lat="44.30761626039402" lon="11.454776534026378"><ele>197.0</ele><time>2026-04-12T08:08:30Z</time></trkpt><trkpt lat="44.30765953306619" lon="11.454901019174985"><ele>197.0</ele><time>2026-04-12T08:08:31Z</time></trkpt><trkpt lat="44.307706929235266" lon="11.455034540569182"><ele>197.0</ele><time>2026-04-12T08:08:32Z</time></trkpt><trkpt lat="44.3077589852356" lon="11.45518374206446"><ele>197.0</ele><time>2026-04-12T08:08:33Z</time></trkpt><trkpt lat="44.30780997131115" lon="11.455337369653478"><ele>197.0</ele><time>2026-04-12T08:08:34Z</time></trkpt><trkpt lat="44.30786281892031" lon="11.455492000840144"><ele>196.75</ele><time>2026-04-12T08:08:35Z</time></trkpt><trkpt lat="44.30792487850096" lon="11.455647600836667"><ele>196.5</ele><time>2026-04-12T08:08:36Z</time></trkpt><trkpt lat="44.30796784804424" lon="11.455821900462729"><ele>196.25</ele><time>2026-04-12T08:08:37Z</time></trkpt><trkpt lat="44.30803216393969" lon="11.455987055212782"><ele>196.0</ele><time>2026-04-12T08:08:38Z</time></trkpt><trkpt lat="44.30808678286505" lon="11.456163084371177"><ele>195.5</ele><time>2026-04-12T08:08:39Z</time></trkpt><trkpt lat="44.308135930496796" lon="11.456344655760542"><ele>195.0</ele><time>2026-04-12T08:08:40Z</time></trkpt><trkpt lat="44.3081799138232" lon="11.45652260461216"><ele>194.5</ele><time>2026-04-12T08:08:41Z</time></trkpt><trkpt lat="44.3082178562159" lon="11.456690644336186"><ele>194.0</ele><time>2026-04-12T08:08:42Z</time></trkpt><trkpt lat="44.30825833913896" lon="11.456851073215136"><ele>194.0</ele><time>2026-04-12T08:08:43Z</time></trkpt><trkpt lat="44.30830190889844" lon="11.45700333835742"><ele>194.0</ele><time>2026-04-12T08:08:44Z</time></trkpt><trkpt lat="44.30834186049087" lon="11.45713925622171"><ele>194.0</ele><time>2026-04-12T08:08:45Z</time></trkpt><trkpt lat="44.30840493277756" lon="11.457244938326886"><ele>194.0</ele><time>2026-04-12T08:08:46Z</time></trkpt><trkpt lat="44.30846759678836" lon="11.457330741602807"><ele>194.0</ele><time>2026-04-12T08:08:47Z</time></trkpt><trkpt lat="44.30852634551512" lon="11.457383810842362"><ele>193.79999999999998</ele><time>2026-04-12T08:08:48Z</time></trkpt><trkpt lat="44.30858862437755" lon="11.457433295215695"><ele>193.6</ele><time>2026-04-12T08:08:49Z</time></trkpt><trkpt lat="44.30867434276584" lon="11.457479048113923"><ele>193.4</ele><time>2026-04-12T08:08:50Z</time></trkpt><trkpt lat="44.308778807522884" lon="11.457535800941255"><ele>193.2</ele><time>2026-04-12T08:08:51Z</time></trkpt><trkpt lat="44.30889169382759" lon="11.457595227452511"><ele>193.0</ele><time>2026-04-12T08:08:52Z</time></trkpt><trkpt lat="44.30900915725603" lon="11.457660603824916"><ele>193.0</ele><time>2026-04-12T08:08:53Z</time></trkpt><trkpt lat="44.309124287121676" lon="11.457722162242936"><ele>193.0</ele><time>2026-04-12T08:08:54Z</time></trkpt><trkpt lat="44.309229604017624" lon="11.457802144128676"><ele>193.0</ele><time>2026-04-12T08:08:55Z</time></trkpt><trkpt lat="44.30933376363577" lon="11.457866656683024"><ele>193.0</ele><time>2026-04-12T08:08:56Z</time></trkpt><trkpt lat="44.3094448851329" lon="11.457930410786465"><ele>192.75</ele><time>2026-04-12T08:08:57Z</time></trkpt><trkpt lat="44.30955627881164" lon="11.458002423093316"><ele>192.5</ele><time>2026-04-12T08:08:58Z</time></trkpt><trkpt lat="44.309665715492" lon="11.45807468882605"><ele>192.25</ele><time>2026-04-12T08:08:59Z</time></trkpt><trkpt lat="44.3097718840665" lon="11.458161841154133"><ele>192.0</ele><time>2026-04-12T08:09:00Z</time></trkpt><trkpt lat="44.30987248512963" lon="11.458257221497135"><ele>192.0</ele><time>2026-04-12T08:09:01Z</time></trkpt><trkpt lat="44.30996781162716" lon="11.458365119230058"><ele>192.0</ele><time>2026-04-12T08:09:02Z</time></trkpt><trkpt lat="44.31005380480911" lon="11.458484219797297"><ele>192.0</ele><time>2026-04-12T08:09:03Z</time></trkpt><trkpt lat="44.31013547915462" lon="11.458608533929834"><ele>192.0</ele><time>2026-04-12T08:09:04Z</time></trkpt><trkpt lat="44.310215662141275" lon="11.458733718818296"><ele>191.8</ele><time>2026-04-12T08:09:05Z</time></trkpt><trkpt lat="44.3102927917541" lon="11.458861312242618"><ele>191.6</ele><time>2026-04-12T08:09:06Z</time></trkpt><trkpt lat="44.31036654210923" lon="11.458991133057458"><ele>191.4</ele><time>2026-04-12T08:09:07Z</time></trkpt><trkpt lat="44.3104271580299" lon="11.459103883676121"><ele>191.20000000000002</ele><time>2026-04-12T08:09:08Z</time></trkpt><trkpt lat="44.31047725469218" lon="11.459201189782478"><ele>191.0</ele><time>2026-04-12T08:09:09Z</time></trkpt><trkpt lat="44.31052195189966" lon="11.459276791130922"><ele>191.0</ele><time>2026-04-12T08:09:10Z</time></trkpt><trkpt lat="44.310563091219784" lon="11.459349122856214"><ele>191.0</ele><time>2026-04-12T08:09:10.999Z</time></trkpt><trkpt lat="44.31057928999716" lon="11.459490826749608"><ele>191.0</ele><time>2026-04-12T08:09:12.999Z</time></trkpt><trkpt lat="44.31051568424811" lon="11.459523445337629"><ele>191.0</ele><time>2026-04-12T08:09:13.999Z</time></trkpt><trkpt lat="44.310474665656734" lon="11.459626599206748"><ele>191.0</ele><time>2026-04-12T08:09:14.999Z</time></trkpt><trkpt lat="44.31040523125175" lon="11.459707441447984"><ele>191.0</ele><time>2026-04-12T08:09:15.999Z</time></trkpt><trkpt lat="44.31032176816771" lon="11.4598218995288"><ele>191.25</ele><time>2026-04-12T08:09:16.999Z</time></trkpt><trkpt lat="44.31023867764009" lon="11.459959193796939"><ele>191.5</ele><time>2026-04-12T08:09:17.999Z</time></trkpt><trkpt lat="44.310125001128206" lon="11.460088400046994"><ele>191.75</ele><time>2026-04-12T08:09:18.999Z</time></trkpt><trkpt lat="44.31003199558668" lon="11.460234618936614"><ele>192.0</ele><time>2026-04-12T08:09:19.999Z</time></trkpt><trkpt lat="44.30995379109321" lon="11.460368863294647"><ele>191.5</ele><time>2026-04-12T08:09:20.999Z</time></trkpt><trkpt lat="44.309897715946036" lon="11.460508684269394"><ele>191.0</ele><time>2026-04-12T08:09:21.999Z</time></trkpt><trkpt lat="44.30986527828504" lon="11.460678277082696"><ele>190.5</ele><time>2026-04-12T08:09:22.999Z</time></trkpt><trkpt lat="44.30983991391317" lon="11.460846478624337"><ele>190.0</ele><time>2026-04-12T08:09:23.999Z</time></trkpt><trkpt lat="44.309812794599644" lon="11.46101194930197"><ele>190.0</ele><time>2026-04-12T08:09:24.999Z</time></trkpt><trkpt lat="44.30978528178048" lon="11.46115490725736"><ele>190.0</ele><time>2026-04-12T08:09:25.999Z</time></trkpt><trkpt lat="44.30973610028881" lon="11.46129808536481"><ele>190.0</ele><time>2026-04-12T08:09:26.999Z</time></trkpt><trkpt lat="44.30963898002966" lon="11.461406838974389"><ele>190.0</ele><time>2026-04-12T08:09:27.999Z</time></trkpt><trkpt lat="44.309554377503105" lon="11.461540404950371"><ele>189.5</ele><time>2026-04-12T08:09:28.999Z</time></trkpt><trkpt lat="44.30947365564277" lon="11.461688939905208"><ele>189.0</ele><time>2026-04-12T08:09:29.999Z</time></trkpt><trkpt lat="44.30938691461627" lon="11.461839575097699"><ele>188.5</ele><time>2026-04-12T08:09:30.999Z</time></trkpt><trkpt lat="44.309297745075334" lon="11.461989908629661"><ele>188.0</ele><time>2026-04-12T08:09:31.999Z</time></trkpt><trkpt lat="44.30921865560598" lon="11.462126133875586"><ele>187.2</ele><time>2026-04-12T08:09:32.999Z</time></trkpt><trkpt lat="44.309131470341185" lon="11.462245428237077"><ele>186.4</ele><time>2026-04-12T08:09:33.999Z</time></trkpt><trkpt lat="44.309068311789886" lon="11.462378963794276"><ele>185.6</ele><time>2026-04-12T08:09:34.999Z</time></trkpt><trkpt lat="44.308997360719125" lon="11.462473763036387"><ele>184.79999999999998</ele><time>2026-04-12T08:09:35.999Z</time></trkpt><trkpt lat="44.308936493739196" lon="11.462555946968367"><ele>184.0</ele><time>2026-04-12T08:09:36.999Z</time></trkpt><trkpt lat="44.30889084030942" lon="11.462618601336429"><ele>184.0</ele><time>2026-04-12T08:09:37.999Z</time></trkpt><trkpt lat="44.30882186219996" lon="11.462663433928928"><ele>184.0</ele><time>2026-04-12T08:09:39.999Z</time></trkpt><trkpt lat="44.30874644370741" lon="11.462695507331459"><ele>184.0</ele><time>2026-04-12T08:09:42.999Z</time></trkpt><trkpt lat="44.30870145371727" lon="11.462624929883766"><ele>184.0</ele><time>2026-04-12T08:09:45.999Z</time></trkpt><trkpt lat="44.30867549714946" lon="11.462539905540812"><ele>184.0</ele><time>2026-04-12T08:09:48.999Z</time></trkpt><trkpt lat="44.30862522810385" lon="11.462397471291466"><ele>184.0</ele><time>2026-04-12T08:09:50.999Z</time></trkpt><trkpt lat="44.308631290899505" lon="11.46230173114566"><ele>184.0</ele><time>2026-04-12T08:09:51.999Z</time></trkpt><trkpt lat="44.30858074140703" lon="11.462178682572612"><ele>184.0</ele><time>2026-04-12T08:09:52.999Z</time></trkpt><trkpt lat="44.308552875084914" lon="11.462031627613989"><ele>184.0</ele><time>2026-04-12T08:09:53.999Z</time></trkpt><trkpt lat="44.30852756051992" lon="11.46188766836779"><ele>184.0</ele><time>2026-04-12T08:09:54.999Z</time></trkpt><trkpt lat="44.308507403734744" lon="11.461768424670987"><ele>184.0</ele><time>2026-04-12T08:09:55.999Z</time></trkpt><trkpt lat="44.30848542310225" lon="11.461662057810683"><ele>184.2</ele><time>2026-04-12T08:09:56.999Z</time></trkpt><trkpt lat="44.308450472481994" lon="11.461558674779987"><ele>184.39999999999998</ele><time>2026-04-12T08:09:57.999Z</time></trkpt><trkpt lat="44.30839900123273" lon="11.461454606950332"><ele>184.6</ele><time>2026-04-12T08:09:58.999Z</time></trkpt><trkpt lat="44.308358728967946" lon="11.46132823572152"><ele>184.8</ele><time>2026-04-12T08:09:59.999Z</time></trkpt><trkpt lat="44.30830317869243" lon="11.461209860037973"><ele>185.0</ele><time>2026-04-12T08:10:00.999Z</time></trkpt><trkpt lat="44.3082700145865" lon="11.461091675140159"><ele>185.6</ele><time>2026-04-12T08:10:01.999Z</time></trkpt><trkpt lat="44.3082333124232" lon="11.460963904571587"><ele>186.2</ele><time>2026-04-12T08:10:02.999Z</time></trkpt><trkpt lat="44.30821961865171" lon="11.460829263757041"><ele>186.8</ele><time>2026-04-12T08:10:03.999Z</time></trkpt><trkpt lat="44.30819280881186" lon="11.460710384328586"><ele>187.4</ele><time>2026-04-12T08:10:04.999Z</time></trkpt><trkpt lat="44.3081666080202" lon="11.460601176932371"><ele>188.0</ele><time>2026-04-12T08:10:05.999Z</time></trkpt><trkpt lat="44.30814023799184" lon="11.460491264181403"><ele>188.0</ele><time>2026-04-12T08:10:06.999Z</time></trkpt><trkpt lat="44.30811719313851" lon="11.46038347357009"><ele>188.0</ele><time>2026-04-12T08:10:07.999Z</time></trkpt><trkpt lat="44.30809803588275" lon="11.460289496200236"><ele>188.0</ele><time>2026-04-12T08:10:08.999Z</time></trkpt><trkpt lat="44.308068256874776" lon="11.46013923777032"><ele>188.0</ele><time>2026-04-12T08:10:10.999Z</time></trkpt><trkpt lat="44.30804629205754" lon="11.460023907004626"><ele>188.0</ele><time>2026-04-12T08:10:12.999Z</time></trkpt><trkpt lat="44.30794273392336" lon="11.459947741886525"><ele>188.0</ele><time>2026-04-12T08:10:14.999Z</time></trkpt><trkpt lat="44.30786318949896" lon="11.45992394321037"><ele>188.0</ele><time>2026-04-12T08:10:17.999Z</time></trkpt><trkpt lat="44.307800256980336" lon="11.459866222849955"><ele>188.0</ele><time>2026-04-12T08:10:21Z</time></trkpt><trkpt lat="44.307738990782646" lon="11.459834626778836"><ele>188.0</ele><time>2026-04-12T08:10:25Z</time></trkpt><trkpt lat="44.30767261087438" lon="11.45977426603208"><ele>188.0</ele><time>2026-04-12T08:11:18.999Z</time></trkpt><trkpt lat="44.30763704438545" lon="11.459697107802796"><ele>188.0</ele><time>2026-04-12T08:11:40.999Z</time></trkpt><trkpt lat="44.30768665022846" lon="11.459767427634759"><ele>188.0</ele><time>2026-04-12T08:11:53.999Z</time></trkpt><trkpt lat="44.30773884762277" lon="11.459869543004254"><ele>188.0</ele><time>2026-04-12T08:12:08.999Z</time></trkpt><trkpt lat="44.307814060784416" lon="11.459900302551397"><ele>188.0</ele><time>2026-04-12T08:12:10.999Z</time></trkpt><trkpt lat="44.30789545837275" lon="11.45992371751611"><ele>188.0</ele><time>2026-04-12T08:12:12.999Z</time></trkpt><trkpt lat="44.30796462893962" lon="11.45996037564305"><ele>188.0</ele><time>2026-04-12T08:12:16.999Z</time></trkpt><trkpt lat="44.307903492024465" lon="11.459925099002376"><ele>188.0</ele><time>2026-04-12T08:12:26Z</time></trkpt><trkpt lat="44.30797793604651" lon="11.459989543000189"><ele>188.0</ele><time>2026-04-12T08:12:46Z</time></trkpt><trkpt lat="44.30802123033095" lon="11.46007319252602"><ele>188.0</ele><time>2026-04-12T08:12:48Z</time></trkpt><trkpt lat="44.30795214335599" lon="11.45995317130337"><ele>188.0</ele><time>2026-04-12T08:12:59Z</time></trkpt><trkpt lat="44.30801955179142" lon="11.460071328198282"><ele>188.0</ele><time>2026-04-12T08:13:00Z</time></trkpt><trkpt lat="44.30791845167826" lon="11.459949173184938"><ele>188.0</ele><time>2026-04-12T08:13:02Z</time></trkpt><trkpt lat="44.307850043231745" lon="11.459894362716689"><ele>188.0</ele><time>2026-04-12T08:13:04Z</time></trkpt><trkpt lat="44.30778399413935" lon="11.459856619586807"><ele>188.0</ele><time>2026-04-12T08:13:06Z</time></trkpt><trkpt lat="44.30772442843204" lon="11.459822857553782"><ele>188.0</ele><time>2026-04-12T08:13:09Z</time></trkpt><trkpt lat="44.30766866665103" lon="11.459733958239763"><ele>188.0</ele><time>2026-04-12T08:13:18.999Z</time></trkpt><trkpt lat="44.30762947151624" lon="11.45966334973397"><ele>188.0</ele><time>2026-04-12T08:13:20.999Z</time></trkpt><trkpt lat="44.30757872416699" lon="11.459592879682102"><ele>188.0</ele><time>2026-04-12T08:13:23.999Z</time></trkpt><trkpt lat="44.30753089175068" lon="11.459519791226638"><ele>188.0</ele><time>2026-04-12T08:13:25.999Z</time></trkpt><trkpt lat="44.30747493022208" lon="11.459461684874748"><ele>188.0</ele><time>2026-04-12T08:13:27.999Z</time></trkpt><trkpt lat="44.30747534826616" lon="11.459342754815864"><ele>188.16666666666666</ele><time>2026-04-12T08:13:39.999Z</time></trkpt><trkpt lat="44.307457917597546" lon="11.45923698197353"><ele>188.33333333333331</ele><time>2026-04-12T08:13:41.999Z</time></trkpt><trkpt lat="44.307462297312426" lon="11.45911725527111"><ele>188.5</ele><time>2026-04-12T08:13:44.999Z</time></trkpt><trkpt lat="44.30747663486151" lon="11.458958662248838"><ele>188.66666666666666</ele><time>2026-04-12T08:13:46.999Z</time></trkpt><trkpt lat="44.30748726365869" lon="11.458866910466341"><ele>188.83333333333334</ele><time>2026-04-12T08:13:47.999Z</time></trkpt><trkpt lat="44.30749040594609" lon="11.458778569715866"><ele>189.0</ele><time>2026-04-12T08:13:48.999Z</time></trkpt><trkpt lat="44.30749756548064" lon="11.45868613300303"><ele>189.0</ele><time>2026-04-12T08:13:49.999Z</time></trkpt><trkpt lat="44.307506412279935" lon="11.45859243100242"><ele>189.0</ele><time>2026-04-12T08:13:50.999Z</time></trkpt><trkpt lat="44.30750703579664" lon="11.458494578722034"><ele>189.0</ele><time>2026-04-12T08:13:51.999Z</time></trkpt><trkpt lat="44.30749892204291" lon="11.458398559384246"><ele>189.0</ele><time>2026-04-12T08:13:52.999Z</time></trkpt><trkpt lat="44.30749763167369" lon="11.458221387480787"><ele>189.0</ele><time>2026-04-12T08:13:54.999Z</time></trkpt><trkpt lat="44.3075110403492" lon="11.458124748199305"><ele>189.0</ele><time>2026-04-12T08:13:55.999Z</time></trkpt><trkpt lat="44.30753831486594" lon="11.45803649533812"><ele>189.0</ele><time>2026-04-12T08:13:56.999Z</time></trkpt><trkpt lat="44.30756772147526" lon="11.457951290689781"><ele>189.0</ele><time>2026-04-12T08:13:57.999Z</time></trkpt><trkpt lat="44.30757356076873" lon="11.457765387639638"><ele>189.0</ele><time>2026-04-12T08:13:59.999Z</time></trkpt><trkpt lat="44.307559173585744" lon="11.457652925910777"><ele>189.0</ele><time>2026-04-12T08:14:00.999Z</time></trkpt><trkpt lat="44.30754450653201" lon="11.457529976698217"><ele>189.0</ele><time>2026-04-12T08:14:01.999Z</time></trkpt><trkpt lat="44.30752721635946" lon="11.457420979965114"><ele>189.0</ele><time>2026-04-12T08:14:02.999Z</time></trkpt><trkpt lat="44.30749065326435" lon="11.457300814863611"><ele>189.0</ele><time>2026-04-12T08:14:03.999Z</time></trkpt><trkpt lat="44.30744708591753" lon="11.457175113299941"><ele>189.0</ele><time>2026-04-12T08:14:04.999Z</time></trkpt><trkpt lat="44.30740977688012" lon="11.457055970209828"><ele>189.0</ele><time>2026-04-12T08:14:05.999Z</time></trkpt><trkpt lat="44.30737758016539" lon="11.456959018496232"><ele>189.0</ele><time>2026-04-12T08:14:06.999Z</time></trkpt><trkpt lat="44.30736344375852" lon="11.45684418965369"><ele>189.0</ele><time>2026-04-12T08:14:07.999Z</time></trkpt><trkpt lat="44.30735713569035" lon="11.456724284113353"><ele>189.5</ele><time>2026-04-12T08:14:08.999Z</time></trkpt><trkpt lat="44.30735157574041" lon="11.456627380762988"><ele>190.0</ele><time>2026-04-12T08:14:09.999Z</time></trkpt><trkpt lat="44.307346417881064" lon="11.456521191005688"><ele>190.5</ele><time>2026-04-12T08:14:10.999Z</time></trkpt><trkpt lat="44.30735450832103" lon="11.456418455954502"><ele>191.0</ele><time>2026-04-12T08:14:11.999Z</time></trkpt><trkpt lat="44.30737075516404" lon="11.45632240059449"><ele>191.5</ele><time>2026-04-12T08:14:12.999Z</time></trkpt><trkpt lat="44.307392723474244" lon="11.456155466900587"><ele>192.0</ele><time>2026-04-12T08:14:14.999Z</time></trkpt><trkpt lat="44.30737520758515" lon="11.456053571133848"><ele>192.2</ele><time>2026-04-12T08:14:15.999Z</time></trkpt><trkpt lat="44.30734594437504" lon="11.4559249059489"><ele>192.39999999999998</ele><time>2026-04-12T08:14:16.999Z</time></trkpt><trkpt lat="44.30731262742121" lon="11.455771794942208"><ele>192.60000000000002</ele><time>2026-04-12T08:14:17.999Z</time></trkpt><trkpt lat="44.30729189671145" lon="11.455647336674211"><ele>192.8</ele><time>2026-04-12T08:14:18.999Z</time></trkpt><trkpt lat="44.307260620173935" lon="11.455492110011983"><ele>193.0</ele><time>2026-04-12T08:14:20.999Z</time></trkpt><trkpt lat="44.30721196357556" lon="11.455398391629757"><ele>192.99999999999997</ele><time>2026-04-12T08:14:22.999Z</time></trkpt><trkpt lat="44.30714734989233" lon="11.455309985770702"><ele>193.0</ele><time>2026-04-12T08:14:25.999Z</time></trkpt><trkpt lat="44.3070841491524" lon="11.455209367219913"><ele>193.0</ele><time>2026-04-12T08:14:27.999Z</time></trkpt><trkpt lat="44.30703927034221" lon="11.455141990730214"><ele>193.0</ele><time>2026-04-12T08:14:28.999Z</time></trkpt><trkpt lat="44.30699072568189" lon="11.455074083472184"><ele>192.99999999999997</ele><time>2026-04-12T08:14:29.999Z</time></trkpt><trkpt lat="44.30690943672777" lon="11.454959919510236"><ele>193.0</ele><time>2026-04-12T08:14:32Z</time></trkpt><trkpt lat="44.3068557580862" lon="11.45484579063064"><ele>192.99999999999997</ele><time>2026-04-12T08:14:34Z</time></trkpt><trkpt lat="44.306801594238244" lon="11.454761884109866"><ele>193.0</ele><time>2026-04-12T08:14:36Z</time></trkpt><trkpt lat="44.30673796189545" lon="11.454670598071772"><ele>193.0</ele><time>2026-04-12T08:14:38Z</time></trkpt><trkpt lat="44.30667315436504" lon="11.454527550013568"><ele>193.0</ele><time>2026-04-12T08:14:40Z</time></trkpt><trkpt lat="44.30662775208135" lon="11.454446266358053"><ele>192.99999999999997</ele><time>2026-04-12T08:14:41Z</time></trkpt><trkpt lat="44.30658204471026" lon="11.454367486716261"><ele>193.0</ele><time>2026-04-12T08:14:42Z</time></trkpt><trkpt lat="44.30654174097708" lon="11.454292822797298"><ele>193.16666666666666</ele><time>2026-04-12T08:14:43Z</time></trkpt><trkpt lat="44.30649649536916" lon="11.45421206336805"><ele>193.33333333333331</ele><time>2026-04-12T08:14:44Z</time></trkpt><trkpt lat="44.306441816631136" lon="11.454132189251713"><ele>193.5</ele><time>2026-04-12T08:14:45Z</time></trkpt><trkpt lat="44.30637475052518" lon="11.454053933975702"><ele>193.66666666666669</ele><time>2026-04-12T08:14:46Z</time></trkpt><trkpt lat="44.3063147387754" lon="11.453983713645817"><ele>193.83333333333334</ele><time>2026-04-12T08:14:47Z</time></trkpt><trkpt lat="44.306246537503206" lon="11.453896451059457"><ele>194.0</ele><time>2026-04-12T08:14:48Z</time></trkpt><trkpt lat="44.30617053142193" lon="11.453799158391673"><ele>194.6</ele><time>2026-04-12T08:14:49Z</time></trkpt><trkpt lat="44.3060942519049" lon="11.453704378413534"><ele>195.2</ele><time>2026-04-12T08:14:50Z</time></trkpt><trkpt lat="44.30602573918541" lon="11.453626150268267"><ele>195.79999999999998</ele><time>2026-04-12T08:14:51Z</time></trkpt><trkpt lat="44.30595890465737" lon="11.453540842862603"><ele>196.39999999999998</ele><time>2026-04-12T08:14:52Z</time></trkpt><trkpt lat="44.30588035544953" lon="11.453431671166623"><ele>197.0</ele><time>2026-04-12T08:14:53Z</time></trkpt><trkpt lat="44.305805342422104" lon="11.453330708573645"><ele>197.00000000000003</ele><time>2026-04-12T08:14:54Z</time></trkpt><trkpt lat="44.305742645037164" lon="11.453245084110863"><ele>197.0</ele><time>2026-04-12T08:14:55Z</time></trkpt><trkpt lat="44.30569225059369" lon="11.453184059673113"><ele>197.0</ele><time>2026-04-12T08:14:56Z</time></trkpt><trkpt lat="44.30556739089879" lon="11.453116455076273"><ele>197.0</ele><time>2026-04-12T08:14:58Z</time></trkpt><trkpt lat="44.30549711771428" lon="11.453099637986375"><ele>197.00000000000003</ele><time>2026-04-12T08:14:59Z</time></trkpt><trkpt lat="44.305431520272506" lon="11.45309007045841"><ele>197.0</ele><time>2026-04-12T08:15:00Z</time></trkpt><trkpt lat="44.305367194589095" lon="11.453056837696954"><ele>198.6</ele><time>2026-04-12T08:15:02Z</time></trkpt><trkpt lat="44.30531884593901" lon="11.452939283052634"><ele>200.2</ele><time>2026-04-12T08:15:04Z</time></trkpt><trkpt lat="44.3053004319654" lon="11.452826547314782"><ele>201.8</ele><time>2026-04-12T08:15:06Z</time></trkpt><trkpt lat="44.30523368117368" lon="11.452746164448119"><ele>203.4</ele><time>2026-04-12T08:15:08Z</time></trkpt><trkpt lat="44.30513660722954" lon="11.45277880742724"><ele>205.0</ele><time>2026-04-12T08:15:10Z</time></trkpt><trkpt lat="44.30506320662382" lon="11.45286703524118"><ele>204.99999999999997</ele><time>2026-04-12T08:15:12Z</time></trkpt><trkpt lat="44.30501510363562" lon="11.452926957534256"><ele>205.0</ele><time>2026-04-12T08:15:14Z</time></trkpt><trkpt lat="44.304903734667775" lon="11.452998671618777"><ele>205.0</ele><time>2026-04-12T08:15:16Z</time></trkpt><trkpt lat="44.304841393368726" lon="11.453024058478231"><ele>205.0</ele><time>2026-04-12T08:15:17Z</time></trkpt><trkpt lat="44.304772570330584" lon="11.453043721718725"><ele>204.99999999999997</ele><time>2026-04-12T08:15:18Z</time></trkpt><trkpt lat="44.30469477880073" lon="11.453071006634143"><ele>205.0</ele><time>2026-04-12T08:15:19Z</time></trkpt><trkpt lat="44.30458238037589" lon="11.453105615497982"><ele>209.8</ele><time>2026-04-12T08:15:21Z</time></trkpt><trkpt lat="44.304471300112915" lon="11.453142279458977"><ele>214.6</ele><time>2026-04-12T08:15:23Z</time></trkpt><trkpt lat="44.3043857094487" lon="11.453184148662427"><ele>219.39999999999998</ele><time>2026-04-12T08:15:24.999Z</time></trkpt><trkpt lat="44.3043135311269" lon="11.453267548508933"><ele>224.2</ele><time>2026-04-12T08:15:26.999Z</time></trkpt><trkpt lat="44.30426575761892" lon="11.453361451161353"><ele>229.0</ele><time>2026-04-12T08:15:28.999Z</time></trkpt><trkpt lat="44.30421990048797" lon="11.453474894899683"><ele>229.0</ele><time>2026-04-12T08:15:30.999Z</time></trkpt><trkpt lat="44.304182177973324" lon="11.453603362717676"><ele>228.99999999999997</ele><time>2026-04-12T08:15:32.999Z</time></trkpt><trkpt lat="44.30413028758699" lon="11.45372259753411"><ele>228.99999999999997</ele><time>2026-04-12T08:15:34.999Z</time></trkpt><trkpt lat="44.30408715840526" lon="11.453853985069752"><ele>229.0</ele><time>2026-04-12T08:15:36.999Z</time></trkpt><trkpt lat="44.304041913237285" lon="11.453928987379017"><ele>229.0</ele><time>2026-04-12T08:15:38.999Z</time></trkpt><trkpt lat="44.30396661519571" lon="11.45382961657905"><ele>233.0</ele><time>2026-04-12T08:15:41.999Z</time></trkpt><trkpt lat="44.30390903679955" lon="11.453725194058443"><ele>236.99999999999997</ele><time>2026-04-12T08:15:43.999Z</time></trkpt><trkpt lat="44.30382309091104" lon="11.453620387709535"><ele>240.99999999999997</ele><time>2026-04-12T08:15:45.999Z</time></trkpt><trkpt lat="44.3037559191609" lon="11.45351217160793"><ele>245.0</ele><time>2026-04-12T08:15:47.999Z</time></trkpt><trkpt lat="44.30364527370402" lon="11.453472030830008"><ele>249.0</ele><time>2026-04-12T08:15:49.999Z</time></trkpt><trkpt lat="44.30358146939468" lon="11.4534458308231"><ele>249.0</ele><time>2026-04-12T08:15:50.999Z</time></trkpt><trkpt lat="44.303511972487" lon="11.45344789700906"><ele>249.0</ele><time>2026-04-12T08:15:52.999Z</time></trkpt><trkpt lat="44.30345356992869" lon="11.453532090203716"><ele>249.0</ele><time>2026-04-12T08:15:55.999Z</time></trkpt><trkpt lat="44.30345074325179" lon="11.453656010814099"><ele>249.0</ele><time>2026-04-12T08:15:57.999Z</time></trkpt><trkpt lat="44.30343962956372" lon="11.453783260860696"><ele>249.0</ele><time>2026-04-12T08:15:59.999Z</time></trkpt><trkpt lat="44.303351079610806" lon="11.453827440837976"><ele>249.0</ele><time>2026-04-12T08:16:02.999Z</time></trkpt><trkpt lat="44.303174614007126" lon="11.45373778381453"><ele>249.0</ele><time>2026-04-12T08:16:06.999Z</time></trkpt><trkpt lat="44.303108677800736" lon="11.453695204120132"><ele>249.0</ele><time>2026-04-12T08:16:08.999Z</time></trkpt><trkpt lat="44.303041883901685" lon="11.45367669121735"><ele>249.0</ele><time>2026-04-12T08:16:10.999Z</time></trkpt><trkpt lat="44.302945516009025" lon="11.453668694120543"><ele>249.0</ele><time>2026-04-12T08:16:12.999Z</time></trkpt><trkpt lat="44.30288381955413" lon="11.453644138324705"><ele>249.0</ele><time>2026-04-12T08:16:13.999Z</time></trkpt><trkpt lat="44.30281611174818" lon="11.453604658586364"><ele>249.0</ele><time>2026-04-12T08:16:14.999Z</time></trkpt><trkpt lat="44.302722198955095" lon="11.453556730548774"><ele>252.79999999999998</ele><time>2026-04-12T08:16:16.999Z</time></trkpt><trkpt lat="44.302643808624964" lon="11.45359804697189"><ele>256.59999999999997</ele><time>2026-04-12T08:16:20.999Z</time></trkpt><trkpt lat="44.30263031779743" lon="11.4536970773997"><ele>260.4</ele><time>2026-04-12T08:16:22.999Z</time></trkpt><trkpt lat="44.30259297792372" lon="11.45383107663218"><ele>264.2</ele><time>2026-04-12T08:16:24.999Z</time></trkpt><trkpt lat="44.302567689679776" lon="11.453980962363346"><ele>268.0</ele><time>2026-04-12T08:16:26.999Z</time></trkpt><trkpt lat="44.302564929078294" lon="11.454115723551917"><ele>269.3333333333333</ele><time>2026-04-12T08:16:28.999Z</time></trkpt><trkpt lat="44.30258519309209" lon="11.454227432436278"><ele>270.66666666666663</ele><time>2026-04-12T08:16:30.999Z</time></trkpt><trkpt lat="44.30254720926093" lon="11.454307959748958"><ele>272.0</ele><time>2026-04-12T08:16:33.999Z</time></trkpt><trkpt lat="44.302482942076544" lon="11.454280567096898"><ele>273.3333333333333</ele><time>2026-04-12T08:16:35.999Z</time></trkpt><trkpt lat="44.30244801700868" lon="11.454158076595657"><ele>274.6666666666667</ele><time>2026-04-12T08:16:38Z</time></trkpt><trkpt lat="44.30240550464123" lon="11.454063379088632"><ele>276.0</ele><time>2026-04-12T08:16:40Z</time></trkpt><trkpt lat="44.30234605312718" lon="11.45398658176888"><ele>276.0</ele><time>2026-04-12T08:16:42Z</time></trkpt><trkpt lat="44.30228441205964" lon="11.453902577975539"><ele>276.0</ele><time>2026-04-12T08:16:44Z</time></trkpt><trkpt lat="44.30222886701868" lon="11.453786252751362"><ele>276.0</ele><time>2026-04-12T08:16:46Z</time></trkpt><trkpt lat="44.30215713805696" lon="11.453674861379266"><ele>276.0</ele><time>2026-04-12T08:16:48Z</time></trkpt><trkpt lat="44.30206829515486" lon="11.453616862019487"><ele>276.0</ele><time>2026-04-12T08:16:50Z</time></trkpt><trkpt lat="44.301993668524695" lon="11.453617089459685"><ele>276.5</ele><time>2026-04-12T08:16:52Z</time></trkpt><trkpt lat="44.30193644992559" lon="11.453711870906355"><ele>277.0</ele><time>2026-04-12T08:16:55Z</time></trkpt><trkpt lat="44.30192692487083" lon="11.453804441672524"><ele>277.5</ele><time>2026-04-12T08:17:14Z</time></trkpt><trkpt lat="44.301954052311714" lon="11.453919379482064"><ele>278.0</ele><time>2026-04-12T08:17:16Z</time></trkpt><trkpt lat="44.30194714419913" lon="11.45404908120868"><ele>278.5</ele><time>2026-04-12T08:17:18Z</time></trkpt><trkpt lat="44.30189099075664" lon="11.454142242042709"><ele>279.0</ele><time>2026-04-12T08:17:21Z</time></trkpt><trkpt lat="44.30185344048744" lon="11.454243753265818"><ele>281.3333333333333</ele><time>2026-04-12T08:17:23Z</time></trkpt><trkpt lat="44.301813413067165" lon="11.454378386250454"><ele>283.6666666666667</ele><time>2026-04-12T08:17:24.999Z</time></trkpt><trkpt lat="44.30177430473429" lon="11.454463881846111"><ele>286.0</ele><time>2026-04-12T08:17:26.999Z</time></trkpt><trkpt lat="44.301724229407334" lon="11.454540270606918"><ele>288.33333333333337</ele><time>2026-04-12T08:17:31.999Z</time></trkpt><trkpt lat="44.301668357198935" lon="11.454605038346067"><ele>290.6666666666667</ele><time>2026-04-12T08:17:40.999Z</time></trkpt><trkpt lat="44.30160887822566" lon="11.454687036711295"><ele>293.0</ele><time>2026-04-12T08:17:43.999Z</time></trkpt><trkpt lat="44.30156089567899" lon="11.454782872198617"><ele>294.6666666666667</ele><time>2026-04-12T08:17:45.999Z</time></trkpt><trkpt lat="44.30151593696978" lon="11.454876748859942"><ele>296.33333333333337</ele><time>2026-04-12T08:17:47.999Z</time></trkpt><trkpt lat="44.301475051847454" lon="11.454982220338477"><ele>298.0</ele><time>2026-04-12T08:17:49.999Z</time></trkpt><trkpt lat="44.3014192250391" lon="11.455088915230503"><ele>299.6666666666667</ele><time>2026-04-12T08:17:51.999Z</time></trkpt><trkpt lat="44.30136992389633" lon="11.455217967435743"><ele>301.3333333333333</ele><time>2026-04-12T08:17:53.999Z</time></trkpt><trkpt lat="44.30134023284425" lon="11.455324467525584"><ele>303.0</ele><time>2026-04-12T08:17:55.999Z</time></trkpt><trkpt lat="44.301305449474675" lon="11.45541226838415"><ele>308.0</ele><time>2026-04-12T08:17:58.999Z</time></trkpt><trkpt lat="44.30125994560192" lon="11.455534026117821"><ele>313.0</ele><time>2026-04-12T08:18:01.999Z</time></trkpt><trkpt lat="44.30118114315298" lon="11.455612364950774"><ele>318.0</ele><time>2026-04-12T08:18:03.999Z</time></trkpt><trkpt lat="44.3011186553782" lon="11.455684651653288"><ele>323.0</ele><time>2026-04-12T08:18:06.999Z</time></trkpt><trkpt lat="44.3010244196807" lon="11.455732071479098"><ele>328.0</ele><time>2026-04-12T08:18:08.999Z</time></trkpt><trkpt lat="44.30091810122935" lon="11.455724444338664"><ele>328.0</ele><time>2026-04-12T08:18:10.999Z</time></trkpt><trkpt lat="44.30082805613543" lon="11.455694792173995"><ele>328.0</ele><time>2026-04-12T08:18:12.999Z</time></trkpt><trkpt lat="44.30073476780484" lon="11.455649523144528"><ele>328.0</ele><time>2026-04-12T08:18:14.999Z</time></trkpt><trkpt lat="44.30065461983748" lon="11.455644467259814"><ele>328.0</ele><time>2026-04-12T08:18:16.999Z</time></trkpt><trkpt lat="44.30060020625159" lon="11.455709699486054"><ele>328.0</ele><time>2026-04-12T08:20:52Z</time></trkpt><trkpt lat="44.30054130828029" lon="11.455783962544281"><ele>328.0</ele><time>2026-04-12T08:20:58Z</time></trkpt><trkpt lat="44.30047179078645" lon="11.455850671499963"><ele>331.0</ele><time>2026-04-12T08:21:02Z</time></trkpt><trkpt lat="44.30041021585568" lon="11.455922399423"><ele>334.0</ele><time>2026-04-12T08:21:04Z</time></trkpt><trkpt lat="44.30035032701322" lon="11.45599467754006"><ele>337.0</ele><time>2026-04-12T08:21:06Z</time></trkpt><trkpt lat="44.30026744737158" lon="11.456020508864553"><ele>340.0</ele><time>2026-04-12T08:21:08Z</time></trkpt><trkpt lat="44.30016332501965" lon="11.456031820869976"><ele>343.0</ele><time>2026-04-12T08:21:10Z</time></trkpt><trkpt lat="44.30005001880726" lon="11.456025754964251"><ele>343.0</ele><time>2026-04-12T08:21:12Z</time></trkpt><trkpt lat="44.29996745352023" lon="11.456012318030302"><ele>343.0</ele><time>2026-04-12T08:21:14Z</time></trkpt><trkpt lat="44.29990429972699" lon="11.456000569123365"><ele>343.0</ele><time>2026-04-12T08:21:18Z</time></trkpt><trkpt lat="44.29984094384507" lon="11.455994298526436"><ele>343.0</ele><time>2026-04-12T08:21:20Z</time></trkpt><trkpt lat="44.29977361442293" lon="11.455993975906688"><ele>343.0</ele><time>2026-04-12T08:21:22Z</time></trkpt><trkpt lat="44.299672729238694" lon="11.455996426028438"><ele>343.0</ele><time>2026-04-12T08:21:25Z</time></trkpt><trkpt lat="44.29959678119951" lon="11.456026269893837"><ele>346.16666666666663</ele><time>2026-04-12T08:21:27Z</time></trkpt><trkpt lat="44.29951441823722" lon="11.456072000717077"><ele>349.3333333333333</ele><time>2026-04-12T08:21:29Z</time></trkpt><trkpt lat="44.29942426826735" lon="11.456094975523337"><ele>352.5</ele><time>2026-04-12T08:21:31Z</time></trkpt><trkpt lat="44.2993417373543" lon="11.456095866386585"><ele>355.6666666666667</ele><time>2026-04-12T08:21:33Z</time></trkpt><trkpt lat="44.29926213263826" lon="11.456092730162359"><ele>358.83333333333337</ele><time>2026-04-12T08:21:35Z</time></trkpt><trkpt lat="44.29916742671046" lon="11.456136835356483"><ele>362.0</ele><time>2026-04-12T08:21:37Z</time></trkpt><trkpt lat="44.29909209310314" lon="11.45616697628918"><ele>362.0</ele><time>2026-04-12T08:21:39Z</time></trkpt><trkpt lat="44.29901716313516" lon="11.456209605730939"><ele>362.0</ele><time>2026-04-12T08:21:41Z</time></trkpt><trkpt lat="44.29892409182119" lon="11.456255938505663"><ele>362.0</ele><time>2026-04-12T08:21:43Z</time></trkpt><trkpt lat="44.29879487112449" lon="11.456272137596178"><ele>362.0</ele><time>2026-04-12T08:21:45Z</time></trkpt><trkpt lat="44.29866677592037" lon="11.456317611161372"><ele>362.0</ele><time>2026-04-12T08:21:47Z</time></trkpt><trkpt lat="44.29859778393514" lon="11.456354243450084"><ele>364.6666666666667</ele><time>2026-04-12T08:21:49Z</time></trkpt><trkpt lat="44.29851684738445" lon="11.4563612620981"><ele>367.33333333333337</ele><time>2026-04-12T08:21:50.999Z</time></trkpt><trkpt lat="44.298388963881095" lon="11.456392074360165"><ele>370.0</ele><time>2026-04-12T08:21:52.999Z</time></trkpt><trkpt lat="44.2983162766513" lon="11.45640981274147"><ele>372.6666666666667</ele><time>2026-04-12T08:21:53.999Z</time></trkpt><trkpt lat="44.2982415781717" lon="11.456421963090907"><ele>375.3333333333333</ele><time>2026-04-12T08:21:54.999Z</time></trkpt><trkpt lat="44.298155726101285" lon="11.456431270062927"><ele>378.0</ele><time>2026-04-12T08:21:55.999Z</time></trkpt><trkpt lat="44.298084428431586" lon="11.456462065153886"><ele>379.59999999999997</ele><time>2026-04-12T08:21:56.999Z</time></trkpt><trkpt lat="44.29802266348234" lon="11.456498414968896"><ele>381.2</ele><time>2026-04-12T08:21:57.999Z</time></trkpt><trkpt lat="44.29793876475472" lon="11.456588856401897"><ele>382.8</ele><time>2026-04-12T08:21:59.999Z</time></trkpt><trkpt lat="44.29784946072189" lon="11.456658155079296"><ele>384.4</ele><time>2026-04-12T08:22:01.999Z</time></trkpt><trkpt lat="44.2977544033854" lon="11.456721001787814"><ele>386.0</ele><time>2026-04-12T08:22:03.999Z</time></trkpt><trkpt lat="44.297669487729976" lon="11.456809270708003"><ele>386.0</ele><time>2026-04-12T08:22:05.999Z</time></trkpt><trkpt lat="44.297639190282254" lon="11.456895954498497"><ele>386.0</ele><time>2026-04-12T08:22:12.999Z</time></trkpt><trkpt lat="44.29760235254129" lon="11.457006100825627"><ele>386.0</ele><time>2026-04-12T08:22:15.999Z</time></trkpt><trkpt lat="44.29756259918565" lon="11.457102263218019"><ele>386.0</ele><time>2026-04-12T08:22:17.999Z</time></trkpt><trkpt lat="44.29749730478619" lon="11.457223653036955"><ele>386.0</ele><time>2026-04-12T08:22:19.999Z</time></trkpt><trkpt lat="44.29740732401919" lon="11.457334848878343"><ele>386.8</ele><time>2026-04-12T08:22:21.999Z</time></trkpt><trkpt lat="44.29734515705856" lon="11.457420683323718"><ele>387.6</ele><time>2026-04-12T08:22:23.999Z</time></trkpt><trkpt lat="44.29729622359647" lon="11.457520396104451"><ele>388.4</ele><time>2026-04-12T08:22:25.999Z</time></trkpt><trkpt lat="44.29728368931802" lon="11.457608111493306"><ele>389.2</ele><time>2026-04-12T08:22:26.999Z</time></trkpt><trkpt lat="44.29727921977313" lon="11.457764183253795"><ele>390.0</ele><time>2026-04-12T08:22:28.999Z</time></trkpt><trkpt lat="44.29725910151779" lon="11.457908938820086"><ele>391.8</ele><time>2026-04-12T08:22:30.999Z</time></trkpt><trkpt lat="44.29723990646427" lon="11.45803892555229"><ele>393.6</ele><time>2026-04-12T08:22:32.999Z</time></trkpt><trkpt lat="44.29724933832855" lon="11.458163977641288"><ele>395.4</ele><time>2026-04-12T08:22:34.999Z</time></trkpt><trkpt lat="44.29722774207764" lon="11.458289960643652"><ele>397.2</ele><time>2026-04-12T08:22:36.999Z</time></trkpt><trkpt lat="44.297190511046885" lon="11.458407062384126"><ele>399.0</ele><time>2026-04-12T08:22:38.999Z</time></trkpt><trkpt lat="44.297127965854195" lon="11.458544570424655"><ele>399.0</ele><time>2026-04-12T08:22:40.999Z</time></trkpt><trkpt lat="44.29707479094574" lon="11.45867074747004"><ele>399.0</ele><time>2026-04-12T08:22:42.999Z</time></trkpt><trkpt lat="44.29703479372055" lon="11.458757370132586"><ele>399.0</ele><time>2026-04-12T08:22:43.999Z</time></trkpt><trkpt lat="44.29699569246373" lon="11.458835411824904"><ele>399.0</ele><time>2026-04-12T08:22:44.999Z</time></trkpt><trkpt lat="44.29691668533484" lon="11.458961826672995"><ele>399.0</ele><time>2026-04-12T08:22:46.999Z</time></trkpt><trkpt lat="44.29684843086305" lon="11.459066392315831"><ele>401.4</ele><time>2026-04-12T08:22:48.999Z</time></trkpt><trkpt lat="44.296783423028316" lon="11.459189226753903"><ele>403.79999999999995</ele><time>2026-04-12T08:22:50.999Z</time></trkpt><trkpt lat="44.29673831799599" lon="11.459347051841046"><ele>406.20000000000005</ele><time>2026-04-12T08:22:52.999Z</time></trkpt><trkpt lat="44.29669683042935" lon="11.459487068224682"><ele>408.6</ele><time>2026-04-12T08:22:54.999Z</time></trkpt><trkpt lat="44.296662496127894" lon="11.459564398934713"><ele>411.0</ele><time>2026-04-12T08:22:57Z</time></trkpt><trkpt lat="44.296607948236186" lon="11.4596866379976"><ele>413.4</ele><time>2026-04-12T08:22:59Z</time></trkpt><trkpt lat="44.296573005784644" lon="11.45983207384851"><ele>415.8</ele><time>2026-04-12T08:23:01Z</time></trkpt><trkpt lat="44.29656728163725" lon="11.459975437980177"><ele>418.2</ele><time>2026-04-12T08:23:03Z</time></trkpt><trkpt lat="44.29655740663314" lon="11.46010441355754"><ele>420.59999999999997</ele><time>2026-04-12T08:23:05Z</time></trkpt><trkpt lat="44.29654956566249" lon="11.46022665752429"><ele>423.0</ele><time>2026-04-12T08:23:07Z</time></trkpt><trkpt lat="44.2965005637066" lon="11.46036092628886"><ele>426.25</ele><time>2026-04-12T08:23:09Z</time></trkpt><trkpt lat="44.29641903060775" lon="11.460487355266293"><ele>429.5</ele><time>2026-04-12T08:23:11Z</time></trkpt><trkpt lat="44.29634453490397" lon="11.46060635467658"><ele>432.75</ele><time>2026-04-12T08:23:13Z</time></trkpt><trkpt lat="44.29627248124445" lon="11.4607131766704"><ele>436.0</ele><time>2026-04-12T08:23:15Z</time></trkpt><trkpt lat="44.29620488808248" lon="11.460833701895377"><ele>436.0</ele><time>2026-04-12T08:23:17Z</time></trkpt><trkpt lat="44.29610955370669" lon="11.460915179979065"><ele>436.0</ele><time>2026-04-12T08:23:19Z</time></trkpt><trkpt lat="44.2960147985479" lon="11.461012231135848"><ele>436.0</ele><time>2026-04-12T08:23:21Z</time></trkpt><trkpt lat="44.295937671217914" lon="11.461095652093178"><ele>436.0</ele><time>2026-04-12T08:23:23Z</time></trkpt><trkpt lat="44.29583145940087" lon="11.461172173302836"><ele>436.0</ele><time>2026-04-12T08:23:25Z</time></trkpt><trkpt lat="44.29577380419589" lon="11.461209684471246"><ele>436.0</ele><time>2026-04-12T08:23:26Z</time></trkpt><trkpt lat="44.29570738082333" lon="11.461261300392907"><ele>436.0</ele><time>2026-04-12T08:23:27Z</time></trkpt><trkpt lat="44.29563702473554" lon="11.461312263529319"><ele>436.0</ele><time>2026-04-12T08:23:28Z</time></trkpt><trkpt lat="44.29554162708319" lon="11.461394753374949"><ele>436.0</ele><time>2026-04-12T08:23:30Z</time></trkpt><trkpt lat="44.29545710621027" lon="11.461491699477053"><ele>436.0</ele><time>2026-04-12T08:23:32Z</time></trkpt><trkpt lat="44.29539778869861" lon="11.461625462720036"><ele>438.0</ele><time>2026-04-12T08:23:34Z</time></trkpt><trkpt lat="44.2953733848935" lon="11.46175069323703"><ele>440.0</ele><time>2026-04-12T08:23:36Z</time></trkpt><trkpt lat="44.295359162833385" lon="11.461899260149979"><ele>442.0</ele><time>2026-04-12T08:23:38Z</time></trkpt><trkpt lat="44.2953428764015" lon="11.462046693377205"><ele>444.0</ele><time>2026-04-12T08:23:40Z</time></trkpt><trkpt lat="44.295300481257286" lon="11.462165685512995"><ele>446.0</ele><time>2026-04-12T08:23:42Z</time></trkpt><trkpt lat="44.29525198458795" lon="11.46229259775329"><ele>447.8333333333333</ele><time>2026-04-12T08:23:44Z</time></trkpt><trkpt lat="44.29518770913067" lon="11.462411965269169"><ele>449.66666666666663</ele><time>2026-04-12T08:23:46Z</time></trkpt><trkpt lat="44.29515159008638" lon="11.462486683984412"><ele>451.5</ele><time>2026-04-12T08:23:47Z</time></trkpt><trkpt lat="44.295106589369844" lon="11.462566673325274"><ele>453.33333333333337</ele><time>2026-04-12T08:23:48Z</time></trkpt><trkpt lat="44.29506259710477" lon="11.462638135366566"><ele>455.1666666666667</ele><time>2026-04-12T08:23:49Z</time></trkpt><trkpt lat="44.29498496580104" lon="11.462764625996494"><ele>457.0</ele><time>2026-04-12T08:23:50.999Z</time></trkpt><trkpt lat="44.294916930416186" lon="11.462869511862161"><ele>458.00000000000006</ele><time>2026-04-12T08:23:52.999Z</time></trkpt><trkpt lat="44.29485453701024" lon="11.46296441783384"><ele>459.0</ele><time>2026-04-12T08:23:54.999Z</time></trkpt><trkpt lat="44.2947879292438" lon="11.463073144484113"><ele>460.0</ele><time>2026-04-12T08:23:56.999Z</time></trkpt><trkpt lat="44.294710877707985" lon="11.463159011239618"><ele>461.0</ele><time>2026-04-12T08:23:58.999Z</time></trkpt><trkpt lat="44.29464499891527" lon="11.463194535688148"><ele>462.00000000000006</ele><time>2026-04-12T08:24:02.999Z</time></trkpt><trkpt lat="44.29458063394207" lon="11.463207789204757"><ele>463.0</ele><time>2026-04-12T08:25:33Z</time></trkpt><trkpt lat="44.29456685840635" lon="11.463303103411816"><ele>463.79999999999995</ele><time>2026-04-12T08:25:35Z</time></trkpt><trkpt lat="44.29450094818846" lon="11.463429588955684"><ele>464.59999999999997</ele><time>2026-04-12T08:27:18Z</time></trkpt><trkpt lat="44.29441287766092" lon="11.463535265180889"><ele>465.40000000000003</ele><time>2026-04-12T08:27:20Z</time></trkpt><trkpt lat="44.29436476128075" lon="11.4636113142303"><ele>466.20000000000005</ele><time>2026-04-12T08:27:21Z</time></trkpt><trkpt lat="44.2943089081523" lon="11.463690888371893"><ele>467.0</ele><time>2026-04-12T08:27:22Z</time></trkpt><trkpt lat="44.294249866733146" lon="11.463781141507464"><ele>468.66666666666663</ele><time>2026-04-12T08:27:23Z</time></trkpt><trkpt lat="44.2941898256523" lon="11.463871587866125"><ele>470.3333333333333</ele><time>2026-04-12T08:27:24Z</time></trkpt><trkpt lat="44.294129297696934" lon="11.46395383780021"><ele>472.0</ele><time>2026-04-12T08:27:25Z</time></trkpt><trkpt lat="44.29407534567332" lon="11.464034865388017"><ele>473.66666666666663</ele><time>2026-04-12T08:27:26Z</time></trkpt><trkpt lat="44.29402809763041" lon="11.464109114194184"><ele>475.3333333333333</ele><time>2026-04-12T08:27:27Z</time></trkpt><trkpt lat="44.293992774304726" lon="11.464182534329163"><ele>477.0</ele><time>2026-04-12T08:27:28Z</time></trkpt><trkpt lat="44.29394590117682" lon="11.464328106772204"><ele>477.0</ele><time>2026-04-12T08:27:30Z</time></trkpt><trkpt lat="44.293926476033036" lon="11.464458759585028"><ele>477.00000000000006</ele><time>2026-04-12T08:27:32Z</time></trkpt><trkpt lat="44.29389723724791" lon="11.464611407043977"><ele>477.00000000000006</ele><time>2026-04-12T08:27:34Z</time></trkpt><trkpt lat="44.29385229215627" lon="11.464777594960148"><ele>477.0</ele><time>2026-04-12T08:27:36Z</time></trkpt><trkpt lat="44.29383224949732" lon="11.464860985610255"><ele>477.0</ele><time>2026-04-12T08:27:37Z</time></trkpt><trkpt lat="44.29381697671415" lon="11.464947205211368"><ele>478.20000000000005</ele><time>2026-04-12T08:27:38Z</time></trkpt><trkpt lat="44.293808727734884" lon="11.465123760629467"><ele>479.40000000000003</ele><time>2026-04-12T08:27:40Z</time></trkpt><trkpt lat="44.293793571969935" lon="11.465231202690871"><ele>480.59999999999997</ele><time>2026-04-12T08:27:41Z</time></trkpt><trkpt lat="44.29378472164079" lon="11.465352597517892"><ele>481.79999999999995</ele><time>2026-04-12T08:27:42Z</time></trkpt><trkpt lat="44.29377159001363" lon="11.465459025660467"><ele>483.0</ele><time>2026-04-12T08:27:43Z</time></trkpt><trkpt lat="44.29372705050923" lon="11.465581361749374"><ele>485.0</ele><time>2026-04-12T08:27:45Z</time></trkpt><trkpt lat="44.29367589345001" lon="11.465683160512773"><ele>486.99999999999994</ele><time>2026-04-12T08:27:47Z</time></trkpt><trkpt lat="44.29361669841434" lon="11.465794937545269"><ele>488.99999999999994</ele><time>2026-04-12T08:27:49Z</time></trkpt><trkpt lat="44.29355296414944" lon="11.465922612185995"><ele>491.0</ele><time>2026-04-12T08:27:51Z</time></trkpt><trkpt lat="44.29349008523215" lon="11.46605302151261"><ele>493.0</ele><time>2026-04-12T08:27:53Z</time></trkpt><trkpt lat="44.29344807417286" lon="11.466128057087428"><ele>493.0</ele><time>2026-04-12T08:27:55Z</time></trkpt><trkpt lat="44.29339014492399" lon="11.466248293665526"><ele>493.0</ele><time>2026-04-12T08:27:57Z</time></trkpt><trkpt lat="44.29331303705106" lon="11.466376163040117"><ele>493.0</ele><time>2026-04-12T08:27:59Z</time></trkpt><trkpt lat="44.29322792976436" lon="11.466501362189618"><ele>493.0</ele><time>2026-04-12T08:28:00.999Z</time></trkpt><trkpt lat="44.29313674102897" lon="11.46660249200254"><ele>494.00000000000006</ele><time>2026-04-12T08:28:02.999Z</time></trkpt><trkpt lat="44.293049392848914" lon="11.466720119637294"><ele>495.0</ele><time>2026-04-12T08:28:04.999Z</time></trkpt><trkpt lat="44.29300762995056" lon="11.466793866789672"><ele>496.0</ele><time>2026-04-12T08:28:05.999Z</time></trkpt><trkpt lat="44.29297321674873" lon="11.466878224608344"><ele>497.0</ele><time>2026-04-12T08:28:06.999Z</time></trkpt><trkpt lat="44.292942474820954" lon="11.466955306700116"><ele>498.00000000000006</ele><time>2026-04-12T08:28:07.999Z</time></trkpt><trkpt lat="44.292912074835776" lon="11.467101967661334"><ele>499.0</ele><time>2026-04-12T08:28:09.999Z</time></trkpt><trkpt lat="44.29285954641456" lon="11.46724302562491"><ele>501.4</ele><time>2026-04-12T08:28:11.999Z</time></trkpt><trkpt lat="44.29277685009341" lon="11.46736700122648"><ele>503.79999999999995</ele><time>2026-04-12T08:28:13.999Z</time></trkpt><trkpt lat="44.29272276989098" lon="11.46741241240491"><ele>506.20000000000005</ele><time>2026-04-12T08:28:14.999Z</time></trkpt><trkpt lat="44.29263519906648" lon="11.4675081398129"><ele>508.6</ele><time>2026-04-12T08:28:16.999Z</time></trkpt><trkpt lat="44.292591526107074" lon="11.46764627601484"><ele>511.0</ele><time>2026-04-12T08:28:18.999Z</time></trkpt><trkpt lat="44.292544543064814" lon="11.467754054212628"><ele>511.00000000000006</ele><time>2026-04-12T08:28:21.999Z</time></trkpt><trkpt lat="44.29247746679982" lon="11.46779256422064"><ele>511.0</ele><time>2026-04-12T08:28:23.999Z</time></trkpt><trkpt lat="44.29241710052686" lon="11.467818654364706"><ele>511.0</ele><time>2026-04-12T08:28:46.999Z</time></trkpt><trkpt lat="44.292322483735816" lon="11.467854988565422"><ele>511.0</ele><time>2026-04-12T08:28:48.999Z</time></trkpt><trkpt lat="44.29225108447163" lon="11.467883794075396"><ele>511.00000000000006</ele><time>2026-04-12T08:28:49.999Z</time></trkpt><trkpt lat="44.29216200747519" lon="11.467941332887092"><ele>511.0</ele><time>2026-04-12T08:28:50.999Z</time></trkpt><trkpt lat="44.292080934061154" lon="11.468003618459925"><ele>511.8</ele><time>2026-04-12T08:28:51.999Z</time></trkpt><trkpt lat="44.29199120308775" lon="11.468077489232144"><ele>512.6</ele><time>2026-04-12T08:28:52.999Z</time></trkpt><trkpt lat="44.291899720815636" lon="11.468142778788206"><ele>513.4</ele><time>2026-04-12T08:28:53.999Z</time></trkpt><trkpt lat="44.29181824307386" lon="11.468191202887247"><ele>514.2</ele><time>2026-04-12T08:28:54.999Z</time></trkpt><trkpt lat="44.29172551791103" lon="11.468245253321651"><ele>515.0</ele><time>2026-04-12T08:28:55.999Z</time></trkpt><trkpt lat="44.29163435932979" lon="11.468289781014045"><ele>515.0</ele><time>2026-04-12T08:28:56.999Z</time></trkpt><trkpt lat="44.29154287156696" lon="11.46832838649702"><ele>515.0</ele><time>2026-04-12T08:28:57.999Z</time></trkpt><trkpt lat="44.29144857206632" lon="11.468369957415375"><ele>515.0</ele><time>2026-04-12T08:28:58.999Z</time></trkpt><trkpt lat="44.291376780836075" lon="11.468398767232681"><ele>515.0</ele><time>2026-04-12T08:28:59.999Z</time></trkpt><trkpt lat="44.29129152334146" lon="11.468437633538606"><ele>515.0</ele><time>2026-04-12T08:29:00.999Z</time></trkpt><trkpt lat="44.291209714699356" lon="11.468474682071495"><ele>515.0</ele><time>2026-04-12T08:29:01.999Z</time></trkpt><trkpt lat="44.29111961105095" lon="11.468529680883096"><ele>516.0</ele><time>2026-04-12T08:29:02.999Z</time></trkpt><trkpt lat="44.29102163286689" lon="11.468582976615846"><ele>517.0</ele><time>2026-04-12T08:29:03.999Z</time></trkpt><trkpt lat="44.29091925255984" lon="11.4686066215295"><ele>518.0</ele><time>2026-04-12T08:29:04.999Z</time></trkpt><trkpt lat="44.29082287164825" lon="11.468641682116239"><ele>519.0</ele><time>2026-04-12T08:29:05.999Z</time></trkpt><trkpt lat="44.290732824868904" lon="11.468697167817187"><ele>520.0</ele><time>2026-04-12T08:29:06.999Z</time></trkpt><trkpt lat="44.290636607160096" lon="11.46872871993451"><ele>520.0</ele><time>2026-04-12T08:29:07.999Z</time></trkpt><trkpt lat="44.29053804692612" lon="11.468738382362147"><ele>520.0</ele><time>2026-04-12T08:29:08.999Z</time></trkpt><trkpt lat="44.29044332754006" lon="11.468769028062624"><ele>520.0</ele><time>2026-04-12T08:29:09.999Z</time></trkpt><trkpt lat="44.29034866242966" lon="11.468814273606645"><ele>520.0</ele><time>2026-04-12T08:29:10.999Z</time></trkpt><trkpt lat="44.290250139397855" lon="11.46884710575368"><ele>520.0</ele><time>2026-04-12T08:29:11.999Z</time></trkpt><trkpt lat="44.29015148555697" lon="11.468869451447695"><ele>520.4</ele><time>2026-04-12T08:29:12.998Z</time></trkpt><trkpt lat="44.29006277148917" lon="11.468889106051986"><ele>520.8</ele><time>2026-04-12T08:29:14Z</time></trkpt><trkpt lat="44.289971212045195" lon="11.468899327897422"><ele>521.2</ele><time>2026-04-12T08:29:15Z</time></trkpt><trkpt lat="44.28988189716329" lon="11.468925349203943"><ele>521.6</ele><time>2026-04-12T08:29:16Z</time></trkpt><trkpt lat="44.28977438227134" lon="11.468940800240167"><ele>522.0</ele><time>2026-04-12T08:29:17Z</time></trkpt><trkpt lat="44.28966752767011" lon="11.46895448302667"><ele>522.0</ele><time>2026-04-12T08:29:18Z</time></trkpt><trkpt lat="44.289561047776566" lon="11.468974975685919"><ele>522.0</ele><time>2026-04-12T08:29:19Z</time></trkpt><trkpt lat="44.28945369383813" lon="11.46899474236929"><ele>522.0</ele><time>2026-04-12T08:29:20Z</time></trkpt><trkpt lat="44.28935097897753" lon="11.469023895446055"><ele>522.0</ele><time>2026-04-12T08:29:21Z</time></trkpt><trkpt lat="44.28925239215674" lon="11.469041612312182"><ele>522.0</ele><time>2026-04-12T08:29:22Z</time></trkpt><trkpt lat="44.28915411200153" lon="11.46904893603936"><ele>522.0</ele><time>2026-04-12T08:29:23Z</time></trkpt><trkpt lat="44.289059584701214" lon="11.469063420700147"><ele>522.0</ele><time>2026-04-12T08:29:24Z</time></trkpt><trkpt lat="44.28895966631114" lon="11.469068408500291"><ele>522.0</ele><time>2026-04-12T08:29:25Z</time></trkpt><trkpt lat="44.28886422112693" lon="11.469082281497258"><ele>522.0</ele><time>2026-04-12T08:29:26Z</time></trkpt><trkpt lat="44.28876721186795" lon="11.469098016368148"><ele>522.0</ele><time>2026-04-12T08:29:27Z</time></trkpt><trkpt lat="44.288663024779645" lon="11.46911685729976"><ele>522.0</ele><time>2026-04-12T08:29:28Z</time></trkpt><trkpt lat="44.288552030676314" lon="11.46913307629381"><ele>522.0</ele><time>2026-04-12T08:29:29Z</time></trkpt><trkpt lat="44.2884417915656" lon="11.469126242372404"><ele>522.0</ele><time>2026-04-12T08:29:30Z</time></trkpt><trkpt lat="44.28833286923452" lon="11.46914212491966"><ele>522.0</ele><time>2026-04-12T08:29:31Z</time></trkpt><trkpt lat="44.28823285322752" lon="11.469151459810242"><ele>522.0</ele><time>2026-04-12T08:29:32Z</time></trkpt><trkpt lat="44.28812491312302" lon="11.4691786195177"><ele>523.0</ele><time>2026-04-12T08:29:33Z</time></trkpt><trkpt lat="44.288009796358836" lon="11.46918535980572"><ele>524.0</ele><time>2026-04-12T08:29:34Z</time></trkpt><trkpt lat="44.28789133816782" lon="11.469199150798879"><ele>525.0</ele><time>2026-04-12T08:29:35Z</time></trkpt><trkpt lat="44.2877726107126" lon="11.46920948440056"><ele>526.0</ele><time>2026-04-12T08:29:36Z</time></trkpt><trkpt lat="44.28766074302597" lon="11.469215425802922"><ele>526.0</ele><time>2026-04-12T08:29:37Z</time></trkpt><trkpt lat="44.28755531189903" lon="11.469212603338011"><ele>526.0</ele><time>2026-04-12T08:29:38Z</time></trkpt><trkpt lat="44.28745372311472" lon="11.469201477754503"><ele>526.0</ele><time>2026-04-12T08:29:39Z</time></trkpt><trkpt lat="44.28735099448523" lon="11.469185182054108"><ele>526.0</ele><time>2026-04-12T08:29:40Z</time></trkpt><trkpt lat="44.28724679319546" lon="11.469182138847705"><ele>526.0</ele><time>2026-04-12T08:29:41Z</time></trkpt><trkpt lat="44.2871391937222" lon="11.469176623071085"><ele>526.0</ele><time>2026-04-12T08:29:42Z</time></trkpt><trkpt lat="44.28702198852378" lon="11.469171425306715"><ele>526.0</ele><time>2026-04-12T08:29:43Z</time></trkpt><trkpt lat="44.28690071570135" lon="11.46916623817108"><ele>526.0</ele><time>2026-04-12T08:29:44Z</time></trkpt><trkpt lat="44.286782250501815" lon="11.469131014918771"><ele>526.0</ele><time>2026-04-12T08:29:45Z</time></trkpt><trkpt lat="44.28666799893483" lon="11.469115029107241"><ele>526.0</ele><time>2026-04-12T08:29:46Z</time></trkpt><trkpt lat="44.28655561819582" lon="11.469120914161646"><ele>526.0</ele><time>2026-04-12T08:29:47Z</time></trkpt><trkpt lat="44.28644947147748" lon="11.469091756092078"><ele>526.0</ele><time>2026-04-12T08:29:48Z</time></trkpt><trkpt lat="44.28635861573192" lon="11.46909733724311"><ele>526.0</ele><time>2026-04-12T08:29:49Z</time></trkpt><trkpt lat="44.286262815080946" lon="11.469096045677423"><ele>526.0</ele><time>2026-04-12T08:29:50Z</time></trkpt><trkpt lat="44.28615719365554" lon="11.469098050363888"><ele>526.0</ele><time>2026-04-12T08:29:51Z</time></trkpt><trkpt lat="44.286046894708214" lon="11.469094222160198"><ele>526.0</ele><time>2026-04-12T08:29:52Z</time></trkpt><trkpt lat="44.28594216106019" lon="11.469089405507297"><ele>526.0</ele><time>2026-04-12T08:29:53Z</time></trkpt><trkpt lat="44.28583580166989" lon="11.469048852592916"><ele>526.0</ele><time>2026-04-12T08:29:54Z</time></trkpt><trkpt lat="44.28574043850562" lon="11.469005181202506"><ele>526.0</ele><time>2026-04-12T08:29:55Z</time></trkpt><trkpt lat="44.285657798295034" lon="11.468963595749448"><ele>526.0</ele><time>2026-04-12T08:29:56Z</time></trkpt><trkpt lat="44.285576391813876" lon="11.468927092244895"><ele>526.0</ele><time>2026-04-12T08:29:57Z</time></trkpt><trkpt lat="44.285487799979045" lon="11.46890002848563"><ele>526.0</ele><time>2026-04-12T08:29:58Z</time></trkpt><trkpt lat="44.28538854184052" lon="11.46891271336771"><ele>526.0</ele><time>2026-04-12T08:29:59Z</time></trkpt><trkpt lat="44.28528609514141" lon="11.468903923238576"><ele>526.0</ele><time>2026-04-12T08:30:00Z</time></trkpt><trkpt lat="44.285193837231375" lon="11.468903136349367"><ele>526.0</ele><time>2026-04-12T08:30:01Z</time></trkpt><trkpt lat="44.28511620408787" lon="11.468898980268088"><ele>526.0</ele><time>2026-04-12T08:30:02Z</time></trkpt><trkpt lat="44.2850447633572" lon="11.46890503331692"><ele>526.0</ele><time>2026-04-12T08:30:02.999Z</time></trkpt><trkpt lat="44.28496276896371" lon="11.468919721804182"><ele>526.0</ele><time>2026-04-12T08:30:03.999Z</time></trkpt><trkpt lat="44.28489296666041" lon="11.468945202592606"><ele>526.0</ele><time>2026-04-12T08:30:04.999Z</time></trkpt><trkpt lat="44.28482596211619" lon="11.468991261121262"><ele>526.0</ele><time>2026-04-12T08:30:05.999Z</time></trkpt><trkpt lat="44.28476158175222" lon="11.469063745514234"><ele>521.8</ele><time>2026-04-12T08:30:06.999Z</time></trkpt><trkpt lat="44.28471168177283" lon="11.469171244104565"><ele>517.6</ele><time>2026-04-12T08:30:07.999Z</time></trkpt><trkpt lat="44.28467192092977" lon="11.469286079446"><ele>513.4</ele><time>2026-04-12T08:30:08.999Z</time></trkpt><trkpt lat="44.28464368836595" lon="11.469412652775473"><ele>509.2</ele><time>2026-04-12T08:30:09.999Z</time></trkpt><trkpt lat="44.28463523114359" lon="11.469508047024874"><ele>505.0</ele><time>2026-04-12T08:30:10.999Z</time></trkpt><trkpt lat="44.28459227144412" lon="11.46967897054335"><ele>504.8</ele><time>2026-04-12T08:30:12.999Z</time></trkpt><trkpt lat="44.284660090769655" lon="11.469798434345094"><ele>504.6</ele><time>2026-04-12T08:30:13.999Z</time></trkpt><trkpt lat="44.284697334463715" lon="11.46990097372578"><ele>504.4</ele><time>2026-04-12T08:30:14.999Z</time></trkpt><trkpt lat="44.2847350708378" lon="11.470011279902696"><ele>504.2</ele><time>2026-04-12T08:30:15.999Z</time></trkpt><trkpt lat="44.2847721098219" lon="11.470179524602566"><ele>504.0</ele><time>2026-04-12T08:30:17.999Z</time></trkpt><trkpt lat="44.2848076584993" lon="11.470312834185897"><ele>503.6</ele><time>2026-04-12T08:30:19.999Z</time></trkpt><trkpt lat="44.2848261294354" lon="11.470481323987078"><ele>503.2</ele><time>2026-04-12T08:30:21.999Z</time></trkpt><trkpt lat="44.284774836880096" lon="11.470586014188827"><ele>502.80000000000007</ele><time>2026-04-12T08:30:22.999Z</time></trkpt><trkpt lat="44.284687411055444" lon="11.470673097005236"><ele>502.40000000000003</ele><time>2026-04-12T08:30:23.999Z</time></trkpt><trkpt lat="44.28463803406998" lon="11.470783001674073"><ele>502.0</ele><time>2026-04-12T08:30:24.999Z</time></trkpt><trkpt lat="44.28459286173175" lon="11.470887064524248"><ele>502.0</ele><time>2026-04-12T08:30:25.999Z</time></trkpt><trkpt lat="44.28457266234156" lon="11.47100537572381"><ele>502.00000000000006</ele><time>2026-04-12T08:30:26.999Z</time></trkpt><trkpt lat="44.28454917192654" lon="11.471130002372094"><ele>502.00000000000006</ele><time>2026-04-12T08:30:27.999Z</time></trkpt><trkpt lat="44.284542761013384" lon="11.471262804668733"><ele>502.0</ele><time>2026-04-12T08:30:28.999Z</time></trkpt><trkpt lat="44.284547091126264" lon="11.471406187241934"><ele>502.0</ele><time>2026-04-12T08:30:29.999Z</time></trkpt><trkpt lat="44.28454578208978" lon="11.471541978860438"><ele>501.6</ele><time>2026-04-12T08:30:30.999Z</time></trkpt><trkpt lat="44.284554496766525" lon="11.471682442527715"><ele>501.20000000000005</ele><time>2026-04-12T08:30:31.999Z</time></trkpt><trkpt lat="44.28456092934955" lon="11.471814753301778"><ele>500.8</ele><time>2026-04-12T08:30:32.999Z</time></trkpt><trkpt lat="44.2845623523656" lon="11.471948894116895"><ele>500.4</ele><time>2026-04-12T08:30:33.999Z</time></trkpt><trkpt lat="44.284558957384654" lon="11.472064869714885"><ele>500.0</ele><time>2026-04-12T08:30:34.999Z</time></trkpt><trkpt lat="44.28456120183756" lon="11.472202623520207"><ele>500.8</ele><time>2026-04-12T08:30:35.999Z</time></trkpt><trkpt lat="44.28453889631929" lon="11.472333193494167"><ele>501.6</ele><time>2026-04-12T08:30:36.999Z</time></trkpt><trkpt lat="44.28449638540727" lon="11.472453289446385"><ele>502.4</ele><time>2026-04-12T08:30:37.999Z</time></trkpt><trkpt lat="44.284465242061756" lon="11.472582399510278"><ele>503.2</ele><time>2026-04-12T08:30:38.999Z</time></trkpt><trkpt lat="44.28439482356988" lon="11.472681081788082"><ele>504.0</ele><time>2026-04-12T08:30:39.999Z</time></trkpt><trkpt lat="44.28434581232294" lon="11.472803891693319"><ele>504.0</ele><time>2026-04-12T08:30:40.999Z</time></trkpt><trkpt lat="44.2842967995132" lon="11.472924822725625"><ele>504.0</ele><time>2026-04-12T08:30:41.999Z</time></trkpt><trkpt lat="44.28424494765388" lon="11.473053754007783"><ele>504.0</ele><time>2026-04-12T08:30:42.999Z</time></trkpt><trkpt lat="44.28419077918513" lon="11.473173924893949"><ele>504.0</ele><time>2026-04-12T08:30:43.999Z</time></trkpt><trkpt lat="44.28412540680282" lon="11.473284374380501"><ele>504.0</ele><time>2026-04-12T08:30:44.999Z</time></trkpt><trkpt lat="44.28405335488822" lon="11.473387849316943"><ele>504.79999999999995</ele><time>2026-04-12T08:30:45.999Z</time></trkpt><trkpt lat="44.28398005365527" lon="11.473481864306287"><ele>505.59999999999997</ele><time>2026-04-12T08:30:46.999Z</time></trkpt><trkpt lat="44.283912432955596" lon="11.473577292538963"><ele>506.4</ele><time>2026-04-12T08:30:47.999Z</time></trkpt><trkpt lat="44.283851821865156" lon="11.473671745847598"><ele>507.2</ele><time>2026-04-12T08:30:48.999Z</time></trkpt><trkpt lat="44.28378803378069" lon="11.473764948376578"><ele>508.0</ele><time>2026-04-12T08:30:49.999Z</time></trkpt><trkpt lat="44.28371291221018" lon="11.473858510744183"><ele>508.0</ele><time>2026-04-12T08:30:50.999Z</time></trkpt><trkpt lat="44.28362324067227" lon="11.473922702982804"><ele>507.99999999999994</ele><time>2026-04-12T08:30:51.999Z</time></trkpt><trkpt lat="44.28354704694246" lon="11.47401609662083"><ele>507.99999999999994</ele><time>2026-04-12T08:30:52.999Z</time></trkpt><trkpt lat="44.28345856938126" lon="11.474092851499144"><ele>508.0</ele><time>2026-04-12T08:30:53.999Z</time></trkpt><trkpt lat="44.28336962371536" lon="11.474166897683721"><ele>508.0</ele><time>2026-04-12T08:30:54.999Z</time></trkpt><trkpt lat="44.283292717092515" lon="11.474234704027433"><ele>508.00000000000006</ele><time>2026-04-12T08:30:55.999Z</time></trkpt><trkpt lat="44.28323074637914" lon="11.47428613641067"><ele>508.0</ele><time>2026-04-12T08:30:56.999Z</time></trkpt><trkpt lat="44.28315819524362" lon="11.474353351127407"><ele>508.0</ele><time>2026-04-12T08:30:57.999Z</time></trkpt><trkpt lat="44.28307844077795" lon="11.474419112466636"><ele>508.0</ele><time>2026-04-12T08:30:58.999Z</time></trkpt><trkpt lat="44.282994273283904" lon="11.474483325982511"><ele>508.00000000000006</ele><time>2026-04-12T08:30:59.999Z</time></trkpt><trkpt lat="44.28292690368823" lon="11.474542034417922"><ele>508.0</ele><time>2026-04-12T08:31:00.999Z</time></trkpt><trkpt lat="44.282870454514345" lon="11.474598384360261"><ele>509.1666666666667</ele><time>2026-04-12T08:31:01.999Z</time></trkpt><trkpt lat="44.28281666982149" lon="11.474648143691999"><ele>510.33333333333337</ele><time>2026-04-12T08:31:02.999Z</time></trkpt><trkpt lat="44.282733413486945" lon="11.474679520946545"><ele>511.5</ele><time>2026-04-12T08:31:03.999Z</time></trkpt><trkpt lat="44.28265581067109" lon="11.474742673411548"><ele>512.6666666666666</ele><time>2026-04-12T08:31:04.999Z</time></trkpt><trkpt lat="44.28260084590692" lon="11.474838380383982"><ele>513.8333333333333</ele><time>2026-04-12T08:31:05.999Z</time></trkpt><trkpt lat="44.282552438391185" lon="11.474924504269962"><ele>515.0</ele><time>2026-04-12T08:31:06.999Z</time></trkpt><trkpt lat="44.28251663289155" lon="11.475030632550551"><ele>515.0</ele><time>2026-04-12T08:31:07.999Z</time></trkpt><trkpt lat="44.28248145863846" lon="11.47515370354367"><ele>515.0</ele><time>2026-04-12T08:31:08.999Z</time></trkpt><trkpt lat="44.28244692395074" lon="11.475302355131161"><ele>515.0</ele><time>2026-04-12T08:31:09.999Z</time></trkpt><trkpt lat="44.282414464375464" lon="11.475464476493661"><ele>515.0</ele><time>2026-04-12T08:31:10.999Z</time></trkpt><trkpt lat="44.28238250092347" lon="11.4756381649513"><ele>515.6</ele><time>2026-04-12T08:31:11.999Z</time></trkpt><trkpt lat="44.28235181783208" lon="11.475809061714164"><ele>516.2</ele><time>2026-04-12T08:31:12.999Z</time></trkpt><trkpt lat="44.28234572402852" lon="11.475977152541786"><ele>516.8</ele><time>2026-04-12T08:31:13.999Z</time></trkpt><trkpt lat="44.282337860893726" lon="11.476124349389455"><ele>517.4</ele><time>2026-04-12T08:31:14.999Z</time></trkpt><trkpt lat="44.28232930490601" lon="11.47624382345848"><ele>518.0</ele><time>2026-04-12T08:31:15.998Z</time></trkpt><trkpt lat="44.282303804749574" lon="11.476376348497908"><ele>517.75</ele><time>2026-04-12T08:31:16.998Z</time></trkpt><trkpt lat="44.282262894813755" lon="11.476512881129883"><ele>517.5</ele><time>2026-04-12T08:31:17.998Z</time></trkpt><trkpt lat="44.28220184882522" lon="11.476656501094256"><ele>517.25</ele><time>2026-04-12T08:31:18.998Z</time></trkpt><trkpt lat="44.28213222432901" lon="11.476802818468514"><ele>517.0</ele><time>2026-04-12T08:31:20Z</time></trkpt><trkpt lat="44.28204715041466" lon="11.47694031264164"><ele>517.0</ele><time>2026-04-12T08:31:21Z</time></trkpt><trkpt lat="44.28194982400303" lon="11.477069712757638"><ele>517.0</ele><time>2026-04-12T08:31:22Z</time></trkpt><trkpt lat="44.281875710734674" lon="11.477191370745889"><ele>517.0</ele><time>2026-04-12T08:31:23Z</time></trkpt><trkpt lat="44.2818056261736" lon="11.477291141118336"><ele>517.0</ele><time>2026-04-12T08:31:24Z</time></trkpt><trkpt lat="44.28173414093643" lon="11.477383863487473"><ele>517.0</ele><time>2026-04-12T08:31:25Z</time></trkpt><trkpt lat="44.28166782875124" lon="11.477483560593527"><ele>519.2</ele><time>2026-04-12T08:31:26Z</time></trkpt><trkpt lat="44.28158862882237" lon="11.477584468220014"><ele>521.4000000000001</ele><time>2026-04-12T08:31:27Z</time></trkpt><trkpt lat="44.28152904442941" lon="11.477713711730331"><ele>523.5999999999999</ele><time>2026-04-12T08:31:28Z</time></trkpt><trkpt lat="44.28146647878315" lon="11.477839109932502"><ele>525.8</ele><time>2026-04-12T08:31:29Z</time></trkpt><trkpt lat="44.2814259726423" lon="11.477997698563923"><ele>528.0</ele><time>2026-04-12T08:31:30Z</time></trkpt><trkpt lat="44.28138535817852" lon="11.478157150091183"><ele>528.6</ele><time>2026-04-12T08:31:31Z</time></trkpt><trkpt lat="44.28133989010101" lon="11.478297069822554"><ele>529.1999999999999</ele><time>2026-04-12T08:31:32Z</time></trkpt><trkpt lat="44.2812805718427" lon="11.478414253227944"><ele>529.8</ele><time>2026-04-12T08:31:33Z</time></trkpt><trkpt lat="44.281208312281144" lon="11.478499764367742"><ele>530.4</ele><time>2026-04-12T08:31:34Z</time></trkpt><trkpt lat="44.28112543036586" lon="11.47856939201442"><ele>531.0</ele><time>2026-04-12T08:31:35Z</time></trkpt><trkpt lat="44.28103870896861" lon="11.478614739013254"><ele>531.0</ele><time>2026-04-12T08:31:36Z</time></trkpt><trkpt lat="44.280969413632704" lon="11.478649586275118"><ele>531.0</ele><time>2026-04-12T08:31:37Z</time></trkpt><trkpt lat="44.28089791401283" lon="11.47869494410619"><ele>531.0</ele><time>2026-04-12T08:31:38Z</time></trkpt><trkpt lat="44.2808208071064" lon="11.47875713455152"><ele>531.0</ele><time>2026-04-12T08:31:39Z</time></trkpt><trkpt lat="44.28072146147486" lon="11.478850425639893"><ele>531.0</ele><time>2026-04-12T08:31:40Z</time></trkpt><trkpt lat="44.280630400810786" lon="11.478962388471547"><ele>530.0</ele><time>2026-04-12T08:31:41Z</time></trkpt><trkpt lat="44.28054245902487" lon="11.479090490150371"><ele>529.0</ele><time>2026-04-12T08:31:42Z</time></trkpt><trkpt lat="44.28045519180911" lon="11.47920232532049"><ele>528.0</ele><time>2026-04-12T08:31:43Z</time></trkpt><trkpt lat="44.280363536878106" lon="11.479313002272379"><ele>527.0</ele><time>2026-04-12T08:31:44Z</time></trkpt><trkpt lat="44.280264196274054" lon="11.47939414783427"><ele>527.0</ele><time>2026-04-12T08:31:45Z</time></trkpt><trkpt lat="44.280163728370155" lon="11.479463374635095"><ele>527.0</ele><time>2026-04-12T08:31:46Z</time></trkpt><trkpt lat="44.28007871412627" lon="11.47951784254948"><ele>527.0</ele><time>2026-04-12T08:31:47Z</time></trkpt><trkpt lat="44.27997552782452" lon="11.479555029982128"><ele>527.0</ele><time>2026-04-12T08:31:48Z</time></trkpt><trkpt lat="44.279873605754155" lon="11.479591515485067"><ele>527.0</ele><time>2026-04-12T08:31:49Z</time></trkpt><trkpt lat="44.27977655577605" lon="11.479621098231878"><ele>530.25</ele><time>2026-04-12T08:31:50Z</time></trkpt><trkpt lat="44.27966371988912" lon="11.479650608887738"><ele>533.5</ele><time>2026-04-12T08:31:51Z</time></trkpt><trkpt lat="44.27954927723414" lon="11.479655891400965"><ele>536.75</ele><time>2026-04-12T08:31:52Z</time></trkpt><trkpt lat="44.2794268537205" lon="11.479647856011367"><ele>540.0</ele><time>2026-04-12T08:31:53Z</time></trkpt><trkpt lat="44.27930240591597" lon="11.479633726986554"><ele>540.0</ele><time>2026-04-12T08:31:54Z</time></trkpt><trkpt lat="44.27917866190211" lon="11.47961720375731"><ele>540.0</ele><time>2026-04-12T08:31:55Z</time></trkpt><trkpt lat="44.279063642296705" lon="11.479604547529418"><ele>540.0</ele><time>2026-04-12T08:31:56Z</time></trkpt><trkpt lat="44.2789599104091" lon="11.479599693171966"><ele>540.0</ele><time>2026-04-12T08:31:57Z</time></trkpt><trkpt lat="44.278851872180944" lon="11.479600062859022"><ele>535.6</ele><time>2026-04-12T08:31:58Z</time></trkpt><trkpt lat="44.27874511699826" lon="11.479595395727058"><ele>531.2</ele><time>2026-04-12T08:31:59Z</time></trkpt><trkpt lat="44.2786409481251" lon="11.47959769416515"><ele>526.8</ele><time>2026-04-12T08:32:00Z</time></trkpt><trkpt lat="44.27853160134977" lon="11.479572550524914"><ele>522.4</ele><time>2026-04-12T08:32:01Z</time></trkpt><trkpt lat="44.27842971707342" lon="11.479514206523309"><ele>518.0</ele><time>2026-04-12T08:32:02Z</time></trkpt><trkpt lat="44.27831704435919" lon="11.47941969899609"><ele>518.0</ele><time>2026-04-12T08:32:03Z</time></trkpt><trkpt lat="44.27819795059288" lon="11.47931950298515"><ele>518.0</ele><time>2026-04-12T08:32:04Z</time></trkpt><trkpt lat="44.278076529945174" lon="11.47921088128788"><ele>518.0</ele><time>2026-04-12T08:32:05Z</time></trkpt><trkpt lat="44.27795642150795" lon="11.479110704992863"><ele>518.0</ele><time>2026-04-12T08:32:06Z</time></trkpt><trkpt lat="44.27783345470905" lon="11.479023409479085"><ele>518.25</ele><time>2026-04-12T08:32:07Z</time></trkpt><trkpt lat="44.277705321940815" lon="11.478939859037558"><ele>518.5</ele><time>2026-04-12T08:32:08Z</time></trkpt><trkpt lat="44.27759175350259" lon="11.478858331221547"><ele>518.75</ele><time>2026-04-12T08:32:09Z</time></trkpt><trkpt lat="44.27746999893765" lon="11.478774641124682"><ele>519.0</ele><time>2026-04-12T08:32:10Z</time></trkpt><trkpt lat="44.27735198544878" lon="11.47868456388127"><ele>516.0</ele><time>2026-04-12T08:32:10.999Z</time></trkpt><trkpt lat="44.27723650902059" lon="11.478589357216425"><ele>513.0</ele><time>2026-04-12T08:32:11.999Z</time></trkpt><trkpt lat="44.27711760608333" lon="11.478489814913846"><ele>510.0</ele><time>2026-04-12T08:32:12.999Z</time></trkpt><trkpt lat="44.27701472751819" lon="11.478406764060527"><ele>507.0</ele><time>2026-04-12T08:32:13.999Z</time></trkpt><trkpt lat="44.276919091928065" lon="11.478339255278657"><ele>507.0</ele><time>2026-04-12T08:32:14.999Z</time></trkpt><trkpt lat="44.276840309368204" lon="11.478256801745541"><ele>507.00000000000006</ele><time>2026-04-12T08:32:15.999Z</time></trkpt><trkpt lat="44.27676592937913" lon="11.478183717170221"><ele>507.00000000000006</ele><time>2026-04-12T08:32:16.999Z</time></trkpt><trkpt lat="44.276684668255115" lon="11.47811247978415"><ele>507.0</ele><time>2026-04-12T08:32:17.999Z</time></trkpt><trkpt lat="44.27663439458773" lon="11.478000538989777"><ele>507.0</ele><time>2026-04-12T08:32:18.999Z</time></trkpt><trkpt lat="44.27657825999881" lon="11.477887629933162"><ele>505.1666666666667</ele><time>2026-04-12T08:32:19.999Z</time></trkpt><trkpt lat="44.276534695951895" lon="11.477775853404834"><ele>503.33333333333337</ele><time>2026-04-12T08:32:20.999Z</time></trkpt><trkpt lat="44.27647450995455" lon="11.477674763437792"><ele>501.5</ele><time>2026-04-12T08:32:21.999Z</time></trkpt><trkpt lat="44.276395232403765" lon="11.47761793721929"><ele>499.6666666666667</ele><time>2026-04-12T08:32:22.999Z</time></trkpt><trkpt lat="44.27632190867381" lon="11.477579807443053"><ele>497.83333333333337</ele><time>2026-04-12T08:32:23.999Z</time></trkpt><trkpt lat="44.27624502478194" lon="11.477572140608379"><ele>496.0</ele><time>2026-04-12T08:32:24.999Z</time></trkpt><trkpt lat="44.27617428697841" lon="11.477586108384562"><ele>495.0</ele><time>2026-04-12T08:32:25.999Z</time></trkpt><trkpt lat="44.27609443031439" lon="11.47761313342959"><ele>494.0</ele><time>2026-04-12T08:32:26.999Z</time></trkpt><trkpt lat="44.276011831387784" lon="11.477655682116518"><ele>493.0</ele><time>2026-04-12T08:32:27.999Z</time></trkpt><trkpt lat="44.275925187483594" lon="11.47772733993639"><ele>492.0</ele><time>2026-04-12T08:32:28.999Z</time></trkpt><trkpt lat="44.27583977756721" lon="11.477822333437283"><ele>491.0</ele><time>2026-04-12T08:32:29.999Z</time></trkpt><trkpt lat="44.27575943519957" lon="11.477928072726119"><ele>493.8</ele><time>2026-04-12T08:32:30.999Z</time></trkpt><trkpt lat="44.275697946868554" lon="11.478025853772943"><ele>496.6</ele><time>2026-04-12T08:32:31.999Z</time></trkpt><trkpt lat="44.275662498754215" lon="11.478121580247437"><ele>499.4</ele><time>2026-04-12T08:32:32.999Z</time></trkpt><trkpt lat="44.27564694676148" lon="11.478236682157082"><ele>502.2</ele><time>2026-04-12T08:32:33.999Z</time></trkpt><trkpt lat="44.27565378995985" lon="11.478371704382694"><ele>505.0</ele><time>2026-04-12T08:32:34.999Z</time></trkpt><trkpt lat="44.275649461747136" lon="11.478519934061183"><ele>505.0</ele><time>2026-04-12T08:32:35.999Z</time></trkpt><trkpt lat="44.27565024653088" lon="11.47866943571627"><ele>505.0</ele><time>2026-04-12T08:32:36.999Z</time></trkpt><trkpt lat="44.275642822053044" lon="11.47880289236368"><ele>505.0</ele><time>2026-04-12T08:32:37.999Z</time></trkpt><trkpt lat="44.275589637107636" lon="11.478922189283658"><ele>505.0</ele><time>2026-04-12T08:32:38.999Z</time></trkpt><trkpt lat="44.27552319953793" lon="11.479034409751245"><ele>505.0</ele><time>2026-04-12T08:32:39.999Z</time></trkpt><trkpt lat="44.275474543022824" lon="11.479146417003541"><ele>504.33333333333337</ele><time>2026-04-12T08:32:40.999Z</time></trkpt><trkpt lat="44.27542442445955" lon="11.4792488203106"><ele>503.6666666666667</ele><time>2026-04-12T08:32:41.999Z</time></trkpt><trkpt lat="44.27538779008155" lon="11.479353376087053"><ele>503.0</ele><time>2026-04-12T08:32:42.999Z</time></trkpt><trkpt lat="44.2753536276509" lon="11.479460053725358"><ele>502.33333333333337</ele><time>2026-04-12T08:32:43.999Z</time></trkpt><trkpt lat="44.27531274416577" lon="11.479561432388868"><ele>501.6666666666667</ele><time>2026-04-12T08:32:44.999Z</time></trkpt><trkpt lat="44.27523156009743" lon="11.47962032132184"><ele>501.0</ele><time>2026-04-12T08:32:45.999Z</time></trkpt><trkpt lat="44.275133712683385" lon="11.479609571161205"><ele>501.0</ele><time>2026-04-12T08:32:46.999Z</time></trkpt><trkpt lat="44.275029764258484" lon="11.47960539385324"><ele>501.0</ele><time>2026-04-12T08:32:47.999Z</time></trkpt><trkpt lat="44.274921409672885" lon="11.479526409497794"><ele>501.0</ele><time>2026-04-12T08:32:48.999Z</time></trkpt><trkpt lat="44.274805979466144" lon="11.479435790117513"><ele>501.0</ele><time>2026-04-12T08:32:49.999Z</time></trkpt><trkpt lat="44.27472053958721" lon="11.47935844224469"><ele>502.1666666666667</ele><time>2026-04-12T08:32:50.999Z</time></trkpt><trkpt lat="44.274643335350454" lon="11.479293011049885"><ele>503.33333333333337</ele><time>2026-04-12T08:32:51.999Z</time></trkpt><trkpt lat="44.274579224262105" lon="11.479271831721732"><ele>504.5</ele><time>2026-04-12T08:32:52.999Z</time></trkpt><trkpt lat="44.27450582168409" lon="11.479282843034742"><ele>505.6666666666667</ele><time>2026-04-12T08:32:53.999Z</time></trkpt><trkpt lat="44.27443071261988" lon="11.479309662935192"><ele>506.83333333333337</ele><time>2026-04-12T08:32:54.999Z</time></trkpt><trkpt lat="44.27437699669046" lon="11.479443832948899"><ele>508.0</ele><time>2026-04-12T08:32:55.999Z</time></trkpt><trkpt lat="44.274321529522396" lon="11.479579470510703"><ele>510.75</ele><time>2026-04-12T08:32:56.999Z</time></trkpt><trkpt lat="44.274253615708304" lon="11.479736865992425"><ele>513.5</ele><time>2026-04-12T08:32:57.999Z</time></trkpt><trkpt lat="44.274164664203845" lon="11.479860698832068"><ele>516.25</ele><time>2026-04-12T08:32:58.999Z</time></trkpt><trkpt lat="44.27410553367434" lon="11.479979325559952"><ele>519.0</ele><time>2026-04-12T08:32:59.999Z</time></trkpt><trkpt lat="44.27402318576215" lon="11.480055446502014"><ele>518.0</ele><time>2026-04-12T08:33:00.999Z</time></trkpt><trkpt lat="44.27393061203945" lon="11.480081761905016"><ele>517.0</ele><time>2026-04-12T08:33:01.999Z</time></trkpt><trkpt lat="44.27386388678528" lon="11.480129737948937"><ele>516.0</ele><time>2026-04-12T08:33:02.999Z</time></trkpt><trkpt lat="44.273799434070014" lon="11.480160888517243"><ele>515.0</ele><time>2026-04-12T08:33:03.999Z</time></trkpt><trkpt lat="44.273729609522626" lon="11.480203520653895"><ele>514.0</ele><time>2026-04-12T08:33:04.999Z</time></trkpt><trkpt lat="44.27364528096182" lon="11.480218551570667"><ele>513.0</ele><time>2026-04-12T08:33:05.999Z</time></trkpt><trkpt lat="44.2735572556711" lon="11.480232604442232"><ele>513.0</ele><time>2026-04-12T08:33:06.999Z</time></trkpt><trkpt lat="44.27346209150715" lon="11.480247760770997"><ele>513.0</ele><time>2026-04-12T08:33:07.999Z</time></trkpt><trkpt lat="44.27336650144737" lon="11.480276020861345"><ele>513.0</ele><time>2026-04-12T08:33:08.999Z</time></trkpt><trkpt lat="44.27327214143134" lon="11.480295367776373"><ele>513.0</ele><time>2026-04-12T08:33:09.999Z</time></trkpt><trkpt lat="44.273180523096194" lon="11.480327492479358"><ele>513.0</ele><time>2026-04-12T08:33:10.999Z</time></trkpt><trkpt lat="44.2730961973118" lon="11.480383251788412"><ele>510.3333333333333</ele><time>2026-04-12T08:33:11.999Z</time></trkpt><trkpt lat="44.273014010382276" lon="11.48045519728097"><ele>507.66666666666663</ele><time>2026-04-12T08:33:12.999Z</time></trkpt><trkpt lat="44.27292798106915" lon="11.480503014306986"><ele>505.0</ele><time>2026-04-12T08:33:13.999Z</time></trkpt><trkpt lat="44.27284704452345" lon="11.480556838095048"><ele>502.3333333333333</ele><time>2026-04-12T08:33:14.999Z</time></trkpt><trkpt lat="44.27277726433695" lon="11.480595668552224"><ele>499.66666666666663</ele><time>2026-04-12T08:33:15.999Z</time></trkpt><trkpt lat="44.27269988238763" lon="11.480622006994796"><ele>497.0</ele><time>2026-04-12T08:33:16.999Z</time></trkpt><trkpt lat="44.27261462052508" lon="11.480610845097898"><ele>497.0</ele><time>2026-04-12T08:33:17.999Z</time></trkpt><trkpt lat="44.27250847738656" lon="11.480605627213697"><ele>497.00000000000006</ele><time>2026-04-12T08:33:18.999Z</time></trkpt><trkpt lat="44.27240293090804" lon="11.480552688583769"><ele>497.00000000000006</ele><time>2026-04-12T08:33:19.999Z</time></trkpt><trkpt lat="44.272297616721005" lon="11.480501268167309"><ele>497.0</ele><time>2026-04-12T08:33:20.999Z</time></trkpt><trkpt lat="44.27219523282962" lon="11.480460358637888"><ele>497.0</ele><time>2026-04-12T08:33:21.999Z</time></trkpt><trkpt lat="44.27208415630028" lon="11.480425019960041"><ele>494.0</ele><time>2026-04-12T08:33:22.999Z</time></trkpt><trkpt lat="44.2719708519151" lon="11.480392705016579"><ele>491.00000000000006</ele><time>2026-04-12T08:33:23.999Z</time></trkpt><trkpt lat="44.27186379210084" lon="11.480369195107622"><ele>488.00000000000006</ele><time>2026-04-12T08:33:24.999Z</time></trkpt><trkpt lat="44.2717646016359" lon="11.480311848349366"><ele>485.0</ele><time>2026-04-12T08:33:26Z</time></trkpt><trkpt lat="44.27166535523366" lon="11.480310913357357"><ele>482.0</ele><time>2026-04-12T08:33:27Z</time></trkpt><trkpt lat="44.271579818460076" lon="11.48028702931291"><ele>481.99999999999994</ele><time>2026-04-12T08:33:28Z</time></trkpt><trkpt lat="44.27149265822516" lon="11.480272902514924"><ele>482.0</ele><time>2026-04-12T08:33:29Z</time></trkpt><trkpt lat="44.27142196819809" lon="11.48027719525453"><ele>482.0</ele><time>2026-04-12T08:33:30Z</time></trkpt><trkpt lat="44.271350297078726" lon="11.480305624999849"><ele>482.0</ele><time>2026-04-12T08:33:31Z</time></trkpt><trkpt lat="44.27128794064903" lon="11.480368774185878"><ele>481.99999999999994</ele><time>2026-04-12T08:33:32Z</time></trkpt><trkpt lat="44.271233352356454" lon="11.480460010960256"><ele>482.0</ele><time>2026-04-12T08:33:33Z</time></trkpt><trkpt lat="44.271190555306326" lon="11.480564551764871"><ele>479.16666666666663</ele><time>2026-04-12T08:33:34Z</time></trkpt><trkpt lat="44.27116298575062" lon="11.48068105019357"><ele>476.3333333333333</ele><time>2026-04-12T08:33:35Z</time></trkpt><trkpt lat="44.27114767981899" lon="11.480800988092241"><ele>473.5</ele><time>2026-04-12T08:33:36Z</time></trkpt><trkpt lat="44.271143726412085" lon="11.480906309950461"><ele>470.66666666666663</ele><time>2026-04-12T08:33:37Z</time></trkpt><trkpt lat="44.271152242279584" lon="11.48102168344429"><ele>467.8333333333333</ele><time>2026-04-12T08:33:38Z</time></trkpt><trkpt lat="44.27117899389875" lon="11.481121370828156"><ele>465.0</ele><time>2026-04-12T08:33:39Z</time></trkpt><trkpt lat="44.27122267525731" lon="11.48121388773155"><ele>464.0</ele><time>2026-04-12T08:33:40Z</time></trkpt><trkpt lat="44.27124385485604" lon="11.48130963435403"><ele>463.0</ele><time>2026-04-12T08:33:41Z</time></trkpt><trkpt lat="44.27127342240722" lon="11.481395179927684"><ele>462.0</ele><time>2026-04-12T08:33:42Z</time></trkpt><trkpt lat="44.271267246400775" lon="11.481558614850156"><ele>461.0</ele><time>2026-04-12T08:33:44Z</time></trkpt><trkpt lat="44.27118650014667" lon="11.481689077269614"><ele>460.0</ele><time>2026-04-12T08:33:46Z</time></trkpt><trkpt lat="44.27107156266971" lon="11.481757308628183"><ele>460.00000000000006</ele><time>2026-04-12T08:33:48Z</time></trkpt><trkpt lat="44.270962002345314" lon="11.481763449601448"><ele>460.0</ele><time>2026-04-12T08:33:50Z</time></trkpt><trkpt lat="44.27087830881816" lon="11.481725788536531"><ele>460.0</ele><time>2026-04-12T08:33:52Z</time></trkpt><trkpt lat="44.27082049658762" lon="11.48167537082168"><ele>460.0</ele><time>2026-04-12T08:33:54Z</time></trkpt><trkpt lat="44.270885164814885" lon="11.481735576367926"><ele>460.00000000000006</ele><time>2026-04-12T08:34:12Z</time></trkpt><trkpt lat="44.27097317602121" lon="11.481771747792614"><ele>460.0</ele><time>2026-04-12T08:34:14Z</time></trkpt><trkpt lat="44.27107615658788" lon="11.481753030880151"><ele>460.0</ele><time>2026-04-12T08:34:16Z</time></trkpt><trkpt lat="44.271088935418064" lon="11.48188841136654"><ele>460.0</ele><time>2026-04-12T08:34:17Z</time></trkpt><trkpt lat="44.27123388573739" lon="11.481668213017228"><ele>460.0</ele><time>2026-04-12T08:34:18Z</time></trkpt><trkpt lat="44.27127344905588" lon="11.481595677747565"><ele>460.0</ele><time>2026-04-12T08:34:19Z</time></trkpt><trkpt lat="44.27129296275009" lon="11.481424873710456"><ele>460.00000000000006</ele><time>2026-04-12T08:34:20.999Z</time></trkpt><trkpt lat="44.27127878150993" lon="11.48132984063492"><ele>460.0</ele><time>2026-04-12T08:34:21.999Z</time></trkpt><trkpt lat="44.27125451637955" lon="11.481238945867267"><ele>460.0</ele><time>2026-04-12T08:34:22.999Z</time></trkpt><trkpt lat="44.271215148679524" lon="11.48112682285015"><ele>460.0</ele><time>2026-04-12T08:34:23.999Z</time></trkpt><trkpt lat="44.271164973573896" lon="11.481007821605067"><ele>460.00000000000006</ele><time>2026-04-12T08:34:24.999Z</time></trkpt><trkpt lat="44.271141009561674" lon="11.48089764336187"><ele>460.0</ele><time>2026-04-12T08:34:25.999Z</time></trkpt><trkpt lat="44.27114871884541" lon="11.480795921252259"><ele>460.6666666666667</ele><time>2026-04-12T08:34:26.999Z</time></trkpt><trkpt lat="44.27117365272326" lon="11.480664822590553"><ele>461.33333333333337</ele><time>2026-04-12T08:34:27.999Z</time></trkpt><trkpt lat="44.27120652421202" lon="11.480567190283343"><ele>462.0</ele><time>2026-04-12T08:34:28.999Z</time></trkpt><trkpt lat="44.271246272173435" lon="11.48046887296506"><ele>462.66666666666663</ele><time>2026-04-12T08:34:29.999Z</time></trkpt><trkpt lat="44.27131302174046" lon="11.480366362732736"><ele>463.3333333333333</ele><time>2026-04-12T08:34:31.999Z</time></trkpt><trkpt lat="44.271389014544994" lon="11.480298371213326"><ele>464.0</ele><time>2026-04-12T08:34:33.999Z</time></trkpt><trkpt lat="44.27145759355787" lon="11.480275561548888"><ele>466.99999999999994</ele><time>2026-04-12T08:34:48.999Z</time></trkpt><trkpt lat="44.27155548483018" lon="11.480322605857506"><ele>470.0</ele><time>2026-04-12T08:34:50.999Z</time></trkpt><trkpt lat="44.27164334352549" lon="11.480319514165322"><ele>473.0</ele><time>2026-04-12T08:34:52.999Z</time></trkpt><trkpt lat="44.271711340294054" lon="11.480328715762097"><ele>476.0</ele><time>2026-04-12T08:34:54.999Z</time></trkpt><trkpt lat="44.27164638407195" lon="11.480310836505687"><ele>478.99999999999994</ele><time>2026-04-12T08:35:09.999Z</time></trkpt><trkpt lat="44.27156907207584" lon="11.480324106903943"><ele>482.0</ele><time>2026-04-12T08:35:11.999Z</time></trkpt><trkpt lat="44.27150546689364" lon="11.480296695226636"><ele>478.6</ele><time>2026-04-12T08:35:18.999Z</time></trkpt><trkpt lat="44.271410987583074" lon="11.480304032470888"><ele>475.20000000000005</ele><time>2026-04-12T08:35:21.999Z</time></trkpt><trkpt lat="44.27134181329894" lon="11.480345590574368"><ele>471.8</ele><time>2026-04-12T08:35:24.999Z</time></trkpt><trkpt lat="44.27128870786631" lon="11.480394419893793"><ele>468.4</ele><time>2026-04-12T08:35:27.999Z</time></trkpt><trkpt lat="44.27122428330358" lon="11.480333839591145"><ele>465.0</ele><time>2026-04-12T08:35:36Z</time></trkpt><trkpt lat="44.2711900987759" lon="11.480611897389311"><ele>465.0</ele><time>2026-04-12T08:35:37Z</time></trkpt><trkpt lat="44.27116184637064" lon="11.480720356202779"><ele>465.0</ele><time>2026-04-12T08:35:38Z</time></trkpt><trkpt lat="44.27114972256443" lon="11.480833835318062"><ele>465.0</ele><time>2026-04-12T08:35:39Z</time></trkpt><trkpt lat="44.27114351302835" lon="11.48093329790646"><ele>465.0</ele><time>2026-04-12T08:35:40Z</time></trkpt><trkpt lat="44.27115495324757" lon="11.481025612084437"><ele>465.0</ele><time>2026-04-12T08:35:41Z</time></trkpt><trkpt lat="44.27117963588542" lon="11.481113470214577"><ele>465.0</ele><time>2026-04-12T08:35:42Z</time></trkpt><trkpt lat="44.27121526096634" lon="11.481194905583527"><ele>465.0</ele><time>2026-04-12T08:35:43Z</time></trkpt><trkpt lat="44.271253498198945" lon="11.481265929519486"><ele>464.1666666666667</ele><time>2026-04-12T08:35:44Z</time></trkpt><trkpt lat="44.27130107635435" lon="11.481408414337874"><ele>463.33333333333337</ele><time>2026-04-12T08:35:46Z</time></trkpt><trkpt lat="44.27128541560303" lon="11.481572337811267"><ele>462.5</ele><time>2026-04-12T08:35:48Z</time></trkpt><trkpt lat="44.271260811002485" lon="11.481655611908304"><ele>461.6666666666667</ele><time>2026-04-12T08:35:49Z</time></trkpt><trkpt lat="44.2712144772799" lon="11.481724204762827"><ele>460.83333333333337</ele><time>2026-04-12T08:35:50Z</time></trkpt><trkpt lat="44.27115228613529" lon="11.481768973987467"><ele>460.0</ele><time>2026-04-12T08:35:51Z</time></trkpt><trkpt lat="44.271031677730626" lon="11.481793420708021"><ele>460.0</ele><time>2026-04-12T08:35:53Z</time></trkpt><trkpt lat="44.270913882656124" lon="11.48175143493321"><ele>460.0</ele><time>2026-04-12T08:35:55Z</time></trkpt><trkpt lat="44.27080174599066" lon="11.481673345888078"><ele>460.0</ele><time>2026-04-12T08:35:57Z</time></trkpt><trkpt lat="44.270750898909036" lon="11.481595214167484"><ele>460.0</ele><time>2026-04-12T08:35:58Z</time></trkpt><trkpt lat="44.270710476277195" lon="11.48148605411703"><ele>460.0</ele><time>2026-04-12T08:35:59Z</time></trkpt><trkpt lat="44.27067136155003" lon="11.48134120186678"><ele>461.0</ele><time>2026-04-12T08:36:00Z</time></trkpt><trkpt lat="44.270636854135255" lon="11.481191672409762"><ele>462.0</ele><time>2026-04-12T08:36:01Z</time></trkpt><trkpt lat="44.27059636692646" lon="11.481056649649286"><ele>463.0</ele><time>2026-04-12T08:36:02Z</time></trkpt><trkpt lat="44.27055337181526" lon="11.480931734381054"><ele>464.0</ele><time>2026-04-12T08:36:03Z</time></trkpt><trkpt lat="44.27050739497457" lon="11.480808680137063"><ele>465.0</ele><time>2026-04-12T08:36:04Z</time></trkpt><trkpt lat="44.27045637117074" lon="11.480689618486696"><ele>459.6</ele><time>2026-04-12T08:36:05Z</time></trkpt><trkpt lat="44.27040040795417" lon="11.480582069420564"><ele>454.2</ele><time>2026-04-12T08:36:06Z</time></trkpt><trkpt lat="44.27034110871148" lon="11.480481381373744"><ele>448.79999999999995</ele><time>2026-04-12T08:36:07Z</time></trkpt><trkpt lat="44.27027809280152" lon="11.480387361019593"><ele>443.4</ele><time>2026-04-12T08:36:08Z</time></trkpt><trkpt lat="44.27022423656331" lon="11.480281062604728"><ele>438.0</ele><time>2026-04-12T08:36:09Z</time></trkpt><trkpt lat="44.27018245846304" lon="11.48014749534254"><ele>438.0</ele><time>2026-04-12T08:36:10Z</time></trkpt><trkpt lat="44.27014933299095" lon="11.480013563213152"><ele>437.99999999999994</ele><time>2026-04-12T08:36:11Z</time></trkpt><trkpt lat="44.27011167993883" lon="11.479867084708252"><ele>437.99999999999994</ele><time>2026-04-12T08:36:12Z</time></trkpt><trkpt lat="44.270081674637325" lon="11.479737936540584"><ele>438.0</ele><time>2026-04-12T08:36:13Z</time></trkpt><trkpt lat="44.270046070319616" lon="11.47960583057594"><ele>438.0</ele><time>2026-04-12T08:36:14Z</time></trkpt><trkpt lat="44.27000581669847" lon="11.479487188833046"><ele>437.3333333333333</ele><time>2026-04-12T08:36:15Z</time></trkpt><trkpt lat="44.269973960205476" lon="11.4793824152971"><ele>436.66666666666663</ele><time>2026-04-12T08:36:16Z</time></trkpt><trkpt lat="44.26995084144475" lon="11.479272443568213"><ele>436.0</ele><time>2026-04-12T08:36:17Z</time></trkpt><trkpt lat="44.269941663751126" lon="11.47916467685817"><ele>435.3333333333333</ele><time>2026-04-12T08:36:18Z</time></trkpt><trkpt lat="44.26993233475399" lon="11.479069061377816"><ele>434.66666666666663</ele><time>2026-04-12T08:36:19Z</time></trkpt><trkpt lat="44.26990096546051" lon="11.478974700752808"><ele>434.0</ele><time>2026-04-12T08:36:20Z</time></trkpt><trkpt lat="44.269846151233125" lon="11.47890821053057"><ele>433.99999999999994</ele><time>2026-04-12T08:36:21Z</time></trkpt><trkpt lat="44.26977639765796" lon="11.478861529230677"><ele>434.0</ele><time>2026-04-12T08:36:22Z</time></trkpt><trkpt lat="44.26970204019446" lon="11.47883532707294"><ele>434.0</ele><time>2026-04-12T08:36:23Z</time></trkpt><trkpt lat="44.26962861480539" lon="11.478800034195988"><ele>434.0</ele><time>2026-04-12T08:36:23.999Z</time></trkpt><trkpt lat="44.26955213586024" lon="11.478810195554157"><ele>433.99999999999994</ele><time>2026-04-12T08:36:24.999Z</time></trkpt><trkpt lat="44.269488875053085" lon="11.478841088073716"><ele>434.0</ele><time>2026-04-12T08:36:25.999Z</time></trkpt><trkpt lat="44.269427251742464" lon="11.478901434505682"><ele>431.3333333333333</ele><time>2026-04-12T08:36:26.999Z</time></trkpt><trkpt lat="44.26939097601369" lon="11.479003532126828"><ele>428.66666666666663</ele><time>2026-04-12T08:36:27.999Z</time></trkpt><trkpt lat="44.269375668731676" lon="11.479108110263383"><ele>426.0</ele><time>2026-04-12T08:36:28.999Z</time></trkpt><trkpt lat="44.26937846379405" lon="11.479212447011648"><ele>423.33333333333337</ele><time>2026-04-12T08:36:29.999Z</time></trkpt><trkpt lat="44.26935438300631" lon="11.47930493840453"><ele>420.6666666666667</ele><time>2026-04-12T08:36:30.999Z</time></trkpt><trkpt lat="44.26933041869094" lon="11.479440672634158"><ele>418.0</ele><time>2026-04-12T08:36:32.999Z</time></trkpt><trkpt lat="44.26930082385358" lon="11.479523131926936"><ele>418.00000000000006</ele><time>2026-04-12T08:36:34.999Z</time></trkpt><trkpt lat="44.26921562264215" lon="11.479511300419553"><ele>418.0</ele><time>2026-04-12T08:36:36.999Z</time></trkpt><trkpt lat="44.269152147602014" lon="11.47940336825028"><ele>418.0</ele><time>2026-04-12T08:36:38.999Z</time></trkpt><trkpt lat="44.26913283709276" lon="11.479312154140423"><ele>418.0</ele><time>2026-04-12T08:36:39.999Z</time></trkpt><trkpt lat="44.26911702219371" lon="11.479206634945609"><ele>418.00000000000006</ele><time>2026-04-12T08:36:40.999Z</time></trkpt><trkpt lat="44.26909802072113" lon="11.479092216750113"><ele>418.0</ele><time>2026-04-12T08:36:41.999Z</time></trkpt><trkpt lat="44.26907600842292" lon="11.47899195065588"><ele>418.00000000000006</ele><time>2026-04-12T08:36:42.999Z</time></trkpt><trkpt lat="44.26904728488686" lon="11.478896496757255"><ele>418.0</ele><time>2026-04-12T08:36:43.999Z</time></trkpt><trkpt lat="44.26900607014686" lon="11.478815286415815"><ele>418.0</ele><time>2026-04-12T08:36:44.999Z</time></trkpt><trkpt lat="44.26896305555482" lon="11.478733115182482"><ele>418.0</ele><time>2026-04-12T08:36:45.999Z</time></trkpt><trkpt lat="44.26887976274893" lon="11.478713174518477"><ele>418.00000000000006</ele><time>2026-04-12T08:36:46.999Z</time></trkpt><trkpt lat="44.268797324423915" lon="11.478679049834025"><ele>418.0</ele><time>2026-04-12T08:36:47.999Z</time></trkpt><trkpt lat="44.26870890887677" lon="11.478624289351723"><ele>415.33333333333337</ele><time>2026-04-12T08:36:48.999Z</time></trkpt><trkpt lat="44.26861576130042" lon="11.478577051744848"><ele>412.6666666666667</ele><time>2026-04-12T08:36:49.999Z</time></trkpt><trkpt lat="44.2685359452817" lon="11.478520297220484"><ele>410.0</ele><time>2026-04-12T08:36:50.999Z</time></trkpt><trkpt lat="44.26846527840844" lon="11.478465671214948"><ele>407.33333333333337</ele><time>2026-04-12T08:36:51.999Z</time></trkpt><trkpt lat="44.26840393482099" lon="11.478409063712698"><ele>404.6666666666667</ele><time>2026-04-12T08:36:52.999Z</time></trkpt><trkpt lat="44.26833851123403" lon="11.478344905812781"><ele>402.0</ele><time>2026-04-12T08:36:53.999Z</time></trkpt><trkpt lat="44.268288098778335" lon="11.478288089137692"><ele>402.0</ele><time>2026-04-12T08:36:54.999Z</time></trkpt><trkpt lat="44.26820094521085" lon="11.478182261127543"><ele>402.0</ele><time>2026-04-12T08:36:56.999Z</time></trkpt><trkpt lat="44.268147016381604" lon="11.478115332971964"><ele>402.0</ele><time>2026-04-12T08:36:58.999Z</time></trkpt><trkpt lat="44.268099476858616" lon="11.478048946366098"><ele>402.0</ele><time>2026-04-12T08:38:19Z</time></trkpt><trkpt lat="44.2680331251061" lon="11.47795984529433"><ele>402.0</ele><time>2026-04-12T08:38:22Z</time></trkpt><trkpt lat="44.26795303623801" lon="11.477874156641525"><ele>402.0</ele><time>2026-04-12T08:38:24Z</time></trkpt><trkpt lat="44.26786597552602" lon="11.477785354383053"><ele>401.0</ele><time>2026-04-12T08:38:26Z</time></trkpt><trkpt lat="44.26777346297669" lon="11.47766842565606"><ele>400.0</ele><time>2026-04-12T08:38:27.999Z</time></trkpt><trkpt lat="44.26767254205003" lon="11.477545587136099"><ele>399.0</ele><time>2026-04-12T08:38:29.999Z</time></trkpt><trkpt lat="44.267613650976514" lon="11.477487292154187"><ele>398.0</ele><time>2026-04-12T08:38:30.999Z</time></trkpt><trkpt lat="44.26755771888272" lon="11.477443249975577"><ele>397.0</ele><time>2026-04-12T08:38:31.999Z</time></trkpt><trkpt lat="44.26748007631114" lon="11.47735156313611"><ele>397.00000000000006</ele><time>2026-04-12T08:38:33.999Z</time></trkpt><trkpt lat="44.26742836165365" lon="11.477255742105667"><ele>397.0</ele><time>2026-04-12T08:38:35.999Z</time></trkpt><trkpt lat="44.26743042183603" lon="11.477161566743932"><ele>397.0</ele><time>2026-04-12T08:38:36.999Z</time></trkpt><trkpt lat="44.26743670247822" lon="11.477049573531264"><ele>397.0</ele><time>2026-04-12T08:38:37.999Z</time></trkpt><trkpt lat="44.26744101261866" lon="11.47692069007244"><ele>397.00000000000006</ele><time>2026-04-12T08:38:38.999Z</time></trkpt><trkpt lat="44.267438494155485" lon="11.476798080787503"><ele>397.0</ele><time>2026-04-12T08:38:39.999Z</time></trkpt><trkpt lat="44.26742534631946" lon="11.476699289292908"><ele>395.40000000000003</ele><time>2026-04-12T08:38:40.999Z</time></trkpt><trkpt lat="44.26745932108327" lon="11.4765654419857"><ele>393.8</ele><time>2026-04-12T08:38:42.999Z</time></trkpt><trkpt lat="44.2675303437566" lon="11.4764762264537"><ele>392.2</ele><time>2026-04-12T08:38:44.999Z</time></trkpt><trkpt lat="44.2676604002071" lon="11.476474935629897"><ele>390.6</ele><time>2026-04-12T08:38:46.999Z</time></trkpt><trkpt lat="44.26774828638485" lon="11.476503119076586"><ele>389.0</ele><time>2026-04-12T08:38:47.999Z</time></trkpt><trkpt lat="44.26783793571595" lon="11.476534921738882"><ele>389.0</ele><time>2026-04-12T08:38:48.999Z</time></trkpt><trkpt lat="44.267918822483345" lon="11.476561880876028"><ele>389.0</ele><time>2026-04-12T08:38:49.999Z</time></trkpt><trkpt lat="44.26798716441309" lon="11.476589769021038"><ele>389.0</ele><time>2026-04-12T08:38:50.999Z</time></trkpt><trkpt lat="44.26805511121246" lon="11.476620135670412"><ele>389.0</ele><time>2026-04-12T08:38:51.999Z</time></trkpt><trkpt lat="44.26811816513185" lon="11.476641030960042"><ele>389.0</ele><time>2026-04-12T08:38:52.999Z</time></trkpt><trkpt lat="44.268180120559165" lon="11.476671439319317"><ele>389.0</ele><time>2026-04-12T08:38:53.999Z</time></trkpt><trkpt lat="44.26824708658338" lon="11.4766822324519"><ele>389.0</ele><time>2026-04-12T08:38:54.999Z</time></trkpt><trkpt lat="44.26837393636949" lon="11.47663567398377"><ele>387.4</ele><time>2026-04-12T08:38:56.999Z</time></trkpt><trkpt lat="44.26845116736715" lon="11.476566075127824"><ele>385.79999999999995</ele><time>2026-04-12T08:38:57.999Z</time></trkpt><trkpt lat="44.268547928231634" lon="11.476488394864345"><ele>384.20000000000005</ele><time>2026-04-12T08:38:58.999Z</time></trkpt><trkpt lat="44.268645311743846" lon="11.476419551140783"><ele>382.6</ele><time>2026-04-12T08:38:59.999Z</time></trkpt><trkpt lat="44.26871924037382" lon="11.476348975534389"><ele>381.0</ele><time>2026-04-12T08:39:00.999Z</time></trkpt><trkpt lat="44.26879328718512" lon="11.47628325643739"><ele>378.0</ele><time>2026-04-12T08:39:01.999Z</time></trkpt><trkpt lat="44.26886610759331" lon="11.47622118894799"><ele>375.0</ele><time>2026-04-12T08:39:02.999Z</time></trkpt><trkpt lat="44.26892757073768" lon="11.476172707217616"><ele>372.0</ele><time>2026-04-12T08:39:03.999Z</time></trkpt><trkpt lat="44.26904235874091" lon="11.476117749666905"><ele>369.0</ele><time>2026-04-12T08:39:05.999Z</time></trkpt><trkpt lat="44.26913456901444" lon="11.476049514031995"><ele>366.0</ele><time>2026-04-12T08:39:07.999Z</time></trkpt><trkpt lat="44.26916487216901" lon="11.47589314127135"><ele>366.0</ele><time>2026-04-12T08:39:09.999Z</time></trkpt><trkpt lat="44.26914362641529" lon="11.475809821697153"><ele>366.0</ele><time>2026-04-12T08:39:10.999Z</time></trkpt><trkpt lat="44.269100223288646" lon="11.47573686828651"><ele>366.0</ele><time>2026-04-12T08:39:11.999Z</time></trkpt><trkpt lat="44.269043565150135" lon="11.475679302089043"><ele>366.0</ele><time>2026-04-12T08:39:12.999Z</time></trkpt><trkpt lat="44.268984160799235" lon="11.47563383360142"><ele>366.0</ele><time>2026-04-12T08:39:13.999Z</time></trkpt><trkpt lat="44.26894037003637" lon="11.475563112444423"><ele>366.0</ele><time>2026-04-12T08:39:14.999Z</time></trkpt><trkpt lat="44.268850982558064" lon="11.475450486836344"><ele>363.5</ele><time>2026-04-12T08:39:16.999Z</time></trkpt><trkpt lat="44.268821055973476" lon="11.475350474363324"><ele>361.0</ele><time>2026-04-12T08:39:17.999Z</time></trkpt><trkpt lat="44.26879621514487" lon="11.475248145989202"><ele>358.5</ele><time>2026-04-12T08:39:18.999Z</time></trkpt><trkpt lat="44.26876593238464" lon="11.475141060227294"><ele>356.0</ele><time>2026-04-12T08:39:19.999Z</time></trkpt><trkpt lat="44.26873618131787" lon="11.475031467066191"><ele>353.5</ele><time>2026-04-12T08:39:20.999Z</time></trkpt><trkpt lat="44.268693158597614" lon="11.474930735623273"><ele>351.0</ele><time>2026-04-12T08:39:21.999Z</time></trkpt><trkpt lat="44.26864205958221" lon="11.474833424165073"><ele>351.0</ele><time>2026-04-12T08:39:22.999Z</time></trkpt><trkpt lat="44.26858580984674" lon="11.47473733640702"><ele>351.0</ele><time>2026-04-12T08:39:23.999Z</time></trkpt><trkpt lat="44.2685248399521" lon="11.474648780126609"><ele>351.0</ele><time>2026-04-12T08:39:24.999Z</time></trkpt><trkpt lat="44.2684717110656" lon="11.47454356229697"><ele>351.0</ele><time>2026-04-12T08:39:25.999Z</time></trkpt><trkpt lat="44.268411947579104" lon="11.474443607071859"><ele>351.0</ele><time>2026-04-12T08:39:26.999Z</time></trkpt><trkpt lat="44.26834685006904" lon="11.474357781020888"><ele>349.20000000000005</ele><time>2026-04-12T08:39:27.999Z</time></trkpt><trkpt lat="44.26829341161221" lon="11.474244470114453"><ele>347.40000000000003</ele><time>2026-04-12T08:39:28.999Z</time></trkpt><trkpt lat="44.26821807266833" lon="11.474148746274842"><ele>345.6</ele><time>2026-04-12T08:39:29.999Z</time></trkpt><trkpt lat="44.26815780055269" lon="11.474038989673591"><ele>343.8</ele><time>2026-04-12T08:39:30.999Z</time></trkpt><trkpt lat="44.26809701337575" lon="11.47392663656668"><ele>342.0</ele><time>2026-04-12T08:39:31.999Z</time></trkpt><trkpt lat="44.2680389990855" lon="11.473813637863895"><ele>338.40000000000003</ele><time>2026-04-12T08:39:32.999Z</time></trkpt><trkpt lat="44.26797589705403" lon="11.47369237514647"><ele>334.8</ele><time>2026-04-12T08:39:33.999Z</time></trkpt><trkpt lat="44.267910978954234" lon="11.473590382006371"><ele>331.2</ele><time>2026-04-12T08:39:34.999Z</time></trkpt><trkpt lat="44.26784842796022" lon="11.473487464161177"><ele>327.6</ele><time>2026-04-12T08:39:35.999Z</time></trkpt><trkpt lat="44.267791729983045" lon="11.473390787289528"><ele>324.0</ele><time>2026-04-12T08:39:36.999Z</time></trkpt><trkpt lat="44.26773736842875" lon="11.473302778227847"><ele>324.0</ele><time>2026-04-12T08:39:37.999Z</time></trkpt><trkpt lat="44.26767163843043" lon="11.473219471916567"><ele>324.0</ele><time>2026-04-12T08:39:38.999Z</time></trkpt><trkpt lat="44.26761633546441" lon="11.473145436870531"><ele>324.0</ele><time>2026-04-12T08:39:39.999Z</time></trkpt><trkpt lat="44.26756518037639" lon="11.473060197857476"><ele>324.0</ele><time>2026-04-12T08:39:40.999Z</time></trkpt><trkpt lat="44.267518153504774" lon="11.472989780937569"><ele>324.0</ele><time>2026-04-12T08:39:41.999Z</time></trkpt><trkpt lat="44.267439571598246" lon="11.472845167808563"><ele>324.0</ele><time>2026-04-12T08:39:44Z</time></trkpt><trkpt lat="44.267416020113984" lon="11.472751900966715"><ele>322.1666666666667</ele><time>2026-04-12T08:39:45Z</time></trkpt><trkpt lat="44.267399281782836" lon="11.47264500728665"><ele>320.3333333333333</ele><time>2026-04-12T08:39:46Z</time></trkpt><trkpt lat="44.26738585626712" lon="11.472523641497132"><ele>318.5</ele><time>2026-04-12T08:39:47Z</time></trkpt><trkpt lat="44.2673712824398" lon="11.47239284445066"><ele>316.66666666666663</ele><time>2026-04-12T08:39:48Z</time></trkpt><trkpt lat="44.26735966612994" lon="11.472262295805157"><ele>314.8333333333333</ele><time>2026-04-12T08:39:49Z</time></trkpt><trkpt lat="44.26734809671821" lon="11.472137328123262"><ele>313.0</ele><time>2026-04-12T08:39:50Z</time></trkpt><trkpt lat="44.267336852935856" lon="11.47203473726857"><ele>311.5</ele><time>2026-04-12T08:39:51Z</time></trkpt><trkpt lat="44.26731136707095" lon="11.471940238476027"><ele>310.0</ele><time>2026-04-12T08:39:52Z</time></trkpt><trkpt lat="44.26732024823863" lon="11.47179689176984"><ele>308.5</ele><time>2026-04-12T08:39:54Z</time></trkpt><trkpt lat="44.26733585251565" lon="11.47170279963162"><ele>307.0</ele><time>2026-04-12T08:39:56Z</time></trkpt><trkpt lat="44.26736034129279" lon="11.471616700454268"><ele>305.5</ele><time>2026-04-12T08:39:58Z</time></trkpt><trkpt lat="44.267394445019036" lon="11.471541717972608"><ele>304.0</ele><time>2026-04-12T08:40:02Z</time></trkpt><trkpt lat="44.267344058151046" lon="11.471675085217795"><ele>304.0</ele><time>2026-04-12T08:42:11Z</time></trkpt><trkpt lat="44.26737425549706" lon="11.471562183679971"><ele>304.0</ele><time>2026-04-12T08:42:16Z</time></trkpt><trkpt lat="44.26737994120206" lon="11.471408087905992"><ele>304.0</ele><time>2026-04-12T08:42:18Z</time></trkpt><trkpt lat="44.2673679714422" lon="11.471297553746268"><ele>304.0</ele><time>2026-04-12T08:42:20Z</time></trkpt><trkpt lat="44.267351832856214" lon="11.471194634971555"><ele>304.0</ele><time>2026-04-12T08:42:23Z</time></trkpt><trkpt lat="44.26732863392974" lon="11.471092318165459"><ele>304.0</ele><time>2026-04-12T08:42:26Z</time></trkpt><trkpt lat="44.26731322897744" lon="11.470998100090968"><ele>302.59999999999997</ele><time>2026-04-12T08:42:33Z</time></trkpt><trkpt lat="44.26736807636649" lon="11.470918868939536"><ele>301.2</ele><time>2026-04-12T08:42:36Z</time></trkpt><trkpt lat="44.26742282540563" lon="11.47083201895498"><ele>299.79999999999995</ele><time>2026-04-12T08:42:38Z</time></trkpt><trkpt lat="44.267492343855224" lon="11.47073184205877"><ele>298.4</ele><time>2026-04-12T08:42:40Z</time></trkpt><trkpt lat="44.26756634955678" lon="11.47065049719026"><ele>297.0</ele><time>2026-04-12T08:42:41.999Z</time></trkpt><trkpt lat="44.267621690315025" lon="11.470537571142238"><ele>297.0</ele><time>2026-04-12T08:42:43.999Z</time></trkpt><trkpt lat="44.26757111786954" lon="11.470641044164658"><ele>297.0</ele><time>2026-04-12T08:42:51.999Z</time></trkpt><trkpt lat="44.26748587115909" lon="11.470684772163887"><ele>297.0</ele><time>2026-04-12T08:42:52.999Z</time></trkpt><trkpt lat="44.26743509789411" lon="11.470761173067025"><ele>297.0</ele><time>2026-04-12T08:42:53.999Z</time></trkpt><trkpt lat="44.26737565653641" lon="11.470850732761553"><ele>297.0</ele><time>2026-04-12T08:42:54.999Z</time></trkpt><trkpt lat="44.26731946938247" lon="11.470943475583065"><ele>297.0</ele><time>2026-04-12T08:42:55.999Z</time></trkpt><trkpt lat="44.267260637552205" lon="11.47103882041694"><ele>297.4</ele><time>2026-04-12T08:42:56.999Z</time></trkpt><trkpt lat="44.267203289151134" lon="11.471127504888265"><ele>297.79999999999995</ele><time>2026-04-12T08:42:57.999Z</time></trkpt><trkpt lat="44.267146690008644" lon="11.471222803541778"><ele>298.2</ele><time>2026-04-12T08:42:58.999Z</time></trkpt><trkpt lat="44.26707180244244" lon="11.471312895585243"><ele>298.59999999999997</ele><time>2026-04-12T08:42:59.999Z</time></trkpt><trkpt lat="44.26700272356515" lon="11.471416643617026"><ele>299.0</ele><time>2026-04-12T08:43:00.999Z</time></trkpt><trkpt lat="44.266938498428765" lon="11.471539760621747"><ele>299.0</ele><time>2026-04-12T08:43:01.999Z</time></trkpt><trkpt lat="44.26685842349615" lon="11.471655164618069"><ele>299.0</ele><time>2026-04-12T08:43:02.999Z</time></trkpt><trkpt lat="44.266766865159845" lon="11.471764981831516"><ele>299.0</ele><time>2026-04-12T08:43:03.999Z</time></trkpt><trkpt lat="44.26668361664861" lon="11.4718555117745"><ele>299.0</ele><time>2026-04-12T08:43:04.999Z</time></trkpt><trkpt lat="44.26659554913871" lon="11.471948808218004"><ele>299.0</ele><time>2026-04-12T08:43:05.999Z</time></trkpt><trkpt lat="44.26649751208118" lon="11.472019474958365"><ele>299.0</ele><time>2026-04-12T08:43:06.999Z</time></trkpt><trkpt lat="44.26638609097359" lon="11.472071933624846"><ele>299.0</ele><time>2026-04-12T08:43:07.999Z</time></trkpt><trkpt lat="44.26626479779753" lon="11.472111837598504"><ele>299.0</ele><time>2026-04-12T08:43:08.999Z</time></trkpt><trkpt lat="44.26613716883911" lon="11.472165424577868"><ele>300.8</ele><time>2026-04-12T08:43:09.999Z</time></trkpt><trkpt lat="44.26602411370465" lon="11.472224553141224"><ele>302.59999999999997</ele><time>2026-04-12T08:43:10.999Z</time></trkpt><trkpt lat="44.26593066451328" lon="11.472277530540374"><ele>304.4</ele><time>2026-04-12T08:43:11.999Z</time></trkpt><trkpt lat="44.26584098278502" lon="11.472306161014725"><ele>306.2</ele><time>2026-04-12T08:43:12.999Z</time></trkpt><trkpt lat="44.26574593840645" lon="11.472352027609915"><ele>308.0</ele><time>2026-04-12T08:43:13.999Z</time></trkpt><trkpt lat="44.265641340037796" lon="11.472409017532527"><ele>306.75</ele><time>2026-04-12T08:43:14.999Z</time></trkpt><trkpt lat="44.26552574496913" lon="11.472480948880017"><ele>305.5</ele><time>2026-04-12T08:43:15.999Z</time></trkpt><trkpt lat="44.26541176457059" lon="11.472571560871494"><ele>304.25</ele><time>2026-04-12T08:43:16.999Z</time></trkpt><trkpt lat="44.26530523646478" lon="11.472672954576899"><ele>303.0</ele><time>2026-04-12T08:43:17.999Z</time></trkpt><trkpt lat="44.26520099160873" lon="11.47277571521842"><ele>303.0</ele><time>2026-04-12T08:43:18.999Z</time></trkpt><trkpt lat="44.26509859675861" lon="11.472852809217368"><ele>303.0</ele><time>2026-04-12T08:43:19.999Z</time></trkpt><trkpt lat="44.26500384061653" lon="11.47295128157866"><ele>303.0</ele><time>2026-04-12T08:43:20.999Z</time></trkpt><trkpt lat="44.26491959610358" lon="11.473030624406656"><ele>303.0</ele><time>2026-04-12T08:43:22.999Z</time></trkpt><trkpt lat="44.265033297932256" lon="11.47296321772845"><ele>303.0</ele><time>2026-04-12T08:43:30.999Z</time></trkpt><trkpt lat="44.265092648173905" lon="11.472891690690338"><ele>303.0</ele><time>2026-04-12T08:43:31.999Z</time></trkpt><trkpt lat="44.26514613476282" lon="11.472824835555365"><ele>303.0</ele><time>2026-04-12T08:43:32.999Z</time></trkpt><trkpt lat="44.2651805143468" lon="11.472734025460511"><ele>303.0</ele><time>2026-04-12T08:43:34.999Z</time></trkpt><trkpt lat="44.265146626056925" lon="11.472623232263487"><ele>303.0</ele><time>2026-04-12T08:43:47.999Z</time></trkpt><trkpt lat="44.265059372208285" lon="11.472500206608345"><ele>303.0</ele><time>2026-04-12T08:43:49.999Z</time></trkpt><trkpt lat="44.264990869763594" lon="11.472435559755267"><ele>303.0</ele><time>2026-04-12T08:43:50.999Z</time></trkpt><trkpt lat="44.26491020353994" lon="11.472367009546781"><ele>303.0</ele><time>2026-04-12T08:43:51.999Z</time></trkpt><trkpt lat="44.26483311816377" lon="11.4723015023572"><ele>303.0</ele><time>2026-04-12T08:43:52.999Z</time></trkpt><trkpt lat="44.26475171437545" lon="11.472232324208758"><ele>303.0</ele><time>2026-04-12T08:43:53.999Z</time></trkpt><trkpt lat="44.26468067769311" lon="11.472171014030838"><ele>303.0</ele><time>2026-04-12T08:43:54.999Z</time></trkpt><trkpt lat="44.26461548372376" lon="11.472115039111266"><ele>303.0</ele><time>2026-04-12T08:43:56Z</time></trkpt><trkpt lat="44.264552870641644" lon="11.472075147182222"><ele>300.8</ele><time>2026-04-12T08:43:57Z</time></trkpt><trkpt lat="44.26447891150213" lon="11.472007168740262"><ele>298.6</ele><time>2026-04-12T08:43:58Z</time></trkpt><trkpt lat="44.26440884988015" lon="11.471943999794489"><ele>296.4</ele><time>2026-04-12T08:43:59Z</time></trkpt><trkpt lat="44.26436255766723" lon="11.471868094506984"><ele>294.2</ele><time>2026-04-12T08:44:00Z</time></trkpt><trkpt lat="44.26428096790953" lon="11.471729476095987"><ele>292.0</ele><time>2026-04-12T08:44:02Z</time></trkpt><trkpt lat="44.26422539816264" lon="11.471614113625163"><ele>292.0</ele><time>2026-04-12T08:44:03Z</time></trkpt><trkpt lat="44.26417621660834" lon="11.47149527983252"><ele>292.0</ele><time>2026-04-12T08:44:04Z</time></trkpt><trkpt lat="44.26413077007825" lon="11.471377517514753"><ele>292.0</ele><time>2026-04-12T08:44:05Z</time></trkpt><trkpt lat="44.26410169454735" lon="11.471287400090805"><ele>292.0</ele><time>2026-04-12T08:44:06Z</time></trkpt><trkpt lat="44.26409154762521" lon="11.47110433718772"><ele>292.0</ele><time>2026-04-12T08:44:08Z</time></trkpt><trkpt lat="44.26405041193175" lon="11.470940802743552"><ele>291.6</ele><time>2026-04-12T08:44:10Z</time></trkpt><trkpt lat="44.26400362317058" lon="11.470843300374833"><ele>291.2</ele><time>2026-04-12T08:44:12Z</time></trkpt><trkpt lat="44.26390218108156" lon="11.470846049790023"><ele>290.8</ele><time>2026-04-12T08:44:14Z</time></trkpt><trkpt lat="44.26384060287567" lon="11.47081928223202"><ele>290.4</ele><time>2026-04-12T08:44:17Z</time></trkpt><trkpt lat="44.26390072422879" lon="11.470612585542709"><ele>290.0</ele><time>2026-04-12T08:44:20Z</time></trkpt><trkpt lat="44.2639232942529" lon="11.470514508575905"><ele>289.83333333333337</ele><time>2026-04-12T08:44:22Z</time></trkpt><trkpt lat="44.26395835117463" lon="11.470430883289543"><ele>289.6666666666667</ele><time>2026-04-12T08:44:31Z</time></trkpt><trkpt lat="44.263999757152995" lon="11.470308918151307"><ele>289.5</ele><time>2026-04-12T08:44:35Z</time></trkpt><trkpt lat="44.26402890660699" lon="11.470227536579856"><ele>289.3333333333333</ele><time>2026-04-12T08:44:37Z</time></trkpt><trkpt lat="44.26405810197797" lon="11.470117572421486"><ele>289.16666666666663</ele><time>2026-04-12T08:44:40Z</time></trkpt><trkpt lat="44.26409281994715" lon="11.470029033780774"><ele>289.0</ele><time>2026-04-12T08:44:41.999Z</time></trkpt><trkpt lat="44.26414836622172" lon="11.469924601953213"><ele>289.0</ele><time>2026-04-12T08:44:44.999Z</time></trkpt><trkpt lat="44.26418849321338" lon="11.469806625497977"><ele>289.0</ele><time>2026-04-12T08:44:47.999Z</time></trkpt><trkpt lat="44.264246042238305" lon="11.469678781448449"><ele>289.0</ele><time>2026-04-12T08:44:49.999Z</time></trkpt><trkpt lat="44.26426929703196" lon="11.469595215738153"><ele>289.0</ele><time>2026-04-12T08:44:50.999Z</time></trkpt><trkpt lat="44.264277348245514" lon="11.46950791898615"><ele>289.0</ele><time>2026-04-12T08:44:51.999Z</time></trkpt><trkpt lat="44.264304172038855" lon="11.469411403170554"><ele>289.0</ele><time>2026-04-12T08:44:52.999Z</time></trkpt><trkpt lat="44.26432838703192" lon="11.46929612282938"><ele>289.8</ele><time>2026-04-12T08:44:53.999Z</time></trkpt><trkpt lat="44.26434831207309" lon="11.469198968720086"><ele>290.59999999999997</ele><time>2026-04-12T08:44:54.999Z</time></trkpt><trkpt lat="44.26435557258843" lon="11.469006873840595"><ele>291.4</ele><time>2026-04-12T08:44:56.999Z</time></trkpt><trkpt lat="44.264300557519256" lon="11.468896063659122"><ele>292.2</ele><time>2026-04-12T08:44:57.999Z</time></trkpt><trkpt lat="44.26434857154952" lon="11.468829210694732"><ele>293.0</ele><time>2026-04-12T08:44:58.999Z</time></trkpt><trkpt lat="44.26436766240685" lon="11.468660328709412"><ele>293.8</ele><time>2026-04-12T08:45:00.999Z</time></trkpt><trkpt lat="44.264392077650946" lon="11.468489387657382"><ele>294.6</ele><time>2026-04-12T08:45:01.999Z</time></trkpt><trkpt lat="44.26441784697699" lon="11.468381203458703"><ele>295.4</ele><time>2026-04-12T08:45:02.999Z</time></trkpt><trkpt lat="44.26443156094232" lon="11.468278846017443"><ele>296.2</ele><time>2026-04-12T08:45:03.999Z</time></trkpt><trkpt lat="44.26445672963496" lon="11.468117501217103"><ele>297.0</ele><time>2026-04-12T08:45:05.999Z</time></trkpt><trkpt lat="44.26445285294114" lon="11.467992567459069"><ele>297.1666666666667</ele><time>2026-04-12T08:45:07.999Z</time></trkpt><trkpt lat="44.26440593865252" lon="11.467910507615377"><ele>297.3333333333333</ele><time>2026-04-12T08:45:09.999Z</time></trkpt><trkpt lat="44.2643487576293" lon="11.467870021092244"><ele>297.5</ele><time>2026-04-12T08:45:11.999Z</time></trkpt><trkpt lat="44.2642378344879" lon="11.467818724322912"><ele>297.66666666666663</ele><time>2026-04-12T08:45:13.999Z</time></trkpt><trkpt lat="44.2641719602383" lon="11.46777236091324"><ele>297.8333333333333</ele><time>2026-04-12T08:45:14.999Z</time></trkpt><trkpt lat="44.264071938155716" lon="11.467688916889246"><ele>298.0</ele><time>2026-04-12T08:45:16.999Z</time></trkpt><trkpt lat="44.26396997222818" lon="11.467660527259167"><ele>300.4</ele><time>2026-04-12T08:45:18.999Z</time></trkpt><trkpt lat="44.26384907521867" lon="11.46767996578473"><ele>302.8</ele><time>2026-04-12T08:45:20.999Z</time></trkpt><trkpt lat="44.2637855246541" lon="11.467697459669257"><ele>305.2</ele><time>2026-04-12T08:45:21.999Z</time></trkpt><trkpt lat="44.26369256627147" lon="11.46767013967141"><ele>307.6</ele><time>2026-04-12T08:45:23.999Z</time></trkpt><trkpt lat="44.26359747809682" lon="11.467648754982207"><ele>310.0</ele><time>2026-04-12T08:45:25.999Z</time></trkpt><trkpt lat="44.26352208395885" lon="11.467627817265361"><ele>310.0</ele><time>2026-04-12T08:45:26.999Z</time></trkpt><trkpt lat="44.263447072988434" lon="11.467607626162211"><ele>310.0</ele><time>2026-04-12T08:45:27.999Z</time></trkpt><trkpt lat="44.26336024361175" lon="11.467599863083796"><ele>310.0</ele><time>2026-04-12T08:45:28.999Z</time></trkpt><trkpt lat="44.26329440992606" lon="11.467581099410545"><ele>310.0</ele><time>2026-04-12T08:45:29.999Z</time></trkpt><trkpt lat="44.263189893583125" lon="11.467527630614814"><ele>310.0</ele><time>2026-04-12T08:45:31.999Z</time></trkpt><trkpt lat="44.2630948191875" lon="11.467492848700202"><ele>310.0</ele><time>2026-04-12T08:45:33.999Z</time></trkpt><trkpt lat="44.26299512846516" lon="11.467446889639737"><ele>312.8</ele><time>2026-04-12T08:45:35.999Z</time></trkpt><trkpt lat="44.26286558729878" lon="11.467415399841832"><ele>315.6</ele><time>2026-04-12T08:45:37.999Z</time></trkpt><trkpt lat="44.26274436943035" lon="11.467459366990921"><ele>318.4</ele><time>2026-04-12T08:45:39.999Z</time></trkpt><trkpt lat="44.26265377331915" lon="11.467492722648622"><ele>321.2</ele><time>2026-04-12T08:45:40.999Z</time></trkpt><trkpt lat="44.262575895145176" lon="11.467508810551376"><ele>324.0</ele><time>2026-04-12T08:45:41.999Z</time></trkpt><trkpt lat="44.262494742910945" lon="11.467505635065159"><ele>324.0</ele><time>2026-04-12T08:45:42.999Z</time></trkpt><trkpt lat="44.26242366146105" lon="11.467500945711283"><ele>324.0</ele><time>2026-04-12T08:45:43.999Z</time></trkpt><trkpt lat="44.26234786107175" lon="11.46748486914339"><ele>324.0</ele><time>2026-04-12T08:45:44.999Z</time></trkpt><trkpt lat="44.26227545981" lon="11.467449720330409"><ele>324.0</ele><time>2026-04-12T08:45:45.999Z</time></trkpt><trkpt lat="44.26220486014958" lon="11.467406931689613"><ele>324.0</ele><time>2026-04-12T08:45:46.999Z</time></trkpt><trkpt lat="44.26214707186256" lon="11.46734966945803"><ele>324.0</ele><time>2026-04-12T08:45:47.999Z</time></trkpt><trkpt lat="44.2620122016781" lon="11.467214613294077"><ele>324.5</ele><time>2026-04-12T08:45:49.999Z</time></trkpt><trkpt lat="44.26193425939458" lon="11.467136310405293"><ele>325.0</ele><time>2026-04-12T08:45:50.999Z</time></trkpt><trkpt lat="44.26187362818621" lon="11.46705007616345"><ele>325.5</ele><time>2026-04-12T08:45:51.999Z</time></trkpt><trkpt lat="44.26179811686661" lon="11.466969119152584"><ele>326.0</ele><time>2026-04-12T08:45:52.999Z</time></trkpt><trkpt lat="44.26172201121317" lon="11.466920629632583"><ele>326.5</ele><time>2026-04-12T08:45:53.999Z</time></trkpt><trkpt lat="44.2616527926732" lon="11.466902320548117"><ele>327.0</ele><time>2026-04-12T08:45:54.999Z</time></trkpt><trkpt lat="44.26152746739826" lon="11.466875374632611"><ele>336.0</ele><time>2026-04-12T08:45:56.999Z</time></trkpt><trkpt lat="44.26143195137145" lon="11.46676836008774"><ele>341.0</ele><time>2026-04-12T08:45:58.998Z</time></trkpt><trkpt lat="44.26137602345601" lon="11.466685339412868"><ele>341.0</ele><time>2026-04-12T08:45:59.998Z</time></trkpt><trkpt lat="44.261270845612934" lon="11.466609087928731"><ele>341.0</ele><time>2026-04-12T08:46:02Z</time></trkpt><trkpt lat="44.26119550960114" lon="11.466568775130565"><ele>341.0</ele><time>2026-04-12T08:46:04Z</time></trkpt></trkseg><trkseg><trkpt lat="44.264370915771366" lon="11.467773097656455"><ele>298.0</ele><time>2026-04-12T08:49:08.998Z</time></trkpt><trkpt lat="44.264422917448705" lon="11.467711531257995"><ele>298.0</ele><time>2026-04-12T08:50:30.999Z</time></trkpt><trkpt lat="44.2643890474933" lon="11.467597038648773"><ele>298.0</ele><time>2026-04-12T08:50:33.999Z</time></trkpt><trkpt lat="44.264425917878995" lon="11.467487778014688"><ele>298.0</ele><time>2026-04-12T08:50:36.999Z</time></trkpt><trkpt lat="44.26448756008702" lon="11.46742460518121"><ele>298.0</ele><time>2026-04-12T08:50:38.999Z</time></trkpt><trkpt lat="44.26457527286315" lon="11.467373400058667"><ele>298.0</ele><time>2026-04-12T08:50:40.999Z</time></trkpt><trkpt lat="44.26464310929048" lon="11.467308441035652"><ele>298.0</ele><time>2026-04-12T08:50:42.999Z</time></trkpt><trkpt lat="44.26467323883288" lon="11.467229067764436"><ele>298.0</ele><time>2026-04-12T08:50:46.999Z</time></trkpt><trkpt lat="44.26473331379374" lon="11.467275926429958"><ele>298.0</ele><time>2026-04-12T08:50:57.999Z</time></trkpt><trkpt lat="44.26479346869222" lon="11.467436754021245"><ele>298.0</ele><time>2026-04-12T08:50:59.999Z</time></trkpt><trkpt lat="44.2648388984223" lon="11.46751435121015"><ele>298.0</ele><time>2026-04-12T08:51:00.999Z</time></trkpt><trkpt lat="44.26489011915336" lon="11.4675908115762"><ele>298.0</ele><time>2026-04-12T08:51:01.999Z</time></trkpt><trkpt lat="44.26493473988789" lon="11.467675159451504"><ele>297.66666666666663</ele><time>2026-04-12T08:51:02.999Z</time></trkpt><trkpt lat="44.26498458544797" lon="11.46776096330649"><ele>297.3333333333333</ele><time>2026-04-12T08:51:03.999Z</time></trkpt><trkpt lat="44.26503272921407" lon="11.467844968155765"><ele>297.0</ele><time>2026-04-12T08:51:04.999Z</time></trkpt><trkpt lat="44.26508830629017" lon="11.467940823748586"><ele>296.6666666666667</ele><time>2026-04-12T08:51:05.999Z</time></trkpt><trkpt lat="44.26514371048472" lon="11.46803484995912"><ele>296.33333333333337</ele><time>2026-04-12T08:51:06.999Z</time></trkpt><trkpt lat="44.26519903038581" lon="11.468136981825497"><ele>296.0</ele><time>2026-04-12T08:51:07.999Z</time></trkpt><trkpt lat="44.265253426803405" lon="11.468230841533362"><ele>296.0</ele><time>2026-04-12T08:51:08.999Z</time></trkpt><trkpt lat="44.26529757534143" lon="11.468312262041737"><ele>296.0</ele><time>2026-04-12T08:51:09.999Z</time></trkpt><trkpt lat="44.26534916454416" lon="11.468397510511403"><ele>296.0</ele><time>2026-04-12T08:51:10.999Z</time></trkpt><trkpt lat="44.26540253321525" lon="11.468492269783592"><ele>296.0</ele><time>2026-04-12T08:51:11.999Z</time></trkpt><trkpt lat="44.26546505956053" lon="11.468592765520357"><ele>296.0</ele><time>2026-04-12T08:51:12.999Z</time></trkpt><trkpt lat="44.26552596860012" lon="11.468695745846857"><ele>296.0</ele><time>2026-04-12T08:51:13.999Z</time></trkpt><trkpt lat="44.265590874246534" lon="11.468807351119834"><ele>294.8</ele><time>2026-04-12T08:51:14.999Z</time></trkpt><trkpt lat="44.265650868840005" lon="11.468908459670622"><ele>293.6</ele><time>2026-04-12T08:51:15.999Z</time></trkpt><trkpt lat="44.265714193064134" lon="11.469017858442749"><ele>292.4</ele><time>2026-04-12T08:51:16.999Z</time></trkpt><trkpt lat="44.26578237552747" lon="11.469118646644503"><ele>291.2</ele><time>2026-04-12T08:51:17.999Z</time></trkpt><trkpt lat="44.265846445769796" lon="11.469217935418335"><ele>290.0</ele><time>2026-04-12T08:51:19Z</time></trkpt><trkpt lat="44.26591842835737" lon="11.46932212609871"><ele>290.0</ele><time>2026-04-12T08:51:20Z</time></trkpt><trkpt lat="44.26598130381109" lon="11.469410985347086"><ele>290.0</ele><time>2026-04-12T08:51:21Z</time></trkpt><trkpt lat="44.26604674712447" lon="11.469467210362469"><ele>290.0</ele><time>2026-04-12T08:51:22Z</time></trkpt><trkpt lat="44.26611463455046" lon="11.46953263767802"><ele>290.0</ele><time>2026-04-12T08:51:23Z</time></trkpt><trkpt lat="44.26618830921716" lon="11.469591392551406"><ele>290.0</ele><time>2026-04-12T08:51:24Z</time></trkpt><trkpt lat="44.26625903117891" lon="11.469654279880292"><ele>290.0</ele><time>2026-04-12T08:51:25Z</time></trkpt><trkpt lat="44.26632966450893" lon="11.469723516656607"><ele>289.5</ele><time>2026-04-12T08:51:26Z</time></trkpt><trkpt lat="44.26639641383688" lon="11.469785658234008"><ele>289.0</ele><time>2026-04-12T08:51:27Z</time></trkpt><trkpt lat="44.26645319562554" lon="11.46983436423704"><ele>288.5</ele><time>2026-04-12T08:51:28Z</time></trkpt><trkpt lat="44.26651983565377" lon="11.469864735457108"><ele>288.0</ele><time>2026-04-12T08:51:29Z</time></trkpt><trkpt lat="44.266647172978246" lon="11.469856499989856"><ele>287.5</ele><time>2026-04-12T08:51:31Z</time></trkpt><trkpt lat="44.266713300162586" lon="11.46981801110762"><ele>287.0</ele><time>2026-04-12T08:51:32Z</time></trkpt><trkpt lat="44.26676971637404" lon="11.469741011054882"><ele>287.0</ele><time>2026-04-12T08:51:33Z</time></trkpt><trkpt lat="44.26682664550978" lon="11.469667082458557"><ele>287.0</ele><time>2026-04-12T08:51:34Z</time></trkpt><trkpt lat="44.266865046874585" lon="11.469556504272571"><ele>287.0</ele><time>2026-04-12T08:51:35Z</time></trkpt><trkpt lat="44.266920877191644" lon="11.469461742974019"><ele>287.0</ele><time>2026-04-12T08:51:36Z</time></trkpt><trkpt lat="44.26697396907218" lon="11.46934643625501"><ele>287.0</ele><time>2026-04-12T08:51:37Z</time></trkpt><trkpt lat="44.267026142077" lon="11.469224378726977"><ele>287.0</ele><time>2026-04-12T08:51:38Z</time></trkpt><trkpt lat="44.26708270360071" lon="11.46908843880913"><ele>287.0</ele><time>2026-04-12T08:51:39Z</time></trkpt><trkpt lat="44.26714270868455" lon="11.468946442121554"><ele>287.0</ele><time>2026-04-12T08:51:40Z</time></trkpt><trkpt lat="44.26719608668509" lon="11.468822974942075"><ele>287.0</ele><time>2026-04-12T08:51:41Z</time></trkpt><trkpt lat="44.26723385705677" lon="11.468710655620868"><ele>287.0</ele><time>2026-04-12T08:51:42Z</time></trkpt><trkpt lat="44.26727542946384" lon="11.468619167354111"><ele>286.33333333333337</ele><time>2026-04-12T08:51:43Z</time></trkpt><trkpt lat="44.26731115927244" lon="11.468541629102093"><ele>285.6666666666667</ele><time>2026-04-12T08:51:44Z</time></trkpt><trkpt lat="44.267348817521615" lon="11.468452730234612"><ele>285.0</ele><time>2026-04-12T08:51:45Z</time></trkpt><trkpt lat="44.26738652001804" lon="11.468368019269432"><ele>284.3333333333333</ele><time>2026-04-12T08:51:46Z</time></trkpt><trkpt lat="44.26742177548393" lon="11.468291946865502"><ele>283.66666666666663</ele><time>2026-04-12T08:51:47Z</time></trkpt><trkpt lat="44.26745735889225" lon="11.468199111969374"><ele>283.0</ele><time>2026-04-12T08:51:48Z</time></trkpt><trkpt lat="44.267520464142315" lon="11.46806046760052"><ele>283.2</ele><time>2026-04-12T08:51:50Z</time></trkpt><trkpt lat="44.26759513589984" lon="11.467904616444102"><ele>283.4</ele><time>2026-04-12T08:51:52Z</time></trkpt><trkpt lat="44.267628404231104" lon="11.467811978541572"><ele>283.59999999999997</ele><time>2026-04-12T08:51:53Z</time></trkpt><trkpt lat="44.267660730707924" lon="11.467710926183562"><ele>283.8</ele><time>2026-04-12T08:51:54Z</time></trkpt><trkpt lat="44.26769563995752" lon="11.467594458024958"><ele>284.0</ele><time>2026-04-12T08:51:55Z</time></trkpt><trkpt lat="44.267718963107605" lon="11.467469336987616"><ele>284.0</ele><time>2026-04-12T08:51:56Z</time></trkpt><trkpt lat="44.267765080845415" lon="11.467358191074675"><ele>284.0</ele><time>2026-04-12T08:51:57Z</time></trkpt><trkpt lat="44.267797739594975" lon="11.467237017206662"><ele>284.0</ele><time>2026-04-12T08:51:58Z</time></trkpt><trkpt lat="44.26783908934894" lon="11.467083597526347"><ele>284.0</ele><time>2026-04-12T08:51:59Z</time></trkpt><trkpt lat="44.267886308197674" lon="11.46690840079817"><ele>284.0</ele><time>2026-04-12T08:52:00Z</time></trkpt><trkpt lat="44.26793671056275" lon="11.466721004673015"><ele>284.0</ele><time>2026-04-12T08:52:01Z</time></trkpt><trkpt lat="44.267987772415836" lon="11.46652859224524"><ele>284.0</ele><time>2026-04-12T08:52:01.999Z</time></trkpt><trkpt lat="44.268027804261656" lon="11.466377744246572"><ele>284.0</ele><time>2026-04-12T08:52:02.999Z</time></trkpt><trkpt lat="44.268045246094424" lon="11.46624918307308"><ele>284.0</ele><time>2026-04-12T08:52:03.999Z</time></trkpt><trkpt lat="44.26809040098774" lon="11.4661073452961"><ele>284.5</ele><time>2026-04-12T08:52:04.999Z</time></trkpt><trkpt lat="44.268133124277114" lon="11.465938666964323"><ele>285.0</ele><time>2026-04-12T08:52:05.999Z</time></trkpt><trkpt lat="44.26817690503022" lon="11.46576422612278"><ele>285.5</ele><time>2026-04-12T08:52:06.999Z</time></trkpt><trkpt lat="44.26821438593774" lon="11.465598504019399"><ele>286.0</ele><time>2026-04-12T08:52:07.999Z</time></trkpt><trkpt lat="44.26825098885665" lon="11.465437817210443"><ele>286.0</ele><time>2026-04-12T08:52:08.999Z</time></trkpt><trkpt lat="44.26829934888755" lon="11.465302346332242"><ele>286.0</ele><time>2026-04-12T08:52:09.999Z</time></trkpt><trkpt lat="44.26832773168853" lon="11.465187518416236"><ele>286.0</ele><time>2026-04-12T08:52:10.999Z</time></trkpt><trkpt lat="44.26835812317277" lon="11.465068974538209"><ele>286.0</ele><time>2026-04-12T08:52:11.999Z</time></trkpt><trkpt lat="44.26839518581478" lon="11.464959081475433"><ele>286.0</ele><time>2026-04-12T08:52:12.999Z</time></trkpt><trkpt lat="44.26844346082139" lon="11.464857941966551"><ele>286.0</ele><time>2026-04-12T08:52:13.999Z</time></trkpt><trkpt lat="44.2685036877637" lon="11.464762106729665"><ele>286.0</ele><time>2026-04-12T08:52:14.999Z</time></trkpt><trkpt lat="44.26857435857232" lon="11.46467257436906"><ele>286.0</ele><time>2026-04-12T08:52:15.999Z</time></trkpt><trkpt lat="44.26864704631069" lon="11.46458789300087"><ele>286.0</ele><time>2026-04-12T08:52:16.999Z</time></trkpt><trkpt lat="44.26873205918927" lon="11.464504376942722"><ele>286.0</ele><time>2026-04-12T08:52:17.999Z</time></trkpt><trkpt lat="44.268800114559966" lon="11.464471938578843"><ele>286.0</ele><time>2026-04-12T08:52:18.999Z</time></trkpt><trkpt lat="44.26886243874133" lon="11.46444647511453"><ele>286.0</ele><time>2026-04-12T08:52:19.999Z</time></trkpt><trkpt lat="44.26893618399092" lon="11.464407961839907"><ele>286.0</ele><time>2026-04-12T08:52:20.999Z</time></trkpt><trkpt lat="44.26902303145787" lon="11.464371722384762"><ele>286.0</ele><time>2026-04-12T08:52:21.999Z</time></trkpt><trkpt lat="44.26912597998332" lon="11.464332067166396"><ele>286.0</ele><time>2026-04-12T08:52:22.999Z</time></trkpt><trkpt lat="44.26922194353235" lon="11.464277987626888"><ele>286.0</ele><time>2026-04-12T08:52:23.999Z</time></trkpt><trkpt lat="44.26931132181759" lon="11.464233260861025"><ele>286.0</ele><time>2026-04-12T08:52:24.999Z</time></trkpt><trkpt lat="44.2693979544209" lon="11.464208225975456"><ele>286.0</ele><time>2026-04-12T08:52:25.999Z</time></trkpt><trkpt lat="44.26948401471422" lon="11.4641832412694"><ele>286.0</ele><time>2026-04-12T08:52:26.999Z</time></trkpt><trkpt lat="44.269559931953296" lon="11.464097350675832"><ele>286.0</ele><time>2026-04-12T08:52:28.999Z</time></trkpt><trkpt lat="44.26962961524358" lon="11.464070859587856"><ele>286.0</ele><time>2026-04-12T08:52:29.999Z</time></trkpt><trkpt lat="44.269693949753275" lon="11.464045756516581"><ele>286.0</ele><time>2026-04-12T08:52:30.999Z</time></trkpt><trkpt lat="44.26976747225618" lon="11.464007422343418"><ele>286.5</ele><time>2026-04-12T08:52:32.999Z</time></trkpt><trkpt lat="44.26984014630874" lon="11.463940907514274"><ele>287.0</ele><time>2026-04-12T08:56:25.999Z</time></trkpt><trkpt lat="44.26994147050822" lon="11.463847064360932"><ele>287.5</ele><time>2026-04-12T08:56:27.999Z</time></trkpt><trkpt lat="44.269988899629624" lon="11.463770694974755"><ele>288.0</ele><time>2026-04-12T08:56:28.999Z</time></trkpt><trkpt lat="44.27002666277799" lon="11.46366767912875"><ele>288.5</ele><time>2026-04-12T08:56:29.999Z</time></trkpt><trkpt lat="44.27006015807559" lon="11.463557651208566"><ele>289.0</ele><time>2026-04-12T08:56:30.999Z</time></trkpt><trkpt lat="44.27009341450029" lon="11.463443733103167"><ele>289.0</ele><time>2026-04-12T08:56:31.999Z</time></trkpt><trkpt lat="44.27012658030463" lon="11.463336296642469"><ele>289.0</ele><time>2026-04-12T08:56:32.999Z</time></trkpt><trkpt lat="44.27015589733307" lon="11.46322949100594"><ele>289.0</ele><time>2026-04-12T08:56:33.999Z</time></trkpt><trkpt lat="44.27016999001721" lon="11.463123005242048"><ele>289.0</ele><time>2026-04-12T08:56:34.999Z</time></trkpt><trkpt lat="44.27016633661645" lon="11.463010133528215"><ele>289.0</ele><time>2026-04-12T08:56:35.999Z</time></trkpt><trkpt lat="44.270154381213494" lon="11.462900516265364"><ele>289.0</ele><time>2026-04-12T08:56:36.999Z</time></trkpt><trkpt lat="44.27013269202446" lon="11.462795885902281"><ele>289.66666666666663</ele><time>2026-04-12T08:56:37.999Z</time></trkpt><trkpt lat="44.27010215066574" lon="11.46269739451764"><ele>290.3333333333333</ele><time>2026-04-12T08:56:38.999Z</time></trkpt><trkpt lat="44.27007617509299" lon="11.462593454530635"><ele>291.0</ele><time>2026-04-12T08:56:39.999Z</time></trkpt><trkpt lat="44.270057426616674" lon="11.46250196412716"><ele>291.6666666666667</ele><time>2026-04-12T08:56:40.999Z</time></trkpt><trkpt lat="44.270049561521" lon="11.462392700934293"><ele>292.33333333333337</ele><time>2026-04-12T08:56:41.999Z</time></trkpt><trkpt lat="44.27007117809479" lon="11.462282547283714"><ele>293.0</ele><time>2026-04-12T08:56:42.999Z</time></trkpt><trkpt lat="44.27010577425185" lon="11.46215744946851"><ele>294.2</ele><time>2026-04-12T08:56:43.999Z</time></trkpt><trkpt lat="44.27016168374765" lon="11.46203500281771"><ele>295.4</ele><time>2026-04-12T08:56:44.999Z</time></trkpt><trkpt lat="44.270222572727924" lon="11.461901568807018"><ele>296.59999999999997</ele><time>2026-04-12T08:56:45.999Z</time></trkpt><trkpt lat="44.27028701780171" lon="11.461775065914672"><ele>297.8</ele><time>2026-04-12T08:56:46.999Z</time></trkpt><trkpt lat="44.27035702179065" lon="11.461666400461997"><ele>299.0</ele><time>2026-04-12T08:56:47.999Z</time></trkpt><trkpt lat="44.27043171559601" lon="11.461553938845674"><ele>299.0</ele><time>2026-04-12T08:56:48.999Z</time></trkpt><trkpt lat="44.27050243675776" lon="11.461437922722231"><ele>299.0</ele><time>2026-04-12T08:56:49.999Z</time></trkpt><trkpt lat="44.27057891193878" lon="11.461314915820909"><ele>299.0</ele><time>2026-04-12T08:56:50.999Z</time></trkpt><trkpt lat="44.27065102087898" lon="11.461183578190477"><ele>299.0</ele><time>2026-04-12T08:56:51.999Z</time></trkpt><trkpt lat="44.27072630868137" lon="11.461050688360425"><ele>297.0</ele><time>2026-04-12T08:56:52.999Z</time></trkpt><trkpt lat="44.27080060594443" lon="11.460925868469992"><ele>295.0</ele><time>2026-04-12T08:56:53.999Z</time></trkpt><trkpt lat="44.27087242773999" lon="11.46078860671344"><ele>293.0</ele><time>2026-04-12T08:56:54.999Z</time></trkpt><trkpt lat="44.27095101413634" lon="11.460644037365611"><ele>291.0</ele><time>2026-04-12T08:56:55.999Z</time></trkpt><trkpt lat="44.27103407996755" lon="11.460506946036896"><ele>292.75</ele><time>2026-04-12T08:56:56.999Z</time></trkpt><trkpt lat="44.27111730999027" lon="11.460376906569921"><ele>294.5</ele><time>2026-04-12T08:56:57.999Z</time></trkpt><trkpt lat="44.27119884388535" lon="11.460248724098944"><ele>296.25</ele><time>2026-04-12T08:56:58.999Z</time></trkpt><trkpt lat="44.27127621682635" lon="11.46013069564139"><ele>298.0</ele><time>2026-04-12T08:56:59.999Z</time></trkpt><trkpt lat="44.27134958879251" lon="11.460011725036582"><ele>298.0</ele><time>2026-04-12T08:57:00.999Z</time></trkpt><trkpt lat="44.27141370697604" lon="11.459879748442656"><ele>298.0</ele><time>2026-04-12T08:57:01.999Z</time></trkpt><trkpt lat="44.27147448704199" lon="11.45974672465247"><ele>298.0</ele><time>2026-04-12T08:57:02.999Z</time></trkpt><trkpt lat="44.2715235199829" lon="11.459597862544493"><ele>298.0</ele><time>2026-04-12T08:57:03.999Z</time></trkpt><trkpt lat="44.271552546322184" lon="11.459439685460652"><ele>294.75</ele><time>2026-04-12T08:57:04.999Z</time></trkpt><trkpt lat="44.271586450757695" lon="11.459281491965033"><ele>291.5</ele><time>2026-04-12T08:57:05.999Z</time></trkpt><trkpt lat="44.271620826493766" lon="11.459118509964469"><ele>288.25</ele><time>2026-04-12T08:57:06.999Z</time></trkpt><trkpt lat="44.27165558589877" lon="11.458959883869898"><ele>285.0</ele><time>2026-04-12T08:57:07.999Z</time></trkpt><trkpt lat="44.27169932304481" lon="11.45880665284244"><ele>286.25</ele><time>2026-04-12T08:57:08.999Z</time></trkpt><trkpt lat="44.27176391408599" lon="11.458671366244612"><ele>287.5</ele><time>2026-04-12T08:57:09.999Z</time></trkpt><trkpt lat="44.27182654376652" lon="11.458531133728004"><ele>288.75</ele><time>2026-04-12T08:57:10.999Z</time></trkpt><trkpt lat="44.27189678419604" lon="11.458403131149847"><ele>290.0</ele><time>2026-04-12T08:57:11.999Z</time></trkpt><trkpt lat="44.272001086831914" lon="11.458320840155274"><ele>290.0</ele><time>2026-04-12T08:57:12.999Z</time></trkpt><trkpt lat="44.27209410479562" lon="11.458226546900624"><ele>290.0</ele><time>2026-04-12T08:57:13.999Z</time></trkpt><trkpt lat="44.272206432386504" lon="11.458159081668583"><ele>290.0</ele><time>2026-04-12T08:57:14.999Z</time></trkpt><trkpt lat="44.27232261506073" lon="11.458099568870173"><ele>290.0</ele><time>2026-04-12T08:57:15.999Z</time></trkpt><trkpt lat="44.272433378399754" lon="11.458054166315177"><ele>290.5</ele><time>2026-04-12T08:57:16.999Z</time></trkpt><trkpt lat="44.272531512989275" lon="11.457982609667559"><ele>291.0</ele><time>2026-04-12T08:57:17.999Z</time></trkpt><trkpt lat="44.27262247008243" lon="11.457874766437127"><ele>291.5</ele><time>2026-04-12T08:57:18.999Z</time></trkpt><trkpt lat="44.27270405986199" lon="11.457761004438211"><ele>292.0</ele><time>2026-04-12T08:57:19.999Z</time></trkpt><trkpt lat="44.27277410980082" lon="11.457640726257754"><ele>292.0</ele><time>2026-04-12T08:57:20.999Z</time></trkpt><trkpt lat="44.27284178684053" lon="11.457529397159915"><ele>292.0</ele><time>2026-04-12T08:57:21.999Z</time></trkpt><trkpt lat="44.27290636420066" lon="11.457441129491967"><ele>292.0</ele><time>2026-04-12T08:57:22.999Z</time></trkpt><trkpt lat="44.272980910195315" lon="11.457373341947761"><ele>292.0</ele><time>2026-04-12T08:57:23.999Z</time></trkpt><trkpt lat="44.27306354507184" lon="11.457331635688856"><ele>292.0</ele><time>2026-04-12T08:57:24.999Z</time></trkpt><trkpt lat="44.27315466575185" lon="11.457367241315287"><ele>291.0</ele><time>2026-04-12T08:57:25.999Z</time></trkpt><trkpt lat="44.27326070512549" lon="11.457386083379005"><ele>290.0</ele><time>2026-04-12T08:57:26.999Z</time></trkpt><trkpt lat="44.27335110346303" lon="11.457433609451604"><ele>289.0</ele><time>2026-04-12T08:57:27.999Z</time></trkpt><trkpt lat="44.27343870440858" lon="11.457479810272313"><ele>288.0</ele><time>2026-04-12T08:57:28.999Z</time></trkpt><trkpt lat="44.27352064977306" lon="11.45752429378542"><ele>287.0</ele><time>2026-04-12T08:57:29.999Z</time></trkpt><trkpt lat="44.27360087279902" lon="11.457565709981136"><ele>287.0</ele><time>2026-04-12T08:57:30.999Z</time></trkpt><trkpt lat="44.27372034933055" lon="11.457607736498577"><ele>287.0</ele><time>2026-04-12T08:57:32.999Z</time></trkpt><trkpt lat="44.2738116942197" lon="11.457630317002163"><ele>287.0</ele><time>2026-04-12T08:57:34.999Z</time></trkpt><trkpt lat="44.273850471926444" lon="11.45751174697469"><ele>287.0</ele><time>2026-04-12T08:57:38Z</time></trkpt><trkpt lat="44.27378684449673" lon="11.457389429201049"><ele>287.0</ele><time>2026-04-12T08:57:40Z</time></trkpt><trkpt lat="44.27369846694882" lon="11.457371181081399"><ele>287.0</ele><time>2026-04-12T08:57:41Z</time></trkpt><trkpt lat="44.27361228008434" lon="11.457343048642036"><ele>287.0</ele><time>2026-04-12T08:57:42Z</time></trkpt><trkpt lat="44.27354647333513" lon="11.457316336823924"><ele>287.0</ele><time>2026-04-12T08:57:43Z</time></trkpt><trkpt lat="44.273546671494444" lon="11.457168927696479"><ele>287.0</ele><time>2026-04-12T08:57:45Z</time></trkpt><trkpt lat="44.27364660614103" lon="11.457116999612996"><ele>287.0</ele><time>2026-04-12T08:57:47Z</time></trkpt><trkpt lat="44.27372224908394" lon="11.457100729691465"><ele>287.0</ele><time>2026-04-12T08:57:48Z</time></trkpt><trkpt lat="44.27379872840078" lon="11.457038923599264"><ele>288.5</ele><time>2026-04-12T08:57:49Z</time></trkpt><trkpt lat="44.27384807925291" lon="11.456941895770928"><ele>290.0</ele><time>2026-04-12T08:57:50Z</time></trkpt><trkpt lat="44.27388638812082" lon="11.456811719483895"><ele>291.5</ele><time>2026-04-12T08:57:51Z</time></trkpt><trkpt lat="44.273906924817766" lon="11.456689532942613"><ele>293.0</ele><time>2026-04-12T08:57:52Z</time></trkpt><trkpt lat="44.273929034834474" lon="11.456578153055021"><ele>294.5</ele><time>2026-04-12T08:57:53Z</time></trkpt><trkpt lat="44.273964342029984" lon="11.456473121658899"><ele>296.0</ele><time>2026-04-12T08:57:54Z</time></trkpt><trkpt lat="44.27399978314442" lon="11.456377676856077"><ele>296.5</ele><time>2026-04-12T08:57:55Z</time></trkpt><trkpt lat="44.27404297716354" lon="11.456296077684165"><ele>297.0</ele><time>2026-04-12T08:57:56Z</time></trkpt><trkpt lat="44.27410544815348" lon="11.456237451881437"><ele>297.5</ele><time>2026-04-12T08:57:57Z</time></trkpt><trkpt lat="44.27418975122682" lon="11.456218134934758"><ele>298.0</ele><time>2026-04-12T08:57:58Z</time></trkpt><trkpt lat="44.27428405108224" lon="11.456237028059645"><ele>298.5</ele><time>2026-04-12T08:57:59Z</time></trkpt><trkpt lat="44.27437743585407" lon="11.45626003577013"><ele>299.0</ele><time>2026-04-12T08:58:00Z</time></trkpt><trkpt lat="44.27446647008802" lon="11.456268770150002"><ele>300.5</ele><time>2026-04-12T08:58:01Z</time></trkpt><trkpt lat="44.274559558918696" lon="11.456268454115733"><ele>302.0</ele><time>2026-04-12T08:58:02Z</time></trkpt><trkpt lat="44.274654841056666" lon="11.45626238871204"><ele>303.5</ele><time>2026-04-12T08:58:03Z</time></trkpt><trkpt lat="44.27475160468371" lon="11.456253202468723"><ele>305.0</ele><time>2026-04-12T08:58:04Z</time></trkpt><trkpt lat="44.27484202240517" lon="11.456249218248544"><ele>306.5</ele><time>2026-04-12T08:58:05Z</time></trkpt><trkpt lat="44.27491167565478" lon="11.456253230411816"><ele>308.0</ele><time>2026-04-12T08:58:06Z</time></trkpt><trkpt lat="44.2749799691007" lon="11.456232266804932"><ele>308.0</ele><time>2026-04-12T08:58:07Z</time></trkpt><trkpt lat="44.2750306999973" lon="11.456161455518556"><ele>308.0</ele><time>2026-04-12T08:58:08Z</time></trkpt><trkpt lat="44.27499946179981" lon="11.455974935856137"><ele>308.0</ele><time>2026-04-12T08:58:10Z</time></trkpt><trkpt lat="44.27493756593146" lon="11.4559017316332"><ele>308.0</ele><time>2026-04-12T08:58:11Z</time></trkpt><trkpt lat="44.274848903900676" lon="11.455841396815224"><ele>308.0</ele><time>2026-04-12T08:58:12Z</time></trkpt><trkpt lat="44.27475971127561" lon="11.455777528140741"><ele>308.0</ele><time>2026-04-12T08:58:13Z</time></trkpt><trkpt lat="44.274678751716195" lon="11.455682141863702"><ele>308.0</ele><time>2026-04-12T08:58:14Z</time></trkpt><trkpt lat="44.2746002230314" lon="11.455600839621608"><ele>308.0</ele><time>2026-04-12T08:58:15Z</time></trkpt><trkpt lat="44.27453578363189" lon="11.455519765522133"><ele>308.0</ele><time>2026-04-12T08:58:16Z</time></trkpt><trkpt lat="44.2744734421846" lon="11.455443361485795"><ele>308.0</ele><time>2026-04-12T08:58:17Z</time></trkpt><trkpt lat="44.27440269483088" lon="11.455353746696181"><ele>309.6</ele><time>2026-04-12T08:58:18Z</time></trkpt><trkpt lat="44.27436319004165" lon="11.455221682959403"><ele>311.20000000000005</ele><time>2026-04-12T08:58:19Z</time></trkpt><trkpt lat="44.27430623963729" lon="11.455104949394835"><ele>312.8</ele><time>2026-04-12T08:58:20Z</time></trkpt><trkpt lat="44.274260339428395" lon="11.45498749326339"><ele>314.40000000000003</ele><time>2026-04-12T08:58:21Z</time></trkpt><trkpt lat="44.27421391338222" lon="11.454870033407708"><ele>316.0</ele><time>2026-04-12T08:58:21.999Z</time></trkpt><trkpt lat="44.274174919421185" lon="11.454757359835197"><ele>316.0</ele><time>2026-04-12T08:58:22.999Z</time></trkpt><trkpt lat="44.274133420051214" lon="11.45465181789817"><ele>316.0</ele><time>2026-04-12T08:58:23.999Z</time></trkpt><trkpt lat="44.274090782034946" lon="11.454530779173954"><ele>316.0</ele><time>2026-04-12T08:58:24.999Z</time></trkpt><trkpt lat="44.27404477607286" lon="11.454410671914331"><ele>316.0</ele><time>2026-04-12T08:58:25.999Z</time></trkpt><trkpt lat="44.273991274431495" lon="11.454290313210285"><ele>316.0</ele><time>2026-04-12T08:58:26.999Z</time></trkpt><trkpt lat="44.2739375147676" lon="11.454174686701316"><ele>318.0</ele><time>2026-04-12T08:58:27.999Z</time></trkpt><trkpt lat="44.27388661569924" lon="11.45405219643098"><ele>320.0</ele><time>2026-04-12T08:58:28.999Z</time></trkpt><trkpt lat="44.27384141874219" lon="11.453936161222913"><ele>322.0</ele><time>2026-04-12T08:58:29.999Z</time></trkpt><trkpt lat="44.27379786612159" lon="11.453810631600824"><ele>324.0</ele><time>2026-04-12T08:58:30.999Z</time></trkpt><trkpt lat="44.2737514875572" lon="11.45368440561101"><ele>326.0</ele><time>2026-04-12T08:58:31.999Z</time></trkpt><trkpt lat="44.27370375401549" lon="11.453575173278415"><ele>327.8</ele><time>2026-04-12T08:58:32.999Z</time></trkpt><trkpt lat="44.2736558563261" lon="11.453453887097922"><ele>329.6</ele><time>2026-04-12T08:58:33.999Z</time></trkpt><trkpt lat="44.27361359791415" lon="11.45332930372368"><ele>331.4</ele><time>2026-04-12T08:58:34.999Z</time></trkpt><trkpt lat="44.27356993287386" lon="11.453198444477282"><ele>333.2</ele><time>2026-04-12T08:58:35.999Z</time></trkpt><trkpt lat="44.27352420234821" lon="11.453061548243202"><ele>335.0</ele><time>2026-04-12T08:58:36.999Z</time></trkpt><trkpt lat="44.2734947052919" lon="11.452923567224905"><ele>336.8</ele><time>2026-04-12T08:58:37.999Z</time></trkpt><trkpt lat="44.27347854235728" lon="11.452778334333848"><ele>338.6</ele><time>2026-04-12T08:58:38.999Z</time></trkpt><trkpt lat="44.2734773974545" lon="11.452629618926196"><ele>340.4</ele><time>2026-04-12T08:58:39.999Z</time></trkpt><trkpt lat="44.27346834642903" lon="11.452482971683468"><ele>342.2</ele><time>2026-04-12T08:58:40.999Z</time></trkpt><trkpt lat="44.2734525746953" lon="11.452330584544924"><ele>344.0</ele><time>2026-04-12T08:58:41.999Z</time></trkpt><trkpt lat="44.273442492208574" lon="11.452181251299448"><ele>345.2</ele><time>2026-04-12T08:58:42.999Z</time></trkpt><trkpt lat="44.273425076722646" lon="11.452033626253796"><ele>346.4</ele><time>2026-04-12T08:58:43.999Z</time></trkpt><trkpt lat="44.273398097565455" lon="11.45188619958493"><ele>347.6</ele><time>2026-04-12T08:58:44.999Z</time></trkpt><trkpt lat="44.27337134592597" lon="11.451739681031228"><ele>348.8</ele><time>2026-04-12T08:58:45.999Z</time></trkpt><trkpt lat="44.27334831045404" lon="11.451591038712797"><ele>350.0</ele><time>2026-04-12T08:58:46.999Z</time></trkpt><trkpt lat="44.27332920717513" lon="11.451441472000083"><ele>350.0</ele><time>2026-04-12T08:58:47.999Z</time></trkpt><trkpt lat="44.2733088127719" lon="11.451296246639068"><ele>350.0</ele><time>2026-04-12T08:58:48.999Z</time></trkpt><trkpt lat="44.27330041388914" lon="11.451152099721861"><ele>350.0</ele><time>2026-04-12T08:58:49.999Z</time></trkpt><trkpt lat="44.27332333858914" lon="11.45101953350907"><ele>350.0</ele><time>2026-04-12T08:58:50.999Z</time></trkpt><trkpt lat="44.273376633719224" lon="11.450899878066158"><ele>350.0</ele><time>2026-04-12T08:58:51.999Z</time></trkpt><trkpt lat="44.27347265681208" lon="11.450822674074235"><ele>351.2</ele><time>2026-04-12T08:58:52.999Z</time></trkpt><trkpt lat="44.273547906519674" lon="11.450712034028328"><ele>352.4</ele><time>2026-04-12T08:58:53.999Z</time></trkpt><trkpt lat="44.2736172955377" lon="11.45059988659296"><ele>353.6</ele><time>2026-04-12T08:58:54.999Z</time></trkpt><trkpt lat="44.27365666973324" lon="11.450464530671535"><ele>354.8</ele><time>2026-04-12T08:58:55.999Z</time></trkpt><trkpt lat="44.27368969820676" lon="11.45031582280539"><ele>356.0</ele><time>2026-04-12T08:58:56.999Z</time></trkpt><trkpt lat="44.273727144842326" lon="11.45017454251265"><ele>356.4</ele><time>2026-04-12T08:58:57.999Z</time></trkpt><trkpt lat="44.27377933318254" lon="11.450051735713544"><ele>356.8</ele><time>2026-04-12T08:58:58.999Z</time></trkpt><trkpt lat="44.27385536545828" lon="11.449960530419764"><ele>357.2</ele><time>2026-04-12T08:58:59.999Z</time></trkpt><trkpt lat="44.273943232342404" lon="11.449904523799434"><ele>357.59999999999997</ele><time>2026-04-12T08:59:00.999Z</time></trkpt><trkpt lat="44.27401373899929" lon="11.449853425751531"><ele>358.0</ele><time>2026-04-12T08:59:01.999Z</time></trkpt><trkpt lat="44.274046861563924" lon="11.449688518872515"><ele>358.0</ele><time>2026-04-12T08:59:03.999Z</time></trkpt><trkpt lat="44.27395297940422" lon="11.449575275693354"><ele>358.0</ele><time>2026-04-12T08:59:05.999Z</time></trkpt><trkpt lat="44.273858234518336" lon="11.449565033836306"><ele>358.0</ele><time>2026-04-12T08:59:06.999Z</time></trkpt><trkpt lat="44.27376412996855" lon="11.44959496824179"><ele>358.0</ele><time>2026-04-12T08:59:07.999Z</time></trkpt><trkpt lat="44.273658972318024" lon="11.44958599727418"><ele>358.0</ele><time>2026-04-12T08:59:08.999Z</time></trkpt><trkpt lat="44.273555531845645" lon="11.449593305201184"><ele>359.79999999999995</ele><time>2026-04-12T08:59:09.999Z</time></trkpt><trkpt lat="44.273454861417456" lon="11.449600701232852"><ele>361.6</ele><time>2026-04-12T08:59:10.999Z</time></trkpt><trkpt lat="44.273357728296126" lon="11.449608820455968"><ele>363.4</ele><time>2026-04-12T08:59:11.999Z</time></trkpt><trkpt lat="44.27325823991572" lon="11.449622906867573"><ele>365.20000000000005</ele><time>2026-04-12T08:59:12.999Z</time></trkpt><trkpt lat="44.27315919992288" lon="11.449650826230545"><ele>367.0</ele><time>2026-04-12T08:59:13.999Z</time></trkpt><trkpt lat="44.27307606652604" lon="11.449701828819324"><ele>369.40000000000003</ele><time>2026-04-12T08:59:14.999Z</time></trkpt><trkpt lat="44.27298987320221" lon="11.449720677806274"><ele>371.8</ele><time>2026-04-12T08:59:15.999Z</time></trkpt><trkpt lat="44.27288459632187" lon="11.4497240899733"><ele>374.2</ele><time>2026-04-12T08:59:16.999Z</time></trkpt><trkpt lat="44.272787803463196" lon="11.449661843221037"><ele>376.6</ele><time>2026-04-12T08:59:17.999Z</time></trkpt><trkpt lat="44.27270000528132" lon="11.449603813417534"><ele>379.0</ele><time>2026-04-12T08:59:18.999Z</time></trkpt><trkpt lat="44.272630910227505" lon="11.449540640096155"><ele>380.16666666666663</ele><time>2026-04-12T08:59:19.999Z</time></trkpt><trkpt lat="44.27256822739631" lon="11.449448474856712"><ele>381.3333333333333</ele><time>2026-04-12T08:59:20.999Z</time></trkpt><trkpt lat="44.27253798858747" lon="11.449320779937832"><ele>382.5</ele><time>2026-04-12T08:59:21.999Z</time></trkpt><trkpt lat="44.272531990853494" lon="11.449209354313043"><ele>383.66666666666663</ele><time>2026-04-12T08:59:22.999Z</time></trkpt><trkpt lat="44.27253794428498" lon="11.44908819759058"><ele>384.8333333333333</ele><time>2026-04-12T08:59:23.999Z</time></trkpt><trkpt lat="44.27255634386244" lon="11.448961036419679"><ele>386.0</ele><time>2026-04-12T08:59:24.999Z</time></trkpt><trkpt lat="44.272569208155666" lon="11.44882435134766"><ele>388.0</ele><time>2026-04-12T08:59:25.999Z</time></trkpt><trkpt lat="44.272583087157976" lon="11.448681597618114"><ele>390.0</ele><time>2026-04-12T08:59:26.999Z</time></trkpt><trkpt lat="44.27260057454417" lon="11.448540738231285"><ele>392.0</ele><time>2026-04-12T08:59:27.999Z</time></trkpt><trkpt lat="44.27261359007125" lon="11.448397008293298"><ele>394.0</ele><time>2026-04-12T08:59:28.999Z</time></trkpt><trkpt lat="44.27261491115048" lon="11.448256507976339"><ele>396.0</ele><time>2026-04-12T08:59:29.999Z</time></trkpt><trkpt lat="44.27260493645477" lon="11.448113153110977"><ele>396.0</ele><time>2026-04-12T08:59:30.999Z</time></trkpt><trkpt lat="44.27259204385319" lon="11.447972036648844"><ele>396.0</ele><time>2026-04-12T08:59:31.999Z</time></trkpt><trkpt lat="44.27257327344393" lon="11.447830938694697"><ele>396.0</ele><time>2026-04-12T08:59:32.999Z</time></trkpt><trkpt lat="44.27254672030334" lon="11.447691074169844"><ele>396.0</ele><time>2026-04-12T08:59:33.999Z</time></trkpt><trkpt lat="44.272526971531214" lon="11.447545548747032"><ele>396.0</ele><time>2026-04-12T08:59:34.999Z</time></trkpt><trkpt lat="44.27251128128565" lon="11.44740539950252"><ele>396.75</ele><time>2026-04-12T08:59:35.999Z</time></trkpt><trkpt lat="44.27247788891034" lon="11.447268150741236"><ele>397.5</ele><time>2026-04-12T08:59:36.999Z</time></trkpt><trkpt lat="44.272422027288506" lon="11.447135081872352"><ele>398.25</ele><time>2026-04-12T08:59:37.999Z</time></trkpt><trkpt lat="44.27234389978166" lon="11.447002311617215"><ele>399.0</ele><time>2026-04-12T08:59:38.999Z</time></trkpt><trkpt lat="44.272267967977186" lon="11.446876771207567"><ele>403.25</ele><time>2026-04-12T08:59:39.999Z</time></trkpt><trkpt lat="44.27218557375656" lon="11.446747838847301"><ele>407.5</ele><time>2026-04-12T08:59:40.999Z</time></trkpt><trkpt lat="44.27209785327786" lon="11.446608486311833"><ele>411.75</ele><time>2026-04-12T08:59:41.999Z</time></trkpt><trkpt lat="44.27201960757581" lon="11.44648786876879"><ele>416.0</ele><time>2026-04-12T08:59:43Z</time></trkpt><trkpt lat="44.27194319177181" lon="11.446371797853724"><ele>415.4</ele><time>2026-04-12T08:59:44Z</time></trkpt><trkpt lat="44.27187097451746" lon="11.446252093327647"><ele>414.8</ele><time>2026-04-12T08:59:45Z</time></trkpt><trkpt lat="44.27179542057747" lon="11.446135836616467"><ele>414.2</ele><time>2026-04-12T08:59:46Z</time></trkpt><trkpt lat="44.27172670507302" lon="11.446020314629171"><ele>413.59999999999997</ele><time>2026-04-12T08:59:47Z</time></trkpt><trkpt lat="44.27166051321776" lon="11.445916925930716"><ele>413.0</ele><time>2026-04-12T08:59:48Z</time></trkpt><trkpt lat="44.271604675001065" lon="11.445806701005903"><ele>413.0</ele><time>2026-04-12T08:59:49Z</time></trkpt><trkpt lat="44.271541299496405" lon="11.445719701333365"><ele>413.0</ele><time>2026-04-12T08:59:50Z</time></trkpt><trkpt lat="44.27147344700031" lon="11.445641942662853"><ele>413.0</ele><time>2026-04-12T08:59:51Z</time></trkpt><trkpt lat="44.271384737369694" lon="11.445582126991651"><ele>413.0</ele><time>2026-04-12T08:59:52Z</time></trkpt><trkpt lat="44.2712682515434" lon="11.445532931831979"><ele>413.0</ele><time>2026-04-12T08:59:53Z</time></trkpt><trkpt lat="44.27115185265619" lon="11.445506139586142"><ele>416.25</ele><time>2026-04-12T08:59:54Z</time></trkpt><trkpt lat="44.27102532804045" lon="11.445499470564343"><ele>419.5</ele><time>2026-04-12T08:59:55Z</time></trkpt><trkpt lat="44.27090649253547" lon="11.445483115464855"><ele>422.75</ele><time>2026-04-12T08:59:56Z</time></trkpt><trkpt lat="44.270789014069415" lon="11.44547357534273"><ele>426.0</ele><time>2026-04-12T08:59:57Z</time></trkpt><trkpt lat="44.270664782437336" lon="11.445451409802862"><ele>426.6</ele><time>2026-04-12T08:59:58Z</time></trkpt><trkpt lat="44.270559213358574" lon="11.445435405036733"><ele>427.20000000000005</ele><time>2026-04-12T08:59:59Z</time></trkpt><trkpt lat="44.27047462505333" lon="11.44539744178759"><ele>427.79999999999995</ele><time>2026-04-12T09:00:00Z</time></trkpt><trkpt lat="44.27039304145167" lon="11.445348371770422"><ele>428.4</ele><time>2026-04-12T09:00:01Z</time></trkpt><trkpt lat="44.27031950528352" lon="11.445285856412081"><ele>429.0</ele><time>2026-04-12T09:00:02Z</time></trkpt><trkpt lat="44.27025167546987" lon="11.445202321461668"><ele>429.0</ele><time>2026-04-12T09:00:03Z</time></trkpt><trkpt lat="44.27019699240187" lon="11.445105809710403"><ele>429.0</ele><time>2026-04-12T09:00:04Z</time></trkpt><trkpt lat="44.27015068853739" lon="11.444990462726382"><ele>429.0</ele><time>2026-04-12T09:00:05Z</time></trkpt><trkpt lat="44.270095020816754" lon="11.444853846598686"><ele>429.0</ele><time>2026-04-12T09:00:06Z</time></trkpt><trkpt lat="44.27003841143714" lon="11.444720657800337"><ele>429.0</ele><time>2026-04-12T09:00:07Z</time></trkpt><trkpt lat="44.269983501607285" lon="11.44458679981922"><ele>428.75</ele><time>2026-04-12T09:00:08Z</time></trkpt><trkpt lat="44.269928434059445" lon="11.444448726326787"><ele>428.5</ele><time>2026-04-12T09:00:09Z</time></trkpt><trkpt lat="44.26987342125187" lon="11.444314609391542"><ele>428.25</ele><time>2026-04-12T09:00:10Z</time></trkpt><trkpt lat="44.269811989769785" lon="11.444181940119684"><ele>428.0</ele><time>2026-04-12T09:00:11Z</time></trkpt><trkpt lat="44.26974308718856" lon="11.444047621546861"><ele>429.59999999999997</ele><time>2026-04-12T09:00:12Z</time></trkpt><trkpt lat="44.2696755753446" lon="11.443919207203704"><ele>431.19999999999993</ele><time>2026-04-12T09:00:13Z</time></trkpt><trkpt lat="44.269606972954726" lon="11.44379576128876"><ele>432.8</ele><time>2026-04-12T09:00:14Z</time></trkpt><trkpt lat="44.26953502577643" lon="11.443680343636547"><ele>434.4</ele><time>2026-04-12T09:00:15Z</time></trkpt><trkpt lat="44.26946516699171" lon="11.443564546503648"><ele>436.0</ele><time>2026-04-12T09:00:16Z</time></trkpt><trkpt lat="44.26940049860809" lon="11.443449828232003"><ele>436.0</ele><time>2026-04-12T09:00:17Z</time></trkpt><trkpt lat="44.269337497089964" lon="11.443328957575478"><ele>436.0</ele><time>2026-04-12T09:00:18Z</time></trkpt><trkpt lat="44.269284318262635" lon="11.44319688713565"><ele>436.0</ele><time>2026-04-12T09:00:19Z</time></trkpt><trkpt lat="44.26924969083908" lon="11.443052916508114"><ele>436.0</ele><time>2026-04-12T09:00:20Z</time></trkpt><trkpt lat="44.26922862281796" lon="11.442910643447329"><ele>436.0</ele><time>2026-04-12T09:00:21Z</time></trkpt><trkpt lat="44.26922964634578" lon="11.442752916311282"><ele>435.6</ele><time>2026-04-12T09:00:22Z</time></trkpt><trkpt lat="44.26923347703944" lon="11.442600744288598"><ele>435.20000000000005</ele><time>2026-04-12T09:00:23Z</time></trkpt><trkpt lat="44.26924578739934" lon="11.44245963210586"><ele>434.79999999999995</ele><time>2026-04-12T09:00:24Z</time></trkpt><trkpt lat="44.26926289156764" lon="11.442315779553333"><ele>434.4</ele><time>2026-04-12T09:00:25Z</time></trkpt><trkpt lat="44.26927892285975" lon="11.44216148813596"><ele>434.0</ele><time>2026-04-12T09:00:26Z</time></trkpt><trkpt lat="44.26930065419779" lon="11.442000889076203"><ele>434.0</ele><time>2026-04-12T09:00:27Z</time></trkpt><trkpt lat="44.26932999703043" lon="11.441841189529493"><ele>434.0</ele><time>2026-04-12T09:00:28Z</time></trkpt><trkpt lat="44.26935494915416" lon="11.441681133726895"><ele>434.0</ele><time>2026-04-12T09:00:29Z</time></trkpt><trkpt lat="44.26938077008942" lon="11.441527535404958"><ele>434.0</ele><time>2026-04-12T09:00:30Z</time></trkpt><trkpt lat="44.269407851425754" lon="11.441382193281703"><ele>432.4</ele><time>2026-04-12T09:00:31Z</time></trkpt><trkpt lat="44.26942923374515" lon="11.441238806418344"><ele>430.79999999999995</ele><time>2026-04-12T09:00:32Z</time></trkpt><trkpt lat="44.269446650154315" lon="11.44110437573637"><ele>429.20000000000005</ele><time>2026-04-12T09:00:33Z</time></trkpt><trkpt lat="44.26944860686461" lon="11.44096958902186"><ele>427.6</ele><time>2026-04-12T09:00:34Z</time></trkpt><trkpt lat="44.269424300542546" lon="11.440837717050021"><ele>426.0</ele><time>2026-04-12T09:00:35Z</time></trkpt><trkpt lat="44.26937777131435" lon="11.440707610181802"><ele>426.0</ele><time>2026-04-12T09:00:36Z</time></trkpt><trkpt lat="44.26931579938553" lon="11.440572748847213"><ele>426.0</ele><time>2026-04-12T09:00:36.999Z</time></trkpt><trkpt lat="44.269260691113985" lon="11.44043946625992"><ele>426.0</ele><time>2026-04-12T09:00:37.999Z</time></trkpt><trkpt lat="44.26920780519498" lon="11.440305478979381"><ele>426.0</ele><time>2026-04-12T09:00:38.999Z</time></trkpt><trkpt lat="44.26916078847117" lon="11.440162538478416"><ele>426.0</ele><time>2026-04-12T09:00:39.999Z</time></trkpt><trkpt lat="44.26911160916725" lon="11.440013541039027"><ele>426.4</ele><time>2026-04-12T09:00:40.999Z</time></trkpt><trkpt lat="44.26906951799835" lon="11.43987274284183"><ele>426.8</ele><time>2026-04-12T09:00:41.999Z</time></trkpt><trkpt lat="44.269019407405466" lon="11.439740734619347"><ele>427.19999999999993</ele><time>2026-04-12T09:00:42.999Z</time></trkpt><trkpt lat="44.26894741795954" lon="11.439618099856805"><ele>427.59999999999997</ele><time>2026-04-12T09:00:43.999Z</time></trkpt><trkpt lat="44.268857820638495" lon="11.439521561452006"><ele>428.0</ele><time>2026-04-12T09:00:44.999Z</time></trkpt><trkpt lat="44.268763487949336" lon="11.439450379560911"><ele>428.0</ele><time>2026-04-12T09:00:45.999Z</time></trkpt><trkpt lat="44.268689130923285" lon="11.439351606084038"><ele>427.99999999999994</ele><time>2026-04-12T09:00:46.999Z</time></trkpt><trkpt lat="44.26864116695552" lon="11.439210830900937"><ele>427.99999999999994</ele><time>2026-04-12T09:00:47.999Z</time></trkpt><trkpt lat="44.26862165928301" lon="11.439058596414734"><ele>428.0</ele><time>2026-04-12T09:00:48.999Z</time></trkpt><trkpt lat="44.26859504340573" lon="11.438913335175586"><ele>428.0</ele><time>2026-04-12T09:00:49.999Z</time></trkpt><trkpt lat="44.26852798316795" lon="11.438794567432167"><ele>425.5</ele><time>2026-04-12T09:00:50.999Z</time></trkpt><trkpt lat="44.26843846046602" lon="11.438700060887893"><ele>423.0</ele><time>2026-04-12T09:00:51.999Z</time></trkpt><trkpt lat="44.26834974608185" lon="11.438600955336847"><ele>420.5</ele><time>2026-04-12T09:00:52.999Z</time></trkpt><trkpt lat="44.2682979946813" lon="11.438465639114403"><ele>418.0</ele><time>2026-04-12T09:00:53.999Z</time></trkpt><trkpt lat="44.26827061689875" lon="11.4383051223736"><ele>418.0</ele><time>2026-04-12T09:00:54.999Z</time></trkpt><trkpt lat="44.26824922304146" lon="11.438138597455872"><ele>418.0</ele><time>2026-04-12T09:00:55.999Z</time></trkpt><trkpt lat="44.268211283352585" lon="11.437978014120842"><ele>418.0</ele><time>2026-04-12T09:00:56.999Z</time></trkpt><trkpt lat="44.268160784319065" lon="11.43782866670357"><ele>418.0</ele><time>2026-04-12T09:00:57.999Z</time></trkpt><trkpt lat="44.268110157139965" lon="11.43768122298313"><ele>420.0</ele><time>2026-04-12T09:00:58.999Z</time></trkpt><trkpt lat="44.26806003142278" lon="11.437539944196779"><ele>422.0</ele><time>2026-04-12T09:00:59.999Z</time></trkpt><trkpt lat="44.26800382869341" lon="11.437412081109088"><ele>423.99999999999994</ele><time>2026-04-12T09:01:00.999Z</time></trkpt><trkpt lat="44.267958299890644" lon="11.437288594784091"><ele>426.0</ele><time>2026-04-12T09:01:01.999Z</time></trkpt><trkpt lat="44.267920926778324" lon="11.437169017459725"><ele>428.0</ele><time>2026-04-12T09:01:02.999Z</time></trkpt><trkpt lat="44.26791802330596" lon="11.437036119147587"><ele>428.0</ele><time>2026-04-12T09:01:03.999Z</time></trkpt><trkpt lat="44.26795110923169" lon="11.436898102830547"><ele>427.99999999999994</ele><time>2026-04-12T09:01:04.999Z</time></trkpt><trkpt lat="44.26800873885606" lon="11.436785987141223"><ele>427.99999999999994</ele><time>2026-04-12T09:01:05.999Z</time></trkpt><trkpt lat="44.268040002029785" lon="11.436667541434133"><ele>428.0</ele><time>2026-04-12T09:01:06.999Z</time></trkpt><trkpt lat="44.2680215217248" lon="11.436539635225756"><ele>428.0</ele><time>2026-04-12T09:01:07.999Z</time></trkpt><trkpt lat="44.26795794751088" lon="11.436432493809127"><ele>428.0</ele><time>2026-04-12T09:01:08.999Z</time></trkpt><trkpt lat="44.26786513982578" lon="11.436332221682383"><ele>427.99999999999994</ele><time>2026-04-12T09:01:09.999Z</time></trkpt><trkpt lat="44.2677403100626" lon="11.436316490042168"><ele>427.99999999999994</ele><time>2026-04-12T09:01:10.999Z</time></trkpt><trkpt lat="44.26765226287836" lon="11.43627520432716"><ele>428.0</ele><time>2026-04-12T09:01:11.999Z</time></trkpt><trkpt lat="44.26758437123166" lon="11.436219196369938"><ele>428.0</ele><time>2026-04-12T09:01:12.999Z</time></trkpt><trkpt lat="44.26750671924964" lon="11.436299646320208"><ele>428.5</ele><time>2026-04-12T09:01:13.999Z</time></trkpt><trkpt lat="44.267489212486694" lon="11.436189434275208"><ele>429.0</ele><time>2026-04-12T09:01:14.999Z</time></trkpt><trkpt lat="44.267665368473544" lon="11.436278006851417"><ele>429.5</ele><time>2026-04-12T09:01:15.999Z</time></trkpt><trkpt lat="44.26758409163924" lon="11.43621229837946"><ele>430.0</ele><time>2026-04-12T09:01:21.999Z</time></trkpt><trkpt lat="44.26752324711899" lon="11.436121903041645"><ele>430.0</ele><time>2026-04-12T09:01:22.999Z</time></trkpt><trkpt lat="44.26750116005939" lon="11.43597790826405"><ele>430.0</ele><time>2026-04-12T09:01:23.999Z</time></trkpt><trkpt lat="44.2674400252465" lon="11.435844258723115"><ele>430.0</ele><time>2026-04-12T09:01:24.999Z</time></trkpt><trkpt lat="44.2673863175941" lon="11.435689685604936"><ele>430.0</ele><time>2026-04-12T09:01:25.999Z</time></trkpt><trkpt lat="44.26733986621586" lon="11.435543151404998"><ele>431.50000000000006</ele><time>2026-04-12T09:01:26.999Z</time></trkpt><trkpt lat="44.267299311009744" lon="11.435411988461023"><ele>433.0</ele><time>2026-04-12T09:01:27.999Z</time></trkpt><trkpt lat="44.26728471264593" lon="11.435272463938338"><ele>434.5</ele><time>2026-04-12T09:01:28.999Z</time></trkpt><trkpt lat="44.26727392847677" lon="11.43515784393046"><ele>436.0</ele><time>2026-04-12T09:01:29.999Z</time></trkpt><trkpt lat="44.26727285843391" lon="11.435057841659612"><ele>437.50000000000006</ele><time>2026-04-12T09:01:30.999Z</time></trkpt><trkpt lat="44.2673352497102" lon="11.434980582164293"><ele>439.0</ele><time>2026-04-12T09:01:31.999Z</time></trkpt><trkpt lat="44.2674083644839" lon="11.434965138842738"><ele>439.2</ele><time>2026-04-12T09:01:32.999Z</time></trkpt><trkpt lat="44.26747980624899" lon="11.434940556640969"><ele>439.4</ele><time>2026-04-12T09:01:33.999Z</time></trkpt><trkpt lat="44.267566719213285" lon="11.4349142162517"><ele>439.6</ele><time>2026-04-12T09:01:34.999Z</time></trkpt><trkpt lat="44.26765977169711" lon="11.434884244887485"><ele>439.8</ele><time>2026-04-12T09:01:35.999Z</time></trkpt><trkpt lat="44.26775572705161" lon="11.434851734521663"><ele>440.0</ele><time>2026-04-12T09:01:36.999Z</time></trkpt><trkpt lat="44.26785307981086" lon="11.43479930808971"><ele>440.0</ele><time>2026-04-12T09:01:37.999Z</time></trkpt><trkpt lat="44.26794752014152" lon="11.434712152980032"><ele>440.0</ele><time>2026-04-12T09:01:38.999Z</time></trkpt><trkpt lat="44.26801493710669" lon="11.434614489901767"><ele>440.0</ele><time>2026-04-12T09:01:39.999Z</time></trkpt><trkpt lat="44.268083888300744" lon="11.434514110442425"><ele>440.0</ele><time>2026-04-12T09:01:40.999Z</time></trkpt><trkpt lat="44.26815758015964" lon="11.434429474952045"><ele>440.0</ele><time>2026-04-12T09:01:41.999Z</time></trkpt><trkpt lat="44.26821654604513" lon="11.434331726177376"><ele>442.2</ele><time>2026-04-12T09:01:42.999Z</time></trkpt><trkpt lat="44.26826955896625" lon="11.434203941436518"><ele>444.4</ele><time>2026-04-12T09:01:43.999Z</time></trkpt><trkpt lat="44.26833055621265" lon="11.434109605919568"><ele>446.6</ele><time>2026-04-12T09:01:44.999Z</time></trkpt><trkpt lat="44.26837487955058" lon="11.43403344288793"><ele>448.8</ele><time>2026-04-12T09:01:45.999Z</time></trkpt><trkpt lat="44.26846845320522" lon="11.43396973063172"><ele>451.0</ele><time>2026-04-12T09:01:47.999Z</time></trkpt><trkpt lat="44.2685574453917" lon="11.43395794633923"><ele>451.0</ele><time>2026-04-12T09:01:50Z</time></trkpt><trkpt lat="44.26862183854041" lon="11.433943269815066"><ele>451.0</ele><time>2026-04-12T09:01:51Z</time></trkpt><trkpt lat="44.2686926115873" lon="11.433923773460759"><ele>451.0</ele><time>2026-04-12T09:01:52Z</time></trkpt><trkpt lat="44.26878791471331" lon="11.433890453612234"><ele>451.0</ele><time>2026-04-12T09:01:53Z</time></trkpt><trkpt lat="44.26889538399381" lon="11.433836556509387"><ele>451.0</ele><time>2026-04-12T09:01:54Z</time></trkpt><trkpt lat="44.26900915591734" lon="11.433775831012623"><ele>453.5</ele><time>2026-04-12T09:01:55Z</time></trkpt><trkpt lat="44.2691282490628" lon="11.433712584037284"><ele>456.0</ele><time>2026-04-12T09:01:56Z</time></trkpt><trkpt lat="44.269246104094364" lon="11.433643575533141"><ele>458.5</ele><time>2026-04-12T09:01:57Z</time></trkpt><trkpt lat="44.26936848705208" lon="11.433571154959475"><ele>461.0</ele><time>2026-04-12T09:01:58Z</time></trkpt><trkpt lat="44.26948991940341" lon="11.433528717478747"><ele>461.0</ele><time>2026-04-12T09:01:59Z</time></trkpt><trkpt lat="44.26960253811187" lon="11.433514883943142"><ele>461.0</ele><time>2026-04-12T09:02:00Z</time></trkpt><trkpt lat="44.26970541551965" lon="11.43351370122888"><ele>461.0</ele><time>2026-04-12T09:02:01Z</time></trkpt><trkpt lat="44.26979105908777" lon="11.433513279341021"><ele>461.0</ele><time>2026-04-12T09:02:02Z</time></trkpt><trkpt lat="44.26986253309776" lon="11.433413549664287"><ele>461.0</ele><time>2026-04-12T09:02:03Z</time></trkpt><trkpt lat="44.269916640005626" lon="11.433300623203337"><ele>461.20000000000005</ele><time>2026-04-12T09:02:04Z</time></trkpt><trkpt lat="44.2699512969469" lon="11.433162793548693"><ele>461.40000000000003</ele><time>2026-04-12T09:02:05Z</time></trkpt><trkpt lat="44.269993152246634" lon="11.433011723366713"><ele>461.6</ele><time>2026-04-12T09:02:06Z</time></trkpt><trkpt lat="44.27005905542451" lon="11.43288653219226"><ele>461.8</ele><time>2026-04-12T09:02:07Z</time></trkpt><trkpt lat="44.2701441644501" lon="11.432786237424143"><ele>462.0</ele><time>2026-04-12T09:02:08Z</time></trkpt><trkpt lat="44.27024279163709" lon="11.432694860464977"><ele>464.75</ele><time>2026-04-12T09:02:09Z</time></trkpt><trkpt lat="44.27034082602035" lon="11.43259637967326"><ele>467.5</ele><time>2026-04-12T09:02:10Z</time></trkpt><trkpt lat="44.27043121232014" lon="11.432490184910296"><ele>470.25</ele><time>2026-04-12T09:02:11Z</time></trkpt><trkpt lat="44.27051583388154" lon="11.432384689977688"><ele>473.0</ele><time>2026-04-12T09:02:12Z</time></trkpt><trkpt lat="44.27059284004472" lon="11.43227611481701"><ele>472.59999999999997</ele><time>2026-04-12T09:02:13Z</time></trkpt><trkpt lat="44.27066291267004" lon="11.432161340533039"><ele>472.19999999999993</ele><time>2026-04-12T09:02:14Z</time></trkpt><trkpt lat="44.270731579715424" lon="11.4320468421828"><ele>471.8</ele><time>2026-04-12T09:02:15Z</time></trkpt><trkpt lat="44.27080527032615" lon="11.431940662923214"><ele>471.4</ele><time>2026-04-12T09:02:16Z</time></trkpt><trkpt lat="44.270895731363964" lon="11.431869177052008"><ele>471.0</ele><time>2026-04-12T09:02:17Z</time></trkpt><trkpt lat="44.27097867750127" lon="11.431798079643709"><ele>473.4</ele><time>2026-04-12T09:02:18Z</time></trkpt><trkpt lat="44.27108298508623" lon="11.431788612584995"><ele>475.8</ele><time>2026-04-12T09:02:19Z</time></trkpt><trkpt lat="44.27118716819729" lon="11.431780813081856"><ele>478.19999999999993</ele><time>2026-04-12T09:02:20Z</time></trkpt><trkpt lat="44.271297548190326" lon="11.431780739015027"><ele>480.59999999999997</ele><time>2026-04-12T09:02:21Z</time></trkpt><trkpt lat="44.27140590046544" lon="11.431773997247255"><ele>483.0</ele><time>2026-04-12T09:02:22Z</time></trkpt><trkpt lat="44.27151205280178" lon="11.431752382312636"><ele>484.0</ele><time>2026-04-12T09:02:23Z</time></trkpt><trkpt lat="44.271622347511524" lon="11.431716963905515"><ele>484.99999999999994</ele><time>2026-04-12T09:02:24Z</time></trkpt><trkpt lat="44.27171945656094" lon="11.43168259264839"><ele>485.99999999999994</ele><time>2026-04-12T09:02:25Z</time></trkpt><trkpt lat="44.27179000807861" lon="11.431658448857096"><ele>487.0</ele><time>2026-04-12T09:02:26Z</time></trkpt><trkpt lat="44.27185849379524" lon="11.431521142712452"><ele>488.0</ele><time>2026-04-12T09:02:28Z</time></trkpt><trkpt lat="44.27186609463223" lon="11.431432461015673"><ele>488.0</ele><time>2026-04-12T09:02:29Z</time></trkpt><trkpt lat="44.271804035538715" lon="11.43133623664475"><ele>487.99999999999994</ele><time>2026-04-12T09:02:30Z</time></trkpt><trkpt lat="44.27171711909202" lon="11.431287401103837"><ele>487.99999999999994</ele><time>2026-04-12T09:02:31Z</time></trkpt><trkpt lat="44.27163191527422" lon="11.431230437332493"><ele>488.0</ele><time>2026-04-12T09:02:32Z</time></trkpt><trkpt lat="44.27156990367609" lon="11.431116927632148"><ele>488.0</ele><time>2026-04-12T09:02:33Z</time></trkpt><trkpt lat="44.271490626281974" lon="11.431011792781902"><ele>490.4</ele><time>2026-04-12T09:02:34Z</time></trkpt><trkpt lat="44.271419617162366" lon="11.430893208676531"><ele>492.79999999999995</ele><time>2026-04-12T09:02:35Z</time></trkpt><trkpt lat="44.27134937907849" lon="11.430775720881188"><ele>495.2</ele><time>2026-04-12T09:02:36Z</time></trkpt><trkpt lat="44.271293674519285" lon="11.43064406087801"><ele>497.6</ele><time>2026-04-12T09:02:37Z</time></trkpt><trkpt lat="44.271225280597484" lon="11.430540059294414"><ele>500.0</ele><time>2026-04-12T09:02:38Z</time></trkpt><trkpt lat="44.271162908084236" lon="11.430424919156062"><ele>502.4</ele><time>2026-04-12T09:02:39Z</time></trkpt><trkpt lat="44.271100867190945" lon="11.430314803354957"><ele>504.8</ele><time>2026-04-12T09:02:40Z</time></trkpt><trkpt lat="44.271032993718514" lon="11.430200829220237"><ele>507.20000000000005</ele><time>2026-04-12T09:02:41Z</time></trkpt><trkpt lat="44.27097080235151" lon="11.430073571846819"><ele>509.6</ele><time>2026-04-12T09:02:42Z</time></trkpt><trkpt lat="44.270892797199465" lon="11.429952516276023"><ele>512.0</ele><time>2026-04-12T09:02:43Z</time></trkpt><trkpt lat="44.2708273996909" lon="11.429861921397894"><ele>511.99999999999994</ele><time>2026-04-12T09:02:44Z</time></trkpt><trkpt lat="44.2707711814437" lon="11.429784042490033"><ele>512.0</ele><time>2026-04-12T09:02:45Z</time></trkpt><trkpt lat="44.27072555478194" lon="11.429700364365429"><ele>512.0</ele><time>2026-04-12T09:02:46Z</time></trkpt><trkpt lat="44.27069845629843" lon="11.429593616524876"><ele>512.0</ele><time>2026-04-12T09:02:47Z</time></trkpt><trkpt lat="44.270695521024706" lon="11.429465487032703"><ele>511.99999999999994</ele><time>2026-04-12T09:02:48Z</time></trkpt><trkpt lat="44.27070876245572" lon="11.42933850943885"><ele>512.0</ele><time>2026-04-12T09:02:49Z</time></trkpt><trkpt lat="44.270704866435715" lon="11.429198717084963"><ele>513.6</ele><time>2026-04-12T09:02:50Z</time></trkpt><trkpt lat="44.27066562761091" lon="11.429066556449786"><ele>515.2</ele><time>2026-04-12T09:02:51Z</time></trkpt><trkpt lat="44.2705966561519" lon="11.428953632341385"><ele>516.8</ele><time>2026-04-12T09:02:52Z</time></trkpt><trkpt lat="44.27052337993527" lon="11.428866095302864"><ele>518.4</ele><time>2026-04-12T09:02:52.999Z</time></trkpt><trkpt lat="44.270480790054265" lon="11.428762937713122"><ele>520.0</ele><time>2026-04-12T09:02:53.999Z</time></trkpt><trkpt lat="44.27049234459189" lon="11.42862829637481"><ele>521.4</ele><time>2026-04-12T09:02:54.999Z</time></trkpt><trkpt lat="44.270531991111184" lon="11.428501158711274"><ele>522.8</ele><time>2026-04-12T09:02:55.999Z</time></trkpt><trkpt lat="44.270590400466425" lon="11.428390146657541"><ele>524.2</ele><time>2026-04-12T09:02:56.999Z</time></trkpt><trkpt lat="44.27061722408022" lon="11.4282783180222"><ele>525.6</ele><time>2026-04-12T09:02:57.999Z</time></trkpt><trkpt lat="44.270596139741144" lon="11.428166040738406"><ele>527.0</ele><time>2026-04-12T09:02:58.999Z</time></trkpt><trkpt lat="44.270540989552565" lon="11.42805840906452"><ele>530.2</ele><time>2026-04-12T09:02:59.999Z</time></trkpt><trkpt lat="44.2704682442615" lon="11.427965966575517"><ele>533.4000000000001</ele><time>2026-04-12T09:03:00.999Z</time></trkpt><trkpt lat="44.27038529077886" lon="11.427912647810544"><ele>536.5999999999999</ele><time>2026-04-12T09:03:01.999Z</time></trkpt><trkpt lat="44.27029098945933" lon="11.427896004492608"><ele>539.8</ele><time>2026-04-12T09:03:02.999Z</time></trkpt><trkpt lat="44.270192312527556" lon="11.427893251274885"><ele>543.0</ele><time>2026-04-12T09:03:03.999Z</time></trkpt><trkpt lat="44.270084991819935" lon="11.427878017710727"><ele>543.0</ele><time>2026-04-12T09:03:04.999Z</time></trkpt><trkpt lat="44.26999971153594" lon="11.427811797337764"><ele>543.0</ele><time>2026-04-12T09:03:05.999Z</time></trkpt><trkpt lat="44.269938558366775" lon="11.427691554617226"><ele>543.0</ele><time>2026-04-12T09:03:06.999Z</time></trkpt><trkpt lat="44.26989571019784" lon="11.427556422977927"><ele>543.0</ele><time>2026-04-12T09:03:07.999Z</time></trkpt><trkpt lat="44.2698555575817" lon="11.427416275548742"><ele>543.0</ele><time>2026-04-12T09:03:08.999Z</time></trkpt><trkpt lat="44.26979989984359" lon="11.427290376025937"><ele>543.8</ele><time>2026-04-12T09:03:09.999Z</time></trkpt><trkpt lat="44.269753413503956" lon="11.427167421878725"><ele>544.5999999999999</ele><time>2026-04-12T09:03:10.999Z</time></trkpt><trkpt lat="44.269739228943756" lon="11.42705156633055"><ele>545.4000000000001</ele><time>2026-04-12T09:03:11.999Z</time></trkpt><trkpt lat="44.269767356338605" lon="11.426938562376618"><ele>546.2</ele><time>2026-04-12T09:03:12.999Z</time></trkpt><trkpt lat="44.269854081708175" lon="11.426861928840836"><ele>547.0</ele><time>2026-04-12T09:03:13.999Z</time></trkpt><trkpt lat="44.269886585363636" lon="11.426754310078417"><ele>547.0</ele><time>2026-04-12T09:03:14.999Z</time></trkpt><trkpt lat="44.269900843209285" lon="11.426653534497355"><ele>547.0</ele><time>2026-04-12T09:03:15.999Z</time></trkpt><trkpt lat="44.269864170385965" lon="11.426542230818967"><ele>547.0</ele><time>2026-04-12T09:03:16.999Z</time></trkpt><trkpt lat="44.26979391544912" lon="11.426434031139813"><ele>547.0</ele><time>2026-04-12T09:03:17.999Z</time></trkpt><trkpt lat="44.26970150627215" lon="11.426353913510015"><ele>547.0</ele><time>2026-04-12T09:03:18.999Z</time></trkpt><trkpt lat="44.2696228166844" lon="11.426243455512788"><ele>551.75</ele><time>2026-04-12T09:03:19.999Z</time></trkpt><trkpt lat="44.269551975255204" lon="11.42611548011141"><ele>556.5</ele><time>2026-04-12T09:03:20.999Z</time></trkpt><trkpt lat="44.26948135757052" lon="11.425987105436237"><ele>561.25</ele><time>2026-04-12T09:03:21.999Z</time></trkpt><trkpt lat="44.26943436767988" lon="11.425855967580114"><ele>566.0</ele><time>2026-04-12T09:03:22.999Z</time></trkpt><trkpt lat="44.26936390468508" lon="11.42571818687068"><ele>566.0</ele><time>2026-04-12T09:03:23.999Z</time></trkpt><trkpt lat="44.26928213785329" lon="11.425615613270102"><ele>566.0</ele><time>2026-04-12T09:03:24.999Z</time></trkpt><trkpt lat="44.26919418568684" lon="11.425531550043193"><ele>566.0</ele><time>2026-04-12T09:03:25.999Z</time></trkpt><trkpt lat="44.269102110336505" lon="11.425494617398032"><ele>566.0</ele><time>2026-04-12T09:03:26.999Z</time></trkpt><trkpt lat="44.2690031925431" lon="11.42546582967096"><ele>566.0</ele><time>2026-04-12T09:03:27.999Z</time></trkpt><trkpt lat="44.26889626143218" lon="11.425448455617945"><ele>568.8</ele><time>2026-04-12T09:03:28.999Z</time></trkpt><trkpt lat="44.26881622806088" lon="11.425394990101852"><ele>571.6</ele><time>2026-04-12T09:03:29.999Z</time></trkpt><trkpt lat="44.26875395521423" lon="11.425296953715176"><ele>574.4</ele><time>2026-04-12T09:03:30.999Z</time></trkpt><trkpt lat="44.26871632554356" lon="11.425168713834251"><ele>577.2</ele><time>2026-04-12T09:03:31.999Z</time></trkpt><trkpt lat="44.26870289361135" lon="11.425047114364315"><ele>580.0</ele><time>2026-04-12T09:03:32.999Z</time></trkpt><trkpt lat="44.268703529335454" lon="11.424901317468384"><ele>580.0</ele><time>2026-04-12T09:03:33.999Z</time></trkpt><trkpt lat="44.26873039261624" lon="11.424729831093556"><ele>580.0</ele><time>2026-04-12T09:03:34.999Z</time></trkpt><trkpt lat="44.26873457258874" lon="11.424586862479696"><ele>580.0</ele><time>2026-04-12T09:03:35.999Z</time></trkpt><trkpt lat="44.26876047104246" lon="11.424439767575102"><ele>580.0</ele><time>2026-04-12T09:03:36.999Z</time></trkpt><trkpt lat="44.2687840147339" lon="11.424287943038099"><ele>580.0</ele><time>2026-04-12T09:03:37.999Z</time></trkpt><trkpt lat="44.268804696493724" lon="11.424134536863516"><ele>580.8</ele><time>2026-04-12T09:03:38.999Z</time></trkpt><trkpt lat="44.26883394728272" lon="11.42397481325406"><ele>581.6</ele><time>2026-04-12T09:03:39.999Z</time></trkpt><trkpt lat="44.26889830937802" lon="11.423835466240941"><ele>582.4</ele><time>2026-04-12T09:03:40.999Z</time></trkpt><trkpt lat="44.268945198745165" lon="11.423711861166314"><ele>583.2</ele><time>2026-04-12T09:03:41.999Z</time></trkpt><trkpt lat="44.26898517580731" lon="11.423583323788076"><ele>584.0</ele><time>2026-04-12T09:03:42.999Z</time></trkpt><trkpt lat="44.26903784408456" lon="11.423455874461746"><ele>584.4</ele><time>2026-04-12T09:03:43.999Z</time></trkpt><trkpt lat="44.26910036331863" lon="11.423345321729345"><ele>584.8</ele><time>2026-04-12T09:03:44.999Z</time></trkpt><trkpt lat="44.269184670460625" lon="11.4232827289628"><ele>585.2</ele><time>2026-04-12T09:03:45.999Z</time></trkpt><trkpt lat="44.269294614455546" lon="11.423293833115425"><ele>585.6</ele><time>2026-04-12T09:03:46.999Z</time></trkpt><trkpt lat="44.26939516864221" lon="11.423271994279672"><ele>586.0</ele><time>2026-04-12T09:03:47.999Z</time></trkpt><trkpt lat="44.269470941878495" lon="11.42328463470428"><ele>586.0</ele><time>2026-04-12T09:03:48.999Z</time></trkpt><trkpt lat="44.269520251663046" lon="11.423228450635998"><ele>586.0</ele><time>2026-04-12T09:03:49.999Z</time></trkpt><trkpt lat="44.2695631683636" lon="11.423076629319327"><ele>586.0</ele><time>2026-04-12T09:03:51.999Z</time></trkpt><trkpt lat="44.269506984407954" lon="11.422955757915778"><ele>586.0</ele><time>2026-04-12T09:03:53.999Z</time></trkpt><trkpt lat="44.26938599085189" lon="11.422979941390878"><ele>586.0</ele><time>2026-04-12T09:03:55Z</time></trkpt><trkpt lat="44.26930010725785" lon="11.422984932902994"><ele>589.0</ele><time>2026-04-12T09:03:56Z</time></trkpt><trkpt lat="44.26921010145443" lon="11.422952854667198"><ele>592.0</ele><time>2026-04-12T09:03:57Z</time></trkpt><trkpt lat="44.269118150248616" lon="11.42293878654537"><ele>595.0</ele><time>2026-04-12T09:03:58Z</time></trkpt><trkpt lat="44.2690284508766" lon="11.422940627875793"><ele>598.0</ele><time>2026-04-12T09:03:59Z</time></trkpt><trkpt lat="44.26893779084605" lon="11.42292178707515"><ele>601.0</ele><time>2026-04-12T09:04:00Z</time></trkpt><trkpt lat="44.268844462415885" lon="11.42290815627977"><ele>601.8</ele><time>2026-04-12T09:04:01Z</time></trkpt><trkpt lat="44.26875219340034" lon="11.42290167955423"><ele>602.6</ele><time>2026-04-12T09:04:02Z</time></trkpt><trkpt lat="44.26865778911094" lon="11.422899946752878"><ele>603.4</ele><time>2026-04-12T09:04:03Z</time></trkpt><trkpt lat="44.268562328640954" lon="11.422901505669833"><ele>604.2</ele><time>2026-04-12T09:04:04Z</time></trkpt><trkpt lat="44.268466251999804" lon="11.422911440354884"><ele>605.0</ele><time>2026-04-12T09:04:05Z</time></trkpt><trkpt lat="44.268364313029515" lon="11.422922286000755"><ele>605.0</ele><time>2026-04-12T09:04:06Z</time></trkpt><trkpt lat="44.2682651381124" lon="11.422929534222664"><ele>605.0</ele><time>2026-04-12T09:04:07Z</time></trkpt><trkpt lat="44.268164429337936" lon="11.422945869474113"><ele>605.0</ele><time>2026-04-12T09:04:08Z</time></trkpt><trkpt lat="44.268072472885436" lon="11.42295930566732"><ele>605.0</ele><time>2026-04-12T09:04:09Z</time></trkpt><trkpt lat="44.2679841785109" lon="11.422965255746382"><ele>605.0</ele><time>2026-04-12T09:04:10Z</time></trkpt><trkpt lat="44.267887732313255" lon="11.42298417694881"><ele>603.8</ele><time>2026-04-12T09:04:11Z</time></trkpt><trkpt lat="44.267789346212275" lon="11.422998161118974"><ele>602.6</ele><time>2026-04-12T09:04:12Z</time></trkpt><trkpt lat="44.26769929779417" lon="11.423007968350667"><ele>601.4</ele><time>2026-04-12T09:04:13Z</time></trkpt><trkpt lat="44.26761484072286" lon="11.423024194767642"><ele>600.2</ele><time>2026-04-12T09:04:14Z</time></trkpt><trkpt lat="44.267535659819025" lon="11.423055747364518"><ele>599.0</ele><time>2026-04-12T09:04:15Z</time></trkpt><trkpt lat="44.26740710300923" lon="11.423069032717226"><ele>599.0</ele><time>2026-04-12T09:04:17Z</time></trkpt><trkpt lat="44.267340102131385" lon="11.423101821960858"><ele>599.0</ele><time>2026-04-12T09:04:19Z</time></trkpt><trkpt lat="44.267280499729694" lon="11.423218489876513"><ele>599.0</ele><time>2026-04-12T09:08:01.999Z</time></trkpt><trkpt lat="44.26722220956869" lon="11.423265934226928"><ele>599.0</ele><time>2026-04-12T09:08:03.999Z</time></trkpt><trkpt lat="44.26716748220503" lon="11.423332374181589"><ele>599.0</ele><time>2026-04-12T09:08:05.999Z</time></trkpt><trkpt lat="44.26708832417542" lon="11.423417320635124"><ele>599.0</ele><time>2026-04-12T09:08:08Z</time></trkpt><trkpt lat="44.267008303009085" lon="11.423485050923901"><ele>599.6</ele><time>2026-04-12T09:08:10Z</time></trkpt><trkpt lat="44.26691862195459" lon="11.423547194941147"><ele>600.2</ele><time>2026-04-12T09:08:12Z</time></trkpt><trkpt lat="44.26679701344759" lon="11.423599680450108"><ele>600.8000000000001</ele><time>2026-04-12T09:08:14Z</time></trkpt><trkpt lat="44.26667045497585" lon="11.423651714112152"><ele>601.4</ele><time>2026-04-12T09:08:16Z</time></trkpt><trkpt lat="44.26660080042471" lon="11.423685081181809"><ele>602.0</ele><time>2026-04-12T09:08:17Z</time></trkpt><trkpt lat="44.266529704005485" lon="11.423704823460511"><ele>602.0</ele><time>2026-04-12T09:08:18Z</time></trkpt><trkpt lat="44.26645415675179" lon="11.423724551802382"><ele>602.0</ele><time>2026-04-12T09:08:19Z</time></trkpt><trkpt lat="44.26638613112635" lon="11.423748235826858"><ele>602.0</ele><time>2026-04-12T09:08:20Z</time></trkpt><trkpt lat="44.26631352678718" lon="11.423761954755449"><ele>602.0</ele><time>2026-04-12T09:08:21Z</time></trkpt><trkpt lat="44.26624088354342" lon="11.423769923390262"><ele>602.0</ele><time>2026-04-12T09:08:22Z</time></trkpt><trkpt lat="44.26616932909343" lon="11.423774049263658"><ele>602.0</ele><time>2026-04-12T09:08:23Z</time></trkpt><trkpt lat="44.26609194920243" lon="11.423778092298514"><ele>602.0</ele><time>2026-04-12T09:08:24Z</time></trkpt><trkpt lat="44.266010898100035" lon="11.423779829482182"><ele>602.8333333333333</ele><time>2026-04-12T09:08:25Z</time></trkpt><trkpt lat="44.26592870731389" lon="11.423779858542588"><ele>603.6666666666666</ele><time>2026-04-12T09:08:26Z</time></trkpt><trkpt lat="44.265853150541446" lon="11.423785230303912"><ele>604.5</ele><time>2026-04-12T09:08:27Z</time></trkpt><trkpt lat="44.26577293335683" lon="11.423792847558218"><ele>605.3333333333334</ele><time>2026-04-12T09:08:28Z</time></trkpt><trkpt lat="44.26569715092666" lon="11.42380079173225"><ele>606.1666666666667</ele><time>2026-04-12T09:08:29Z</time></trkpt><trkpt lat="44.26561977460793" lon="11.423805871390924"><ele>607.0</ele><time>2026-04-12T09:08:30Z</time></trkpt><trkpt lat="44.26554465720851" lon="11.423808770177123"><ele>607.8333333333334</ele><time>2026-04-12T09:08:31Z</time></trkpt><trkpt lat="44.26546308040501" lon="11.423809314370276"><ele>608.6666666666667</ele><time>2026-04-12T09:08:32Z</time></trkpt><trkpt lat="44.265378748358735" lon="11.423816467997023"><ele>609.5</ele><time>2026-04-12T09:08:33Z</time></trkpt><trkpt lat="44.265286407275106" lon="11.423825252017565"><ele>610.3333333333334</ele><time>2026-04-12T09:08:34Z</time></trkpt><trkpt lat="44.26519734179555" lon="11.423832528816995"><ele>611.1666666666666</ele><time>2026-04-12T09:08:35Z</time></trkpt><trkpt lat="44.26510366938884" lon="11.42383833008998"><ele>612.0</ele><time>2026-04-12T09:08:36Z</time></trkpt><trkpt lat="44.265014580624076" lon="11.423842871557712"><ele>613.3333333333334</ele><time>2026-04-12T09:08:37Z</time></trkpt><trkpt lat="44.26493091152052" lon="11.423850005251486"><ele>614.6666666666666</ele><time>2026-04-12T09:08:38Z</time></trkpt><trkpt lat="44.26485626191424" lon="11.423858176944089"><ele>616.0</ele><time>2026-04-12T09:08:39Z</time></trkpt><trkpt lat="44.26478575251197" lon="11.423861594113543"><ele>617.3333333333333</ele><time>2026-04-12T09:08:40Z</time></trkpt><trkpt lat="44.26471026177762" lon="11.423864544975167"><ele>618.6666666666666</ele><time>2026-04-12T09:08:41Z</time></trkpt><trkpt lat="44.26464441392265" lon="11.42386190695078"><ele>620.0</ele><time>2026-04-12T09:08:42Z</time></trkpt><trkpt lat="44.26452220133658" lon="11.4238573907207"><ele>619.8333333333333</ele><time>2026-04-12T09:08:44Z</time></trkpt><trkpt lat="44.26446282398895" lon="11.423827771411293"><ele>619.6666666666666</ele><time>2026-04-12T09:08:45Z</time></trkpt><trkpt lat="44.26439841916426" lon="11.423824644764634"><ele>619.5</ele><time>2026-04-12T09:08:46Z</time></trkpt><trkpt lat="44.26430536766621" lon="11.423747780974008"><ele>619.3333333333334</ele><time>2026-04-12T09:08:48Z</time></trkpt><trkpt lat="44.264195763999425" lon="11.423844925514661"><ele>619.1666666666667</ele><time>2026-04-12T09:08:49Z</time></trkpt><trkpt lat="44.26413597559743" lon="11.423879271487067"><ele>619.0</ele><time>2026-04-12T09:08:50Z</time></trkpt><trkpt lat="44.26405431486215" lon="11.423891058860606"><ele>619.8</ele><time>2026-04-12T09:08:51Z</time></trkpt><trkpt lat="44.26395434638401" lon="11.423893320454399"><ele>620.5999999999999</ele><time>2026-04-12T09:08:52Z</time></trkpt><trkpt lat="44.263856155978154" lon="11.423897950893783"><ele>621.4</ele><time>2026-04-12T09:08:53Z</time></trkpt><trkpt lat="44.26374962677841" lon="11.423911941512294"><ele>622.1999999999999</ele><time>2026-04-12T09:08:54Z</time></trkpt><trkpt lat="44.26364713386539" lon="11.423942568480523"><ele>623.0</ele><time>2026-04-12T09:08:55Z</time></trkpt><trkpt lat="44.26354892788676" lon="11.423973205954683"><ele>624.1999999999999</ele><time>2026-04-12T09:08:56Z</time></trkpt><trkpt lat="44.26344872201305" lon="11.423979719223144"><ele>625.4</ele><time>2026-04-12T09:08:57Z</time></trkpt><trkpt lat="44.26335424667758" lon="11.424004957401774"><ele>626.5999999999999</ele><time>2026-04-12T09:08:58Z</time></trkpt><trkpt lat="44.26327041460903" lon="11.424027352376196"><ele>627.8</ele><time>2026-04-12T09:08:59Z</time></trkpt><trkpt lat="44.26318862918547" lon="11.424049200599848"><ele>629.0</ele><time>2026-04-12T09:09:00Z</time></trkpt><trkpt lat="44.26310494107713" lon="11.424092751472893"><ele>630.2</ele><time>2026-04-12T09:09:01Z</time></trkpt><trkpt lat="44.263006927733436" lon="11.424114224788049"><ele>631.4</ele><time>2026-04-12T09:09:02Z</time></trkpt><trkpt lat="44.26291279499978" lon="11.424143416775202"><ele>632.6</ele><time>2026-04-12T09:09:03Z</time></trkpt><trkpt lat="44.26281507586504" lon="11.424181541410752"><ele>633.8</ele><time>2026-04-12T09:09:04Z</time></trkpt><trkpt lat="44.26272071253717" lon="11.424209929488175"><ele>635.0</ele><time>2026-04-12T09:09:05Z</time></trkpt><trkpt lat="44.26262712735986" lon="11.424237120038445"><ele>635.0</ele><time>2026-04-12T09:09:06Z</time></trkpt><trkpt lat="44.262540710836724" lon="11.424249552369998"><ele>635.0</ele><time>2026-04-12T09:09:07Z</time></trkpt><trkpt lat="44.26245464807023" lon="11.42424985681795"><ele>635.0</ele><time>2026-04-12T09:09:08Z</time></trkpt><trkpt lat="44.262382241061424" lon="11.424195183779828"><ele>635.0</ele><time>2026-04-12T09:09:09Z</time></trkpt><trkpt lat="44.26231337009856" lon="11.42414771019639"><ele>635.0</ele><time>2026-04-12T09:09:10Z</time></trkpt><trkpt lat="44.262250063728715" lon="11.424116791613674"><ele>635.0</ele><time>2026-04-12T09:09:11Z</time></trkpt><trkpt lat="44.262172898783064" lon="11.424042486341818"><ele>636.4</ele><time>2026-04-12T09:09:12Z</time></trkpt><trkpt lat="44.26208554235266" lon="11.42395470101241"><ele>637.8</ele><time>2026-04-12T09:09:13Z</time></trkpt><trkpt lat="44.26200153262668" lon="11.423864815962819"><ele>639.2</ele><time>2026-04-12T09:09:14Z</time></trkpt><trkpt lat="44.261917038228646" lon="11.423798053437679"><ele>640.6</ele><time>2026-04-12T09:09:15Z</time></trkpt><trkpt lat="44.26184882635051" lon="11.423738648228584"><ele>642.0</ele><time>2026-04-12T09:09:16Z</time></trkpt><trkpt lat="44.26178520873055" lon="11.423680332390093"><ele>642.2</ele><time>2026-04-12T09:09:17Z</time></trkpt><trkpt lat="44.26171039586429" lon="11.42361534021963"><ele>642.4000000000001</ele><time>2026-04-12T09:09:18Z</time></trkpt><trkpt lat="44.261616374725946" lon="11.423520361559511"><ele>642.5999999999999</ele><time>2026-04-12T09:09:19.999Z</time></trkpt><trkpt lat="44.26155126251033" lon="11.42347612602"><ele>642.8</ele><time>2026-04-12T09:09:20.999Z</time></trkpt><trkpt lat="44.261478341946685" lon="11.423412643267527"><ele>643.0</ele><time>2026-04-12T09:09:21.999Z</time></trkpt><trkpt lat="44.26140401397343" lon="11.423347845222215"><ele>645.4</ele><time>2026-04-12T09:09:22.999Z</time></trkpt><trkpt lat="44.26132619863779" lon="11.423279793299061"><ele>647.8</ele><time>2026-04-12T09:09:23.999Z</time></trkpt><trkpt lat="44.26125348978138" lon="11.423203860258825"><ele>650.2</ele><time>2026-04-12T09:09:24.999Z</time></trkpt><trkpt lat="44.26117568943467" lon="11.423134765545806"><ele>652.6</ele><time>2026-04-12T09:09:25.999Z</time></trkpt><trkpt lat="44.26108636307377" lon="11.423066198747991"><ele>655.0</ele><time>2026-04-12T09:09:26.999Z</time></trkpt><trkpt lat="44.26100119515841" lon="11.422989060001015"><ele>654.6666666666667</ele><time>2026-04-12T09:09:27.999Z</time></trkpt><trkpt lat="44.26091628476652" lon="11.422913221779421"><ele>654.3333333333334</ele><time>2026-04-12T09:09:28.999Z</time></trkpt><trkpt lat="44.26083936286598" lon="11.422841015560428"><ele>654.0</ele><time>2026-04-12T09:09:29.999Z</time></trkpt><trkpt lat="44.26076225200917" lon="11.42280346767832"><ele>653.6666666666666</ele><time>2026-04-12T09:09:30.999Z</time></trkpt><trkpt lat="44.260681963020616" lon="11.422790278155361"><ele>653.3333333333333</ele><time>2026-04-12T09:09:31.999Z</time></trkpt><trkpt lat="44.260598778577" lon="11.422805903472863"><ele>653.0</ele><time>2026-04-12T09:09:32.999Z</time></trkpt><trkpt lat="44.260529439412906" lon="11.422794174865002"><ele>654.4</ele><time>2026-04-12T09:09:33.999Z</time></trkpt><trkpt lat="44.26042597987253" lon="11.422802934884944"><ele>655.8</ele><time>2026-04-12T09:09:34.999Z</time></trkpt><trkpt lat="44.260326484489745" lon="11.422817693376516"><ele>657.2</ele><time>2026-04-12T09:09:35.999Z</time></trkpt><trkpt lat="44.26021803841372" lon="11.422835086894109"><ele>658.6</ele><time>2026-04-12T09:09:36.999Z</time></trkpt><trkpt lat="44.26012578000891" lon="11.422835949856802"><ele>660.0</ele><time>2026-04-12T09:09:37.999Z</time></trkpt><trkpt lat="44.26003912905285" lon="11.422830178628045"><ele>660.0</ele><time>2026-04-12T09:09:38.999Z</time></trkpt><trkpt lat="44.25994267910627" lon="11.42282221839024"><ele>660.0</ele><time>2026-04-12T09:09:39.999Z</time></trkpt><trkpt lat="44.259856393116344" lon="11.422818065190157"><ele>660.0</ele><time>2026-04-12T09:09:40.999Z</time></trkpt><trkpt lat="44.2597643021179" lon="11.422818501598469"><ele>660.0</ele><time>2026-04-12T09:09:41.999Z</time></trkpt><trkpt lat="44.25967459026058" lon="11.42282178929686"><ele>660.0</ele><time>2026-04-12T09:09:42.999Z</time></trkpt><trkpt lat="44.259575311196485" lon="11.422830585418122"><ele>668.0</ele><time>2026-04-12T09:09:43.999Z</time></trkpt><trkpt lat="44.2595001088039" lon="11.422822246703326"><ele>668.0</ele><time>2026-04-12T09:09:44.999Z</time></trkpt><trkpt lat="44.25938535515509" lon="11.422823589513934"><ele>668.0</ele><time>2026-04-12T09:09:46.999Z</time></trkpt><trkpt lat="44.25931939171615" lon="11.422814544813267"><ele>668.0</ele><time>2026-04-12T09:09:48.999Z</time></trkpt></trkseg></trk></gpx>